<?xml version="1.0" encoding="UTF-8" standalone="no" ?>
<gpx xmlns="http://www.topografix.com/GPX/1/1" xmlns:xsi="http://www.w3.org/2001/XMLSchema-instance" xsi:schemaLocation="http://www.topografix.com/GPX/1/1 http://www.topografix.com/GPX/1/1/gpx.xsd" version="1.1" creator="VisuGPX - https://www.visugpx.com">
  <metadata>
    <name>Hygrométrie 100%</name>
    <desc><![CDATA[Hygrométrie 100%Hygrométrie 100%Hygrométrie 100%Hygrométrie 100%]]></desc>
  </metadata>
  <wpt lat="47.49101" lon="6.76222">
    <ele>363.2</ele>
    <name><![CDATA[Point de cheminement 1]]></name>
    <desc><![CDATA[]]></desc>
  </wpt>
  <wpt lat="47.51448" lon="6.72406">
    <ele>457.1</ele>
    <name><![CDATA[Point de cheminement 2]]></name>
    <desc><![CDATA[]]></desc>
  </wpt>
  <wpt lat="47.54379" lon="6.70738">
    <ele>417.4</ele>
    <name><![CDATA[Point de cheminement 3]]></name>
    <desc><![CDATA[]]></desc>
  </wpt>
  <wpt lat="47.54018" lon="6.74742">
    <ele>492.5</ele>
    <name><![CDATA[Point de cheminement 4]]></name>
    <desc><![CDATA[]]></desc>
  </wpt>
  <wpt lat="47.51812" lon="6.77498">
    <ele>436.6</ele>
    <name><![CDATA[Point de cheminement 5]]></name>
    <desc><![CDATA[]]></desc>
  </wpt>
  <trk>
    <name><![CDATA[18 Rue Antoine Coysevox]]></name>
    <desc><![CDATA[]]></desc>
    <trkseg>
      <trkpt lat="47.51806" lon="6.77475">
        <ele>450</ele>
        <time>2017-02-05T08:08:33.115Z</time>
      </trkpt>
      <trkpt lat="47.51805" lon="6.77474">
        <ele>437.9</ele>
        <time>2017-02-05T08:13:31.999Z</time>
      </trkpt>
      <trkpt lat="47.51803" lon="6.77466">
        <ele>437.9</ele>
        <time>2017-02-05T08:13:32.999Z</time>
      </trkpt>
      <trkpt lat="47.51805" lon="6.7747">
        <ele>438.7</ele>
        <time>2017-02-05T08:14:02.999Z</time>
      </trkpt>
      <trkpt lat="47.51806" lon="6.77471">
        <ele>438.9</ele>
        <time>2017-02-05T08:14:03.999Z</time>
      </trkpt>
      <trkpt lat="47.5181" lon="6.77475">
        <ele>439.9</ele>
        <time>2017-02-05T08:14:37.999Z</time>
      </trkpt>
      <trkpt lat="47.5181" lon="6.77475">
        <ele>439.8</ele>
        <time>2017-02-05T08:14:38.999Z</time>
      </trkpt>
      <trkpt lat="47.5181" lon="6.77481">
        <ele>438.8</ele>
        <time>2017-02-05T08:17:46.000Z</time>
      </trkpt>
      <trkpt lat="47.5181" lon="6.77486">
        <ele>438.9</ele>
        <time>2017-02-05T08:17:47.000Z</time>
      </trkpt>
      <trkpt lat="47.51808" lon="6.77491">
        <ele>438.9</ele>
        <time>2017-02-05T08:17:48.000Z</time>
      </trkpt>
      <trkpt lat="47.51806" lon="6.77494">
        <ele>438.9</ele>
        <time>2017-02-05T08:17:49.000Z</time>
      </trkpt>
      <trkpt lat="47.51803" lon="6.77495">
        <ele>438.9</ele>
        <time>2017-02-05T08:17:50.000Z</time>
      </trkpt>
      <trkpt lat="47.51799" lon="6.77494">
        <ele>439</ele>
        <time>2017-02-05T08:17:51.000Z</time>
      </trkpt>
      <trkpt lat="47.51797" lon="6.77493">
        <ele>438.9</ele>
        <time>2017-02-05T08:17:52.000Z</time>
      </trkpt>
      <trkpt lat="47.51794" lon="6.77492">
        <ele>438.8</ele>
        <time>2017-02-05T08:17:53.000Z</time>
      </trkpt>
      <trkpt lat="47.51791" lon="6.7749">
        <ele>438.7</ele>
        <time>2017-02-05T08:17:54.000Z</time>
      </trkpt>
      <trkpt lat="47.51787" lon="6.77488">
        <ele>438.6</ele>
        <time>2017-02-05T08:17:55.000Z</time>
      </trkpt>
      <trkpt lat="47.51784" lon="6.77487">
        <ele>438.6</ele>
        <time>2017-02-05T08:17:56.000Z</time>
      </trkpt>
      <trkpt lat="47.51781" lon="6.77487">
        <ele>438.6</ele>
        <time>2017-02-05T08:17:57.000Z</time>
      </trkpt>
      <trkpt lat="47.51777" lon="6.77486">
        <ele>438.5</ele>
        <time>2017-02-05T08:17:58.000Z</time>
      </trkpt>
      <trkpt lat="47.51774" lon="6.77485">
        <ele>438.5</ele>
        <time>2017-02-05T08:17:59.000Z</time>
      </trkpt>
      <trkpt lat="47.5177" lon="6.77484">
        <ele>438.4</ele>
        <time>2017-02-05T08:18:00.000Z</time>
      </trkpt>
      <trkpt lat="47.51767" lon="6.77483">
        <ele>438.3</ele>
        <time>2017-02-05T08:18:01.000Z</time>
      </trkpt>
      <trkpt lat="47.51763" lon="6.77482">
        <ele>438.3</ele>
        <time>2017-02-05T08:18:02.000Z</time>
      </trkpt>
      <trkpt lat="47.51759" lon="6.77481">
        <ele>438</ele>
        <time>2017-02-05T08:18:03.000Z</time>
      </trkpt>
      <trkpt lat="47.51755" lon="6.7748">
        <ele>438</ele>
        <time>2017-02-05T08:18:04.000Z</time>
      </trkpt>
      <trkpt lat="47.51751" lon="6.77479">
        <ele>437.5</ele>
        <time>2017-02-05T08:18:05.000Z</time>
      </trkpt>
      <trkpt lat="47.51747" lon="6.77478">
        <ele>437.5</ele>
        <time>2017-02-05T08:18:06.000Z</time>
      </trkpt>
      <trkpt lat="47.51743" lon="6.77478">
        <ele>437.5</ele>
        <time>2017-02-05T08:18:07.000Z</time>
      </trkpt>
      <trkpt lat="47.5174" lon="6.77481">
        <ele>437.5</ele>
        <time>2017-02-05T08:18:08.000Z</time>
      </trkpt>
      <trkpt lat="47.51738" lon="6.77486">
        <ele>437.5</ele>
        <time>2017-02-05T08:18:09.000Z</time>
      </trkpt>
      <trkpt lat="47.51736" lon="6.7749">
        <ele>437.6</ele>
        <time>2017-02-05T08:18:10.000Z</time>
      </trkpt>
      <trkpt lat="47.51735" lon="6.77496">
        <ele>437.6</ele>
        <time>2017-02-05T08:18:11.000Z</time>
      </trkpt>
      <trkpt lat="47.51733" lon="6.77502">
        <ele>437.6</ele>
        <time>2017-02-05T08:18:12.000Z</time>
      </trkpt>
      <trkpt lat="47.51732" lon="6.77507">
        <ele>437.7</ele>
        <time>2017-02-05T08:18:13.000Z</time>
      </trkpt>
      <trkpt lat="47.5173" lon="6.77512">
        <ele>437.7</ele>
        <time>2017-02-05T08:18:14.000Z</time>
      </trkpt>
      <trkpt lat="47.51729" lon="6.77517">
        <ele>437.8</ele>
        <time>2017-02-05T08:18:15.000Z</time>
      </trkpt>
      <trkpt lat="47.51727" lon="6.7752">
        <ele>437.9</ele>
        <time>2017-02-05T08:18:16.000Z</time>
      </trkpt>
      <trkpt lat="47.51726" lon="6.77522">
        <ele>437.9</ele>
        <time>2017-02-05T08:18:17.000Z</time>
      </trkpt>
      <trkpt lat="47.51724" lon="6.77525">
        <ele>437.9</ele>
        <time>2017-02-05T08:18:18.000Z</time>
      </trkpt>
      <trkpt lat="47.51721" lon="6.77528">
        <ele>437.9</ele>
        <time>2017-02-05T08:18:19.000Z</time>
      </trkpt>
      <trkpt lat="47.51719" lon="6.77529">
        <ele>438</ele>
        <time>2017-02-05T08:18:20.000Z</time>
      </trkpt>
      <trkpt lat="47.51717" lon="6.77533">
        <ele>438.1</ele>
        <time>2017-02-05T08:18:21.000Z</time>
      </trkpt>
      <trkpt lat="47.51717" lon="6.77537">
        <ele>438.1</ele>
        <time>2017-02-05T08:18:22.000Z</time>
      </trkpt>
      <trkpt lat="47.51716" lon="6.77541">
        <ele>438.2</ele>
        <time>2017-02-05T08:18:23.000Z</time>
      </trkpt>
      <trkpt lat="47.51714" lon="6.77546">
        <ele>438.2</ele>
        <time>2017-02-05T08:18:24.000Z</time>
      </trkpt>
      <trkpt lat="47.51711" lon="6.7755">
        <ele>438.3</ele>
        <time>2017-02-05T08:18:25.000Z</time>
      </trkpt>
      <trkpt lat="47.51708" lon="6.77552">
        <ele>438.4</ele>
        <time>2017-02-05T08:18:26.000Z</time>
      </trkpt>
      <trkpt lat="47.51704" lon="6.77551">
        <ele>437.8</ele>
        <time>2017-02-05T08:18:27.000Z</time>
      </trkpt>
      <trkpt lat="47.51701" lon="6.77549">
        <ele>437.7</ele>
        <time>2017-02-05T08:18:28.000Z</time>
      </trkpt>
      <trkpt lat="47.51697" lon="6.77544">
        <ele>437.6</ele>
        <time>2017-02-05T08:18:29.000Z</time>
      </trkpt>
      <trkpt lat="47.51693" lon="6.7754">
        <ele>436.2</ele>
        <time>2017-02-05T08:18:30.000Z</time>
      </trkpt>
      <trkpt lat="47.51689" lon="6.77535">
        <ele>434.9</ele>
        <time>2017-02-05T08:18:31.000Z</time>
      </trkpt>
      <trkpt lat="47.51686" lon="6.7753">
        <ele>434</ele>
        <time>2017-02-05T08:18:32.000Z</time>
      </trkpt>
      <trkpt lat="47.51682" lon="6.77525">
        <ele>433</ele>
        <time>2017-02-05T08:18:33.000Z</time>
      </trkpt>
      <trkpt lat="47.51677" lon="6.77519">
        <ele>432.5</ele>
        <time>2017-02-05T08:18:34.000Z</time>
      </trkpt>
      <trkpt lat="47.51672" lon="6.77514">
        <ele>431.9</ele>
        <time>2017-02-05T08:18:35.000Z</time>
      </trkpt>
      <trkpt lat="47.51666" lon="6.77508">
        <ele>431.1</ele>
        <time>2017-02-05T08:18:36.000Z</time>
      </trkpt>
      <trkpt lat="47.51659" lon="6.77501">
        <ele>430.5</ele>
        <time>2017-02-05T08:18:37.000Z</time>
      </trkpt>
      <trkpt lat="47.51653" lon="6.77495">
        <ele>430</ele>
        <time>2017-02-05T08:18:38.000Z</time>
      </trkpt>
      <trkpt lat="47.51648" lon="6.77489">
        <ele>429.6</ele>
        <time>2017-02-05T08:18:39.000Z</time>
      </trkpt>
      <trkpt lat="47.51644" lon="6.77483">
        <ele>429.1</ele>
        <time>2017-02-05T08:18:40.000Z</time>
      </trkpt>
      <trkpt lat="47.51639" lon="6.77477">
        <ele>429.4</ele>
        <time>2017-02-05T08:18:41.000Z</time>
      </trkpt>
      <trkpt lat="47.51633" lon="6.7747">
        <ele>429.1</ele>
        <time>2017-02-05T08:18:42.000Z</time>
      </trkpt>
      <trkpt lat="47.51628" lon="6.77464">
        <ele>429.5</ele>
        <time>2017-02-05T08:18:43.000Z</time>
      </trkpt>
      <trkpt lat="47.51623" lon="6.77458">
        <ele>429.2</ele>
        <time>2017-02-05T08:18:44.000Z</time>
      </trkpt>
      <trkpt lat="47.51618" lon="6.77451">
        <ele>429.5</ele>
        <time>2017-02-05T08:18:45.000Z</time>
      </trkpt>
      <trkpt lat="47.51613" lon="6.77444">
        <ele>429.5</ele>
        <time>2017-02-05T08:18:46.000Z</time>
      </trkpt>
      <trkpt lat="47.51608" lon="6.77437">
        <ele>428.6</ele>
        <time>2017-02-05T08:18:47.000Z</time>
      </trkpt>
      <trkpt lat="47.51602" lon="6.7743">
        <ele>427.9</ele>
        <time>2017-02-05T08:18:48.000Z</time>
      </trkpt>
      <trkpt lat="47.51596" lon="6.77423">
        <ele>427.9</ele>
        <time>2017-02-05T08:18:49.000Z</time>
      </trkpt>
      <trkpt lat="47.51591" lon="6.77416">
        <ele>428.2</ele>
        <time>2017-02-05T08:18:50.000Z</time>
      </trkpt>
      <trkpt lat="47.51585" lon="6.77408">
        <ele>428.4</ele>
        <time>2017-02-05T08:18:51.000Z</time>
      </trkpt>
      <trkpt lat="47.51578" lon="6.774">
        <ele>429.1</ele>
        <time>2017-02-05T08:18:52.000Z</time>
      </trkpt>
      <trkpt lat="47.51572" lon="6.77392">
        <ele>429.9</ele>
        <time>2017-02-05T08:18:53.000Z</time>
      </trkpt>
      <trkpt lat="47.51564" lon="6.77383">
        <ele>430.1</ele>
        <time>2017-02-05T08:18:54.000Z</time>
      </trkpt>
      <trkpt lat="47.51557" lon="6.77375">
        <ele>430.6</ele>
        <time>2017-02-05T08:18:55.000Z</time>
      </trkpt>
      <trkpt lat="47.5155" lon="6.77366">
        <ele>430.7</ele>
        <time>2017-02-05T08:18:56.000Z</time>
      </trkpt>
      <trkpt lat="47.51543" lon="6.77358">
        <ele>430.4</ele>
        <time>2017-02-05T08:18:57.000Z</time>
      </trkpt>
      <trkpt lat="47.51536" lon="6.77349">
        <ele>430</ele>
        <time>2017-02-05T08:18:58.000Z</time>
      </trkpt>
      <trkpt lat="47.51529" lon="6.7734">
        <ele>429.2</ele>
        <time>2017-02-05T08:18:59.000Z</time>
      </trkpt>
      <trkpt lat="47.51521" lon="6.77331">
        <ele>428</ele>
        <time>2017-02-05T08:19:00.000Z</time>
      </trkpt>
      <trkpt lat="47.51513" lon="6.77321">
        <ele>427.1</ele>
        <time>2017-02-05T08:19:01.000Z</time>
      </trkpt>
      <trkpt lat="47.51505" lon="6.77312">
        <ele>426</ele>
        <time>2017-02-05T08:19:02.000Z</time>
      </trkpt>
      <trkpt lat="47.51498" lon="6.77302">
        <ele>424.9</ele>
        <time>2017-02-05T08:19:03.000Z</time>
      </trkpt>
      <trkpt lat="47.51494" lon="6.77291">
        <ele>424.1</ele>
        <time>2017-02-05T08:19:04.000Z</time>
      </trkpt>
      <trkpt lat="47.5149" lon="6.7728">
        <ele>423.5</ele>
        <time>2017-02-05T08:19:05.000Z</time>
      </trkpt>
      <trkpt lat="47.51487" lon="6.77269">
        <ele>422.6</ele>
        <time>2017-02-05T08:19:06.000Z</time>
      </trkpt>
      <trkpt lat="47.51487" lon="6.77258">
        <ele>422.3</ele>
        <time>2017-02-05T08:19:07.000Z</time>
      </trkpt>
      <trkpt lat="47.51487" lon="6.77247">
        <ele>422.1</ele>
        <time>2017-02-05T08:19:08.000Z</time>
      </trkpt>
      <trkpt lat="47.51486" lon="6.77236">
        <ele>422.3</ele>
        <time>2017-02-05T08:19:09.000Z</time>
      </trkpt>
      <trkpt lat="47.51486" lon="6.77225">
        <ele>422.5</ele>
        <time>2017-02-05T08:19:10.000Z</time>
      </trkpt>
      <trkpt lat="47.51483" lon="6.77215">
        <ele>422.7</ele>
        <time>2017-02-05T08:19:11.000Z</time>
      </trkpt>
      <trkpt lat="47.51479" lon="6.77207">
        <ele>422.8</ele>
        <time>2017-02-05T08:19:12.000Z</time>
      </trkpt>
      <trkpt lat="47.51475" lon="6.77203">
        <ele>422.7</ele>
        <time>2017-02-05T08:19:13.000Z</time>
      </trkpt>
      <trkpt lat="47.51469" lon="6.77202">
        <ele>422.4</ele>
        <time>2017-02-05T08:19:14.000Z</time>
      </trkpt>
      <trkpt lat="47.51461" lon="6.77202">
        <ele>422</ele>
        <time>2017-02-05T08:19:15.000Z</time>
      </trkpt>
      <trkpt lat="47.51453" lon="6.77202">
        <ele>421.7</ele>
        <time>2017-02-05T08:19:16.000Z</time>
      </trkpt>
      <trkpt lat="47.51446" lon="6.77206">
        <ele>421.6</ele>
        <time>2017-02-05T08:19:17.000Z</time>
      </trkpt>
      <trkpt lat="47.51439" lon="6.7721">
        <ele>421.4</ele>
        <time>2017-02-05T08:19:18.000Z</time>
      </trkpt>
      <trkpt lat="47.51431" lon="6.77214">
        <ele>421.3</ele>
        <time>2017-02-05T08:19:19.000Z</time>
      </trkpt>
      <trkpt lat="47.51425" lon="6.77217">
        <ele>421.2</ele>
        <time>2017-02-05T08:19:20.000Z</time>
      </trkpt>
      <trkpt lat="47.51418" lon="6.77221">
        <ele>421.1</ele>
        <time>2017-02-05T08:19:21.000Z</time>
      </trkpt>
      <trkpt lat="47.51412" lon="6.77224">
        <ele>421.3</ele>
        <time>2017-02-05T08:19:22.000Z</time>
      </trkpt>
      <trkpt lat="47.51406" lon="6.77227">
        <ele>421</ele>
        <time>2017-02-05T08:19:23.000Z</time>
      </trkpt>
      <trkpt lat="47.51401" lon="6.7723">
        <ele>421</ele>
        <time>2017-02-05T08:19:24.000Z</time>
      </trkpt>
      <trkpt lat="47.51395" lon="6.77233">
        <ele>420.4</ele>
        <time>2017-02-05T08:19:25.000Z</time>
      </trkpt>
      <trkpt lat="47.51391" lon="6.77235">
        <ele>420</ele>
        <time>2017-02-05T08:19:26.000Z</time>
      </trkpt>
      <trkpt lat="47.51386" lon="6.77239">
        <ele>419.8</ele>
        <time>2017-02-05T08:19:27.000Z</time>
      </trkpt>
      <trkpt lat="47.51381" lon="6.77242">
        <ele>419.8</ele>
        <time>2017-02-05T08:19:28.000Z</time>
      </trkpt>
      <trkpt lat="47.51377" lon="6.77245">
        <ele>419.8</ele>
        <time>2017-02-05T08:19:29.000Z</time>
      </trkpt>
      <trkpt lat="47.51372" lon="6.77248">
        <ele>420</ele>
        <time>2017-02-05T08:19:30.000Z</time>
      </trkpt>
      <trkpt lat="47.51368" lon="6.77252">
        <ele>419.8</ele>
        <time>2017-02-05T08:19:31.000Z</time>
      </trkpt>
      <trkpt lat="47.51365" lon="6.77254">
        <ele>420.1</ele>
        <time>2017-02-05T08:19:32.000Z</time>
      </trkpt>
      <trkpt lat="47.51362" lon="6.77257">
        <ele>420.5</ele>
        <time>2017-02-05T08:19:33.000Z</time>
      </trkpt>
      <trkpt lat="47.51358" lon="6.7726">
        <ele>421.4</ele>
        <time>2017-02-05T08:19:34.000Z</time>
      </trkpt>
      <trkpt lat="47.51356" lon="6.77263">
        <ele>421.4</ele>
        <time>2017-02-05T08:19:35.000Z</time>
      </trkpt>
      <trkpt lat="47.51353" lon="6.77265">
        <ele>421.5</ele>
        <time>2017-02-05T08:19:36.000Z</time>
      </trkpt>
      <trkpt lat="47.51349" lon="6.77268">
        <ele>421.7</ele>
        <time>2017-02-05T08:19:37.000Z</time>
      </trkpt>
      <trkpt lat="47.51347" lon="6.7727">
        <ele>421.8</ele>
        <time>2017-02-05T08:19:38.000Z</time>
      </trkpt>
      <trkpt lat="47.51344" lon="6.77273">
        <ele>421.9</ele>
        <time>2017-02-05T08:19:39.000Z</time>
      </trkpt>
      <trkpt lat="47.51341" lon="6.77275">
        <ele>422</ele>
        <time>2017-02-05T08:19:40.000Z</time>
      </trkpt>
      <trkpt lat="47.51338" lon="6.77277">
        <ele>422.2</ele>
        <time>2017-02-05T08:19:41.000Z</time>
      </trkpt>
      <trkpt lat="47.51334" lon="6.77279">
        <ele>422.3</ele>
        <time>2017-02-05T08:19:42.000Z</time>
      </trkpt>
      <trkpt lat="47.51331" lon="6.7728">
        <ele>422.5</ele>
        <time>2017-02-05T08:19:43.000Z</time>
      </trkpt>
      <trkpt lat="47.51328" lon="6.77281">
        <ele>422.6</ele>
        <time>2017-02-05T08:19:44.000Z</time>
      </trkpt>
      <trkpt lat="47.51325" lon="6.77281">
        <ele>422.8</ele>
        <time>2017-02-05T08:19:45.000Z</time>
      </trkpt>
      <trkpt lat="47.51321" lon="6.77281">
        <ele>422.9</ele>
        <time>2017-02-05T08:19:46.000Z</time>
      </trkpt>
      <trkpt lat="47.51317" lon="6.77281">
        <ele>423.1</ele>
        <time>2017-02-05T08:19:47.000Z</time>
      </trkpt>
      <trkpt lat="47.51313" lon="6.7728">
        <ele>423.3</ele>
        <time>2017-02-05T08:19:48.000Z</time>
      </trkpt>
      <trkpt lat="47.51309" lon="6.77279">
        <ele>423.4</ele>
        <time>2017-02-05T08:19:49.000Z</time>
      </trkpt>
      <trkpt lat="47.51306" lon="6.77276">
        <ele>423.5</ele>
        <time>2017-02-05T08:19:50.000Z</time>
      </trkpt>
      <trkpt lat="47.51302" lon="6.77274">
        <ele>423.6</ele>
        <time>2017-02-05T08:19:51.000Z</time>
      </trkpt>
      <trkpt lat="47.51299" lon="6.77272">
        <ele>423.7</ele>
        <time>2017-02-05T08:19:52.000Z</time>
      </trkpt>
      <trkpt lat="47.51296" lon="6.7727">
        <ele>423.7</ele>
        <time>2017-02-05T08:19:53.000Z</time>
      </trkpt>
      <trkpt lat="47.51293" lon="6.77269">
        <ele>423.8</ele>
        <time>2017-02-05T08:19:54.000Z</time>
      </trkpt>
      <trkpt lat="47.51289" lon="6.77267">
        <ele>424.6</ele>
        <time>2017-02-05T08:19:55.000Z</time>
      </trkpt>
      <trkpt lat="47.51286" lon="6.77264">
        <ele>425.9</ele>
        <time>2017-02-05T08:19:56.000Z</time>
      </trkpt>
      <trkpt lat="47.51282" lon="6.77262">
        <ele>426.9</ele>
        <time>2017-02-05T08:19:57.000Z</time>
      </trkpt>
      <trkpt lat="47.51278" lon="6.7726">
        <ele>427.6</ele>
        <time>2017-02-05T08:19:58.000Z</time>
      </trkpt>
      <trkpt lat="47.51273" lon="6.77257">
        <ele>428.3</ele>
        <time>2017-02-05T08:19:59.000Z</time>
      </trkpt>
      <trkpt lat="47.51269" lon="6.77254">
        <ele>428.4</ele>
        <time>2017-02-05T08:20:00.000Z</time>
      </trkpt>
      <trkpt lat="47.51266" lon="6.77249">
        <ele>427.7</ele>
        <time>2017-02-05T08:20:01.000Z</time>
      </trkpt>
      <trkpt lat="47.51263" lon="6.77245">
        <ele>427.8</ele>
        <time>2017-02-05T08:20:02.000Z</time>
      </trkpt>
      <trkpt lat="47.5126" lon="6.77241">
        <ele>428.1</ele>
        <time>2017-02-05T08:20:03.000Z</time>
      </trkpt>
      <trkpt lat="47.51257" lon="6.77236">
        <ele>428.6</ele>
        <time>2017-02-05T08:20:04.000Z</time>
      </trkpt>
      <trkpt lat="47.51252" lon="6.7723">
        <ele>428.5</ele>
        <time>2017-02-05T08:20:05.000Z</time>
      </trkpt>
      <trkpt lat="47.51248" lon="6.77224">
        <ele>429</ele>
        <time>2017-02-05T08:20:06.000Z</time>
      </trkpt>
      <trkpt lat="47.51245" lon="6.77218">
        <ele>429.3</ele>
        <time>2017-02-05T08:20:07.000Z</time>
      </trkpt>
      <trkpt lat="47.51241" lon="6.77212">
        <ele>429.3</ele>
        <time>2017-02-05T08:20:08.000Z</time>
      </trkpt>
      <trkpt lat="47.51237" lon="6.77204">
        <ele>429.1</ele>
        <time>2017-02-05T08:20:09.000Z</time>
      </trkpt>
      <trkpt lat="47.51234" lon="6.77196">
        <ele>428.2</ele>
        <time>2017-02-05T08:20:10.000Z</time>
      </trkpt>
      <trkpt lat="47.51231" lon="6.77189">
        <ele>427.9</ele>
        <time>2017-02-05T08:20:11.000Z</time>
      </trkpt>
      <trkpt lat="47.51227" lon="6.7718">
        <ele>427.8</ele>
        <time>2017-02-05T08:20:12.000Z</time>
      </trkpt>
      <trkpt lat="47.51223" lon="6.77172">
        <ele>428.2</ele>
        <time>2017-02-05T08:20:13.000Z</time>
      </trkpt>
      <trkpt lat="47.51219" lon="6.77164">
        <ele>428.6</ele>
        <time>2017-02-05T08:20:14.000Z</time>
      </trkpt>
      <trkpt lat="47.51214" lon="6.77156">
        <ele>429</ele>
        <time>2017-02-05T08:20:15.000Z</time>
      </trkpt>
      <trkpt lat="47.5121" lon="6.77147">
        <ele>429</ele>
        <time>2017-02-05T08:20:16.000Z</time>
      </trkpt>
      <trkpt lat="47.51206" lon="6.77139">
        <ele>428.5</ele>
        <time>2017-02-05T08:20:17.000Z</time>
      </trkpt>
      <trkpt lat="47.51202" lon="6.77132">
        <ele>428.3</ele>
        <time>2017-02-05T08:20:18.000Z</time>
      </trkpt>
      <trkpt lat="47.51198" lon="6.77124">
        <ele>428.4</ele>
        <time>2017-02-05T08:20:19.000Z</time>
      </trkpt>
      <trkpt lat="47.51194" lon="6.77116">
        <ele>428.4</ele>
        <time>2017-02-05T08:20:20.000Z</time>
      </trkpt>
      <trkpt lat="47.51189" lon="6.77108">
        <ele>428.7</ele>
        <time>2017-02-05T08:20:21.000Z</time>
      </trkpt>
      <trkpt lat="47.51185" lon="6.771">
        <ele>429</ele>
        <time>2017-02-05T08:20:22.000Z</time>
      </trkpt>
      <trkpt lat="47.51179" lon="6.77092">
        <ele>429.7</ele>
        <time>2017-02-05T08:20:23.000Z</time>
      </trkpt>
      <trkpt lat="47.51174" lon="6.77084">
        <ele>430.7</ele>
        <time>2017-02-05T08:20:24.000Z</time>
      </trkpt>
      <trkpt lat="47.51169" lon="6.77076">
        <ele>431.7</ele>
        <time>2017-02-05T08:20:25.000Z</time>
      </trkpt>
      <trkpt lat="47.51164" lon="6.7707">
        <ele>432.7</ele>
        <time>2017-02-05T08:20:26.000Z</time>
      </trkpt>
      <trkpt lat="47.51159" lon="6.77063">
        <ele>432.9</ele>
        <time>2017-02-05T08:20:27.000Z</time>
      </trkpt>
      <trkpt lat="47.51154" lon="6.77056">
        <ele>433</ele>
        <time>2017-02-05T08:20:28.000Z</time>
      </trkpt>
      <trkpt lat="47.51147" lon="6.77051">
        <ele>432.7</ele>
        <time>2017-02-05T08:20:29.000Z</time>
      </trkpt>
      <trkpt lat="47.51142" lon="6.77045">
        <ele>432.4</ele>
        <time>2017-02-05T08:20:30.000Z</time>
      </trkpt>
      <trkpt lat="47.51136" lon="6.7704">
        <ele>432.5</ele>
        <time>2017-02-05T08:20:31.000Z</time>
      </trkpt>
      <trkpt lat="47.51129" lon="6.77035">
        <ele>432.1</ele>
        <time>2017-02-05T08:20:32.000Z</time>
      </trkpt>
      <trkpt lat="47.51122" lon="6.77031">
        <ele>432</ele>
        <time>2017-02-05T08:20:33.000Z</time>
      </trkpt>
      <trkpt lat="47.51117" lon="6.77027">
        <ele>431.4</ele>
        <time>2017-02-05T08:20:34.000Z</time>
      </trkpt>
      <trkpt lat="47.51111" lon="6.77022">
        <ele>430.4</ele>
        <time>2017-02-05T08:20:35.000Z</time>
      </trkpt>
      <trkpt lat="47.51105" lon="6.77018">
        <ele>430.1</ele>
        <time>2017-02-05T08:20:36.000Z</time>
      </trkpt>
      <trkpt lat="47.51099" lon="6.77014">
        <ele>430</ele>
        <time>2017-02-05T08:20:37.000Z</time>
      </trkpt>
      <trkpt lat="47.51094" lon="6.77009">
        <ele>428.5</ele>
        <time>2017-02-05T08:20:38.000Z</time>
      </trkpt>
      <trkpt lat="47.51088" lon="6.77005">
        <ele>426.9</ele>
        <time>2017-02-05T08:20:39.000Z</time>
      </trkpt>
      <trkpt lat="47.51083" lon="6.77">
        <ele>425.4</ele>
        <time>2017-02-05T08:20:40.000Z</time>
      </trkpt>
      <trkpt lat="47.51078" lon="6.76995">
        <ele>424.1</ele>
        <time>2017-02-05T08:20:41.000Z</time>
      </trkpt>
      <trkpt lat="47.51073" lon="6.76991">
        <ele>423.3</ele>
        <time>2017-02-05T08:20:42.000Z</time>
      </trkpt>
      <trkpt lat="47.51069" lon="6.76987">
        <ele>422.5</ele>
        <time>2017-02-05T08:20:43.000Z</time>
      </trkpt>
      <trkpt lat="47.51064" lon="6.76982">
        <ele>421.9</ele>
        <time>2017-02-05T08:20:44.000Z</time>
      </trkpt>
      <trkpt lat="47.51059" lon="6.76977">
        <ele>421.7</ele>
        <time>2017-02-05T08:20:45.000Z</time>
      </trkpt>
      <trkpt lat="47.51055" lon="6.76972">
        <ele>421.9</ele>
        <time>2017-02-05T08:20:46.000Z</time>
      </trkpt>
      <trkpt lat="47.51049" lon="6.76968">
        <ele>422.2</ele>
        <time>2017-02-05T08:20:47.000Z</time>
      </trkpt>
      <trkpt lat="47.51044" lon="6.76963">
        <ele>422.1</ele>
        <time>2017-02-05T08:20:48.000Z</time>
      </trkpt>
      <trkpt lat="47.5104" lon="6.76959">
        <ele>421.8</ele>
        <time>2017-02-05T08:20:49.000Z</time>
      </trkpt>
      <trkpt lat="47.51035" lon="6.76954">
        <ele>421.7</ele>
        <time>2017-02-05T08:20:50.000Z</time>
      </trkpt>
      <trkpt lat="47.51031" lon="6.7695">
        <ele>421.1</ele>
        <time>2017-02-05T08:20:51.000Z</time>
      </trkpt>
      <trkpt lat="47.51027" lon="6.76945">
        <ele>420.8</ele>
        <time>2017-02-05T08:20:52.000Z</time>
      </trkpt>
      <trkpt lat="47.51023" lon="6.76941">
        <ele>420.7</ele>
        <time>2017-02-05T08:20:53.000Z</time>
      </trkpt>
      <trkpt lat="47.51019" lon="6.76937">
        <ele>420.5</ele>
        <time>2017-02-05T08:20:54.000Z</time>
      </trkpt>
      <trkpt lat="47.51015" lon="6.76934">
        <ele>420.6</ele>
        <time>2017-02-05T08:20:55.000Z</time>
      </trkpt>
      <trkpt lat="47.51012" lon="6.76931">
        <ele>420.7</ele>
        <time>2017-02-05T08:20:56.000Z</time>
      </trkpt>
      <trkpt lat="47.51007" lon="6.76928">
        <ele>420.6</ele>
        <time>2017-02-05T08:20:57.000Z</time>
      </trkpt>
      <trkpt lat="47.51003" lon="6.76924">
        <ele>420.2</ele>
        <time>2017-02-05T08:20:58.000Z</time>
      </trkpt>
      <trkpt lat="47.50998" lon="6.7692">
        <ele>420.3</ele>
        <time>2017-02-05T08:20:59.000Z</time>
      </trkpt>
      <trkpt lat="47.50993" lon="6.76916">
        <ele>420</ele>
        <time>2017-02-05T08:21:00.000Z</time>
      </trkpt>
      <trkpt lat="47.50989" lon="6.76913">
        <ele>420.5</ele>
        <time>2017-02-05T08:21:01.000Z</time>
      </trkpt>
      <trkpt lat="47.50984" lon="6.76909">
        <ele>420.8</ele>
        <time>2017-02-05T08:21:02.000Z</time>
      </trkpt>
      <trkpt lat="47.5098" lon="6.76906">
        <ele>421.1</ele>
        <time>2017-02-05T08:21:03.000Z</time>
      </trkpt>
      <trkpt lat="47.50975" lon="6.76904">
        <ele>421.6</ele>
        <time>2017-02-05T08:21:04.000Z</time>
      </trkpt>
      <trkpt lat="47.50971" lon="6.76901">
        <ele>422.1</ele>
        <time>2017-02-05T08:21:05.000Z</time>
      </trkpt>
      <trkpt lat="47.50967" lon="6.76897">
        <ele>422.9</ele>
        <time>2017-02-05T08:21:06.000Z</time>
      </trkpt>
      <trkpt lat="47.50963" lon="6.76892">
        <ele>423.2</ele>
        <time>2017-02-05T08:21:07.000Z</time>
      </trkpt>
      <trkpt lat="47.50959" lon="6.76888">
        <ele>423.4</ele>
        <time>2017-02-05T08:21:08.000Z</time>
      </trkpt>
      <trkpt lat="47.50955" lon="6.76884">
        <ele>423.6</ele>
        <time>2017-02-05T08:21:09.000Z</time>
      </trkpt>
      <trkpt lat="47.50951" lon="6.7688">
        <ele>423.6</ele>
        <time>2017-02-05T08:21:10.000Z</time>
      </trkpt>
      <trkpt lat="47.50947" lon="6.76876">
        <ele>423.8</ele>
        <time>2017-02-05T08:21:11.000Z</time>
      </trkpt>
      <trkpt lat="47.50943" lon="6.76871">
        <ele>424.1</ele>
        <time>2017-02-05T08:21:12.000Z</time>
      </trkpt>
      <trkpt lat="47.50939" lon="6.76867">
        <ele>424.5</ele>
        <time>2017-02-05T08:21:13.000Z</time>
      </trkpt>
      <trkpt lat="47.50936" lon="6.76863">
        <ele>424.4</ele>
        <time>2017-02-05T08:21:14.000Z</time>
      </trkpt>
      <trkpt lat="47.50933" lon="6.76859">
        <ele>424.4</ele>
        <time>2017-02-05T08:21:15.000Z</time>
      </trkpt>
      <trkpt lat="47.5093" lon="6.76855">
        <ele>423.9</ele>
        <time>2017-02-05T08:21:16.000Z</time>
      </trkpt>
      <trkpt lat="47.50927" lon="6.76851">
        <ele>424.1</ele>
        <time>2017-02-05T08:21:17.000Z</time>
      </trkpt>
      <trkpt lat="47.50925" lon="6.76847">
        <ele>424.2</ele>
        <time>2017-02-05T08:21:18.000Z</time>
      </trkpt>
      <trkpt lat="47.50922" lon="6.76842">
        <ele>424.1</ele>
        <time>2017-02-05T08:21:19.000Z</time>
      </trkpt>
      <trkpt lat="47.5092" lon="6.76838">
        <ele>424</ele>
        <time>2017-02-05T08:21:20.000Z</time>
      </trkpt>
      <trkpt lat="47.50918" lon="6.76832">
        <ele>423.3</ele>
        <time>2017-02-05T08:21:21.000Z</time>
      </trkpt>
      <trkpt lat="47.50916" lon="6.76827">
        <ele>422.9</ele>
        <time>2017-02-05T08:21:22.000Z</time>
      </trkpt>
      <trkpt lat="47.50914" lon="6.76823">
        <ele>422.4</ele>
        <time>2017-02-05T08:21:23.000Z</time>
      </trkpt>
      <trkpt lat="47.50912" lon="6.76817">
        <ele>422.1</ele>
        <time>2017-02-05T08:21:24.000Z</time>
      </trkpt>
      <trkpt lat="47.5091" lon="6.76812">
        <ele>422.1</ele>
        <time>2017-02-05T08:21:25.000Z</time>
      </trkpt>
      <trkpt lat="47.50907" lon="6.76806">
        <ele>422</ele>
        <time>2017-02-05T08:21:26.000Z</time>
      </trkpt>
      <trkpt lat="47.50905" lon="6.76801">
        <ele>421.7</ele>
        <time>2017-02-05T08:21:27.000Z</time>
      </trkpt>
      <trkpt lat="47.50903" lon="6.76796">
        <ele>421.7</ele>
        <time>2017-02-05T08:21:28.000Z</time>
      </trkpt>
      <trkpt lat="47.50901" lon="6.76792">
        <ele>422.3</ele>
        <time>2017-02-05T08:21:29.000Z</time>
      </trkpt>
      <trkpt lat="47.50899" lon="6.76787">
        <ele>422.3</ele>
        <time>2017-02-05T08:21:30.000Z</time>
      </trkpt>
      <trkpt lat="47.50898" lon="6.76783">
        <ele>422.4</ele>
        <time>2017-02-05T08:21:31.000Z</time>
      </trkpt>
      <trkpt lat="47.50896" lon="6.76779">
        <ele>422.4</ele>
        <time>2017-02-05T08:21:32.000Z</time>
      </trkpt>
      <trkpt lat="47.50893" lon="6.76773">
        <ele>422.4</ele>
        <time>2017-02-05T08:21:33.000Z</time>
      </trkpt>
      <trkpt lat="47.50891" lon="6.76768">
        <ele>422.5</ele>
        <time>2017-02-05T08:21:34.000Z</time>
      </trkpt>
      <trkpt lat="47.50888" lon="6.76762">
        <ele>422.6</ele>
        <time>2017-02-05T08:21:35.000Z</time>
      </trkpt>
      <trkpt lat="47.50886" lon="6.76758">
        <ele>422.7</ele>
        <time>2017-02-05T08:21:36.000Z</time>
      </trkpt>
      <trkpt lat="47.50884" lon="6.76754">
        <ele>422.7</ele>
        <time>2017-02-05T08:21:37.000Z</time>
      </trkpt>
      <trkpt lat="47.50882" lon="6.7675">
        <ele>422.8</ele>
        <time>2017-02-05T08:21:38.000Z</time>
      </trkpt>
      <trkpt lat="47.5088" lon="6.76747">
        <ele>422.8</ele>
        <time>2017-02-05T08:21:39.000Z</time>
      </trkpt>
      <trkpt lat="47.50878" lon="6.7674">
        <ele>422.9</ele>
        <time>2017-02-05T08:21:40.000Z</time>
      </trkpt>
      <trkpt lat="47.50877" lon="6.76733">
        <ele>423</ele>
        <time>2017-02-05T08:21:41.000Z</time>
      </trkpt>
      <trkpt lat="47.50876" lon="6.76726">
        <ele>424.5</ele>
        <time>2017-02-05T08:21:42.000Z</time>
      </trkpt>
      <trkpt lat="47.50875" lon="6.76722">
        <ele>424.7</ele>
        <time>2017-02-05T08:21:43.000Z</time>
      </trkpt>
      <trkpt lat="47.50873" lon="6.76718">
        <ele>424.8</ele>
        <time>2017-02-05T08:21:44.000Z</time>
      </trkpt>
      <trkpt lat="47.50871" lon="6.76713">
        <ele>425</ele>
        <time>2017-02-05T08:21:45.000Z</time>
      </trkpt>
      <trkpt lat="47.5087" lon="6.76708">
        <ele>426.9</ele>
        <time>2017-02-05T08:21:46.000Z</time>
      </trkpt>
      <trkpt lat="47.50868" lon="6.76702">
        <ele>427</ele>
        <time>2017-02-05T08:21:47.000Z</time>
      </trkpt>
      <trkpt lat="47.50866" lon="6.76697">
        <ele>427.1</ele>
        <time>2017-02-05T08:21:48.000Z</time>
      </trkpt>
      <trkpt lat="47.50864" lon="6.76692">
        <ele>428.4</ele>
        <time>2017-02-05T08:21:49.000Z</time>
      </trkpt>
      <trkpt lat="47.50862" lon="6.76687">
        <ele>428.5</ele>
        <time>2017-02-05T08:21:50.000Z</time>
      </trkpt>
      <trkpt lat="47.5086" lon="6.76682">
        <ele>428.7</ele>
        <time>2017-02-05T08:21:51.000Z</time>
      </trkpt>
      <trkpt lat="47.50858" lon="6.76678">
        <ele>428.9</ele>
        <time>2017-02-05T08:21:52.000Z</time>
      </trkpt>
      <trkpt lat="47.50855" lon="6.76671">
        <ele>429.1</ele>
        <time>2017-02-05T08:21:53.000Z</time>
      </trkpt>
      <trkpt lat="47.50852" lon="6.76667">
        <ele>429.3</ele>
        <time>2017-02-05T08:21:54.000Z</time>
      </trkpt>
      <trkpt lat="47.50851" lon="6.76664">
        <ele>431</ele>
        <time>2017-02-05T08:21:55.000Z</time>
      </trkpt>
      <trkpt lat="47.50849" lon="6.7666">
        <ele>431.1</ele>
        <time>2017-02-05T08:21:56.000Z</time>
      </trkpt>
      <trkpt lat="47.50847" lon="6.76656">
        <ele>431.2</ele>
        <time>2017-02-05T08:21:57.000Z</time>
      </trkpt>
      <trkpt lat="47.50845" lon="6.76651">
        <ele>431.3</ele>
        <time>2017-02-05T08:21:58.000Z</time>
      </trkpt>
      <trkpt lat="47.50843" lon="6.76647">
        <ele>431.4</ele>
        <time>2017-02-05T08:21:59.000Z</time>
      </trkpt>
      <trkpt lat="47.50842" lon="6.76643">
        <ele>431.5</ele>
        <time>2017-02-05T08:22:00.000Z</time>
      </trkpt>
      <trkpt lat="47.5084" lon="6.76639">
        <ele>431.7</ele>
        <time>2017-02-05T08:22:01.000Z</time>
      </trkpt>
      <trkpt lat="47.50838" lon="6.76636">
        <ele>431.8</ele>
        <time>2017-02-05T08:22:02.000Z</time>
      </trkpt>
      <trkpt lat="47.50837" lon="6.76632">
        <ele>431.9</ele>
        <time>2017-02-05T08:22:03.000Z</time>
      </trkpt>
      <trkpt lat="47.50835" lon="6.76628">
        <ele>432</ele>
        <time>2017-02-05T08:22:04.000Z</time>
      </trkpt>
      <trkpt lat="47.50834" lon="6.76624">
        <ele>432.1</ele>
        <time>2017-02-05T08:22:05.000Z</time>
      </trkpt>
      <trkpt lat="47.50832" lon="6.76621">
        <ele>432.2</ele>
        <time>2017-02-05T08:22:06.000Z</time>
      </trkpt>
      <trkpt lat="47.5083" lon="6.76616">
        <ele>432.3</ele>
        <time>2017-02-05T08:22:07.000Z</time>
      </trkpt>
      <trkpt lat="47.50828" lon="6.76612">
        <ele>432.4</ele>
        <time>2017-02-05T08:22:08.000Z</time>
      </trkpt>
      <trkpt lat="47.50827" lon="6.76609">
        <ele>432.6</ele>
        <time>2017-02-05T08:22:09.000Z</time>
      </trkpt>
      <trkpt lat="47.50825" lon="6.76604">
        <ele>432.6</ele>
        <time>2017-02-05T08:22:10.000Z</time>
      </trkpt>
      <trkpt lat="47.50824" lon="6.766">
        <ele>432.7</ele>
        <time>2017-02-05T08:22:11.000Z</time>
      </trkpt>
      <trkpt lat="47.50823" lon="6.76596">
        <ele>432.8</ele>
        <time>2017-02-05T08:22:12.000Z</time>
      </trkpt>
      <trkpt lat="47.50822" lon="6.76592">
        <ele>432.9</ele>
        <time>2017-02-05T08:22:13.000Z</time>
      </trkpt>
      <trkpt lat="47.50819" lon="6.76592">
        <ele>433.2</ele>
        <time>2017-02-05T08:22:15.000Z</time>
      </trkpt>
      <trkpt lat="47.50817" lon="6.76595">
        <ele>433.3</ele>
        <time>2017-02-05T08:22:16.000Z</time>
      </trkpt>
      <trkpt lat="47.50814" lon="6.76596">
        <ele>433.4</ele>
        <time>2017-02-05T08:22:18.000Z</time>
      </trkpt>
      <trkpt lat="47.50813" lon="6.76593">
        <ele>433.4</ele>
        <time>2017-02-05T08:22:19.000Z</time>
      </trkpt>
      <trkpt lat="47.50811" lon="6.7659">
        <ele>433.4</ele>
        <time>2017-02-05T08:22:20.000Z</time>
      </trkpt>
      <trkpt lat="47.50808" lon="6.76587">
        <ele>433.4</ele>
        <time>2017-02-05T08:22:21.000Z</time>
      </trkpt>
      <trkpt lat="47.50806" lon="6.76586">
        <ele>433.5</ele>
        <time>2017-02-05T08:22:22.000Z</time>
      </trkpt>
      <trkpt lat="47.50804" lon="6.76586">
        <ele>433.5</ele>
        <time>2017-02-05T08:22:23.000Z</time>
      </trkpt>
      <trkpt lat="47.50801" lon="6.76587">
        <ele>433.6</ele>
        <time>2017-02-05T08:22:24.000Z</time>
      </trkpt>
      <trkpt lat="47.50799" lon="6.76587">
        <ele>433.6</ele>
        <time>2017-02-05T08:22:25.000Z</time>
      </trkpt>
      <trkpt lat="47.50794" lon="6.76587">
        <ele>433.7</ele>
        <time>2017-02-05T08:22:28.000Z</time>
      </trkpt>
      <trkpt lat="47.50794" lon="6.76587">
        <ele>433.7</ele>
        <time>2017-02-05T08:22:29.000Z</time>
      </trkpt>
      <trkpt lat="47.50794" lon="6.76587">
        <ele>434.6</ele>
        <time>2017-02-05T08:22:37.000Z</time>
      </trkpt>
      <trkpt lat="47.50788" lon="6.7659">
        <ele>434.7</ele>
        <time>2017-02-05T08:22:38.000Z</time>
      </trkpt>
      <trkpt lat="47.50788" lon="6.7659">
        <ele>436.1</ele>
        <time>2017-02-05T08:22:50.000Z</time>
      </trkpt>
      <trkpt lat="47.50781" lon="6.76592">
        <ele>436.2</ele>
        <time>2017-02-05T08:22:51.000Z</time>
      </trkpt>
      <trkpt lat="47.50781" lon="6.76592">
        <ele>436.2</ele>
        <time>2017-02-05T08:22:53.000Z</time>
      </trkpt>
      <trkpt lat="47.50776" lon="6.76593">
        <ele>436.3</ele>
        <time>2017-02-05T08:22:54.000Z</time>
      </trkpt>
      <trkpt lat="47.50774" lon="6.76594">
        <ele>436.4</ele>
        <time>2017-02-05T08:22:55.000Z</time>
      </trkpt>
      <trkpt lat="47.5077" lon="6.76594">
        <ele>436.4</ele>
        <time>2017-02-05T08:22:56.000Z</time>
      </trkpt>
      <trkpt lat="47.50767" lon="6.76594">
        <ele>436.5</ele>
        <time>2017-02-05T08:22:57.000Z</time>
      </trkpt>
      <trkpt lat="47.50764" lon="6.76595">
        <ele>436.5</ele>
        <time>2017-02-05T08:22:58.000Z</time>
      </trkpt>
      <trkpt lat="47.5076" lon="6.76595">
        <ele>436.6</ele>
        <time>2017-02-05T08:22:59.000Z</time>
      </trkpt>
      <trkpt lat="47.50757" lon="6.76596">
        <ele>436.6</ele>
        <time>2017-02-05T08:23:00.000Z</time>
      </trkpt>
      <trkpt lat="47.50754" lon="6.76596">
        <ele>436.7</ele>
        <time>2017-02-05T08:23:01.000Z</time>
      </trkpt>
      <trkpt lat="47.50751" lon="6.76597">
        <ele>436.7</ele>
        <time>2017-02-05T08:23:02.000Z</time>
      </trkpt>
      <trkpt lat="47.50748" lon="6.76596">
        <ele>436.8</ele>
        <time>2017-02-05T08:23:03.000Z</time>
      </trkpt>
      <trkpt lat="47.50745" lon="6.76595">
        <ele>436.9</ele>
        <time>2017-02-05T08:23:04.000Z</time>
      </trkpt>
      <trkpt lat="47.50741" lon="6.76595">
        <ele>437</ele>
        <time>2017-02-05T08:23:05.000Z</time>
      </trkpt>
      <trkpt lat="47.50737" lon="6.76594">
        <ele>437.1</ele>
        <time>2017-02-05T08:23:06.000Z</time>
      </trkpt>
      <trkpt lat="47.50735" lon="6.76594">
        <ele>437.1</ele>
        <time>2017-02-05T08:23:07.000Z</time>
      </trkpt>
      <trkpt lat="47.50731" lon="6.76592">
        <ele>437.2</ele>
        <time>2017-02-05T08:23:08.000Z</time>
      </trkpt>
      <trkpt lat="47.50728" lon="6.76591">
        <ele>437.3</ele>
        <time>2017-02-05T08:23:09.000Z</time>
      </trkpt>
      <trkpt lat="47.50725" lon="6.76591">
        <ele>437.3</ele>
        <time>2017-02-05T08:23:10.000Z</time>
      </trkpt>
      <trkpt lat="47.50722" lon="6.7659">
        <ele>437.4</ele>
        <time>2017-02-05T08:23:11.000Z</time>
      </trkpt>
      <trkpt lat="47.50719" lon="6.7659">
        <ele>437.5</ele>
        <time>2017-02-05T08:23:12.000Z</time>
      </trkpt>
      <trkpt lat="47.50715" lon="6.76589">
        <ele>437.6</ele>
        <time>2017-02-05T08:23:13.000Z</time>
      </trkpt>
      <trkpt lat="47.50712" lon="6.76588">
        <ele>437.7</ele>
        <time>2017-02-05T08:23:14.000Z</time>
      </trkpt>
      <trkpt lat="47.50708" lon="6.76587">
        <ele>437.8</ele>
        <time>2017-02-05T08:23:15.000Z</time>
      </trkpt>
      <trkpt lat="47.50705" lon="6.76587">
        <ele>437.9</ele>
        <time>2017-02-05T08:23:16.000Z</time>
      </trkpt>
      <trkpt lat="47.50702" lon="6.76587">
        <ele>438</ele>
        <time>2017-02-05T08:23:17.000Z</time>
      </trkpt>
      <trkpt lat="47.50699" lon="6.76587">
        <ele>438.1</ele>
        <time>2017-02-05T08:23:18.000Z</time>
      </trkpt>
      <trkpt lat="47.50695" lon="6.76587">
        <ele>438.2</ele>
        <time>2017-02-05T08:23:19.000Z</time>
      </trkpt>
      <trkpt lat="47.50692" lon="6.76588">
        <ele>438.3</ele>
        <time>2017-02-05T08:23:20.000Z</time>
      </trkpt>
      <trkpt lat="47.5069" lon="6.76588">
        <ele>438.5</ele>
        <time>2017-02-05T08:23:21.000Z</time>
      </trkpt>
      <trkpt lat="47.50687" lon="6.76588">
        <ele>438.6</ele>
        <time>2017-02-05T08:23:22.000Z</time>
      </trkpt>
      <trkpt lat="47.50684" lon="6.76588">
        <ele>438.7</ele>
        <time>2017-02-05T08:23:23.000Z</time>
      </trkpt>
      <trkpt lat="47.50682" lon="6.76589">
        <ele>438.8</ele>
        <time>2017-02-05T08:23:24.000Z</time>
      </trkpt>
      <trkpt lat="47.50679" lon="6.76589">
        <ele>438.9</ele>
        <time>2017-02-05T08:23:25.000Z</time>
      </trkpt>
      <trkpt lat="47.50676" lon="6.76589">
        <ele>439</ele>
        <time>2017-02-05T08:23:26.000Z</time>
      </trkpt>
      <trkpt lat="47.50673" lon="6.7659">
        <ele>439.1</ele>
        <time>2017-02-05T08:23:27.000Z</time>
      </trkpt>
      <trkpt lat="47.5067" lon="6.76591">
        <ele>439.2</ele>
        <time>2017-02-05T08:23:28.000Z</time>
      </trkpt>
      <trkpt lat="47.50666" lon="6.76592">
        <ele>439.3</ele>
        <time>2017-02-05T08:23:29.000Z</time>
      </trkpt>
      <trkpt lat="47.50664" lon="6.76593">
        <ele>439.4</ele>
        <time>2017-02-05T08:23:30.000Z</time>
      </trkpt>
      <trkpt lat="47.50661" lon="6.76594">
        <ele>439.5</ele>
        <time>2017-02-05T08:23:31.000Z</time>
      </trkpt>
      <trkpt lat="47.50658" lon="6.76596">
        <ele>439.6</ele>
        <time>2017-02-05T08:23:32.000Z</time>
      </trkpt>
      <trkpt lat="47.50655" lon="6.76597">
        <ele>439.7</ele>
        <time>2017-02-05T08:23:33.000Z</time>
      </trkpt>
      <trkpt lat="47.50652" lon="6.76598">
        <ele>439.8</ele>
        <time>2017-02-05T08:23:34.000Z</time>
      </trkpt>
      <trkpt lat="47.50648" lon="6.76599">
        <ele>439.9</ele>
        <time>2017-02-05T08:23:35.000Z</time>
      </trkpt>
      <trkpt lat="47.50645" lon="6.76601">
        <ele>440</ele>
        <time>2017-02-05T08:23:36.000Z</time>
      </trkpt>
      <trkpt lat="47.50642" lon="6.76601">
        <ele>440.2</ele>
        <time>2017-02-05T08:23:37.000Z</time>
      </trkpt>
      <trkpt lat="47.50639" lon="6.76603">
        <ele>440.3</ele>
        <time>2017-02-05T08:23:38.000Z</time>
      </trkpt>
      <trkpt lat="47.50636" lon="6.76604">
        <ele>440.4</ele>
        <time>2017-02-05T08:23:39.000Z</time>
      </trkpt>
      <trkpt lat="47.50634" lon="6.76606">
        <ele>440.5</ele>
        <time>2017-02-05T08:23:40.000Z</time>
      </trkpt>
      <trkpt lat="47.50632" lon="6.76608">
        <ele>440.5</ele>
        <time>2017-02-05T08:23:41.000Z</time>
      </trkpt>
      <trkpt lat="47.5063" lon="6.7661">
        <ele>440.6</ele>
        <time>2017-02-05T08:23:42.000Z</time>
      </trkpt>
      <trkpt lat="47.50627" lon="6.76613">
        <ele>440.6</ele>
        <time>2017-02-05T08:23:43.000Z</time>
      </trkpt>
      <trkpt lat="47.50625" lon="6.76615">
        <ele>440.7</ele>
        <time>2017-02-05T08:23:44.000Z</time>
      </trkpt>
      <trkpt lat="47.50622" lon="6.76617">
        <ele>440.7</ele>
        <time>2017-02-05T08:23:45.000Z</time>
      </trkpt>
      <trkpt lat="47.50619" lon="6.76618">
        <ele>440.8</ele>
        <time>2017-02-05T08:23:46.000Z</time>
      </trkpt>
      <trkpt lat="47.50616" lon="6.76619">
        <ele>440.8</ele>
        <time>2017-02-05T08:23:47.000Z</time>
      </trkpt>
      <trkpt lat="47.50613" lon="6.76621">
        <ele>440.9</ele>
        <time>2017-02-05T08:23:48.000Z</time>
      </trkpt>
      <trkpt lat="47.5061" lon="6.76622">
        <ele>441</ele>
        <time>2017-02-05T08:23:49.000Z</time>
      </trkpt>
      <trkpt lat="47.50607" lon="6.76623">
        <ele>441.1</ele>
        <time>2017-02-05T08:23:50.000Z</time>
      </trkpt>
      <trkpt lat="47.50603" lon="6.76624">
        <ele>441.3</ele>
        <time>2017-02-05T08:23:51.000Z</time>
      </trkpt>
      <trkpt lat="47.506" lon="6.76625">
        <ele>441.4</ele>
        <time>2017-02-05T08:23:52.000Z</time>
      </trkpt>
      <trkpt lat="47.50597" lon="6.76626">
        <ele>441.5</ele>
        <time>2017-02-05T08:23:53.000Z</time>
      </trkpt>
      <trkpt lat="47.50594" lon="6.76628">
        <ele>441.7</ele>
        <time>2017-02-05T08:23:54.000Z</time>
      </trkpt>
      <trkpt lat="47.50591" lon="6.76629">
        <ele>441.8</ele>
        <time>2017-02-05T08:23:55.000Z</time>
      </trkpt>
      <trkpt lat="47.50589" lon="6.7663">
        <ele>441.9</ele>
        <time>2017-02-05T08:23:56.000Z</time>
      </trkpt>
      <trkpt lat="47.50585" lon="6.76631">
        <ele>442.1</ele>
        <time>2017-02-05T08:23:58.000Z</time>
      </trkpt>
      <trkpt lat="47.50582" lon="6.76632">
        <ele>442.1</ele>
        <time>2017-02-05T08:23:59.000Z</time>
      </trkpt>
      <trkpt lat="47.50579" lon="6.76633">
        <ele>442.2</ele>
        <time>2017-02-05T08:24:00.000Z</time>
      </trkpt>
      <trkpt lat="47.50576" lon="6.76633">
        <ele>442.3</ele>
        <time>2017-02-05T08:24:01.000Z</time>
      </trkpt>
      <trkpt lat="47.50573" lon="6.76634">
        <ele>442.4</ele>
        <time>2017-02-05T08:24:02.000Z</time>
      </trkpt>
      <trkpt lat="47.5057" lon="6.76634">
        <ele>442.5</ele>
        <time>2017-02-05T08:24:03.000Z</time>
      </trkpt>
      <trkpt lat="47.50567" lon="6.76635">
        <ele>442.6</ele>
        <time>2017-02-05T08:24:04.000Z</time>
      </trkpt>
      <trkpt lat="47.50564" lon="6.76636">
        <ele>442.7</ele>
        <time>2017-02-05T08:24:05.000Z</time>
      </trkpt>
      <trkpt lat="47.50561" lon="6.76636">
        <ele>442.8</ele>
        <time>2017-02-05T08:24:06.000Z</time>
      </trkpt>
      <trkpt lat="47.50557" lon="6.76636">
        <ele>442.9</ele>
        <time>2017-02-05T08:24:07.000Z</time>
      </trkpt>
      <trkpt lat="47.50554" lon="6.76637">
        <ele>443</ele>
        <time>2017-02-05T08:24:08.000Z</time>
      </trkpt>
      <trkpt lat="47.5055" lon="6.76638">
        <ele>443.2</ele>
        <time>2017-02-05T08:24:09.000Z</time>
      </trkpt>
      <trkpt lat="47.50546" lon="6.76639">
        <ele>443.4</ele>
        <time>2017-02-05T08:24:10.000Z</time>
      </trkpt>
      <trkpt lat="47.50543" lon="6.76641">
        <ele>443.5</ele>
        <time>2017-02-05T08:24:11.000Z</time>
      </trkpt>
      <trkpt lat="47.50539" lon="6.76642">
        <ele>443.7</ele>
        <time>2017-02-05T08:24:12.000Z</time>
      </trkpt>
      <trkpt lat="47.50536" lon="6.76644">
        <ele>443.8</ele>
        <time>2017-02-05T08:24:13.000Z</time>
      </trkpt>
      <trkpt lat="47.50532" lon="6.76645">
        <ele>445</ele>
        <time>2017-02-05T08:24:14.000Z</time>
      </trkpt>
      <trkpt lat="47.50528" lon="6.76646">
        <ele>445.7</ele>
        <time>2017-02-05T08:24:15.000Z</time>
      </trkpt>
      <trkpt lat="47.50524" lon="6.76647">
        <ele>446.7</ele>
        <time>2017-02-05T08:24:16.000Z</time>
      </trkpt>
      <trkpt lat="47.50519" lon="6.76648">
        <ele>447.4</ele>
        <time>2017-02-05T08:24:17.000Z</time>
      </trkpt>
      <trkpt lat="47.50516" lon="6.76648">
        <ele>448</ele>
        <time>2017-02-05T08:24:18.000Z</time>
      </trkpt>
      <trkpt lat="47.50512" lon="6.7665">
        <ele>447.9</ele>
        <time>2017-02-05T08:24:19.000Z</time>
      </trkpt>
      <trkpt lat="47.50508" lon="6.76651">
        <ele>448.1</ele>
        <time>2017-02-05T08:24:20.000Z</time>
      </trkpt>
      <trkpt lat="47.50504" lon="6.76652">
        <ele>448.4</ele>
        <time>2017-02-05T08:24:21.000Z</time>
      </trkpt>
      <trkpt lat="47.505" lon="6.76653">
        <ele>448.3</ele>
        <time>2017-02-05T08:24:22.000Z</time>
      </trkpt>
      <trkpt lat="47.50496" lon="6.76654">
        <ele>447.8</ele>
        <time>2017-02-05T08:24:23.000Z</time>
      </trkpt>
      <trkpt lat="47.50493" lon="6.76655">
        <ele>447.2</ele>
        <time>2017-02-05T08:24:24.000Z</time>
      </trkpt>
      <trkpt lat="47.50488" lon="6.76657">
        <ele>447.2</ele>
        <time>2017-02-05T08:24:25.000Z</time>
      </trkpt>
      <trkpt lat="47.50484" lon="6.76659">
        <ele>447</ele>
        <time>2017-02-05T08:24:26.000Z</time>
      </trkpt>
      <trkpt lat="47.50479" lon="6.7666">
        <ele>446.9</ele>
        <time>2017-02-05T08:24:27.000Z</time>
      </trkpt>
      <trkpt lat="47.50474" lon="6.76663">
        <ele>446.8</ele>
        <time>2017-02-05T08:24:28.000Z</time>
      </trkpt>
      <trkpt lat="47.5047" lon="6.76665">
        <ele>446.1</ele>
        <time>2017-02-05T08:24:29.000Z</time>
      </trkpt>
      <trkpt lat="47.50465" lon="6.76668">
        <ele>445.2</ele>
        <time>2017-02-05T08:24:30.000Z</time>
      </trkpt>
      <trkpt lat="47.50461" lon="6.76671">
        <ele>444.3</ele>
        <time>2017-02-05T08:24:31.000Z</time>
      </trkpt>
      <trkpt lat="47.50456" lon="6.76673">
        <ele>443.9</ele>
        <time>2017-02-05T08:24:32.000Z</time>
      </trkpt>
      <trkpt lat="47.50451" lon="6.76676">
        <ele>443.9</ele>
        <time>2017-02-05T08:24:33.000Z</time>
      </trkpt>
      <trkpt lat="47.50446" lon="6.76678">
        <ele>444.1</ele>
        <time>2017-02-05T08:24:34.000Z</time>
      </trkpt>
      <trkpt lat="47.50441" lon="6.76679">
        <ele>444.9</ele>
        <time>2017-02-05T08:24:35.000Z</time>
      </trkpt>
      <trkpt lat="47.50436" lon="6.76681">
        <ele>445.5</ele>
        <time>2017-02-05T08:24:36.000Z</time>
      </trkpt>
      <trkpt lat="47.50432" lon="6.76683">
        <ele>446.2</ele>
        <time>2017-02-05T08:24:37.000Z</time>
      </trkpt>
      <trkpt lat="47.50428" lon="6.76685">
        <ele>447.1</ele>
        <time>2017-02-05T08:24:38.000Z</time>
      </trkpt>
      <trkpt lat="47.50424" lon="6.76686">
        <ele>447.6</ele>
        <time>2017-02-05T08:24:39.000Z</time>
      </trkpt>
      <trkpt lat="47.50419" lon="6.76688">
        <ele>448.3</ele>
        <time>2017-02-05T08:24:40.000Z</time>
      </trkpt>
      <trkpt lat="47.50414" lon="6.76689">
        <ele>449</ele>
        <time>2017-02-05T08:24:41.000Z</time>
      </trkpt>
      <trkpt lat="47.5041" lon="6.76691">
        <ele>449.4</ele>
        <time>2017-02-05T08:24:42.000Z</time>
      </trkpt>
      <trkpt lat="47.50406" lon="6.76692">
        <ele>449.6</ele>
        <time>2017-02-05T08:24:43.000Z</time>
      </trkpt>
      <trkpt lat="47.50402" lon="6.76694">
        <ele>449.5</ele>
        <time>2017-02-05T08:24:44.000Z</time>
      </trkpt>
      <trkpt lat="47.50398" lon="6.76696">
        <ele>449.3</ele>
        <time>2017-02-05T08:24:45.000Z</time>
      </trkpt>
      <trkpt lat="47.50395" lon="6.76698">
        <ele>448.3</ele>
        <time>2017-02-05T08:24:46.000Z</time>
      </trkpt>
      <trkpt lat="47.50391" lon="6.76701">
        <ele>448.1</ele>
        <time>2017-02-05T08:24:47.000Z</time>
      </trkpt>
      <trkpt lat="47.50387" lon="6.76703">
        <ele>447.5</ele>
        <time>2017-02-05T08:24:48.000Z</time>
      </trkpt>
      <trkpt lat="47.50383" lon="6.76704">
        <ele>447.2</ele>
        <time>2017-02-05T08:24:49.000Z</time>
      </trkpt>
      <trkpt lat="47.50379" lon="6.76706">
        <ele>447.2</ele>
        <time>2017-02-05T08:24:50.000Z</time>
      </trkpt>
      <trkpt lat="47.50374" lon="6.76707">
        <ele>447.6</ele>
        <time>2017-02-05T08:24:51.000Z</time>
      </trkpt>
      <trkpt lat="47.5037" lon="6.76709">
        <ele>447.9</ele>
        <time>2017-02-05T08:24:52.000Z</time>
      </trkpt>
      <trkpt lat="47.50366" lon="6.7671">
        <ele>447.9</ele>
        <time>2017-02-05T08:24:53.000Z</time>
      </trkpt>
      <trkpt lat="47.50362" lon="6.76712">
        <ele>448.3</ele>
        <time>2017-02-05T08:24:54.000Z</time>
      </trkpt>
      <trkpt lat="47.50358" lon="6.76715">
        <ele>448.7</ele>
        <time>2017-02-05T08:24:55.000Z</time>
      </trkpt>
      <trkpt lat="47.50354" lon="6.76716">
        <ele>449.1</ele>
        <time>2017-02-05T08:24:56.000Z</time>
      </trkpt>
      <trkpt lat="47.5035" lon="6.76718">
        <ele>449.8</ele>
        <time>2017-02-05T08:24:57.000Z</time>
      </trkpt>
      <trkpt lat="47.50345" lon="6.76719">
        <ele>450.1</ele>
        <time>2017-02-05T08:24:58.000Z</time>
      </trkpt>
      <trkpt lat="47.50341" lon="6.76721">
        <ele>449.8</ele>
        <time>2017-02-05T08:24:59.000Z</time>
      </trkpt>
      <trkpt lat="47.50337" lon="6.76722">
        <ele>449.9</ele>
        <time>2017-02-05T08:25:00.000Z</time>
      </trkpt>
      <trkpt lat="47.50334" lon="6.76724">
        <ele>449.9</ele>
        <time>2017-02-05T08:25:01.000Z</time>
      </trkpt>
      <trkpt lat="47.5033" lon="6.76725">
        <ele>449.8</ele>
        <time>2017-02-05T08:25:02.000Z</time>
      </trkpt>
      <trkpt lat="47.50326" lon="6.76727">
        <ele>449.8</ele>
        <time>2017-02-05T08:25:03.000Z</time>
      </trkpt>
      <trkpt lat="47.50322" lon="6.76728">
        <ele>449.8</ele>
        <time>2017-02-05T08:25:04.000Z</time>
      </trkpt>
      <trkpt lat="47.50318" lon="6.7673">
        <ele>449.8</ele>
        <time>2017-02-05T08:25:05.000Z</time>
      </trkpt>
      <trkpt lat="47.50314" lon="6.76731">
        <ele>449.7</ele>
        <time>2017-02-05T08:25:06.000Z</time>
      </trkpt>
      <trkpt lat="47.5031" lon="6.76733">
        <ele>449.7</ele>
        <time>2017-02-05T08:25:07.000Z</time>
      </trkpt>
      <trkpt lat="47.50306" lon="6.76735">
        <ele>449.7</ele>
        <time>2017-02-05T08:25:08.000Z</time>
      </trkpt>
      <trkpt lat="47.50303" lon="6.76736">
        <ele>449.2</ele>
        <time>2017-02-05T08:25:09.000Z</time>
      </trkpt>
      <trkpt lat="47.50299" lon="6.76738">
        <ele>449.1</ele>
        <time>2017-02-05T08:25:10.000Z</time>
      </trkpt>
      <trkpt lat="47.50295" lon="6.76738">
        <ele>448</ele>
        <time>2017-02-05T08:25:11.000Z</time>
      </trkpt>
      <trkpt lat="47.50292" lon="6.7674">
        <ele>447.9</ele>
        <time>2017-02-05T08:25:12.000Z</time>
      </trkpt>
      <trkpt lat="47.50288" lon="6.76741">
        <ele>447.9</ele>
        <time>2017-02-05T08:25:13.000Z</time>
      </trkpt>
      <trkpt lat="47.50285" lon="6.76741">
        <ele>448.4</ele>
        <time>2017-02-05T08:25:14.000Z</time>
      </trkpt>
      <trkpt lat="47.50281" lon="6.76742">
        <ele>448.4</ele>
        <time>2017-02-05T08:25:15.000Z</time>
      </trkpt>
      <trkpt lat="47.50278" lon="6.76743">
        <ele>448.4</ele>
        <time>2017-02-05T08:25:16.000Z</time>
      </trkpt>
      <trkpt lat="47.50275" lon="6.76743">
        <ele>448.5</ele>
        <time>2017-02-05T08:25:17.000Z</time>
      </trkpt>
      <trkpt lat="47.50272" lon="6.76744">
        <ele>448.4</ele>
        <time>2017-02-05T08:25:18.000Z</time>
      </trkpt>
      <trkpt lat="47.50269" lon="6.76744">
        <ele>448.4</ele>
        <time>2017-02-05T08:25:19.000Z</time>
      </trkpt>
      <trkpt lat="47.50266" lon="6.76745">
        <ele>448.3</ele>
        <time>2017-02-05T08:25:20.000Z</time>
      </trkpt>
      <trkpt lat="47.50263" lon="6.76746">
        <ele>448.3</ele>
        <time>2017-02-05T08:25:21.000Z</time>
      </trkpt>
      <trkpt lat="47.50259" lon="6.76748">
        <ele>448.3</ele>
        <time>2017-02-05T08:25:22.000Z</time>
      </trkpt>
      <trkpt lat="47.50255" lon="6.76749">
        <ele>448.2</ele>
        <time>2017-02-05T08:25:23.000Z</time>
      </trkpt>
      <trkpt lat="47.50253" lon="6.76749">
        <ele>448.2</ele>
        <time>2017-02-05T08:25:24.000Z</time>
      </trkpt>
      <trkpt lat="47.50249" lon="6.76748">
        <ele>448.1</ele>
        <time>2017-02-05T08:25:25.000Z</time>
      </trkpt>
      <trkpt lat="47.50247" lon="6.76746">
        <ele>448.1</ele>
        <time>2017-02-05T08:25:26.000Z</time>
      </trkpt>
      <trkpt lat="47.50244" lon="6.76743">
        <ele>448</ele>
        <time>2017-02-05T08:25:27.000Z</time>
      </trkpt>
      <trkpt lat="47.50243" lon="6.76739">
        <ele>447.9</ele>
        <time>2017-02-05T08:25:28.000Z</time>
      </trkpt>
      <trkpt lat="47.50242" lon="6.76737">
        <ele>447.7</ele>
        <time>2017-02-05T08:25:29.000Z</time>
      </trkpt>
      <trkpt lat="47.5024" lon="6.76732">
        <ele>447.6</ele>
        <time>2017-02-05T08:25:30.000Z</time>
      </trkpt>
      <trkpt lat="47.50238" lon="6.76728">
        <ele>447.5</ele>
        <time>2017-02-05T08:25:31.000Z</time>
      </trkpt>
      <trkpt lat="47.50236" lon="6.76723">
        <ele>447.5</ele>
        <time>2017-02-05T08:25:32.000Z</time>
      </trkpt>
      <trkpt lat="47.50234" lon="6.76719">
        <ele>447.5</ele>
        <time>2017-02-05T08:25:33.000Z</time>
      </trkpt>
      <trkpt lat="47.50232" lon="6.76715">
        <ele>447.5</ele>
        <time>2017-02-05T08:25:34.000Z</time>
      </trkpt>
      <trkpt lat="47.50231" lon="6.76709">
        <ele>447.5</ele>
        <time>2017-02-05T08:25:35.000Z</time>
      </trkpt>
      <trkpt lat="47.50229" lon="6.76705">
        <ele>447.4</ele>
        <time>2017-02-05T08:25:36.000Z</time>
      </trkpt>
      <trkpt lat="47.50228" lon="6.76701">
        <ele>447.4</ele>
        <time>2017-02-05T08:25:37.000Z</time>
      </trkpt>
      <trkpt lat="47.50226" lon="6.76697">
        <ele>447.3</ele>
        <time>2017-02-05T08:25:38.000Z</time>
      </trkpt>
      <trkpt lat="47.50225" lon="6.76693">
        <ele>447.2</ele>
        <time>2017-02-05T08:25:39.000Z</time>
      </trkpt>
      <trkpt lat="47.50223" lon="6.76689">
        <ele>447.3</ele>
        <time>2017-02-05T08:25:40.000Z</time>
      </trkpt>
      <trkpt lat="47.50222" lon="6.76685">
        <ele>447.3</ele>
        <time>2017-02-05T08:25:41.000Z</time>
      </trkpt>
      <trkpt lat="47.5022" lon="6.7668">
        <ele>447.3</ele>
        <time>2017-02-05T08:25:42.000Z</time>
      </trkpt>
      <trkpt lat="47.50219" lon="6.76676">
        <ele>447.3</ele>
        <time>2017-02-05T08:25:43.000Z</time>
      </trkpt>
      <trkpt lat="47.50217" lon="6.76671">
        <ele>447</ele>
        <time>2017-02-05T08:25:44.000Z</time>
      </trkpt>
      <trkpt lat="47.50216" lon="6.76665">
        <ele>446.6</ele>
        <time>2017-02-05T08:25:45.000Z</time>
      </trkpt>
      <trkpt lat="47.50215" lon="6.76661">
        <ele>446.6</ele>
        <time>2017-02-05T08:25:46.000Z</time>
      </trkpt>
      <trkpt lat="47.50213" lon="6.76656">
        <ele>446.5</ele>
        <time>2017-02-05T08:25:47.000Z</time>
      </trkpt>
      <trkpt lat="47.50212" lon="6.76651">
        <ele>446.4</ele>
        <time>2017-02-05T08:25:48.000Z</time>
      </trkpt>
      <trkpt lat="47.50211" lon="6.76646">
        <ele>446.3</ele>
        <time>2017-02-05T08:25:49.000Z</time>
      </trkpt>
      <trkpt lat="47.50209" lon="6.7664">
        <ele>446.3</ele>
        <time>2017-02-05T08:25:50.000Z</time>
      </trkpt>
      <trkpt lat="47.50207" lon="6.76634">
        <ele>446.2</ele>
        <time>2017-02-05T08:25:51.000Z</time>
      </trkpt>
      <trkpt lat="47.50205" lon="6.76629">
        <ele>446.1</ele>
        <time>2017-02-05T08:25:52.000Z</time>
      </trkpt>
      <trkpt lat="47.50203" lon="6.76624">
        <ele>445.9</ele>
        <time>2017-02-05T08:25:53.000Z</time>
      </trkpt>
      <trkpt lat="47.50202" lon="6.76619">
        <ele>445.8</ele>
        <time>2017-02-05T08:25:54.000Z</time>
      </trkpt>
      <trkpt lat="47.502" lon="6.76614">
        <ele>445.2</ele>
        <time>2017-02-05T08:25:55.000Z</time>
      </trkpt>
      <trkpt lat="47.50199" lon="6.76608">
        <ele>445.2</ele>
        <time>2017-02-05T08:25:56.000Z</time>
      </trkpt>
      <trkpt lat="47.50197" lon="6.76603">
        <ele>445.3</ele>
        <time>2017-02-05T08:25:57.000Z</time>
      </trkpt>
      <trkpt lat="47.50196" lon="6.766">
        <ele>445.4</ele>
        <time>2017-02-05T08:25:58.000Z</time>
      </trkpt>
      <trkpt lat="47.50197" lon="6.76594">
        <ele>445.4</ele>
        <time>2017-02-05T08:25:59.000Z</time>
      </trkpt>
      <trkpt lat="47.50197" lon="6.7659">
        <ele>445.4</ele>
        <time>2017-02-05T08:26:00.000Z</time>
      </trkpt>
      <trkpt lat="47.50197" lon="6.76585">
        <ele>445.5</ele>
        <time>2017-02-05T08:26:01.000Z</time>
      </trkpt>
      <trkpt lat="47.50196" lon="6.76582">
        <ele>445.5</ele>
        <time>2017-02-05T08:26:02.000Z</time>
      </trkpt>
      <trkpt lat="47.50195" lon="6.76579">
        <ele>445.6</ele>
        <time>2017-02-05T08:26:03.000Z</time>
      </trkpt>
      <trkpt lat="47.50195" lon="6.76573">
        <ele>445.4</ele>
        <time>2017-02-05T08:26:05.000Z</time>
      </trkpt>
      <trkpt lat="47.50195" lon="6.7657">
        <ele>445.3</ele>
        <time>2017-02-05T08:26:06.000Z</time>
      </trkpt>
      <trkpt lat="47.50199" lon="6.76567">
        <ele>445.1</ele>
        <time>2017-02-05T08:26:08.000Z</time>
      </trkpt>
      <trkpt lat="47.50201" lon="6.76565">
        <ele>445.1</ele>
        <time>2017-02-05T08:26:09.000Z</time>
      </trkpt>
      <trkpt lat="47.50206" lon="6.76563">
        <ele>445.1</ele>
        <time>2017-02-05T08:26:10.000Z</time>
      </trkpt>
      <trkpt lat="47.5021" lon="6.76561">
        <ele>445.1</ele>
        <time>2017-02-05T08:26:11.000Z</time>
      </trkpt>
      <trkpt lat="47.50214" lon="6.7656">
        <ele>445.1</ele>
        <time>2017-02-05T08:26:12.000Z</time>
      </trkpt>
      <trkpt lat="47.50219" lon="6.76557">
        <ele>445</ele>
        <time>2017-02-05T08:26:13.000Z</time>
      </trkpt>
      <trkpt lat="47.50223" lon="6.76553">
        <ele>444.9</ele>
        <time>2017-02-05T08:26:14.000Z</time>
      </trkpt>
      <trkpt lat="47.50224" lon="6.76549">
        <ele>443.7</ele>
        <time>2017-02-05T08:26:15.000Z</time>
      </trkpt>
      <trkpt lat="47.50222" lon="6.76543">
        <ele>442.4</ele>
        <time>2017-02-05T08:26:16.000Z</time>
      </trkpt>
      <trkpt lat="47.50222" lon="6.76537">
        <ele>441</ele>
        <time>2017-02-05T08:26:17.000Z</time>
      </trkpt>
      <trkpt lat="47.50219" lon="6.7653">
        <ele>440.8</ele>
        <time>2017-02-05T08:26:18.000Z</time>
      </trkpt>
      <trkpt lat="47.50217" lon="6.7652">
        <ele>439.7</ele>
        <time>2017-02-05T08:26:19.000Z</time>
      </trkpt>
      <trkpt lat="47.50213" lon="6.76512">
        <ele>438.3</ele>
        <time>2017-02-05T08:26:20.000Z</time>
      </trkpt>
      <trkpt lat="47.50209" lon="6.76504">
        <ele>436.9</ele>
        <time>2017-02-05T08:26:21.000Z</time>
      </trkpt>
      <trkpt lat="47.50204" lon="6.76497">
        <ele>435.1</ele>
        <time>2017-02-05T08:26:22.000Z</time>
      </trkpt>
      <trkpt lat="47.502" lon="6.76487">
        <ele>432.6</ele>
        <time>2017-02-05T08:26:23.000Z</time>
      </trkpt>
      <trkpt lat="47.50196" lon="6.76478">
        <ele>432.4</ele>
        <time>2017-02-05T08:26:24.000Z</time>
      </trkpt>
      <trkpt lat="47.50193" lon="6.76472">
        <ele>429.7</ele>
        <time>2017-02-05T08:26:25.000Z</time>
      </trkpt>
      <trkpt lat="47.5019" lon="6.76465">
        <ele>426.9</ele>
        <time>2017-02-05T08:26:26.000Z</time>
      </trkpt>
      <trkpt lat="47.50189" lon="6.76454">
        <ele>424.7</ele>
        <time>2017-02-05T08:26:27.000Z</time>
      </trkpt>
      <trkpt lat="47.50188" lon="6.76449">
        <ele>424.5</ele>
        <time>2017-02-05T08:26:28.000Z</time>
      </trkpt>
      <trkpt lat="47.50185" lon="6.76442">
        <ele>422.6</ele>
        <time>2017-02-05T08:26:29.000Z</time>
      </trkpt>
      <trkpt lat="47.50183" lon="6.76433">
        <ele>420.7</ele>
        <time>2017-02-05T08:26:30.000Z</time>
      </trkpt>
      <trkpt lat="47.5018" lon="6.76422">
        <ele>418.8</ele>
        <time>2017-02-05T08:26:31.000Z</time>
      </trkpt>
      <trkpt lat="47.50176" lon="6.76412">
        <ele>417.3</ele>
        <time>2017-02-05T08:26:32.000Z</time>
      </trkpt>
      <trkpt lat="47.50172" lon="6.76402">
        <ele>417.3</ele>
        <time>2017-02-05T08:26:33.000Z</time>
      </trkpt>
      <trkpt lat="47.50169" lon="6.76392">
        <ele>415.8</ele>
        <time>2017-02-05T08:26:34.000Z</time>
      </trkpt>
      <trkpt lat="47.50166" lon="6.76383">
        <ele>415.1</ele>
        <time>2017-02-05T08:26:35.000Z</time>
      </trkpt>
      <trkpt lat="47.50162" lon="6.76373">
        <ele>414.7</ele>
        <time>2017-02-05T08:26:36.000Z</time>
      </trkpt>
      <trkpt lat="47.50159" lon="6.76362">
        <ele>414.1</ele>
        <time>2017-02-05T08:26:37.000Z</time>
      </trkpt>
      <trkpt lat="47.50157" lon="6.76355">
        <ele>413.9</ele>
        <time>2017-02-05T08:26:38.000Z</time>
      </trkpt>
      <trkpt lat="47.50155" lon="6.76345">
        <ele>413.8</ele>
        <time>2017-02-05T08:26:39.000Z</time>
      </trkpt>
      <trkpt lat="47.50153" lon="6.76339">
        <ele>413.9</ele>
        <time>2017-02-05T08:26:40.000Z</time>
      </trkpt>
      <trkpt lat="47.50152" lon="6.76332">
        <ele>413.6</ele>
        <time>2017-02-05T08:26:41.000Z</time>
      </trkpt>
      <trkpt lat="47.50149" lon="6.76326">
        <ele>413.4</ele>
        <time>2017-02-05T08:26:42.000Z</time>
      </trkpt>
      <trkpt lat="47.50148" lon="6.76317">
        <ele>413.3</ele>
        <time>2017-02-05T08:26:43.000Z</time>
      </trkpt>
      <trkpt lat="47.50146" lon="6.7631">
        <ele>412.6</ele>
        <time>2017-02-05T08:26:44.000Z</time>
      </trkpt>
      <trkpt lat="47.50145" lon="6.76302">
        <ele>412.5</ele>
        <time>2017-02-05T08:26:45.000Z</time>
      </trkpt>
      <trkpt lat="47.50144" lon="6.76293">
        <ele>412.1</ele>
        <time>2017-02-05T08:26:46.000Z</time>
      </trkpt>
      <trkpt lat="47.50142" lon="6.76282">
        <ele>411.5</ele>
        <time>2017-02-05T08:26:47.000Z</time>
      </trkpt>
      <trkpt lat="47.50139" lon="6.76273">
        <ele>410.8</ele>
        <time>2017-02-05T08:26:48.000Z</time>
      </trkpt>
      <trkpt lat="47.50137" lon="6.76266">
        <ele>409.5</ele>
        <time>2017-02-05T08:26:49.000Z</time>
      </trkpt>
      <trkpt lat="47.50136" lon="6.76258">
        <ele>408.9</ele>
        <time>2017-02-05T08:26:50.000Z</time>
      </trkpt>
      <trkpt lat="47.50134" lon="6.76234">
        <ele>410.8</ele>
        <time>2017-02-05T08:26:51.000Z</time>
      </trkpt>
      <trkpt lat="47.50132" lon="6.76213">
        <ele>414.4</ele>
        <time>2017-02-05T08:26:52.000Z</time>
      </trkpt>
      <trkpt lat="47.5013" lon="6.76198">
        <ele>414.7</ele>
        <time>2017-02-05T08:26:53.000Z</time>
      </trkpt>
      <trkpt lat="47.50127" lon="6.76176">
        <ele>414.9</ele>
        <time>2017-02-05T08:26:54.000Z</time>
      </trkpt>
      <trkpt lat="47.50124" lon="6.76164">
        <ele>415</ele>
        <time>2017-02-05T08:26:55.000Z</time>
      </trkpt>
      <trkpt lat="47.50122" lon="6.76152">
        <ele>415.1</ele>
        <time>2017-02-05T08:26:56.000Z</time>
      </trkpt>
      <trkpt lat="47.50121" lon="6.76143">
        <ele>415.2</ele>
        <time>2017-02-05T08:26:57.000Z</time>
      </trkpt>
      <trkpt lat="47.5012" lon="6.76134">
        <ele>415.4</ele>
        <time>2017-02-05T08:26:58.000Z</time>
      </trkpt>
      <trkpt lat="47.50118" lon="6.76126">
        <ele>415.6</ele>
        <time>2017-02-05T08:26:59.000Z</time>
      </trkpt>
      <trkpt lat="47.50116" lon="6.76117">
        <ele>415.7</ele>
        <time>2017-02-05T08:27:00.000Z</time>
      </trkpt>
      <trkpt lat="47.50115" lon="6.76106">
        <ele>416.2</ele>
        <time>2017-02-05T08:27:01.000Z</time>
      </trkpt>
      <trkpt lat="47.50111" lon="6.76094">
        <ele>416.2</ele>
        <time>2017-02-05T08:27:02.000Z</time>
      </trkpt>
      <trkpt lat="47.5011" lon="6.76084">
        <ele>416.1</ele>
        <time>2017-02-05T08:27:03.000Z</time>
      </trkpt>
      <trkpt lat="47.50107" lon="6.76076">
        <ele>414.9</ele>
        <time>2017-02-05T08:27:04.000Z</time>
      </trkpt>
      <trkpt lat="47.50105" lon="6.76067">
        <ele>413.6</ele>
        <time>2017-02-05T08:27:05.000Z</time>
      </trkpt>
      <trkpt lat="47.50104" lon="6.76057">
        <ele>412.1</ele>
        <time>2017-02-05T08:27:06.000Z</time>
      </trkpt>
      <trkpt lat="47.50102" lon="6.76049">
        <ele>410.3</ele>
        <time>2017-02-05T08:27:07.000Z</time>
      </trkpt>
      <trkpt lat="47.50101" lon="6.76038">
        <ele>409.2</ele>
        <time>2017-02-05T08:27:08.000Z</time>
      </trkpt>
      <trkpt lat="47.50099" lon="6.76028">
        <ele>408.8</ele>
        <time>2017-02-05T08:27:09.000Z</time>
      </trkpt>
      <trkpt lat="47.50096" lon="6.7602">
        <ele>408.6</ele>
        <time>2017-02-05T08:27:10.000Z</time>
      </trkpt>
      <trkpt lat="47.50091" lon="6.76013">
        <ele>407.8</ele>
        <time>2017-02-05T08:27:11.000Z</time>
      </trkpt>
      <trkpt lat="47.50087" lon="6.76007">
        <ele>406.5</ele>
        <time>2017-02-05T08:27:12.000Z</time>
      </trkpt>
      <trkpt lat="47.50081" lon="6.75999">
        <ele>405.8</ele>
        <time>2017-02-05T08:27:13.000Z</time>
      </trkpt>
      <trkpt lat="47.50078" lon="6.75991">
        <ele>405.3</ele>
        <time>2017-02-05T08:27:14.000Z</time>
      </trkpt>
      <trkpt lat="47.50074" lon="6.75983">
        <ele>405.3</ele>
        <time>2017-02-05T08:27:15.000Z</time>
      </trkpt>
      <trkpt lat="47.5007" lon="6.75979">
        <ele>405.5</ele>
        <time>2017-02-05T08:27:16.000Z</time>
      </trkpt>
      <trkpt lat="47.50066" lon="6.75972">
        <ele>405</ele>
        <time>2017-02-05T08:27:17.000Z</time>
      </trkpt>
      <trkpt lat="47.50062" lon="6.75965">
        <ele>404.1</ele>
        <time>2017-02-05T08:27:18.000Z</time>
      </trkpt>
      <trkpt lat="47.50056" lon="6.75954">
        <ele>403.8</ele>
        <time>2017-02-05T08:27:19.000Z</time>
      </trkpt>
      <trkpt lat="47.50051" lon="6.75936">
        <ele>405.7</ele>
        <time>2017-02-05T08:27:20.000Z</time>
      </trkpt>
      <trkpt lat="47.50046" lon="6.75921">
        <ele>407</ele>
        <time>2017-02-05T08:27:21.000Z</time>
      </trkpt>
      <trkpt lat="47.50042" lon="6.75914">
        <ele>407.3</ele>
        <time>2017-02-05T08:27:22.000Z</time>
      </trkpt>
      <trkpt lat="47.50038" lon="6.75907">
        <ele>407.4</ele>
        <time>2017-02-05T08:27:23.000Z</time>
      </trkpt>
      <trkpt lat="47.50033" lon="6.75896">
        <ele>408.7</ele>
        <time>2017-02-05T08:27:24.000Z</time>
      </trkpt>
      <trkpt lat="47.50028" lon="6.75886">
        <ele>411.1</ele>
        <time>2017-02-05T08:27:25.000Z</time>
      </trkpt>
      <trkpt lat="47.50024" lon="6.75873">
        <ele>414.1</ele>
        <time>2017-02-05T08:27:26.000Z</time>
      </trkpt>
      <trkpt lat="47.50018" lon="6.75866">
        <ele>416.4</ele>
        <time>2017-02-05T08:27:27.000Z</time>
      </trkpt>
      <trkpt lat="47.50014" lon="6.75857">
        <ele>416.3</ele>
        <time>2017-02-05T08:27:28.000Z</time>
      </trkpt>
      <trkpt lat="47.50011" lon="6.7585">
        <ele>415.1</ele>
        <time>2017-02-05T08:27:29.000Z</time>
      </trkpt>
      <trkpt lat="47.50006" lon="6.75841">
        <ele>413.6</ele>
        <time>2017-02-05T08:27:30.000Z</time>
      </trkpt>
      <trkpt lat="47.50002" lon="6.75832">
        <ele>414</ele>
        <time>2017-02-05T08:27:31.000Z</time>
      </trkpt>
      <trkpt lat="47.49998" lon="6.75825">
        <ele>414.6</ele>
        <time>2017-02-05T08:27:32.000Z</time>
      </trkpt>
      <trkpt lat="47.49993" lon="6.75818">
        <ele>414.5</ele>
        <time>2017-02-05T08:27:33.000Z</time>
      </trkpt>
      <trkpt lat="47.49987" lon="6.75813">
        <ele>413.3</ele>
        <time>2017-02-05T08:27:34.000Z</time>
      </trkpt>
      <trkpt lat="47.49982" lon="6.75805">
        <ele>411.6</ele>
        <time>2017-02-05T08:27:35.000Z</time>
      </trkpt>
      <trkpt lat="47.49977" lon="6.75795">
        <ele>410.5</ele>
        <time>2017-02-05T08:27:36.000Z</time>
      </trkpt>
      <trkpt lat="47.4997" lon="6.75789">
        <ele>409.2</ele>
        <time>2017-02-05T08:27:37.000Z</time>
      </trkpt>
      <trkpt lat="47.49966" lon="6.75783">
        <ele>408</ele>
        <time>2017-02-05T08:27:38.000Z</time>
      </trkpt>
      <trkpt lat="47.49962" lon="6.75777">
        <ele>407.1</ele>
        <time>2017-02-05T08:27:39.000Z</time>
      </trkpt>
      <trkpt lat="47.49957" lon="6.75771">
        <ele>407.1</ele>
        <time>2017-02-05T08:27:40.000Z</time>
      </trkpt>
      <trkpt lat="47.49951" lon="6.75765">
        <ele>406.2</ele>
        <time>2017-02-05T08:27:41.000Z</time>
      </trkpt>
      <trkpt lat="47.49946" lon="6.75758">
        <ele>405.7</ele>
        <time>2017-02-05T08:27:42.000Z</time>
      </trkpt>
      <trkpt lat="47.4994" lon="6.75751">
        <ele>406</ele>
        <time>2017-02-05T08:27:43.000Z</time>
      </trkpt>
      <trkpt lat="47.49934" lon="6.75741">
        <ele>405.5</ele>
        <time>2017-02-05T08:27:44.000Z</time>
      </trkpt>
      <trkpt lat="47.49928" lon="6.75736">
        <ele>405.6</ele>
        <time>2017-02-05T08:27:45.000Z</time>
      </trkpt>
      <trkpt lat="47.49914" lon="6.75723">
        <ele>404.8</ele>
        <time>2017-02-05T08:27:46.000Z</time>
      </trkpt>
      <trkpt lat="47.49905" lon="6.75721">
        <ele>404.8</ele>
        <time>2017-02-05T08:27:47.000Z</time>
      </trkpt>
      <trkpt lat="47.49899" lon="6.75722">
        <ele>404.2</ele>
        <time>2017-02-05T08:27:48.000Z</time>
      </trkpt>
      <trkpt lat="47.49893" lon="6.75724">
        <ele>404.2</ele>
        <time>2017-02-05T08:27:49.000Z</time>
      </trkpt>
      <trkpt lat="47.49887" lon="6.75727">
        <ele>402.8</ele>
        <time>2017-02-05T08:27:50.000Z</time>
      </trkpt>
      <trkpt lat="47.49882" lon="6.75732">
        <ele>402.1</ele>
        <time>2017-02-05T08:27:51.000Z</time>
      </trkpt>
      <trkpt lat="47.49878" lon="6.75738">
        <ele>401</ele>
        <time>2017-02-05T08:27:52.000Z</time>
      </trkpt>
      <trkpt lat="47.49875" lon="6.7574">
        <ele>400.9</ele>
        <time>2017-02-05T08:27:53.000Z</time>
      </trkpt>
      <trkpt lat="47.49872" lon="6.75743">
        <ele>401.1</ele>
        <time>2017-02-05T08:27:54.000Z</time>
      </trkpt>
      <trkpt lat="47.49868" lon="6.75747">
        <ele>400.5</ele>
        <time>2017-02-05T08:27:55.000Z</time>
      </trkpt>
      <trkpt lat="47.49855" lon="6.7574">
        <ele>399.4</ele>
        <time>2017-02-05T08:27:56.000Z</time>
      </trkpt>
      <trkpt lat="47.49845" lon="6.75742">
        <ele>397.7</ele>
        <time>2017-02-05T08:27:57.000Z</time>
      </trkpt>
      <trkpt lat="47.49833" lon="6.75743">
        <ele>396.1</ele>
        <time>2017-02-05T08:27:58.000Z</time>
      </trkpt>
      <trkpt lat="47.49821" lon="6.75744">
        <ele>393.9</ele>
        <time>2017-02-05T08:27:59.000Z</time>
      </trkpt>
      <trkpt lat="47.49812" lon="6.75742">
        <ele>392.3</ele>
        <time>2017-02-05T08:28:00.000Z</time>
      </trkpt>
      <trkpt lat="47.49801" lon="6.75742">
        <ele>390.7</ele>
        <time>2017-02-05T08:28:01.000Z</time>
      </trkpt>
      <trkpt lat="47.49795" lon="6.75743">
        <ele>389.9</ele>
        <time>2017-02-05T08:28:02.000Z</time>
      </trkpt>
      <trkpt lat="47.49788" lon="6.75745">
        <ele>388.9</ele>
        <time>2017-02-05T08:28:03.000Z</time>
      </trkpt>
      <trkpt lat="47.49779" lon="6.75748">
        <ele>389</ele>
        <time>2017-02-05T08:28:04.000Z</time>
      </trkpt>
      <trkpt lat="47.49771" lon="6.75751">
        <ele>388.4</ele>
        <time>2017-02-05T08:28:05.000Z</time>
      </trkpt>
      <trkpt lat="47.49763" lon="6.75754">
        <ele>387.9</ele>
        <time>2017-02-05T08:28:06.000Z</time>
      </trkpt>
      <trkpt lat="47.49749" lon="6.75758">
        <ele>387.3</ele>
        <time>2017-02-05T08:28:07.000Z</time>
      </trkpt>
      <trkpt lat="47.49741" lon="6.75762">
        <ele>387.2</ele>
        <time>2017-02-05T08:28:08.000Z</time>
      </trkpt>
      <trkpt lat="47.49733" lon="6.75765">
        <ele>387.4</ele>
        <time>2017-02-05T08:28:09.000Z</time>
      </trkpt>
      <trkpt lat="47.49722" lon="6.75771">
        <ele>387.1</ele>
        <time>2017-02-05T08:28:10.000Z</time>
      </trkpt>
      <trkpt lat="47.49714" lon="6.75774">
        <ele>387.1</ele>
        <time>2017-02-05T08:28:11.000Z</time>
      </trkpt>
      <trkpt lat="47.49707" lon="6.75777">
        <ele>388.4</ele>
        <time>2017-02-05T08:28:12.000Z</time>
      </trkpt>
      <trkpt lat="47.497" lon="6.75779">
        <ele>390</ele>
        <time>2017-02-05T08:28:13.000Z</time>
      </trkpt>
      <trkpt lat="47.49688" lon="6.75781">
        <ele>390.7</ele>
        <time>2017-02-05T08:28:14.000Z</time>
      </trkpt>
      <trkpt lat="47.49681" lon="6.75782">
        <ele>392.3</ele>
        <time>2017-02-05T08:28:15.000Z</time>
      </trkpt>
      <trkpt lat="47.49676" lon="6.75783">
        <ele>392.4</ele>
        <time>2017-02-05T08:28:16.000Z</time>
      </trkpt>
      <trkpt lat="47.49668" lon="6.75784">
        <ele>392.2</ele>
        <time>2017-02-05T08:28:17.000Z</time>
      </trkpt>
      <trkpt lat="47.49662" lon="6.75784">
        <ele>390.4</ele>
        <time>2017-02-05T08:28:18.000Z</time>
      </trkpt>
      <trkpt lat="47.49657" lon="6.75785">
        <ele>389</ele>
        <time>2017-02-05T08:28:19.000Z</time>
      </trkpt>
      <trkpt lat="47.49653" lon="6.75783">
        <ele>387.7</ele>
        <time>2017-02-05T08:28:20.000Z</time>
      </trkpt>
      <trkpt lat="47.49647" lon="6.7578">
        <ele>386</ele>
        <time>2017-02-05T08:28:21.000Z</time>
      </trkpt>
      <trkpt lat="47.49643" lon="6.75778">
        <ele>385.8</ele>
        <time>2017-02-05T08:28:22.000Z</time>
      </trkpt>
      <trkpt lat="47.49639" lon="6.75778">
        <ele>385.6</ele>
        <time>2017-02-05T08:28:23.000Z</time>
      </trkpt>
      <trkpt lat="47.49636" lon="6.75777">
        <ele>385.5</ele>
        <time>2017-02-05T08:28:24.000Z</time>
      </trkpt>
      <trkpt lat="47.49629" lon="6.75774">
        <ele>385.3</ele>
        <time>2017-02-05T08:28:25.000Z</time>
      </trkpt>
      <trkpt lat="47.49625" lon="6.75774">
        <ele>384.4</ele>
        <time>2017-02-05T08:28:29.000Z</time>
      </trkpt>
      <trkpt lat="47.49624" lon="6.75774">
        <ele>384.3</ele>
        <time>2017-02-05T08:28:30.000Z</time>
      </trkpt>
      <trkpt lat="47.49621" lon="6.75774">
        <ele>384</ele>
        <time>2017-02-05T08:28:35.000Z</time>
      </trkpt>
      <trkpt lat="47.49618" lon="6.75774">
        <ele>383.8</ele>
        <time>2017-02-05T08:28:36.000Z</time>
      </trkpt>
      <trkpt lat="47.49614" lon="6.75774">
        <ele>383.7</ele>
        <time>2017-02-05T08:28:37.000Z</time>
      </trkpt>
      <trkpt lat="47.49609" lon="6.75774">
        <ele>383.6</ele>
        <time>2017-02-05T08:28:38.000Z</time>
      </trkpt>
      <trkpt lat="47.49603" lon="6.75775">
        <ele>383.4</ele>
        <time>2017-02-05T08:28:39.000Z</time>
      </trkpt>
      <trkpt lat="47.49598" lon="6.75775">
        <ele>383.1</ele>
        <time>2017-02-05T08:28:40.000Z</time>
      </trkpt>
      <trkpt lat="47.49592" lon="6.75776">
        <ele>382.8</ele>
        <time>2017-02-05T08:28:41.000Z</time>
      </trkpt>
      <trkpt lat="47.49587" lon="6.75776">
        <ele>382.5</ele>
        <time>2017-02-05T08:28:42.000Z</time>
      </trkpt>
      <trkpt lat="47.49582" lon="6.75775">
        <ele>382.2</ele>
        <time>2017-02-05T08:28:43.000Z</time>
      </trkpt>
      <trkpt lat="47.49578" lon="6.75773">
        <ele>381.9</ele>
        <time>2017-02-05T08:28:44.000Z</time>
      </trkpt>
      <trkpt lat="47.49573" lon="6.75769">
        <ele>381.6</ele>
        <time>2017-02-05T08:28:45.000Z</time>
      </trkpt>
      <trkpt lat="47.4957" lon="6.75763">
        <ele>381.3</ele>
        <time>2017-02-05T08:28:46.000Z</time>
      </trkpt>
      <trkpt lat="47.49568" lon="6.75759">
        <ele>381.1</ele>
        <time>2017-02-05T08:28:47.000Z</time>
      </trkpt>
      <trkpt lat="47.49568" lon="6.75754">
        <ele>380.9</ele>
        <time>2017-02-05T08:28:48.000Z</time>
      </trkpt>
      <trkpt lat="47.49568" lon="6.75751">
        <ele>380.7</ele>
        <time>2017-02-05T08:28:49.000Z</time>
      </trkpt>
      <trkpt lat="47.49569" lon="6.75748">
        <ele>380.6</ele>
        <time>2017-02-05T08:28:50.000Z</time>
      </trkpt>
      <trkpt lat="47.49572" lon="6.75745">
        <ele>380.5</ele>
        <time>2017-02-05T08:28:52.000Z</time>
      </trkpt>
      <trkpt lat="47.49575" lon="6.75742">
        <ele>379.3</ele>
        <time>2017-02-05T08:28:53.000Z</time>
      </trkpt>
      <trkpt lat="47.49579" lon="6.75738">
        <ele>378.2</ele>
        <time>2017-02-05T08:28:54.000Z</time>
      </trkpt>
      <trkpt lat="47.49583" lon="6.75733">
        <ele>377.2</ele>
        <time>2017-02-05T08:28:55.000Z</time>
      </trkpt>
      <trkpt lat="47.49585" lon="6.75727">
        <ele>376.3</ele>
        <time>2017-02-05T08:28:56.000Z</time>
      </trkpt>
      <trkpt lat="47.49588" lon="6.75721">
        <ele>375</ele>
        <time>2017-02-05T08:28:57.000Z</time>
      </trkpt>
      <trkpt lat="47.4959" lon="6.75716">
        <ele>373.3</ele>
        <time>2017-02-05T08:28:58.000Z</time>
      </trkpt>
      <trkpt lat="47.49593" lon="6.75709">
        <ele>372.3</ele>
        <time>2017-02-05T08:28:59.000Z</time>
      </trkpt>
      <trkpt lat="47.49593" lon="6.75701">
        <ele>371.5</ele>
        <time>2017-02-05T08:29:00.000Z</time>
      </trkpt>
      <trkpt lat="47.49592" lon="6.75693">
        <ele>370.5</ele>
        <time>2017-02-05T08:29:01.000Z</time>
      </trkpt>
      <trkpt lat="47.49589" lon="6.75687">
        <ele>370.4</ele>
        <time>2017-02-05T08:29:02.000Z</time>
      </trkpt>
      <trkpt lat="47.49586" lon="6.7568">
        <ele>369.9</ele>
        <time>2017-02-05T08:29:03.000Z</time>
      </trkpt>
      <trkpt lat="47.49583" lon="6.75671">
        <ele>368.8</ele>
        <time>2017-02-05T08:29:04.000Z</time>
      </trkpt>
      <trkpt lat="47.49579" lon="6.75668">
        <ele>368.1</ele>
        <time>2017-02-05T08:29:05.000Z</time>
      </trkpt>
      <trkpt lat="47.49574" lon="6.75668">
        <ele>367.4</ele>
        <time>2017-02-05T08:29:06.000Z</time>
      </trkpt>
      <trkpt lat="47.49569" lon="6.75671">
        <ele>366.9</ele>
        <time>2017-02-05T08:29:07.000Z</time>
      </trkpt>
      <trkpt lat="47.49563" lon="6.75678">
        <ele>366.5</ele>
        <time>2017-02-05T08:29:08.000Z</time>
      </trkpt>
      <trkpt lat="47.49558" lon="6.75685">
        <ele>366.2</ele>
        <time>2017-02-05T08:29:09.000Z</time>
      </trkpt>
      <trkpt lat="47.49552" lon="6.75693">
        <ele>366.4</ele>
        <time>2017-02-05T08:29:10.000Z</time>
      </trkpt>
      <trkpt lat="47.49547" lon="6.757">
        <ele>366.3</ele>
        <time>2017-02-05T08:29:11.000Z</time>
      </trkpt>
      <trkpt lat="47.49542" lon="6.75706">
        <ele>366.6</ele>
        <time>2017-02-05T08:29:12.000Z</time>
      </trkpt>
      <trkpt lat="47.49537" lon="6.75712">
        <ele>367.1</ele>
        <time>2017-02-05T08:29:13.000Z</time>
      </trkpt>
      <trkpt lat="47.49532" lon="6.75717">
        <ele>367.5</ele>
        <time>2017-02-05T08:29:14.000Z</time>
      </trkpt>
      <trkpt lat="47.49526" lon="6.75721">
        <ele>367.6</ele>
        <time>2017-02-05T08:29:15.000Z</time>
      </trkpt>
      <trkpt lat="47.49521" lon="6.75726">
        <ele>367.7</ele>
        <time>2017-02-05T08:29:16.000Z</time>
      </trkpt>
      <trkpt lat="47.49516" lon="6.75731">
        <ele>368.3</ele>
        <time>2017-02-05T08:29:17.000Z</time>
      </trkpt>
      <trkpt lat="47.49511" lon="6.75734">
        <ele>368.7</ele>
        <time>2017-02-05T08:29:18.000Z</time>
      </trkpt>
      <trkpt lat="47.49506" lon="6.75736">
        <ele>368.9</ele>
        <time>2017-02-05T08:29:19.000Z</time>
      </trkpt>
      <trkpt lat="47.49501" lon="6.75739">
        <ele>369</ele>
        <time>2017-02-05T08:29:20.000Z</time>
      </trkpt>
      <trkpt lat="47.49497" lon="6.75741">
        <ele>368.6</ele>
        <time>2017-02-05T08:29:21.000Z</time>
      </trkpt>
      <trkpt lat="47.49491" lon="6.75741">
        <ele>368.6</ele>
        <time>2017-02-05T08:29:22.000Z</time>
      </trkpt>
      <trkpt lat="47.49485" lon="6.7574">
        <ele>367.7</ele>
        <time>2017-02-05T08:29:23.000Z</time>
      </trkpt>
      <trkpt lat="47.4948" lon="6.75734">
        <ele>366.8</ele>
        <time>2017-02-05T08:29:24.000Z</time>
      </trkpt>
      <trkpt lat="47.49476" lon="6.75727">
        <ele>366.2</ele>
        <time>2017-02-05T08:29:25.000Z</time>
      </trkpt>
      <trkpt lat="47.49473" lon="6.75718">
        <ele>364.8</ele>
        <time>2017-02-05T08:29:26.000Z</time>
      </trkpt>
      <trkpt lat="47.49472" lon="6.75711">
        <ele>363.2</ele>
        <time>2017-02-05T08:29:27.000Z</time>
      </trkpt>
      <trkpt lat="47.4947" lon="6.75704">
        <ele>361.4</ele>
        <time>2017-02-05T08:29:28.000Z</time>
      </trkpt>
      <trkpt lat="47.49467" lon="6.75698">
        <ele>361.1</ele>
        <time>2017-02-05T08:29:29.000Z</time>
      </trkpt>
      <trkpt lat="47.49462" lon="6.75695">
        <ele>361.3</ele>
        <time>2017-02-05T08:29:30.000Z</time>
      </trkpt>
      <trkpt lat="47.49458" lon="6.75695">
        <ele>361.3</ele>
        <time>2017-02-05T08:29:31.000Z</time>
      </trkpt>
      <trkpt lat="47.49455" lon="6.75697">
        <ele>361.7</ele>
        <time>2017-02-05T08:29:32.000Z</time>
      </trkpt>
      <trkpt lat="47.4945" lon="6.757">
        <ele>361.7</ele>
        <time>2017-02-05T08:29:33.000Z</time>
      </trkpt>
      <trkpt lat="47.49445" lon="6.75699">
        <ele>361.6</ele>
        <time>2017-02-05T08:29:34.000Z</time>
      </trkpt>
      <trkpt lat="47.49443" lon="6.75695">
        <ele>361.1</ele>
        <time>2017-02-05T08:29:35.000Z</time>
      </trkpt>
      <trkpt lat="47.49441" lon="6.7569">
        <ele>360.8</ele>
        <time>2017-02-05T08:29:36.000Z</time>
      </trkpt>
      <trkpt lat="47.49438" lon="6.75682">
        <ele>360.7</ele>
        <time>2017-02-05T08:29:37.000Z</time>
      </trkpt>
      <trkpt lat="47.49436" lon="6.75677">
        <ele>360.6</ele>
        <time>2017-02-05T08:29:38.000Z</time>
      </trkpt>
      <trkpt lat="47.49433" lon="6.75671">
        <ele>360.6</ele>
        <time>2017-02-05T08:29:39.000Z</time>
      </trkpt>
      <trkpt lat="47.49429" lon="6.75669">
        <ele>360.5</ele>
        <time>2017-02-05T08:29:40.000Z</time>
      </trkpt>
      <trkpt lat="47.49426" lon="6.7567">
        <ele>360.5</ele>
        <time>2017-02-05T08:29:41.000Z</time>
      </trkpt>
      <trkpt lat="47.49422" lon="6.75672">
        <ele>360.5</ele>
        <time>2017-02-05T08:29:42.000Z</time>
      </trkpt>
      <trkpt lat="47.49418" lon="6.75676">
        <ele>360.6</ele>
        <time>2017-02-05T08:29:43.000Z</time>
      </trkpt>
      <trkpt lat="47.49415" lon="6.7568">
        <ele>360.6</ele>
        <time>2017-02-05T08:29:44.000Z</time>
      </trkpt>
      <trkpt lat="47.49411" lon="6.75683">
        <ele>360.5</ele>
        <time>2017-02-05T08:29:45.000Z</time>
      </trkpt>
      <trkpt lat="47.49406" lon="6.75688">
        <ele>360.3</ele>
        <time>2017-02-05T08:29:46.000Z</time>
      </trkpt>
      <trkpt lat="47.494" lon="6.75693">
        <ele>359.9</ele>
        <time>2017-02-05T08:29:47.000Z</time>
      </trkpt>
      <trkpt lat="47.49395" lon="6.75696">
        <ele>359.8</ele>
        <time>2017-02-05T08:29:48.000Z</time>
      </trkpt>
      <trkpt lat="47.4939" lon="6.757">
        <ele>360</ele>
        <time>2017-02-05T08:29:49.000Z</time>
      </trkpt>
      <trkpt lat="47.49385" lon="6.75704">
        <ele>360.2</ele>
        <time>2017-02-05T08:29:50.000Z</time>
      </trkpt>
      <trkpt lat="47.4938" lon="6.75708">
        <ele>360.8</ele>
        <time>2017-02-05T08:29:51.000Z</time>
      </trkpt>
      <trkpt lat="47.49375" lon="6.75712">
        <ele>360.8</ele>
        <time>2017-02-05T08:29:52.000Z</time>
      </trkpt>
      <trkpt lat="47.49371" lon="6.75715">
        <ele>360.9</ele>
        <time>2017-02-05T08:29:53.000Z</time>
      </trkpt>
      <trkpt lat="47.49367" lon="6.75718">
        <ele>361.8</ele>
        <time>2017-02-05T08:29:54.000Z</time>
      </trkpt>
      <trkpt lat="47.49363" lon="6.75722">
        <ele>361.8</ele>
        <time>2017-02-05T08:29:56.000Z</time>
      </trkpt>
      <trkpt lat="47.49361" lon="6.75725">
        <ele>361.9</ele>
        <time>2017-02-05T08:29:57.000Z</time>
      </trkpt>
      <trkpt lat="47.49358" lon="6.75727">
        <ele>362</ele>
        <time>2017-02-05T08:29:58.000Z</time>
      </trkpt>
      <trkpt lat="47.49355" lon="6.75727">
        <ele>362</ele>
        <time>2017-02-05T08:29:59.000Z</time>
      </trkpt>
      <trkpt lat="47.49352" lon="6.75727">
        <ele>362.1</ele>
        <time>2017-02-05T08:30:00.000Z</time>
      </trkpt>
      <trkpt lat="47.49347" lon="6.75728">
        <ele>362</ele>
        <time>2017-02-05T08:30:01.000Z</time>
      </trkpt>
      <trkpt lat="47.49343" lon="6.75731">
        <ele>361.9</ele>
        <time>2017-02-05T08:30:02.000Z</time>
      </trkpt>
      <trkpt lat="47.4934" lon="6.75734">
        <ele>362.5</ele>
        <time>2017-02-05T08:30:03.000Z</time>
      </trkpt>
      <trkpt lat="47.49334" lon="6.75737">
        <ele>362.4</ele>
        <time>2017-02-05T08:30:04.000Z</time>
      </trkpt>
      <trkpt lat="47.49328" lon="6.75742">
        <ele>361.9</ele>
        <time>2017-02-05T08:30:05.000Z</time>
      </trkpt>
      <trkpt lat="47.49323" lon="6.75746">
        <ele>361.9</ele>
        <time>2017-02-05T08:30:06.000Z</time>
      </trkpt>
      <trkpt lat="47.49317" lon="6.75751">
        <ele>361.8</ele>
        <time>2017-02-05T08:30:07.000Z</time>
      </trkpt>
      <trkpt lat="47.49313" lon="6.75756">
        <ele>362</ele>
        <time>2017-02-05T08:30:08.000Z</time>
      </trkpt>
      <trkpt lat="47.49309" lon="6.75761">
        <ele>362.1</ele>
        <time>2017-02-05T08:30:09.000Z</time>
      </trkpt>
      <trkpt lat="47.49304" lon="6.75767">
        <ele>361.6</ele>
        <time>2017-02-05T08:30:10.000Z</time>
      </trkpt>
      <trkpt lat="47.49299" lon="6.75773">
        <ele>360.9</ele>
        <time>2017-02-05T08:30:11.000Z</time>
      </trkpt>
      <trkpt lat="47.49296" lon="6.75778">
        <ele>359.8</ele>
        <time>2017-02-05T08:30:12.000Z</time>
      </trkpt>
      <trkpt lat="47.49292" lon="6.75784">
        <ele>359.2</ele>
        <time>2017-02-05T08:30:13.000Z</time>
      </trkpt>
      <trkpt lat="47.49288" lon="6.75791">
        <ele>358.6</ele>
        <time>2017-02-05T08:30:14.000Z</time>
      </trkpt>
      <trkpt lat="47.49284" lon="6.75797">
        <ele>358.4</ele>
        <time>2017-02-05T08:30:15.000Z</time>
      </trkpt>
      <trkpt lat="47.4928" lon="6.75804">
        <ele>358.7</ele>
        <time>2017-02-05T08:30:16.000Z</time>
      </trkpt>
      <trkpt lat="47.49275" lon="6.7581">
        <ele>358.5</ele>
        <time>2017-02-05T08:30:17.000Z</time>
      </trkpt>
      <trkpt lat="47.49271" lon="6.75816">
        <ele>358.3</ele>
        <time>2017-02-05T08:30:18.000Z</time>
      </trkpt>
      <trkpt lat="47.49267" lon="6.75822">
        <ele>358.3</ele>
        <time>2017-02-05T08:30:19.000Z</time>
      </trkpt>
      <trkpt lat="47.49263" lon="6.75828">
        <ele>358.4</ele>
        <time>2017-02-05T08:30:20.000Z</time>
      </trkpt>
      <trkpt lat="47.4926" lon="6.75835">
        <ele>358.4</ele>
        <time>2017-02-05T08:30:21.000Z</time>
      </trkpt>
      <trkpt lat="47.49255" lon="6.75842">
        <ele>358.1</ele>
        <time>2017-02-05T08:30:22.000Z</time>
      </trkpt>
      <trkpt lat="47.49251" lon="6.75849">
        <ele>358.1</ele>
        <time>2017-02-05T08:30:23.000Z</time>
      </trkpt>
      <trkpt lat="47.49248" lon="6.75855">
        <ele>357.9</ele>
        <time>2017-02-05T08:30:24.000Z</time>
      </trkpt>
      <trkpt lat="47.49244" lon="6.75862">
        <ele>358</ele>
        <time>2017-02-05T08:30:25.000Z</time>
      </trkpt>
      <trkpt lat="47.49241" lon="6.75868">
        <ele>358.2</ele>
        <time>2017-02-05T08:30:26.000Z</time>
      </trkpt>
      <trkpt lat="47.49237" lon="6.75877">
        <ele>358.4</ele>
        <time>2017-02-05T08:30:27.000Z</time>
      </trkpt>
      <trkpt lat="47.49231" lon="6.75885">
        <ele>358.9</ele>
        <time>2017-02-05T08:30:28.000Z</time>
      </trkpt>
      <trkpt lat="47.49227" lon="6.75891">
        <ele>359.5</ele>
        <time>2017-02-05T08:30:29.000Z</time>
      </trkpt>
      <trkpt lat="47.49224" lon="6.75896">
        <ele>360.1</ele>
        <time>2017-02-05T08:30:30.000Z</time>
      </trkpt>
      <trkpt lat="47.49221" lon="6.75902">
        <ele>360.7</ele>
        <time>2017-02-05T08:30:31.000Z</time>
      </trkpt>
      <trkpt lat="47.49218" lon="6.75908">
        <ele>361</ele>
        <time>2017-02-05T08:30:32.000Z</time>
      </trkpt>
      <trkpt lat="47.49214" lon="6.75914">
        <ele>361.3</ele>
        <time>2017-02-05T08:30:33.000Z</time>
      </trkpt>
      <trkpt lat="47.49212" lon="6.75919">
        <ele>361.3</ele>
        <time>2017-02-05T08:30:34.000Z</time>
      </trkpt>
      <trkpt lat="47.49209" lon="6.75922">
        <ele>361.3</ele>
        <time>2017-02-05T08:30:35.000Z</time>
      </trkpt>
      <trkpt lat="47.49207" lon="6.75927">
        <ele>361.3</ele>
        <time>2017-02-05T08:30:36.000Z</time>
      </trkpt>
      <trkpt lat="47.49206" lon="6.75932">
        <ele>361.3</ele>
        <time>2017-02-05T08:30:37.000Z</time>
      </trkpt>
      <trkpt lat="47.49204" lon="6.75939">
        <ele>361.2</ele>
        <time>2017-02-05T08:30:38.000Z</time>
      </trkpt>
      <trkpt lat="47.49201" lon="6.75947">
        <ele>361.1</ele>
        <time>2017-02-05T08:30:39.000Z</time>
      </trkpt>
      <trkpt lat="47.49197" lon="6.75955">
        <ele>361.1</ele>
        <time>2017-02-05T08:30:40.000Z</time>
      </trkpt>
      <trkpt lat="47.49194" lon="6.7596">
        <ele>361</ele>
        <time>2017-02-05T08:30:41.000Z</time>
      </trkpt>
      <trkpt lat="47.49191" lon="6.75964">
        <ele>360.9</ele>
        <time>2017-02-05T08:30:42.000Z</time>
      </trkpt>
      <trkpt lat="47.49187" lon="6.75969">
        <ele>360.8</ele>
        <time>2017-02-05T08:30:43.000Z</time>
      </trkpt>
      <trkpt lat="47.49183" lon="6.75974">
        <ele>360.5</ele>
        <time>2017-02-05T08:30:44.000Z</time>
      </trkpt>
      <trkpt lat="47.49179" lon="6.7598">
        <ele>360.5</ele>
        <time>2017-02-05T08:30:45.000Z</time>
      </trkpt>
      <trkpt lat="47.49175" lon="6.75989">
        <ele>360.4</ele>
        <time>2017-02-05T08:30:46.000Z</time>
      </trkpt>
      <trkpt lat="47.49173" lon="6.75994">
        <ele>360.9</ele>
        <time>2017-02-05T08:30:47.000Z</time>
      </trkpt>
      <trkpt lat="47.49171" lon="6.76003">
        <ele>361.5</ele>
        <time>2017-02-05T08:30:48.000Z</time>
      </trkpt>
      <trkpt lat="47.49168" lon="6.76013">
        <ele>362.4</ele>
        <time>2017-02-05T08:30:49.000Z</time>
      </trkpt>
      <trkpt lat="47.49166" lon="6.7602">
        <ele>362.7</ele>
        <time>2017-02-05T08:30:50.000Z</time>
      </trkpt>
      <trkpt lat="47.49164" lon="6.76026">
        <ele>362.7</ele>
        <time>2017-02-05T08:30:51.000Z</time>
      </trkpt>
      <trkpt lat="47.49162" lon="6.76033">
        <ele>362.7</ele>
        <time>2017-02-05T08:30:52.000Z</time>
      </trkpt>
      <trkpt lat="47.4916" lon="6.76037">
        <ele>363</ele>
        <time>2017-02-05T08:30:53.000Z</time>
      </trkpt>
      <trkpt lat="47.49158" lon="6.76044">
        <ele>362.9</ele>
        <time>2017-02-05T08:30:54.000Z</time>
      </trkpt>
      <trkpt lat="47.49156" lon="6.76051">
        <ele>363</ele>
        <time>2017-02-05T08:30:55.000Z</time>
      </trkpt>
      <trkpt lat="47.49154" lon="6.76058">
        <ele>363.1</ele>
        <time>2017-02-05T08:30:56.000Z</time>
      </trkpt>
      <trkpt lat="47.49152" lon="6.76067">
        <ele>363.4</ele>
        <time>2017-02-05T08:30:57.000Z</time>
      </trkpt>
      <trkpt lat="47.4915" lon="6.76075">
        <ele>363.2</ele>
        <time>2017-02-05T08:30:58.000Z</time>
      </trkpt>
      <trkpt lat="47.49148" lon="6.76083">
        <ele>363.1</ele>
        <time>2017-02-05T08:30:59.000Z</time>
      </trkpt>
      <trkpt lat="47.49146" lon="6.7609">
        <ele>362.8</ele>
        <time>2017-02-05T08:31:00.000Z</time>
      </trkpt>
      <trkpt lat="47.49143" lon="6.76098">
        <ele>362.9</ele>
        <time>2017-02-05T08:31:01.000Z</time>
      </trkpt>
      <trkpt lat="47.49141" lon="6.76106">
        <ele>363</ele>
        <time>2017-02-05T08:31:02.000Z</time>
      </trkpt>
      <trkpt lat="47.49139" lon="6.76116">
        <ele>362.9</ele>
        <time>2017-02-05T08:31:03.000Z</time>
      </trkpt>
      <trkpt lat="47.49137" lon="6.76123">
        <ele>363.3</ele>
        <time>2017-02-05T08:31:04.000Z</time>
      </trkpt>
      <trkpt lat="47.49136" lon="6.7613">
        <ele>363.8</ele>
        <time>2017-02-05T08:31:05.000Z</time>
      </trkpt>
      <trkpt lat="47.49134" lon="6.76138">
        <ele>364.5</ele>
        <time>2017-02-05T08:31:06.000Z</time>
      </trkpt>
      <trkpt lat="47.49133" lon="6.76147">
        <ele>364.9</ele>
        <time>2017-02-05T08:31:07.000Z</time>
      </trkpt>
      <trkpt lat="47.49131" lon="6.76153">
        <ele>365.6</ele>
        <time>2017-02-05T08:31:08.000Z</time>
      </trkpt>
      <trkpt lat="47.49129" lon="6.7616">
        <ele>366.5</ele>
        <time>2017-02-05T08:31:09.000Z</time>
      </trkpt>
      <trkpt lat="47.49127" lon="6.76167">
        <ele>366.9</ele>
        <time>2017-02-05T08:31:10.000Z</time>
      </trkpt>
      <trkpt lat="47.49126" lon="6.76174">
        <ele>367.2</ele>
        <time>2017-02-05T08:31:11.000Z</time>
      </trkpt>
      <trkpt lat="47.49124" lon="6.76181">
        <ele>366.7</ele>
        <time>2017-02-05T08:31:12.000Z</time>
      </trkpt>
      <trkpt lat="47.49122" lon="6.76187">
        <ele>366.7</ele>
        <time>2017-02-05T08:31:13.000Z</time>
      </trkpt>
      <trkpt lat="47.49122" lon="6.76194">
        <ele>366.8</ele>
        <time>2017-02-05T08:31:14.000Z</time>
      </trkpt>
      <trkpt lat="47.49123" lon="6.76203">
        <ele>366.4</ele>
        <time>2017-02-05T08:31:15.000Z</time>
      </trkpt>
      <trkpt lat="47.49123" lon="6.76211">
        <ele>366</ele>
        <time>2017-02-05T08:31:16.000Z</time>
      </trkpt>
      <trkpt lat="47.49124" lon="6.76221">
        <ele>366</ele>
        <time>2017-02-05T08:31:17.000Z</time>
      </trkpt>
      <trkpt lat="47.49125" lon="6.76229">
        <ele>365.9</ele>
        <time>2017-02-05T08:31:18.000Z</time>
      </trkpt>
      <trkpt lat="47.49125" lon="6.76239">
        <ele>366</ele>
        <time>2017-02-05T08:31:19.000Z</time>
      </trkpt>
      <trkpt lat="47.49124" lon="6.76248">
        <ele>366</ele>
        <time>2017-02-05T08:31:20.000Z</time>
      </trkpt>
      <trkpt lat="47.49121" lon="6.76259">
        <ele>367.2</ele>
        <time>2017-02-05T08:31:21.000Z</time>
      </trkpt>
      <trkpt lat="47.49121" lon="6.76265">
        <ele>367.2</ele>
        <time>2017-02-05T08:31:22.000Z</time>
      </trkpt>
      <trkpt lat="47.49121" lon="6.7627">
        <ele>367.2</ele>
        <time>2017-02-05T08:31:23.000Z</time>
      </trkpt>
      <trkpt lat="47.49121" lon="6.76276">
        <ele>367.3</ele>
        <time>2017-02-05T08:31:24.000Z</time>
      </trkpt>
      <trkpt lat="47.49122" lon="6.76281">
        <ele>367.2</ele>
        <time>2017-02-05T08:31:25.000Z</time>
      </trkpt>
      <trkpt lat="47.49121" lon="6.76288">
        <ele>366.1</ele>
        <time>2017-02-05T08:31:26.000Z</time>
      </trkpt>
      <trkpt lat="47.49122" lon="6.76293">
        <ele>365.7</ele>
        <time>2017-02-05T08:31:27.000Z</time>
      </trkpt>
      <trkpt lat="47.49122" lon="6.76299">
        <ele>365.7</ele>
        <time>2017-02-05T08:31:28.000Z</time>
      </trkpt>
      <trkpt lat="47.49123" lon="6.76305">
        <ele>365.7</ele>
        <time>2017-02-05T08:31:29.000Z</time>
      </trkpt>
      <trkpt lat="47.49122" lon="6.76312">
        <ele>365.5</ele>
        <time>2017-02-05T08:31:30.000Z</time>
      </trkpt>
      <trkpt lat="47.49121" lon="6.7632">
        <ele>365</ele>
        <time>2017-02-05T08:31:31.000Z</time>
      </trkpt>
      <trkpt lat="47.4912" lon="6.76329">
        <ele>364.9</ele>
        <time>2017-02-05T08:31:32.000Z</time>
      </trkpt>
      <trkpt lat="47.4912" lon="6.76335">
        <ele>365</ele>
        <time>2017-02-05T08:31:33.000Z</time>
      </trkpt>
      <trkpt lat="47.49119" lon="6.76342">
        <ele>365.1</ele>
        <time>2017-02-05T08:31:34.000Z</time>
      </trkpt>
      <trkpt lat="47.49119" lon="6.76348">
        <ele>365.2</ele>
        <time>2017-02-05T08:31:35.000Z</time>
      </trkpt>
      <trkpt lat="47.49117" lon="6.76355">
        <ele>365.3</ele>
        <time>2017-02-05T08:31:36.000Z</time>
      </trkpt>
      <trkpt lat="47.49115" lon="6.76361">
        <ele>365.3</ele>
        <time>2017-02-05T08:31:37.000Z</time>
      </trkpt>
      <trkpt lat="47.49115" lon="6.76368">
        <ele>365.3</ele>
        <time>2017-02-05T08:31:38.000Z</time>
      </trkpt>
      <trkpt lat="47.49114" lon="6.76375">
        <ele>364.6</ele>
        <time>2017-02-05T08:31:39.000Z</time>
      </trkpt>
      <trkpt lat="47.49113" lon="6.76384">
        <ele>364.6</ele>
        <time>2017-02-05T08:31:40.000Z</time>
      </trkpt>
      <trkpt lat="47.49113" lon="6.76392">
        <ele>364.8</ele>
        <time>2017-02-05T08:31:41.000Z</time>
      </trkpt>
      <trkpt lat="47.49113" lon="6.764">
        <ele>364.6</ele>
        <time>2017-02-05T08:31:42.000Z</time>
      </trkpt>
      <trkpt lat="47.49114" lon="6.76408">
        <ele>365.2</ele>
        <time>2017-02-05T08:31:43.000Z</time>
      </trkpt>
      <trkpt lat="47.49113" lon="6.76416">
        <ele>365.6</ele>
        <time>2017-02-05T08:31:44.000Z</time>
      </trkpt>
      <trkpt lat="47.49113" lon="6.76423">
        <ele>365.6</ele>
        <time>2017-02-05T08:31:45.000Z</time>
      </trkpt>
      <trkpt lat="47.49113" lon="6.76431">
        <ele>365.8</ele>
        <time>2017-02-05T08:31:46.000Z</time>
      </trkpt>
      <trkpt lat="47.49113" lon="6.76441">
        <ele>366</ele>
        <time>2017-02-05T08:31:47.000Z</time>
      </trkpt>
      <trkpt lat="47.49112" lon="6.76452">
        <ele>366.1</ele>
        <time>2017-02-05T08:31:48.000Z</time>
      </trkpt>
      <trkpt lat="47.49112" lon="6.7646">
        <ele>366.1</ele>
        <time>2017-02-05T08:31:49.000Z</time>
      </trkpt>
      <trkpt lat="47.49111" lon="6.76468">
        <ele>365.7</ele>
        <time>2017-02-05T08:31:50.000Z</time>
      </trkpt>
      <trkpt lat="47.4911" lon="6.76476">
        <ele>365.4</ele>
        <time>2017-02-05T08:31:51.000Z</time>
      </trkpt>
      <trkpt lat="47.4911" lon="6.76483">
        <ele>365.2</ele>
        <time>2017-02-05T08:31:52.000Z</time>
      </trkpt>
      <trkpt lat="47.49112" lon="6.76491">
        <ele>364.8</ele>
        <time>2017-02-05T08:31:53.000Z</time>
      </trkpt>
      <trkpt lat="47.49116" lon="6.76498">
        <ele>364.7</ele>
        <time>2017-02-05T08:31:54.000Z</time>
      </trkpt>
      <trkpt lat="47.49119" lon="6.76504">
        <ele>364.7</ele>
        <time>2017-02-05T08:31:55.000Z</time>
      </trkpt>
      <trkpt lat="47.49123" lon="6.76507">
        <ele>364.6</ele>
        <time>2017-02-05T08:31:56.000Z</time>
      </trkpt>
      <trkpt lat="47.49128" lon="6.76507">
        <ele>364.5</ele>
        <time>2017-02-05T08:31:57.000Z</time>
      </trkpt>
      <trkpt lat="47.49133" lon="6.76508">
        <ele>364.4</ele>
        <time>2017-02-05T08:31:58.000Z</time>
      </trkpt>
      <trkpt lat="47.49138" lon="6.76508">
        <ele>364.3</ele>
        <time>2017-02-05T08:31:59.000Z</time>
      </trkpt>
      <trkpt lat="47.49142" lon="6.76509">
        <ele>364.3</ele>
        <time>2017-02-05T08:32:00.000Z</time>
      </trkpt>
      <trkpt lat="47.49146" lon="6.76509">
        <ele>364.4</ele>
        <time>2017-02-05T08:32:01.000Z</time>
      </trkpt>
      <trkpt lat="47.4915" lon="6.76508">
        <ele>364.4</ele>
        <time>2017-02-05T08:32:02.000Z</time>
      </trkpt>
      <trkpt lat="47.49154" lon="6.76509">
        <ele>364.5</ele>
        <time>2017-02-05T08:32:03.000Z</time>
      </trkpt>
      <trkpt lat="47.49158" lon="6.76509">
        <ele>364.5</ele>
        <time>2017-02-05T08:32:04.000Z</time>
      </trkpt>
      <trkpt lat="47.49161" lon="6.7651">
        <ele>364.6</ele>
        <time>2017-02-05T08:32:05.000Z</time>
      </trkpt>
      <trkpt lat="47.49165" lon="6.7651">
        <ele>364.7</ele>
        <time>2017-02-05T08:32:06.000Z</time>
      </trkpt>
      <trkpt lat="47.49167" lon="6.7651">
        <ele>364.8</ele>
        <time>2017-02-05T08:32:07.000Z</time>
      </trkpt>
      <trkpt lat="47.4917" lon="6.76509">
        <ele>364.9</ele>
        <time>2017-02-05T08:32:08.000Z</time>
      </trkpt>
      <trkpt lat="47.49172" lon="6.76507">
        <ele>364.8</ele>
        <time>2017-02-05T08:32:09.000Z</time>
      </trkpt>
      <trkpt lat="47.49174" lon="6.76505">
        <ele>364.9</ele>
        <time>2017-02-05T08:32:10.000Z</time>
      </trkpt>
      <trkpt lat="47.49177" lon="6.76503">
        <ele>364.9</ele>
        <time>2017-02-05T08:32:12.000Z</time>
      </trkpt>
      <trkpt lat="47.49178" lon="6.76501">
        <ele>364.9</ele>
        <time>2017-02-05T08:32:13.000Z</time>
      </trkpt>
      <trkpt lat="47.49179" lon="6.76496">
        <ele>364.9</ele>
        <time>2017-02-05T08:32:14.000Z</time>
      </trkpt>
      <trkpt lat="47.49178" lon="6.76493">
        <ele>365</ele>
        <time>2017-02-05T08:32:15.000Z</time>
      </trkpt>
      <trkpt lat="47.49174" lon="6.76496">
        <ele>367.1</ele>
        <time>2017-02-05T08:32:35.000Z</time>
      </trkpt>
      <trkpt lat="47.49174" lon="6.76496">
        <ele>367.3</ele>
        <time>2017-02-05T08:32:36.000Z</time>
      </trkpt>
      <trkpt lat="47.4917" lon="6.76491">
        <ele>366.4</ele>
        <time>2017-02-05T08:32:56.000Z</time>
      </trkpt>
      <trkpt lat="47.4917" lon="6.76491">
        <ele>366.4</ele>
        <time>2017-02-05T08:32:57.000Z</time>
      </trkpt>
      <trkpt lat="47.49173" lon="6.76485">
        <ele>366.8</ele>
        <time>2017-02-05T08:33:25.000Z</time>
      </trkpt>
      <trkpt lat="47.49173" lon="6.76485">
        <ele>366.7</ele>
        <time>2017-02-05T08:33:26.000Z</time>
      </trkpt>
      <trkpt lat="47.49176" lon="6.76489">
        <ele>362.9</ele>
        <time>2017-02-05T08:39:07.000Z</time>
      </trkpt>
      <trkpt lat="47.49177" lon="6.7649">
        <ele>362.9</ele>
        <time>2017-02-05T08:39:08.000Z</time>
      </trkpt>
      <trkpt lat="47.49178" lon="6.76496">
        <ele>362.9</ele>
        <time>2017-02-05T08:39:10.000Z</time>
      </trkpt>
      <trkpt lat="47.49177" lon="6.76498">
        <ele>362.9</ele>
        <time>2017-02-05T08:39:11.000Z</time>
      </trkpt>
      <trkpt lat="47.49175" lon="6.765">
        <ele>362.9</ele>
        <time>2017-02-05T08:39:12.000Z</time>
      </trkpt>
      <trkpt lat="47.49173" lon="6.76503">
        <ele>362.9</ele>
        <time>2017-02-05T08:39:13.000Z</time>
      </trkpt>
      <trkpt lat="47.49171" lon="6.76505">
        <ele>362.8</ele>
        <time>2017-02-05T08:39:14.000Z</time>
      </trkpt>
      <trkpt lat="47.49168" lon="6.76508">
        <ele>362.7</ele>
        <time>2017-02-05T08:39:15.000Z</time>
      </trkpt>
      <trkpt lat="47.49164" lon="6.76511">
        <ele>361.5</ele>
        <time>2017-02-05T08:39:16.000Z</time>
      </trkpt>
      <trkpt lat="47.49158" lon="6.76514">
        <ele>360.1</ele>
        <time>2017-02-05T08:39:17.000Z</time>
      </trkpt>
      <trkpt lat="47.49152" lon="6.76517">
        <ele>359.4</ele>
        <time>2017-02-05T08:39:18.000Z</time>
      </trkpt>
      <trkpt lat="47.49146" lon="6.76519">
        <ele>359.2</ele>
        <time>2017-02-05T08:39:19.000Z</time>
      </trkpt>
      <trkpt lat="47.4914" lon="6.7652">
        <ele>359.3</ele>
        <time>2017-02-05T08:39:20.000Z</time>
      </trkpt>
      <trkpt lat="47.49135" lon="6.7652">
        <ele>360</ele>
        <time>2017-02-05T08:39:21.000Z</time>
      </trkpt>
      <trkpt lat="47.49131" lon="6.7652">
        <ele>360.2</ele>
        <time>2017-02-05T08:39:22.000Z</time>
      </trkpt>
      <trkpt lat="47.49127" lon="6.76518">
        <ele>360.2</ele>
        <time>2017-02-05T08:39:23.000Z</time>
      </trkpt>
      <trkpt lat="47.49124" lon="6.76515">
        <ele>360.3</ele>
        <time>2017-02-05T08:39:24.000Z</time>
      </trkpt>
      <trkpt lat="47.49123" lon="6.76511">
        <ele>360.3</ele>
        <time>2017-02-05T08:39:25.000Z</time>
      </trkpt>
      <trkpt lat="47.49121" lon="6.76506">
        <ele>360.3</ele>
        <time>2017-02-05T08:39:26.000Z</time>
      </trkpt>
      <trkpt lat="47.49122" lon="6.765">
        <ele>360.3</ele>
        <time>2017-02-05T08:39:27.000Z</time>
      </trkpt>
      <trkpt lat="47.49122" lon="6.76494">
        <ele>360.2</ele>
        <time>2017-02-05T08:39:28.000Z</time>
      </trkpt>
      <trkpt lat="47.49122" lon="6.76489">
        <ele>360.2</ele>
        <time>2017-02-05T08:39:29.000Z</time>
      </trkpt>
      <trkpt lat="47.49122" lon="6.76483">
        <ele>360.2</ele>
        <time>2017-02-05T08:39:30.000Z</time>
      </trkpt>
      <trkpt lat="47.49122" lon="6.76478">
        <ele>360.2</ele>
        <time>2017-02-05T08:39:31.000Z</time>
      </trkpt>
      <trkpt lat="47.49122" lon="6.76473">
        <ele>360.1</ele>
        <time>2017-02-05T08:39:32.000Z</time>
      </trkpt>
      <trkpt lat="47.49122" lon="6.76467">
        <ele>360.1</ele>
        <time>2017-02-05T08:39:33.000Z</time>
      </trkpt>
      <trkpt lat="47.49123" lon="6.76461">
        <ele>360.2</ele>
        <time>2017-02-05T08:39:34.000Z</time>
      </trkpt>
      <trkpt lat="47.49123" lon="6.76456">
        <ele>360.3</ele>
        <time>2017-02-05T08:39:35.000Z</time>
      </trkpt>
      <trkpt lat="47.49123" lon="6.76451">
        <ele>360.5</ele>
        <time>2017-02-05T08:39:36.000Z</time>
      </trkpt>
      <trkpt lat="47.49122" lon="6.76446">
        <ele>360.7</ele>
        <time>2017-02-05T08:39:37.000Z</time>
      </trkpt>
      <trkpt lat="47.49123" lon="6.76442">
        <ele>360.9</ele>
        <time>2017-02-05T08:39:38.000Z</time>
      </trkpt>
      <trkpt lat="47.49123" lon="6.76437">
        <ele>361.2</ele>
        <time>2017-02-05T08:39:39.000Z</time>
      </trkpt>
      <trkpt lat="47.49123" lon="6.76433">
        <ele>361.4</ele>
        <time>2017-02-05T08:39:40.000Z</time>
      </trkpt>
      <trkpt lat="47.49123" lon="6.76428">
        <ele>361.6</ele>
        <time>2017-02-05T08:39:41.000Z</time>
      </trkpt>
      <trkpt lat="47.49119" lon="6.76426">
        <ele>362.3</ele>
        <time>2017-02-05T08:39:44.000Z</time>
      </trkpt>
      <trkpt lat="47.49118" lon="6.76426">
        <ele>362.5</ele>
        <time>2017-02-05T08:39:45.000Z</time>
      </trkpt>
      <trkpt lat="47.49116" lon="6.76426">
        <ele>363.1</ele>
        <time>2017-02-05T08:39:48.000Z</time>
      </trkpt>
      <trkpt lat="47.49113" lon="6.76425">
        <ele>363.2</ele>
        <time>2017-02-05T08:39:49.000Z</time>
      </trkpt>
      <trkpt lat="47.4911" lon="6.76424">
        <ele>363.3</ele>
        <time>2017-02-05T08:39:50.000Z</time>
      </trkpt>
      <trkpt lat="47.49108" lon="6.76421">
        <ele>363.5</ele>
        <time>2017-02-05T08:39:51.000Z</time>
      </trkpt>
      <trkpt lat="47.49109" lon="6.76417">
        <ele>363.6</ele>
        <time>2017-02-05T08:39:52.000Z</time>
      </trkpt>
      <trkpt lat="47.4911" lon="6.76415">
        <ele>363.6</ele>
        <time>2017-02-05T08:39:53.000Z</time>
      </trkpt>
      <trkpt lat="47.4911" lon="6.76411">
        <ele>363.6</ele>
        <time>2017-02-05T08:39:54.000Z</time>
      </trkpt>
      <trkpt lat="47.49111" lon="6.76407">
        <ele>363.6</ele>
        <time>2017-02-05T08:39:55.000Z</time>
      </trkpt>
      <trkpt lat="47.49111" lon="6.76403">
        <ele>363.5</ele>
        <time>2017-02-05T08:39:56.000Z</time>
      </trkpt>
      <trkpt lat="47.49111" lon="6.76397">
        <ele>363.4</ele>
        <time>2017-02-05T08:39:57.000Z</time>
      </trkpt>
      <trkpt lat="47.49111" lon="6.76389">
        <ele>363.4</ele>
        <time>2017-02-05T08:39:58.000Z</time>
      </trkpt>
      <trkpt lat="47.49111" lon="6.76385">
        <ele>363.3</ele>
        <time>2017-02-05T08:39:59.000Z</time>
      </trkpt>
      <trkpt lat="47.4911" lon="6.76382">
        <ele>363.2</ele>
        <time>2017-02-05T08:40:00.000Z</time>
      </trkpt>
      <trkpt lat="47.49108" lon="6.76377">
        <ele>363.1</ele>
        <time>2017-02-05T08:40:01.000Z</time>
      </trkpt>
      <trkpt lat="47.49106" lon="6.76372">
        <ele>363</ele>
        <time>2017-02-05T08:40:02.000Z</time>
      </trkpt>
      <trkpt lat="47.49104" lon="6.76364">
        <ele>362.9</ele>
        <time>2017-02-05T08:40:03.000Z</time>
      </trkpt>
      <trkpt lat="47.49103" lon="6.76359">
        <ele>362.8</ele>
        <time>2017-02-05T08:40:04.000Z</time>
      </trkpt>
      <trkpt lat="47.49102" lon="6.76354">
        <ele>362.7</ele>
        <time>2017-02-05T08:40:05.000Z</time>
      </trkpt>
      <trkpt lat="47.49101" lon="6.76349">
        <ele>362.5</ele>
        <time>2017-02-05T08:40:06.000Z</time>
      </trkpt>
      <trkpt lat="47.491" lon="6.7634">
        <ele>362.4</ele>
        <time>2017-02-05T08:40:07.000Z</time>
      </trkpt>
      <trkpt lat="47.491" lon="6.76337">
        <ele>362.1</ele>
        <time>2017-02-05T08:40:08.000Z</time>
      </trkpt>
      <trkpt lat="47.491" lon="6.76332">
        <ele>361.9</ele>
        <time>2017-02-05T08:40:09.000Z</time>
      </trkpt>
      <trkpt lat="47.491" lon="6.76325">
        <ele>361.8</ele>
        <time>2017-02-05T08:40:10.000Z</time>
      </trkpt>
      <trkpt lat="47.49101" lon="6.7632">
        <ele>361.7</ele>
        <time>2017-02-05T08:40:11.000Z</time>
      </trkpt>
      <trkpt lat="47.49102" lon="6.76313">
        <ele>361.8</ele>
        <time>2017-02-05T08:40:12.000Z</time>
      </trkpt>
      <trkpt lat="47.49102" lon="6.76305">
        <ele>361.7</ele>
        <time>2017-02-05T08:40:13.000Z</time>
      </trkpt>
      <trkpt lat="47.49101" lon="6.76296">
        <ele>361.7</ele>
        <time>2017-02-05T08:40:14.000Z</time>
      </trkpt>
      <trkpt lat="47.491" lon="6.7628">
        <ele>361.8</ele>
        <time>2017-02-05T08:40:15.000Z</time>
      </trkpt>
      <trkpt lat="47.49101" lon="6.76273">
        <ele>361.9</ele>
        <time>2017-02-05T08:40:16.000Z</time>
      </trkpt>
      <trkpt lat="47.491" lon="6.76268">
        <ele>362.1</ele>
        <time>2017-02-05T08:40:17.000Z</time>
      </trkpt>
      <trkpt lat="47.491" lon="6.76263">
        <ele>362.4</ele>
        <time>2017-02-05T08:40:18.000Z</time>
      </trkpt>
      <trkpt lat="47.49101" lon="6.76256">
        <ele>362.5</ele>
        <time>2017-02-05T08:40:19.000Z</time>
      </trkpt>
      <trkpt lat="47.49101" lon="6.76251">
        <ele>362.7</ele>
        <time>2017-02-05T08:40:20.000Z</time>
      </trkpt>
      <trkpt lat="47.49101" lon="6.76247">
        <ele>362.9</ele>
        <time>2017-02-05T08:40:21.000Z</time>
      </trkpt>
      <trkpt lat="47.49102" lon="6.76243">
        <ele>363</ele>
        <time>2017-02-05T08:40:22.000Z</time>
      </trkpt>
      <trkpt lat="47.49102" lon="6.7624">
        <ele>363</ele>
        <time>2017-02-05T08:40:23.000Z</time>
      </trkpt>
      <trkpt lat="47.49102" lon="6.76235">
        <ele>363</ele>
        <time>2017-02-05T08:40:24.000Z</time>
      </trkpt>
      <trkpt lat="47.49101" lon="6.76228">
        <ele>363.1</ele>
        <time>2017-02-05T08:40:25.000Z</time>
      </trkpt>
      <trkpt lat="47.49101" lon="6.76222">
        <ele>363.2</ele>
        <time>2017-02-05T08:40:26.000Z</time>
      </trkpt>
      <trkpt lat="47.49101" lon="6.76216">
        <ele>363.2</ele>
        <time>2017-02-05T08:40:27.000Z</time>
      </trkpt>
      <trkpt lat="47.49101" lon="6.76214">
        <ele>363.3</ele>
        <time>2017-02-05T08:40:28.000Z</time>
      </trkpt>
      <trkpt lat="47.49101" lon="6.76209">
        <ele>363.3</ele>
        <time>2017-02-05T08:40:30.000Z</time>
      </trkpt>
      <trkpt lat="47.49104" lon="6.76203">
        <ele>363.3</ele>
        <time>2017-02-05T08:40:31.000Z</time>
      </trkpt>
      <trkpt lat="47.49105" lon="6.76199">
        <ele>363.3</ele>
        <time>2017-02-05T08:40:32.000Z</time>
      </trkpt>
      <trkpt lat="47.49106" lon="6.76194">
        <ele>363.4</ele>
        <time>2017-02-05T08:40:33.000Z</time>
      </trkpt>
      <trkpt lat="47.49106" lon="6.7619">
        <ele>363.3</ele>
        <time>2017-02-05T08:40:34.000Z</time>
      </trkpt>
      <trkpt lat="47.49106" lon="6.76185">
        <ele>363.3</ele>
        <time>2017-02-05T08:40:35.000Z</time>
      </trkpt>
      <trkpt lat="47.49107" lon="6.76181">
        <ele>363.2</ele>
        <time>2017-02-05T08:40:36.000Z</time>
      </trkpt>
      <trkpt lat="47.49107" lon="6.76178">
        <ele>363.2</ele>
        <time>2017-02-05T08:40:37.000Z</time>
      </trkpt>
      <trkpt lat="47.49107" lon="6.76172">
        <ele>363.2</ele>
        <time>2017-02-05T08:40:39.000Z</time>
      </trkpt>
      <trkpt lat="47.49108" lon="6.76169">
        <ele>363.3</ele>
        <time>2017-02-05T08:40:40.000Z</time>
      </trkpt>
      <trkpt lat="47.49108" lon="6.76165">
        <ele>363.3</ele>
        <time>2017-02-05T08:40:41.000Z</time>
      </trkpt>
      <trkpt lat="47.49106" lon="6.7616">
        <ele>363.3</ele>
        <time>2017-02-05T08:40:42.000Z</time>
      </trkpt>
      <trkpt lat="47.49107" lon="6.76156">
        <ele>363.3</ele>
        <time>2017-02-05T08:40:43.000Z</time>
      </trkpt>
      <trkpt lat="47.49107" lon="6.76151">
        <ele>363.2</ele>
        <time>2017-02-05T08:40:44.000Z</time>
      </trkpt>
      <trkpt lat="47.49107" lon="6.76146">
        <ele>363.2</ele>
        <time>2017-02-05T08:40:45.000Z</time>
      </trkpt>
      <trkpt lat="47.49107" lon="6.7614">
        <ele>363.2</ele>
        <time>2017-02-05T08:40:46.000Z</time>
      </trkpt>
      <trkpt lat="47.49106" lon="6.76136">
        <ele>363.1</ele>
        <time>2017-02-05T08:40:47.000Z</time>
      </trkpt>
      <trkpt lat="47.49105" lon="6.76132">
        <ele>362.9</ele>
        <time>2017-02-05T08:40:48.000Z</time>
      </trkpt>
      <trkpt lat="47.49104" lon="6.76124">
        <ele>362.7</ele>
        <time>2017-02-05T08:40:49.000Z</time>
      </trkpt>
      <trkpt lat="47.49104" lon="6.76116">
        <ele>362.6</ele>
        <time>2017-02-05T08:40:50.000Z</time>
      </trkpt>
      <trkpt lat="47.49103" lon="6.76111">
        <ele>362.5</ele>
        <time>2017-02-05T08:40:51.000Z</time>
      </trkpt>
      <trkpt lat="47.49103" lon="6.76104">
        <ele>362.5</ele>
        <time>2017-02-05T08:40:52.000Z</time>
      </trkpt>
      <trkpt lat="47.49104" lon="6.761">
        <ele>362.5</ele>
        <time>2017-02-05T08:40:53.000Z</time>
      </trkpt>
      <trkpt lat="47.49104" lon="6.76094">
        <ele>362.5</ele>
        <time>2017-02-05T08:40:54.000Z</time>
      </trkpt>
      <trkpt lat="47.49103" lon="6.76087">
        <ele>362.6</ele>
        <time>2017-02-05T08:40:55.000Z</time>
      </trkpt>
      <trkpt lat="47.49103" lon="6.76081">
        <ele>362.6</ele>
        <time>2017-02-05T08:40:57.000Z</time>
      </trkpt>
      <trkpt lat="47.49102" lon="6.76077">
        <ele>362.6</ele>
        <time>2017-02-05T08:40:58.000Z</time>
      </trkpt>
      <trkpt lat="47.49101" lon="6.76072">
        <ele>362.6</ele>
        <time>2017-02-05T08:40:59.000Z</time>
      </trkpt>
      <trkpt lat="47.49101" lon="6.76065">
        <ele>362.6</ele>
        <time>2017-02-05T08:41:00.000Z</time>
      </trkpt>
      <trkpt lat="47.49102" lon="6.76058">
        <ele>362.7</ele>
        <time>2017-02-05T08:41:01.000Z</time>
      </trkpt>
      <trkpt lat="47.49103" lon="6.76051">
        <ele>362.7</ele>
        <time>2017-02-05T08:41:02.000Z</time>
      </trkpt>
      <trkpt lat="47.49104" lon="6.76045">
        <ele>362.8</ele>
        <time>2017-02-05T08:41:03.000Z</time>
      </trkpt>
      <trkpt lat="47.49105" lon="6.76037">
        <ele>362.8</ele>
        <time>2017-02-05T08:41:04.000Z</time>
      </trkpt>
      <trkpt lat="47.49106" lon="6.76028">
        <ele>362.9</ele>
        <time>2017-02-05T08:41:05.000Z</time>
      </trkpt>
      <trkpt lat="47.49107" lon="6.76018">
        <ele>363</ele>
        <time>2017-02-05T08:41:06.000Z</time>
      </trkpt>
      <trkpt lat="47.49109" lon="6.7601">
        <ele>363.2</ele>
        <time>2017-02-05T08:41:07.000Z</time>
      </trkpt>
      <trkpt lat="47.4911" lon="6.76002">
        <ele>363.3</ele>
        <time>2017-02-05T08:41:08.000Z</time>
      </trkpt>
      <trkpt lat="47.49111" lon="6.75994">
        <ele>363.4</ele>
        <time>2017-02-05T08:41:09.000Z</time>
      </trkpt>
      <trkpt lat="47.49113" lon="6.75986">
        <ele>363.4</ele>
        <time>2017-02-05T08:41:10.000Z</time>
      </trkpt>
      <trkpt lat="47.49115" lon="6.75979">
        <ele>363.5</ele>
        <time>2017-02-05T08:41:11.000Z</time>
      </trkpt>
      <trkpt lat="47.49117" lon="6.75973">
        <ele>363.7</ele>
        <time>2017-02-05T08:41:12.000Z</time>
      </trkpt>
      <trkpt lat="47.49118" lon="6.75967">
        <ele>363.9</ele>
        <time>2017-02-05T08:41:13.000Z</time>
      </trkpt>
      <trkpt lat="47.4912" lon="6.75962">
        <ele>364.1</ele>
        <time>2017-02-05T08:41:14.000Z</time>
      </trkpt>
      <trkpt lat="47.49122" lon="6.75957">
        <ele>364.2</ele>
        <time>2017-02-05T08:41:15.000Z</time>
      </trkpt>
      <trkpt lat="47.49124" lon="6.75953">
        <ele>364.4</ele>
        <time>2017-02-05T08:41:16.000Z</time>
      </trkpt>
      <trkpt lat="47.49125" lon="6.75947">
        <ele>364.5</ele>
        <time>2017-02-05T08:41:17.000Z</time>
      </trkpt>
      <trkpt lat="47.49127" lon="6.75942">
        <ele>364.6</ele>
        <time>2017-02-05T08:41:18.000Z</time>
      </trkpt>
      <trkpt lat="47.49129" lon="6.7594">
        <ele>364.8</ele>
        <time>2017-02-05T08:41:19.000Z</time>
      </trkpt>
      <trkpt lat="47.4913" lon="6.75937">
        <ele>364.9</ele>
        <time>2017-02-05T08:41:20.000Z</time>
      </trkpt>
      <trkpt lat="47.49131" lon="6.75933">
        <ele>365.1</ele>
        <time>2017-02-05T08:41:21.000Z</time>
      </trkpt>
      <trkpt lat="47.49132" lon="6.75928">
        <ele>365.2</ele>
        <time>2017-02-05T08:41:22.000Z</time>
      </trkpt>
      <trkpt lat="47.49133" lon="6.75924">
        <ele>365.3</ele>
        <time>2017-02-05T08:41:23.000Z</time>
      </trkpt>
      <trkpt lat="47.49135" lon="6.7592">
        <ele>365.3</ele>
        <time>2017-02-05T08:41:24.000Z</time>
      </trkpt>
      <trkpt lat="47.49136" lon="6.75916">
        <ele>365.4</ele>
        <time>2017-02-05T08:41:25.000Z</time>
      </trkpt>
      <trkpt lat="47.49138" lon="6.75911">
        <ele>365.5</ele>
        <time>2017-02-05T08:41:26.000Z</time>
      </trkpt>
      <trkpt lat="47.49141" lon="6.75907">
        <ele>365.5</ele>
        <time>2017-02-05T08:41:27.000Z</time>
      </trkpt>
      <trkpt lat="47.49143" lon="6.75903">
        <ele>365.4</ele>
        <time>2017-02-05T08:41:28.000Z</time>
      </trkpt>
      <trkpt lat="47.49144" lon="6.75899">
        <ele>365.2</ele>
        <time>2017-02-05T08:41:29.000Z</time>
      </trkpt>
      <trkpt lat="47.49145" lon="6.75895">
        <ele>365.1</ele>
        <time>2017-02-05T08:41:30.000Z</time>
      </trkpt>
      <trkpt lat="47.49146" lon="6.75892">
        <ele>365.1</ele>
        <time>2017-02-05T08:41:31.000Z</time>
      </trkpt>
      <trkpt lat="47.49147" lon="6.75889">
        <ele>365.1</ele>
        <time>2017-02-05T08:41:32.000Z</time>
      </trkpt>
      <trkpt lat="47.49149" lon="6.75885">
        <ele>365</ele>
        <time>2017-02-05T08:41:33.000Z</time>
      </trkpt>
      <trkpt lat="47.4915" lon="6.75881">
        <ele>365.1</ele>
        <time>2017-02-05T08:41:34.000Z</time>
      </trkpt>
      <trkpt lat="47.49151" lon="6.75877">
        <ele>364.9</ele>
        <time>2017-02-05T08:41:35.000Z</time>
      </trkpt>
      <trkpt lat="47.49152" lon="6.75873">
        <ele>364.9</ele>
        <time>2017-02-05T08:41:36.000Z</time>
      </trkpt>
      <trkpt lat="47.49154" lon="6.75867">
        <ele>364.8</ele>
        <time>2017-02-05T08:41:37.000Z</time>
      </trkpt>
      <trkpt lat="47.49156" lon="6.75865">
        <ele>364.7</ele>
        <time>2017-02-05T08:41:38.000Z</time>
      </trkpt>
      <trkpt lat="47.49157" lon="6.75859">
        <ele>364.7</ele>
        <time>2017-02-05T08:41:39.000Z</time>
      </trkpt>
      <trkpt lat="47.49159" lon="6.75845">
        <ele>363.3</ele>
        <time>2017-02-05T08:41:40.000Z</time>
      </trkpt>
      <trkpt lat="47.49161" lon="6.75835">
        <ele>363.2</ele>
        <time>2017-02-05T08:41:41.000Z</time>
      </trkpt>
      <trkpt lat="47.49163" lon="6.75825">
        <ele>363</ele>
        <time>2017-02-05T08:41:42.000Z</time>
      </trkpt>
      <trkpt lat="47.49164" lon="6.75813">
        <ele>361.2</ele>
        <time>2017-02-05T08:41:43.000Z</time>
      </trkpt>
      <trkpt lat="47.49165" lon="6.75803">
        <ele>359</ele>
        <time>2017-02-05T08:41:44.000Z</time>
      </trkpt>
      <trkpt lat="47.49166" lon="6.75796">
        <ele>359</ele>
        <time>2017-02-05T08:41:45.000Z</time>
      </trkpt>
      <trkpt lat="47.49168" lon="6.75789">
        <ele>358.8</ele>
        <time>2017-02-05T08:41:46.000Z</time>
      </trkpt>
      <trkpt lat="47.4917" lon="6.75781">
        <ele>358.7</ele>
        <time>2017-02-05T08:41:47.000Z</time>
      </trkpt>
      <trkpt lat="47.49171" lon="6.75774">
        <ele>358.5</ele>
        <time>2017-02-05T08:41:48.000Z</time>
      </trkpt>
      <trkpt lat="47.49173" lon="6.75769">
        <ele>358.5</ele>
        <time>2017-02-05T08:41:49.000Z</time>
      </trkpt>
      <trkpt lat="47.49175" lon="6.75764">
        <ele>358.4</ele>
        <time>2017-02-05T08:41:50.000Z</time>
      </trkpt>
      <trkpt lat="47.49177" lon="6.75758">
        <ele>358.3</ele>
        <time>2017-02-05T08:41:51.000Z</time>
      </trkpt>
      <trkpt lat="47.49178" lon="6.75752">
        <ele>358.1</ele>
        <time>2017-02-05T08:41:52.000Z</time>
      </trkpt>
      <trkpt lat="47.4918" lon="6.75748">
        <ele>357.9</ele>
        <time>2017-02-05T08:41:53.000Z</time>
      </trkpt>
      <trkpt lat="47.49181" lon="6.75743">
        <ele>357.8</ele>
        <time>2017-02-05T08:41:54.000Z</time>
      </trkpt>
      <trkpt lat="47.49182" lon="6.75738">
        <ele>357.7</ele>
        <time>2017-02-05T08:41:55.000Z</time>
      </trkpt>
      <trkpt lat="47.49184" lon="6.75732">
        <ele>357.6</ele>
        <time>2017-02-05T08:41:56.000Z</time>
      </trkpt>
      <trkpt lat="47.49186" lon="6.75726">
        <ele>357.5</ele>
        <time>2017-02-05T08:41:57.000Z</time>
      </trkpt>
      <trkpt lat="47.49189" lon="6.75719">
        <ele>357.3</ele>
        <time>2017-02-05T08:41:58.000Z</time>
      </trkpt>
      <trkpt lat="47.49192" lon="6.75711">
        <ele>357.1</ele>
        <time>2017-02-05T08:41:59.000Z</time>
      </trkpt>
      <trkpt lat="47.49193" lon="6.75704">
        <ele>356.9</ele>
        <time>2017-02-05T08:42:00.000Z</time>
      </trkpt>
      <trkpt lat="47.49194" lon="6.75698">
        <ele>356.8</ele>
        <time>2017-02-05T08:42:01.000Z</time>
      </trkpt>
      <trkpt lat="47.49195" lon="6.75693">
        <ele>356.6</ele>
        <time>2017-02-05T08:42:02.000Z</time>
      </trkpt>
      <trkpt lat="47.49196" lon="6.75687">
        <ele>356.5</ele>
        <time>2017-02-05T08:42:03.000Z</time>
      </trkpt>
      <trkpt lat="47.49198" lon="6.75682">
        <ele>356.4</ele>
        <time>2017-02-05T08:42:04.000Z</time>
      </trkpt>
      <trkpt lat="47.49197" lon="6.75677">
        <ele>356.3</ele>
        <time>2017-02-05T08:42:05.000Z</time>
      </trkpt>
      <trkpt lat="47.49198" lon="6.75671">
        <ele>356.2</ele>
        <time>2017-02-05T08:42:06.000Z</time>
      </trkpt>
      <trkpt lat="47.49198" lon="6.75666">
        <ele>356.1</ele>
        <time>2017-02-05T08:42:07.000Z</time>
      </trkpt>
      <trkpt lat="47.492" lon="6.7566">
        <ele>356</ele>
        <time>2017-02-05T08:42:08.000Z</time>
      </trkpt>
      <trkpt lat="47.49202" lon="6.75653">
        <ele>355.9</ele>
        <time>2017-02-05T08:42:09.000Z</time>
      </trkpt>
      <trkpt lat="47.49204" lon="6.75646">
        <ele>355.7</ele>
        <time>2017-02-05T08:42:10.000Z</time>
      </trkpt>
      <trkpt lat="47.49205" lon="6.75641">
        <ele>355.6</ele>
        <time>2017-02-05T08:42:11.000Z</time>
      </trkpt>
      <trkpt lat="47.49207" lon="6.75637">
        <ele>355.6</ele>
        <time>2017-02-05T08:42:12.000Z</time>
      </trkpt>
      <trkpt lat="47.49209" lon="6.7563">
        <ele>355.6</ele>
        <time>2017-02-05T08:42:13.000Z</time>
      </trkpt>
      <trkpt lat="47.49211" lon="6.75624">
        <ele>355.6</ele>
        <time>2017-02-05T08:42:14.000Z</time>
      </trkpt>
      <trkpt lat="47.49213" lon="6.75619">
        <ele>355.7</ele>
        <time>2017-02-05T08:42:15.000Z</time>
      </trkpt>
      <trkpt lat="47.49216" lon="6.75614">
        <ele>355.8</ele>
        <time>2017-02-05T08:42:16.000Z</time>
      </trkpt>
      <trkpt lat="47.49219" lon="6.75609">
        <ele>355.9</ele>
        <time>2017-02-05T08:42:17.000Z</time>
      </trkpt>
      <trkpt lat="47.49221" lon="6.75606">
        <ele>355.9</ele>
        <time>2017-02-05T08:42:18.000Z</time>
      </trkpt>
      <trkpt lat="47.49222" lon="6.75602">
        <ele>356</ele>
        <time>2017-02-05T08:42:19.000Z</time>
      </trkpt>
      <trkpt lat="47.49224" lon="6.75596">
        <ele>356</ele>
        <time>2017-02-05T08:42:20.000Z</time>
      </trkpt>
      <trkpt lat="47.49228" lon="6.75579">
        <ele>356.1</ele>
        <time>2017-02-05T08:42:21.000Z</time>
      </trkpt>
      <trkpt lat="47.4923" lon="6.75573">
        <ele>356.1</ele>
        <time>2017-02-05T08:42:22.000Z</time>
      </trkpt>
      <trkpt lat="47.49233" lon="6.7557">
        <ele>356.2</ele>
        <time>2017-02-05T08:42:23.000Z</time>
      </trkpt>
      <trkpt lat="47.4924" lon="6.75561">
        <ele>356.3</ele>
        <time>2017-02-05T08:42:24.000Z</time>
      </trkpt>
      <trkpt lat="47.49243" lon="6.75553">
        <ele>356.4</ele>
        <time>2017-02-05T08:42:25.000Z</time>
      </trkpt>
      <trkpt lat="47.49246" lon="6.75546">
        <ele>356.6</ele>
        <time>2017-02-05T08:42:26.000Z</time>
      </trkpt>
      <trkpt lat="47.49249" lon="6.75539">
        <ele>356.7</ele>
        <time>2017-02-05T08:42:27.000Z</time>
      </trkpt>
      <trkpt lat="47.49251" lon="6.75532">
        <ele>357.2</ele>
        <time>2017-02-05T08:42:28.000Z</time>
      </trkpt>
      <trkpt lat="47.49253" lon="6.75527">
        <ele>357.6</ele>
        <time>2017-02-05T08:42:29.000Z</time>
      </trkpt>
      <trkpt lat="47.49254" lon="6.75521">
        <ele>357.9</ele>
        <time>2017-02-05T08:42:30.000Z</time>
      </trkpt>
      <trkpt lat="47.49255" lon="6.75515">
        <ele>358.3</ele>
        <time>2017-02-05T08:42:31.000Z</time>
      </trkpt>
      <trkpt lat="47.49256" lon="6.75508">
        <ele>358.6</ele>
        <time>2017-02-05T08:42:32.000Z</time>
      </trkpt>
      <trkpt lat="47.49258" lon="6.75502">
        <ele>359</ele>
        <time>2017-02-05T08:42:33.000Z</time>
      </trkpt>
      <trkpt lat="47.4926" lon="6.75497">
        <ele>359.4</ele>
        <time>2017-02-05T08:42:34.000Z</time>
      </trkpt>
      <trkpt lat="47.49261" lon="6.75491">
        <ele>359.7</ele>
        <time>2017-02-05T08:42:35.000Z</time>
      </trkpt>
      <trkpt lat="47.4926" lon="6.75485">
        <ele>360.1</ele>
        <time>2017-02-05T08:42:36.000Z</time>
      </trkpt>
      <trkpt lat="47.49263" lon="6.75481">
        <ele>360.6</ele>
        <time>2017-02-05T08:42:37.000Z</time>
      </trkpt>
      <trkpt lat="47.49266" lon="6.75478">
        <ele>361.1</ele>
        <time>2017-02-05T08:42:38.000Z</time>
      </trkpt>
      <trkpt lat="47.49269" lon="6.75472">
        <ele>361.4</ele>
        <time>2017-02-05T08:42:39.000Z</time>
      </trkpt>
      <trkpt lat="47.49271" lon="6.75469">
        <ele>361.8</ele>
        <time>2017-02-05T08:42:40.000Z</time>
      </trkpt>
      <trkpt lat="47.49273" lon="6.75462">
        <ele>362.1</ele>
        <time>2017-02-05T08:42:41.000Z</time>
      </trkpt>
      <trkpt lat="47.49275" lon="6.75456">
        <ele>362.3</ele>
        <time>2017-02-05T08:42:42.000Z</time>
      </trkpt>
      <trkpt lat="47.49276" lon="6.7545">
        <ele>362.5</ele>
        <time>2017-02-05T08:42:43.000Z</time>
      </trkpt>
      <trkpt lat="47.49276" lon="6.75445">
        <ele>362.6</ele>
        <time>2017-02-05T08:42:44.000Z</time>
      </trkpt>
      <trkpt lat="47.49277" lon="6.75443">
        <ele>362.9</ele>
        <time>2017-02-05T08:42:45.000Z</time>
      </trkpt>
      <trkpt lat="47.49278" lon="6.75438">
        <ele>363</ele>
        <time>2017-02-05T08:42:46.000Z</time>
      </trkpt>
      <trkpt lat="47.49279" lon="6.75433">
        <ele>363.1</ele>
        <time>2017-02-05T08:42:47.000Z</time>
      </trkpt>
      <trkpt lat="47.49279" lon="6.7543">
        <ele>363.2</ele>
        <time>2017-02-05T08:42:48.000Z</time>
      </trkpt>
      <trkpt lat="47.4928" lon="6.75425">
        <ele>363.3</ele>
        <time>2017-02-05T08:42:49.000Z</time>
      </trkpt>
      <trkpt lat="47.49281" lon="6.75421">
        <ele>363.4</ele>
        <time>2017-02-05T08:42:50.000Z</time>
      </trkpt>
      <trkpt lat="47.49283" lon="6.75416">
        <ele>363.5</ele>
        <time>2017-02-05T08:42:51.000Z</time>
      </trkpt>
      <trkpt lat="47.49284" lon="6.75413">
        <ele>363.6</ele>
        <time>2017-02-05T08:42:52.000Z</time>
      </trkpt>
      <trkpt lat="47.49285" lon="6.75408">
        <ele>363.9</ele>
        <time>2017-02-05T08:42:55.000Z</time>
      </trkpt>
      <trkpt lat="47.49287" lon="6.75403">
        <ele>364</ele>
        <time>2017-02-05T08:42:56.000Z</time>
      </trkpt>
      <trkpt lat="47.49288" lon="6.75398">
        <ele>364.1</ele>
        <time>2017-02-05T08:42:57.000Z</time>
      </trkpt>
      <trkpt lat="47.49289" lon="6.75391">
        <ele>364.3</ele>
        <time>2017-02-05T08:42:58.000Z</time>
      </trkpt>
      <trkpt lat="47.49292" lon="6.75384">
        <ele>364.4</ele>
        <time>2017-02-05T08:42:59.000Z</time>
      </trkpt>
      <trkpt lat="47.49292" lon="6.75379">
        <ele>364.8</ele>
        <time>2017-02-05T08:43:01.000Z</time>
      </trkpt>
      <trkpt lat="47.49292" lon="6.75375">
        <ele>365</ele>
        <time>2017-02-05T08:43:02.000Z</time>
      </trkpt>
      <trkpt lat="47.49293" lon="6.75368">
        <ele>365.1</ele>
        <time>2017-02-05T08:43:03.000Z</time>
      </trkpt>
      <trkpt lat="47.49294" lon="6.7536">
        <ele>365.5</ele>
        <time>2017-02-05T08:43:04.000Z</time>
      </trkpt>
      <trkpt lat="47.49295" lon="6.75349">
        <ele>365.9</ele>
        <time>2017-02-05T08:43:05.000Z</time>
      </trkpt>
      <trkpt lat="47.49297" lon="6.75338">
        <ele>366.5</ele>
        <time>2017-02-05T08:43:06.000Z</time>
      </trkpt>
      <trkpt lat="47.49298" lon="6.75332">
        <ele>367.1</ele>
        <time>2017-02-05T08:43:07.000Z</time>
      </trkpt>
      <trkpt lat="47.49299" lon="6.75325">
        <ele>367.8</ele>
        <time>2017-02-05T08:43:08.000Z</time>
      </trkpt>
      <trkpt lat="47.493" lon="6.75318">
        <ele>368.4</ele>
        <time>2017-02-05T08:43:09.000Z</time>
      </trkpt>
      <trkpt lat="47.49302" lon="6.75312">
        <ele>368.9</ele>
        <time>2017-02-05T08:43:10.000Z</time>
      </trkpt>
      <trkpt lat="47.49303" lon="6.75307">
        <ele>369.3</ele>
        <time>2017-02-05T08:43:11.000Z</time>
      </trkpt>
      <trkpt lat="47.49303" lon="6.753">
        <ele>369.7</ele>
        <time>2017-02-05T08:43:12.000Z</time>
      </trkpt>
      <trkpt lat="47.49304" lon="6.75293">
        <ele>370.2</ele>
        <time>2017-02-05T08:43:13.000Z</time>
      </trkpt>
      <trkpt lat="47.49304" lon="6.75285">
        <ele>370.6</ele>
        <time>2017-02-05T08:43:14.000Z</time>
      </trkpt>
      <trkpt lat="47.49305" lon="6.7528">
        <ele>371.1</ele>
        <time>2017-02-05T08:43:15.000Z</time>
      </trkpt>
      <trkpt lat="47.49306" lon="6.75275">
        <ele>371.6</ele>
        <time>2017-02-05T08:43:16.000Z</time>
      </trkpt>
      <trkpt lat="47.49306" lon="6.7527">
        <ele>372.5</ele>
        <time>2017-02-05T08:43:18.000Z</time>
      </trkpt>
      <trkpt lat="47.49306" lon="6.75268">
        <ele>372.9</ele>
        <time>2017-02-05T08:43:19.000Z</time>
      </trkpt>
      <trkpt lat="47.49304" lon="6.75261">
        <ele>373.2</ele>
        <time>2017-02-05T08:43:20.000Z</time>
      </trkpt>
      <trkpt lat="47.49304" lon="6.75255">
        <ele>373.6</ele>
        <time>2017-02-05T08:43:21.000Z</time>
      </trkpt>
      <trkpt lat="47.49303" lon="6.75251">
        <ele>373.9</ele>
        <time>2017-02-05T08:43:22.000Z</time>
      </trkpt>
      <trkpt lat="47.49302" lon="6.75248">
        <ele>374.3</ele>
        <time>2017-02-05T08:43:23.000Z</time>
      </trkpt>
      <trkpt lat="47.49301" lon="6.75244">
        <ele>374.5</ele>
        <time>2017-02-05T08:43:24.000Z</time>
      </trkpt>
      <trkpt lat="47.493" lon="6.75239">
        <ele>374.7</ele>
        <time>2017-02-05T08:43:25.000Z</time>
      </trkpt>
      <trkpt lat="47.49298" lon="6.75236">
        <ele>374.8</ele>
        <time>2017-02-05T08:43:26.000Z</time>
      </trkpt>
      <trkpt lat="47.49297" lon="6.75232">
        <ele>374.9</ele>
        <time>2017-02-05T08:43:27.000Z</time>
      </trkpt>
      <trkpt lat="47.49296" lon="6.75229">
        <ele>375.1</ele>
        <time>2017-02-05T08:43:28.000Z</time>
      </trkpt>
      <trkpt lat="47.49295" lon="6.75225">
        <ele>375.2</ele>
        <time>2017-02-05T08:43:29.000Z</time>
      </trkpt>
      <trkpt lat="47.49295" lon="6.75221">
        <ele>375.3</ele>
        <time>2017-02-05T08:43:30.000Z</time>
      </trkpt>
      <trkpt lat="47.49295" lon="6.75217">
        <ele>375.4</ele>
        <time>2017-02-05T08:43:31.000Z</time>
      </trkpt>
      <trkpt lat="47.49295" lon="6.75214">
        <ele>375.5</ele>
        <time>2017-02-05T08:43:32.000Z</time>
      </trkpt>
      <trkpt lat="47.49295" lon="6.75207">
        <ele>375.9</ele>
        <time>2017-02-05T08:43:34.000Z</time>
      </trkpt>
      <trkpt lat="47.49295" lon="6.75204">
        <ele>376</ele>
        <time>2017-02-05T08:43:35.000Z</time>
      </trkpt>
      <trkpt lat="47.49295" lon="6.752">
        <ele>376</ele>
        <time>2017-02-05T08:43:36.000Z</time>
      </trkpt>
      <trkpt lat="47.49295" lon="6.75197">
        <ele>375.9</ele>
        <time>2017-02-05T08:43:37.000Z</time>
      </trkpt>
      <trkpt lat="47.49295" lon="6.75193">
        <ele>375.9</ele>
        <time>2017-02-05T08:43:38.000Z</time>
      </trkpt>
      <trkpt lat="47.49295" lon="6.75189">
        <ele>375.9</ele>
        <time>2017-02-05T08:43:39.000Z</time>
      </trkpt>
      <trkpt lat="47.49296" lon="6.75183">
        <ele>375.7</ele>
        <time>2017-02-05T08:43:41.000Z</time>
      </trkpt>
      <trkpt lat="47.49296" lon="6.75178">
        <ele>375.7</ele>
        <time>2017-02-05T08:43:42.000Z</time>
      </trkpt>
      <trkpt lat="47.49297" lon="6.75172">
        <ele>375.6</ele>
        <time>2017-02-05T08:43:44.000Z</time>
      </trkpt>
      <trkpt lat="47.49297" lon="6.7517">
        <ele>375.5</ele>
        <time>2017-02-05T08:43:45.000Z</time>
      </trkpt>
      <trkpt lat="47.49296" lon="6.75165">
        <ele>375.3</ele>
        <time>2017-02-05T08:43:47.000Z</time>
      </trkpt>
      <trkpt lat="47.49296" lon="6.75162">
        <ele>375.2</ele>
        <time>2017-02-05T08:43:48.000Z</time>
      </trkpt>
      <trkpt lat="47.49295" lon="6.75157">
        <ele>374.9</ele>
        <time>2017-02-05T08:43:49.000Z</time>
      </trkpt>
      <trkpt lat="47.49295" lon="6.75151">
        <ele>374.7</ele>
        <time>2017-02-05T08:43:50.000Z</time>
      </trkpt>
      <trkpt lat="47.49295" lon="6.75147">
        <ele>374.4</ele>
        <time>2017-02-05T08:43:51.000Z</time>
      </trkpt>
      <trkpt lat="47.49296" lon="6.75139">
        <ele>374.1</ele>
        <time>2017-02-05T08:43:52.000Z</time>
      </trkpt>
      <trkpt lat="47.49296" lon="6.7513">
        <ele>373.9</ele>
        <time>2017-02-05T08:43:53.000Z</time>
      </trkpt>
      <trkpt lat="47.49297" lon="6.75122">
        <ele>373.8</ele>
        <time>2017-02-05T08:43:54.000Z</time>
      </trkpt>
      <trkpt lat="47.49296" lon="6.75116">
        <ele>373.6</ele>
        <time>2017-02-05T08:43:55.000Z</time>
      </trkpt>
      <trkpt lat="47.49297" lon="6.75108">
        <ele>373.3</ele>
        <time>2017-02-05T08:43:56.000Z</time>
      </trkpt>
      <trkpt lat="47.49297" lon="6.751">
        <ele>373.1</ele>
        <time>2017-02-05T08:43:57.000Z</time>
      </trkpt>
      <trkpt lat="47.49297" lon="6.7509">
        <ele>372.8</ele>
        <time>2017-02-05T08:43:58.000Z</time>
      </trkpt>
      <trkpt lat="47.49298" lon="6.75083">
        <ele>372.7</ele>
        <time>2017-02-05T08:43:59.000Z</time>
      </trkpt>
      <trkpt lat="47.49299" lon="6.75078">
        <ele>372.7</ele>
        <time>2017-02-05T08:44:00.000Z</time>
      </trkpt>
      <trkpt lat="47.493" lon="6.75073">
        <ele>372.6</ele>
        <time>2017-02-05T08:44:01.000Z</time>
      </trkpt>
      <trkpt lat="47.49301" lon="6.75069">
        <ele>372.5</ele>
        <time>2017-02-05T08:44:02.000Z</time>
      </trkpt>
      <trkpt lat="47.49299" lon="6.75065">
        <ele>372.2</ele>
        <time>2017-02-05T08:44:03.000Z</time>
      </trkpt>
      <trkpt lat="47.49302" lon="6.75062">
        <ele>372</ele>
        <time>2017-02-05T08:44:05.000Z</time>
      </trkpt>
      <trkpt lat="47.49304" lon="6.75058">
        <ele>371.8</ele>
        <time>2017-02-05T08:44:06.000Z</time>
      </trkpt>
      <trkpt lat="47.49308" lon="6.75054">
        <ele>371.8</ele>
        <time>2017-02-05T08:44:07.000Z</time>
      </trkpt>
      <trkpt lat="47.4931" lon="6.7505">
        <ele>371.8</ele>
        <time>2017-02-05T08:44:08.000Z</time>
      </trkpt>
      <trkpt lat="47.49311" lon="6.75046">
        <ele>371.7</ele>
        <time>2017-02-05T08:44:09.000Z</time>
      </trkpt>
      <trkpt lat="47.49313" lon="6.75042">
        <ele>371.7</ele>
        <time>2017-02-05T08:44:10.000Z</time>
      </trkpt>
      <trkpt lat="47.49315" lon="6.75037">
        <ele>371.7</ele>
        <time>2017-02-05T08:44:11.000Z</time>
      </trkpt>
      <trkpt lat="47.49318" lon="6.75031">
        <ele>371.8</ele>
        <time>2017-02-05T08:44:12.000Z</time>
      </trkpt>
      <trkpt lat="47.49319" lon="6.75028">
        <ele>371.9</ele>
        <time>2017-02-05T08:44:13.000Z</time>
      </trkpt>
      <trkpt lat="47.4932" lon="6.75025">
        <ele>372</ele>
        <time>2017-02-05T08:44:14.000Z</time>
      </trkpt>
      <trkpt lat="47.49321" lon="6.75019">
        <ele>372.2</ele>
        <time>2017-02-05T08:44:16.000Z</time>
      </trkpt>
      <trkpt lat="47.49322" lon="6.75016">
        <ele>372.3</ele>
        <time>2017-02-05T08:44:17.000Z</time>
      </trkpt>
      <trkpt lat="47.49323" lon="6.75011">
        <ele>372.5</ele>
        <time>2017-02-05T08:44:18.000Z</time>
      </trkpt>
      <trkpt lat="47.49324" lon="6.75005">
        <ele>372.6</ele>
        <time>2017-02-05T08:44:19.000Z</time>
      </trkpt>
      <trkpt lat="47.49324" lon="6.75">
        <ele>372.7</ele>
        <time>2017-02-05T08:44:20.000Z</time>
      </trkpt>
      <trkpt lat="47.49325" lon="6.74995">
        <ele>372.8</ele>
        <time>2017-02-05T08:44:21.000Z</time>
      </trkpt>
      <trkpt lat="47.49326" lon="6.74991">
        <ele>372.9</ele>
        <time>2017-02-05T08:44:22.000Z</time>
      </trkpt>
      <trkpt lat="47.49327" lon="6.74987">
        <ele>373.1</ele>
        <time>2017-02-05T08:44:23.000Z</time>
      </trkpt>
      <trkpt lat="47.49329" lon="6.74981">
        <ele>373.4</ele>
        <time>2017-02-05T08:44:25.000Z</time>
      </trkpt>
      <trkpt lat="47.4933" lon="6.74977">
        <ele>373.6</ele>
        <time>2017-02-05T08:44:26.000Z</time>
      </trkpt>
      <trkpt lat="47.49333" lon="6.74972">
        <ele>374.2</ele>
        <time>2017-02-05T08:44:29.000Z</time>
      </trkpt>
      <trkpt lat="47.49333" lon="6.74971">
        <ele>374.3</ele>
        <time>2017-02-05T08:44:30.000Z</time>
      </trkpt>
      <trkpt lat="47.49335" lon="6.74965">
        <ele>375.3</ele>
        <time>2017-02-05T08:44:34.000Z</time>
      </trkpt>
      <trkpt lat="47.49335" lon="6.74964">
        <ele>375.5</ele>
        <time>2017-02-05T08:44:35.000Z</time>
      </trkpt>
      <trkpt lat="47.49336" lon="6.74959">
        <ele>376.9</ele>
        <time>2017-02-05T08:44:42.000Z</time>
      </trkpt>
      <trkpt lat="47.49336" lon="6.74958">
        <ele>377.2</ele>
        <time>2017-02-05T08:44:43.000Z</time>
      </trkpt>
      <trkpt lat="47.49336" lon="6.74953">
        <ele>378.3</ele>
        <time>2017-02-05T08:44:47.000Z</time>
      </trkpt>
      <trkpt lat="47.49337" lon="6.74948">
        <ele>378.6</ele>
        <time>2017-02-05T08:44:48.000Z</time>
      </trkpt>
      <trkpt lat="47.49337" lon="6.74942">
        <ele>379.1</ele>
        <time>2017-02-05T08:44:50.000Z</time>
      </trkpt>
      <trkpt lat="47.49337" lon="6.74941">
        <ele>379.2</ele>
        <time>2017-02-05T08:44:51.000Z</time>
      </trkpt>
      <trkpt lat="47.49336" lon="6.74936">
        <ele>379.2</ele>
        <time>2017-02-05T08:44:53.000Z</time>
      </trkpt>
      <trkpt lat="47.49335" lon="6.74934">
        <ele>379.2</ele>
        <time>2017-02-05T08:44:54.000Z</time>
      </trkpt>
      <trkpt lat="47.49333" lon="6.74929">
        <ele>379</ele>
        <time>2017-02-05T08:44:56.000Z</time>
      </trkpt>
      <trkpt lat="47.49333" lon="6.74928">
        <ele>379.1</ele>
        <time>2017-02-05T08:44:57.000Z</time>
      </trkpt>
      <trkpt lat="47.49334" lon="6.74921">
        <ele>378.8</ele>
        <time>2017-02-05T08:45:01.000Z</time>
      </trkpt>
      <trkpt lat="47.49336" lon="6.74918">
        <ele>378.6</ele>
        <time>2017-02-05T08:45:02.000Z</time>
      </trkpt>
      <trkpt lat="47.49337" lon="6.74913">
        <ele>378.4</ele>
        <time>2017-02-05T08:45:03.000Z</time>
      </trkpt>
      <trkpt lat="47.49338" lon="6.74909">
        <ele>378.3</ele>
        <time>2017-02-05T08:45:04.000Z</time>
      </trkpt>
      <trkpt lat="47.4934" lon="6.74904">
        <ele>378.1</ele>
        <time>2017-02-05T08:45:05.000Z</time>
      </trkpt>
      <trkpt lat="47.49344" lon="6.749">
        <ele>377.9</ele>
        <time>2017-02-05T08:45:06.000Z</time>
      </trkpt>
      <trkpt lat="47.49346" lon="6.74897">
        <ele>377.8</ele>
        <time>2017-02-05T08:45:07.000Z</time>
      </trkpt>
      <trkpt lat="47.49348" lon="6.74893">
        <ele>377.5</ele>
        <time>2017-02-05T08:45:08.000Z</time>
      </trkpt>
      <trkpt lat="47.49352" lon="6.74887">
        <ele>377.3</ele>
        <time>2017-02-05T08:45:09.000Z</time>
      </trkpt>
      <trkpt lat="47.49353" lon="6.74882">
        <ele>377.1</ele>
        <time>2017-02-05T08:45:10.000Z</time>
      </trkpt>
      <trkpt lat="47.49353" lon="6.74875">
        <ele>376.9</ele>
        <time>2017-02-05T08:45:11.000Z</time>
      </trkpt>
      <trkpt lat="47.49355" lon="6.74868">
        <ele>376.8</ele>
        <time>2017-02-05T08:45:12.000Z</time>
      </trkpt>
      <trkpt lat="47.49356" lon="6.74862">
        <ele>376.8</ele>
        <time>2017-02-05T08:45:13.000Z</time>
      </trkpt>
      <trkpt lat="47.49358" lon="6.74857">
        <ele>376.6</ele>
        <time>2017-02-05T08:45:14.000Z</time>
      </trkpt>
      <trkpt lat="47.49358" lon="6.74856">
        <ele>376.4</ele>
        <time>2017-02-05T08:45:15.000Z</time>
      </trkpt>
      <trkpt lat="47.49363" lon="6.74846">
        <ele>376.3</ele>
        <time>2017-02-05T08:45:16.000Z</time>
      </trkpt>
      <trkpt lat="47.49364" lon="6.74834">
        <ele>376.3</ele>
        <time>2017-02-05T08:45:17.000Z</time>
      </trkpt>
      <trkpt lat="47.49365" lon="6.74828">
        <ele>376.3</ele>
        <time>2017-02-05T08:45:18.000Z</time>
      </trkpt>
      <trkpt lat="47.49366" lon="6.74824">
        <ele>376.2</ele>
        <time>2017-02-05T08:45:19.000Z</time>
      </trkpt>
      <trkpt lat="47.49367" lon="6.74819">
        <ele>376.1</ele>
        <time>2017-02-05T08:45:20.000Z</time>
      </trkpt>
      <trkpt lat="47.49367" lon="6.74816">
        <ele>376</ele>
        <time>2017-02-05T08:45:21.000Z</time>
      </trkpt>
      <trkpt lat="47.49369" lon="6.74813">
        <ele>375.9</ele>
        <time>2017-02-05T08:45:22.000Z</time>
      </trkpt>
      <trkpt lat="47.49372" lon="6.7481">
        <ele>375.7</ele>
        <time>2017-02-05T08:45:23.000Z</time>
      </trkpt>
      <trkpt lat="47.49373" lon="6.74805">
        <ele>375.4</ele>
        <time>2017-02-05T08:45:24.000Z</time>
      </trkpt>
      <trkpt lat="47.49374" lon="6.74801">
        <ele>375.2</ele>
        <time>2017-02-05T08:45:25.000Z</time>
      </trkpt>
      <trkpt lat="47.49376" lon="6.74796">
        <ele>374.9</ele>
        <time>2017-02-05T08:45:26.000Z</time>
      </trkpt>
      <trkpt lat="47.49376" lon="6.74791">
        <ele>374.6</ele>
        <time>2017-02-05T08:45:27.000Z</time>
      </trkpt>
      <trkpt lat="47.49378" lon="6.74785">
        <ele>374.3</ele>
        <time>2017-02-05T08:45:28.000Z</time>
      </trkpt>
      <trkpt lat="47.49379" lon="6.74779">
        <ele>374</ele>
        <time>2017-02-05T08:45:29.000Z</time>
      </trkpt>
      <trkpt lat="47.49379" lon="6.74773">
        <ele>373.5</ele>
        <time>2017-02-05T08:45:30.000Z</time>
      </trkpt>
      <trkpt lat="47.4938" lon="6.74767">
        <ele>373.1</ele>
        <time>2017-02-05T08:45:31.000Z</time>
      </trkpt>
      <trkpt lat="47.49381" lon="6.7476">
        <ele>372.7</ele>
        <time>2017-02-05T08:45:32.000Z</time>
      </trkpt>
      <trkpt lat="47.49382" lon="6.74755">
        <ele>372.3</ele>
        <time>2017-02-05T08:45:33.000Z</time>
      </trkpt>
      <trkpt lat="47.49384" lon="6.7475">
        <ele>371.9</ele>
        <time>2017-02-05T08:45:34.000Z</time>
      </trkpt>
      <trkpt lat="47.49384" lon="6.74745">
        <ele>371.6</ele>
        <time>2017-02-05T08:45:35.000Z</time>
      </trkpt>
      <trkpt lat="47.49384" lon="6.74737">
        <ele>371.4</ele>
        <time>2017-02-05T08:45:36.000Z</time>
      </trkpt>
      <trkpt lat="47.49384" lon="6.74729">
        <ele>371.2</ele>
        <time>2017-02-05T08:45:37.000Z</time>
      </trkpt>
      <trkpt lat="47.49384" lon="6.74724">
        <ele>371.1</ele>
        <time>2017-02-05T08:45:39.000Z</time>
      </trkpt>
      <trkpt lat="47.49385" lon="6.74721">
        <ele>371</ele>
        <time>2017-02-05T08:45:40.000Z</time>
      </trkpt>
      <trkpt lat="47.49385" lon="6.74715">
        <ele>370.9</ele>
        <time>2017-02-05T08:45:41.000Z</time>
      </trkpt>
      <trkpt lat="47.49386" lon="6.74712">
        <ele>370.9</ele>
        <time>2017-02-05T08:45:42.000Z</time>
      </trkpt>
      <trkpt lat="47.49387" lon="6.74707">
        <ele>370.8</ele>
        <time>2017-02-05T08:45:43.000Z</time>
      </trkpt>
      <trkpt lat="47.49389" lon="6.74701">
        <ele>370.9</ele>
        <time>2017-02-05T08:45:44.000Z</time>
      </trkpt>
      <trkpt lat="47.49389" lon="6.74696">
        <ele>370.8</ele>
        <time>2017-02-05T08:45:45.000Z</time>
      </trkpt>
      <trkpt lat="47.49391" lon="6.7469">
        <ele>370.9</ele>
        <time>2017-02-05T08:45:46.000Z</time>
      </trkpt>
      <trkpt lat="47.49393" lon="6.74683">
        <ele>371</ele>
        <time>2017-02-05T08:45:47.000Z</time>
      </trkpt>
      <trkpt lat="47.49395" lon="6.74676">
        <ele>371</ele>
        <time>2017-02-05T08:45:48.000Z</time>
      </trkpt>
      <trkpt lat="47.49396" lon="6.7467">
        <ele>371.1</ele>
        <time>2017-02-05T08:45:49.000Z</time>
      </trkpt>
      <trkpt lat="47.49397" lon="6.74663">
        <ele>371.2</ele>
        <time>2017-02-05T08:45:50.000Z</time>
      </trkpt>
      <trkpt lat="47.49397" lon="6.74658">
        <ele>371.3</ele>
        <time>2017-02-05T08:45:51.000Z</time>
      </trkpt>
      <trkpt lat="47.49398" lon="6.74652">
        <ele>371.4</ele>
        <time>2017-02-05T08:45:52.000Z</time>
      </trkpt>
      <trkpt lat="47.49398" lon="6.74648">
        <ele>371.5</ele>
        <time>2017-02-05T08:45:53.000Z</time>
      </trkpt>
      <trkpt lat="47.49399" lon="6.74642">
        <ele>371.6</ele>
        <time>2017-02-05T08:45:54.000Z</time>
      </trkpt>
      <trkpt lat="47.494" lon="6.74637">
        <ele>371.6</ele>
        <time>2017-02-05T08:45:55.000Z</time>
      </trkpt>
      <trkpt lat="47.49401" lon="6.74634">
        <ele>371.6</ele>
        <time>2017-02-05T08:45:56.000Z</time>
      </trkpt>
      <trkpt lat="47.494" lon="6.7463">
        <ele>371.6</ele>
        <time>2017-02-05T08:45:57.000Z</time>
      </trkpt>
      <trkpt lat="47.49401" lon="6.74626">
        <ele>371.5</ele>
        <time>2017-02-05T08:45:58.000Z</time>
      </trkpt>
      <trkpt lat="47.49401" lon="6.74622">
        <ele>371.5</ele>
        <time>2017-02-05T08:45:59.000Z</time>
      </trkpt>
      <trkpt lat="47.49401" lon="6.74619">
        <ele>371.5</ele>
        <time>2017-02-05T08:46:00.000Z</time>
      </trkpt>
      <trkpt lat="47.49401" lon="6.74615">
        <ele>371.4</ele>
        <time>2017-02-05T08:46:01.000Z</time>
      </trkpt>
      <trkpt lat="47.49402" lon="6.74611">
        <ele>371.4</ele>
        <time>2017-02-05T08:46:02.000Z</time>
      </trkpt>
      <trkpt lat="47.49402" lon="6.74607">
        <ele>371.4</ele>
        <time>2017-02-05T08:46:03.000Z</time>
      </trkpt>
      <trkpt lat="47.49402" lon="6.74601">
        <ele>371.2</ele>
        <time>2017-02-05T08:46:04.000Z</time>
      </trkpt>
      <trkpt lat="47.49402" lon="6.74596">
        <ele>371.1</ele>
        <time>2017-02-05T08:46:05.000Z</time>
      </trkpt>
      <trkpt lat="47.49402" lon="6.74591">
        <ele>371.1</ele>
        <time>2017-02-05T08:46:06.000Z</time>
      </trkpt>
      <trkpt lat="47.49402" lon="6.74587">
        <ele>371</ele>
        <time>2017-02-05T08:46:07.000Z</time>
      </trkpt>
      <trkpt lat="47.49402" lon="6.74583">
        <ele>370.9</ele>
        <time>2017-02-05T08:46:08.000Z</time>
      </trkpt>
      <trkpt lat="47.49402" lon="6.74576">
        <ele>370.9</ele>
        <time>2017-02-05T08:46:09.000Z</time>
      </trkpt>
      <trkpt lat="47.49401" lon="6.7457">
        <ele>370.9</ele>
        <time>2017-02-05T08:46:10.000Z</time>
      </trkpt>
      <trkpt lat="47.494" lon="6.74565">
        <ele>371</ele>
        <time>2017-02-05T08:46:11.000Z</time>
      </trkpt>
      <trkpt lat="47.49401" lon="6.74562">
        <ele>371.1</ele>
        <time>2017-02-05T08:46:12.000Z</time>
      </trkpt>
      <trkpt lat="47.49403" lon="6.74556">
        <ele>371.2</ele>
        <time>2017-02-05T08:46:13.000Z</time>
      </trkpt>
      <trkpt lat="47.49403" lon="6.74552">
        <ele>371.3</ele>
        <time>2017-02-05T08:46:15.000Z</time>
      </trkpt>
      <trkpt lat="47.49404" lon="6.74548">
        <ele>371.3</ele>
        <time>2017-02-05T08:46:16.000Z</time>
      </trkpt>
      <trkpt lat="47.49405" lon="6.74542">
        <ele>371.4</ele>
        <time>2017-02-05T08:46:17.000Z</time>
      </trkpt>
      <trkpt lat="47.49405" lon="6.74536">
        <ele>371.5</ele>
        <time>2017-02-05T08:46:18.000Z</time>
      </trkpt>
      <trkpt lat="47.49405" lon="6.7453">
        <ele>371.6</ele>
        <time>2017-02-05T08:46:19.000Z</time>
      </trkpt>
      <trkpt lat="47.49404" lon="6.74523">
        <ele>371.6</ele>
        <time>2017-02-05T08:46:20.000Z</time>
      </trkpt>
      <trkpt lat="47.49403" lon="6.74514">
        <ele>371.6</ele>
        <time>2017-02-05T08:46:21.000Z</time>
      </trkpt>
      <trkpt lat="47.49402" lon="6.74508">
        <ele>371.6</ele>
        <time>2017-02-05T08:46:23.000Z</time>
      </trkpt>
      <trkpt lat="47.49403" lon="6.74506">
        <ele>371.6</ele>
        <time>2017-02-05T08:46:24.000Z</time>
      </trkpt>
      <trkpt lat="47.49404" lon="6.74504">
        <ele>371.6</ele>
        <time>2017-02-05T08:46:25.000Z</time>
      </trkpt>
      <trkpt lat="47.49403" lon="6.74499">
        <ele>371.7</ele>
        <time>2017-02-05T08:46:26.000Z</time>
      </trkpt>
      <trkpt lat="47.49405" lon="6.74493">
        <ele>371.9</ele>
        <time>2017-02-05T08:46:27.000Z</time>
      </trkpt>
      <trkpt lat="47.49407" lon="6.74489">
        <ele>372.2</ele>
        <time>2017-02-05T08:46:28.000Z</time>
      </trkpt>
      <trkpt lat="47.49406" lon="6.74482">
        <ele>372.5</ele>
        <time>2017-02-05T08:46:29.000Z</time>
      </trkpt>
      <trkpt lat="47.49406" lon="6.74479">
        <ele>372.8</ele>
        <time>2017-02-05T08:46:30.000Z</time>
      </trkpt>
      <trkpt lat="47.49405" lon="6.74474">
        <ele>373.2</ele>
        <time>2017-02-05T08:46:31.000Z</time>
      </trkpt>
      <trkpt lat="47.49405" lon="6.74469">
        <ele>373.5</ele>
        <time>2017-02-05T08:46:32.000Z</time>
      </trkpt>
      <trkpt lat="47.49405" lon="6.74464">
        <ele>373.8</ele>
        <time>2017-02-05T08:46:33.000Z</time>
      </trkpt>
      <trkpt lat="47.49404" lon="6.74449">
        <ele>374.1</ele>
        <time>2017-02-05T08:46:34.000Z</time>
      </trkpt>
      <trkpt lat="47.49405" lon="6.74439">
        <ele>374.4</ele>
        <time>2017-02-05T08:46:35.000Z</time>
      </trkpt>
      <trkpt lat="47.49406" lon="6.74434">
        <ele>374.7</ele>
        <time>2017-02-05T08:46:36.000Z</time>
      </trkpt>
      <trkpt lat="47.49405" lon="6.74431">
        <ele>375</ele>
        <time>2017-02-05T08:46:37.000Z</time>
      </trkpt>
      <trkpt lat="47.49405" lon="6.74428">
        <ele>375.3</ele>
        <time>2017-02-05T08:46:38.000Z</time>
      </trkpt>
      <trkpt lat="47.49403" lon="6.74425">
        <ele>375.6</ele>
        <time>2017-02-05T08:46:39.000Z</time>
      </trkpt>
      <trkpt lat="47.494" lon="6.7442">
        <ele>376.5</ele>
        <time>2017-02-05T08:46:42.000Z</time>
      </trkpt>
      <trkpt lat="47.494" lon="6.74418">
        <ele>376.7</ele>
        <time>2017-02-05T08:46:43.000Z</time>
      </trkpt>
      <trkpt lat="47.49402" lon="6.74413">
        <ele>377.2</ele>
        <time>2017-02-05T08:46:46.000Z</time>
      </trkpt>
      <trkpt lat="47.49405" lon="6.74406">
        <ele>377.1</ele>
        <time>2017-02-05T08:46:47.000Z</time>
      </trkpt>
      <trkpt lat="47.49404" lon="6.74401">
        <ele>377.2</ele>
        <time>2017-02-05T08:46:48.000Z</time>
      </trkpt>
      <trkpt lat="47.49403" lon="6.74398">
        <ele>377.3</ele>
        <time>2017-02-05T08:46:49.000Z</time>
      </trkpt>
      <trkpt lat="47.49403" lon="6.74393">
        <ele>377.3</ele>
        <time>2017-02-05T08:46:50.000Z</time>
      </trkpt>
      <trkpt lat="47.49402" lon="6.7439">
        <ele>377.3</ele>
        <time>2017-02-05T08:46:51.000Z</time>
      </trkpt>
      <trkpt lat="47.49403" lon="6.74387">
        <ele>377.4</ele>
        <time>2017-02-05T08:46:52.000Z</time>
      </trkpt>
      <trkpt lat="47.49402" lon="6.74382">
        <ele>377.5</ele>
        <time>2017-02-05T08:46:53.000Z</time>
      </trkpt>
      <trkpt lat="47.49402" lon="6.74377">
        <ele>377.5</ele>
        <time>2017-02-05T08:46:54.000Z</time>
      </trkpt>
      <trkpt lat="47.49402" lon="6.74374">
        <ele>377.6</ele>
        <time>2017-02-05T08:46:55.000Z</time>
      </trkpt>
      <trkpt lat="47.49402" lon="6.74369">
        <ele>377.6</ele>
        <time>2017-02-05T08:46:56.000Z</time>
      </trkpt>
      <trkpt lat="47.49402" lon="6.74364">
        <ele>377.6</ele>
        <time>2017-02-05T08:46:57.000Z</time>
      </trkpt>
      <trkpt lat="47.49402" lon="6.74358">
        <ele>377.6</ele>
        <time>2017-02-05T08:46:58.000Z</time>
      </trkpt>
      <trkpt lat="47.49402" lon="6.74354">
        <ele>377.5</ele>
        <time>2017-02-05T08:46:59.000Z</time>
      </trkpt>
      <trkpt lat="47.49403" lon="6.74349">
        <ele>377.6</ele>
        <time>2017-02-05T08:47:03.000Z</time>
      </trkpt>
      <trkpt lat="47.49404" lon="6.74344">
        <ele>377.8</ele>
        <time>2017-02-05T08:47:04.000Z</time>
      </trkpt>
      <trkpt lat="47.49405" lon="6.74338">
        <ele>378.2</ele>
        <time>2017-02-05T08:47:06.000Z</time>
      </trkpt>
      <trkpt lat="47.49405" lon="6.74336">
        <ele>378.4</ele>
        <time>2017-02-05T08:47:07.000Z</time>
      </trkpt>
      <trkpt lat="47.49405" lon="6.74336">
        <ele>378.6</ele>
        <time>2017-02-05T08:47:08.000Z</time>
      </trkpt>
      <trkpt lat="47.49403" lon="6.7433">
        <ele>378.7</ele>
        <time>2017-02-05T08:47:09.000Z</time>
      </trkpt>
      <trkpt lat="47.49402" lon="6.74321">
        <ele>378.9</ele>
        <time>2017-02-05T08:47:10.000Z</time>
      </trkpt>
      <trkpt lat="47.49403" lon="6.74316">
        <ele>379</ele>
        <time>2017-02-05T08:47:11.000Z</time>
      </trkpt>
      <trkpt lat="47.49403" lon="6.74308">
        <ele>379.1</ele>
        <time>2017-02-05T08:47:12.000Z</time>
      </trkpt>
      <trkpt lat="47.49403" lon="6.74299">
        <ele>379.3</ele>
        <time>2017-02-05T08:47:13.000Z</time>
      </trkpt>
      <trkpt lat="47.49405" lon="6.74288">
        <ele>379.4</ele>
        <time>2017-02-05T08:47:14.000Z</time>
      </trkpt>
      <trkpt lat="47.49407" lon="6.74282">
        <ele>379.5</ele>
        <time>2017-02-05T08:47:15.000Z</time>
      </trkpt>
      <trkpt lat="47.49408" lon="6.74273">
        <ele>379.6</ele>
        <time>2017-02-05T08:47:16.000Z</time>
      </trkpt>
      <trkpt lat="47.49409" lon="6.74263">
        <ele>379.8</ele>
        <time>2017-02-05T08:47:17.000Z</time>
      </trkpt>
      <trkpt lat="47.49409" lon="6.74247">
        <ele>379.8</ele>
        <time>2017-02-05T08:47:18.000Z</time>
      </trkpt>
      <trkpt lat="47.49411" lon="6.74238">
        <ele>380</ele>
        <time>2017-02-05T08:47:19.000Z</time>
      </trkpt>
      <trkpt lat="47.49413" lon="6.74231">
        <ele>380.1</ele>
        <time>2017-02-05T08:47:20.000Z</time>
      </trkpt>
      <trkpt lat="47.49416" lon="6.74228">
        <ele>380.3</ele>
        <time>2017-02-05T08:47:21.000Z</time>
      </trkpt>
      <trkpt lat="47.49419" lon="6.74227">
        <ele>380.4</ele>
        <time>2017-02-05T08:47:22.000Z</time>
      </trkpt>
      <trkpt lat="47.49421" lon="6.74224">
        <ele>380.5</ele>
        <time>2017-02-05T08:47:23.000Z</time>
      </trkpt>
      <trkpt lat="47.49423" lon="6.74219">
        <ele>380.6</ele>
        <time>2017-02-05T08:47:24.000Z</time>
      </trkpt>
      <trkpt lat="47.49425" lon="6.74214">
        <ele>380.7</ele>
        <time>2017-02-05T08:47:25.000Z</time>
      </trkpt>
      <trkpt lat="47.49426" lon="6.74209">
        <ele>380.7</ele>
        <time>2017-02-05T08:47:26.000Z</time>
      </trkpt>
      <trkpt lat="47.49428" lon="6.74205">
        <ele>380.8</ele>
        <time>2017-02-05T08:47:27.000Z</time>
      </trkpt>
      <trkpt lat="47.4943" lon="6.74202">
        <ele>380.9</ele>
        <time>2017-02-05T08:47:28.000Z</time>
      </trkpt>
      <trkpt lat="47.4943" lon="6.74197">
        <ele>380.9</ele>
        <time>2017-02-05T08:47:29.000Z</time>
      </trkpt>
      <trkpt lat="47.4943" lon="6.74192">
        <ele>381</ele>
        <time>2017-02-05T08:47:30.000Z</time>
      </trkpt>
      <trkpt lat="47.4943" lon="6.74186">
        <ele>380.9</ele>
        <time>2017-02-05T08:47:31.000Z</time>
      </trkpt>
      <trkpt lat="47.4943" lon="6.74182">
        <ele>380.9</ele>
        <time>2017-02-05T08:47:32.000Z</time>
      </trkpt>
      <trkpt lat="47.49429" lon="6.74178">
        <ele>381</ele>
        <time>2017-02-05T08:47:33.000Z</time>
      </trkpt>
      <trkpt lat="47.4943" lon="6.74173">
        <ele>381</ele>
        <time>2017-02-05T08:47:34.000Z</time>
      </trkpt>
      <trkpt lat="47.4943" lon="6.74167">
        <ele>381.1</ele>
        <time>2017-02-05T08:47:36.000Z</time>
      </trkpt>
      <trkpt lat="47.4943" lon="6.74165">
        <ele>381.1</ele>
        <time>2017-02-05T08:47:37.000Z</time>
      </trkpt>
      <trkpt lat="47.49429" lon="6.7416">
        <ele>381.1</ele>
        <time>2017-02-05T08:47:39.000Z</time>
      </trkpt>
      <trkpt lat="47.49429" lon="6.74157">
        <ele>381.1</ele>
        <time>2017-02-05T08:47:40.000Z</time>
      </trkpt>
      <trkpt lat="47.49428" lon="6.74152">
        <ele>381.1</ele>
        <time>2017-02-05T08:47:42.000Z</time>
      </trkpt>
      <trkpt lat="47.49429" lon="6.7415">
        <ele>381.1</ele>
        <time>2017-02-05T08:47:43.000Z</time>
      </trkpt>
      <trkpt lat="47.49428" lon="6.74146">
        <ele>381.1</ele>
        <time>2017-02-05T08:47:45.000Z</time>
      </trkpt>
      <trkpt lat="47.49427" lon="6.74142">
        <ele>380.9</ele>
        <time>2017-02-05T08:47:46.000Z</time>
      </trkpt>
      <trkpt lat="47.49427" lon="6.74137">
        <ele>380.9</ele>
        <time>2017-02-05T08:47:48.000Z</time>
      </trkpt>
      <trkpt lat="47.49427" lon="6.74133">
        <ele>381</ele>
        <time>2017-02-05T08:47:49.000Z</time>
      </trkpt>
      <trkpt lat="47.49425" lon="6.74127">
        <ele>380.9</ele>
        <time>2017-02-05T08:47:50.000Z</time>
      </trkpt>
      <trkpt lat="47.49425" lon="6.74124">
        <ele>380.9</ele>
        <time>2017-02-05T08:47:51.000Z</time>
      </trkpt>
      <trkpt lat="47.49423" lon="6.7412">
        <ele>380.9</ele>
        <time>2017-02-05T08:47:52.000Z</time>
      </trkpt>
      <trkpt lat="47.49422" lon="6.74117">
        <ele>380.9</ele>
        <time>2017-02-05T08:47:53.000Z</time>
      </trkpt>
      <trkpt lat="47.49422" lon="6.74113">
        <ele>381</ele>
        <time>2017-02-05T08:47:54.000Z</time>
      </trkpt>
      <trkpt lat="47.49422" lon="6.74108">
        <ele>381.1</ele>
        <time>2017-02-05T08:47:55.000Z</time>
      </trkpt>
      <trkpt lat="47.49421" lon="6.74102">
        <ele>381.7</ele>
        <time>2017-02-05T08:47:58.000Z</time>
      </trkpt>
      <trkpt lat="47.49421" lon="6.74098">
        <ele>381.9</ele>
        <time>2017-02-05T08:47:59.000Z</time>
      </trkpt>
      <trkpt lat="47.49421" lon="6.74093">
        <ele>382.1</ele>
        <time>2017-02-05T08:48:00.000Z</time>
      </trkpt>
      <trkpt lat="47.4942" lon="6.74087">
        <ele>382.3</ele>
        <time>2017-02-05T08:48:01.000Z</time>
      </trkpt>
      <trkpt lat="47.49419" lon="6.74083">
        <ele>382.5</ele>
        <time>2017-02-05T08:48:02.000Z</time>
      </trkpt>
      <trkpt lat="47.49419" lon="6.7408">
        <ele>382.8</ele>
        <time>2017-02-05T08:48:03.000Z</time>
      </trkpt>
      <trkpt lat="47.49418" lon="6.74075">
        <ele>383.3</ele>
        <time>2017-02-05T08:48:06.000Z</time>
      </trkpt>
      <trkpt lat="47.49416" lon="6.74072">
        <ele>383.5</ele>
        <time>2017-02-05T08:48:07.000Z</time>
      </trkpt>
      <trkpt lat="47.49413" lon="6.74069">
        <ele>383.5</ele>
        <time>2017-02-05T08:48:08.000Z</time>
      </trkpt>
      <trkpt lat="47.49412" lon="6.74067">
        <ele>383.4</ele>
        <time>2017-02-05T08:48:09.000Z</time>
      </trkpt>
      <trkpt lat="47.4941" lon="6.7406">
        <ele>383.9</ele>
        <time>2017-02-05T08:48:32.000Z</time>
      </trkpt>
      <trkpt lat="47.4941" lon="6.74058">
        <ele>383.7</ele>
        <time>2017-02-05T08:48:33.000Z</time>
      </trkpt>
      <trkpt lat="47.4941" lon="6.74054">
        <ele>383.3</ele>
        <time>2017-02-05T08:48:35.000Z</time>
      </trkpt>
      <trkpt lat="47.49411" lon="6.74051">
        <ele>383.2</ele>
        <time>2017-02-05T08:48:36.000Z</time>
      </trkpt>
      <trkpt lat="47.49412" lon="6.74046">
        <ele>382.8</ele>
        <time>2017-02-05T08:48:38.000Z</time>
      </trkpt>
      <trkpt lat="47.49413" lon="6.74043">
        <ele>382.6</ele>
        <time>2017-02-05T08:48:39.000Z</time>
      </trkpt>
      <trkpt lat="47.49414" lon="6.7404">
        <ele>382.3</ele>
        <time>2017-02-05T08:48:40.000Z</time>
      </trkpt>
      <trkpt lat="47.49415" lon="6.74034">
        <ele>382</ele>
        <time>2017-02-05T08:48:41.000Z</time>
      </trkpt>
      <trkpt lat="47.49416" lon="6.74029">
        <ele>381.7</ele>
        <time>2017-02-05T08:48:42.000Z</time>
      </trkpt>
      <trkpt lat="47.49417" lon="6.74022">
        <ele>381.5</ele>
        <time>2017-02-05T08:48:43.000Z</time>
      </trkpt>
      <trkpt lat="47.49416" lon="6.74015">
        <ele>381.2</ele>
        <time>2017-02-05T08:48:44.000Z</time>
      </trkpt>
      <trkpt lat="47.49417" lon="6.74008">
        <ele>380.9</ele>
        <time>2017-02-05T08:48:45.000Z</time>
      </trkpt>
      <trkpt lat="47.49416" lon="6.74">
        <ele>380.5</ele>
        <time>2017-02-05T08:48:46.000Z</time>
      </trkpt>
      <trkpt lat="47.49415" lon="6.73994">
        <ele>380</ele>
        <time>2017-02-05T08:48:47.000Z</time>
      </trkpt>
      <trkpt lat="47.49415" lon="6.73987">
        <ele>379.7</ele>
        <time>2017-02-05T08:48:48.000Z</time>
      </trkpt>
      <trkpt lat="47.49414" lon="6.7398">
        <ele>379.3</ele>
        <time>2017-02-05T08:48:49.000Z</time>
      </trkpt>
      <trkpt lat="47.49414" lon="6.73974">
        <ele>378.9</ele>
        <time>2017-02-05T08:48:50.000Z</time>
      </trkpt>
      <trkpt lat="47.49415" lon="6.73967">
        <ele>378.5</ele>
        <time>2017-02-05T08:48:51.000Z</time>
      </trkpt>
      <trkpt lat="47.49414" lon="6.73961">
        <ele>377.7</ele>
        <time>2017-02-05T08:48:53.000Z</time>
      </trkpt>
      <trkpt lat="47.49414" lon="6.73959">
        <ele>377.4</ele>
        <time>2017-02-05T08:48:54.000Z</time>
      </trkpt>
      <trkpt lat="47.49413" lon="6.73955">
        <ele>377.1</ele>
        <time>2017-02-05T08:48:55.000Z</time>
      </trkpt>
      <trkpt lat="47.49413" lon="6.73951">
        <ele>376.8</ele>
        <time>2017-02-05T08:48:56.000Z</time>
      </trkpt>
      <trkpt lat="47.49413" lon="6.73947">
        <ele>376.5</ele>
        <time>2017-02-05T08:48:57.000Z</time>
      </trkpt>
      <trkpt lat="47.49413" lon="6.73939">
        <ele>376.3</ele>
        <time>2017-02-05T08:48:58.000Z</time>
      </trkpt>
      <trkpt lat="47.49413" lon="6.73929">
        <ele>376.2</ele>
        <time>2017-02-05T08:48:59.000Z</time>
      </trkpt>
      <trkpt lat="47.49411" lon="6.73921">
        <ele>375.9</ele>
        <time>2017-02-05T08:49:00.000Z</time>
      </trkpt>
      <trkpt lat="47.49411" lon="6.73914">
        <ele>375.6</ele>
        <time>2017-02-05T08:49:01.000Z</time>
      </trkpt>
      <trkpt lat="47.4941" lon="6.73908">
        <ele>375.3</ele>
        <time>2017-02-05T08:49:02.000Z</time>
      </trkpt>
      <trkpt lat="47.49408" lon="6.73898">
        <ele>374.9</ele>
        <time>2017-02-05T08:49:03.000Z</time>
      </trkpt>
      <trkpt lat="47.49407" lon="6.73892">
        <ele>374.5</ele>
        <time>2017-02-05T08:49:04.000Z</time>
      </trkpt>
      <trkpt lat="47.49406" lon="6.73885">
        <ele>374.1</ele>
        <time>2017-02-05T08:49:05.000Z</time>
      </trkpt>
      <trkpt lat="47.49405" lon="6.73876">
        <ele>373.7</ele>
        <time>2017-02-05T08:49:06.000Z</time>
      </trkpt>
      <trkpt lat="47.49405" lon="6.73868">
        <ele>373.2</ele>
        <time>2017-02-05T08:49:07.000Z</time>
      </trkpt>
      <trkpt lat="47.49405" lon="6.73861">
        <ele>372.8</ele>
        <time>2017-02-05T08:49:08.000Z</time>
      </trkpt>
      <trkpt lat="47.49404" lon="6.73854">
        <ele>372.3</ele>
        <time>2017-02-05T08:49:09.000Z</time>
      </trkpt>
      <trkpt lat="47.49403" lon="6.73846">
        <ele>371.8</ele>
        <time>2017-02-05T08:49:10.000Z</time>
      </trkpt>
      <trkpt lat="47.49403" lon="6.73839">
        <ele>371.4</ele>
        <time>2017-02-05T08:49:11.000Z</time>
      </trkpt>
      <trkpt lat="47.49403" lon="6.73833">
        <ele>370.9</ele>
        <time>2017-02-05T08:49:12.000Z</time>
      </trkpt>
      <trkpt lat="47.49403" lon="6.73825">
        <ele>370.4</ele>
        <time>2017-02-05T08:49:13.000Z</time>
      </trkpt>
      <trkpt lat="47.49404" lon="6.73819">
        <ele>369.9</ele>
        <time>2017-02-05T08:49:14.000Z</time>
      </trkpt>
      <trkpt lat="47.49405" lon="6.73813">
        <ele>369.3</ele>
        <time>2017-02-05T08:49:15.000Z</time>
      </trkpt>
      <trkpt lat="47.49406" lon="6.73807">
        <ele>368.7</ele>
        <time>2017-02-05T08:49:16.000Z</time>
      </trkpt>
      <trkpt lat="47.49408" lon="6.73802">
        <ele>368.1</ele>
        <time>2017-02-05T08:49:17.000Z</time>
      </trkpt>
      <trkpt lat="47.49411" lon="6.73796">
        <ele>367.6</ele>
        <time>2017-02-05T08:49:18.000Z</time>
      </trkpt>
      <trkpt lat="47.49414" lon="6.7379">
        <ele>367.1</ele>
        <time>2017-02-05T08:49:19.000Z</time>
      </trkpt>
      <trkpt lat="47.49417" lon="6.73782">
        <ele>361.5</ele>
        <time>2017-02-05T08:49:20.000Z</time>
      </trkpt>
      <trkpt lat="47.4942" lon="6.73775">
        <ele>357.6</ele>
        <time>2017-02-05T08:49:21.000Z</time>
      </trkpt>
      <trkpt lat="47.49422" lon="6.73768">
        <ele>357.3</ele>
        <time>2017-02-05T08:49:22.000Z</time>
      </trkpt>
      <trkpt lat="47.49425" lon="6.73762">
        <ele>354.2</ele>
        <time>2017-02-05T08:49:23.000Z</time>
      </trkpt>
      <trkpt lat="47.49429" lon="6.73756">
        <ele>350.5</ele>
        <time>2017-02-05T08:49:24.000Z</time>
      </trkpt>
      <trkpt lat="47.49431" lon="6.73749">
        <ele>347.1</ele>
        <time>2017-02-05T08:49:25.000Z</time>
      </trkpt>
      <trkpt lat="47.49436" lon="6.7374">
        <ele>348</ele>
        <time>2017-02-05T08:49:26.000Z</time>
      </trkpt>
      <trkpt lat="47.4944" lon="6.73729">
        <ele>350.4</ele>
        <time>2017-02-05T08:49:27.000Z</time>
      </trkpt>
      <trkpt lat="47.49443" lon="6.73719">
        <ele>351.9</ele>
        <time>2017-02-05T08:49:28.000Z</time>
      </trkpt>
      <trkpt lat="47.49447" lon="6.73711">
        <ele>353</ele>
        <time>2017-02-05T08:49:29.000Z</time>
      </trkpt>
      <trkpt lat="47.49451" lon="6.73703">
        <ele>354</ele>
        <time>2017-02-05T08:49:30.000Z</time>
      </trkpt>
      <trkpt lat="47.49455" lon="6.73696">
        <ele>354.2</ele>
        <time>2017-02-05T08:49:31.000Z</time>
      </trkpt>
      <trkpt lat="47.49459" lon="6.73688">
        <ele>355</ele>
        <time>2017-02-05T08:49:32.000Z</time>
      </trkpt>
      <trkpt lat="47.49462" lon="6.7368">
        <ele>355.9</ele>
        <time>2017-02-05T08:49:33.000Z</time>
      </trkpt>
      <trkpt lat="47.49467" lon="6.73673">
        <ele>357.9</ele>
        <time>2017-02-05T08:49:34.000Z</time>
      </trkpt>
      <trkpt lat="47.49471" lon="6.73665">
        <ele>360.6</ele>
        <time>2017-02-05T08:49:35.000Z</time>
      </trkpt>
      <trkpt lat="47.49475" lon="6.73658">
        <ele>363.1</ele>
        <time>2017-02-05T08:49:36.000Z</time>
      </trkpt>
      <trkpt lat="47.4948" lon="6.73651">
        <ele>365.6</ele>
        <time>2017-02-05T08:49:37.000Z</time>
      </trkpt>
      <trkpt lat="47.49484" lon="6.73644">
        <ele>367.9</ele>
        <time>2017-02-05T08:49:38.000Z</time>
      </trkpt>
      <trkpt lat="47.49489" lon="6.73637">
        <ele>369.7</ele>
        <time>2017-02-05T08:49:39.000Z</time>
      </trkpt>
      <trkpt lat="47.49493" lon="6.73631">
        <ele>371.1</ele>
        <time>2017-02-05T08:49:40.000Z</time>
      </trkpt>
      <trkpt lat="47.49498" lon="6.73625">
        <ele>372.2</ele>
        <time>2017-02-05T08:49:41.000Z</time>
      </trkpt>
      <trkpt lat="47.49503" lon="6.7362">
        <ele>373.4</ele>
        <time>2017-02-05T08:49:42.000Z</time>
      </trkpt>
      <trkpt lat="47.49508" lon="6.73615">
        <ele>373.8</ele>
        <time>2017-02-05T08:49:43.000Z</time>
      </trkpt>
      <trkpt lat="47.49512" lon="6.73609">
        <ele>374.5</ele>
        <time>2017-02-05T08:49:44.000Z</time>
      </trkpt>
      <trkpt lat="47.49517" lon="6.73604">
        <ele>375.3</ele>
        <time>2017-02-05T08:49:45.000Z</time>
      </trkpt>
      <trkpt lat="47.49521" lon="6.73598">
        <ele>375.9</ele>
        <time>2017-02-05T08:49:46.000Z</time>
      </trkpt>
      <trkpt lat="47.49526" lon="6.73594">
        <ele>377.1</ele>
        <time>2017-02-05T08:49:47.000Z</time>
      </trkpt>
      <trkpt lat="47.4953" lon="6.73589">
        <ele>377.9</ele>
        <time>2017-02-05T08:49:48.000Z</time>
      </trkpt>
      <trkpt lat="47.49535" lon="6.73586">
        <ele>377.6</ele>
        <time>2017-02-05T08:49:49.000Z</time>
      </trkpt>
      <trkpt lat="47.49539" lon="6.73582">
        <ele>377.5</ele>
        <time>2017-02-05T08:49:50.000Z</time>
      </trkpt>
      <trkpt lat="47.49542" lon="6.73578">
        <ele>377</ele>
        <time>2017-02-05T08:49:51.000Z</time>
      </trkpt>
      <trkpt lat="47.49546" lon="6.73574">
        <ele>377.2</ele>
        <time>2017-02-05T08:49:52.000Z</time>
      </trkpt>
      <trkpt lat="47.4955" lon="6.73571">
        <ele>377.2</ele>
        <time>2017-02-05T08:49:53.000Z</time>
      </trkpt>
      <trkpt lat="47.49555" lon="6.73567">
        <ele>376.8</ele>
        <time>2017-02-05T08:49:54.000Z</time>
      </trkpt>
      <trkpt lat="47.49559" lon="6.73563">
        <ele>376.2</ele>
        <time>2017-02-05T08:49:55.000Z</time>
      </trkpt>
      <trkpt lat="47.49563" lon="6.73559">
        <ele>376</ele>
        <time>2017-02-05T08:49:56.000Z</time>
      </trkpt>
      <trkpt lat="47.49567" lon="6.73555">
        <ele>376.3</ele>
        <time>2017-02-05T08:49:57.000Z</time>
      </trkpt>
      <trkpt lat="47.49571" lon="6.73551">
        <ele>376.8</ele>
        <time>2017-02-05T08:49:58.000Z</time>
      </trkpt>
      <trkpt lat="47.49576" lon="6.73547">
        <ele>377.1</ele>
        <time>2017-02-05T08:49:59.000Z</time>
      </trkpt>
      <trkpt lat="47.4958" lon="6.73544">
        <ele>377.6</ele>
        <time>2017-02-05T08:50:00.000Z</time>
      </trkpt>
      <trkpt lat="47.49584" lon="6.73541">
        <ele>377.4</ele>
        <time>2017-02-05T08:50:01.000Z</time>
      </trkpt>
      <trkpt lat="47.49588" lon="6.73537">
        <ele>376.6</ele>
        <time>2017-02-05T08:50:02.000Z</time>
      </trkpt>
      <trkpt lat="47.49592" lon="6.73533">
        <ele>376.9</ele>
        <time>2017-02-05T08:50:03.000Z</time>
      </trkpt>
      <trkpt lat="47.49596" lon="6.7353">
        <ele>377.3</ele>
        <time>2017-02-05T08:50:04.000Z</time>
      </trkpt>
      <trkpt lat="47.496" lon="6.73526">
        <ele>377.8</ele>
        <time>2017-02-05T08:50:05.000Z</time>
      </trkpt>
      <trkpt lat="47.49604" lon="6.73522">
        <ele>378.5</ele>
        <time>2017-02-05T08:50:06.000Z</time>
      </trkpt>
      <trkpt lat="47.49608" lon="6.73518">
        <ele>379.1</ele>
        <time>2017-02-05T08:50:07.000Z</time>
      </trkpt>
      <trkpt lat="47.49612" lon="6.73514">
        <ele>379.6</ele>
        <time>2017-02-05T08:50:08.000Z</time>
      </trkpt>
      <trkpt lat="47.49617" lon="6.7351">
        <ele>379.6</ele>
        <time>2017-02-05T08:50:09.000Z</time>
      </trkpt>
      <trkpt lat="47.49621" lon="6.73506">
        <ele>379.2</ele>
        <time>2017-02-05T08:50:10.000Z</time>
      </trkpt>
      <trkpt lat="47.49625" lon="6.73501">
        <ele>379</ele>
        <time>2017-02-05T08:50:11.000Z</time>
      </trkpt>
      <trkpt lat="47.49629" lon="6.73496">
        <ele>378.4</ele>
        <time>2017-02-05T08:50:12.000Z</time>
      </trkpt>
      <trkpt lat="47.49632" lon="6.73492">
        <ele>377.6</ele>
        <time>2017-02-05T08:50:13.000Z</time>
      </trkpt>
      <trkpt lat="47.49636" lon="6.73487">
        <ele>377.3</ele>
        <time>2017-02-05T08:50:14.000Z</time>
      </trkpt>
      <trkpt lat="47.49639" lon="6.73482">
        <ele>377.5</ele>
        <time>2017-02-05T08:50:15.000Z</time>
      </trkpt>
      <trkpt lat="47.49643" lon="6.73477">
        <ele>377.1</ele>
        <time>2017-02-05T08:50:16.000Z</time>
      </trkpt>
      <trkpt lat="47.49646" lon="6.73473">
        <ele>376.9</ele>
        <time>2017-02-05T08:50:17.000Z</time>
      </trkpt>
      <trkpt lat="47.49649" lon="6.73468">
        <ele>377.5</ele>
        <time>2017-02-05T08:50:18.000Z</time>
      </trkpt>
      <trkpt lat="47.49652" lon="6.73463">
        <ele>378</ele>
        <time>2017-02-05T08:50:19.000Z</time>
      </trkpt>
      <trkpt lat="47.49655" lon="6.73458">
        <ele>378.1</ele>
        <time>2017-02-05T08:50:20.000Z</time>
      </trkpt>
      <trkpt lat="47.49659" lon="6.73453">
        <ele>378.7</ele>
        <time>2017-02-05T08:50:21.000Z</time>
      </trkpt>
      <trkpt lat="47.49663" lon="6.73449">
        <ele>378.4</ele>
        <time>2017-02-05T08:50:22.000Z</time>
      </trkpt>
      <trkpt lat="47.49666" lon="6.73445">
        <ele>377.9</ele>
        <time>2017-02-05T08:50:23.000Z</time>
      </trkpt>
      <trkpt lat="47.4967" lon="6.7344">
        <ele>377.6</ele>
        <time>2017-02-05T08:50:24.000Z</time>
      </trkpt>
      <trkpt lat="47.49674" lon="6.73435">
        <ele>378</ele>
        <time>2017-02-05T08:50:25.000Z</time>
      </trkpt>
      <trkpt lat="47.49677" lon="6.7343">
        <ele>378.5</ele>
        <time>2017-02-05T08:50:26.000Z</time>
      </trkpt>
      <trkpt lat="47.4968" lon="6.73426">
        <ele>379</ele>
        <time>2017-02-05T08:50:27.000Z</time>
      </trkpt>
      <trkpt lat="47.49684" lon="6.73421">
        <ele>379.4</ele>
        <time>2017-02-05T08:50:28.000Z</time>
      </trkpt>
      <trkpt lat="47.49687" lon="6.73416">
        <ele>379.9</ele>
        <time>2017-02-05T08:50:29.000Z</time>
      </trkpt>
      <trkpt lat="47.49691" lon="6.73411">
        <ele>380.9</ele>
        <time>2017-02-05T08:50:30.000Z</time>
      </trkpt>
      <trkpt lat="47.49695" lon="6.73405">
        <ele>381.7</ele>
        <time>2017-02-05T08:50:31.000Z</time>
      </trkpt>
      <trkpt lat="47.49698" lon="6.734">
        <ele>382.1</ele>
        <time>2017-02-05T08:50:32.000Z</time>
      </trkpt>
      <trkpt lat="47.497" lon="6.73394">
        <ele>381.8</ele>
        <time>2017-02-05T08:50:33.000Z</time>
      </trkpt>
      <trkpt lat="47.49703" lon="6.73389">
        <ele>381</ele>
        <time>2017-02-05T08:50:34.000Z</time>
      </trkpt>
      <trkpt lat="47.49706" lon="6.73384">
        <ele>381.1</ele>
        <time>2017-02-05T08:50:35.000Z</time>
      </trkpt>
      <trkpt lat="47.4971" lon="6.73378">
        <ele>381.1</ele>
        <time>2017-02-05T08:50:36.000Z</time>
      </trkpt>
      <trkpt lat="47.49713" lon="6.73373">
        <ele>381.9</ele>
        <time>2017-02-05T08:50:37.000Z</time>
      </trkpt>
      <trkpt lat="47.49717" lon="6.73368">
        <ele>383.1</ele>
        <time>2017-02-05T08:50:38.000Z</time>
      </trkpt>
      <trkpt lat="47.4972" lon="6.73363">
        <ele>384.2</ele>
        <time>2017-02-05T08:50:39.000Z</time>
      </trkpt>
      <trkpt lat="47.49724" lon="6.73358">
        <ele>385.5</ele>
        <time>2017-02-05T08:50:40.000Z</time>
      </trkpt>
      <trkpt lat="47.49728" lon="6.73353">
        <ele>386.9</ele>
        <time>2017-02-05T08:50:41.000Z</time>
      </trkpt>
      <trkpt lat="47.49731" lon="6.73348">
        <ele>387.6</ele>
        <time>2017-02-05T08:50:42.000Z</time>
      </trkpt>
      <trkpt lat="47.49735" lon="6.73343">
        <ele>388.1</ele>
        <time>2017-02-05T08:50:43.000Z</time>
      </trkpt>
      <trkpt lat="47.49738" lon="6.73338">
        <ele>388.6</ele>
        <time>2017-02-05T08:50:44.000Z</time>
      </trkpt>
      <trkpt lat="47.49741" lon="6.73332">
        <ele>388.8</ele>
        <time>2017-02-05T08:50:45.000Z</time>
      </trkpt>
      <trkpt lat="47.49744" lon="6.73327">
        <ele>388.5</ele>
        <time>2017-02-05T08:50:46.000Z</time>
      </trkpt>
      <trkpt lat="47.49747" lon="6.73322">
        <ele>388</ele>
        <time>2017-02-05T08:50:47.000Z</time>
      </trkpt>
      <trkpt lat="47.4975" lon="6.73317">
        <ele>387.3</ele>
        <time>2017-02-05T08:50:48.000Z</time>
      </trkpt>
      <trkpt lat="47.49753" lon="6.73312">
        <ele>386.8</ele>
        <time>2017-02-05T08:50:49.000Z</time>
      </trkpt>
      <trkpt lat="47.49757" lon="6.73306">
        <ele>386.3</ele>
        <time>2017-02-05T08:50:50.000Z</time>
      </trkpt>
      <trkpt lat="47.49759" lon="6.73302">
        <ele>386</ele>
        <time>2017-02-05T08:50:51.000Z</time>
      </trkpt>
      <trkpt lat="47.49762" lon="6.73297">
        <ele>385.7</ele>
        <time>2017-02-05T08:50:52.000Z</time>
      </trkpt>
      <trkpt lat="47.49766" lon="6.73291">
        <ele>385.8</ele>
        <time>2017-02-05T08:50:53.000Z</time>
      </trkpt>
      <trkpt lat="47.49769" lon="6.73286">
        <ele>386.1</ele>
        <time>2017-02-05T08:50:54.000Z</time>
      </trkpt>
      <trkpt lat="47.49772" lon="6.7328">
        <ele>386.4</ele>
        <time>2017-02-05T08:50:55.000Z</time>
      </trkpt>
      <trkpt lat="47.49775" lon="6.73275">
        <ele>386.4</ele>
        <time>2017-02-05T08:50:56.000Z</time>
      </trkpt>
      <trkpt lat="47.49778" lon="6.7327">
        <ele>386.7</ele>
        <time>2017-02-05T08:50:57.000Z</time>
      </trkpt>
      <trkpt lat="47.4978" lon="6.73264">
        <ele>386.7</ele>
        <time>2017-02-05T08:50:58.000Z</time>
      </trkpt>
      <trkpt lat="47.49783" lon="6.73259">
        <ele>386.8</ele>
        <time>2017-02-05T08:50:59.000Z</time>
      </trkpt>
      <trkpt lat="47.49786" lon="6.73253">
        <ele>387</ele>
        <time>2017-02-05T08:51:00.000Z</time>
      </trkpt>
      <trkpt lat="47.49788" lon="6.73248">
        <ele>387.3</ele>
        <time>2017-02-05T08:51:01.000Z</time>
      </trkpt>
      <trkpt lat="47.49791" lon="6.73242">
        <ele>387</ele>
        <time>2017-02-05T08:51:02.000Z</time>
      </trkpt>
      <trkpt lat="47.49793" lon="6.73236">
        <ele>387.1</ele>
        <time>2017-02-05T08:51:03.000Z</time>
      </trkpt>
      <trkpt lat="47.49795" lon="6.73231">
        <ele>387.2</ele>
        <time>2017-02-05T08:51:04.000Z</time>
      </trkpt>
      <trkpt lat="47.49798" lon="6.73225">
        <ele>387</ele>
        <time>2017-02-05T08:51:05.000Z</time>
      </trkpt>
      <trkpt lat="47.498" lon="6.7322">
        <ele>387</ele>
        <time>2017-02-05T08:51:06.000Z</time>
      </trkpt>
      <trkpt lat="47.49802" lon="6.73214">
        <ele>387.3</ele>
        <time>2017-02-05T08:51:07.000Z</time>
      </trkpt>
      <trkpt lat="47.49804" lon="6.73208">
        <ele>387.2</ele>
        <time>2017-02-05T08:51:08.000Z</time>
      </trkpt>
      <trkpt lat="47.49806" lon="6.73202">
        <ele>386.8</ele>
        <time>2017-02-05T08:51:09.000Z</time>
      </trkpt>
      <trkpt lat="47.49808" lon="6.73195">
        <ele>386.5</ele>
        <time>2017-02-05T08:51:10.000Z</time>
      </trkpt>
      <trkpt lat="47.4981" lon="6.73189">
        <ele>386.6</ele>
        <time>2017-02-05T08:51:11.000Z</time>
      </trkpt>
      <trkpt lat="47.49811" lon="6.73182">
        <ele>387.2</ele>
        <time>2017-02-05T08:51:12.000Z</time>
      </trkpt>
      <trkpt lat="47.49813" lon="6.73174">
        <ele>387.8</ele>
        <time>2017-02-05T08:51:13.000Z</time>
      </trkpt>
      <trkpt lat="47.49814" lon="6.73169">
        <ele>387.9</ele>
        <time>2017-02-05T08:51:14.000Z</time>
      </trkpt>
      <trkpt lat="47.49816" lon="6.73163">
        <ele>388.3</ele>
        <time>2017-02-05T08:51:15.000Z</time>
      </trkpt>
      <trkpt lat="47.49817" lon="6.73157">
        <ele>388.9</ele>
        <time>2017-02-05T08:51:16.000Z</time>
      </trkpt>
      <trkpt lat="47.49819" lon="6.73151">
        <ele>389.4</ele>
        <time>2017-02-05T08:51:17.000Z</time>
      </trkpt>
      <trkpt lat="47.49821" lon="6.73145">
        <ele>389.4</ele>
        <time>2017-02-05T08:51:18.000Z</time>
      </trkpt>
      <trkpt lat="47.49822" lon="6.7314">
        <ele>389.5</ele>
        <time>2017-02-05T08:51:19.000Z</time>
      </trkpt>
      <trkpt lat="47.49824" lon="6.73135">
        <ele>389.6</ele>
        <time>2017-02-05T08:51:20.000Z</time>
      </trkpt>
      <trkpt lat="47.49826" lon="6.73129">
        <ele>389.7</ele>
        <time>2017-02-05T08:51:21.000Z</time>
      </trkpt>
      <trkpt lat="47.49827" lon="6.73126">
        <ele>389.7</ele>
        <time>2017-02-05T08:51:22.000Z</time>
      </trkpt>
      <trkpt lat="47.49828" lon="6.73121">
        <ele>389.8</ele>
        <time>2017-02-05T08:51:23.000Z</time>
      </trkpt>
      <trkpt lat="47.49829" lon="6.73116">
        <ele>389.9</ele>
        <time>2017-02-05T08:51:24.000Z</time>
      </trkpt>
      <trkpt lat="47.4983" lon="6.73113">
        <ele>389.9</ele>
        <time>2017-02-05T08:51:25.000Z</time>
      </trkpt>
      <trkpt lat="47.49831" lon="6.73109">
        <ele>389.9</ele>
        <time>2017-02-05T08:51:26.000Z</time>
      </trkpt>
      <trkpt lat="47.49832" lon="6.73104">
        <ele>390</ele>
        <time>2017-02-05T08:51:27.000Z</time>
      </trkpt>
      <trkpt lat="47.49833" lon="6.731">
        <ele>390.1</ele>
        <time>2017-02-05T08:51:28.000Z</time>
      </trkpt>
      <trkpt lat="47.49835" lon="6.73093">
        <ele>390.3</ele>
        <time>2017-02-05T08:51:30.000Z</time>
      </trkpt>
      <trkpt lat="47.49836" lon="6.73088">
        <ele>390.7</ele>
        <time>2017-02-05T08:51:33.000Z</time>
      </trkpt>
      <trkpt lat="47.49836" lon="6.73086">
        <ele>390.8</ele>
        <time>2017-02-05T08:51:34.000Z</time>
      </trkpt>
      <trkpt lat="47.49834" lon="6.73092">
        <ele>392</ele>
        <time>2017-02-05T08:52:08.000Z</time>
      </trkpt>
      <trkpt lat="47.49833" lon="6.73092">
        <ele>392</ele>
        <time>2017-02-05T08:52:09.000Z</time>
      </trkpt>
      <trkpt lat="47.49837" lon="6.73088">
        <ele>393.2</ele>
        <time>2017-02-05T08:52:29.000Z</time>
      </trkpt>
      <trkpt lat="47.49837" lon="6.73088">
        <ele>393.2</ele>
        <time>2017-02-05T08:52:30.000Z</time>
      </trkpt>
      <trkpt lat="47.49834" lon="6.73092">
        <ele>393.3</ele>
        <time>2017-02-05T08:52:42.000Z</time>
      </trkpt>
      <trkpt lat="47.49833" lon="6.73092">
        <ele>393.2</ele>
        <time>2017-02-05T08:52:43.000Z</time>
      </trkpt>
      <trkpt lat="47.49834" lon="6.73085">
        <ele>392.6</ele>
        <time>2017-02-05T08:52:50.000Z</time>
      </trkpt>
      <trkpt lat="47.49835" lon="6.73079">
        <ele>392.5</ele>
        <time>2017-02-05T08:52:51.000Z</time>
      </trkpt>
      <trkpt lat="47.49837" lon="6.73075">
        <ele>392.5</ele>
        <time>2017-02-05T08:52:52.000Z</time>
      </trkpt>
      <trkpt lat="47.49839" lon="6.73072">
        <ele>392.4</ele>
        <time>2017-02-05T08:52:53.000Z</time>
      </trkpt>
      <trkpt lat="47.49841" lon="6.73067">
        <ele>392.4</ele>
        <time>2017-02-05T08:52:54.000Z</time>
      </trkpt>
      <trkpt lat="47.49843" lon="6.73064">
        <ele>392.4</ele>
        <time>2017-02-05T08:52:55.000Z</time>
      </trkpt>
      <trkpt lat="47.49844" lon="6.73061">
        <ele>392.4</ele>
        <time>2017-02-05T08:52:56.000Z</time>
      </trkpt>
      <trkpt lat="47.49845" lon="6.73057">
        <ele>392.4</ele>
        <time>2017-02-05T08:52:57.000Z</time>
      </trkpt>
      <trkpt lat="47.49847" lon="6.73054">
        <ele>392.4</ele>
        <time>2017-02-05T08:52:58.000Z</time>
      </trkpt>
      <trkpt lat="47.49848" lon="6.73051">
        <ele>392.4</ele>
        <time>2017-02-05T08:52:59.000Z</time>
      </trkpt>
      <trkpt lat="47.49851" lon="6.73047">
        <ele>392.3</ele>
        <time>2017-02-05T08:53:01.000Z</time>
      </trkpt>
      <trkpt lat="47.49853" lon="6.73043">
        <ele>392.3</ele>
        <time>2017-02-05T08:53:02.000Z</time>
      </trkpt>
      <trkpt lat="47.49855" lon="6.7304">
        <ele>392.3</ele>
        <time>2017-02-05T08:53:03.000Z</time>
      </trkpt>
      <trkpt lat="47.49856" lon="6.73036">
        <ele>392.3</ele>
        <time>2017-02-05T08:53:04.000Z</time>
      </trkpt>
      <trkpt lat="47.49857" lon="6.73032">
        <ele>392.4</ele>
        <time>2017-02-05T08:53:05.000Z</time>
      </trkpt>
      <trkpt lat="47.49859" lon="6.73029">
        <ele>392.4</ele>
        <time>2017-02-05T08:53:06.000Z</time>
      </trkpt>
      <trkpt lat="47.4986" lon="6.73026">
        <ele>392.5</ele>
        <time>2017-02-05T08:53:07.000Z</time>
      </trkpt>
      <trkpt lat="47.49862" lon="6.73022">
        <ele>392.5</ele>
        <time>2017-02-05T08:53:08.000Z</time>
      </trkpt>
      <trkpt lat="47.49863" lon="6.73018">
        <ele>392.6</ele>
        <time>2017-02-05T08:53:09.000Z</time>
      </trkpt>
      <trkpt lat="47.49865" lon="6.73015">
        <ele>392.7</ele>
        <time>2017-02-05T08:53:10.000Z</time>
      </trkpt>
      <trkpt lat="47.49867" lon="6.73011">
        <ele>392.8</ele>
        <time>2017-02-05T08:53:11.000Z</time>
      </trkpt>
      <trkpt lat="47.49868" lon="6.73007">
        <ele>392.8</ele>
        <time>2017-02-05T08:53:12.000Z</time>
      </trkpt>
      <trkpt lat="47.4987" lon="6.73003">
        <ele>392.9</ele>
        <time>2017-02-05T08:53:13.000Z</time>
      </trkpt>
      <trkpt lat="47.49871" lon="6.72999">
        <ele>392.9</ele>
        <time>2017-02-05T08:53:14.000Z</time>
      </trkpt>
      <trkpt lat="47.49873" lon="6.72995">
        <ele>392.9</ele>
        <time>2017-02-05T08:53:15.000Z</time>
      </trkpt>
      <trkpt lat="47.49874" lon="6.72991">
        <ele>392.8</ele>
        <time>2017-02-05T08:53:16.000Z</time>
      </trkpt>
      <trkpt lat="47.49876" lon="6.72987">
        <ele>392.8</ele>
        <time>2017-02-05T08:53:17.000Z</time>
      </trkpt>
      <trkpt lat="47.49878" lon="6.72982">
        <ele>392.8</ele>
        <time>2017-02-05T08:53:18.000Z</time>
      </trkpt>
      <trkpt lat="47.4988" lon="6.72979">
        <ele>392.9</ele>
        <time>2017-02-05T08:53:19.000Z</time>
      </trkpt>
      <trkpt lat="47.49881" lon="6.72976">
        <ele>392.9</ele>
        <time>2017-02-05T08:53:20.000Z</time>
      </trkpt>
      <trkpt lat="47.49883" lon="6.72971">
        <ele>393</ele>
        <time>2017-02-05T08:53:21.000Z</time>
      </trkpt>
      <trkpt lat="47.49885" lon="6.72966">
        <ele>393</ele>
        <time>2017-02-05T08:53:22.000Z</time>
      </trkpt>
      <trkpt lat="47.49887" lon="6.72962">
        <ele>393</ele>
        <time>2017-02-05T08:53:23.000Z</time>
      </trkpt>
      <trkpt lat="47.49889" lon="6.72957">
        <ele>393.1</ele>
        <time>2017-02-05T08:53:24.000Z</time>
      </trkpt>
      <trkpt lat="47.49892" lon="6.72952">
        <ele>394.1</ele>
        <time>2017-02-05T08:53:25.000Z</time>
      </trkpt>
      <trkpt lat="47.49895" lon="6.72947">
        <ele>394.2</ele>
        <time>2017-02-05T08:53:26.000Z</time>
      </trkpt>
      <trkpt lat="47.49897" lon="6.72944">
        <ele>394.2</ele>
        <time>2017-02-05T08:53:27.000Z</time>
      </trkpt>
      <trkpt lat="47.49902" lon="6.72941">
        <ele>393.9</ele>
        <time>2017-02-05T08:53:28.000Z</time>
      </trkpt>
      <trkpt lat="47.49904" lon="6.72942">
        <ele>393.8</ele>
        <time>2017-02-05T08:53:29.000Z</time>
      </trkpt>
      <trkpt lat="47.49907" lon="6.72944">
        <ele>393.8</ele>
        <time>2017-02-05T08:53:30.000Z</time>
      </trkpt>
      <trkpt lat="47.4991" lon="6.72946">
        <ele>392.4</ele>
        <time>2017-02-05T08:53:31.000Z</time>
      </trkpt>
      <trkpt lat="47.49914" lon="6.72947">
        <ele>392.2</ele>
        <time>2017-02-05T08:53:32.000Z</time>
      </trkpt>
      <trkpt lat="47.49918" lon="6.72949">
        <ele>390.9</ele>
        <time>2017-02-05T08:53:33.000Z</time>
      </trkpt>
      <trkpt lat="47.49922" lon="6.72951">
        <ele>389.6</ele>
        <time>2017-02-05T08:53:34.000Z</time>
      </trkpt>
      <trkpt lat="47.49926" lon="6.72954">
        <ele>387.8</ele>
        <time>2017-02-05T08:53:35.000Z</time>
      </trkpt>
      <trkpt lat="47.49931" lon="6.72958">
        <ele>386.4</ele>
        <time>2017-02-05T08:53:36.000Z</time>
      </trkpt>
      <trkpt lat="47.49936" lon="6.7296">
        <ele>385.1</ele>
        <time>2017-02-05T08:53:37.000Z</time>
      </trkpt>
      <trkpt lat="47.49942" lon="6.72962">
        <ele>383.8</ele>
        <time>2017-02-05T08:53:38.000Z</time>
      </trkpt>
      <trkpt lat="47.49946" lon="6.72964">
        <ele>383.7</ele>
        <time>2017-02-05T08:53:39.000Z</time>
      </trkpt>
      <trkpt lat="47.4995" lon="6.72965">
        <ele>383.6</ele>
        <time>2017-02-05T08:53:40.000Z</time>
      </trkpt>
      <trkpt lat="47.49954" lon="6.72966">
        <ele>383.5</ele>
        <time>2017-02-05T08:53:41.000Z</time>
      </trkpt>
      <trkpt lat="47.49959" lon="6.72969">
        <ele>382.6</ele>
        <time>2017-02-05T08:53:42.000Z</time>
      </trkpt>
      <trkpt lat="47.49963" lon="6.72973">
        <ele>382.4</ele>
        <time>2017-02-05T08:53:42.999Z</time>
      </trkpt>
      <trkpt lat="47.49967" lon="6.72977">
        <ele>382.4</ele>
        <time>2017-02-05T08:53:43.999Z</time>
      </trkpt>
      <trkpt lat="47.49972" lon="6.72982">
        <ele>381.5</ele>
        <time>2017-02-05T08:53:44.999Z</time>
      </trkpt>
      <trkpt lat="47.49978" lon="6.72987">
        <ele>381.6</ele>
        <time>2017-02-05T08:53:45.999Z</time>
      </trkpt>
      <trkpt lat="47.49983" lon="6.72994">
        <ele>381.6</ele>
        <time>2017-02-05T08:53:46.999Z</time>
      </trkpt>
      <trkpt lat="47.49987" lon="6.73">
        <ele>381.7</ele>
        <time>2017-02-05T08:53:47.999Z</time>
      </trkpt>
      <trkpt lat="47.49991" lon="6.73005">
        <ele>381.7</ele>
        <time>2017-02-05T08:53:48.999Z</time>
      </trkpt>
      <trkpt lat="47.49995" lon="6.7301">
        <ele>381.5</ele>
        <time>2017-02-05T08:53:49.999Z</time>
      </trkpt>
      <trkpt lat="47.49999" lon="6.73016">
        <ele>381.7</ele>
        <time>2017-02-05T08:53:50.999Z</time>
      </trkpt>
      <trkpt lat="47.50003" lon="6.73021">
        <ele>381.5</ele>
        <time>2017-02-05T08:53:51.999Z</time>
      </trkpt>
      <trkpt lat="47.50007" lon="6.73026">
        <ele>381.7</ele>
        <time>2017-02-05T08:53:52.999Z</time>
      </trkpt>
      <trkpt lat="47.5001" lon="6.73029">
        <ele>382.2</ele>
        <time>2017-02-05T08:53:53.999Z</time>
      </trkpt>
      <trkpt lat="47.50014" lon="6.73033">
        <ele>382.4</ele>
        <time>2017-02-05T08:53:54.999Z</time>
      </trkpt>
      <trkpt lat="47.50018" lon="6.73038">
        <ele>382.4</ele>
        <time>2017-02-05T08:53:55.999Z</time>
      </trkpt>
      <trkpt lat="47.50021" lon="6.73043">
        <ele>382.7</ele>
        <time>2017-02-05T08:53:56.999Z</time>
      </trkpt>
      <trkpt lat="47.50025" lon="6.73046">
        <ele>382.9</ele>
        <time>2017-02-05T08:53:57.999Z</time>
      </trkpt>
      <trkpt lat="47.50028" lon="6.7305">
        <ele>382.6</ele>
        <time>2017-02-05T08:53:58.999Z</time>
      </trkpt>
      <trkpt lat="47.50032" lon="6.73054">
        <ele>382.6</ele>
        <time>2017-02-05T08:53:59.999Z</time>
      </trkpt>
      <trkpt lat="47.50036" lon="6.73059">
        <ele>382.2</ele>
        <time>2017-02-05T08:54:00.999Z</time>
      </trkpt>
      <trkpt lat="47.50039" lon="6.73063">
        <ele>382.4</ele>
        <time>2017-02-05T08:54:01.999Z</time>
      </trkpt>
      <trkpt lat="47.50043" lon="6.73066">
        <ele>382.8</ele>
        <time>2017-02-05T08:54:02.999Z</time>
      </trkpt>
      <trkpt lat="47.50046" lon="6.73069">
        <ele>382.8</ele>
        <time>2017-02-05T08:54:03.999Z</time>
      </trkpt>
      <trkpt lat="47.50048" lon="6.73072">
        <ele>382.7</ele>
        <time>2017-02-05T08:54:04.999Z</time>
      </trkpt>
      <trkpt lat="47.50051" lon="6.73075">
        <ele>381.8</ele>
        <time>2017-02-05T08:54:05.999Z</time>
      </trkpt>
      <trkpt lat="47.50055" lon="6.73079">
        <ele>381.8</ele>
        <time>2017-02-05T08:54:06.999Z</time>
      </trkpt>
      <trkpt lat="47.50058" lon="6.73082">
        <ele>382.1</ele>
        <time>2017-02-05T08:54:07.999Z</time>
      </trkpt>
      <trkpt lat="47.50063" lon="6.73087">
        <ele>382.2</ele>
        <time>2017-02-05T08:54:08.999Z</time>
      </trkpt>
      <trkpt lat="47.50067" lon="6.73092">
        <ele>382.3</ele>
        <time>2017-02-05T08:54:09.999Z</time>
      </trkpt>
      <trkpt lat="47.50071" lon="6.73096">
        <ele>382.8</ele>
        <time>2017-02-05T08:54:10.999Z</time>
      </trkpt>
      <trkpt lat="47.50076" lon="6.731">
        <ele>382.6</ele>
        <time>2017-02-05T08:54:11.999Z</time>
      </trkpt>
      <trkpt lat="47.50079" lon="6.73103">
        <ele>381.7</ele>
        <time>2017-02-05T08:54:12.999Z</time>
      </trkpt>
      <trkpt lat="47.50083" lon="6.73107">
        <ele>380.7</ele>
        <time>2017-02-05T08:54:13.999Z</time>
      </trkpt>
      <trkpt lat="47.50087" lon="6.7311">
        <ele>380</ele>
        <time>2017-02-05T08:54:14.999Z</time>
      </trkpt>
      <trkpt lat="47.5009" lon="6.73113">
        <ele>380</ele>
        <time>2017-02-05T08:54:15.999Z</time>
      </trkpt>
      <trkpt lat="47.50094" lon="6.73116">
        <ele>380.6</ele>
        <time>2017-02-05T08:54:16.999Z</time>
      </trkpt>
      <trkpt lat="47.50098" lon="6.73118">
        <ele>380.9</ele>
        <time>2017-02-05T08:54:17.999Z</time>
      </trkpt>
      <trkpt lat="47.50102" lon="6.7312">
        <ele>381.2</ele>
        <time>2017-02-05T08:54:18.999Z</time>
      </trkpt>
      <trkpt lat="47.50107" lon="6.73121">
        <ele>382.1</ele>
        <time>2017-02-05T08:54:19.999Z</time>
      </trkpt>
      <trkpt lat="47.50112" lon="6.73122">
        <ele>383.3</ele>
        <time>2017-02-05T08:54:20.999Z</time>
      </trkpt>
      <trkpt lat="47.50116" lon="6.73123">
        <ele>383.4</ele>
        <time>2017-02-05T08:54:21.999Z</time>
      </trkpt>
      <trkpt lat="47.5012" lon="6.73124">
        <ele>383.5</ele>
        <time>2017-02-05T08:54:22.999Z</time>
      </trkpt>
      <trkpt lat="47.50124" lon="6.73124">
        <ele>383.6</ele>
        <time>2017-02-05T08:54:23.999Z</time>
      </trkpt>
      <trkpt lat="47.50128" lon="6.73124">
        <ele>383.7</ele>
        <time>2017-02-05T08:54:24.999Z</time>
      </trkpt>
      <trkpt lat="47.50131" lon="6.73124">
        <ele>383.8</ele>
        <time>2017-02-05T08:54:25.999Z</time>
      </trkpt>
      <trkpt lat="47.50133" lon="6.73124">
        <ele>384</ele>
        <time>2017-02-05T08:54:26.999Z</time>
      </trkpt>
      <trkpt lat="47.50136" lon="6.73124">
        <ele>384.1</ele>
        <time>2017-02-05T08:54:27.999Z</time>
      </trkpt>
      <trkpt lat="47.50141" lon="6.73125">
        <ele>384.3</ele>
        <time>2017-02-05T08:54:28.999Z</time>
      </trkpt>
      <trkpt lat="47.50145" lon="6.73124">
        <ele>384.6</ele>
        <time>2017-02-05T08:54:29.999Z</time>
      </trkpt>
      <trkpt lat="47.50148" lon="6.73124">
        <ele>384.8</ele>
        <time>2017-02-05T08:54:30.999Z</time>
      </trkpt>
      <trkpt lat="47.50151" lon="6.73122">
        <ele>384.9</ele>
        <time>2017-02-05T08:54:31.999Z</time>
      </trkpt>
      <trkpt lat="47.50154" lon="6.73121">
        <ele>385.1</ele>
        <time>2017-02-05T08:54:32.999Z</time>
      </trkpt>
      <trkpt lat="47.50157" lon="6.7312">
        <ele>385.3</ele>
        <time>2017-02-05T08:54:33.999Z</time>
      </trkpt>
      <trkpt lat="47.50159" lon="6.7312">
        <ele>385.4</ele>
        <time>2017-02-05T08:54:34.999Z</time>
      </trkpt>
      <trkpt lat="47.50163" lon="6.73122">
        <ele>385.7</ele>
        <time>2017-02-05T08:54:36.999Z</time>
      </trkpt>
      <trkpt lat="47.50166" lon="6.73125">
        <ele>385.8</ele>
        <time>2017-02-05T08:54:37.999Z</time>
      </trkpt>
      <trkpt lat="47.50169" lon="6.73128">
        <ele>385.7</ele>
        <time>2017-02-05T08:54:38.999Z</time>
      </trkpt>
      <trkpt lat="47.50172" lon="6.73131">
        <ele>385.7</ele>
        <time>2017-02-05T08:54:39.999Z</time>
      </trkpt>
      <trkpt lat="47.50175" lon="6.73133">
        <ele>385.8</ele>
        <time>2017-02-05T08:54:40.999Z</time>
      </trkpt>
      <trkpt lat="47.50177" lon="6.73133">
        <ele>385.9</ele>
        <time>2017-02-05T08:54:41.999Z</time>
      </trkpt>
      <trkpt lat="47.50181" lon="6.73132">
        <ele>386</ele>
        <time>2017-02-05T08:54:43.999Z</time>
      </trkpt>
      <trkpt lat="47.50184" lon="6.73131">
        <ele>386.1</ele>
        <time>2017-02-05T08:54:44.999Z</time>
      </trkpt>
      <trkpt lat="47.50186" lon="6.7313">
        <ele>386.2</ele>
        <time>2017-02-05T08:54:45.999Z</time>
      </trkpt>
      <trkpt lat="47.50188" lon="6.73127">
        <ele>386.3</ele>
        <time>2017-02-05T08:54:46.999Z</time>
      </trkpt>
      <trkpt lat="47.5019" lon="6.73124">
        <ele>386.5</ele>
        <time>2017-02-05T08:54:47.999Z</time>
      </trkpt>
      <trkpt lat="47.50192" lon="6.73119">
        <ele>386.6</ele>
        <time>2017-02-05T08:54:48.999Z</time>
      </trkpt>
      <trkpt lat="47.50194" lon="6.73115">
        <ele>386.7</ele>
        <time>2017-02-05T08:54:49.999Z</time>
      </trkpt>
      <trkpt lat="47.50195" lon="6.73109">
        <ele>386.9</ele>
        <time>2017-02-05T08:54:50.999Z</time>
      </trkpt>
      <trkpt lat="47.50198" lon="6.73102">
        <ele>387</ele>
        <time>2017-02-05T08:54:51.999Z</time>
      </trkpt>
      <trkpt lat="47.502" lon="6.73097">
        <ele>388.8</ele>
        <time>2017-02-05T08:54:52.999Z</time>
      </trkpt>
      <trkpt lat="47.502" lon="6.73094">
        <ele>389.8</ele>
        <time>2017-02-05T08:54:53.999Z</time>
      </trkpt>
      <trkpt lat="47.50202" lon="6.7309">
        <ele>390.6</ele>
        <time>2017-02-05T08:54:54.999Z</time>
      </trkpt>
      <trkpt lat="47.50204" lon="6.73084">
        <ele>391</ele>
        <time>2017-02-05T08:54:55.999Z</time>
      </trkpt>
      <trkpt lat="47.50207" lon="6.73077">
        <ele>391.7</ele>
        <time>2017-02-05T08:54:56.999Z</time>
      </trkpt>
      <trkpt lat="47.50209" lon="6.73071">
        <ele>392.3</ele>
        <time>2017-02-05T08:54:57.999Z</time>
      </trkpt>
      <trkpt lat="47.50211" lon="6.73067">
        <ele>392.7</ele>
        <time>2017-02-05T08:54:58.999Z</time>
      </trkpt>
      <trkpt lat="47.50213" lon="6.73061">
        <ele>393.3</ele>
        <time>2017-02-05T08:54:59.999Z</time>
      </trkpt>
      <trkpt lat="47.50215" lon="6.73055">
        <ele>393.6</ele>
        <time>2017-02-05T08:55:00.999Z</time>
      </trkpt>
      <trkpt lat="47.50218" lon="6.7305">
        <ele>393.8</ele>
        <time>2017-02-05T08:55:01.999Z</time>
      </trkpt>
      <trkpt lat="47.5022" lon="6.73045">
        <ele>393.5</ele>
        <time>2017-02-05T08:55:02.999Z</time>
      </trkpt>
      <trkpt lat="47.50223" lon="6.73037">
        <ele>393</ele>
        <time>2017-02-05T08:55:03.999Z</time>
      </trkpt>
      <trkpt lat="47.50226" lon="6.73032">
        <ele>392.7</ele>
        <time>2017-02-05T08:55:04.999Z</time>
      </trkpt>
      <trkpt lat="47.50229" lon="6.73025">
        <ele>392.9</ele>
        <time>2017-02-05T08:55:05.999Z</time>
      </trkpt>
      <trkpt lat="47.50232" lon="6.73017">
        <ele>393</ele>
        <time>2017-02-05T08:55:06.999Z</time>
      </trkpt>
      <trkpt lat="47.50234" lon="6.73011">
        <ele>393.2</ele>
        <time>2017-02-05T08:55:07.999Z</time>
      </trkpt>
      <trkpt lat="47.50236" lon="6.73005">
        <ele>393</ele>
        <time>2017-02-05T08:55:08.999Z</time>
      </trkpt>
      <trkpt lat="47.50237" lon="6.73">
        <ele>392.6</ele>
        <time>2017-02-05T08:55:09.999Z</time>
      </trkpt>
      <trkpt lat="47.5024" lon="6.72993">
        <ele>392.2</ele>
        <time>2017-02-05T08:55:10.999Z</time>
      </trkpt>
      <trkpt lat="47.50242" lon="6.72988">
        <ele>391.8</ele>
        <time>2017-02-05T08:55:11.999Z</time>
      </trkpt>
      <trkpt lat="47.50244" lon="6.72983">
        <ele>391.6</ele>
        <time>2017-02-05T08:55:12.999Z</time>
      </trkpt>
      <trkpt lat="47.50246" lon="6.72978">
        <ele>391.4</ele>
        <time>2017-02-05T08:55:13.999Z</time>
      </trkpt>
      <trkpt lat="47.50249" lon="6.72974">
        <ele>391.4</ele>
        <time>2017-02-05T08:55:14.999Z</time>
      </trkpt>
      <trkpt lat="47.50251" lon="6.72969">
        <ele>391.5</ele>
        <time>2017-02-05T08:55:15.999Z</time>
      </trkpt>
      <trkpt lat="47.50254" lon="6.72961">
        <ele>391.8</ele>
        <time>2017-02-05T08:55:16.999Z</time>
      </trkpt>
      <trkpt lat="47.50256" lon="6.72955">
        <ele>392</ele>
        <time>2017-02-05T08:55:17.999Z</time>
      </trkpt>
      <trkpt lat="47.50259" lon="6.72949">
        <ele>392</ele>
        <time>2017-02-05T08:55:18.999Z</time>
      </trkpt>
      <trkpt lat="47.50261" lon="6.72943">
        <ele>391.8</ele>
        <time>2017-02-05T08:55:19.999Z</time>
      </trkpt>
      <trkpt lat="47.50263" lon="6.72937">
        <ele>391.8</ele>
        <time>2017-02-05T08:55:20.999Z</time>
      </trkpt>
      <trkpt lat="47.50265" lon="6.72932">
        <ele>392</ele>
        <time>2017-02-05T08:55:21.999Z</time>
      </trkpt>
      <trkpt lat="47.50267" lon="6.72927">
        <ele>392.2</ele>
        <time>2017-02-05T08:55:22.999Z</time>
      </trkpt>
      <trkpt lat="47.50269" lon="6.72921">
        <ele>392.2</ele>
        <time>2017-02-05T08:55:23.999Z</time>
      </trkpt>
      <trkpt lat="47.50271" lon="6.72914">
        <ele>392.3</ele>
        <time>2017-02-05T08:55:24.999Z</time>
      </trkpt>
      <trkpt lat="47.50273" lon="6.72908">
        <ele>392.2</ele>
        <time>2017-02-05T08:55:25.999Z</time>
      </trkpt>
      <trkpt lat="47.50276" lon="6.729">
        <ele>392</ele>
        <time>2017-02-05T08:55:26.999Z</time>
      </trkpt>
      <trkpt lat="47.50279" lon="6.72895">
        <ele>391.8</ele>
        <time>2017-02-05T08:55:27.999Z</time>
      </trkpt>
      <trkpt lat="47.50283" lon="6.72893">
        <ele>392</ele>
        <time>2017-02-05T08:55:28.999Z</time>
      </trkpt>
      <trkpt lat="47.50288" lon="6.72893">
        <ele>392</ele>
        <time>2017-02-05T08:55:29.999Z</time>
      </trkpt>
      <trkpt lat="47.50291" lon="6.72895">
        <ele>391.4</ele>
        <time>2017-02-05T08:55:30.999Z</time>
      </trkpt>
      <trkpt lat="47.50296" lon="6.72898">
        <ele>391.6</ele>
        <time>2017-02-05T08:55:31.999Z</time>
      </trkpt>
      <trkpt lat="47.503" lon="6.729">
        <ele>391.7</ele>
        <time>2017-02-05T08:55:32.999Z</time>
      </trkpt>
      <trkpt lat="47.50303" lon="6.72901">
        <ele>391.8</ele>
        <time>2017-02-05T08:55:33.999Z</time>
      </trkpt>
      <trkpt lat="47.50306" lon="6.72901">
        <ele>391.8</ele>
        <time>2017-02-05T08:55:34.999Z</time>
      </trkpt>
      <trkpt lat="47.50309" lon="6.72901">
        <ele>391.8</ele>
        <time>2017-02-05T08:55:35.999Z</time>
      </trkpt>
      <trkpt lat="47.50311" lon="6.72902">
        <ele>391.8</ele>
        <time>2017-02-05T08:55:36.999Z</time>
      </trkpt>
      <trkpt lat="47.50315" lon="6.72904">
        <ele>391.8</ele>
        <time>2017-02-05T08:55:37.999Z</time>
      </trkpt>
      <trkpt lat="47.50317" lon="6.72906">
        <ele>391.8</ele>
        <time>2017-02-05T08:55:38.999Z</time>
      </trkpt>
      <trkpt lat="47.50321" lon="6.72908">
        <ele>391.8</ele>
        <time>2017-02-05T08:55:39.999Z</time>
      </trkpt>
      <trkpt lat="47.50325" lon="6.7291">
        <ele>391.7</ele>
        <time>2017-02-05T08:55:40.999Z</time>
      </trkpt>
      <trkpt lat="47.50329" lon="6.72912">
        <ele>391.6</ele>
        <time>2017-02-05T08:55:41.999Z</time>
      </trkpt>
      <trkpt lat="47.50332" lon="6.72914">
        <ele>391.6</ele>
        <time>2017-02-05T08:55:42.999Z</time>
      </trkpt>
      <trkpt lat="47.50335" lon="6.72915">
        <ele>391.5</ele>
        <time>2017-02-05T08:55:43.999Z</time>
      </trkpt>
      <trkpt lat="47.50338" lon="6.72917">
        <ele>391.4</ele>
        <time>2017-02-05T08:55:44.999Z</time>
      </trkpt>
      <trkpt lat="47.50342" lon="6.72919">
        <ele>391.3</ele>
        <time>2017-02-05T08:55:45.999Z</time>
      </trkpt>
      <trkpt lat="47.50346" lon="6.72921">
        <ele>391.2</ele>
        <time>2017-02-05T08:55:46.999Z</time>
      </trkpt>
      <trkpt lat="47.5035" lon="6.72922">
        <ele>391.2</ele>
        <time>2017-02-05T08:55:47.999Z</time>
      </trkpt>
      <trkpt lat="47.50353" lon="6.72923">
        <ele>391.1</ele>
        <time>2017-02-05T08:55:48.999Z</time>
      </trkpt>
      <trkpt lat="47.50356" lon="6.72923">
        <ele>391.1</ele>
        <time>2017-02-05T08:55:49.999Z</time>
      </trkpt>
      <trkpt lat="47.50359" lon="6.72923">
        <ele>391</ele>
        <time>2017-02-05T08:55:50.999Z</time>
      </trkpt>
      <trkpt lat="47.50362" lon="6.72924">
        <ele>391</ele>
        <time>2017-02-05T08:55:51.999Z</time>
      </trkpt>
      <trkpt lat="47.50365" lon="6.72924">
        <ele>390.9</ele>
        <time>2017-02-05T08:55:52.999Z</time>
      </trkpt>
      <trkpt lat="47.50367" lon="6.72925">
        <ele>390.9</ele>
        <time>2017-02-05T08:55:53.999Z</time>
      </trkpt>
      <trkpt lat="47.5037" lon="6.72926">
        <ele>390.9</ele>
        <time>2017-02-05T08:55:54.999Z</time>
      </trkpt>
      <trkpt lat="47.50372" lon="6.72927">
        <ele>390.9</ele>
        <time>2017-02-05T08:55:55.999Z</time>
      </trkpt>
      <trkpt lat="47.50376" lon="6.72928">
        <ele>390.9</ele>
        <time>2017-02-05T08:55:56.999Z</time>
      </trkpt>
      <trkpt lat="47.50379" lon="6.72929">
        <ele>391</ele>
        <time>2017-02-05T08:55:57.999Z</time>
      </trkpt>
      <trkpt lat="47.50382" lon="6.72929">
        <ele>391</ele>
        <time>2017-02-05T08:55:58.999Z</time>
      </trkpt>
      <trkpt lat="47.50385" lon="6.7293">
        <ele>391.1</ele>
        <time>2017-02-05T08:55:59.999Z</time>
      </trkpt>
      <trkpt lat="47.50388" lon="6.72932">
        <ele>391.2</ele>
        <time>2017-02-05T08:56:00.999Z</time>
      </trkpt>
      <trkpt lat="47.5039" lon="6.72933">
        <ele>391.2</ele>
        <time>2017-02-05T08:56:01.999Z</time>
      </trkpt>
      <trkpt lat="47.50393" lon="6.72935">
        <ele>391.2</ele>
        <time>2017-02-05T08:56:02.999Z</time>
      </trkpt>
      <trkpt lat="47.50396" lon="6.72936">
        <ele>391.1</ele>
        <time>2017-02-05T08:56:03.999Z</time>
      </trkpt>
      <trkpt lat="47.50398" lon="6.72937">
        <ele>391.1</ele>
        <time>2017-02-05T08:56:04.999Z</time>
      </trkpt>
      <trkpt lat="47.50401" lon="6.72937">
        <ele>391.2</ele>
        <time>2017-02-05T08:56:05.999Z</time>
      </trkpt>
      <trkpt lat="47.50404" lon="6.72937">
        <ele>391.2</ele>
        <time>2017-02-05T08:56:06.999Z</time>
      </trkpt>
      <trkpt lat="47.50406" lon="6.72937">
        <ele>391.3</ele>
        <time>2017-02-05T08:56:07.999Z</time>
      </trkpt>
      <trkpt lat="47.5041" lon="6.72937">
        <ele>391.4</ele>
        <time>2017-02-05T08:56:08.999Z</time>
      </trkpt>
      <trkpt lat="47.50413" lon="6.72937">
        <ele>391.5</ele>
        <time>2017-02-05T08:56:09.999Z</time>
      </trkpt>
      <trkpt lat="47.50416" lon="6.72937">
        <ele>391.6</ele>
        <time>2017-02-05T08:56:10.999Z</time>
      </trkpt>
      <trkpt lat="47.50419" lon="6.72938">
        <ele>391.6</ele>
        <time>2017-02-05T08:56:11.999Z</time>
      </trkpt>
      <trkpt lat="47.50422" lon="6.72939">
        <ele>391.6</ele>
        <time>2017-02-05T08:56:12.999Z</time>
      </trkpt>
      <trkpt lat="47.50425" lon="6.7294">
        <ele>391.6</ele>
        <time>2017-02-05T08:56:13.999Z</time>
      </trkpt>
      <trkpt lat="47.50428" lon="6.7294">
        <ele>391.7</ele>
        <time>2017-02-05T08:56:14.999Z</time>
      </trkpt>
      <trkpt lat="47.50431" lon="6.72941">
        <ele>391.8</ele>
        <time>2017-02-05T08:56:15.999Z</time>
      </trkpt>
      <trkpt lat="47.50434" lon="6.72943">
        <ele>391.7</ele>
        <time>2017-02-05T08:56:16.999Z</time>
      </trkpt>
      <trkpt lat="47.50436" lon="6.72943">
        <ele>391.7</ele>
        <time>2017-02-05T08:56:17.999Z</time>
      </trkpt>
      <trkpt lat="47.5044" lon="6.72943">
        <ele>391.7</ele>
        <time>2017-02-05T08:56:18.999Z</time>
      </trkpt>
      <trkpt lat="47.50443" lon="6.72943">
        <ele>391.8</ele>
        <time>2017-02-05T08:56:19.999Z</time>
      </trkpt>
      <trkpt lat="47.50446" lon="6.72942">
        <ele>391.9</ele>
        <time>2017-02-05T08:56:20.999Z</time>
      </trkpt>
      <trkpt lat="47.50449" lon="6.72942">
        <ele>391.9</ele>
        <time>2017-02-05T08:56:21.999Z</time>
      </trkpt>
      <trkpt lat="47.50451" lon="6.72942">
        <ele>392</ele>
        <time>2017-02-05T08:56:22.999Z</time>
      </trkpt>
      <trkpt lat="47.50453" lon="6.72941">
        <ele>392</ele>
        <time>2017-02-05T08:56:23.999Z</time>
      </trkpt>
      <trkpt lat="47.50456" lon="6.72939">
        <ele>392.2</ele>
        <time>2017-02-05T08:56:24.999Z</time>
      </trkpt>
      <trkpt lat="47.50459" lon="6.72937">
        <ele>392.4</ele>
        <time>2017-02-05T08:56:25.999Z</time>
      </trkpt>
      <trkpt lat="47.50461" lon="6.72935">
        <ele>392.6</ele>
        <time>2017-02-05T08:56:26.999Z</time>
      </trkpt>
      <trkpt lat="47.50463" lon="6.72933">
        <ele>392.7</ele>
        <time>2017-02-05T08:56:27.999Z</time>
      </trkpt>
      <trkpt lat="47.50464" lon="6.7293">
        <ele>392.9</ele>
        <time>2017-02-05T08:56:28.999Z</time>
      </trkpt>
      <trkpt lat="47.50466" lon="6.72928">
        <ele>393</ele>
        <time>2017-02-05T08:56:29.999Z</time>
      </trkpt>
      <trkpt lat="47.50468" lon="6.72926">
        <ele>393.1</ele>
        <time>2017-02-05T08:56:30.999Z</time>
      </trkpt>
      <trkpt lat="47.50471" lon="6.72923">
        <ele>393.3</ele>
        <time>2017-02-05T08:56:31.999Z</time>
      </trkpt>
      <trkpt lat="47.50473" lon="6.72919">
        <ele>393.4</ele>
        <time>2017-02-05T08:56:32.999Z</time>
      </trkpt>
      <trkpt lat="47.50476" lon="6.72915">
        <ele>393.4</ele>
        <time>2017-02-05T08:56:33.999Z</time>
      </trkpt>
      <trkpt lat="47.50477" lon="6.72912">
        <ele>393.6</ele>
        <time>2017-02-05T08:56:34.999Z</time>
      </trkpt>
      <trkpt lat="47.5048" lon="6.72908">
        <ele>393.9</ele>
        <time>2017-02-05T08:56:36.999Z</time>
      </trkpt>
      <trkpt lat="47.50481" lon="6.72906">
        <ele>394</ele>
        <time>2017-02-05T08:56:37.999Z</time>
      </trkpt>
      <trkpt lat="47.50482" lon="6.72904">
        <ele>394.2</ele>
        <time>2017-02-05T08:56:38.999Z</time>
      </trkpt>
      <trkpt lat="47.50483" lon="6.729">
        <ele>394.4</ele>
        <time>2017-02-05T08:56:39.999Z</time>
      </trkpt>
      <trkpt lat="47.50485" lon="6.72896">
        <ele>394.5</ele>
        <time>2017-02-05T08:56:40.999Z</time>
      </trkpt>
      <trkpt lat="47.50486" lon="6.72893">
        <ele>394.5</ele>
        <time>2017-02-05T08:56:41.999Z</time>
      </trkpt>
      <trkpt lat="47.50488" lon="6.7289">
        <ele>394.5</ele>
        <time>2017-02-05T08:56:42.999Z</time>
      </trkpt>
      <trkpt lat="47.5049" lon="6.72888">
        <ele>394.5</ele>
        <time>2017-02-05T08:56:43.999Z</time>
      </trkpt>
      <trkpt lat="47.50491" lon="6.72886">
        <ele>394.4</ele>
        <time>2017-02-05T08:56:44.999Z</time>
      </trkpt>
      <trkpt lat="47.50494" lon="6.72883">
        <ele>394.4</ele>
        <time>2017-02-05T08:56:45.999Z</time>
      </trkpt>
      <trkpt lat="47.50497" lon="6.72879">
        <ele>394.4</ele>
        <time>2017-02-05T08:56:47.999Z</time>
      </trkpt>
      <trkpt lat="47.505" lon="6.72877">
        <ele>394.5</ele>
        <time>2017-02-05T08:56:48.999Z</time>
      </trkpt>
      <trkpt lat="47.50502" lon="6.72875">
        <ele>394.6</ele>
        <time>2017-02-05T08:56:49.999Z</time>
      </trkpt>
      <trkpt lat="47.50504" lon="6.72873">
        <ele>394.6</ele>
        <time>2017-02-05T08:56:50.999Z</time>
      </trkpt>
      <trkpt lat="47.50507" lon="6.72871">
        <ele>394.6</ele>
        <time>2017-02-05T08:56:51.999Z</time>
      </trkpt>
      <trkpt lat="47.50509" lon="6.72869">
        <ele>394.7</ele>
        <time>2017-02-05T08:56:52.999Z</time>
      </trkpt>
      <trkpt lat="47.50511" lon="6.72867">
        <ele>394.8</ele>
        <time>2017-02-05T08:56:53.999Z</time>
      </trkpt>
      <trkpt lat="47.50514" lon="6.72865">
        <ele>394.9</ele>
        <time>2017-02-05T08:56:54.999Z</time>
      </trkpt>
      <trkpt lat="47.50516" lon="6.72863">
        <ele>394.9</ele>
        <time>2017-02-05T08:56:55.999Z</time>
      </trkpt>
      <trkpt lat="47.50518" lon="6.72862">
        <ele>395.1</ele>
        <time>2017-02-05T08:56:56.999Z</time>
      </trkpt>
      <trkpt lat="47.5052" lon="6.7286">
        <ele>395.2</ele>
        <time>2017-02-05T08:56:57.999Z</time>
      </trkpt>
      <trkpt lat="47.50522" lon="6.72858">
        <ele>395.3</ele>
        <time>2017-02-05T08:56:58.999Z</time>
      </trkpt>
      <trkpt lat="47.50525" lon="6.72857">
        <ele>395.4</ele>
        <time>2017-02-05T08:56:59.999Z</time>
      </trkpt>
      <trkpt lat="47.50527" lon="6.72855">
        <ele>395.6</ele>
        <time>2017-02-05T08:57:00.999Z</time>
      </trkpt>
      <trkpt lat="47.5053" lon="6.72853">
        <ele>395.7</ele>
        <time>2017-02-05T08:57:01.999Z</time>
      </trkpt>
      <trkpt lat="47.50532" lon="6.72851">
        <ele>395.9</ele>
        <time>2017-02-05T08:57:02.999Z</time>
      </trkpt>
      <trkpt lat="47.50534" lon="6.72848">
        <ele>396</ele>
        <time>2017-02-05T08:57:03.999Z</time>
      </trkpt>
      <trkpt lat="47.50536" lon="6.72847">
        <ele>396.1</ele>
        <time>2017-02-05T08:57:04.999Z</time>
      </trkpt>
      <trkpt lat="47.50539" lon="6.72845">
        <ele>396.3</ele>
        <time>2017-02-05T08:57:05.999Z</time>
      </trkpt>
      <trkpt lat="47.50541" lon="6.72844">
        <ele>396.5</ele>
        <time>2017-02-05T08:57:06.999Z</time>
      </trkpt>
      <trkpt lat="47.50544" lon="6.72843">
        <ele>396.8</ele>
        <time>2017-02-05T08:57:08.999Z</time>
      </trkpt>
      <trkpt lat="47.50546" lon="6.72842">
        <ele>397</ele>
        <time>2017-02-05T08:57:09.999Z</time>
      </trkpt>
      <trkpt lat="47.50549" lon="6.7284">
        <ele>397.4</ele>
        <time>2017-02-05T08:57:11.999Z</time>
      </trkpt>
      <trkpt lat="47.50551" lon="6.72838">
        <ele>397.7</ele>
        <time>2017-02-05T08:57:12.999Z</time>
      </trkpt>
      <trkpt lat="47.50554" lon="6.72836">
        <ele>398</ele>
        <time>2017-02-05T08:57:14.999Z</time>
      </trkpt>
      <trkpt lat="47.50555" lon="6.72835">
        <ele>398.2</ele>
        <time>2017-02-05T08:57:15.999Z</time>
      </trkpt>
      <trkpt lat="47.50559" lon="6.72833">
        <ele>398.6</ele>
        <time>2017-02-05T08:57:17.999Z</time>
      </trkpt>
      <trkpt lat="47.5056" lon="6.72832">
        <ele>398.9</ele>
        <time>2017-02-05T08:57:18.999Z</time>
      </trkpt>
      <trkpt lat="47.50562" lon="6.72832">
        <ele>399.1</ele>
        <time>2017-02-05T08:57:19.999Z</time>
      </trkpt>
      <trkpt lat="47.50565" lon="6.72831">
        <ele>399.4</ele>
        <time>2017-02-05T08:57:20.999Z</time>
      </trkpt>
      <trkpt lat="47.50569" lon="6.72828">
        <ele>400</ele>
        <time>2017-02-05T08:57:22.999Z</time>
      </trkpt>
      <trkpt lat="47.50571" lon="6.72827">
        <ele>400.3</ele>
        <time>2017-02-05T08:57:23.999Z</time>
      </trkpt>
      <trkpt lat="47.50574" lon="6.72825">
        <ele>400.8</ele>
        <time>2017-02-05T08:57:25.999Z</time>
      </trkpt>
      <trkpt lat="47.50575" lon="6.72824">
        <ele>401</ele>
        <time>2017-02-05T08:57:26.999Z</time>
      </trkpt>
      <trkpt lat="47.50579" lon="6.72823">
        <ele>401.3</ele>
        <time>2017-02-05T08:57:29.999Z</time>
      </trkpt>
      <trkpt lat="47.5058" lon="6.72821">
        <ele>401.5</ele>
        <time>2017-02-05T08:57:30.999Z</time>
      </trkpt>
      <trkpt lat="47.50583" lon="6.72817">
        <ele>401.7</ele>
        <time>2017-02-05T08:57:32.999Z</time>
      </trkpt>
      <trkpt lat="47.50584" lon="6.72816">
        <ele>401.9</ele>
        <time>2017-02-05T08:57:33.999Z</time>
      </trkpt>
      <trkpt lat="47.50586" lon="6.72814">
        <ele>402.4</ele>
        <time>2017-02-05T08:57:35.999Z</time>
      </trkpt>
      <trkpt lat="47.50588" lon="6.72814">
        <ele>402.6</ele>
        <time>2017-02-05T08:57:36.999Z</time>
      </trkpt>
      <trkpt lat="47.50591" lon="6.72811">
        <ele>403</ele>
        <time>2017-02-05T08:57:38.999Z</time>
      </trkpt>
      <trkpt lat="47.50592" lon="6.72809">
        <ele>403.3</ele>
        <time>2017-02-05T08:57:39.999Z</time>
      </trkpt>
      <trkpt lat="47.50594" lon="6.72808">
        <ele>403.5</ele>
        <time>2017-02-05T08:57:40.999Z</time>
      </trkpt>
      <trkpt lat="47.50596" lon="6.72806">
        <ele>403.6</ele>
        <time>2017-02-05T08:57:41.999Z</time>
      </trkpt>
      <trkpt lat="47.506" lon="6.72802">
        <ele>404.2</ele>
        <time>2017-02-05T08:57:44.999Z</time>
      </trkpt>
      <trkpt lat="47.50601" lon="6.72801">
        <ele>404.4</ele>
        <time>2017-02-05T08:57:45.999Z</time>
      </trkpt>
      <trkpt lat="47.50605" lon="6.72798">
        <ele>404.6</ele>
        <time>2017-02-05T08:57:47.999Z</time>
      </trkpt>
      <trkpt lat="47.50606" lon="6.72797">
        <ele>404.7</ele>
        <time>2017-02-05T08:57:48.999Z</time>
      </trkpt>
      <trkpt lat="47.50609" lon="6.72793">
        <ele>405.1</ele>
        <time>2017-02-05T08:57:50.999Z</time>
      </trkpt>
      <trkpt lat="47.50611" lon="6.7279">
        <ele>405.3</ele>
        <time>2017-02-05T08:57:51.999Z</time>
      </trkpt>
      <trkpt lat="47.50613" lon="6.72789">
        <ele>405.7</ele>
        <time>2017-02-05T08:57:53.999Z</time>
      </trkpt>
      <trkpt lat="47.50616" lon="6.72788">
        <ele>406</ele>
        <time>2017-02-05T08:57:54.999Z</time>
      </trkpt>
      <trkpt lat="47.50619" lon="6.72787">
        <ele>406.3</ele>
        <time>2017-02-05T08:57:55.999Z</time>
      </trkpt>
      <trkpt lat="47.50621" lon="6.72786">
        <ele>406.5</ele>
        <time>2017-02-05T08:57:56.999Z</time>
      </trkpt>
      <trkpt lat="47.50624" lon="6.72784">
        <ele>407</ele>
        <time>2017-02-05T08:57:58.999Z</time>
      </trkpt>
      <trkpt lat="47.50627" lon="6.72782">
        <ele>407.2</ele>
        <time>2017-02-05T08:57:59.999Z</time>
      </trkpt>
      <trkpt lat="47.5063" lon="6.7278">
        <ele>407.4</ele>
        <time>2017-02-05T08:58:00.999Z</time>
      </trkpt>
      <trkpt lat="47.50631" lon="6.7278">
        <ele>407.5</ele>
        <time>2017-02-05T08:58:01.999Z</time>
      </trkpt>
      <trkpt lat="47.50634" lon="6.72777">
        <ele>408</ele>
        <time>2017-02-05T08:58:04.999Z</time>
      </trkpt>
      <trkpt lat="47.50635" lon="6.72774">
        <ele>408.1</ele>
        <time>2017-02-05T08:58:05.999Z</time>
      </trkpt>
      <trkpt lat="47.50637" lon="6.7277">
        <ele>408.3</ele>
        <time>2017-02-05T08:58:07.999Z</time>
      </trkpt>
      <trkpt lat="47.50638" lon="6.72769">
        <ele>408.5</ele>
        <time>2017-02-05T08:58:08.999Z</time>
      </trkpt>
      <trkpt lat="47.50639" lon="6.72766">
        <ele>408.6</ele>
        <time>2017-02-05T08:58:10.999Z</time>
      </trkpt>
      <trkpt lat="47.50642" lon="6.72762">
        <ele>408.7</ele>
        <time>2017-02-05T08:58:11.999Z</time>
      </trkpt>
      <trkpt lat="47.50645" lon="6.72757">
        <ele>409.1</ele>
        <time>2017-02-05T08:58:13.999Z</time>
      </trkpt>
      <trkpt lat="47.50647" lon="6.72756">
        <ele>409.3</ele>
        <time>2017-02-05T08:58:14.999Z</time>
      </trkpt>
      <trkpt lat="47.5065" lon="6.72752">
        <ele>409.6</ele>
        <time>2017-02-05T08:58:15.999Z</time>
      </trkpt>
      <trkpt lat="47.50651" lon="6.7275">
        <ele>409.9</ele>
        <time>2017-02-05T08:58:16.999Z</time>
      </trkpt>
      <trkpt lat="47.50653" lon="6.72745">
        <ele>411.4</ele>
        <time>2017-02-05T08:58:20.999Z</time>
      </trkpt>
      <trkpt lat="47.50654" lon="6.72744">
        <ele>411.8</ele>
        <time>2017-02-05T08:58:21.999Z</time>
      </trkpt>
      <trkpt lat="47.50656" lon="6.72742">
        <ele>412.6</ele>
        <time>2017-02-05T08:58:23.999Z</time>
      </trkpt>
      <trkpt lat="47.50657" lon="6.72739">
        <ele>413</ele>
        <time>2017-02-05T08:58:24.999Z</time>
      </trkpt>
      <trkpt lat="47.5066" lon="6.72734">
        <ele>413.9</ele>
        <time>2017-02-05T08:58:26.999Z</time>
      </trkpt>
      <trkpt lat="47.50662" lon="6.72731">
        <ele>414.1</ele>
        <time>2017-02-05T08:58:27.999Z</time>
      </trkpt>
      <trkpt lat="47.50664" lon="6.72727">
        <ele>414.4</ele>
        <time>2017-02-05T08:58:29.999Z</time>
      </trkpt>
      <trkpt lat="47.50665" lon="6.72725">
        <ele>414.5</ele>
        <time>2017-02-05T08:58:30.999Z</time>
      </trkpt>
      <trkpt lat="47.50668" lon="6.72721">
        <ele>414.4</ele>
        <time>2017-02-05T08:58:32.999Z</time>
      </trkpt>
      <trkpt lat="47.5067" lon="6.7272">
        <ele>414.4</ele>
        <time>2017-02-05T08:58:33.999Z</time>
      </trkpt>
      <trkpt lat="47.50674" lon="6.72717">
        <ele>414.3</ele>
        <time>2017-02-05T08:58:35.999Z</time>
      </trkpt>
      <trkpt lat="47.50675" lon="6.72716">
        <ele>414.2</ele>
        <time>2017-02-05T08:58:36.999Z</time>
      </trkpt>
      <trkpt lat="47.50678" lon="6.72713">
        <ele>414.1</ele>
        <time>2017-02-05T08:58:38.999Z</time>
      </trkpt>
      <trkpt lat="47.50679" lon="6.72711">
        <ele>413.9</ele>
        <time>2017-02-05T08:58:39.999Z</time>
      </trkpt>
      <trkpt lat="47.50681" lon="6.72706">
        <ele>413.8</ele>
        <time>2017-02-05T08:58:41.999Z</time>
      </trkpt>
      <trkpt lat="47.50682" lon="6.72704">
        <ele>413.7</ele>
        <time>2017-02-05T08:58:42.999Z</time>
      </trkpt>
      <trkpt lat="47.50683" lon="6.72699">
        <ele>413.6</ele>
        <time>2017-02-05T08:58:45.999Z</time>
      </trkpt>
      <trkpt lat="47.50684" lon="6.72697">
        <ele>413.6</ele>
        <time>2017-02-05T08:58:46.999Z</time>
      </trkpt>
      <trkpt lat="47.50686" lon="6.72694">
        <ele>413.3</ele>
        <time>2017-02-05T08:58:50.999Z</time>
      </trkpt>
      <trkpt lat="47.50688" lon="6.72693">
        <ele>413.1</ele>
        <time>2017-02-05T08:58:51.999Z</time>
      </trkpt>
      <trkpt lat="47.50691" lon="6.72689">
        <ele>412.9</ele>
        <time>2017-02-05T08:58:53.999Z</time>
      </trkpt>
      <trkpt lat="47.50692" lon="6.72688">
        <ele>412.9</ele>
        <time>2017-02-05T08:58:54.999Z</time>
      </trkpt>
      <trkpt lat="47.50694" lon="6.72686">
        <ele>412.7</ele>
        <time>2017-02-05T08:58:55.999Z</time>
      </trkpt>
      <trkpt lat="47.50697" lon="6.72683">
        <ele>412.7</ele>
        <time>2017-02-05T08:58:56.999Z</time>
      </trkpt>
      <trkpt lat="47.50699" lon="6.7268">
        <ele>412.6</ele>
        <time>2017-02-05T08:58:57.999Z</time>
      </trkpt>
      <trkpt lat="47.507" lon="6.72677">
        <ele>412.5</ele>
        <time>2017-02-05T08:58:58.999Z</time>
      </trkpt>
      <trkpt lat="47.50702" lon="6.72677">
        <ele>412.5</ele>
        <time>2017-02-05T08:58:59.999Z</time>
      </trkpt>
      <trkpt lat="47.50704" lon="6.72673">
        <ele>412.4</ele>
        <time>2017-02-05T08:59:00.999Z</time>
      </trkpt>
      <trkpt lat="47.50705" lon="6.72669">
        <ele>412.2</ele>
        <time>2017-02-05T08:59:01.999Z</time>
      </trkpt>
      <trkpt lat="47.50708" lon="6.72667">
        <ele>412.1</ele>
        <time>2017-02-05T08:59:02.999Z</time>
      </trkpt>
      <trkpt lat="47.50711" lon="6.72667">
        <ele>411.9</ele>
        <time>2017-02-05T08:59:04.999Z</time>
      </trkpt>
      <trkpt lat="47.50713" lon="6.72666">
        <ele>411.9</ele>
        <time>2017-02-05T08:59:05.999Z</time>
      </trkpt>
      <trkpt lat="47.50716" lon="6.72663">
        <ele>411.6</ele>
        <time>2017-02-05T08:59:07.999Z</time>
      </trkpt>
      <trkpt lat="47.50717" lon="6.72663">
        <ele>411.4</ele>
        <time>2017-02-05T08:59:08.999Z</time>
      </trkpt>
      <trkpt lat="47.50718" lon="6.72661">
        <ele>411.3</ele>
        <time>2017-02-05T08:59:09.999Z</time>
      </trkpt>
      <trkpt lat="47.50722" lon="6.72657">
        <ele>411.6</ele>
        <time>2017-02-05T08:59:10.999Z</time>
      </trkpt>
      <trkpt lat="47.50726" lon="6.72654">
        <ele>412</ele>
        <time>2017-02-05T08:59:11.999Z</time>
      </trkpt>
      <trkpt lat="47.50732" lon="6.72649">
        <ele>412.6</ele>
        <time>2017-02-05T08:59:12.999Z</time>
      </trkpt>
      <trkpt lat="47.50737" lon="6.72646">
        <ele>413.2</ele>
        <time>2017-02-05T08:59:13.999Z</time>
      </trkpt>
      <trkpt lat="47.5074" lon="6.72644">
        <ele>413.7</ele>
        <time>2017-02-05T08:59:14.999Z</time>
      </trkpt>
      <trkpt lat="47.50742" lon="6.72641">
        <ele>414</ele>
        <time>2017-02-05T08:59:15.999Z</time>
      </trkpt>
      <trkpt lat="47.50744" lon="6.72638">
        <ele>414.4</ele>
        <time>2017-02-05T08:59:16.999Z</time>
      </trkpt>
      <trkpt lat="47.50746" lon="6.72635">
        <ele>414.7</ele>
        <time>2017-02-05T08:59:17.999Z</time>
      </trkpt>
      <trkpt lat="47.50748" lon="6.72633">
        <ele>415.1</ele>
        <time>2017-02-05T08:59:18.999Z</time>
      </trkpt>
      <trkpt lat="47.5075" lon="6.7263">
        <ele>415.4</ele>
        <time>2017-02-05T08:59:19.999Z</time>
      </trkpt>
      <trkpt lat="47.50752" lon="6.72628">
        <ele>415.8</ele>
        <time>2017-02-05T08:59:20.999Z</time>
      </trkpt>
      <trkpt lat="47.50754" lon="6.72625">
        <ele>416</ele>
        <time>2017-02-05T08:59:21.999Z</time>
      </trkpt>
      <trkpt lat="47.50755" lon="6.72622">
        <ele>416.4</ele>
        <time>2017-02-05T08:59:22.999Z</time>
      </trkpt>
      <trkpt lat="47.50757" lon="6.7262">
        <ele>416.6</ele>
        <time>2017-02-05T08:59:23.999Z</time>
      </trkpt>
      <trkpt lat="47.50761" lon="6.72615">
        <ele>417.3</ele>
        <time>2017-02-05T08:59:26.999Z</time>
      </trkpt>
      <trkpt lat="47.50763" lon="6.72614">
        <ele>417.5</ele>
        <time>2017-02-05T08:59:27.999Z</time>
      </trkpt>
      <trkpt lat="47.50769" lon="6.7261">
        <ele>417.8</ele>
        <time>2017-02-05T08:59:29.999Z</time>
      </trkpt>
      <trkpt lat="47.50772" lon="6.72607">
        <ele>417.9</ele>
        <time>2017-02-05T08:59:30.999Z</time>
      </trkpt>
      <trkpt lat="47.50774" lon="6.72605">
        <ele>418</ele>
        <time>2017-02-05T08:59:31.999Z</time>
      </trkpt>
      <trkpt lat="47.50777" lon="6.72602">
        <ele>418.2</ele>
        <time>2017-02-05T08:59:32.999Z</time>
      </trkpt>
      <trkpt lat="47.50779" lon="6.72599">
        <ele>418.2</ele>
        <time>2017-02-05T08:59:33.999Z</time>
      </trkpt>
      <trkpt lat="47.50781" lon="6.72594">
        <ele>418.3</ele>
        <time>2017-02-05T08:59:35.999Z</time>
      </trkpt>
      <trkpt lat="47.50782" lon="6.72592">
        <ele>418.4</ele>
        <time>2017-02-05T08:59:36.999Z</time>
      </trkpt>
      <trkpt lat="47.50784" lon="6.72587">
        <ele>418.3</ele>
        <time>2017-02-05T08:59:38.999Z</time>
      </trkpt>
      <trkpt lat="47.50785" lon="6.72585">
        <ele>418.2</ele>
        <time>2017-02-05T08:59:39.999Z</time>
      </trkpt>
      <trkpt lat="47.50787" lon="6.72582">
        <ele>418.1</ele>
        <time>2017-02-05T08:59:40.999Z</time>
      </trkpt>
      <trkpt lat="47.50788" lon="6.7258">
        <ele>418</ele>
        <time>2017-02-05T08:59:41.999Z</time>
      </trkpt>
      <trkpt lat="47.5079" lon="6.72576">
        <ele>417.8</ele>
        <time>2017-02-05T08:59:42.999Z</time>
      </trkpt>
      <trkpt lat="47.50792" lon="6.72572">
        <ele>417.7</ele>
        <time>2017-02-05T08:59:43.999Z</time>
      </trkpt>
      <trkpt lat="47.50794" lon="6.7257">
        <ele>417.4</ele>
        <time>2017-02-05T08:59:44.999Z</time>
      </trkpt>
      <trkpt lat="47.50795" lon="6.72566">
        <ele>417.1</ele>
        <time>2017-02-05T08:59:45.999Z</time>
      </trkpt>
      <trkpt lat="47.50797" lon="6.72562">
        <ele>416.8</ele>
        <time>2017-02-05T08:59:46.999Z</time>
      </trkpt>
      <trkpt lat="47.50798" lon="6.72559">
        <ele>416.6</ele>
        <time>2017-02-05T08:59:47.999Z</time>
      </trkpt>
      <trkpt lat="47.50801" lon="6.72556">
        <ele>416.4</ele>
        <time>2017-02-05T08:59:48.999Z</time>
      </trkpt>
      <trkpt lat="47.50802" lon="6.72554">
        <ele>416.1</ele>
        <time>2017-02-05T08:59:49.999Z</time>
      </trkpt>
      <trkpt lat="47.50803" lon="6.72552">
        <ele>416</ele>
        <time>2017-02-05T08:59:50.999Z</time>
      </trkpt>
      <trkpt lat="47.50805" lon="6.7255">
        <ele>415.8</ele>
        <time>2017-02-05T08:59:51.999Z</time>
      </trkpt>
      <trkpt lat="47.50808" lon="6.72547">
        <ele>415.6</ele>
        <time>2017-02-05T08:59:52.999Z</time>
      </trkpt>
      <trkpt lat="47.5081" lon="6.72544">
        <ele>415.6</ele>
        <time>2017-02-05T08:59:53.999Z</time>
      </trkpt>
      <trkpt lat="47.50813" lon="6.72541">
        <ele>415.6</ele>
        <time>2017-02-05T08:59:54.999Z</time>
      </trkpt>
      <trkpt lat="47.50815" lon="6.72539">
        <ele>415.7</ele>
        <time>2017-02-05T08:59:55.999Z</time>
      </trkpt>
      <trkpt lat="47.50817" lon="6.72538">
        <ele>415.8</ele>
        <time>2017-02-05T08:59:56.999Z</time>
      </trkpt>
      <trkpt lat="47.50821" lon="6.72537">
        <ele>415.8</ele>
        <time>2017-02-05T08:59:57.999Z</time>
      </trkpt>
      <trkpt lat="47.50824" lon="6.72536">
        <ele>415.7</ele>
        <time>2017-02-05T08:59:58.999Z</time>
      </trkpt>
      <trkpt lat="47.50826" lon="6.72535">
        <ele>415.8</ele>
        <time>2017-02-05T08:59:59.999Z</time>
      </trkpt>
      <trkpt lat="47.50827" lon="6.72534">
        <ele>415.8</ele>
        <time>2017-02-05T09:00:00.999Z</time>
      </trkpt>
      <trkpt lat="47.5083" lon="6.72533">
        <ele>415.8</ele>
        <time>2017-02-05T09:00:01.999Z</time>
      </trkpt>
      <trkpt lat="47.50832" lon="6.72532">
        <ele>415.8</ele>
        <time>2017-02-05T09:00:02.999Z</time>
      </trkpt>
      <trkpt lat="47.50835" lon="6.72532">
        <ele>415.8</ele>
        <time>2017-02-05T09:00:03.999Z</time>
      </trkpt>
      <trkpt lat="47.50839" lon="6.72531">
        <ele>415.6</ele>
        <time>2017-02-05T09:00:05.999Z</time>
      </trkpt>
      <trkpt lat="47.50841" lon="6.72531">
        <ele>415.4</ele>
        <time>2017-02-05T09:00:06.999Z</time>
      </trkpt>
      <trkpt lat="47.50845" lon="6.7253">
        <ele>415.2</ele>
        <time>2017-02-05T09:00:08.999Z</time>
      </trkpt>
      <trkpt lat="47.50846" lon="6.7253">
        <ele>415</ele>
        <time>2017-02-05T09:00:09.999Z</time>
      </trkpt>
      <trkpt lat="47.50849" lon="6.72529">
        <ele>414.4</ele>
        <time>2017-02-05T09:00:11.999Z</time>
      </trkpt>
      <trkpt lat="47.5085" lon="6.72529">
        <ele>414.3</ele>
        <time>2017-02-05T09:00:12.999Z</time>
      </trkpt>
      <trkpt lat="47.50854" lon="6.72529">
        <ele>413.5</ele>
        <time>2017-02-05T09:00:15.999Z</time>
      </trkpt>
      <trkpt lat="47.50855" lon="6.72529">
        <ele>413.2</ele>
        <time>2017-02-05T09:00:16.999Z</time>
      </trkpt>
      <trkpt lat="47.50858" lon="6.72529">
        <ele>411.4</ele>
        <time>2017-02-05T09:00:20.999Z</time>
      </trkpt>
      <trkpt lat="47.50859" lon="6.72528">
        <ele>411</ele>
        <time>2017-02-05T09:00:21.999Z</time>
      </trkpt>
      <trkpt lat="47.50862" lon="6.72526">
        <ele>410</ele>
        <time>2017-02-05T09:00:24.999Z</time>
      </trkpt>
      <trkpt lat="47.50864" lon="6.72526">
        <ele>409.5</ele>
        <time>2017-02-05T09:00:25.999Z</time>
      </trkpt>
      <trkpt lat="47.50868" lon="6.72524">
        <ele>407.8</ele>
        <time>2017-02-05T09:00:29.999Z</time>
      </trkpt>
      <trkpt lat="47.50869" lon="6.72524">
        <ele>407.3</ele>
        <time>2017-02-05T09:00:30.999Z</time>
      </trkpt>
      <trkpt lat="47.50873" lon="6.72523">
        <ele>405.1</ele>
        <time>2017-02-05T09:00:36.999Z</time>
      </trkpt>
      <trkpt lat="47.50874" lon="6.72522">
        <ele>404.8</ele>
        <time>2017-02-05T09:00:37.999Z</time>
      </trkpt>
      <trkpt lat="47.50877" lon="6.72522">
        <ele>403.5</ele>
        <time>2017-02-05T09:00:41.999Z</time>
      </trkpt>
      <trkpt lat="47.50879" lon="6.72522">
        <ele>403.4</ele>
        <time>2017-02-05T09:00:42.999Z</time>
      </trkpt>
      <trkpt lat="47.50883" lon="6.7252">
        <ele>402.8</ele>
        <time>2017-02-05T09:00:46.999Z</time>
      </trkpt>
      <trkpt lat="47.50885" lon="6.7252">
        <ele>402.6</ele>
        <time>2017-02-05T09:00:47.999Z</time>
      </trkpt>
      <trkpt lat="47.50888" lon="6.72519">
        <ele>402.3</ele>
        <time>2017-02-05T09:00:50.999Z</time>
      </trkpt>
      <trkpt lat="47.5089" lon="6.72519">
        <ele>402.2</ele>
        <time>2017-02-05T09:00:51.999Z</time>
      </trkpt>
      <trkpt lat="47.50893" lon="6.7252">
        <ele>402.5</ele>
        <time>2017-02-05T09:00:58.999Z</time>
      </trkpt>
      <trkpt lat="47.50896" lon="6.7252">
        <ele>402.7</ele>
        <time>2017-02-05T09:00:59.999Z</time>
      </trkpt>
      <trkpt lat="47.50899" lon="6.7252">
        <ele>402.3</ele>
        <time>2017-02-05T09:01:03.999Z</time>
      </trkpt>
      <trkpt lat="47.509" lon="6.7252">
        <ele>402.3</ele>
        <time>2017-02-05T09:01:04.999Z</time>
      </trkpt>
      <trkpt lat="47.50904" lon="6.7252">
        <ele>402.3</ele>
        <time>2017-02-05T09:01:07.999Z</time>
      </trkpt>
      <trkpt lat="47.50906" lon="6.7252">
        <ele>402.2</ele>
        <time>2017-02-05T09:01:08.999Z</time>
      </trkpt>
      <trkpt lat="47.50909" lon="6.72519">
        <ele>402.1</ele>
        <time>2017-02-05T09:01:12.999Z</time>
      </trkpt>
      <trkpt lat="47.50911" lon="6.72519">
        <ele>402.2</ele>
        <time>2017-02-05T09:01:13.999Z</time>
      </trkpt>
      <trkpt lat="47.50915" lon="6.72518">
        <ele>402.7</ele>
        <time>2017-02-05T09:01:15.999Z</time>
      </trkpt>
      <trkpt lat="47.50917" lon="6.72516">
        <ele>403</ele>
        <time>2017-02-05T09:01:16.999Z</time>
      </trkpt>
      <trkpt lat="47.5092" lon="6.72514">
        <ele>404.7</ele>
        <time>2017-02-05T09:01:21.999Z</time>
      </trkpt>
      <trkpt lat="47.50922" lon="6.72514">
        <ele>404.9</ele>
        <time>2017-02-05T09:01:22.999Z</time>
      </trkpt>
      <trkpt lat="47.50926" lon="6.72515">
        <ele>405</ele>
        <time>2017-02-05T09:01:24.999Z</time>
      </trkpt>
      <trkpt lat="47.50928" lon="6.72515">
        <ele>405.1</ele>
        <time>2017-02-05T09:01:25.999Z</time>
      </trkpt>
      <trkpt lat="47.50931" lon="6.72515">
        <ele>405.2</ele>
        <time>2017-02-05T09:01:26.999Z</time>
      </trkpt>
      <trkpt lat="47.50934" lon="6.72514">
        <ele>405.4</ele>
        <time>2017-02-05T09:01:27.999Z</time>
      </trkpt>
      <trkpt lat="47.50938" lon="6.72514">
        <ele>405.5</ele>
        <time>2017-02-05T09:01:29.999Z</time>
      </trkpt>
      <trkpt lat="47.5094" lon="6.72514">
        <ele>405.7</ele>
        <time>2017-02-05T09:01:30.999Z</time>
      </trkpt>
      <trkpt lat="47.50942" lon="6.72514">
        <ele>405.9</ele>
        <time>2017-02-05T09:01:31.999Z</time>
      </trkpt>
      <trkpt lat="47.50946" lon="6.72511">
        <ele>406.3</ele>
        <time>2017-02-05T09:01:32.999Z</time>
      </trkpt>
      <trkpt lat="47.50951" lon="6.72507">
        <ele>406.6</ele>
        <time>2017-02-05T09:01:33.999Z</time>
      </trkpt>
      <trkpt lat="47.50956" lon="6.72505">
        <ele>406.9</ele>
        <time>2017-02-05T09:01:34.999Z</time>
      </trkpt>
      <trkpt lat="47.5096" lon="6.72503">
        <ele>407.3</ele>
        <time>2017-02-05T09:01:35.999Z</time>
      </trkpt>
      <trkpt lat="47.50964" lon="6.72504">
        <ele>408.1</ele>
        <time>2017-02-05T09:01:37.999Z</time>
      </trkpt>
      <trkpt lat="47.50966" lon="6.72504">
        <ele>408.5</ele>
        <time>2017-02-05T09:01:38.999Z</time>
      </trkpt>
      <trkpt lat="47.50969" lon="6.72504">
        <ele>409</ele>
        <time>2017-02-05T09:01:39.999Z</time>
      </trkpt>
      <trkpt lat="47.50971" lon="6.72505">
        <ele>409.4</ele>
        <time>2017-02-05T09:01:40.999Z</time>
      </trkpt>
      <trkpt lat="47.50974" lon="6.72506">
        <ele>410.8</ele>
        <time>2017-02-05T09:01:43.999Z</time>
      </trkpt>
      <trkpt lat="47.50977" lon="6.72506">
        <ele>411.3</ele>
        <time>2017-02-05T09:01:44.999Z</time>
      </trkpt>
      <trkpt lat="47.50981" lon="6.72507">
        <ele>413.4</ele>
        <time>2017-02-05T09:01:47.999Z</time>
      </trkpt>
      <trkpt lat="47.50987" lon="6.72507">
        <ele>414.3</ele>
        <time>2017-02-05T09:01:48.999Z</time>
      </trkpt>
      <trkpt lat="47.50992" lon="6.72508">
        <ele>415.5</ele>
        <time>2017-02-05T09:01:50.999Z</time>
      </trkpt>
      <trkpt lat="47.50995" lon="6.72507">
        <ele>416.6</ele>
        <time>2017-02-05T09:01:51.999Z</time>
      </trkpt>
      <trkpt lat="47.50999" lon="6.72508">
        <ele>417.7</ele>
        <time>2017-02-05T09:01:52.999Z</time>
      </trkpt>
      <trkpt lat="47.51003" lon="6.72508">
        <ele>418.9</ele>
        <time>2017-02-05T09:01:53.999Z</time>
      </trkpt>
      <trkpt lat="47.51005" lon="6.72509">
        <ele>421.9</ele>
        <time>2017-02-05T09:01:56.999Z</time>
      </trkpt>
      <trkpt lat="47.5101" lon="6.72509">
        <ele>423.1</ele>
        <time>2017-02-05T09:01:57.999Z</time>
      </trkpt>
      <trkpt lat="47.51014" lon="6.72509">
        <ele>424.3</ele>
        <time>2017-02-05T09:01:58.999Z</time>
      </trkpt>
      <trkpt lat="47.51018" lon="6.72509">
        <ele>425.6</ele>
        <time>2017-02-05T09:01:59.999Z</time>
      </trkpt>
      <trkpt lat="47.51022" lon="6.72509">
        <ele>427</ele>
        <time>2017-02-05T09:02:00.999Z</time>
      </trkpt>
      <trkpt lat="47.51027" lon="6.7251">
        <ele>430.4</ele>
        <time>2017-02-05T09:02:03.999Z</time>
      </trkpt>
      <trkpt lat="47.51029" lon="6.72511">
        <ele>431.5</ele>
        <time>2017-02-05T09:02:04.999Z</time>
      </trkpt>
      <trkpt lat="47.51033" lon="6.72512">
        <ele>434.8</ele>
        <time>2017-02-05T09:02:07.999Z</time>
      </trkpt>
      <trkpt lat="47.51036" lon="6.72514">
        <ele>435.9</ele>
        <time>2017-02-05T09:02:08.999Z</time>
      </trkpt>
      <trkpt lat="47.51039" lon="6.72513">
        <ele>437.9</ele>
        <time>2017-02-05T09:02:10.999Z</time>
      </trkpt>
      <trkpt lat="47.51041" lon="6.72512">
        <ele>438.6</ele>
        <time>2017-02-05T09:02:11.999Z</time>
      </trkpt>
      <trkpt lat="47.51044" lon="6.7251">
        <ele>439.5</ele>
        <time>2017-02-05T09:02:12.999Z</time>
      </trkpt>
      <trkpt lat="47.51048" lon="6.7251">
        <ele>440.4</ele>
        <time>2017-02-05T09:02:13.999Z</time>
      </trkpt>
      <trkpt lat="47.51051" lon="6.7251">
        <ele>443.1</ele>
        <time>2017-02-05T09:02:16.999Z</time>
      </trkpt>
      <trkpt lat="47.51055" lon="6.72511">
        <ele>444</ele>
        <time>2017-02-05T09:02:17.999Z</time>
      </trkpt>
      <trkpt lat="47.51058" lon="6.72512">
        <ele>444.8</ele>
        <time>2017-02-05T09:02:18.999Z</time>
      </trkpt>
      <trkpt lat="47.51061" lon="6.72513">
        <ele>445.6</ele>
        <time>2017-02-05T09:02:19.999Z</time>
      </trkpt>
      <trkpt lat="47.51064" lon="6.72513">
        <ele>446.3</ele>
        <time>2017-02-05T09:02:20.999Z</time>
      </trkpt>
      <trkpt lat="47.51067" lon="6.72515">
        <ele>446.9</ele>
        <time>2017-02-05T09:02:21.999Z</time>
      </trkpt>
      <trkpt lat="47.51069" lon="6.72516">
        <ele>447.4</ele>
        <time>2017-02-05T09:02:22.999Z</time>
      </trkpt>
      <trkpt lat="47.51071" lon="6.72516">
        <ele>448</ele>
        <time>2017-02-05T09:02:23.999Z</time>
      </trkpt>
      <trkpt lat="47.51075" lon="6.72517">
        <ele>449.1</ele>
        <time>2017-02-05T09:02:25.999Z</time>
      </trkpt>
      <trkpt lat="47.51076" lon="6.72518">
        <ele>449.6</ele>
        <time>2017-02-05T09:02:26.999Z</time>
      </trkpt>
      <trkpt lat="47.51079" lon="6.72519">
        <ele>450.7</ele>
        <time>2017-02-05T09:02:28.999Z</time>
      </trkpt>
      <trkpt lat="47.51081" lon="6.7252">
        <ele>451.4</ele>
        <time>2017-02-05T09:02:29.999Z</time>
      </trkpt>
      <trkpt lat="47.51084" lon="6.72521">
        <ele>452.9</ele>
        <time>2017-02-05T09:02:31.999Z</time>
      </trkpt>
      <trkpt lat="47.51085" lon="6.72522">
        <ele>453.5</ele>
        <time>2017-02-05T09:02:32.999Z</time>
      </trkpt>
      <trkpt lat="47.51089" lon="6.72525">
        <ele>456.8</ele>
        <time>2017-02-05T09:02:36.999Z</time>
      </trkpt>
      <trkpt lat="47.51091" lon="6.72526">
        <ele>457.7</ele>
        <time>2017-02-05T09:02:37.999Z</time>
      </trkpt>
      <trkpt lat="47.51093" lon="6.72528">
        <ele>458.3</ele>
        <time>2017-02-05T09:02:38.999Z</time>
      </trkpt>
      <trkpt lat="47.51096" lon="6.72529">
        <ele>459</ele>
        <time>2017-02-05T09:02:39.999Z</time>
      </trkpt>
      <trkpt lat="47.511" lon="6.72531">
        <ele>459.7</ele>
        <time>2017-02-05T09:02:41.999Z</time>
      </trkpt>
      <trkpt lat="47.51101" lon="6.72532">
        <ele>460.1</ele>
        <time>2017-02-05T09:02:42.999Z</time>
      </trkpt>
      <trkpt lat="47.51105" lon="6.72532">
        <ele>461.9</ele>
        <time>2017-02-05T09:02:47.999Z</time>
      </trkpt>
      <trkpt lat="47.51106" lon="6.72533">
        <ele>462.2</ele>
        <time>2017-02-05T09:02:48.999Z</time>
      </trkpt>
      <trkpt lat="47.5111" lon="6.72532">
        <ele>463.6</ele>
        <time>2017-02-05T09:02:52.999Z</time>
      </trkpt>
      <trkpt lat="47.51111" lon="6.72532">
        <ele>463.8</ele>
        <time>2017-02-05T09:02:53.999Z</time>
      </trkpt>
      <trkpt lat="47.51115" lon="6.72532">
        <ele>464.6</ele>
        <time>2017-02-05T09:02:56.999Z</time>
      </trkpt>
      <trkpt lat="47.51117" lon="6.72532">
        <ele>464.7</ele>
        <time>2017-02-05T09:02:57.999Z</time>
      </trkpt>
      <trkpt lat="47.51122" lon="6.72532">
        <ele>466</ele>
        <time>2017-02-05T09:03:04.999Z</time>
      </trkpt>
      <trkpt lat="47.51123" lon="6.72533">
        <ele>466.1</ele>
        <time>2017-02-05T09:03:05.999Z</time>
      </trkpt>
      <trkpt lat="47.51127" lon="6.72535">
        <ele>466.4</ele>
        <time>2017-02-05T09:03:09.999Z</time>
      </trkpt>
      <trkpt lat="47.51127" lon="6.72535">
        <ele>466.5</ele>
        <time>2017-02-05T09:03:10.999Z</time>
      </trkpt>
      <trkpt lat="47.5113" lon="6.7254">
        <ele>469.5</ele>
        <time>2017-02-05T09:03:35.999Z</time>
      </trkpt>
      <trkpt lat="47.51132" lon="6.72541">
        <ele>469.5</ele>
        <time>2017-02-05T09:03:36.999Z</time>
      </trkpt>
      <trkpt lat="47.51136" lon="6.72543">
        <ele>469.5</ele>
        <time>2017-02-05T09:03:38.999Z</time>
      </trkpt>
      <trkpt lat="47.51137" lon="6.72542">
        <ele>469.5</ele>
        <time>2017-02-05T09:03:39.999Z</time>
      </trkpt>
      <trkpt lat="47.51141" lon="6.72543">
        <ele>469.5</ele>
        <time>2017-02-05T09:03:43.999Z</time>
      </trkpt>
      <trkpt lat="47.51144" lon="6.72543">
        <ele>469.5</ele>
        <time>2017-02-05T09:03:44.999Z</time>
      </trkpt>
      <trkpt lat="47.51147" lon="6.72543">
        <ele>469.5</ele>
        <time>2017-02-05T09:03:45.999Z</time>
      </trkpt>
      <trkpt lat="47.51149" lon="6.72543">
        <ele>469.6</ele>
        <time>2017-02-05T09:03:46.999Z</time>
      </trkpt>
      <trkpt lat="47.51151" lon="6.72542">
        <ele>469.6</ele>
        <time>2017-02-05T09:03:47.999Z</time>
      </trkpt>
      <trkpt lat="47.51153" lon="6.72542">
        <ele>469.7</ele>
        <time>2017-02-05T09:03:48.999Z</time>
      </trkpt>
      <trkpt lat="47.51157" lon="6.7254">
        <ele>469.7</ele>
        <time>2017-02-05T09:03:52.999Z</time>
      </trkpt>
      <trkpt lat="47.51159" lon="6.7254">
        <ele>469.5</ele>
        <time>2017-02-05T09:03:53.999Z</time>
      </trkpt>
      <trkpt lat="47.5116" lon="6.72545">
        <ele>469.7</ele>
        <time>2017-02-05T09:03:57.999Z</time>
      </trkpt>
      <trkpt lat="47.5116" lon="6.72547">
        <ele>469.9</ele>
        <time>2017-02-05T09:03:58.999Z</time>
      </trkpt>
      <trkpt lat="47.51163" lon="6.72552">
        <ele>469.7</ele>
        <time>2017-02-05T09:04:01.999Z</time>
      </trkpt>
      <trkpt lat="47.51164" lon="6.72554">
        <ele>469.6</ele>
        <time>2017-02-05T09:04:02.999Z</time>
      </trkpt>
      <trkpt lat="47.51168" lon="6.72556">
        <ele>470</ele>
        <time>2017-02-05T09:04:08.999Z</time>
      </trkpt>
      <trkpt lat="47.51168" lon="6.72557">
        <ele>470.1</ele>
        <time>2017-02-05T09:04:09.999Z</time>
      </trkpt>
      <trkpt lat="47.51171" lon="6.72558">
        <ele>470.3</ele>
        <time>2017-02-05T09:04:20.999Z</time>
      </trkpt>
      <trkpt lat="47.51172" lon="6.72559">
        <ele>470.4</ele>
        <time>2017-02-05T09:04:21.999Z</time>
      </trkpt>
      <trkpt lat="47.51176" lon="6.7256">
        <ele>470.4</ele>
        <time>2017-02-05T09:04:22.999Z</time>
      </trkpt>
      <trkpt lat="47.51179" lon="6.72561">
        <ele>470.4</ele>
        <time>2017-02-05T09:04:23.999Z</time>
      </trkpt>
      <trkpt lat="47.51181" lon="6.72561">
        <ele>470.4</ele>
        <time>2017-02-05T09:04:24.999Z</time>
      </trkpt>
      <trkpt lat="47.51184" lon="6.72561">
        <ele>470.4</ele>
        <time>2017-02-05T09:04:25.999Z</time>
      </trkpt>
      <trkpt lat="47.51188" lon="6.72561">
        <ele>470.4</ele>
        <time>2017-02-05T09:04:26.999Z</time>
      </trkpt>
      <trkpt lat="47.51191" lon="6.72562">
        <ele>470.4</ele>
        <time>2017-02-05T09:04:27.999Z</time>
      </trkpt>
      <trkpt lat="47.51194" lon="6.72561">
        <ele>470.3</ele>
        <time>2017-02-05T09:04:28.999Z</time>
      </trkpt>
      <trkpt lat="47.51197" lon="6.72561">
        <ele>470.2</ele>
        <time>2017-02-05T09:04:29.999Z</time>
      </trkpt>
      <trkpt lat="47.51201" lon="6.72562">
        <ele>470.1</ele>
        <time>2017-02-05T09:04:31.999Z</time>
      </trkpt>
      <trkpt lat="47.51203" lon="6.72563">
        <ele>470.1</ele>
        <time>2017-02-05T09:04:32.999Z</time>
      </trkpt>
      <trkpt lat="47.51206" lon="6.72564">
        <ele>470</ele>
        <time>2017-02-05T09:04:33.999Z</time>
      </trkpt>
      <trkpt lat="47.51209" lon="6.72566">
        <ele>470</ele>
        <time>2017-02-05T09:04:34.999Z</time>
      </trkpt>
      <trkpt lat="47.51212" lon="6.72569">
        <ele>470</ele>
        <time>2017-02-05T09:04:35.999Z</time>
      </trkpt>
      <trkpt lat="47.51214" lon="6.72571">
        <ele>470</ele>
        <time>2017-02-05T09:04:36.999Z</time>
      </trkpt>
      <trkpt lat="47.51218" lon="6.72573">
        <ele>470</ele>
        <time>2017-02-05T09:04:38.999Z</time>
      </trkpt>
      <trkpt lat="47.51221" lon="6.72575">
        <ele>470</ele>
        <time>2017-02-05T09:04:39.999Z</time>
      </trkpt>
      <trkpt lat="47.51224" lon="6.72576">
        <ele>470.1</ele>
        <time>2017-02-05T09:04:40.999Z</time>
      </trkpt>
      <trkpt lat="47.51226" lon="6.72576">
        <ele>470</ele>
        <time>2017-02-05T09:04:41.999Z</time>
      </trkpt>
      <trkpt lat="47.51229" lon="6.72577">
        <ele>469.9</ele>
        <time>2017-02-05T09:04:42.999Z</time>
      </trkpt>
      <trkpt lat="47.51233" lon="6.72577">
        <ele>469.8</ele>
        <time>2017-02-05T09:04:43.999Z</time>
      </trkpt>
      <trkpt lat="47.51235" lon="6.72577">
        <ele>469.8</ele>
        <time>2017-02-05T09:04:44.999Z</time>
      </trkpt>
      <trkpt lat="47.51239" lon="6.72577">
        <ele>469.8</ele>
        <time>2017-02-05T09:04:45.999Z</time>
      </trkpt>
      <trkpt lat="47.51243" lon="6.72577">
        <ele>469.8</ele>
        <time>2017-02-05T09:04:46.999Z</time>
      </trkpt>
      <trkpt lat="47.51247" lon="6.72578">
        <ele>469.8</ele>
        <time>2017-02-05T09:04:47.999Z</time>
      </trkpt>
      <trkpt lat="47.51251" lon="6.72579">
        <ele>469.9</ele>
        <time>2017-02-05T09:04:48.999Z</time>
      </trkpt>
      <trkpt lat="47.51255" lon="6.7258">
        <ele>469.8</ele>
        <time>2017-02-05T09:04:49.999Z</time>
      </trkpt>
      <trkpt lat="47.51259" lon="6.7258">
        <ele>469.8</ele>
        <time>2017-02-05T09:04:50.999Z</time>
      </trkpt>
      <trkpt lat="47.51263" lon="6.72582">
        <ele>469.6</ele>
        <time>2017-02-05T09:04:52.999Z</time>
      </trkpt>
      <trkpt lat="47.51266" lon="6.72584">
        <ele>469.6</ele>
        <time>2017-02-05T09:04:53.999Z</time>
      </trkpt>
      <trkpt lat="47.5127" lon="6.72586">
        <ele>469.5</ele>
        <time>2017-02-05T09:04:54.999Z</time>
      </trkpt>
      <trkpt lat="47.51274" lon="6.72587">
        <ele>469.5</ele>
        <time>2017-02-05T09:04:55.999Z</time>
      </trkpt>
      <trkpt lat="47.51277" lon="6.72588">
        <ele>469.4</ele>
        <time>2017-02-05T09:04:56.999Z</time>
      </trkpt>
      <trkpt lat="47.51281" lon="6.7259">
        <ele>469.3</ele>
        <time>2017-02-05T09:04:57.999Z</time>
      </trkpt>
      <trkpt lat="47.51286" lon="6.72593">
        <ele>469.3</ele>
        <time>2017-02-05T09:04:58.999Z</time>
      </trkpt>
      <trkpt lat="47.5129" lon="6.72594">
        <ele>469.3</ele>
        <time>2017-02-05T09:04:59.999Z</time>
      </trkpt>
      <trkpt lat="47.51294" lon="6.72596">
        <ele>469.4</ele>
        <time>2017-02-05T09:05:00.999Z</time>
      </trkpt>
      <trkpt lat="47.51298" lon="6.72598">
        <ele>469.4</ele>
        <time>2017-02-05T09:05:01.999Z</time>
      </trkpt>
      <trkpt lat="47.51302" lon="6.72599">
        <ele>469.4</ele>
        <time>2017-02-05T09:05:02.999Z</time>
      </trkpt>
      <trkpt lat="47.51306" lon="6.72601">
        <ele>469.5</ele>
        <time>2017-02-05T09:05:03.999Z</time>
      </trkpt>
      <trkpt lat="47.51309" lon="6.72604">
        <ele>469.5</ele>
        <time>2017-02-05T09:05:04.999Z</time>
      </trkpt>
      <trkpt lat="47.51312" lon="6.72606">
        <ele>469.5</ele>
        <time>2017-02-05T09:05:05.999Z</time>
      </trkpt>
      <trkpt lat="47.51315" lon="6.72609">
        <ele>469.6</ele>
        <time>2017-02-05T09:05:06.999Z</time>
      </trkpt>
      <trkpt lat="47.51318" lon="6.72612">
        <ele>469.7</ele>
        <time>2017-02-05T09:05:07.999Z</time>
      </trkpt>
      <trkpt lat="47.51322" lon="6.72616">
        <ele>469.8</ele>
        <time>2017-02-05T09:05:08.999Z</time>
      </trkpt>
      <trkpt lat="47.51327" lon="6.72619">
        <ele>469.8</ele>
        <time>2017-02-05T09:05:09.999Z</time>
      </trkpt>
      <trkpt lat="47.51332" lon="6.72624">
        <ele>470</ele>
        <time>2017-02-05T09:05:10.999Z</time>
      </trkpt>
      <trkpt lat="47.51335" lon="6.72627">
        <ele>470.2</ele>
        <time>2017-02-05T09:05:11.999Z</time>
      </trkpt>
      <trkpt lat="47.51337" lon="6.72628">
        <ele>470.4</ele>
        <time>2017-02-05T09:05:12.999Z</time>
      </trkpt>
      <trkpt lat="47.51342" lon="6.72627">
        <ele>470.6</ele>
        <time>2017-02-05T09:05:13.999Z</time>
      </trkpt>
      <trkpt lat="47.51345" lon="6.72626">
        <ele>470.8</ele>
        <time>2017-02-05T09:05:14.999Z</time>
      </trkpt>
      <trkpt lat="47.51349" lon="6.72624">
        <ele>470.9</ele>
        <time>2017-02-05T09:05:15.999Z</time>
      </trkpt>
      <trkpt lat="47.51351" lon="6.72623">
        <ele>471</ele>
        <time>2017-02-05T09:05:16.999Z</time>
      </trkpt>
      <trkpt lat="47.51353" lon="6.72622">
        <ele>471.2</ele>
        <time>2017-02-05T09:05:17.999Z</time>
      </trkpt>
      <trkpt lat="47.51356" lon="6.72621">
        <ele>471.2</ele>
        <time>2017-02-05T09:05:18.999Z</time>
      </trkpt>
      <trkpt lat="47.51359" lon="6.7262">
        <ele>471.2</ele>
        <time>2017-02-05T09:05:19.999Z</time>
      </trkpt>
      <trkpt lat="47.51361" lon="6.72619">
        <ele>471.2</ele>
        <time>2017-02-05T09:05:20.999Z</time>
      </trkpt>
      <trkpt lat="47.51365" lon="6.72617">
        <ele>471.4</ele>
        <time>2017-02-05T09:05:21.999Z</time>
      </trkpt>
      <trkpt lat="47.51368" lon="6.72616">
        <ele>471.5</ele>
        <time>2017-02-05T09:05:22.999Z</time>
      </trkpt>
      <trkpt lat="47.51372" lon="6.72615">
        <ele>471.7</ele>
        <time>2017-02-05T09:05:23.999Z</time>
      </trkpt>
      <trkpt lat="47.51375" lon="6.72614">
        <ele>471.9</ele>
        <time>2017-02-05T09:05:24.999Z</time>
      </trkpt>
      <trkpt lat="47.51378" lon="6.72614">
        <ele>472</ele>
        <time>2017-02-05T09:05:25.999Z</time>
      </trkpt>
      <trkpt lat="47.51381" lon="6.72613">
        <ele>472.1</ele>
        <time>2017-02-05T09:05:26.999Z</time>
      </trkpt>
      <trkpt lat="47.51384" lon="6.72612">
        <ele>472.2</ele>
        <time>2017-02-05T09:05:27.999Z</time>
      </trkpt>
      <trkpt lat="47.51387" lon="6.7261">
        <ele>472.3</ele>
        <time>2017-02-05T09:05:28.999Z</time>
      </trkpt>
      <trkpt lat="47.51389" lon="6.72607">
        <ele>472.4</ele>
        <time>2017-02-05T09:05:29.999Z</time>
      </trkpt>
      <trkpt lat="47.51389" lon="6.72604">
        <ele>472.4</ele>
        <time>2017-02-05T09:05:30.999Z</time>
      </trkpt>
      <trkpt lat="47.5139" lon="6.726">
        <ele>472.3</ele>
        <time>2017-02-05T09:05:31.999Z</time>
      </trkpt>
      <trkpt lat="47.5139" lon="6.72596">
        <ele>472.3</ele>
        <time>2017-02-05T09:05:32.999Z</time>
      </trkpt>
      <trkpt lat="47.5139" lon="6.72592">
        <ele>472.4</ele>
        <time>2017-02-05T09:05:33.999Z</time>
      </trkpt>
      <trkpt lat="47.51389" lon="6.72586">
        <ele>472.4</ele>
        <time>2017-02-05T09:05:35.999Z</time>
      </trkpt>
      <trkpt lat="47.51388" lon="6.72582">
        <ele>472.4</ele>
        <time>2017-02-05T09:05:36.999Z</time>
      </trkpt>
      <trkpt lat="47.51388" lon="6.72578">
        <ele>472.5</ele>
        <time>2017-02-05T09:05:37.999Z</time>
      </trkpt>
      <trkpt lat="47.51388" lon="6.72574">
        <ele>472.5</ele>
        <time>2017-02-05T09:05:38.999Z</time>
      </trkpt>
      <trkpt lat="47.51387" lon="6.72571">
        <ele>472.5</ele>
        <time>2017-02-05T09:05:39.999Z</time>
      </trkpt>
      <trkpt lat="47.51387" lon="6.72566">
        <ele>472.5</ele>
        <time>2017-02-05T09:05:40.999Z</time>
      </trkpt>
      <trkpt lat="47.51387" lon="6.7256">
        <ele>472.5</ele>
        <time>2017-02-05T09:05:41.999Z</time>
      </trkpt>
      <trkpt lat="47.51387" lon="6.72555">
        <ele>472.5</ele>
        <time>2017-02-05T09:05:42.999Z</time>
      </trkpt>
      <trkpt lat="47.51386" lon="6.72552">
        <ele>472.4</ele>
        <time>2017-02-05T09:05:43.999Z</time>
      </trkpt>
      <trkpt lat="47.51385" lon="6.72548">
        <ele>472.4</ele>
        <time>2017-02-05T09:05:44.999Z</time>
      </trkpt>
      <trkpt lat="47.51386" lon="6.72544">
        <ele>472.3</ele>
        <time>2017-02-05T09:05:45.999Z</time>
      </trkpt>
      <trkpt lat="47.51386" lon="6.7254">
        <ele>472.3</ele>
        <time>2017-02-05T09:05:46.999Z</time>
      </trkpt>
      <trkpt lat="47.51385" lon="6.72537">
        <ele>472.3</ele>
        <time>2017-02-05T09:05:47.999Z</time>
      </trkpt>
      <trkpt lat="47.51385" lon="6.72533">
        <ele>472.3</ele>
        <time>2017-02-05T09:05:48.999Z</time>
      </trkpt>
      <trkpt lat="47.51384" lon="6.72527">
        <ele>472.2</ele>
        <time>2017-02-05T09:05:50.999Z</time>
      </trkpt>
      <trkpt lat="47.51384" lon="6.72525">
        <ele>472.1</ele>
        <time>2017-02-05T09:05:51.999Z</time>
      </trkpt>
      <trkpt lat="47.51384" lon="6.72521">
        <ele>472</ele>
        <time>2017-02-05T09:05:52.999Z</time>
      </trkpt>
      <trkpt lat="47.51383" lon="6.72516">
        <ele>471.9</ele>
        <time>2017-02-05T09:05:53.999Z</time>
      </trkpt>
      <trkpt lat="47.51382" lon="6.72512">
        <ele>471.9</ele>
        <time>2017-02-05T09:05:54.999Z</time>
      </trkpt>
      <trkpt lat="47.5138" lon="6.72507">
        <ele>471.9</ele>
        <time>2017-02-05T09:05:55.999Z</time>
      </trkpt>
      <trkpt lat="47.51379" lon="6.72503">
        <ele>471.9</ele>
        <time>2017-02-05T09:05:56.999Z</time>
      </trkpt>
      <trkpt lat="47.51379" lon="6.72497">
        <ele>471.9</ele>
        <time>2017-02-05T09:05:57.999Z</time>
      </trkpt>
      <trkpt lat="47.51377" lon="6.72493">
        <ele>472</ele>
        <time>2017-02-05T09:05:58.999Z</time>
      </trkpt>
      <trkpt lat="47.51375" lon="6.72489">
        <ele>472.1</ele>
        <time>2017-02-05T09:05:59.999Z</time>
      </trkpt>
      <trkpt lat="47.51373" lon="6.72482">
        <ele>472.2</ele>
        <time>2017-02-05T09:06:00.999Z</time>
      </trkpt>
      <trkpt lat="47.51371" lon="6.72477">
        <ele>472.3</ele>
        <time>2017-02-05T09:06:01.999Z</time>
      </trkpt>
      <trkpt lat="47.5137" lon="6.72473">
        <ele>472.5</ele>
        <time>2017-02-05T09:06:02.999Z</time>
      </trkpt>
      <trkpt lat="47.51369" lon="6.72469">
        <ele>472.6</ele>
        <time>2017-02-05T09:06:03.999Z</time>
      </trkpt>
      <trkpt lat="47.51368" lon="6.72465">
        <ele>472.7</ele>
        <time>2017-02-05T09:06:04.999Z</time>
      </trkpt>
      <trkpt lat="47.5137" lon="6.72458">
        <ele>472.7</ele>
        <time>2017-02-05T09:06:05.999Z</time>
      </trkpt>
      <trkpt lat="47.51373" lon="6.72453">
        <ele>472.8</ele>
        <time>2017-02-05T09:06:06.999Z</time>
      </trkpt>
      <trkpt lat="47.51374" lon="6.72451">
        <ele>472.7</ele>
        <time>2017-02-05T09:06:07.999Z</time>
      </trkpt>
      <trkpt lat="47.51377" lon="6.72448">
        <ele>472.6</ele>
        <time>2017-02-05T09:06:08.999Z</time>
      </trkpt>
      <trkpt lat="47.5138" lon="6.72446">
        <ele>472.5</ele>
        <time>2017-02-05T09:06:09.999Z</time>
      </trkpt>
      <trkpt lat="47.51382" lon="6.72443">
        <ele>472.4</ele>
        <time>2017-02-05T09:06:10.999Z</time>
      </trkpt>
      <trkpt lat="47.51387" lon="6.7244">
        <ele>472.4</ele>
        <time>2017-02-05T09:06:11.999Z</time>
      </trkpt>
      <trkpt lat="47.51391" lon="6.72438">
        <ele>472</ele>
        <time>2017-02-05T09:06:12.999Z</time>
      </trkpt>
      <trkpt lat="47.51395" lon="6.72436">
        <ele>471.4</ele>
        <time>2017-02-05T09:06:13.999Z</time>
      </trkpt>
      <trkpt lat="47.514" lon="6.72434">
        <ele>470.5</ele>
        <time>2017-02-05T09:06:14.999Z</time>
      </trkpt>
      <trkpt lat="47.51405" lon="6.72431">
        <ele>469.1</ele>
        <time>2017-02-05T09:06:15.999Z</time>
      </trkpt>
      <trkpt lat="47.5141" lon="6.72427">
        <ele>469</ele>
        <time>2017-02-05T09:06:16.999Z</time>
      </trkpt>
      <trkpt lat="47.51415" lon="6.72424">
        <ele>468.9</ele>
        <time>2017-02-05T09:06:17.999Z</time>
      </trkpt>
      <trkpt lat="47.51418" lon="6.72422">
        <ele>468.6</ele>
        <time>2017-02-05T09:06:18.999Z</time>
      </trkpt>
      <trkpt lat="47.51422" lon="6.7242">
        <ele>468.4</ele>
        <time>2017-02-05T09:06:19.999Z</time>
      </trkpt>
      <trkpt lat="47.51427" lon="6.72417">
        <ele>468</ele>
        <time>2017-02-05T09:06:20.999Z</time>
      </trkpt>
      <trkpt lat="47.51429" lon="6.72414">
        <ele>467.6</ele>
        <time>2017-02-05T09:06:21.999Z</time>
      </trkpt>
      <trkpt lat="47.51434" lon="6.72412">
        <ele>463.1</ele>
        <time>2017-02-05T09:06:22.999Z</time>
      </trkpt>
      <trkpt lat="47.51438" lon="6.72409">
        <ele>462.6</ele>
        <time>2017-02-05T09:06:23.999Z</time>
      </trkpt>
      <trkpt lat="47.51443" lon="6.72408">
        <ele>457.6</ele>
        <time>2017-02-05T09:06:24.999Z</time>
      </trkpt>
      <trkpt lat="47.51448" lon="6.72406">
        <ele>457.1</ele>
        <time>2017-02-05T09:06:25.999Z</time>
      </trkpt>
      <trkpt lat="47.51454" lon="6.72404">
        <ele>451.8</ele>
        <time>2017-02-05T09:06:26.999Z</time>
      </trkpt>
      <trkpt lat="47.5146" lon="6.72401">
        <ele>447.4</ele>
        <time>2017-02-05T09:06:27.999Z</time>
      </trkpt>
      <trkpt lat="47.51465" lon="6.72399">
        <ele>443.7</ele>
        <time>2017-02-05T09:06:28.999Z</time>
      </trkpt>
      <trkpt lat="47.5147" lon="6.72397">
        <ele>440.4</ele>
        <time>2017-02-05T09:06:29.999Z</time>
      </trkpt>
      <trkpt lat="47.51476" lon="6.72395">
        <ele>437.1</ele>
        <time>2017-02-05T09:06:30.999Z</time>
      </trkpt>
      <trkpt lat="47.51481" lon="6.72393">
        <ele>433.9</ele>
        <time>2017-02-05T09:06:31.999Z</time>
      </trkpt>
      <trkpt lat="47.51488" lon="6.7239">
        <ele>431</ele>
        <time>2017-02-05T09:06:32.999Z</time>
      </trkpt>
      <trkpt lat="47.51495" lon="6.72388">
        <ele>428.1</ele>
        <time>2017-02-05T09:06:33.999Z</time>
      </trkpt>
      <trkpt lat="47.51501" lon="6.72385">
        <ele>425.2</ele>
        <time>2017-02-05T09:06:34.999Z</time>
      </trkpt>
      <trkpt lat="47.51507" lon="6.72383">
        <ele>421.7</ele>
        <time>2017-02-05T09:06:35.999Z</time>
      </trkpt>
      <trkpt lat="47.51515" lon="6.72381">
        <ele>418.9</ele>
        <time>2017-02-05T09:06:36.999Z</time>
      </trkpt>
      <trkpt lat="47.51522" lon="6.72378">
        <ele>416.3</ele>
        <time>2017-02-05T09:06:37.999Z</time>
      </trkpt>
      <trkpt lat="47.51528" lon="6.72375">
        <ele>414.3</ele>
        <time>2017-02-05T09:06:38.999Z</time>
      </trkpt>
      <trkpt lat="47.51535" lon="6.72373">
        <ele>411.5</ele>
        <time>2017-02-05T09:06:39.999Z</time>
      </trkpt>
      <trkpt lat="47.51542" lon="6.72369">
        <ele>409.3</ele>
        <time>2017-02-05T09:06:40.999Z</time>
      </trkpt>
      <trkpt lat="47.51548" lon="6.72366">
        <ele>406.8</ele>
        <time>2017-02-05T09:06:41.999Z</time>
      </trkpt>
      <trkpt lat="47.51554" lon="6.72363">
        <ele>404.3</ele>
        <time>2017-02-05T09:06:42.999Z</time>
      </trkpt>
      <trkpt lat="47.51561" lon="6.72362">
        <ele>402.8</ele>
        <time>2017-02-05T09:06:43.999Z</time>
      </trkpt>
      <trkpt lat="47.51567" lon="6.7236">
        <ele>401.3</ele>
        <time>2017-02-05T09:06:44.999Z</time>
      </trkpt>
      <trkpt lat="47.51573" lon="6.72359">
        <ele>399.4</ele>
        <time>2017-02-05T09:06:45.999Z</time>
      </trkpt>
      <trkpt lat="47.51579" lon="6.72357">
        <ele>397.8</ele>
        <time>2017-02-05T09:06:46.999Z</time>
      </trkpt>
      <trkpt lat="47.51585" lon="6.72355">
        <ele>395.9</ele>
        <time>2017-02-05T09:06:47.999Z</time>
      </trkpt>
      <trkpt lat="47.51591" lon="6.72355">
        <ele>394</ele>
        <time>2017-02-05T09:06:48.999Z</time>
      </trkpt>
      <trkpt lat="47.51595" lon="6.72354">
        <ele>393.2</ele>
        <time>2017-02-05T09:06:49.999Z</time>
      </trkpt>
      <trkpt lat="47.51601" lon="6.72351">
        <ele>392</ele>
        <time>2017-02-05T09:06:50.999Z</time>
      </trkpt>
      <trkpt lat="47.51607" lon="6.72347">
        <ele>389.9</ele>
        <time>2017-02-05T09:06:51.999Z</time>
      </trkpt>
      <trkpt lat="47.51613" lon="6.72342">
        <ele>388.2</ele>
        <time>2017-02-05T09:06:52.999Z</time>
      </trkpt>
      <trkpt lat="47.5162" lon="6.72337">
        <ele>387.1</ele>
        <time>2017-02-05T09:06:53.999Z</time>
      </trkpt>
      <trkpt lat="47.51626" lon="6.72333">
        <ele>386</ele>
        <time>2017-02-05T09:06:54.999Z</time>
      </trkpt>
      <trkpt lat="47.51633" lon="6.72327">
        <ele>384.7</ele>
        <time>2017-02-05T09:06:55.999Z</time>
      </trkpt>
      <trkpt lat="47.51639" lon="6.72322">
        <ele>383.3</ele>
        <time>2017-02-05T09:06:56.999Z</time>
      </trkpt>
      <trkpt lat="47.51646" lon="6.72318">
        <ele>381.8</ele>
        <time>2017-02-05T09:06:57.999Z</time>
      </trkpt>
      <trkpt lat="47.51652" lon="6.72314">
        <ele>380.5</ele>
        <time>2017-02-05T09:06:58.999Z</time>
      </trkpt>
      <trkpt lat="47.51659" lon="6.72309">
        <ele>379.1</ele>
        <time>2017-02-05T09:06:59.999Z</time>
      </trkpt>
      <trkpt lat="47.51665" lon="6.72305">
        <ele>377.2</ele>
        <time>2017-02-05T09:07:00.999Z</time>
      </trkpt>
      <trkpt lat="47.51673" lon="6.723">
        <ele>375.9</ele>
        <time>2017-02-05T09:07:01.999Z</time>
      </trkpt>
      <trkpt lat="47.5168" lon="6.72294">
        <ele>374.7</ele>
        <time>2017-02-05T09:07:02.999Z</time>
      </trkpt>
      <trkpt lat="47.51687" lon="6.72288">
        <ele>374.1</ele>
        <time>2017-02-05T09:07:03.999Z</time>
      </trkpt>
      <trkpt lat="47.51695" lon="6.72283">
        <ele>373.7</ele>
        <time>2017-02-05T09:07:04.999Z</time>
      </trkpt>
      <trkpt lat="47.51704" lon="6.72276">
        <ele>373.2</ele>
        <time>2017-02-05T09:07:05.999Z</time>
      </trkpt>
      <trkpt lat="47.51711" lon="6.72269">
        <ele>372.7</ele>
        <time>2017-02-05T09:07:06.999Z</time>
      </trkpt>
      <trkpt lat="47.51719" lon="6.72262">
        <ele>371.2</ele>
        <time>2017-02-05T09:07:07.999Z</time>
      </trkpt>
      <trkpt lat="47.51727" lon="6.72254">
        <ele>370.3</ele>
        <time>2017-02-05T09:07:08.999Z</time>
      </trkpt>
      <trkpt lat="47.51736" lon="6.72249">
        <ele>370.4</ele>
        <time>2017-02-05T09:07:09.999Z</time>
      </trkpt>
      <trkpt lat="47.51745" lon="6.72245">
        <ele>370.3</ele>
        <time>2017-02-05T09:07:10.999Z</time>
      </trkpt>
      <trkpt lat="47.51753" lon="6.72242">
        <ele>370</ele>
        <time>2017-02-05T09:07:11.999Z</time>
      </trkpt>
      <trkpt lat="47.51763" lon="6.72235">
        <ele>369.7</ele>
        <time>2017-02-05T09:07:12.999Z</time>
      </trkpt>
      <trkpt lat="47.51768" lon="6.72233">
        <ele>369.6</ele>
        <time>2017-02-05T09:07:13.999Z</time>
      </trkpt>
      <trkpt lat="47.51777" lon="6.72233">
        <ele>369.5</ele>
        <time>2017-02-05T09:07:14.999Z</time>
      </trkpt>
      <trkpt lat="47.51785" lon="6.72233">
        <ele>370</ele>
        <time>2017-02-05T09:07:15.999Z</time>
      </trkpt>
      <trkpt lat="47.51788" lon="6.72236">
        <ele>370</ele>
        <time>2017-02-05T09:07:16.999Z</time>
      </trkpt>
      <trkpt lat="47.5179" lon="6.72239">
        <ele>370.1</ele>
        <time>2017-02-05T09:07:17.999Z</time>
      </trkpt>
      <trkpt lat="47.51791" lon="6.72239">
        <ele>370.2</ele>
        <time>2017-02-05T09:07:18.999Z</time>
      </trkpt>
      <trkpt lat="47.51795" lon="6.72238">
        <ele>370.4</ele>
        <time>2017-02-05T09:07:19.999Z</time>
      </trkpt>
      <trkpt lat="47.51799" lon="6.72238">
        <ele>370.5</ele>
        <time>2017-02-05T09:07:20.999Z</time>
      </trkpt>
      <trkpt lat="47.51802" lon="6.72238">
        <ele>370.6</ele>
        <time>2017-02-05T09:07:22.999Z</time>
      </trkpt>
      <trkpt lat="47.51805" lon="6.72239">
        <ele>370.8</ele>
        <time>2017-02-05T09:07:23.999Z</time>
      </trkpt>
      <trkpt lat="47.51808" lon="6.7224">
        <ele>370.9</ele>
        <time>2017-02-05T09:07:24.999Z</time>
      </trkpt>
      <trkpt lat="47.51812" lon="6.72241">
        <ele>370.9</ele>
        <time>2017-02-05T09:07:25.999Z</time>
      </trkpt>
      <trkpt lat="47.51815" lon="6.72241">
        <ele>371.1</ele>
        <time>2017-02-05T09:07:26.999Z</time>
      </trkpt>
      <trkpt lat="47.51817" lon="6.72242">
        <ele>371.3</ele>
        <time>2017-02-05T09:07:27.999Z</time>
      </trkpt>
      <trkpt lat="47.51899" lon="6.72225">
        <ele>379.7</ele>
        <time>2017-02-05T09:07:44.999Z</time>
      </trkpt>
      <trkpt lat="47.51904" lon="6.72225">
        <ele>380.7</ele>
        <time>2017-02-05T09:07:45.999Z</time>
      </trkpt>
      <trkpt lat="47.51909" lon="6.72224">
        <ele>381.7</ele>
        <time>2017-02-05T09:07:46.999Z</time>
      </trkpt>
      <trkpt lat="47.51909" lon="6.72224">
        <ele>382.8</ele>
        <time>2017-02-05T09:07:47.999Z</time>
      </trkpt>
      <trkpt lat="47.51915" lon="6.72225">
        <ele>384.8</ele>
        <time>2017-02-05T09:07:49.999Z</time>
      </trkpt>
      <trkpt lat="47.51918" lon="6.72225">
        <ele>385.8</ele>
        <time>2017-02-05T09:07:50.999Z</time>
      </trkpt>
      <trkpt lat="47.51922" lon="6.72225">
        <ele>386.7</ele>
        <time>2017-02-05T09:07:51.999Z</time>
      </trkpt>
      <trkpt lat="47.51927" lon="6.72226">
        <ele>389.8</ele>
        <time>2017-02-05T09:07:55.999Z</time>
      </trkpt>
      <trkpt lat="47.5193" lon="6.72226">
        <ele>391.6</ele>
        <time>2017-02-05T09:07:57.999Z</time>
      </trkpt>
      <trkpt lat="47.51933" lon="6.72225">
        <ele>392.3</ele>
        <time>2017-02-05T09:07:58.999Z</time>
      </trkpt>
      <trkpt lat="47.51937" lon="6.72227">
        <ele>393.7</ele>
        <time>2017-02-05T09:08:00.999Z</time>
      </trkpt>
      <trkpt lat="47.5194" lon="6.72228">
        <ele>394.4</ele>
        <time>2017-02-05T09:08:01.999Z</time>
      </trkpt>
      <trkpt lat="47.51944" lon="6.72228">
        <ele>395.1</ele>
        <time>2017-02-05T09:08:02.999Z</time>
      </trkpt>
      <trkpt lat="47.51947" lon="6.72229">
        <ele>395.8</ele>
        <time>2017-02-05T09:08:03.999Z</time>
      </trkpt>
      <trkpt lat="47.51954" lon="6.72229">
        <ele>397</ele>
        <time>2017-02-05T09:08:05.999Z</time>
      </trkpt>
      <trkpt lat="47.51961" lon="6.72231">
        <ele>398.4</ele>
        <time>2017-02-05T09:08:07.999Z</time>
      </trkpt>
      <trkpt lat="47.51965" lon="6.72231">
        <ele>399.7</ele>
        <time>2017-02-05T09:08:09.999Z</time>
      </trkpt>
      <trkpt lat="47.51968" lon="6.72231">
        <ele>400.4</ele>
        <time>2017-02-05T09:08:10.999Z</time>
      </trkpt>
      <trkpt lat="47.51971" lon="6.72229">
        <ele>401</ele>
        <time>2017-02-05T09:08:11.999Z</time>
      </trkpt>
      <trkpt lat="47.51974" lon="6.72228">
        <ele>401.6</ele>
        <time>2017-02-05T09:08:12.999Z</time>
      </trkpt>
      <trkpt lat="47.51976" lon="6.72228">
        <ele>402.6</ele>
        <time>2017-02-05T09:08:14.999Z</time>
      </trkpt>
      <trkpt lat="47.51979" lon="6.72227">
        <ele>403.1</ele>
        <time>2017-02-05T09:08:15.999Z</time>
      </trkpt>
      <trkpt lat="47.51981" lon="6.72226">
        <ele>403.6</ele>
        <time>2017-02-05T09:08:16.999Z</time>
      </trkpt>
      <trkpt lat="47.51984" lon="6.72224">
        <ele>404</ele>
        <time>2017-02-05T09:08:17.999Z</time>
      </trkpt>
      <trkpt lat="47.51987" lon="6.72221">
        <ele>405</ele>
        <time>2017-02-05T09:08:19.999Z</time>
      </trkpt>
      <trkpt lat="47.51991" lon="6.72216">
        <ele>405.5</ele>
        <time>2017-02-05T09:08:20.999Z</time>
      </trkpt>
      <trkpt lat="47.51994" lon="6.72214">
        <ele>405.9</ele>
        <time>2017-02-05T09:08:21.999Z</time>
      </trkpt>
      <trkpt lat="47.51996" lon="6.72212">
        <ele>406.3</ele>
        <time>2017-02-05T09:08:22.999Z</time>
      </trkpt>
      <trkpt lat="47.51998" lon="6.7221">
        <ele>406.9</ele>
        <time>2017-02-05T09:08:24.999Z</time>
      </trkpt>
      <trkpt lat="47.52" lon="6.72208">
        <ele>407.3</ele>
        <time>2017-02-05T09:08:25.999Z</time>
      </trkpt>
      <trkpt lat="47.52001" lon="6.72206">
        <ele>407.5</ele>
        <time>2017-02-05T09:08:26.999Z</time>
      </trkpt>
      <trkpt lat="47.52013" lon="6.7215">
        <ele>413.6</ele>
        <time>2017-02-05T09:08:48.999Z</time>
      </trkpt>
      <trkpt lat="47.52014" lon="6.72142">
        <ele>414.1</ele>
        <time>2017-02-05T09:08:53.999Z</time>
      </trkpt>
      <trkpt lat="47.52013" lon="6.72134">
        <ele>414.3</ele>
        <time>2017-02-05T09:08:58.999Z</time>
      </trkpt>
      <trkpt lat="47.5202" lon="6.72112">
        <ele>413.1</ele>
        <time>2017-02-05T09:09:11.999Z</time>
      </trkpt>
      <trkpt lat="47.52021" lon="6.72106">
        <ele>413</ele>
        <time>2017-02-05T09:09:13.999Z</time>
      </trkpt>
      <trkpt lat="47.52022" lon="6.72102">
        <ele>413</ele>
        <time>2017-02-05T09:09:14.999Z</time>
      </trkpt>
      <trkpt lat="47.52023" lon="6.72092">
        <ele>413.3</ele>
        <time>2017-02-05T09:09:16.999Z</time>
      </trkpt>
      <trkpt lat="47.52025" lon="6.72085">
        <ele>413.8</ele>
        <time>2017-02-05T09:09:17.999Z</time>
      </trkpt>
      <trkpt lat="47.52026" lon="6.7208">
        <ele>414.1</ele>
        <time>2017-02-05T09:09:18.999Z</time>
      </trkpt>
      <trkpt lat="47.52028" lon="6.72076">
        <ele>414.5</ele>
        <time>2017-02-05T09:09:19.999Z</time>
      </trkpt>
      <trkpt lat="47.52029" lon="6.72073">
        <ele>415</ele>
        <time>2017-02-05T09:09:20.999Z</time>
      </trkpt>
      <trkpt lat="47.52029" lon="6.72069">
        <ele>415.5</ele>
        <time>2017-02-05T09:09:21.999Z</time>
      </trkpt>
      <trkpt lat="47.52029" lon="6.72065">
        <ele>417</ele>
        <time>2017-02-05T09:09:24.999Z</time>
      </trkpt>
      <trkpt lat="47.52031" lon="6.72058">
        <ele>417.9</ele>
        <time>2017-02-05T09:09:26.999Z</time>
      </trkpt>
      <trkpt lat="47.52031" lon="6.72054">
        <ele>418.2</ele>
        <time>2017-02-05T09:09:27.999Z</time>
      </trkpt>
      <trkpt lat="47.52031" lon="6.72045">
        <ele>419.1</ele>
        <time>2017-02-05T09:09:29.999Z</time>
      </trkpt>
      <trkpt lat="47.52036" lon="6.72005">
        <ele>424.9</ele>
        <time>2017-02-05T09:09:46.999Z</time>
      </trkpt>
      <trkpt lat="47.52037" lon="6.71999">
        <ele>425.5</ele>
        <time>2017-02-05T09:09:48.999Z</time>
      </trkpt>
      <trkpt lat="47.52036" lon="6.71995">
        <ele>426.4</ele>
        <time>2017-02-05T09:09:51.999Z</time>
      </trkpt>
      <trkpt lat="47.52036" lon="6.71991">
        <ele>426.9</ele>
        <time>2017-02-05T09:09:53.999Z</time>
      </trkpt>
      <trkpt lat="47.52035" lon="6.71985">
        <ele>427.6</ele>
        <time>2017-02-05T09:09:55.999Z</time>
      </trkpt>
      <trkpt lat="47.52034" lon="6.71977">
        <ele>428.4</ele>
        <time>2017-02-05T09:09:57.999Z</time>
      </trkpt>
      <trkpt lat="47.52035" lon="6.71971">
        <ele>429.4</ele>
        <time>2017-02-05T09:10:00.999Z</time>
      </trkpt>
      <trkpt lat="47.52034" lon="6.71967">
        <ele>429.7</ele>
        <time>2017-02-05T09:10:01.999Z</time>
      </trkpt>
      <trkpt lat="47.52033" lon="6.7196">
        <ele>430.5</ele>
        <time>2017-02-05T09:10:04.999Z</time>
      </trkpt>
      <trkpt lat="47.5203" lon="6.71946">
        <ele>431.6</ele>
        <time>2017-02-05T09:10:09.999Z</time>
      </trkpt>
      <trkpt lat="47.52029" lon="6.71943">
        <ele>431.7</ele>
        <time>2017-02-05T09:10:10.999Z</time>
      </trkpt>
      <trkpt lat="47.52028" lon="6.71938">
        <ele>432</ele>
        <time>2017-02-05T09:10:11.999Z</time>
      </trkpt>
      <trkpt lat="47.52029" lon="6.71933">
        <ele>432.5</ele>
        <time>2017-02-05T09:10:13.999Z</time>
      </trkpt>
      <trkpt lat="47.5203" lon="6.7193">
        <ele>432.7</ele>
        <time>2017-02-05T09:10:14.999Z</time>
      </trkpt>
      <trkpt lat="47.52031" lon="6.71925">
        <ele>433.1</ele>
        <time>2017-02-05T09:10:16.999Z</time>
      </trkpt>
      <trkpt lat="47.52031" lon="6.71922">
        <ele>433.3</ele>
        <time>2017-02-05T09:10:17.999Z</time>
      </trkpt>
      <trkpt lat="47.52031" lon="6.71916">
        <ele>433.7</ele>
        <time>2017-02-05T09:10:19.999Z</time>
      </trkpt>
      <trkpt lat="47.5203" lon="6.71912">
        <ele>433.9</ele>
        <time>2017-02-05T09:10:20.999Z</time>
      </trkpt>
      <trkpt lat="47.52031" lon="6.71906">
        <ele>434.1</ele>
        <time>2017-02-05T09:10:22.999Z</time>
      </trkpt>
      <trkpt lat="47.52031" lon="6.71904">
        <ele>434.1</ele>
        <time>2017-02-05T09:10:23.999Z</time>
      </trkpt>
      <trkpt lat="47.52032" lon="6.71899">
        <ele>434.4</ele>
        <time>2017-02-05T09:10:25.999Z</time>
      </trkpt>
      <trkpt lat="47.52032" lon="6.71896">
        <ele>434.5</ele>
        <time>2017-02-05T09:10:26.999Z</time>
      </trkpt>
      <trkpt lat="47.52032" lon="6.71892">
        <ele>434.8</ele>
        <time>2017-02-05T09:10:28.999Z</time>
      </trkpt>
      <trkpt lat="47.52032" lon="6.71889">
        <ele>434.9</ele>
        <time>2017-02-05T09:10:29.999Z</time>
      </trkpt>
      <trkpt lat="47.52032" lon="6.71886">
        <ele>435</ele>
        <time>2017-02-05T09:10:30.999Z</time>
      </trkpt>
      <trkpt lat="47.52032" lon="6.71882">
        <ele>435</ele>
        <time>2017-02-05T09:10:31.999Z</time>
      </trkpt>
      <trkpt lat="47.52032" lon="6.71878">
        <ele>435</ele>
        <time>2017-02-05T09:10:32.999Z</time>
      </trkpt>
      <trkpt lat="47.52031" lon="6.71874">
        <ele>435</ele>
        <time>2017-02-05T09:10:33.999Z</time>
      </trkpt>
      <trkpt lat="47.52031" lon="6.71871">
        <ele>435.1</ele>
        <time>2017-02-05T09:10:35.999Z</time>
      </trkpt>
      <trkpt lat="47.52031" lon="6.71868">
        <ele>435.1</ele>
        <time>2017-02-05T09:10:36.999Z</time>
      </trkpt>
      <trkpt lat="47.52031" lon="6.71861">
        <ele>435.2</ele>
        <time>2017-02-05T09:10:39.999Z</time>
      </trkpt>
      <trkpt lat="47.52031" lon="6.7186">
        <ele>435.3</ele>
        <time>2017-02-05T09:10:40.999Z</time>
      </trkpt>
      <trkpt lat="47.52031" lon="6.71853">
        <ele>435.8</ele>
        <time>2017-02-05T09:10:42.999Z</time>
      </trkpt>
      <trkpt lat="47.52031" lon="6.71851">
        <ele>436.1</ele>
        <time>2017-02-05T09:10:43.999Z</time>
      </trkpt>
      <trkpt lat="47.5203" lon="6.71848">
        <ele>436.5</ele>
        <time>2017-02-05T09:10:45.999Z</time>
      </trkpt>
      <trkpt lat="47.52029" lon="6.71844">
        <ele>436.7</ele>
        <time>2017-02-05T09:10:46.999Z</time>
      </trkpt>
      <trkpt lat="47.52028" lon="6.71839">
        <ele>437.1</ele>
        <time>2017-02-05T09:10:48.999Z</time>
      </trkpt>
      <trkpt lat="47.52028" lon="6.71836">
        <ele>437.2</ele>
        <time>2017-02-05T09:10:49.999Z</time>
      </trkpt>
      <trkpt lat="47.52027" lon="6.71832">
        <ele>437.4</ele>
        <time>2017-02-05T09:10:50.999Z</time>
      </trkpt>
      <trkpt lat="47.52028" lon="6.71829">
        <ele>437.5</ele>
        <time>2017-02-05T09:10:51.999Z</time>
      </trkpt>
      <trkpt lat="47.52029" lon="6.71823">
        <ele>437.7</ele>
        <time>2017-02-05T09:10:53.999Z</time>
      </trkpt>
      <trkpt lat="47.52029" lon="6.7182">
        <ele>437.8</ele>
        <time>2017-02-05T09:10:54.999Z</time>
      </trkpt>
      <trkpt lat="47.5203" lon="6.71815">
        <ele>437.9</ele>
        <time>2017-02-05T09:10:55.999Z</time>
      </trkpt>
      <trkpt lat="47.52029" lon="6.71812">
        <ele>437.9</ele>
        <time>2017-02-05T09:10:56.999Z</time>
      </trkpt>
      <trkpt lat="47.52029" lon="6.71806">
        <ele>438.1</ele>
        <time>2017-02-05T09:10:59.999Z</time>
      </trkpt>
      <trkpt lat="47.52029" lon="6.71803">
        <ele>438.3</ele>
        <time>2017-02-05T09:11:00.999Z</time>
      </trkpt>
      <trkpt lat="47.52028" lon="6.71796">
        <ele>438.4</ele>
        <time>2017-02-05T09:11:02.999Z</time>
      </trkpt>
      <trkpt lat="47.52029" lon="6.71793">
        <ele>438.4</ele>
        <time>2017-02-05T09:11:03.999Z</time>
      </trkpt>
      <trkpt lat="47.52029" lon="6.71789">
        <ele>438.5</ele>
        <time>2017-02-05T09:11:05.999Z</time>
      </trkpt>
      <trkpt lat="47.52029" lon="6.71786">
        <ele>438.6</ele>
        <time>2017-02-05T09:11:06.999Z</time>
      </trkpt>
      <trkpt lat="47.52029" lon="6.71784">
        <ele>438.7</ele>
        <time>2017-02-05T09:11:07.999Z</time>
      </trkpt>
      <trkpt lat="47.52029" lon="6.71778">
        <ele>438.8</ele>
        <time>2017-02-05T09:11:08.999Z</time>
      </trkpt>
      <trkpt lat="47.52029" lon="6.71773">
        <ele>438.9</ele>
        <time>2017-02-05T09:11:09.999Z</time>
      </trkpt>
      <trkpt lat="47.52029" lon="6.7177">
        <ele>438.9</ele>
        <time>2017-02-05T09:11:10.999Z</time>
      </trkpt>
      <trkpt lat="47.5203" lon="6.71766">
        <ele>439.1</ele>
        <time>2017-02-05T09:11:12.999Z</time>
      </trkpt>
      <trkpt lat="47.52031" lon="6.71763">
        <ele>439.2</ele>
        <time>2017-02-05T09:11:13.999Z</time>
      </trkpt>
      <trkpt lat="47.52033" lon="6.71758">
        <ele>439.4</ele>
        <time>2017-02-05T09:11:16.999Z</time>
      </trkpt>
      <trkpt lat="47.52034" lon="6.71755">
        <ele>439.5</ele>
        <time>2017-02-05T09:11:17.999Z</time>
      </trkpt>
      <trkpt lat="47.52035" lon="6.71751">
        <ele>439.6</ele>
        <time>2017-02-05T09:11:18.999Z</time>
      </trkpt>
      <trkpt lat="47.52036" lon="6.71747">
        <ele>439.6</ele>
        <time>2017-02-05T09:11:19.999Z</time>
      </trkpt>
      <trkpt lat="47.52038" lon="6.71743">
        <ele>439.7</ele>
        <time>2017-02-05T09:11:20.999Z</time>
      </trkpt>
      <trkpt lat="47.52039" lon="6.71739">
        <ele>439.8</ele>
        <time>2017-02-05T09:11:21.999Z</time>
      </trkpt>
      <trkpt lat="47.5204" lon="6.71736">
        <ele>440</ele>
        <time>2017-02-05T09:11:22.999Z</time>
      </trkpt>
      <trkpt lat="47.52041" lon="6.71733">
        <ele>440.2</ele>
        <time>2017-02-05T09:11:23.999Z</time>
      </trkpt>
      <trkpt lat="47.52042" lon="6.7173">
        <ele>440.3</ele>
        <time>2017-02-05T09:11:24.999Z</time>
      </trkpt>
      <trkpt lat="47.52043" lon="6.71727">
        <ele>440.5</ele>
        <time>2017-02-05T09:11:25.999Z</time>
      </trkpt>
      <trkpt lat="47.52046" lon="6.71722">
        <ele>440.8</ele>
        <time>2017-02-05T09:11:27.999Z</time>
      </trkpt>
      <trkpt lat="47.52047" lon="6.7172">
        <ele>441</ele>
        <time>2017-02-05T09:11:28.999Z</time>
      </trkpt>
      <trkpt lat="47.52048" lon="6.71717">
        <ele>441.2</ele>
        <time>2017-02-05T09:11:29.999Z</time>
      </trkpt>
      <trkpt lat="47.52049" lon="6.71714">
        <ele>441.4</ele>
        <time>2017-02-05T09:11:30.999Z</time>
      </trkpt>
      <trkpt lat="47.52051" lon="6.71712">
        <ele>441.6</ele>
        <time>2017-02-05T09:11:31.999Z</time>
      </trkpt>
      <trkpt lat="47.52052" lon="6.71709">
        <ele>441.8</ele>
        <time>2017-02-05T09:11:32.999Z</time>
      </trkpt>
      <trkpt lat="47.52054" lon="6.71706">
        <ele>442.1</ele>
        <time>2017-02-05T09:11:33.999Z</time>
      </trkpt>
      <trkpt lat="47.52055" lon="6.71703">
        <ele>442.3</ele>
        <time>2017-02-05T09:11:34.999Z</time>
      </trkpt>
      <trkpt lat="47.52056" lon="6.717">
        <ele>442.5</ele>
        <time>2017-02-05T09:11:35.999Z</time>
      </trkpt>
      <trkpt lat="47.52058" lon="6.71696">
        <ele>442.8</ele>
        <time>2017-02-05T09:11:36.999Z</time>
      </trkpt>
      <trkpt lat="47.5206" lon="6.71692">
        <ele>443</ele>
        <time>2017-02-05T09:11:37.999Z</time>
      </trkpt>
      <trkpt lat="47.52061" lon="6.71689">
        <ele>443.3</ele>
        <time>2017-02-05T09:11:38.999Z</time>
      </trkpt>
      <trkpt lat="47.52064" lon="6.71685">
        <ele>443.5</ele>
        <time>2017-02-05T09:11:39.999Z</time>
      </trkpt>
      <trkpt lat="47.52067" lon="6.7168">
        <ele>443.7</ele>
        <time>2017-02-05T09:11:40.999Z</time>
      </trkpt>
      <trkpt lat="47.52068" lon="6.71677">
        <ele>444</ele>
        <time>2017-02-05T09:11:41.999Z</time>
      </trkpt>
      <trkpt lat="47.52071" lon="6.71674">
        <ele>444.2</ele>
        <time>2017-02-05T09:11:42.999Z</time>
      </trkpt>
      <trkpt lat="47.52074" lon="6.7167">
        <ele>444.4</ele>
        <time>2017-02-05T09:11:43.999Z</time>
      </trkpt>
      <trkpt lat="47.52075" lon="6.71668">
        <ele>444.6</ele>
        <time>2017-02-05T09:11:44.999Z</time>
      </trkpt>
      <trkpt lat="47.52077" lon="6.71665">
        <ele>444.9</ele>
        <time>2017-02-05T09:11:45.999Z</time>
      </trkpt>
      <trkpt lat="47.52079" lon="6.71661">
        <ele>445.1</ele>
        <time>2017-02-05T09:11:46.999Z</time>
      </trkpt>
      <trkpt lat="47.52081" lon="6.71658">
        <ele>445.3</ele>
        <time>2017-02-05T09:11:47.999Z</time>
      </trkpt>
      <trkpt lat="47.52084" lon="6.71654">
        <ele>445.5</ele>
        <time>2017-02-05T09:11:48.999Z</time>
      </trkpt>
      <trkpt lat="47.52087" lon="6.71651">
        <ele>445.6</ele>
        <time>2017-02-05T09:11:49.999Z</time>
      </trkpt>
      <trkpt lat="47.52089" lon="6.71649">
        <ele>445.8</ele>
        <time>2017-02-05T09:11:50.999Z</time>
      </trkpt>
      <trkpt lat="47.52091" lon="6.71646">
        <ele>446</ele>
        <time>2017-02-05T09:11:51.999Z</time>
      </trkpt>
      <trkpt lat="47.52094" lon="6.71643">
        <ele>446.1</ele>
        <time>2017-02-05T09:11:52.999Z</time>
      </trkpt>
      <trkpt lat="47.52097" lon="6.7164">
        <ele>446.2</ele>
        <time>2017-02-05T09:11:53.999Z</time>
      </trkpt>
      <trkpt lat="47.521" lon="6.71636">
        <ele>446.4</ele>
        <time>2017-02-05T09:11:54.999Z</time>
      </trkpt>
      <trkpt lat="47.52102" lon="6.71633">
        <ele>446.5</ele>
        <time>2017-02-05T09:11:55.999Z</time>
      </trkpt>
      <trkpt lat="47.52105" lon="6.71632">
        <ele>446.6</ele>
        <time>2017-02-05T09:11:56.999Z</time>
      </trkpt>
      <trkpt lat="47.52107" lon="6.7163">
        <ele>446.8</ele>
        <time>2017-02-05T09:11:57.999Z</time>
      </trkpt>
      <trkpt lat="47.52109" lon="6.71627">
        <ele>446.9</ele>
        <time>2017-02-05T09:11:58.999Z</time>
      </trkpt>
      <trkpt lat="47.52112" lon="6.71624">
        <ele>447.1</ele>
        <time>2017-02-05T09:11:59.999Z</time>
      </trkpt>
      <trkpt lat="47.52114" lon="6.71621">
        <ele>447.2</ele>
        <time>2017-02-05T09:12:00.999Z</time>
      </trkpt>
      <trkpt lat="47.52115" lon="6.71618">
        <ele>447.4</ele>
        <time>2017-02-05T09:12:01.999Z</time>
      </trkpt>
      <trkpt lat="47.52117" lon="6.71614">
        <ele>447.6</ele>
        <time>2017-02-05T09:12:02.999Z</time>
      </trkpt>
      <trkpt lat="47.5212" lon="6.71611">
        <ele>447.7</ele>
        <time>2017-02-05T09:12:03.999Z</time>
      </trkpt>
      <trkpt lat="47.52123" lon="6.71607">
        <ele>447.8</ele>
        <time>2017-02-05T09:12:04.999Z</time>
      </trkpt>
      <trkpt lat="47.52126" lon="6.71603">
        <ele>447.9</ele>
        <time>2017-02-05T09:12:05.999Z</time>
      </trkpt>
      <trkpt lat="47.5213" lon="6.71599">
        <ele>448</ele>
        <time>2017-02-05T09:12:06.999Z</time>
      </trkpt>
      <trkpt lat="47.52133" lon="6.71598">
        <ele>448.1</ele>
        <time>2017-02-05T09:12:07.999Z</time>
      </trkpt>
      <trkpt lat="47.52136" lon="6.71596">
        <ele>448.2</ele>
        <time>2017-02-05T09:12:08.999Z</time>
      </trkpt>
      <trkpt lat="47.5214" lon="6.71596">
        <ele>448.3</ele>
        <time>2017-02-05T09:12:09.999Z</time>
      </trkpt>
      <trkpt lat="47.52143" lon="6.71596">
        <ele>448.4</ele>
        <time>2017-02-05T09:12:10.999Z</time>
      </trkpt>
      <trkpt lat="47.52147" lon="6.71595">
        <ele>448.4</ele>
        <time>2017-02-05T09:12:11.999Z</time>
      </trkpt>
      <trkpt lat="47.52151" lon="6.71595">
        <ele>448.3</ele>
        <time>2017-02-05T09:12:12.999Z</time>
      </trkpt>
      <trkpt lat="47.52154" lon="6.71595">
        <ele>448.3</ele>
        <time>2017-02-05T09:12:13.999Z</time>
      </trkpt>
      <trkpt lat="47.52155" lon="6.71594">
        <ele>448.3</ele>
        <time>2017-02-05T09:12:14.999Z</time>
      </trkpt>
      <trkpt lat="47.52159" lon="6.71593">
        <ele>448.1</ele>
        <time>2017-02-05T09:12:16.999Z</time>
      </trkpt>
      <trkpt lat="47.52161" lon="6.71592">
        <ele>448.1</ele>
        <time>2017-02-05T09:12:17.999Z</time>
      </trkpt>
      <trkpt lat="47.52165" lon="6.7159">
        <ele>447.9</ele>
        <time>2017-02-05T09:12:22.999Z</time>
      </trkpt>
      <trkpt lat="47.52165" lon="6.7159">
        <ele>447.9</ele>
        <time>2017-02-05T09:12:23.999Z</time>
      </trkpt>
      <trkpt lat="47.52164" lon="6.71591">
        <ele>448.8</ele>
        <time>2017-02-05T09:12:42.999Z</time>
      </trkpt>
      <trkpt lat="47.5216" lon="6.71589">
        <ele>448.9</ele>
        <time>2017-02-05T09:12:43.999Z</time>
      </trkpt>
      <trkpt lat="47.52157" lon="6.71585">
        <ele>449.2</ele>
        <time>2017-02-05T09:12:48.999Z</time>
      </trkpt>
      <trkpt lat="47.52156" lon="6.71585">
        <ele>449.2</ele>
        <time>2017-02-05T09:12:49.999Z</time>
      </trkpt>
      <trkpt lat="47.52153" lon="6.71585">
        <ele>449</ele>
        <time>2017-02-05T09:12:54.999Z</time>
      </trkpt>
      <trkpt lat="47.52151" lon="6.71586">
        <ele>448.9</ele>
        <time>2017-02-05T09:12:55.999Z</time>
      </trkpt>
      <trkpt lat="47.52149" lon="6.71582">
        <ele>446.1</ele>
        <time>2017-02-05T09:13:00.999Z</time>
      </trkpt>
      <trkpt lat="47.52149" lon="6.71579">
        <ele>445.5</ele>
        <time>2017-02-05T09:13:01.999Z</time>
      </trkpt>
      <trkpt lat="47.52152" lon="6.71577">
        <ele>443.9</ele>
        <time>2017-02-05T09:13:06.999Z</time>
      </trkpt>
      <trkpt lat="47.52154" lon="6.71576">
        <ele>443.9</ele>
        <time>2017-02-05T09:13:07.999Z</time>
      </trkpt>
      <trkpt lat="47.52157" lon="6.71575">
        <ele>443.9</ele>
        <time>2017-02-05T09:13:09.999Z</time>
      </trkpt>
      <trkpt lat="47.52158" lon="6.71576">
        <ele>443.9</ele>
        <time>2017-02-05T09:13:10.999Z</time>
      </trkpt>
      <trkpt lat="47.52162" lon="6.71576">
        <ele>444</ele>
        <time>2017-02-05T09:13:13.999Z</time>
      </trkpt>
      <trkpt lat="47.52163" lon="6.71576">
        <ele>444</ele>
        <time>2017-02-05T09:13:14.999Z</time>
      </trkpt>
      <trkpt lat="47.52166" lon="6.7158">
        <ele>444.8</ele>
        <time>2017-02-05T09:13:44.999Z</time>
      </trkpt>
      <trkpt lat="47.52166" lon="6.7158">
        <ele>444.8</ele>
        <time>2017-02-05T09:13:45.999Z</time>
      </trkpt>
      <trkpt lat="47.52165" lon="6.71579">
        <ele>445.5</ele>
        <time>2017-02-05T09:13:53.999Z</time>
      </trkpt>
      <trkpt lat="47.52165" lon="6.71572">
        <ele>445.4</ele>
        <time>2017-02-05T09:13:54.999Z</time>
      </trkpt>
      <trkpt lat="47.52166" lon="6.71568">
        <ele>445.3</ele>
        <time>2017-02-05T09:13:55.999Z</time>
      </trkpt>
      <trkpt lat="47.52166" lon="6.71563">
        <ele>445.2</ele>
        <time>2017-02-05T09:13:56.999Z</time>
      </trkpt>
      <trkpt lat="47.52166" lon="6.71559">
        <ele>445.1</ele>
        <time>2017-02-05T09:13:57.999Z</time>
      </trkpt>
      <trkpt lat="47.52166" lon="6.71554">
        <ele>445</ele>
        <time>2017-02-05T09:13:58.999Z</time>
      </trkpt>
      <trkpt lat="47.52167" lon="6.7155">
        <ele>444.8</ele>
        <time>2017-02-05T09:13:59.999Z</time>
      </trkpt>
      <trkpt lat="47.52167" lon="6.71547">
        <ele>444.7</ele>
        <time>2017-02-05T09:14:00.999Z</time>
      </trkpt>
      <trkpt lat="47.52166" lon="6.71542">
        <ele>444.5</ele>
        <time>2017-02-05T09:14:01.999Z</time>
      </trkpt>
      <trkpt lat="47.52166" lon="6.71539">
        <ele>444.3</ele>
        <time>2017-02-05T09:14:02.999Z</time>
      </trkpt>
      <trkpt lat="47.52166" lon="6.71535">
        <ele>444.1</ele>
        <time>2017-02-05T09:14:03.999Z</time>
      </trkpt>
      <trkpt lat="47.52166" lon="6.71531">
        <ele>443.9</ele>
        <time>2017-02-05T09:14:04.999Z</time>
      </trkpt>
      <trkpt lat="47.52165" lon="6.71525">
        <ele>443.6</ele>
        <time>2017-02-05T09:14:05.999Z</time>
      </trkpt>
      <trkpt lat="47.52165" lon="6.71518">
        <ele>443.3</ele>
        <time>2017-02-05T09:14:06.999Z</time>
      </trkpt>
      <trkpt lat="47.52165" lon="6.71512">
        <ele>441.2</ele>
        <time>2017-02-05T09:14:07.999Z</time>
      </trkpt>
      <trkpt lat="47.52165" lon="6.71506">
        <ele>438.8</ele>
        <time>2017-02-05T09:14:08.999Z</time>
      </trkpt>
      <trkpt lat="47.52165" lon="6.71498">
        <ele>437.6</ele>
        <time>2017-02-05T09:14:09.999Z</time>
      </trkpt>
      <trkpt lat="47.52166" lon="6.71491">
        <ele>435.9</ele>
        <time>2017-02-05T09:14:10.999Z</time>
      </trkpt>
      <trkpt lat="47.52165" lon="6.71484">
        <ele>435.8</ele>
        <time>2017-02-05T09:14:11.999Z</time>
      </trkpt>
      <trkpt lat="47.52165" lon="6.71479">
        <ele>435.7</ele>
        <time>2017-02-05T09:14:12.999Z</time>
      </trkpt>
      <trkpt lat="47.52164" lon="6.71472">
        <ele>435.7</ele>
        <time>2017-02-05T09:14:13.999Z</time>
      </trkpt>
      <trkpt lat="47.52164" lon="6.71466">
        <ele>435.2</ele>
        <time>2017-02-05T09:14:14.999Z</time>
      </trkpt>
      <trkpt lat="47.52163" lon="6.71459">
        <ele>435.1</ele>
        <time>2017-02-05T09:14:15.999Z</time>
      </trkpt>
      <trkpt lat="47.52162" lon="6.71452">
        <ele>435.1</ele>
        <time>2017-02-05T09:14:16.999Z</time>
      </trkpt>
      <trkpt lat="47.52161" lon="6.71444">
        <ele>435</ele>
        <time>2017-02-05T09:14:17.999Z</time>
      </trkpt>
      <trkpt lat="47.52159" lon="6.71437">
        <ele>434.8</ele>
        <time>2017-02-05T09:14:18.999Z</time>
      </trkpt>
      <trkpt lat="47.52158" lon="6.7143">
        <ele>434.4</ele>
        <time>2017-02-05T09:14:19.999Z</time>
      </trkpt>
      <trkpt lat="47.52156" lon="6.71422">
        <ele>434</ele>
        <time>2017-02-05T09:14:20.999Z</time>
      </trkpt>
      <trkpt lat="47.52156" lon="6.71414">
        <ele>433.6</ele>
        <time>2017-02-05T09:14:21.999Z</time>
      </trkpt>
      <trkpt lat="47.52154" lon="6.71404">
        <ele>432.9</ele>
        <time>2017-02-05T09:14:22.999Z</time>
      </trkpt>
      <trkpt lat="47.52152" lon="6.71395">
        <ele>432.5</ele>
        <time>2017-02-05T09:14:23.999Z</time>
      </trkpt>
      <trkpt lat="47.5215" lon="6.71385">
        <ele>432</ele>
        <time>2017-02-05T09:14:24.999Z</time>
      </trkpt>
      <trkpt lat="47.52148" lon="6.71375">
        <ele>431.9</ele>
        <time>2017-02-05T09:14:25.999Z</time>
      </trkpt>
      <trkpt lat="47.52147" lon="6.71368">
        <ele>431.9</ele>
        <time>2017-02-05T09:14:26.999Z</time>
      </trkpt>
      <trkpt lat="47.52148" lon="6.71363">
        <ele>432</ele>
        <time>2017-02-05T09:14:27.999Z</time>
      </trkpt>
      <trkpt lat="47.52146" lon="6.7136">
        <ele>432.1</ele>
        <time>2017-02-05T09:14:28.999Z</time>
      </trkpt>
      <trkpt lat="47.52144" lon="6.71357">
        <ele>432.3</ele>
        <time>2017-02-05T09:14:31.999Z</time>
      </trkpt>
      <trkpt lat="47.52144" lon="6.71351">
        <ele>432.2</ele>
        <time>2017-02-05T09:14:32.999Z</time>
      </trkpt>
      <trkpt lat="47.52145" lon="6.71344">
        <ele>432.1</ele>
        <time>2017-02-05T09:14:33.999Z</time>
      </trkpt>
      <trkpt lat="47.52148" lon="6.71338">
        <ele>431</ele>
        <time>2017-02-05T09:14:34.999Z</time>
      </trkpt>
      <trkpt lat="47.52151" lon="6.71333">
        <ele>430.1</ele>
        <time>2017-02-05T09:14:35.999Z</time>
      </trkpt>
      <trkpt lat="47.52154" lon="6.71328">
        <ele>428.9</ele>
        <time>2017-02-05T09:14:36.999Z</time>
      </trkpt>
      <trkpt lat="47.52157" lon="6.71322">
        <ele>427.9</ele>
        <time>2017-02-05T09:14:37.999Z</time>
      </trkpt>
      <trkpt lat="47.52162" lon="6.71317">
        <ele>426.7</ele>
        <time>2017-02-05T09:14:38.999Z</time>
      </trkpt>
      <trkpt lat="47.52167" lon="6.71313">
        <ele>425.2</ele>
        <time>2017-02-05T09:14:39.999Z</time>
      </trkpt>
      <trkpt lat="47.52172" lon="6.71309">
        <ele>423.6</ele>
        <time>2017-02-05T09:14:40.999Z</time>
      </trkpt>
      <trkpt lat="47.52177" lon="6.71303">
        <ele>422.6</ele>
        <time>2017-02-05T09:14:41.999Z</time>
      </trkpt>
      <trkpt lat="47.52183" lon="6.71296">
        <ele>421.8</ele>
        <time>2017-02-05T09:14:42.999Z</time>
      </trkpt>
      <trkpt lat="47.52189" lon="6.71289">
        <ele>420.9</ele>
        <time>2017-02-05T09:14:43.999Z</time>
      </trkpt>
      <trkpt lat="47.52195" lon="6.71282">
        <ele>420.1</ele>
        <time>2017-02-05T09:14:44.999Z</time>
      </trkpt>
      <trkpt lat="47.52201" lon="6.71276">
        <ele>420</ele>
        <time>2017-02-05T09:14:45.999Z</time>
      </trkpt>
      <trkpt lat="47.52207" lon="6.7127">
        <ele>420.3</ele>
        <time>2017-02-05T09:14:46.999Z</time>
      </trkpt>
      <trkpt lat="47.52214" lon="6.71265">
        <ele>420.7</ele>
        <time>2017-02-05T09:14:47.999Z</time>
      </trkpt>
      <trkpt lat="47.5222" lon="6.71261">
        <ele>420.8</ele>
        <time>2017-02-05T09:14:48.999Z</time>
      </trkpt>
      <trkpt lat="47.52226" lon="6.71256">
        <ele>421</ele>
        <time>2017-02-05T09:14:49.999Z</time>
      </trkpt>
      <trkpt lat="47.52231" lon="6.71253">
        <ele>421.4</ele>
        <time>2017-02-05T09:14:50.999Z</time>
      </trkpt>
      <trkpt lat="47.52236" lon="6.71249">
        <ele>421.6</ele>
        <time>2017-02-05T09:14:51.999Z</time>
      </trkpt>
      <trkpt lat="47.52241" lon="6.71244">
        <ele>422.2</ele>
        <time>2017-02-05T09:14:52.999Z</time>
      </trkpt>
      <trkpt lat="47.52245" lon="6.71239">
        <ele>422.6</ele>
        <time>2017-02-05T09:14:53.999Z</time>
      </trkpt>
      <trkpt lat="47.52251" lon="6.71235">
        <ele>422.8</ele>
        <time>2017-02-05T09:14:54.999Z</time>
      </trkpt>
      <trkpt lat="47.52257" lon="6.71232">
        <ele>423.1</ele>
        <time>2017-02-05T09:14:55.999Z</time>
      </trkpt>
      <trkpt lat="47.52262" lon="6.71228">
        <ele>422.9</ele>
        <time>2017-02-05T09:14:56.999Z</time>
      </trkpt>
      <trkpt lat="47.52268" lon="6.71225">
        <ele>422.1</ele>
        <time>2017-02-05T09:14:57.999Z</time>
      </trkpt>
      <trkpt lat="47.52274" lon="6.71221">
        <ele>421.5</ele>
        <time>2017-02-05T09:14:58.999Z</time>
      </trkpt>
      <trkpt lat="47.52278" lon="6.71216">
        <ele>421.3</ele>
        <time>2017-02-05T09:14:59.999Z</time>
      </trkpt>
      <trkpt lat="47.52282" lon="6.71213">
        <ele>421.1</ele>
        <time>2017-02-05T09:15:00.999Z</time>
      </trkpt>
      <trkpt lat="47.52286" lon="6.71209">
        <ele>421</ele>
        <time>2017-02-05T09:15:01.999Z</time>
      </trkpt>
      <trkpt lat="47.52289" lon="6.71205">
        <ele>421.1</ele>
        <time>2017-02-05T09:15:02.999Z</time>
      </trkpt>
      <trkpt lat="47.52293" lon="6.71201">
        <ele>421.2</ele>
        <time>2017-02-05T09:15:03.999Z</time>
      </trkpt>
      <trkpt lat="47.52297" lon="6.71194">
        <ele>420.6</ele>
        <time>2017-02-05T09:15:04.999Z</time>
      </trkpt>
      <trkpt lat="47.52301" lon="6.71189">
        <ele>419.8</ele>
        <time>2017-02-05T09:15:05.999Z</time>
      </trkpt>
      <trkpt lat="47.52305" lon="6.71183">
        <ele>418.6</ele>
        <time>2017-02-05T09:15:06.999Z</time>
      </trkpt>
      <trkpt lat="47.52309" lon="6.71177">
        <ele>417.6</ele>
        <time>2017-02-05T09:15:07.999Z</time>
      </trkpt>
      <trkpt lat="47.52313" lon="6.71172">
        <ele>417.2</ele>
        <time>2017-02-05T09:15:08.999Z</time>
      </trkpt>
      <trkpt lat="47.52316" lon="6.71167">
        <ele>417.2</ele>
        <time>2017-02-05T09:15:09.999Z</time>
      </trkpt>
      <trkpt lat="47.5232" lon="6.71162">
        <ele>416.9</ele>
        <time>2017-02-05T09:15:10.999Z</time>
      </trkpt>
      <trkpt lat="47.52325" lon="6.71159">
        <ele>416.5</ele>
        <time>2017-02-05T09:15:11.999Z</time>
      </trkpt>
      <trkpt lat="47.52329" lon="6.71156">
        <ele>416.1</ele>
        <time>2017-02-05T09:15:12.999Z</time>
      </trkpt>
      <trkpt lat="47.52333" lon="6.71156">
        <ele>415.6</ele>
        <time>2017-02-05T09:15:13.999Z</time>
      </trkpt>
      <trkpt lat="47.52338" lon="6.71157">
        <ele>415.5</ele>
        <time>2017-02-05T09:15:14.999Z</time>
      </trkpt>
      <trkpt lat="47.52342" lon="6.7116">
        <ele>415.8</ele>
        <time>2017-02-05T09:15:15.999Z</time>
      </trkpt>
      <trkpt lat="47.52346" lon="6.71163">
        <ele>415.8</ele>
        <time>2017-02-05T09:15:16.999Z</time>
      </trkpt>
      <trkpt lat="47.52349" lon="6.71166">
        <ele>415.9</ele>
        <time>2017-02-05T09:15:17.999Z</time>
      </trkpt>
      <trkpt lat="47.52351" lon="6.71169">
        <ele>416</ele>
        <time>2017-02-05T09:15:18.999Z</time>
      </trkpt>
      <trkpt lat="47.52353" lon="6.71171">
        <ele>416</ele>
        <time>2017-02-05T09:15:19.999Z</time>
      </trkpt>
      <trkpt lat="47.52356" lon="6.71174">
        <ele>416</ele>
        <time>2017-02-05T09:15:21.999Z</time>
      </trkpt>
      <trkpt lat="47.52358" lon="6.71175">
        <ele>416</ele>
        <time>2017-02-05T09:15:22.999Z</time>
      </trkpt>
      <trkpt lat="47.52359" lon="6.71169">
        <ele>416</ele>
        <time>2017-02-05T09:15:24.999Z</time>
      </trkpt>
      <trkpt lat="47.52359" lon="6.71164">
        <ele>415.9</ele>
        <time>2017-02-05T09:15:25.999Z</time>
      </trkpt>
      <trkpt lat="47.52355" lon="6.71168">
        <ele>414.4</ele>
        <time>2017-02-05T09:16:10.999Z</time>
      </trkpt>
      <trkpt lat="47.52354" lon="6.71167">
        <ele>414.4</ele>
        <time>2017-02-05T09:16:11.999Z</time>
      </trkpt>
      <trkpt lat="47.52352" lon="6.71165">
        <ele>414.1</ele>
        <time>2017-02-05T09:16:14.999Z</time>
      </trkpt>
      <trkpt lat="47.52351" lon="6.7116">
        <ele>413.9</ele>
        <time>2017-02-05T09:16:15.999Z</time>
      </trkpt>
      <trkpt lat="47.52354" lon="6.71164">
        <ele>413.3</ele>
        <time>2017-02-05T09:16:34.999Z</time>
      </trkpt>
      <trkpt lat="47.52355" lon="6.71165">
        <ele>413.4</ele>
        <time>2017-02-05T09:16:35.999Z</time>
      </trkpt>
      <trkpt lat="47.52356" lon="6.71171">
        <ele>413.3</ele>
        <time>2017-02-05T09:16:39.999Z</time>
      </trkpt>
      <trkpt lat="47.52356" lon="6.71173">
        <ele>413.3</ele>
        <time>2017-02-05T09:16:40.999Z</time>
      </trkpt>
      <trkpt lat="47.52356" lon="6.71179">
        <ele>413.8</ele>
        <time>2017-02-05T09:16:47.999Z</time>
      </trkpt>
      <trkpt lat="47.52356" lon="6.7118">
        <ele>413.8</ele>
        <time>2017-02-05T09:16:48.999Z</time>
      </trkpt>
      <trkpt lat="47.52357" lon="6.71186">
        <ele>414.1</ele>
        <time>2017-02-05T09:16:52.999Z</time>
      </trkpt>
      <trkpt lat="47.5236" lon="6.71188">
        <ele>414.2</ele>
        <time>2017-02-05T09:16:53.999Z</time>
      </trkpt>
      <trkpt lat="47.52362" lon="6.7119">
        <ele>414.3</ele>
        <time>2017-02-05T09:16:54.999Z</time>
      </trkpt>
      <trkpt lat="47.52365" lon="6.71192">
        <ele>414.5</ele>
        <time>2017-02-05T09:16:55.999Z</time>
      </trkpt>
      <trkpt lat="47.52369" lon="6.71193">
        <ele>414.5</ele>
        <time>2017-02-05T09:16:56.999Z</time>
      </trkpt>
      <trkpt lat="47.52373" lon="6.71194">
        <ele>415</ele>
        <time>2017-02-05T09:16:57.999Z</time>
      </trkpt>
      <trkpt lat="47.52379" lon="6.71194">
        <ele>414.6</ele>
        <time>2017-02-05T09:16:58.999Z</time>
      </trkpt>
      <trkpt lat="47.52383" lon="6.71194">
        <ele>414.1</ele>
        <time>2017-02-05T09:16:59.999Z</time>
      </trkpt>
      <trkpt lat="47.52388" lon="6.71194">
        <ele>413.5</ele>
        <time>2017-02-05T09:17:00.999Z</time>
      </trkpt>
      <trkpt lat="47.52394" lon="6.71193">
        <ele>412.5</ele>
        <time>2017-02-05T09:17:01.999Z</time>
      </trkpt>
      <trkpt lat="47.52401" lon="6.71192">
        <ele>411.1</ele>
        <time>2017-02-05T09:17:02.999Z</time>
      </trkpt>
      <trkpt lat="47.52406" lon="6.71191">
        <ele>409.9</ele>
        <time>2017-02-05T09:17:03.999Z</time>
      </trkpt>
      <trkpt lat="47.52411" lon="6.7119">
        <ele>409.2</ele>
        <time>2017-02-05T09:17:04.999Z</time>
      </trkpt>
      <trkpt lat="47.52417" lon="6.71189">
        <ele>408.8</ele>
        <time>2017-02-05T09:17:05.999Z</time>
      </trkpt>
      <trkpt lat="47.52423" lon="6.71188">
        <ele>408.5</ele>
        <time>2017-02-05T09:17:06.999Z</time>
      </trkpt>
      <trkpt lat="47.5243" lon="6.71187">
        <ele>408.1</ele>
        <time>2017-02-05T09:17:07.999Z</time>
      </trkpt>
      <trkpt lat="47.52435" lon="6.71185">
        <ele>407.8</ele>
        <time>2017-02-05T09:17:08.999Z</time>
      </trkpt>
      <trkpt lat="47.52442" lon="6.71184">
        <ele>407.7</ele>
        <time>2017-02-05T09:17:09.999Z</time>
      </trkpt>
      <trkpt lat="47.52448" lon="6.71183">
        <ele>407.6</ele>
        <time>2017-02-05T09:17:10.999Z</time>
      </trkpt>
      <trkpt lat="47.52454" lon="6.71182">
        <ele>407.8</ele>
        <time>2017-02-05T09:17:11.999Z</time>
      </trkpt>
      <trkpt lat="47.52459" lon="6.71182">
        <ele>407.1</ele>
        <time>2017-02-05T09:17:12.999Z</time>
      </trkpt>
      <trkpt lat="47.52464" lon="6.71181">
        <ele>406.6</ele>
        <time>2017-02-05T09:17:13.999Z</time>
      </trkpt>
      <trkpt lat="47.5247" lon="6.71182">
        <ele>405.9</ele>
        <time>2017-02-05T09:17:14.999Z</time>
      </trkpt>
      <trkpt lat="47.52475" lon="6.71184">
        <ele>405.1</ele>
        <time>2017-02-05T09:17:15.999Z</time>
      </trkpt>
      <trkpt lat="47.52482" lon="6.71186">
        <ele>404.8</ele>
        <time>2017-02-05T09:17:16.999Z</time>
      </trkpt>
      <trkpt lat="47.52488" lon="6.7119">
        <ele>404.3</ele>
        <time>2017-02-05T09:17:17.999Z</time>
      </trkpt>
      <trkpt lat="47.52493" lon="6.71195">
        <ele>403.9</ele>
        <time>2017-02-05T09:17:18.999Z</time>
      </trkpt>
      <trkpt lat="47.52498" lon="6.71202">
        <ele>403.6</ele>
        <time>2017-02-05T09:17:19.999Z</time>
      </trkpt>
      <trkpt lat="47.52502" lon="6.71208">
        <ele>403.2</ele>
        <time>2017-02-05T09:17:20.999Z</time>
      </trkpt>
      <trkpt lat="47.52506" lon="6.71215">
        <ele>403</ele>
        <time>2017-02-05T09:17:21.999Z</time>
      </trkpt>
      <trkpt lat="47.5251" lon="6.71222">
        <ele>403.4</ele>
        <time>2017-02-05T09:17:22.999Z</time>
      </trkpt>
      <trkpt lat="47.52514" lon="6.71228">
        <ele>403.2</ele>
        <time>2017-02-05T09:17:23.999Z</time>
      </trkpt>
      <trkpt lat="47.52519" lon="6.71233">
        <ele>402.8</ele>
        <time>2017-02-05T09:17:24.999Z</time>
      </trkpt>
      <trkpt lat="47.52525" lon="6.71237">
        <ele>402.6</ele>
        <time>2017-02-05T09:17:25.999Z</time>
      </trkpt>
      <trkpt lat="47.52529" lon="6.71241">
        <ele>402.7</ele>
        <time>2017-02-05T09:17:26.999Z</time>
      </trkpt>
      <trkpt lat="47.52533" lon="6.71244">
        <ele>402.8</ele>
        <time>2017-02-05T09:17:27.999Z</time>
      </trkpt>
      <trkpt lat="47.52538" lon="6.71247">
        <ele>402.8</ele>
        <time>2017-02-05T09:17:28.999Z</time>
      </trkpt>
      <trkpt lat="47.52545" lon="6.71251">
        <ele>403.4</ele>
        <time>2017-02-05T09:17:29.999Z</time>
      </trkpt>
      <trkpt lat="47.5255" lon="6.71254">
        <ele>404.4</ele>
        <time>2017-02-05T09:17:30.999Z</time>
      </trkpt>
      <trkpt lat="47.52555" lon="6.71257">
        <ele>404.8</ele>
        <time>2017-02-05T09:17:31.999Z</time>
      </trkpt>
      <trkpt lat="47.52559" lon="6.71259">
        <ele>405.1</ele>
        <time>2017-02-05T09:17:32.999Z</time>
      </trkpt>
      <trkpt lat="47.52564" lon="6.71261">
        <ele>404.8</ele>
        <time>2017-02-05T09:17:33.999Z</time>
      </trkpt>
      <trkpt lat="47.52569" lon="6.71262">
        <ele>404.9</ele>
        <time>2017-02-05T09:17:34.999Z</time>
      </trkpt>
      <trkpt lat="47.52573" lon="6.71261">
        <ele>405</ele>
        <time>2017-02-05T09:17:35.999Z</time>
      </trkpt>
      <trkpt lat="47.52578" lon="6.71261">
        <ele>405.1</ele>
        <time>2017-02-05T09:17:36.999Z</time>
      </trkpt>
      <trkpt lat="47.52584" lon="6.71262">
        <ele>405.6</ele>
        <time>2017-02-05T09:17:37.999Z</time>
      </trkpt>
      <trkpt lat="47.52589" lon="6.71262">
        <ele>405.1</ele>
        <time>2017-02-05T09:17:38.999Z</time>
      </trkpt>
      <trkpt lat="47.52593" lon="6.71263">
        <ele>405.1</ele>
        <time>2017-02-05T09:17:39.999Z</time>
      </trkpt>
      <trkpt lat="47.52597" lon="6.71264">
        <ele>404.9</ele>
        <time>2017-02-05T09:17:40.999Z</time>
      </trkpt>
      <trkpt lat="47.52601" lon="6.71264">
        <ele>404.7</ele>
        <time>2017-02-05T09:17:41.999Z</time>
      </trkpt>
      <trkpt lat="47.52606" lon="6.71265">
        <ele>403.3</ele>
        <time>2017-02-05T09:17:42.999Z</time>
      </trkpt>
      <trkpt lat="47.52612" lon="6.71267">
        <ele>401.9</ele>
        <time>2017-02-05T09:17:43.999Z</time>
      </trkpt>
      <trkpt lat="47.52617" lon="6.71268">
        <ele>401.8</ele>
        <time>2017-02-05T09:17:44.999Z</time>
      </trkpt>
      <trkpt lat="47.52622" lon="6.71269">
        <ele>400.5</ele>
        <time>2017-02-05T09:17:45.999Z</time>
      </trkpt>
      <trkpt lat="47.52626" lon="6.71271">
        <ele>400.3</ele>
        <time>2017-02-05T09:17:46.999Z</time>
      </trkpt>
      <trkpt lat="47.52631" lon="6.71274">
        <ele>400.1</ele>
        <time>2017-02-05T09:17:47.999Z</time>
      </trkpt>
      <trkpt lat="47.52635" lon="6.71275">
        <ele>399.9</ele>
        <time>2017-02-05T09:17:48.999Z</time>
      </trkpt>
      <trkpt lat="47.52639" lon="6.71275">
        <ele>399.6</ele>
        <time>2017-02-05T09:17:49.999Z</time>
      </trkpt>
      <trkpt lat="47.52644" lon="6.71276">
        <ele>399.4</ele>
        <time>2017-02-05T09:17:50.999Z</time>
      </trkpt>
      <trkpt lat="47.5265" lon="6.71279">
        <ele>399.1</ele>
        <time>2017-02-05T09:17:51.999Z</time>
      </trkpt>
      <trkpt lat="47.52654" lon="6.7128">
        <ele>398.8</ele>
        <time>2017-02-05T09:17:52.999Z</time>
      </trkpt>
      <trkpt lat="47.5266" lon="6.71282">
        <ele>398.5</ele>
        <time>2017-02-05T09:17:53.999Z</time>
      </trkpt>
      <trkpt lat="47.52666" lon="6.71284">
        <ele>398.1</ele>
        <time>2017-02-05T09:17:54.999Z</time>
      </trkpt>
      <trkpt lat="47.52673" lon="6.71287">
        <ele>394.6</ele>
        <time>2017-02-05T09:17:55.999Z</time>
      </trkpt>
      <trkpt lat="47.52677" lon="6.71287">
        <ele>394.3</ele>
        <time>2017-02-05T09:17:56.999Z</time>
      </trkpt>
      <trkpt lat="47.52681" lon="6.71286">
        <ele>393.9</ele>
        <time>2017-02-05T09:17:57.999Z</time>
      </trkpt>
      <trkpt lat="47.52685" lon="6.71283">
        <ele>389</ele>
        <time>2017-02-05T09:17:58.999Z</time>
      </trkpt>
      <trkpt lat="47.5269" lon="6.71278">
        <ele>386.1</ele>
        <time>2017-02-05T09:17:59.999Z</time>
      </trkpt>
      <trkpt lat="47.52694" lon="6.71271">
        <ele>384.8</ele>
        <time>2017-02-05T09:18:00.999Z</time>
      </trkpt>
      <trkpt lat="47.52697" lon="6.71263">
        <ele>384.8</ele>
        <time>2017-02-05T09:18:01.999Z</time>
      </trkpt>
      <trkpt lat="47.52698" lon="6.71259">
        <ele>384.8</ele>
        <time>2017-02-05T09:18:02.999Z</time>
      </trkpt>
      <trkpt lat="47.527" lon="6.71257">
        <ele>384.8</ele>
        <time>2017-02-05T09:18:03.999Z</time>
      </trkpt>
      <trkpt lat="47.527" lon="6.71257">
        <ele>385</ele>
        <time>2017-02-05T09:18:05.999Z</time>
      </trkpt>
      <trkpt lat="47.52703" lon="6.71235">
        <ele>385.3</ele>
        <time>2017-02-05T09:18:06.999Z</time>
      </trkpt>
      <trkpt lat="47.52703" lon="6.71229">
        <ele>385.4</ele>
        <time>2017-02-05T09:18:07.999Z</time>
      </trkpt>
      <trkpt lat="47.52703" lon="6.71224">
        <ele>385.5</ele>
        <time>2017-02-05T09:18:08.999Z</time>
      </trkpt>
      <trkpt lat="47.52704" lon="6.71218">
        <ele>386</ele>
        <time>2017-02-05T09:18:10.999Z</time>
      </trkpt>
      <trkpt lat="47.52703" lon="6.7121">
        <ele>386.2</ele>
        <time>2017-02-05T09:18:11.999Z</time>
      </trkpt>
      <trkpt lat="47.52702" lon="6.71201">
        <ele>386.3</ele>
        <time>2017-02-05T09:18:12.999Z</time>
      </trkpt>
      <trkpt lat="47.52705" lon="6.71198">
        <ele>386.7</ele>
        <time>2017-02-05T09:18:14.999Z</time>
      </trkpt>
      <trkpt lat="47.52707" lon="6.712">
        <ele>386.9</ele>
        <time>2017-02-05T09:18:15.999Z</time>
      </trkpt>
      <trkpt lat="47.52709" lon="6.71199">
        <ele>387.1</ele>
        <time>2017-02-05T09:18:16.999Z</time>
      </trkpt>
      <trkpt lat="47.52712" lon="6.71196">
        <ele>387.3</ele>
        <time>2017-02-05T09:18:17.999Z</time>
      </trkpt>
      <trkpt lat="47.52714" lon="6.71193">
        <ele>387.6</ele>
        <time>2017-02-05T09:18:18.999Z</time>
      </trkpt>
      <trkpt lat="47.52717" lon="6.71191">
        <ele>387.8</ele>
        <time>2017-02-05T09:18:19.999Z</time>
      </trkpt>
      <trkpt lat="47.5272" lon="6.71188">
        <ele>388</ele>
        <time>2017-02-05T09:18:20.999Z</time>
      </trkpt>
      <trkpt lat="47.52722" lon="6.71187">
        <ele>388.1</ele>
        <time>2017-02-05T09:18:21.999Z</time>
      </trkpt>
      <trkpt lat="47.52725" lon="6.71185">
        <ele>388.5</ele>
        <time>2017-02-05T09:18:23.999Z</time>
      </trkpt>
      <trkpt lat="47.52728" lon="6.71184">
        <ele>388.7</ele>
        <time>2017-02-05T09:18:24.999Z</time>
      </trkpt>
      <trkpt lat="47.5273" lon="6.71182">
        <ele>388.8</ele>
        <time>2017-02-05T09:18:25.999Z</time>
      </trkpt>
      <trkpt lat="47.52734" lon="6.71178">
        <ele>388.9</ele>
        <time>2017-02-05T09:18:26.999Z</time>
      </trkpt>
      <trkpt lat="47.52739" lon="6.71175">
        <ele>389.3</ele>
        <time>2017-02-05T09:18:27.999Z</time>
      </trkpt>
      <trkpt lat="47.52741" lon="6.7117">
        <ele>389.3</ele>
        <time>2017-02-05T09:18:28.999Z</time>
      </trkpt>
      <trkpt lat="47.5274" lon="6.71164">
        <ele>389.3</ele>
        <time>2017-02-05T09:18:29.999Z</time>
      </trkpt>
      <trkpt lat="47.5274" lon="6.71157">
        <ele>389.5</ele>
        <time>2017-02-05T09:18:30.999Z</time>
      </trkpt>
      <trkpt lat="47.52738" lon="6.7115">
        <ele>388.3</ele>
        <time>2017-02-05T09:18:31.999Z</time>
      </trkpt>
      <trkpt lat="47.52737" lon="6.71139">
        <ele>387.4</ele>
        <time>2017-02-05T09:18:32.999Z</time>
      </trkpt>
      <trkpt lat="47.52735" lon="6.71129">
        <ele>386.2</ele>
        <time>2017-02-05T09:18:33.999Z</time>
      </trkpt>
      <trkpt lat="47.52733" lon="6.7112">
        <ele>384.7</ele>
        <time>2017-02-05T09:18:34.999Z</time>
      </trkpt>
      <trkpt lat="47.52731" lon="6.71107">
        <ele>383</ele>
        <time>2017-02-05T09:18:35.999Z</time>
      </trkpt>
      <trkpt lat="47.5273" lon="6.71099">
        <ele>382.8</ele>
        <time>2017-02-05T09:18:36.999Z</time>
      </trkpt>
      <trkpt lat="47.5273" lon="6.71088">
        <ele>381.6</ele>
        <time>2017-02-05T09:18:37.999Z</time>
      </trkpt>
      <trkpt lat="47.52732" lon="6.71076">
        <ele>380</ele>
        <time>2017-02-05T09:18:38.999Z</time>
      </trkpt>
      <trkpt lat="47.52734" lon="6.71064">
        <ele>378.7</ele>
        <time>2017-02-05T09:18:39.999Z</time>
      </trkpt>
      <trkpt lat="47.52734" lon="6.71052">
        <ele>378.5</ele>
        <time>2017-02-05T09:18:40.999Z</time>
      </trkpt>
      <trkpt lat="47.52731" lon="6.71044">
        <ele>377.2</ele>
        <time>2017-02-05T09:18:41.999Z</time>
      </trkpt>
      <trkpt lat="47.52729" lon="6.71038">
        <ele>377</ele>
        <time>2017-02-05T09:18:42.999Z</time>
      </trkpt>
      <trkpt lat="47.52727" lon="6.71033">
        <ele>376.9</ele>
        <time>2017-02-05T09:18:43.999Z</time>
      </trkpt>
      <trkpt lat="47.52724" lon="6.7102">
        <ele>378.8</ele>
        <time>2017-02-05T09:18:44.999Z</time>
      </trkpt>
      <trkpt lat="47.5272" lon="6.71005">
        <ele>380.6</ele>
        <time>2017-02-05T09:18:45.999Z</time>
      </trkpt>
      <trkpt lat="47.52719" lon="6.70996">
        <ele>380.8</ele>
        <time>2017-02-05T09:18:46.999Z</time>
      </trkpt>
      <trkpt lat="47.52719" lon="6.70988">
        <ele>381.2</ele>
        <time>2017-02-05T09:18:47.999Z</time>
      </trkpt>
      <trkpt lat="47.52718" lon="6.70982">
        <ele>381.6</ele>
        <time>2017-02-05T09:18:48.999Z</time>
      </trkpt>
      <trkpt lat="47.52719" lon="6.70978">
        <ele>381.9</ele>
        <time>2017-02-05T09:18:49.999Z</time>
      </trkpt>
      <trkpt lat="47.52719" lon="6.70969">
        <ele>382.2</ele>
        <time>2017-02-05T09:18:50.999Z</time>
      </trkpt>
      <trkpt lat="47.5272" lon="6.70966">
        <ele>382.5</ele>
        <time>2017-02-05T09:18:51.999Z</time>
      </trkpt>
      <trkpt lat="47.52721" lon="6.70962">
        <ele>382.7</ele>
        <time>2017-02-05T09:18:52.999Z</time>
      </trkpt>
      <trkpt lat="47.52721" lon="6.70953">
        <ele>383</ele>
        <time>2017-02-05T09:18:53.999Z</time>
      </trkpt>
      <trkpt lat="47.52721" lon="6.70947">
        <ele>383.3</ele>
        <time>2017-02-05T09:18:54.999Z</time>
      </trkpt>
      <trkpt lat="47.52722" lon="6.70942">
        <ele>383.6</ele>
        <time>2017-02-05T09:18:55.999Z</time>
      </trkpt>
      <trkpt lat="47.52722" lon="6.70937">
        <ele>383.9</ele>
        <time>2017-02-05T09:18:56.999Z</time>
      </trkpt>
      <trkpt lat="47.52722" lon="6.70933">
        <ele>384</ele>
        <time>2017-02-05T09:18:57.999Z</time>
      </trkpt>
      <trkpt lat="47.52721" lon="6.70924">
        <ele>384.1</ele>
        <time>2017-02-05T09:18:58.999Z</time>
      </trkpt>
      <trkpt lat="47.52721" lon="6.70924">
        <ele>384.2</ele>
        <time>2017-02-05T09:19:01.999Z</time>
      </trkpt>
      <trkpt lat="47.52725" lon="6.70904">
        <ele>384.1</ele>
        <time>2017-02-05T09:19:02.999Z</time>
      </trkpt>
      <trkpt lat="47.52725" lon="6.70898">
        <ele>384.1</ele>
        <time>2017-02-05T09:19:03.999Z</time>
      </trkpt>
      <trkpt lat="47.52726" lon="6.70891">
        <ele>384.2</ele>
        <time>2017-02-05T09:19:04.999Z</time>
      </trkpt>
      <trkpt lat="47.52726" lon="6.70886">
        <ele>384.3</ele>
        <time>2017-02-05T09:19:05.999Z</time>
      </trkpt>
      <trkpt lat="47.52728" lon="6.7088">
        <ele>384.5</ele>
        <time>2017-02-05T09:19:06.999Z</time>
      </trkpt>
      <trkpt lat="47.5273" lon="6.70873">
        <ele>384.9</ele>
        <time>2017-02-05T09:19:07.999Z</time>
      </trkpt>
      <trkpt lat="47.52732" lon="6.70865">
        <ele>385.2</ele>
        <time>2017-02-05T09:19:08.999Z</time>
      </trkpt>
      <trkpt lat="47.52733" lon="6.70859">
        <ele>385.5</ele>
        <time>2017-02-05T09:19:09.999Z</time>
      </trkpt>
      <trkpt lat="47.52734" lon="6.70852">
        <ele>385.8</ele>
        <time>2017-02-05T09:19:10.999Z</time>
      </trkpt>
      <trkpt lat="47.52735" lon="6.70845">
        <ele>386.1</ele>
        <time>2017-02-05T09:19:11.999Z</time>
      </trkpt>
      <trkpt lat="47.52735" lon="6.70839">
        <ele>386.4</ele>
        <time>2017-02-05T09:19:12.999Z</time>
      </trkpt>
      <trkpt lat="47.52735" lon="6.70832">
        <ele>386.7</ele>
        <time>2017-02-05T09:19:13.999Z</time>
      </trkpt>
      <trkpt lat="47.52735" lon="6.70826">
        <ele>387</ele>
        <time>2017-02-05T09:19:14.999Z</time>
      </trkpt>
      <trkpt lat="47.52736" lon="6.70819">
        <ele>387.4</ele>
        <time>2017-02-05T09:19:15.999Z</time>
      </trkpt>
      <trkpt lat="47.52736" lon="6.70812">
        <ele>387.7</ele>
        <time>2017-02-05T09:19:16.999Z</time>
      </trkpt>
      <trkpt lat="47.52736" lon="6.70807">
        <ele>388.1</ele>
        <time>2017-02-05T09:19:17.999Z</time>
      </trkpt>
      <trkpt lat="47.52737" lon="6.70799">
        <ele>388.4</ele>
        <time>2017-02-05T09:19:18.999Z</time>
      </trkpt>
      <trkpt lat="47.5274" lon="6.70786">
        <ele>388.7</ele>
        <time>2017-02-05T09:19:19.999Z</time>
      </trkpt>
      <trkpt lat="47.52741" lon="6.70778">
        <ele>389</ele>
        <time>2017-02-05T09:19:20.999Z</time>
      </trkpt>
      <trkpt lat="47.52742" lon="6.70773">
        <ele>389.4</ele>
        <time>2017-02-05T09:19:21.999Z</time>
      </trkpt>
      <trkpt lat="47.52742" lon="6.70768">
        <ele>389.6</ele>
        <time>2017-02-05T09:19:22.999Z</time>
      </trkpt>
      <trkpt lat="47.52742" lon="6.70762">
        <ele>389.9</ele>
        <time>2017-02-05T09:19:23.999Z</time>
      </trkpt>
      <trkpt lat="47.52743" lon="6.70754">
        <ele>390</ele>
        <time>2017-02-05T09:19:24.999Z</time>
      </trkpt>
      <trkpt lat="47.52743" lon="6.70748">
        <ele>390.1</ele>
        <time>2017-02-05T09:19:25.999Z</time>
      </trkpt>
      <trkpt lat="47.52744" lon="6.70739">
        <ele>390.2</ele>
        <time>2017-02-05T09:19:26.999Z</time>
      </trkpt>
      <trkpt lat="47.52745" lon="6.70734">
        <ele>390.1</ele>
        <time>2017-02-05T09:19:27.999Z</time>
      </trkpt>
      <trkpt lat="47.52746" lon="6.70728">
        <ele>390</ele>
        <time>2017-02-05T09:19:28.999Z</time>
      </trkpt>
      <trkpt lat="47.52747" lon="6.70719">
        <ele>389.9</ele>
        <time>2017-02-05T09:19:29.999Z</time>
      </trkpt>
      <trkpt lat="47.52749" lon="6.70713">
        <ele>389.8</ele>
        <time>2017-02-05T09:19:30.999Z</time>
      </trkpt>
      <trkpt lat="47.52751" lon="6.70704">
        <ele>389.9</ele>
        <time>2017-02-05T09:19:31.999Z</time>
      </trkpt>
      <trkpt lat="47.52753" lon="6.70697">
        <ele>390</ele>
        <time>2017-02-05T09:19:32.999Z</time>
      </trkpt>
      <trkpt lat="47.52753" lon="6.70692">
        <ele>390.1</ele>
        <time>2017-02-05T09:19:33.999Z</time>
      </trkpt>
      <trkpt lat="47.52753" lon="6.70687">
        <ele>390.4</ele>
        <time>2017-02-05T09:19:34.999Z</time>
      </trkpt>
      <trkpt lat="47.52754" lon="6.7068">
        <ele>390.5</ele>
        <time>2017-02-05T09:19:35.999Z</time>
      </trkpt>
      <trkpt lat="47.52755" lon="6.70677">
        <ele>390.6</ele>
        <time>2017-02-05T09:19:36.999Z</time>
      </trkpt>
      <trkpt lat="47.52756" lon="6.70671">
        <ele>390.8</ele>
        <time>2017-02-05T09:19:37.999Z</time>
      </trkpt>
      <trkpt lat="47.52756" lon="6.70666">
        <ele>390.9</ele>
        <time>2017-02-05T09:19:38.999Z</time>
      </trkpt>
      <trkpt lat="47.52755" lon="6.70658">
        <ele>391</ele>
        <time>2017-02-05T09:19:39.999Z</time>
      </trkpt>
      <trkpt lat="47.52754" lon="6.70653">
        <ele>391.2</ele>
        <time>2017-02-05T09:19:40.999Z</time>
      </trkpt>
      <trkpt lat="47.52753" lon="6.70645">
        <ele>391.3</ele>
        <time>2017-02-05T09:19:41.999Z</time>
      </trkpt>
      <trkpt lat="47.52752" lon="6.7064">
        <ele>391.3</ele>
        <time>2017-02-05T09:19:42.999Z</time>
      </trkpt>
      <trkpt lat="47.52751" lon="6.70636">
        <ele>391.2</ele>
        <time>2017-02-05T09:19:43.999Z</time>
      </trkpt>
      <trkpt lat="47.52749" lon="6.70629">
        <ele>391.3</ele>
        <time>2017-02-05T09:19:44.999Z</time>
      </trkpt>
      <trkpt lat="47.52748" lon="6.70626">
        <ele>391.5</ele>
        <time>2017-02-05T09:19:48.999Z</time>
      </trkpt>
      <trkpt lat="47.52744" lon="6.70602">
        <ele>391.6</ele>
        <time>2017-02-05T09:19:49.999Z</time>
      </trkpt>
      <trkpt lat="47.52744" lon="6.70602">
        <ele>391.9</ele>
        <time>2017-02-05T09:19:51.999Z</time>
      </trkpt>
      <trkpt lat="47.52744" lon="6.70585">
        <ele>392.2</ele>
        <time>2017-02-05T09:19:52.999Z</time>
      </trkpt>
      <trkpt lat="47.52744" lon="6.70585">
        <ele>392.5</ele>
        <time>2017-02-05T09:19:53.999Z</time>
      </trkpt>
      <trkpt lat="47.52754" lon="6.70585">
        <ele>392.7</ele>
        <time>2017-02-05T09:19:54.999Z</time>
      </trkpt>
      <trkpt lat="47.52759" lon="6.70587">
        <ele>393</ele>
        <time>2017-02-05T09:19:55.999Z</time>
      </trkpt>
      <trkpt lat="47.52763" lon="6.70589">
        <ele>393.2</ele>
        <time>2017-02-05T09:19:56.999Z</time>
      </trkpt>
      <trkpt lat="47.52768" lon="6.7059">
        <ele>393.4</ele>
        <time>2017-02-05T09:19:57.999Z</time>
      </trkpt>
      <trkpt lat="47.52772" lon="6.70591">
        <ele>393.6</ele>
        <time>2017-02-05T09:19:58.999Z</time>
      </trkpt>
      <trkpt lat="47.52776" lon="6.70593">
        <ele>393.7</ele>
        <time>2017-02-05T09:19:59.999Z</time>
      </trkpt>
      <trkpt lat="47.52779" lon="6.70593">
        <ele>393.8</ele>
        <time>2017-02-05T09:20:00.999Z</time>
      </trkpt>
      <trkpt lat="47.52782" lon="6.70592">
        <ele>394</ele>
        <time>2017-02-05T09:20:01.999Z</time>
      </trkpt>
      <trkpt lat="47.52785" lon="6.70588">
        <ele>394.4</ele>
        <time>2017-02-05T09:20:03.999Z</time>
      </trkpt>
      <trkpt lat="47.52787" lon="6.70585">
        <ele>394.5</ele>
        <time>2017-02-05T09:20:04.999Z</time>
      </trkpt>
      <trkpt lat="47.52789" lon="6.70581">
        <ele>394.5</ele>
        <time>2017-02-05T09:20:05.999Z</time>
      </trkpt>
      <trkpt lat="47.52791" lon="6.70575">
        <ele>394.6</ele>
        <time>2017-02-05T09:20:06.999Z</time>
      </trkpt>
      <trkpt lat="47.52791" lon="6.7057">
        <ele>394.7</ele>
        <time>2017-02-05T09:20:07.999Z</time>
      </trkpt>
      <trkpt lat="47.52791" lon="6.70565">
        <ele>394.8</ele>
        <time>2017-02-05T09:20:08.999Z</time>
      </trkpt>
      <trkpt lat="47.52791" lon="6.70561">
        <ele>394.9</ele>
        <time>2017-02-05T09:20:09.999Z</time>
      </trkpt>
      <trkpt lat="47.52791" lon="6.70557">
        <ele>394.8</ele>
        <time>2017-02-05T09:20:10.999Z</time>
      </trkpt>
      <trkpt lat="47.5279" lon="6.70553">
        <ele>394.8</ele>
        <time>2017-02-05T09:20:11.999Z</time>
      </trkpt>
      <trkpt lat="47.52788" lon="6.70551">
        <ele>394.9</ele>
        <time>2017-02-05T09:20:12.999Z</time>
      </trkpt>
      <trkpt lat="47.52791" lon="6.70546">
        <ele>395.5</ele>
        <time>2017-02-05T09:20:16.999Z</time>
      </trkpt>
      <trkpt lat="47.52794" lon="6.70548">
        <ele>395.4</ele>
        <time>2017-02-05T09:20:17.999Z</time>
      </trkpt>
      <trkpt lat="47.52796" lon="6.70551">
        <ele>395.3</ele>
        <time>2017-02-05T09:20:18.999Z</time>
      </trkpt>
      <trkpt lat="47.52799" lon="6.70554">
        <ele>395.3</ele>
        <time>2017-02-05T09:20:19.999Z</time>
      </trkpt>
      <trkpt lat="47.52802" lon="6.70555">
        <ele>395.2</ele>
        <time>2017-02-05T09:20:20.999Z</time>
      </trkpt>
      <trkpt lat="47.52806" lon="6.70557">
        <ele>395.2</ele>
        <time>2017-02-05T09:20:21.999Z</time>
      </trkpt>
      <trkpt lat="47.52808" lon="6.70562">
        <ele>395</ele>
        <time>2017-02-05T09:20:22.999Z</time>
      </trkpt>
      <trkpt lat="47.5281" lon="6.70565">
        <ele>394.8</ele>
        <time>2017-02-05T09:20:23.999Z</time>
      </trkpt>
      <trkpt lat="47.52813" lon="6.70567">
        <ele>394.5</ele>
        <time>2017-02-05T09:20:25.999Z</time>
      </trkpt>
      <trkpt lat="47.52816" lon="6.70569">
        <ele>394.2</ele>
        <time>2017-02-05T09:20:26.999Z</time>
      </trkpt>
      <trkpt lat="47.52819" lon="6.70572">
        <ele>393.8</ele>
        <time>2017-02-05T09:20:28.999Z</time>
      </trkpt>
      <trkpt lat="47.52823" lon="6.70575">
        <ele>393.6</ele>
        <time>2017-02-05T09:20:29.999Z</time>
      </trkpt>
      <trkpt lat="47.52826" lon="6.70577">
        <ele>393.5</ele>
        <time>2017-02-05T09:20:30.999Z</time>
      </trkpt>
      <trkpt lat="47.52828" lon="6.70578">
        <ele>393.3</ele>
        <time>2017-02-05T09:20:31.999Z</time>
      </trkpt>
      <trkpt lat="47.52832" lon="6.70579">
        <ele>393</ele>
        <time>2017-02-05T09:20:34.999Z</time>
      </trkpt>
      <trkpt lat="47.52833" lon="6.7058">
        <ele>392.9</ele>
        <time>2017-02-05T09:20:35.999Z</time>
      </trkpt>
      <trkpt lat="47.52836" lon="6.70581">
        <ele>392.9</ele>
        <time>2017-02-05T09:20:38.999Z</time>
      </trkpt>
      <trkpt lat="47.52838" lon="6.7058">
        <ele>392.9</ele>
        <time>2017-02-05T09:20:39.999Z</time>
      </trkpt>
      <trkpt lat="47.5284" lon="6.70577">
        <ele>392.8</ele>
        <time>2017-02-05T09:20:41.999Z</time>
      </trkpt>
      <trkpt lat="47.5284" lon="6.70573">
        <ele>392.7</ele>
        <time>2017-02-05T09:20:42.999Z</time>
      </trkpt>
      <trkpt lat="47.52841" lon="6.70569">
        <ele>392.6</ele>
        <time>2017-02-05T09:20:43.999Z</time>
      </trkpt>
      <trkpt lat="47.52841" lon="6.70566">
        <ele>392.5</ele>
        <time>2017-02-05T09:20:44.999Z</time>
      </trkpt>
      <trkpt lat="47.52841" lon="6.70562">
        <ele>392.2</ele>
        <time>2017-02-05T09:20:45.999Z</time>
      </trkpt>
      <trkpt lat="47.52843" lon="6.70555">
        <ele>392.2</ele>
        <time>2017-02-05T09:20:46.999Z</time>
      </trkpt>
      <trkpt lat="47.52845" lon="6.70548">
        <ele>392.3</ele>
        <time>2017-02-05T09:20:47.999Z</time>
      </trkpt>
      <trkpt lat="47.52846" lon="6.70542">
        <ele>392.4</ele>
        <time>2017-02-05T09:20:48.999Z</time>
      </trkpt>
      <trkpt lat="47.52846" lon="6.70538">
        <ele>392.5</ele>
        <time>2017-02-05T09:20:49.999Z</time>
      </trkpt>
      <trkpt lat="47.52846" lon="6.70529">
        <ele>392.6</ele>
        <time>2017-02-05T09:20:50.999Z</time>
      </trkpt>
      <trkpt lat="47.52846" lon="6.70524">
        <ele>392.8</ele>
        <time>2017-02-05T09:20:51.999Z</time>
      </trkpt>
      <trkpt lat="47.52846" lon="6.70516">
        <ele>393</ele>
        <time>2017-02-05T09:20:52.999Z</time>
      </trkpt>
      <trkpt lat="47.52845" lon="6.7051">
        <ele>394</ele>
        <time>2017-02-05T09:20:56.999Z</time>
      </trkpt>
      <trkpt lat="47.52841" lon="6.70497">
        <ele>394.3</ele>
        <time>2017-02-05T09:20:57.999Z</time>
      </trkpt>
      <trkpt lat="47.52841" lon="6.70497">
        <ele>395.6</ele>
        <time>2017-02-05T09:21:02.999Z</time>
      </trkpt>
      <trkpt lat="47.52837" lon="6.70481">
        <ele>395.8</ele>
        <time>2017-02-05T09:21:03.999Z</time>
      </trkpt>
      <trkpt lat="47.52837" lon="6.70481">
        <ele>395.8</ele>
        <time>2017-02-05T09:21:04.999Z</time>
      </trkpt>
      <trkpt lat="47.52834" lon="6.70473">
        <ele>395.8</ele>
        <time>2017-02-05T09:21:05.999Z</time>
      </trkpt>
      <trkpt lat="47.52833" lon="6.7047">
        <ele>395.7</ele>
        <time>2017-02-05T09:21:06.999Z</time>
      </trkpt>
      <trkpt lat="47.52831" lon="6.70467">
        <ele>395.6</ele>
        <time>2017-02-05T09:21:07.999Z</time>
      </trkpt>
      <trkpt lat="47.52831" lon="6.70465">
        <ele>395.5</ele>
        <time>2017-02-05T09:21:08.999Z</time>
      </trkpt>
      <trkpt lat="47.52829" lon="6.70461">
        <ele>395.4</ele>
        <time>2017-02-05T09:21:09.999Z</time>
      </trkpt>
      <trkpt lat="47.52827" lon="6.70455">
        <ele>395.3</ele>
        <time>2017-02-05T09:21:10.999Z</time>
      </trkpt>
      <trkpt lat="47.52827" lon="6.70448">
        <ele>395.1</ele>
        <time>2017-02-05T09:21:11.999Z</time>
      </trkpt>
      <trkpt lat="47.52828" lon="6.70437">
        <ele>395.1</ele>
        <time>2017-02-05T09:21:12.999Z</time>
      </trkpt>
      <trkpt lat="47.52829" lon="6.70432">
        <ele>395.9</ele>
        <time>2017-02-05T09:21:22.999Z</time>
      </trkpt>
      <trkpt lat="47.52843" lon="6.70429">
        <ele>395.9</ele>
        <time>2017-02-05T09:21:23.999Z</time>
      </trkpt>
      <trkpt lat="47.52843" lon="6.70429">
        <ele>395.6</ele>
        <time>2017-02-05T09:21:27.999Z</time>
      </trkpt>
      <trkpt lat="47.52859" lon="6.70439">
        <ele>395.6</ele>
        <time>2017-02-05T09:21:28.999Z</time>
      </trkpt>
      <trkpt lat="47.52859" lon="6.70439">
        <ele>394.5</ele>
        <time>2017-02-05T09:21:37.999Z</time>
      </trkpt>
      <trkpt lat="47.52868" lon="6.70445">
        <ele>394.3</ele>
        <time>2017-02-05T09:21:38.999Z</time>
      </trkpt>
      <trkpt lat="47.52868" lon="6.70445">
        <ele>394.2</ele>
        <time>2017-02-05T09:22:08.999Z</time>
      </trkpt>
      <trkpt lat="47.52884" lon="6.70446">
        <ele>394.2</ele>
        <time>2017-02-05T09:22:09.999Z</time>
      </trkpt>
      <trkpt lat="47.52884" lon="6.70446">
        <ele>396.5</ele>
        <time>2017-02-05T09:22:18.999Z</time>
      </trkpt>
      <trkpt lat="47.52895" lon="6.70448">
        <ele>396.8</ele>
        <time>2017-02-05T09:22:19.999Z</time>
      </trkpt>
      <trkpt lat="47.52895" lon="6.70448">
        <ele>397.5</ele>
        <time>2017-02-05T09:22:22.999Z</time>
      </trkpt>
      <trkpt lat="47.52905" lon="6.70449">
        <ele>397.8</ele>
        <time>2017-02-05T09:22:23.999Z</time>
      </trkpt>
      <trkpt lat="47.52905" lon="6.70449">
        <ele>398</ele>
        <time>2017-02-05T09:22:24.999Z</time>
      </trkpt>
      <trkpt lat="47.52917" lon="6.7045">
        <ele>398.1</ele>
        <time>2017-02-05T09:22:25.999Z</time>
      </trkpt>
      <trkpt lat="47.52917" lon="6.7045">
        <ele>398.3</ele>
        <time>2017-02-05T09:22:27.999Z</time>
      </trkpt>
      <trkpt lat="47.52936" lon="6.70456">
        <ele>398.4</ele>
        <time>2017-02-05T09:22:28.999Z</time>
      </trkpt>
      <trkpt lat="47.52936" lon="6.70456">
        <ele>398.4</ele>
        <time>2017-02-05T09:22:31.999Z</time>
      </trkpt>
      <trkpt lat="47.52945" lon="6.70461">
        <ele>398.5</ele>
        <time>2017-02-05T09:22:32.999Z</time>
      </trkpt>
      <trkpt lat="47.52945" lon="6.70461">
        <ele>399.1</ele>
        <time>2017-02-05T09:22:42.999Z</time>
      </trkpt>
      <trkpt lat="47.5296" lon="6.70469">
        <ele>399.2</ele>
        <time>2017-02-05T09:22:43.999Z</time>
      </trkpt>
      <trkpt lat="47.5296" lon="6.70469">
        <ele>399.6</ele>
        <time>2017-02-05T09:22:46.999Z</time>
      </trkpt>
      <trkpt lat="47.52974" lon="6.70474">
        <ele>399.7</ele>
        <time>2017-02-05T09:22:47.999Z</time>
      </trkpt>
      <trkpt lat="47.52974" lon="6.70474">
        <ele>400.3</ele>
        <time>2017-02-05T09:22:53.999Z</time>
      </trkpt>
      <trkpt lat="47.52985" lon="6.7048">
        <ele>400.6</ele>
        <time>2017-02-05T09:22:54.999Z</time>
      </trkpt>
      <trkpt lat="47.52985" lon="6.7048">
        <ele>402.8</ele>
        <time>2017-02-05T09:23:08.999Z</time>
      </trkpt>
      <trkpt lat="47.52999" lon="6.70481">
        <ele>402.9</ele>
        <time>2017-02-05T09:23:09.999Z</time>
      </trkpt>
      <trkpt lat="47.52999" lon="6.70481">
        <ele>404.5</ele>
        <time>2017-02-05T09:23:17.999Z</time>
      </trkpt>
      <trkpt lat="47.53016" lon="6.70484">
        <ele>405</ele>
        <time>2017-02-05T09:23:18.999Z</time>
      </trkpt>
      <trkpt lat="47.53016" lon="6.70484">
        <ele>406.7</ele>
        <time>2017-02-05T09:23:26.999Z</time>
      </trkpt>
      <trkpt lat="47.53033" lon="6.70485">
        <ele>407</ele>
        <time>2017-02-05T09:23:27.999Z</time>
      </trkpt>
      <trkpt lat="47.53033" lon="6.70485">
        <ele>408</ele>
        <time>2017-02-05T09:23:33.999Z</time>
      </trkpt>
      <trkpt lat="47.53042" lon="6.70486">
        <ele>408.1</ele>
        <time>2017-02-05T09:23:34.999Z</time>
      </trkpt>
      <trkpt lat="47.53044" lon="6.70487">
        <ele>408.9</ele>
        <time>2017-02-05T09:23:37.999Z</time>
      </trkpt>
      <trkpt lat="47.53047" lon="6.70488">
        <ele>409.2</ele>
        <time>2017-02-05T09:23:38.999Z</time>
      </trkpt>
      <trkpt lat="47.5305" lon="6.70491">
        <ele>409.8</ele>
        <time>2017-02-05T09:23:40.999Z</time>
      </trkpt>
      <trkpt lat="47.53053" lon="6.70492">
        <ele>410.1</ele>
        <time>2017-02-05T09:23:41.999Z</time>
      </trkpt>
      <trkpt lat="47.53057" lon="6.70496">
        <ele>411.3</ele>
        <time>2017-02-05T09:23:45.999Z</time>
      </trkpt>
      <trkpt lat="47.53058" lon="6.70496">
        <ele>411.6</ele>
        <time>2017-02-05T09:23:46.999Z</time>
      </trkpt>
      <trkpt lat="47.53063" lon="6.70494">
        <ele>412.3</ele>
        <time>2017-02-05T09:23:51.999Z</time>
      </trkpt>
      <trkpt lat="47.53063" lon="6.70494">
        <ele>412.3</ele>
        <time>2017-02-05T09:23:52.999Z</time>
      </trkpt>
      <trkpt lat="47.53067" lon="6.70492">
        <ele>412.6</ele>
        <time>2017-02-05T09:23:58.999Z</time>
      </trkpt>
      <trkpt lat="47.53068" lon="6.70492">
        <ele>412.8</ele>
        <time>2017-02-05T09:23:59.999Z</time>
      </trkpt>
      <trkpt lat="47.53071" lon="6.7049">
        <ele>414.2</ele>
        <time>2017-02-05T09:24:03.999Z</time>
      </trkpt>
      <trkpt lat="47.53074" lon="6.70488">
        <ele>414.9</ele>
        <time>2017-02-05T09:24:04.999Z</time>
      </trkpt>
      <trkpt lat="47.53077" lon="6.70486">
        <ele>415.6</ele>
        <time>2017-02-05T09:24:05.999Z</time>
      </trkpt>
      <trkpt lat="47.53082" lon="6.70484">
        <ele>416.3</ele>
        <time>2017-02-05T09:24:06.999Z</time>
      </trkpt>
      <trkpt lat="47.53086" lon="6.70483">
        <ele>416.7</ele>
        <time>2017-02-05T09:24:07.999Z</time>
      </trkpt>
      <trkpt lat="47.5309" lon="6.70482">
        <ele>417.2</ele>
        <time>2017-02-05T09:24:09.999Z</time>
      </trkpt>
      <trkpt lat="47.53092" lon="6.70481">
        <ele>417.3</ele>
        <time>2017-02-05T09:24:10.999Z</time>
      </trkpt>
      <trkpt lat="47.53094" lon="6.70479">
        <ele>417.7</ele>
        <time>2017-02-05T09:24:11.999Z</time>
      </trkpt>
      <trkpt lat="47.53097" lon="6.70478">
        <ele>418.1</ele>
        <time>2017-02-05T09:24:12.999Z</time>
      </trkpt>
      <trkpt lat="47.531" lon="6.70476">
        <ele>419.9</ele>
        <time>2017-02-05T09:24:17.999Z</time>
      </trkpt>
      <trkpt lat="47.53101" lon="6.70476">
        <ele>420.3</ele>
        <time>2017-02-05T09:24:18.999Z</time>
      </trkpt>
      <trkpt lat="47.53105" lon="6.70475">
        <ele>421</ele>
        <time>2017-02-05T09:24:20.999Z</time>
      </trkpt>
      <trkpt lat="47.5311" lon="6.70471">
        <ele>421.4</ele>
        <time>2017-02-05T09:24:21.999Z</time>
      </trkpt>
      <trkpt lat="47.53113" lon="6.70468">
        <ele>421.8</ele>
        <time>2017-02-05T09:24:22.999Z</time>
      </trkpt>
      <trkpt lat="47.53116" lon="6.70466">
        <ele>422</ele>
        <time>2017-02-05T09:24:23.999Z</time>
      </trkpt>
      <trkpt lat="47.53118" lon="6.70461">
        <ele>422.5</ele>
        <time>2017-02-05T09:24:26.999Z</time>
      </trkpt>
      <trkpt lat="47.5312" lon="6.70458">
        <ele>422.5</ele>
        <time>2017-02-05T09:24:27.999Z</time>
      </trkpt>
      <trkpt lat="47.53124" lon="6.70456">
        <ele>423.1</ele>
        <time>2017-02-05T09:24:32.999Z</time>
      </trkpt>
      <trkpt lat="47.53125" lon="6.70456">
        <ele>423.1</ele>
        <time>2017-02-05T09:24:33.999Z</time>
      </trkpt>
      <trkpt lat="47.53129" lon="6.70455">
        <ele>423.6</ele>
        <time>2017-02-05T09:24:36.999Z</time>
      </trkpt>
      <trkpt lat="47.53129" lon="6.70454">
        <ele>423.7</ele>
        <time>2017-02-05T09:24:37.999Z</time>
      </trkpt>
      <trkpt lat="47.53133" lon="6.7045">
        <ele>424</ele>
        <time>2017-02-05T09:24:42.999Z</time>
      </trkpt>
      <trkpt lat="47.53133" lon="6.7045">
        <ele>424.2</ele>
        <time>2017-02-05T09:24:43.999Z</time>
      </trkpt>
      <trkpt lat="47.53137" lon="6.70446">
        <ele>423.6</ele>
        <time>2017-02-05T09:24:50.999Z</time>
      </trkpt>
      <trkpt lat="47.53137" lon="6.70446">
        <ele>423.5</ele>
        <time>2017-02-05T09:24:51.999Z</time>
      </trkpt>
      <trkpt lat="47.53141" lon="6.70444">
        <ele>423.2</ele>
        <time>2017-02-05T09:24:54.999Z</time>
      </trkpt>
      <trkpt lat="47.53142" lon="6.70443">
        <ele>422.9</ele>
        <time>2017-02-05T09:24:55.999Z</time>
      </trkpt>
      <trkpt lat="47.53144" lon="6.7044">
        <ele>422.1</ele>
        <time>2017-02-05T09:24:58.999Z</time>
      </trkpt>
      <trkpt lat="47.53145" lon="6.70438">
        <ele>422</ele>
        <time>2017-02-05T09:24:59.999Z</time>
      </trkpt>
      <trkpt lat="47.53147" lon="6.70433">
        <ele>421.8</ele>
        <time>2017-02-05T09:25:02.999Z</time>
      </trkpt>
      <trkpt lat="47.5315" lon="6.70431">
        <ele>421.9</ele>
        <time>2017-02-05T09:25:03.999Z</time>
      </trkpt>
      <trkpt lat="47.53152" lon="6.70429">
        <ele>422.1</ele>
        <time>2017-02-05T09:25:04.999Z</time>
      </trkpt>
      <trkpt lat="47.53156" lon="6.70427">
        <ele>422.5</ele>
        <time>2017-02-05T09:25:05.999Z</time>
      </trkpt>
      <trkpt lat="47.5316" lon="6.70425">
        <ele>422.8</ele>
        <time>2017-02-05T09:25:06.999Z</time>
      </trkpt>
      <trkpt lat="47.53164" lon="6.70422">
        <ele>423.4</ele>
        <time>2017-02-05T09:25:08.999Z</time>
      </trkpt>
      <trkpt lat="47.53165" lon="6.70419">
        <ele>423.6</ele>
        <time>2017-02-05T09:25:09.999Z</time>
      </trkpt>
      <trkpt lat="47.53168" lon="6.70416">
        <ele>425.4</ele>
        <time>2017-02-05T09:25:14.999Z</time>
      </trkpt>
      <trkpt lat="47.53169" lon="6.70415">
        <ele>425.9</ele>
        <time>2017-02-05T09:25:15.999Z</time>
      </trkpt>
      <trkpt lat="47.53171" lon="6.70412">
        <ele>426.7</ele>
        <time>2017-02-05T09:25:17.999Z</time>
      </trkpt>
      <trkpt lat="47.53176" lon="6.70407">
        <ele>427.1</ele>
        <time>2017-02-05T09:25:18.999Z</time>
      </trkpt>
      <trkpt lat="47.5318" lon="6.70406">
        <ele>428.1</ele>
        <time>2017-02-05T09:25:21.999Z</time>
      </trkpt>
      <trkpt lat="47.53181" lon="6.70406">
        <ele>428.3</ele>
        <time>2017-02-05T09:25:22.999Z</time>
      </trkpt>
      <trkpt lat="47.53185" lon="6.70405">
        <ele>428.6</ele>
        <time>2017-02-05T09:25:24.999Z</time>
      </trkpt>
      <trkpt lat="47.53186" lon="6.70405">
        <ele>428.7</ele>
        <time>2017-02-05T09:25:25.999Z</time>
      </trkpt>
      <trkpt lat="47.5319" lon="6.70404">
        <ele>428.6</ele>
        <time>2017-02-05T09:25:29.999Z</time>
      </trkpt>
      <trkpt lat="47.53191" lon="6.70403">
        <ele>428.5</ele>
        <time>2017-02-05T09:25:30.999Z</time>
      </trkpt>
      <trkpt lat="47.53195" lon="6.70403">
        <ele>427.9</ele>
        <time>2017-02-05T09:25:34.999Z</time>
      </trkpt>
      <trkpt lat="47.53195" lon="6.70403">
        <ele>427.7</ele>
        <time>2017-02-05T09:25:35.999Z</time>
      </trkpt>
      <trkpt lat="47.53198" lon="6.70401">
        <ele>427.8</ele>
        <time>2017-02-05T09:25:40.999Z</time>
      </trkpt>
      <trkpt lat="47.532" lon="6.704">
        <ele>427.9</ele>
        <time>2017-02-05T09:25:41.999Z</time>
      </trkpt>
      <trkpt lat="47.53203" lon="6.70398">
        <ele>428</ele>
        <time>2017-02-05T09:25:43.999Z</time>
      </trkpt>
      <trkpt lat="47.53206" lon="6.70395">
        <ele>428</ele>
        <time>2017-02-05T09:25:44.999Z</time>
      </trkpt>
      <trkpt lat="47.53208" lon="6.70394">
        <ele>427.9</ele>
        <time>2017-02-05T09:25:45.999Z</time>
      </trkpt>
      <trkpt lat="47.5321" lon="6.70392">
        <ele>428</ele>
        <time>2017-02-05T09:25:46.999Z</time>
      </trkpt>
      <trkpt lat="47.53213" lon="6.70387">
        <ele>427.9</ele>
        <time>2017-02-05T09:25:49.999Z</time>
      </trkpt>
      <trkpt lat="47.53214" lon="6.70386">
        <ele>428</ele>
        <time>2017-02-05T09:25:50.999Z</time>
      </trkpt>
      <trkpt lat="47.53216" lon="6.70384">
        <ele>427.8</ele>
        <time>2017-02-05T09:25:51.999Z</time>
      </trkpt>
      <trkpt lat="47.53218" lon="6.70382">
        <ele>427.7</ele>
        <time>2017-02-05T09:25:52.999Z</time>
      </trkpt>
      <trkpt lat="47.53222" lon="6.7038">
        <ele>427.7</ele>
        <time>2017-02-05T09:25:53.999Z</time>
      </trkpt>
      <trkpt lat="47.53223" lon="6.70378">
        <ele>427.7</ele>
        <time>2017-02-05T09:25:54.999Z</time>
      </trkpt>
      <trkpt lat="47.53226" lon="6.70374">
        <ele>428</ele>
        <time>2017-02-05T09:25:56.999Z</time>
      </trkpt>
      <trkpt lat="47.53227" lon="6.70374">
        <ele>428.2</ele>
        <time>2017-02-05T09:25:57.999Z</time>
      </trkpt>
      <trkpt lat="47.5323" lon="6.70373">
        <ele>428.7</ele>
        <time>2017-02-05T09:25:59.999Z</time>
      </trkpt>
      <trkpt lat="47.53233" lon="6.70372">
        <ele>429</ele>
        <time>2017-02-05T09:26:00.999Z</time>
      </trkpt>
      <trkpt lat="47.53236" lon="6.70371">
        <ele>429.3</ele>
        <time>2017-02-05T09:26:01.999Z</time>
      </trkpt>
      <trkpt lat="47.53238" lon="6.70371">
        <ele>429.6</ele>
        <time>2017-02-05T09:26:02.999Z</time>
      </trkpt>
      <trkpt lat="47.5324" lon="6.7037">
        <ele>429.8</ele>
        <time>2017-02-05T09:26:03.999Z</time>
      </trkpt>
      <trkpt lat="47.53243" lon="6.70368">
        <ele>430</ele>
        <time>2017-02-05T09:26:04.999Z</time>
      </trkpt>
      <trkpt lat="47.53246" lon="6.70367">
        <ele>430.2</ele>
        <time>2017-02-05T09:26:05.999Z</time>
      </trkpt>
      <trkpt lat="47.53248" lon="6.70366">
        <ele>430.4</ele>
        <time>2017-02-05T09:26:06.999Z</time>
      </trkpt>
      <trkpt lat="47.53252" lon="6.70368">
        <ele>430.9</ele>
        <time>2017-02-05T09:26:09.999Z</time>
      </trkpt>
      <trkpt lat="47.53254" lon="6.70371">
        <ele>431.2</ele>
        <time>2017-02-05T09:26:10.999Z</time>
      </trkpt>
      <trkpt lat="47.53257" lon="6.70374">
        <ele>431.5</ele>
        <time>2017-02-05T09:26:11.999Z</time>
      </trkpt>
      <trkpt lat="47.53259" lon="6.70376">
        <ele>431.7</ele>
        <time>2017-02-05T09:26:12.999Z</time>
      </trkpt>
      <trkpt lat="47.53261" lon="6.70379">
        <ele>431.9</ele>
        <time>2017-02-05T09:26:13.999Z</time>
      </trkpt>
      <trkpt lat="47.53262" lon="6.70382">
        <ele>432</ele>
        <time>2017-02-05T09:26:14.999Z</time>
      </trkpt>
      <trkpt lat="47.53263" lon="6.70387">
        <ele>432.4</ele>
        <time>2017-02-05T09:26:16.999Z</time>
      </trkpt>
      <trkpt lat="47.53263" lon="6.70389">
        <ele>432.7</ele>
        <time>2017-02-05T09:26:17.999Z</time>
      </trkpt>
      <trkpt lat="47.53264" lon="6.70393">
        <ele>433</ele>
        <time>2017-02-05T09:26:18.999Z</time>
      </trkpt>
      <trkpt lat="47.53265" lon="6.70395">
        <ele>433.2</ele>
        <time>2017-02-05T09:26:19.999Z</time>
      </trkpt>
      <trkpt lat="47.53268" lon="6.70398">
        <ele>434.6</ele>
        <time>2017-02-05T09:26:23.999Z</time>
      </trkpt>
      <trkpt lat="47.5327" lon="6.704">
        <ele>434.9</ele>
        <time>2017-02-05T09:26:24.999Z</time>
      </trkpt>
      <trkpt lat="47.53272" lon="6.70405">
        <ele>436</ele>
        <time>2017-02-05T09:26:27.999Z</time>
      </trkpt>
      <trkpt lat="47.53273" lon="6.70407">
        <ele>436.2</ele>
        <time>2017-02-05T09:26:28.999Z</time>
      </trkpt>
      <trkpt lat="47.53276" lon="6.70412">
        <ele>437</ele>
        <time>2017-02-05T09:26:30.999Z</time>
      </trkpt>
      <trkpt lat="47.53277" lon="6.70414">
        <ele>437.4</ele>
        <time>2017-02-05T09:26:31.999Z</time>
      </trkpt>
      <trkpt lat="47.53279" lon="6.70419">
        <ele>438.4</ele>
        <time>2017-02-05T09:26:35.999Z</time>
      </trkpt>
      <trkpt lat="47.5328" lon="6.7042">
        <ele>438.6</ele>
        <time>2017-02-05T09:26:36.999Z</time>
      </trkpt>
      <trkpt lat="47.53284" lon="6.70423">
        <ele>439.2</ele>
        <time>2017-02-05T09:26:39.999Z</time>
      </trkpt>
      <trkpt lat="47.53285" lon="6.70424">
        <ele>439.4</ele>
        <time>2017-02-05T09:26:40.999Z</time>
      </trkpt>
      <trkpt lat="47.53288" lon="6.70427">
        <ele>439.5</ele>
        <time>2017-02-05T09:26:44.999Z</time>
      </trkpt>
      <trkpt lat="47.53289" lon="6.70428">
        <ele>439.4</ele>
        <time>2017-02-05T09:26:45.999Z</time>
      </trkpt>
      <trkpt lat="47.53292" lon="6.70432">
        <ele>439.3</ele>
        <time>2017-02-05T09:26:49.999Z</time>
      </trkpt>
      <trkpt lat="47.53293" lon="6.70433">
        <ele>439.2</ele>
        <time>2017-02-05T09:26:50.999Z</time>
      </trkpt>
      <trkpt lat="47.53296" lon="6.70437">
        <ele>439.4</ele>
        <time>2017-02-05T09:26:53.999Z</time>
      </trkpt>
      <trkpt lat="47.53297" lon="6.70437">
        <ele>439.5</ele>
        <time>2017-02-05T09:26:54.999Z</time>
      </trkpt>
      <trkpt lat="47.533" lon="6.7044">
        <ele>439.6</ele>
        <time>2017-02-05T09:26:56.999Z</time>
      </trkpt>
      <trkpt lat="47.53302" lon="6.70443">
        <ele>439.7</ele>
        <time>2017-02-05T09:26:57.999Z</time>
      </trkpt>
      <trkpt lat="47.53304" lon="6.70446">
        <ele>439.8</ele>
        <time>2017-02-05T09:26:58.999Z</time>
      </trkpt>
      <trkpt lat="47.53305" lon="6.70449">
        <ele>440</ele>
        <time>2017-02-05T09:26:59.999Z</time>
      </trkpt>
      <trkpt lat="47.53308" lon="6.70453">
        <ele>440.5</ele>
        <time>2017-02-05T09:27:02.999Z</time>
      </trkpt>
      <trkpt lat="47.53309" lon="6.70455">
        <ele>440.7</ele>
        <time>2017-02-05T09:27:03.999Z</time>
      </trkpt>
      <trkpt lat="47.53312" lon="6.70458">
        <ele>441</ele>
        <time>2017-02-05T09:27:04.999Z</time>
      </trkpt>
      <trkpt lat="47.53313" lon="6.70461">
        <ele>441.2</ele>
        <time>2017-02-05T09:27:05.999Z</time>
      </trkpt>
      <trkpt lat="47.53314" lon="6.70466">
        <ele>441.7</ele>
        <time>2017-02-05T09:27:07.999Z</time>
      </trkpt>
      <trkpt lat="47.53315" lon="6.70467">
        <ele>441.9</ele>
        <time>2017-02-05T09:27:08.999Z</time>
      </trkpt>
      <trkpt lat="47.53316" lon="6.70473">
        <ele>442.5</ele>
        <time>2017-02-05T09:27:11.999Z</time>
      </trkpt>
      <trkpt lat="47.53318" lon="6.70476">
        <ele>442.9</ele>
        <time>2017-02-05T09:27:12.999Z</time>
      </trkpt>
      <trkpt lat="47.5332" lon="6.70479">
        <ele>444.2</ele>
        <time>2017-02-05T09:27:15.999Z</time>
      </trkpt>
      <trkpt lat="47.53321" lon="6.70481">
        <ele>444.6</ele>
        <time>2017-02-05T09:27:16.999Z</time>
      </trkpt>
      <trkpt lat="47.53323" lon="6.70483">
        <ele>445</ele>
        <time>2017-02-05T09:27:17.999Z</time>
      </trkpt>
      <trkpt lat="47.53324" lon="6.70486">
        <ele>445.3</ele>
        <time>2017-02-05T09:27:18.999Z</time>
      </trkpt>
      <trkpt lat="47.53326" lon="6.70489">
        <ele>445.6</ele>
        <time>2017-02-05T09:27:19.999Z</time>
      </trkpt>
      <trkpt lat="47.53329" lon="6.70492">
        <ele>445.8</ele>
        <time>2017-02-05T09:27:20.999Z</time>
      </trkpt>
      <trkpt lat="47.53332" lon="6.70495">
        <ele>446</ele>
        <time>2017-02-05T09:27:21.999Z</time>
      </trkpt>
      <trkpt lat="47.53335" lon="6.70497">
        <ele>446.2</ele>
        <time>2017-02-05T09:27:22.999Z</time>
      </trkpt>
      <trkpt lat="47.53337" lon="6.70498">
        <ele>446.3</ele>
        <time>2017-02-05T09:27:23.999Z</time>
      </trkpt>
      <trkpt lat="47.53339" lon="6.705">
        <ele>446.4</ele>
        <time>2017-02-05T09:27:24.999Z</time>
      </trkpt>
      <trkpt lat="47.53342" lon="6.70503">
        <ele>446.7</ele>
        <time>2017-02-05T09:27:26.999Z</time>
      </trkpt>
      <trkpt lat="47.53343" lon="6.70505">
        <ele>446.8</ele>
        <time>2017-02-05T09:27:27.999Z</time>
      </trkpt>
      <trkpt lat="47.53345" lon="6.70506">
        <ele>446.9</ele>
        <time>2017-02-05T09:27:28.999Z</time>
      </trkpt>
      <trkpt lat="47.53348" lon="6.70508">
        <ele>446.9</ele>
        <time>2017-02-05T09:27:29.999Z</time>
      </trkpt>
      <trkpt lat="47.5335" lon="6.7051">
        <ele>447.1</ele>
        <time>2017-02-05T09:27:30.999Z</time>
      </trkpt>
      <trkpt lat="47.53352" lon="6.70511">
        <ele>447.2</ele>
        <time>2017-02-05T09:27:31.999Z</time>
      </trkpt>
      <trkpt lat="47.53355" lon="6.70513">
        <ele>447.3</ele>
        <time>2017-02-05T09:27:32.999Z</time>
      </trkpt>
      <trkpt lat="47.53357" lon="6.70514">
        <ele>447.3</ele>
        <time>2017-02-05T09:27:33.999Z</time>
      </trkpt>
      <trkpt lat="47.53361" lon="6.70513">
        <ele>447.1</ele>
        <time>2017-02-05T09:27:35.999Z</time>
      </trkpt>
      <trkpt lat="47.53362" lon="6.70513">
        <ele>447</ele>
        <time>2017-02-05T09:27:36.999Z</time>
      </trkpt>
      <trkpt lat="47.53366" lon="6.70513">
        <ele>446.8</ele>
        <time>2017-02-05T09:27:40.999Z</time>
      </trkpt>
      <trkpt lat="47.53367" lon="6.70514">
        <ele>446.8</ele>
        <time>2017-02-05T09:27:41.999Z</time>
      </trkpt>
      <trkpt lat="47.53362" lon="6.70514">
        <ele>446.4</ele>
        <time>2017-02-05T09:27:52.999Z</time>
      </trkpt>
      <trkpt lat="47.53362" lon="6.70513">
        <ele>446.3</ele>
        <time>2017-02-05T09:27:53.999Z</time>
      </trkpt>
      <trkpt lat="47.53366" lon="6.70515">
        <ele>439.5</ele>
        <time>2017-02-05T09:31:01.999Z</time>
      </trkpt>
      <trkpt lat="47.53368" lon="6.70518">
        <ele>439.4</ele>
        <time>2017-02-05T09:31:02.999Z</time>
      </trkpt>
      <trkpt lat="47.53371" lon="6.7052">
        <ele>439.2</ele>
        <time>2017-02-05T09:31:03.999Z</time>
      </trkpt>
      <trkpt lat="47.53373" lon="6.70521">
        <ele>439.1</ele>
        <time>2017-02-05T09:31:04.999Z</time>
      </trkpt>
      <trkpt lat="47.53376" lon="6.70523">
        <ele>439</ele>
        <time>2017-02-05T09:31:05.999Z</time>
      </trkpt>
      <trkpt lat="47.53377" lon="6.70526">
        <ele>439</ele>
        <time>2017-02-05T09:31:06.999Z</time>
      </trkpt>
      <trkpt lat="47.5338" lon="6.70531">
        <ele>439</ele>
        <time>2017-02-05T09:31:07.999Z</time>
      </trkpt>
      <trkpt lat="47.53383" lon="6.70534">
        <ele>439.1</ele>
        <time>2017-02-05T09:31:08.999Z</time>
      </trkpt>
      <trkpt lat="47.53385" lon="6.70537">
        <ele>439.2</ele>
        <time>2017-02-05T09:31:10.999Z</time>
      </trkpt>
      <trkpt lat="47.53389" lon="6.70541">
        <ele>439.3</ele>
        <time>2017-02-05T09:31:11.999Z</time>
      </trkpt>
      <trkpt lat="47.53392" lon="6.70544">
        <ele>439.5</ele>
        <time>2017-02-05T09:31:12.999Z</time>
      </trkpt>
      <trkpt lat="47.53394" lon="6.70544">
        <ele>439.8</ele>
        <time>2017-02-05T09:31:13.999Z</time>
      </trkpt>
      <trkpt lat="47.53396" lon="6.70545">
        <ele>439.9</ele>
        <time>2017-02-05T09:31:14.999Z</time>
      </trkpt>
      <trkpt lat="47.53398" lon="6.70547">
        <ele>440.2</ele>
        <time>2017-02-05T09:31:15.999Z</time>
      </trkpt>
      <trkpt lat="47.53401" lon="6.7055">
        <ele>440.4</ele>
        <time>2017-02-05T09:31:16.999Z</time>
      </trkpt>
      <trkpt lat="47.53404" lon="6.70554">
        <ele>440.6</ele>
        <time>2017-02-05T09:31:17.999Z</time>
      </trkpt>
      <trkpt lat="47.5341" lon="6.70558">
        <ele>440.7</ele>
        <time>2017-02-05T09:31:18.999Z</time>
      </trkpt>
      <trkpt lat="47.53413" lon="6.7056">
        <ele>440.8</ele>
        <time>2017-02-05T09:31:19.999Z</time>
      </trkpt>
      <trkpt lat="47.53419" lon="6.70564">
        <ele>441</ele>
        <time>2017-02-05T09:31:20.999Z</time>
      </trkpt>
      <trkpt lat="47.53423" lon="6.70567">
        <ele>441.2</ele>
        <time>2017-02-05T09:31:21.999Z</time>
      </trkpt>
      <trkpt lat="47.53428" lon="6.70571">
        <ele>441.4</ele>
        <time>2017-02-05T09:31:22.999Z</time>
      </trkpt>
      <trkpt lat="47.53433" lon="6.70577">
        <ele>441.5</ele>
        <time>2017-02-05T09:31:23.999Z</time>
      </trkpt>
      <trkpt lat="47.53437" lon="6.70582">
        <ele>441.6</ele>
        <time>2017-02-05T09:31:24.999Z</time>
      </trkpt>
      <trkpt lat="47.53439" lon="6.70584">
        <ele>441.6</ele>
        <time>2017-02-05T09:31:25.999Z</time>
      </trkpt>
      <trkpt lat="47.53443" lon="6.70584">
        <ele>441.5</ele>
        <time>2017-02-05T09:31:26.999Z</time>
      </trkpt>
      <trkpt lat="47.53453" lon="6.70587">
        <ele>441.6</ele>
        <time>2017-02-05T09:31:27.999Z</time>
      </trkpt>
      <trkpt lat="47.5346" lon="6.70596">
        <ele>441.7</ele>
        <time>2017-02-05T09:31:28.999Z</time>
      </trkpt>
      <trkpt lat="47.53464" lon="6.70599">
        <ele>441.8</ele>
        <time>2017-02-05T09:31:29.999Z</time>
      </trkpt>
      <trkpt lat="47.53475" lon="6.70607">
        <ele>441.8</ele>
        <time>2017-02-05T09:31:30.999Z</time>
      </trkpt>
      <trkpt lat="47.53477" lon="6.70609">
        <ele>442</ele>
        <time>2017-02-05T09:31:31.999Z</time>
      </trkpt>
      <trkpt lat="47.53482" lon="6.70613">
        <ele>442</ele>
        <time>2017-02-05T09:31:32.999Z</time>
      </trkpt>
      <trkpt lat="47.53491" lon="6.70621">
        <ele>442</ele>
        <time>2017-02-05T09:31:33.999Z</time>
      </trkpt>
      <trkpt lat="47.53495" lon="6.70626">
        <ele>442.3</ele>
        <time>2017-02-05T09:31:34.999Z</time>
      </trkpt>
      <trkpt lat="47.53499" lon="6.70629">
        <ele>442.4</ele>
        <time>2017-02-05T09:31:35.999Z</time>
      </trkpt>
      <trkpt lat="47.53504" lon="6.7063">
        <ele>444</ele>
        <time>2017-02-05T09:31:36.999Z</time>
      </trkpt>
      <trkpt lat="47.5351" lon="6.70633">
        <ele>446.7</ele>
        <time>2017-02-05T09:31:37.999Z</time>
      </trkpt>
      <trkpt lat="47.53517" lon="6.70636">
        <ele>449.1</ele>
        <time>2017-02-05T09:31:38.999Z</time>
      </trkpt>
      <trkpt lat="47.53519" lon="6.70638">
        <ele>449.1</ele>
        <time>2017-02-05T09:31:39.999Z</time>
      </trkpt>
      <trkpt lat="47.53522" lon="6.70641">
        <ele>449.2</ele>
        <time>2017-02-05T09:31:40.999Z</time>
      </trkpt>
      <trkpt lat="47.53526" lon="6.70643">
        <ele>449.5</ele>
        <time>2017-02-05T09:31:41.999Z</time>
      </trkpt>
      <trkpt lat="47.53531" lon="6.70646">
        <ele>449.7</ele>
        <time>2017-02-05T09:31:42.999Z</time>
      </trkpt>
      <trkpt lat="47.53536" lon="6.70649">
        <ele>449.8</ele>
        <time>2017-02-05T09:31:43.999Z</time>
      </trkpt>
      <trkpt lat="47.53541" lon="6.7065">
        <ele>450</ele>
        <time>2017-02-05T09:31:44.999Z</time>
      </trkpt>
      <trkpt lat="47.53544" lon="6.70653">
        <ele>450.1</ele>
        <time>2017-02-05T09:31:46.999Z</time>
      </trkpt>
      <trkpt lat="47.53547" lon="6.70656">
        <ele>450.2</ele>
        <time>2017-02-05T09:31:47.999Z</time>
      </trkpt>
      <trkpt lat="47.53549" lon="6.70659">
        <ele>450.2</ele>
        <time>2017-02-05T09:31:48.999Z</time>
      </trkpt>
      <trkpt lat="47.53552" lon="6.70663">
        <ele>450.1</ele>
        <time>2017-02-05T09:31:49.999Z</time>
      </trkpt>
      <trkpt lat="47.53553" lon="6.70664">
        <ele>450</ele>
        <time>2017-02-05T09:31:50.999Z</time>
      </trkpt>
      <trkpt lat="47.53556" lon="6.70667">
        <ele>449.9</ele>
        <time>2017-02-05T09:31:51.999Z</time>
      </trkpt>
      <trkpt lat="47.5356" lon="6.7067">
        <ele>449.8</ele>
        <time>2017-02-05T09:31:52.999Z</time>
      </trkpt>
      <trkpt lat="47.53564" lon="6.70673">
        <ele>449.8</ele>
        <time>2017-02-05T09:31:53.999Z</time>
      </trkpt>
      <trkpt lat="47.53568" lon="6.70676">
        <ele>449.7</ele>
        <time>2017-02-05T09:31:54.999Z</time>
      </trkpt>
      <trkpt lat="47.53573" lon="6.70681">
        <ele>449.9</ele>
        <time>2017-02-05T09:31:55.999Z</time>
      </trkpt>
      <trkpt lat="47.53579" lon="6.7069">
        <ele>450.7</ele>
        <time>2017-02-05T09:31:56.999Z</time>
      </trkpt>
      <trkpt lat="47.53587" lon="6.70697">
        <ele>451.4</ele>
        <time>2017-02-05T09:31:57.999Z</time>
      </trkpt>
      <trkpt lat="47.53594" lon="6.70702">
        <ele>450.6</ele>
        <time>2017-02-05T09:31:58.999Z</time>
      </trkpt>
      <trkpt lat="47.53601" lon="6.70708">
        <ele>448.5</ele>
        <time>2017-02-05T09:31:59.999Z</time>
      </trkpt>
      <trkpt lat="47.53608" lon="6.70712">
        <ele>447.5</ele>
        <time>2017-02-05T09:32:00.999Z</time>
      </trkpt>
      <trkpt lat="47.53611" lon="6.70715">
        <ele>447.3</ele>
        <time>2017-02-05T09:32:01.999Z</time>
      </trkpt>
      <trkpt lat="47.53615" lon="6.70719">
        <ele>444.9</ele>
        <time>2017-02-05T09:32:02.999Z</time>
      </trkpt>
      <trkpt lat="47.53618" lon="6.70723">
        <ele>443</ele>
        <time>2017-02-05T09:32:03.999Z</time>
      </trkpt>
      <trkpt lat="47.53623" lon="6.70731">
        <ele>441.1</ele>
        <time>2017-02-05T09:32:04.999Z</time>
      </trkpt>
      <trkpt lat="47.53628" lon="6.70737">
        <ele>439.8</ele>
        <time>2017-02-05T09:32:05.999Z</time>
      </trkpt>
      <trkpt lat="47.53632" lon="6.70744">
        <ele>439.7</ele>
        <time>2017-02-05T09:32:06.999Z</time>
      </trkpt>
      <trkpt lat="47.53635" lon="6.70749">
        <ele>439.6</ele>
        <time>2017-02-05T09:32:07.999Z</time>
      </trkpt>
      <trkpt lat="47.53636" lon="6.70755">
        <ele>439.5</ele>
        <time>2017-02-05T09:32:08.999Z</time>
      </trkpt>
      <trkpt lat="47.53639" lon="6.70759">
        <ele>439.1</ele>
        <time>2017-02-05T09:32:10.999Z</time>
      </trkpt>
      <trkpt lat="47.53642" lon="6.70762">
        <ele>439.1</ele>
        <time>2017-02-05T09:32:11.999Z</time>
      </trkpt>
      <trkpt lat="47.53646" lon="6.70764">
        <ele>439</ele>
        <time>2017-02-05T09:32:12.999Z</time>
      </trkpt>
      <trkpt lat="47.53649" lon="6.70765">
        <ele>438.8</ele>
        <time>2017-02-05T09:32:13.999Z</time>
      </trkpt>
      <trkpt lat="47.53651" lon="6.70765">
        <ele>438.7</ele>
        <time>2017-02-05T09:32:14.999Z</time>
      </trkpt>
      <trkpt lat="47.53654" lon="6.70768">
        <ele>438.8</ele>
        <time>2017-02-05T09:32:17.999Z</time>
      </trkpt>
      <trkpt lat="47.53657" lon="6.70771">
        <ele>438.8</ele>
        <time>2017-02-05T09:32:18.999Z</time>
      </trkpt>
      <trkpt lat="47.5366" lon="6.70775">
        <ele>438.6</ele>
        <time>2017-02-05T09:32:19.999Z</time>
      </trkpt>
      <trkpt lat="47.53667" lon="6.70788">
        <ele>438.5</ele>
        <time>2017-02-05T09:32:20.999Z</time>
      </trkpt>
      <trkpt lat="47.53672" lon="6.70795">
        <ele>438.2</ele>
        <time>2017-02-05T09:32:21.999Z</time>
      </trkpt>
      <trkpt lat="47.53674" lon="6.70797">
        <ele>437.9</ele>
        <time>2017-02-05T09:32:22.999Z</time>
      </trkpt>
      <trkpt lat="47.53677" lon="6.70799">
        <ele>437.6</ele>
        <time>2017-02-05T09:32:23.999Z</time>
      </trkpt>
      <trkpt lat="47.53681" lon="6.70801">
        <ele>436.5</ele>
        <time>2017-02-05T09:32:27.999Z</time>
      </trkpt>
      <trkpt lat="47.53683" lon="6.70802">
        <ele>436.3</ele>
        <time>2017-02-05T09:32:28.999Z</time>
      </trkpt>
      <trkpt lat="47.53686" lon="6.70801">
        <ele>435.3</ele>
        <time>2017-02-05T09:32:31.999Z</time>
      </trkpt>
      <trkpt lat="47.53688" lon="6.70801">
        <ele>435</ele>
        <time>2017-02-05T09:32:32.999Z</time>
      </trkpt>
      <trkpt lat="47.53691" lon="6.70803">
        <ele>434.4</ele>
        <time>2017-02-05T09:32:35.999Z</time>
      </trkpt>
      <trkpt lat="47.53693" lon="6.70804">
        <ele>434.2</ele>
        <time>2017-02-05T09:32:36.999Z</time>
      </trkpt>
      <trkpt lat="47.53695" lon="6.70806">
        <ele>434.1</ele>
        <time>2017-02-05T09:32:37.999Z</time>
      </trkpt>
      <trkpt lat="47.537" lon="6.70808">
        <ele>434.2</ele>
        <time>2017-02-05T09:32:38.999Z</time>
      </trkpt>
      <trkpt lat="47.53703" lon="6.70811">
        <ele>434.5</ele>
        <time>2017-02-05T09:32:40.999Z</time>
      </trkpt>
      <trkpt lat="47.53704" lon="6.70812">
        <ele>434.5</ele>
        <time>2017-02-05T09:32:41.999Z</time>
      </trkpt>
      <trkpt lat="47.53705" lon="6.70815">
        <ele>434.6</ele>
        <time>2017-02-05T09:32:42.999Z</time>
      </trkpt>
      <trkpt lat="47.53708" lon="6.70817">
        <ele>434.6</ele>
        <time>2017-02-05T09:32:43.999Z</time>
      </trkpt>
      <trkpt lat="47.5371" lon="6.70818">
        <ele>434.4</ele>
        <time>2017-02-05T09:32:44.999Z</time>
      </trkpt>
      <trkpt lat="47.53712" lon="6.70819">
        <ele>434.2</ele>
        <time>2017-02-05T09:32:45.999Z</time>
      </trkpt>
      <trkpt lat="47.53715" lon="6.70821">
        <ele>434.2</ele>
        <time>2017-02-05T09:32:46.999Z</time>
      </trkpt>
      <trkpt lat="47.53717" lon="6.70822">
        <ele>434.3</ele>
        <time>2017-02-05T09:32:47.999Z</time>
      </trkpt>
      <trkpt lat="47.53719" lon="6.70825">
        <ele>434.5</ele>
        <time>2017-02-05T09:32:48.999Z</time>
      </trkpt>
      <trkpt lat="47.53721" lon="6.70827">
        <ele>434.7</ele>
        <time>2017-02-05T09:32:49.999Z</time>
      </trkpt>
      <trkpt lat="47.53724" lon="6.70831">
        <ele>434.9</ele>
        <time>2017-02-05T09:32:51.999Z</time>
      </trkpt>
      <trkpt lat="47.53725" lon="6.70833">
        <ele>435.1</ele>
        <time>2017-02-05T09:32:52.999Z</time>
      </trkpt>
      <trkpt lat="47.53726" lon="6.70834">
        <ele>435.1</ele>
        <time>2017-02-05T09:32:53.999Z</time>
      </trkpt>
      <trkpt lat="47.53729" lon="6.70837">
        <ele>435</ele>
        <time>2017-02-05T09:32:54.999Z</time>
      </trkpt>
      <trkpt lat="47.5373" lon="6.70839">
        <ele>435</ele>
        <time>2017-02-05T09:32:55.999Z</time>
      </trkpt>
      <trkpt lat="47.53733" lon="6.7084">
        <ele>435.1</ele>
        <time>2017-02-05T09:32:56.999Z</time>
      </trkpt>
      <trkpt lat="47.53736" lon="6.70843">
        <ele>435.3</ele>
        <time>2017-02-05T09:32:57.999Z</time>
      </trkpt>
      <trkpt lat="47.53739" lon="6.70845">
        <ele>435.5</ele>
        <time>2017-02-05T09:32:58.999Z</time>
      </trkpt>
      <trkpt lat="47.53741" lon="6.70845">
        <ele>435.6</ele>
        <time>2017-02-05T09:32:59.999Z</time>
      </trkpt>
      <trkpt lat="47.53744" lon="6.70846">
        <ele>435.7</ele>
        <time>2017-02-05T09:33:00.999Z</time>
      </trkpt>
      <trkpt lat="47.53748" lon="6.70846">
        <ele>436</ele>
        <time>2017-02-05T09:33:02.999Z</time>
      </trkpt>
      <trkpt lat="47.53749" lon="6.70847">
        <ele>436.2</ele>
        <time>2017-02-05T09:33:03.999Z</time>
      </trkpt>
      <trkpt lat="47.53753" lon="6.70848">
        <ele>436.7</ele>
        <time>2017-02-05T09:33:07.999Z</time>
      </trkpt>
      <trkpt lat="47.53754" lon="6.70848">
        <ele>436.7</ele>
        <time>2017-02-05T09:33:08.999Z</time>
      </trkpt>
      <trkpt lat="47.53757" lon="6.70851">
        <ele>436.5</ele>
        <time>2017-02-05T09:33:11.999Z</time>
      </trkpt>
      <trkpt lat="47.53758" lon="6.70852">
        <ele>436.4</ele>
        <time>2017-02-05T09:33:12.999Z</time>
      </trkpt>
      <trkpt lat="47.53762" lon="6.70852">
        <ele>436.3</ele>
        <time>2017-02-05T09:33:14.999Z</time>
      </trkpt>
      <trkpt lat="47.53763" lon="6.70852">
        <ele>436.2</ele>
        <time>2017-02-05T09:33:15.999Z</time>
      </trkpt>
      <trkpt lat="47.53767" lon="6.70854">
        <ele>436</ele>
        <time>2017-02-05T09:33:18.999Z</time>
      </trkpt>
      <trkpt lat="47.53768" lon="6.70854">
        <ele>436</ele>
        <time>2017-02-05T09:33:19.999Z</time>
      </trkpt>
      <trkpt lat="47.53772" lon="6.70857">
        <ele>436.1</ele>
        <time>2017-02-05T09:33:20.999Z</time>
      </trkpt>
      <trkpt lat="47.53774" lon="6.70858">
        <ele>435.9</ele>
        <time>2017-02-05T09:33:21.999Z</time>
      </trkpt>
      <trkpt lat="47.53778" lon="6.70859">
        <ele>436</ele>
        <time>2017-02-05T09:33:22.999Z</time>
      </trkpt>
      <trkpt lat="47.53782" lon="6.7086">
        <ele>436.1</ele>
        <time>2017-02-05T09:33:26.999Z</time>
      </trkpt>
      <trkpt lat="47.53784" lon="6.70861">
        <ele>436.2</ele>
        <time>2017-02-05T09:33:27.999Z</time>
      </trkpt>
      <trkpt lat="47.53788" lon="6.70861">
        <ele>436.4</ele>
        <time>2017-02-05T09:33:28.999Z</time>
      </trkpt>
      <trkpt lat="47.53791" lon="6.70863">
        <ele>436.6</ele>
        <time>2017-02-05T09:33:29.999Z</time>
      </trkpt>
      <trkpt lat="47.53795" lon="6.70865">
        <ele>437.1</ele>
        <time>2017-02-05T09:33:32.999Z</time>
      </trkpt>
      <trkpt lat="47.53796" lon="6.70866">
        <ele>437.3</ele>
        <time>2017-02-05T09:33:33.999Z</time>
      </trkpt>
      <trkpt lat="47.538" lon="6.70868">
        <ele>437.7</ele>
        <time>2017-02-05T09:33:35.999Z</time>
      </trkpt>
      <trkpt lat="47.53803" lon="6.7087">
        <ele>437.9</ele>
        <time>2017-02-05T09:33:36.999Z</time>
      </trkpt>
      <trkpt lat="47.53807" lon="6.70872">
        <ele>438.4</ele>
        <time>2017-02-05T09:33:38.999Z</time>
      </trkpt>
      <trkpt lat="47.53809" lon="6.70873">
        <ele>438.8</ele>
        <time>2017-02-05T09:33:39.999Z</time>
      </trkpt>
      <trkpt lat="47.53811" lon="6.70876">
        <ele>439.4</ele>
        <time>2017-02-05T09:33:41.999Z</time>
      </trkpt>
      <trkpt lat="47.53813" lon="6.70877">
        <ele>439.6</ele>
        <time>2017-02-05T09:33:42.999Z</time>
      </trkpt>
      <trkpt lat="47.53817" lon="6.70879">
        <ele>440.2</ele>
        <time>2017-02-05T09:33:44.999Z</time>
      </trkpt>
      <trkpt lat="47.53819" lon="6.7088">
        <ele>440.3</ele>
        <time>2017-02-05T09:33:45.999Z</time>
      </trkpt>
      <trkpt lat="47.53821" lon="6.70882">
        <ele>440.5</ele>
        <time>2017-02-05T09:33:46.999Z</time>
      </trkpt>
      <trkpt lat="47.53824" lon="6.70884">
        <ele>440.8</ele>
        <time>2017-02-05T09:33:47.999Z</time>
      </trkpt>
      <trkpt lat="47.53827" lon="6.70886">
        <ele>440.9</ele>
        <time>2017-02-05T09:33:48.999Z</time>
      </trkpt>
      <trkpt lat="47.5383" lon="6.70888">
        <ele>441.1</ele>
        <time>2017-02-05T09:33:49.999Z</time>
      </trkpt>
      <trkpt lat="47.53833" lon="6.7089">
        <ele>441.2</ele>
        <time>2017-02-05T09:33:50.999Z</time>
      </trkpt>
      <trkpt lat="47.53835" lon="6.70891">
        <ele>441.4</ele>
        <time>2017-02-05T09:33:51.999Z</time>
      </trkpt>
      <trkpt lat="47.53837" lon="6.70892">
        <ele>441.7</ele>
        <time>2017-02-05T09:33:52.999Z</time>
      </trkpt>
      <trkpt lat="47.5384" lon="6.70893">
        <ele>441.8</ele>
        <time>2017-02-05T09:33:53.999Z</time>
      </trkpt>
      <trkpt lat="47.53843" lon="6.70894">
        <ele>442.2</ele>
        <time>2017-02-05T09:33:55.999Z</time>
      </trkpt>
      <trkpt lat="47.53845" lon="6.70895">
        <ele>442.4</ele>
        <time>2017-02-05T09:33:56.999Z</time>
      </trkpt>
      <trkpt lat="47.53848" lon="6.70895">
        <ele>442.6</ele>
        <time>2017-02-05T09:33:58.999Z</time>
      </trkpt>
      <trkpt lat="47.5385" lon="6.70896">
        <ele>442.8</ele>
        <time>2017-02-05T09:33:59.999Z</time>
      </trkpt>
      <trkpt lat="47.53853" lon="6.70897">
        <ele>443</ele>
        <time>2017-02-05T09:34:01.999Z</time>
      </trkpt>
      <trkpt lat="47.53855" lon="6.70899">
        <ele>443.1</ele>
        <time>2017-02-05T09:34:02.999Z</time>
      </trkpt>
      <trkpt lat="47.53858" lon="6.709">
        <ele>443.6</ele>
        <time>2017-02-05T09:34:04.999Z</time>
      </trkpt>
      <trkpt lat="47.5386" lon="6.70901">
        <ele>443.8</ele>
        <time>2017-02-05T09:34:05.999Z</time>
      </trkpt>
      <trkpt lat="47.53864" lon="6.70902">
        <ele>444.1</ele>
        <time>2017-02-05T09:34:07.999Z</time>
      </trkpt>
      <trkpt lat="47.53867" lon="6.70902">
        <ele>444.2</ele>
        <time>2017-02-05T09:34:09.000Z</time>
      </trkpt>
      <trkpt lat="47.5387" lon="6.70901">
        <ele>444.2</ele>
        <time>2017-02-05T09:34:09.999Z</time>
      </trkpt>
      <trkpt lat="47.53873" lon="6.709">
        <ele>444.3</ele>
        <time>2017-02-05T09:34:10.999Z</time>
      </trkpt>
      <trkpt lat="47.53876" lon="6.70897">
        <ele>444.2</ele>
        <time>2017-02-05T09:34:13.000Z</time>
      </trkpt>
      <trkpt lat="47.53877" lon="6.70897">
        <ele>444.2</ele>
        <time>2017-02-05T09:34:14.000Z</time>
      </trkpt>
      <trkpt lat="47.53878" lon="6.70898">
        <ele>444.2</ele>
        <time>2017-02-05T09:34:15.000Z</time>
      </trkpt>
      <trkpt lat="47.53881" lon="6.70899">
        <ele>444.1</ele>
        <time>2017-02-05T09:34:16.000Z</time>
      </trkpt>
      <trkpt lat="47.53882" lon="6.70899">
        <ele>444.1</ele>
        <time>2017-02-05T09:34:17.000Z</time>
      </trkpt>
      <trkpt lat="47.53886" lon="6.70899">
        <ele>444.1</ele>
        <time>2017-02-05T09:34:18.000Z</time>
      </trkpt>
      <trkpt lat="47.53889" lon="6.70898">
        <ele>444.1</ele>
        <time>2017-02-05T09:34:19.000Z</time>
      </trkpt>
      <trkpt lat="47.53893" lon="6.70898">
        <ele>444.1</ele>
        <time>2017-02-05T09:34:20.000Z</time>
      </trkpt>
      <trkpt lat="47.53897" lon="6.70899">
        <ele>444.2</ele>
        <time>2017-02-05T09:34:21.000Z</time>
      </trkpt>
      <trkpt lat="47.53899" lon="6.709">
        <ele>444.3</ele>
        <time>2017-02-05T09:34:22.000Z</time>
      </trkpt>
      <trkpt lat="47.53902" lon="6.70899">
        <ele>444.3</ele>
        <time>2017-02-05T09:34:23.000Z</time>
      </trkpt>
      <trkpt lat="47.53904" lon="6.70899">
        <ele>444.2</ele>
        <time>2017-02-05T09:34:24.000Z</time>
      </trkpt>
      <trkpt lat="47.53907" lon="6.70898">
        <ele>444.1</ele>
        <time>2017-02-05T09:34:25.000Z</time>
      </trkpt>
      <trkpt lat="47.53911" lon="6.70899">
        <ele>444</ele>
        <time>2017-02-05T09:34:26.000Z</time>
      </trkpt>
      <trkpt lat="47.53915" lon="6.709">
        <ele>442.2</ele>
        <time>2017-02-05T09:34:27.000Z</time>
      </trkpt>
      <trkpt lat="47.5392" lon="6.70903">
        <ele>442.1</ele>
        <time>2017-02-05T09:34:28.000Z</time>
      </trkpt>
      <trkpt lat="47.53925" lon="6.70905">
        <ele>441.9</ele>
        <time>2017-02-05T09:34:29.000Z</time>
      </trkpt>
      <trkpt lat="47.5393" lon="6.70907">
        <ele>441.8</ele>
        <time>2017-02-05T09:34:30.000Z</time>
      </trkpt>
      <trkpt lat="47.53933" lon="6.70907">
        <ele>441.6</ele>
        <time>2017-02-05T09:34:31.000Z</time>
      </trkpt>
      <trkpt lat="47.53937" lon="6.70906">
        <ele>441.3</ele>
        <time>2017-02-05T09:34:32.000Z</time>
      </trkpt>
      <trkpt lat="47.53942" lon="6.70905">
        <ele>439.1</ele>
        <time>2017-02-05T09:34:33.000Z</time>
      </trkpt>
      <trkpt lat="47.53946" lon="6.70902">
        <ele>437.7</ele>
        <time>2017-02-05T09:34:34.000Z</time>
      </trkpt>
      <trkpt lat="47.53948" lon="6.709">
        <ele>437.6</ele>
        <time>2017-02-05T09:34:35.000Z</time>
      </trkpt>
      <trkpt lat="47.53953" lon="6.70895">
        <ele>437.5</ele>
        <time>2017-02-05T09:34:36.000Z</time>
      </trkpt>
      <trkpt lat="47.53958" lon="6.7089">
        <ele>437.5</ele>
        <time>2017-02-05T09:34:37.000Z</time>
      </trkpt>
      <trkpt lat="47.53962" lon="6.70885">
        <ele>437.4</ele>
        <time>2017-02-05T09:34:38.000Z</time>
      </trkpt>
      <trkpt lat="47.53967" lon="6.7088">
        <ele>437.3</ele>
        <time>2017-02-05T09:34:39.000Z</time>
      </trkpt>
      <trkpt lat="47.53971" lon="6.70875">
        <ele>437.2</ele>
        <time>2017-02-05T09:34:40.000Z</time>
      </trkpt>
      <trkpt lat="47.53975" lon="6.70871">
        <ele>436.9</ele>
        <time>2017-02-05T09:34:41.000Z</time>
      </trkpt>
      <trkpt lat="47.53981" lon="6.70867">
        <ele>435.1</ele>
        <time>2017-02-05T09:34:42.000Z</time>
      </trkpt>
      <trkpt lat="47.53986" lon="6.70863">
        <ele>433.4</ele>
        <time>2017-02-05T09:34:43.000Z</time>
      </trkpt>
      <trkpt lat="47.5399" lon="6.70857">
        <ele>432.2</ele>
        <time>2017-02-05T09:34:44.000Z</time>
      </trkpt>
      <trkpt lat="47.53995" lon="6.70852">
        <ele>429.8</ele>
        <time>2017-02-05T09:34:45.000Z</time>
      </trkpt>
      <trkpt lat="47.54001" lon="6.70846">
        <ele>427.9</ele>
        <time>2017-02-05T09:34:46.000Z</time>
      </trkpt>
      <trkpt lat="47.54006" lon="6.7084">
        <ele>426.1</ele>
        <time>2017-02-05T09:34:47.000Z</time>
      </trkpt>
      <trkpt lat="47.54011" lon="6.70835">
        <ele>424.1</ele>
        <time>2017-02-05T09:34:48.000Z</time>
      </trkpt>
      <trkpt lat="47.54015" lon="6.70828">
        <ele>424</ele>
        <time>2017-02-05T09:34:49.000Z</time>
      </trkpt>
      <trkpt lat="47.54019" lon="6.70825">
        <ele>423.7</ele>
        <time>2017-02-05T09:34:50.000Z</time>
      </trkpt>
      <trkpt lat="47.54024" lon="6.70822">
        <ele>421.7</ele>
        <time>2017-02-05T09:34:51.000Z</time>
      </trkpt>
      <trkpt lat="47.54027" lon="6.70819">
        <ele>421.6</ele>
        <time>2017-02-05T09:34:52.000Z</time>
      </trkpt>
      <trkpt lat="47.54031" lon="6.70817">
        <ele>421.5</ele>
        <time>2017-02-05T09:34:53.000Z</time>
      </trkpt>
      <trkpt lat="47.54033" lon="6.70815">
        <ele>421.2</ele>
        <time>2017-02-05T09:34:54.000Z</time>
      </trkpt>
      <trkpt lat="47.54037" lon="6.70812">
        <ele>418</ele>
        <time>2017-02-05T09:34:55.000Z</time>
      </trkpt>
      <trkpt lat="47.54043" lon="6.70812">
        <ele>415.2</ele>
        <time>2017-02-05T09:34:56.000Z</time>
      </trkpt>
      <trkpt lat="47.54051" lon="6.70813">
        <ele>413.3</ele>
        <time>2017-02-05T09:34:57.000Z</time>
      </trkpt>
      <trkpt lat="47.54058" lon="6.70815">
        <ele>411.1</ele>
        <time>2017-02-05T09:34:58.000Z</time>
      </trkpt>
      <trkpt lat="47.54063" lon="6.70815">
        <ele>408.9</ele>
        <time>2017-02-05T09:34:59.000Z</time>
      </trkpt>
      <trkpt lat="47.54065" lon="6.70813">
        <ele>408.6</ele>
        <time>2017-02-05T09:35:00.000Z</time>
      </trkpt>
      <trkpt lat="47.54067" lon="6.70808">
        <ele>408.3</ele>
        <time>2017-02-05T09:35:01.000Z</time>
      </trkpt>
      <trkpt lat="47.5407" lon="6.70804">
        <ele>408</ele>
        <time>2017-02-05T09:35:02.000Z</time>
      </trkpt>
      <trkpt lat="47.54073" lon="6.70799">
        <ele>407.8</ele>
        <time>2017-02-05T09:35:03.000Z</time>
      </trkpt>
      <trkpt lat="47.54076" lon="6.70794">
        <ele>407.4</ele>
        <time>2017-02-05T09:35:04.000Z</time>
      </trkpt>
      <trkpt lat="47.5408" lon="6.70791">
        <ele>407.1</ele>
        <time>2017-02-05T09:35:05.000Z</time>
      </trkpt>
      <trkpt lat="47.54084" lon="6.70787">
        <ele>406.8</ele>
        <time>2017-02-05T09:35:06.000Z</time>
      </trkpt>
      <trkpt lat="47.54087" lon="6.70785">
        <ele>406.5</ele>
        <time>2017-02-05T09:35:07.000Z</time>
      </trkpt>
      <trkpt lat="47.54087" lon="6.70785">
        <ele>406.8</ele>
        <time>2017-02-05T09:35:11.000Z</time>
      </trkpt>
      <trkpt lat="47.54097" lon="6.7078">
        <ele>406.8</ele>
        <time>2017-02-05T09:35:12.000Z</time>
      </trkpt>
      <trkpt lat="47.54097" lon="6.7078">
        <ele>407.9</ele>
        <time>2017-02-05T09:35:15.000Z</time>
      </trkpt>
      <trkpt lat="47.54116" lon="6.70773">
        <ele>408.6</ele>
        <time>2017-02-05T09:35:16.000Z</time>
      </trkpt>
      <trkpt lat="47.54116" lon="6.70773">
        <ele>414.1</ele>
        <time>2017-02-05T09:35:39.000Z</time>
      </trkpt>
      <trkpt lat="47.5413" lon="6.70769">
        <ele>414.1</ele>
        <time>2017-02-05T09:35:40.000Z</time>
      </trkpt>
      <trkpt lat="47.5413" lon="6.70769">
        <ele>414.8</ele>
        <time>2017-02-05T09:35:45.000Z</time>
      </trkpt>
      <trkpt lat="47.54143" lon="6.7077">
        <ele>415</ele>
        <time>2017-02-05T09:35:46.000Z</time>
      </trkpt>
      <trkpt lat="47.54164" lon="6.70772">
        <ele>415.2</ele>
        <time>2017-02-05T09:35:47.000Z</time>
      </trkpt>
      <trkpt lat="47.54164" lon="6.70772">
        <ele>415.5</ele>
        <time>2017-02-05T09:35:48.000Z</time>
      </trkpt>
      <trkpt lat="47.54174" lon="6.70774">
        <ele>415.8</ele>
        <time>2017-02-05T09:35:49.000Z</time>
      </trkpt>
      <trkpt lat="47.54174" lon="6.70774">
        <ele>417.5</ele>
        <time>2017-02-05T09:35:58.000Z</time>
      </trkpt>
      <trkpt lat="47.54184" lon="6.70769">
        <ele>417.5</ele>
        <time>2017-02-05T09:35:59.000Z</time>
      </trkpt>
      <trkpt lat="47.54184" lon="6.70769">
        <ele>417.8</ele>
        <time>2017-02-05T09:36:03.000Z</time>
      </trkpt>
      <trkpt lat="47.54191" lon="6.70768">
        <ele>417.8</ele>
        <time>2017-02-05T09:36:04.000Z</time>
      </trkpt>
      <trkpt lat="47.54191" lon="6.70768">
        <ele>417.4</ele>
        <time>2017-02-05T09:36:10.000Z</time>
      </trkpt>
      <trkpt lat="47.54205" lon="6.70755">
        <ele>417.3</ele>
        <time>2017-02-05T09:36:11.000Z</time>
      </trkpt>
      <trkpt lat="47.54205" lon="6.70755">
        <ele>416.7</ele>
        <time>2017-02-05T09:36:15.000Z</time>
      </trkpt>
      <trkpt lat="47.54219" lon="6.70745">
        <ele>416.6</ele>
        <time>2017-02-05T09:36:16.000Z</time>
      </trkpt>
      <trkpt lat="47.54222" lon="6.70742">
        <ele>416.2</ele>
        <time>2017-02-05T09:36:18.000Z</time>
      </trkpt>
      <trkpt lat="47.54225" lon="6.70741">
        <ele>416</ele>
        <time>2017-02-05T09:36:19.000Z</time>
      </trkpt>
      <trkpt lat="47.54228" lon="6.7074">
        <ele>415.8</ele>
        <time>2017-02-05T09:36:20.000Z</time>
      </trkpt>
      <trkpt lat="47.5423" lon="6.70739">
        <ele>415.5</ele>
        <time>2017-02-05T09:36:21.000Z</time>
      </trkpt>
      <trkpt lat="47.54232" lon="6.70737">
        <ele>415.4</ele>
        <time>2017-02-05T09:36:22.000Z</time>
      </trkpt>
      <trkpt lat="47.54235" lon="6.70736">
        <ele>415.3</ele>
        <time>2017-02-05T09:36:23.000Z</time>
      </trkpt>
      <trkpt lat="47.54237" lon="6.70734">
        <ele>415.2</ele>
        <time>2017-02-05T09:36:24.000Z</time>
      </trkpt>
      <trkpt lat="47.5424" lon="6.70733">
        <ele>415.1</ele>
        <time>2017-02-05T09:36:25.000Z</time>
      </trkpt>
      <trkpt lat="47.54243" lon="6.70731">
        <ele>415</ele>
        <time>2017-02-05T09:36:26.000Z</time>
      </trkpt>
      <trkpt lat="47.54246" lon="6.70729">
        <ele>414.9</ele>
        <time>2017-02-05T09:36:27.000Z</time>
      </trkpt>
      <trkpt lat="47.54249" lon="6.70727">
        <ele>414.8</ele>
        <time>2017-02-05T09:36:29.000Z</time>
      </trkpt>
      <trkpt lat="47.54252" lon="6.70727">
        <ele>414.7</ele>
        <time>2017-02-05T09:36:30.000Z</time>
      </trkpt>
      <trkpt lat="47.54254" lon="6.70727">
        <ele>414.7</ele>
        <time>2017-02-05T09:36:31.000Z</time>
      </trkpt>
      <trkpt lat="47.54257" lon="6.70727">
        <ele>414.6</ele>
        <time>2017-02-05T09:36:32.000Z</time>
      </trkpt>
      <trkpt lat="47.5426" lon="6.70725">
        <ele>414.5</ele>
        <time>2017-02-05T09:36:33.000Z</time>
      </trkpt>
      <trkpt lat="47.54262" lon="6.70723">
        <ele>414.4</ele>
        <time>2017-02-05T09:36:34.000Z</time>
      </trkpt>
      <trkpt lat="47.54264" lon="6.70722">
        <ele>414.4</ele>
        <time>2017-02-05T09:36:35.000Z</time>
      </trkpt>
      <trkpt lat="47.54267" lon="6.7072">
        <ele>414.3</ele>
        <time>2017-02-05T09:36:36.000Z</time>
      </trkpt>
      <trkpt lat="47.54269" lon="6.70719">
        <ele>414.2</ele>
        <time>2017-02-05T09:36:37.000Z</time>
      </trkpt>
      <trkpt lat="47.54272" lon="6.70716">
        <ele>414.2</ele>
        <time>2017-02-05T09:36:38.000Z</time>
      </trkpt>
      <trkpt lat="47.54274" lon="6.70715">
        <ele>414.3</ele>
        <time>2017-02-05T09:36:39.000Z</time>
      </trkpt>
      <trkpt lat="47.54276" lon="6.70712">
        <ele>414.5</ele>
        <time>2017-02-05T09:36:40.000Z</time>
      </trkpt>
      <trkpt lat="47.54279" lon="6.7071">
        <ele>414.7</ele>
        <time>2017-02-05T09:36:41.000Z</time>
      </trkpt>
      <trkpt lat="47.54282" lon="6.70708">
        <ele>414.9</ele>
        <time>2017-02-05T09:36:42.000Z</time>
      </trkpt>
      <trkpt lat="47.54286" lon="6.70705">
        <ele>415.3</ele>
        <time>2017-02-05T09:36:44.000Z</time>
      </trkpt>
      <trkpt lat="47.54287" lon="6.70704">
        <ele>415.5</ele>
        <time>2017-02-05T09:36:45.000Z</time>
      </trkpt>
      <trkpt lat="47.54287" lon="6.70704">
        <ele>416.3</ele>
        <time>2017-02-05T09:36:50.000Z</time>
      </trkpt>
      <trkpt lat="47.54296" lon="6.70693">
        <ele>416.4</ele>
        <time>2017-02-05T09:36:51.000Z</time>
      </trkpt>
      <trkpt lat="47.543" lon="6.70691">
        <ele>416.4</ele>
        <time>2017-02-05T09:36:52.000Z</time>
      </trkpt>
      <trkpt lat="47.54303" lon="6.70688">
        <ele>416.4</ele>
        <time>2017-02-05T09:36:53.000Z</time>
      </trkpt>
      <trkpt lat="47.54306" lon="6.70684">
        <ele>416.3</ele>
        <time>2017-02-05T09:36:54.000Z</time>
      </trkpt>
      <trkpt lat="47.54306" lon="6.70682">
        <ele>416.2</ele>
        <time>2017-02-05T09:36:55.000Z</time>
      </trkpt>
      <trkpt lat="47.54308" lon="6.70677">
        <ele>415.9</ele>
        <time>2017-02-05T09:36:58.000Z</time>
      </trkpt>
      <trkpt lat="47.5431" lon="6.70677">
        <ele>415.7</ele>
        <time>2017-02-05T09:36:59.000Z</time>
      </trkpt>
      <trkpt lat="47.54312" lon="6.70679">
        <ele>415.6</ele>
        <time>2017-02-05T09:37:00.000Z</time>
      </trkpt>
      <trkpt lat="47.54316" lon="6.70682">
        <ele>415.4</ele>
        <time>2017-02-05T09:37:01.000Z</time>
      </trkpt>
      <trkpt lat="47.54323" lon="6.70689">
        <ele>415.4</ele>
        <time>2017-02-05T09:37:02.000Z</time>
      </trkpt>
      <trkpt lat="47.54326" lon="6.70695">
        <ele>415.5</ele>
        <time>2017-02-05T09:37:03.000Z</time>
      </trkpt>
      <trkpt lat="47.54329" lon="6.707">
        <ele>415.6</ele>
        <time>2017-02-05T09:37:04.000Z</time>
      </trkpt>
      <trkpt lat="47.54332" lon="6.70704">
        <ele>415.8</ele>
        <time>2017-02-05T09:37:05.000Z</time>
      </trkpt>
      <trkpt lat="47.54333" lon="6.70708">
        <ele>415.8</ele>
        <time>2017-02-05T09:37:06.000Z</time>
      </trkpt>
      <trkpt lat="47.54334" lon="6.70711">
        <ele>415.8</ele>
        <time>2017-02-05T09:37:07.000Z</time>
      </trkpt>
      <trkpt lat="47.54336" lon="6.70715">
        <ele>415.8</ele>
        <time>2017-02-05T09:37:08.000Z</time>
      </trkpt>
      <trkpt lat="47.54336" lon="6.70719">
        <ele>415.8</ele>
        <time>2017-02-05T09:37:09.000Z</time>
      </trkpt>
      <trkpt lat="47.54337" lon="6.70723">
        <ele>416</ele>
        <time>2017-02-05T09:37:10.000Z</time>
      </trkpt>
      <trkpt lat="47.54338" lon="6.70729">
        <ele>416.1</ele>
        <time>2017-02-05T09:37:11.000Z</time>
      </trkpt>
      <trkpt lat="47.54339" lon="6.7074">
        <ele>416.2</ele>
        <time>2017-02-05T09:37:12.000Z</time>
      </trkpt>
      <trkpt lat="47.54339" lon="6.70746">
        <ele>416.4</ele>
        <time>2017-02-05T09:37:13.000Z</time>
      </trkpt>
      <trkpt lat="47.54339" lon="6.70751">
        <ele>416.7</ele>
        <time>2017-02-05T09:37:14.000Z</time>
      </trkpt>
      <trkpt lat="47.54339" lon="6.70756">
        <ele>417</ele>
        <time>2017-02-05T09:37:15.000Z</time>
      </trkpt>
      <trkpt lat="47.5434" lon="6.7076">
        <ele>417.1</ele>
        <time>2017-02-05T09:37:16.000Z</time>
      </trkpt>
      <trkpt lat="47.54341" lon="6.70764">
        <ele>417.3</ele>
        <time>2017-02-05T09:37:17.000Z</time>
      </trkpt>
      <trkpt lat="47.54343" lon="6.70766">
        <ele>417.5</ele>
        <time>2017-02-05T09:37:18.000Z</time>
      </trkpt>
      <trkpt lat="47.54344" lon="6.70767">
        <ele>417.7</ele>
        <time>2017-02-05T09:37:19.000Z</time>
      </trkpt>
      <trkpt lat="47.54347" lon="6.70766">
        <ele>417.8</ele>
        <time>2017-02-05T09:37:20.000Z</time>
      </trkpt>
      <trkpt lat="47.54351" lon="6.70765">
        <ele>417.9</ele>
        <time>2017-02-05T09:37:21.000Z</time>
      </trkpt>
      <trkpt lat="47.54355" lon="6.70763">
        <ele>418</ele>
        <time>2017-02-05T09:37:22.000Z</time>
      </trkpt>
      <trkpt lat="47.54358" lon="6.70761">
        <ele>418</ele>
        <time>2017-02-05T09:37:23.000Z</time>
      </trkpt>
      <trkpt lat="47.54362" lon="6.70759">
        <ele>418</ele>
        <time>2017-02-05T09:37:24.000Z</time>
      </trkpt>
      <trkpt lat="47.54369" lon="6.70754">
        <ele>418</ele>
        <time>2017-02-05T09:37:25.000Z</time>
      </trkpt>
      <trkpt lat="47.54374" lon="6.70749">
        <ele>417.9</ele>
        <time>2017-02-05T09:37:26.000Z</time>
      </trkpt>
      <trkpt lat="47.54377" lon="6.70744">
        <ele>417.8</ele>
        <time>2017-02-05T09:37:27.000Z</time>
      </trkpt>
      <trkpt lat="47.54379" lon="6.70738">
        <ele>417.4</ele>
        <time>2017-02-05T09:37:28.000Z</time>
      </trkpt>
      <trkpt lat="47.5438" lon="6.70732">
        <ele>417.1</ele>
        <time>2017-02-05T09:37:29.000Z</time>
      </trkpt>
      <trkpt lat="47.54382" lon="6.70727">
        <ele>416.8</ele>
        <time>2017-02-05T09:37:30.000Z</time>
      </trkpt>
      <trkpt lat="47.54383" lon="6.70722">
        <ele>416.3</ele>
        <time>2017-02-05T09:37:31.000Z</time>
      </trkpt>
      <trkpt lat="47.54383" lon="6.7072">
        <ele>415.9</ele>
        <time>2017-02-05T09:37:32.000Z</time>
      </trkpt>
      <trkpt lat="47.54384" lon="6.7071">
        <ele>415.5</ele>
        <time>2017-02-05T09:37:33.000Z</time>
      </trkpt>
      <trkpt lat="47.54384" lon="6.707">
        <ele>415.2</ele>
        <time>2017-02-05T09:37:34.000Z</time>
      </trkpt>
      <trkpt lat="47.54384" lon="6.70692">
        <ele>415</ele>
        <time>2017-02-05T09:37:35.000Z</time>
      </trkpt>
      <trkpt lat="47.54385" lon="6.70684">
        <ele>412.3</ele>
        <time>2017-02-05T09:37:36.000Z</time>
      </trkpt>
      <trkpt lat="47.54387" lon="6.70679">
        <ele>410.7</ele>
        <time>2017-02-05T09:37:37.000Z</time>
      </trkpt>
      <trkpt lat="47.54391" lon="6.7067">
        <ele>407.7</ele>
        <time>2017-02-05T09:37:38.000Z</time>
      </trkpt>
      <trkpt lat="47.54396" lon="6.7066">
        <ele>405.2</ele>
        <time>2017-02-05T09:37:39.000Z</time>
      </trkpt>
      <trkpt lat="47.54399" lon="6.70652">
        <ele>405</ele>
        <time>2017-02-05T09:37:40.000Z</time>
      </trkpt>
      <trkpt lat="47.54402" lon="6.70645">
        <ele>403.1</ele>
        <time>2017-02-05T09:37:41.000Z</time>
      </trkpt>
      <trkpt lat="47.54404" lon="6.70639">
        <ele>403</ele>
        <time>2017-02-05T09:37:42.000Z</time>
      </trkpt>
      <trkpt lat="47.54408" lon="6.70633">
        <ele>400.3</ele>
        <time>2017-02-05T09:37:43.000Z</time>
      </trkpt>
      <trkpt lat="47.54412" lon="6.70628">
        <ele>398.9</ele>
        <time>2017-02-05T09:37:44.000Z</time>
      </trkpt>
      <trkpt lat="47.54417" lon="6.70623">
        <ele>397.3</ele>
        <time>2017-02-05T09:37:45.000Z</time>
      </trkpt>
      <trkpt lat="47.5442" lon="6.70619">
        <ele>397.1</ele>
        <time>2017-02-05T09:37:46.000Z</time>
      </trkpt>
      <trkpt lat="47.54424" lon="6.70616">
        <ele>397</ele>
        <time>2017-02-05T09:37:47.000Z</time>
      </trkpt>
      <trkpt lat="47.54427" lon="6.70611">
        <ele>396.9</ele>
        <time>2017-02-05T09:37:48.000Z</time>
      </trkpt>
      <trkpt lat="47.54428" lon="6.70607">
        <ele>396.7</ele>
        <time>2017-02-05T09:37:49.000Z</time>
      </trkpt>
      <trkpt lat="47.5443" lon="6.70602">
        <ele>396.7</ele>
        <time>2017-02-05T09:37:50.000Z</time>
      </trkpt>
      <trkpt lat="47.54433" lon="6.70598">
        <ele>396.5</ele>
        <time>2017-02-05T09:37:51.000Z</time>
      </trkpt>
      <trkpt lat="47.54438" lon="6.70592">
        <ele>396.4</ele>
        <time>2017-02-05T09:37:52.000Z</time>
      </trkpt>
      <trkpt lat="47.54445" lon="6.70587">
        <ele>396.5</ele>
        <time>2017-02-05T09:37:53.000Z</time>
      </trkpt>
      <trkpt lat="47.54451" lon="6.70583">
        <ele>396.4</ele>
        <time>2017-02-05T09:37:54.000Z</time>
      </trkpt>
      <trkpt lat="47.54458" lon="6.70577">
        <ele>396.3</ele>
        <time>2017-02-05T09:37:55.000Z</time>
      </trkpt>
      <trkpt lat="47.54466" lon="6.70571">
        <ele>396.3</ele>
        <time>2017-02-05T09:37:56.000Z</time>
      </trkpt>
      <trkpt lat="47.54473" lon="6.70568">
        <ele>396.4</ele>
        <time>2017-02-05T09:37:57.000Z</time>
      </trkpt>
      <trkpt lat="47.54479" lon="6.70567">
        <ele>396.6</ele>
        <time>2017-02-05T09:37:58.000Z</time>
      </trkpt>
      <trkpt lat="47.54484" lon="6.70566">
        <ele>396.7</ele>
        <time>2017-02-05T09:37:59.000Z</time>
      </trkpt>
      <trkpt lat="47.54488" lon="6.70565">
        <ele>396.9</ele>
        <time>2017-02-05T09:38:00.000Z</time>
      </trkpt>
      <trkpt lat="47.54492" lon="6.70564">
        <ele>396.9</ele>
        <time>2017-02-05T09:38:01.000Z</time>
      </trkpt>
      <trkpt lat="47.54496" lon="6.70563">
        <ele>396.8</ele>
        <time>2017-02-05T09:38:02.000Z</time>
      </trkpt>
      <trkpt lat="47.54502" lon="6.7056">
        <ele>396.9</ele>
        <time>2017-02-05T09:38:03.000Z</time>
      </trkpt>
      <trkpt lat="47.54506" lon="6.70559">
        <ele>396.8</ele>
        <time>2017-02-05T09:38:04.000Z</time>
      </trkpt>
      <trkpt lat="47.54509" lon="6.70558">
        <ele>396.9</ele>
        <time>2017-02-05T09:38:05.000Z</time>
      </trkpt>
      <trkpt lat="47.54512" lon="6.70557">
        <ele>397</ele>
        <time>2017-02-05T09:38:06.000Z</time>
      </trkpt>
      <trkpt lat="47.54516" lon="6.70556">
        <ele>397.1</ele>
        <time>2017-02-05T09:38:07.000Z</time>
      </trkpt>
      <trkpt lat="47.54519" lon="6.70556">
        <ele>397.3</ele>
        <time>2017-02-05T09:38:08.000Z</time>
      </trkpt>
      <trkpt lat="47.54522" lon="6.70557">
        <ele>397.5</ele>
        <time>2017-02-05T09:38:09.000Z</time>
      </trkpt>
      <trkpt lat="47.54529" lon="6.70556">
        <ele>397.7</ele>
        <time>2017-02-05T09:38:10.000Z</time>
      </trkpt>
      <trkpt lat="47.54529" lon="6.70556">
        <ele>399.4</ele>
        <time>2017-02-05T09:38:19.000Z</time>
      </trkpt>
      <trkpt lat="47.54569" lon="6.70546">
        <ele>399.6</ele>
        <time>2017-02-05T09:38:20.000Z</time>
      </trkpt>
      <trkpt lat="47.54569" lon="6.70546">
        <ele>401.2</ele>
        <time>2017-02-05T09:38:25.000Z</time>
      </trkpt>
      <trkpt lat="47.54597" lon="6.70542">
        <ele>401.5</ele>
        <time>2017-02-05T09:38:26.000Z</time>
      </trkpt>
      <trkpt lat="47.54597" lon="6.70542">
        <ele>402.8</ele>
        <time>2017-02-05T09:38:30.000Z</time>
      </trkpt>
      <trkpt lat="47.54615" lon="6.70537">
        <ele>402.8</ele>
        <time>2017-02-05T09:38:31.000Z</time>
      </trkpt>
      <trkpt lat="47.54615" lon="6.70537">
        <ele>403.1</ele>
        <time>2017-02-05T09:38:35.000Z</time>
      </trkpt>
      <trkpt lat="47.54634" lon="6.70533">
        <ele>403.2</ele>
        <time>2017-02-05T09:38:36.000Z</time>
      </trkpt>
      <trkpt lat="47.54634" lon="6.70533">
        <ele>404</ele>
        <time>2017-02-05T09:38:43.000Z</time>
      </trkpt>
      <trkpt lat="47.54647" lon="6.70527">
        <ele>404.2</ele>
        <time>2017-02-05T09:38:44.000Z</time>
      </trkpt>
      <trkpt lat="47.54647" lon="6.70527">
        <ele>404.8</ele>
        <time>2017-02-05T09:38:46.000Z</time>
      </trkpt>
      <trkpt lat="47.54657" lon="6.70523">
        <ele>405</ele>
        <time>2017-02-05T09:38:47.000Z</time>
      </trkpt>
      <trkpt lat="47.5466" lon="6.70522">
        <ele>405.2</ele>
        <time>2017-02-05T09:38:48.000Z</time>
      </trkpt>
      <trkpt lat="47.54663" lon="6.7052">
        <ele>405.3</ele>
        <time>2017-02-05T09:38:49.000Z</time>
      </trkpt>
      <trkpt lat="47.54668" lon="6.70517">
        <ele>405.5</ele>
        <time>2017-02-05T09:38:50.000Z</time>
      </trkpt>
      <trkpt lat="47.54671" lon="6.70515">
        <ele>405.7</ele>
        <time>2017-02-05T09:38:51.000Z</time>
      </trkpt>
      <trkpt lat="47.54674" lon="6.70514">
        <ele>406.1</ele>
        <time>2017-02-05T09:38:52.000Z</time>
      </trkpt>
      <trkpt lat="47.54676" lon="6.70513">
        <ele>406.3</ele>
        <time>2017-02-05T09:38:53.000Z</time>
      </trkpt>
      <trkpt lat="47.54678" lon="6.70512">
        <ele>406.6</ele>
        <time>2017-02-05T09:38:54.000Z</time>
      </trkpt>
      <trkpt lat="47.54681" lon="6.7051">
        <ele>406.9</ele>
        <time>2017-02-05T09:38:55.000Z</time>
      </trkpt>
      <trkpt lat="47.54683" lon="6.70508">
        <ele>407.2</ele>
        <time>2017-02-05T09:38:56.000Z</time>
      </trkpt>
      <trkpt lat="47.54685" lon="6.70505">
        <ele>407.5</ele>
        <time>2017-02-05T09:38:57.000Z</time>
      </trkpt>
      <trkpt lat="47.54688" lon="6.70504">
        <ele>407.8</ele>
        <time>2017-02-05T09:38:58.000Z</time>
      </trkpt>
      <trkpt lat="47.54693" lon="6.705">
        <ele>408.1</ele>
        <time>2017-02-05T09:38:59.000Z</time>
      </trkpt>
      <trkpt lat="47.54695" lon="6.70499">
        <ele>408.4</ele>
        <time>2017-02-05T09:39:00.000Z</time>
      </trkpt>
      <trkpt lat="47.54697" lon="6.70497">
        <ele>408.5</ele>
        <time>2017-02-05T09:39:01.000Z</time>
      </trkpt>
      <trkpt lat="47.547" lon="6.70493">
        <ele>409.7</ele>
        <time>2017-02-05T09:39:06.000Z</time>
      </trkpt>
      <trkpt lat="47.5471" lon="6.70484">
        <ele>410</ele>
        <time>2017-02-05T09:39:07.000Z</time>
      </trkpt>
      <trkpt lat="47.54713" lon="6.70481">
        <ele>410.6</ele>
        <time>2017-02-05T09:39:09.000Z</time>
      </trkpt>
      <trkpt lat="47.54714" lon="6.7048">
        <ele>410.8</ele>
        <time>2017-02-05T09:39:10.000Z</time>
      </trkpt>
      <trkpt lat="47.54715" lon="6.70479">
        <ele>411.9</ele>
        <time>2017-02-05T09:39:16.000Z</time>
      </trkpt>
      <trkpt lat="47.54725" lon="6.70474">
        <ele>412.2</ele>
        <time>2017-02-05T09:39:17.000Z</time>
      </trkpt>
      <trkpt lat="47.54725" lon="6.70474">
        <ele>412.1</ele>
        <time>2017-02-05T09:39:40.000Z</time>
      </trkpt>
      <trkpt lat="47.54737" lon="6.70482">
        <ele>412</ele>
        <time>2017-02-05T09:39:41.000Z</time>
      </trkpt>
      <trkpt lat="47.54737" lon="6.70482">
        <ele>412.5</ele>
        <time>2017-02-05T09:39:44.000Z</time>
      </trkpt>
      <trkpt lat="47.54742" lon="6.70495">
        <ele>412.8</ele>
        <time>2017-02-05T09:39:45.000Z</time>
      </trkpt>
      <trkpt lat="47.54743" lon="6.70498">
        <ele>413</ele>
        <time>2017-02-05T09:39:46.000Z</time>
      </trkpt>
      <trkpt lat="47.54744" lon="6.70502">
        <ele>413.2</ele>
        <time>2017-02-05T09:39:47.000Z</time>
      </trkpt>
      <trkpt lat="47.54744" lon="6.70502">
        <ele>414.4</ele>
        <time>2017-02-05T09:39:51.000Z</time>
      </trkpt>
      <trkpt lat="47.54748" lon="6.70522">
        <ele>414.8</ele>
        <time>2017-02-05T09:39:52.000Z</time>
      </trkpt>
      <trkpt lat="47.54749" lon="6.70527">
        <ele>415.4</ele>
        <time>2017-02-05T09:39:54.000Z</time>
      </trkpt>
      <trkpt lat="47.54749" lon="6.70529">
        <ele>415.7</ele>
        <time>2017-02-05T09:39:55.000Z</time>
      </trkpt>
      <trkpt lat="47.5475" lon="6.70533">
        <ele>417</ele>
        <time>2017-02-05T09:39:58.000Z</time>
      </trkpt>
      <trkpt lat="47.54749" lon="6.70541">
        <ele>417.4</ele>
        <time>2017-02-05T09:39:59.000Z</time>
      </trkpt>
      <trkpt lat="47.54747" lon="6.70546">
        <ele>418.1</ele>
        <time>2017-02-05T09:40:01.000Z</time>
      </trkpt>
      <trkpt lat="47.54747" lon="6.70549">
        <ele>418.4</ele>
        <time>2017-02-05T09:40:02.000Z</time>
      </trkpt>
      <trkpt lat="47.54745" lon="6.70554">
        <ele>418.9</ele>
        <time>2017-02-05T09:40:04.000Z</time>
      </trkpt>
      <trkpt lat="47.54744" lon="6.70556">
        <ele>419.2</ele>
        <time>2017-02-05T09:40:05.000Z</time>
      </trkpt>
      <trkpt lat="47.54744" lon="6.70561">
        <ele>420.7</ele>
        <time>2017-02-05T09:40:09.000Z</time>
      </trkpt>
      <trkpt lat="47.54744" lon="6.70564">
        <ele>421</ele>
        <time>2017-02-05T09:40:10.000Z</time>
      </trkpt>
      <trkpt lat="47.54743" lon="6.7057">
        <ele>422.3</ele>
        <time>2017-02-05T09:40:14.000Z</time>
      </trkpt>
      <trkpt lat="47.54742" lon="6.70572">
        <ele>422.6</ele>
        <time>2017-02-05T09:40:15.000Z</time>
      </trkpt>
      <trkpt lat="47.5474" lon="6.70578">
        <ele>423.2</ele>
        <time>2017-02-05T09:40:18.000Z</time>
      </trkpt>
      <trkpt lat="47.5474" lon="6.7058">
        <ele>423.3</ele>
        <time>2017-02-05T09:40:19.000Z</time>
      </trkpt>
      <trkpt lat="47.54739" lon="6.70587">
        <ele>423.4</ele>
        <time>2017-02-05T09:40:21.000Z</time>
      </trkpt>
      <trkpt lat="47.54739" lon="6.70588">
        <ele>423.5</ele>
        <time>2017-02-05T09:40:22.000Z</time>
      </trkpt>
      <trkpt lat="47.54738" lon="6.70592">
        <ele>423.5</ele>
        <time>2017-02-05T09:40:25.000Z</time>
      </trkpt>
      <trkpt lat="47.54737" lon="6.70594">
        <ele>423.5</ele>
        <time>2017-02-05T09:40:26.000Z</time>
      </trkpt>
      <trkpt lat="47.54736" lon="6.706">
        <ele>423.5</ele>
        <time>2017-02-05T09:40:28.000Z</time>
      </trkpt>
      <trkpt lat="47.54734" lon="6.70602">
        <ele>423.7</ele>
        <time>2017-02-05T09:40:29.000Z</time>
      </trkpt>
      <trkpt lat="47.54732" lon="6.70605">
        <ele>423.8</ele>
        <time>2017-02-05T09:40:30.000Z</time>
      </trkpt>
      <trkpt lat="47.54731" lon="6.70608">
        <ele>424</ele>
        <time>2017-02-05T09:40:31.000Z</time>
      </trkpt>
      <trkpt lat="47.5473" lon="6.70611">
        <ele>424</ele>
        <time>2017-02-05T09:40:32.000Z</time>
      </trkpt>
      <trkpt lat="47.54729" lon="6.70614">
        <ele>424.1</ele>
        <time>2017-02-05T09:40:33.000Z</time>
      </trkpt>
      <trkpt lat="47.54728" lon="6.70618">
        <ele>424.1</ele>
        <time>2017-02-05T09:40:34.000Z</time>
      </trkpt>
      <trkpt lat="47.54727" lon="6.70622">
        <ele>424.1</ele>
        <time>2017-02-05T09:40:35.000Z</time>
      </trkpt>
      <trkpt lat="47.54725" lon="6.70626">
        <ele>424</ele>
        <time>2017-02-05T09:40:36.000Z</time>
      </trkpt>
      <trkpt lat="47.54724" lon="6.70628">
        <ele>423.9</ele>
        <time>2017-02-05T09:40:37.000Z</time>
      </trkpt>
      <trkpt lat="47.54722" lon="6.7063">
        <ele>423.8</ele>
        <time>2017-02-05T09:40:38.000Z</time>
      </trkpt>
      <trkpt lat="47.54721" lon="6.70634">
        <ele>423.8</ele>
        <time>2017-02-05T09:40:39.000Z</time>
      </trkpt>
      <trkpt lat="47.54719" lon="6.70638">
        <ele>423.8</ele>
        <time>2017-02-05T09:40:41.000Z</time>
      </trkpt>
      <trkpt lat="47.54717" lon="6.70641">
        <ele>423.9</ele>
        <time>2017-02-05T09:40:42.000Z</time>
      </trkpt>
      <trkpt lat="47.54715" lon="6.70645">
        <ele>424.1</ele>
        <time>2017-02-05T09:40:44.000Z</time>
      </trkpt>
      <trkpt lat="47.54714" lon="6.70648">
        <ele>424.1</ele>
        <time>2017-02-05T09:40:45.000Z</time>
      </trkpt>
      <trkpt lat="47.54714" lon="6.70652">
        <ele>424.2</ele>
        <time>2017-02-05T09:40:47.000Z</time>
      </trkpt>
      <trkpt lat="47.54713" lon="6.70655">
        <ele>424.2</ele>
        <time>2017-02-05T09:40:48.000Z</time>
      </trkpt>
      <trkpt lat="47.54713" lon="6.70659">
        <ele>424.1</ele>
        <time>2017-02-05T09:40:49.000Z</time>
      </trkpt>
      <trkpt lat="47.54712" lon="6.70661">
        <ele>423.9</ele>
        <time>2017-02-05T09:40:50.000Z</time>
      </trkpt>
      <trkpt lat="47.5471" lon="6.70667">
        <ele>423.5</ele>
        <time>2017-02-05T09:40:52.000Z</time>
      </trkpt>
      <trkpt lat="47.5471" lon="6.70669">
        <ele>423.3</ele>
        <time>2017-02-05T09:40:53.000Z</time>
      </trkpt>
      <trkpt lat="47.54709" lon="6.70674">
        <ele>423.1</ele>
        <time>2017-02-05T09:40:55.000Z</time>
      </trkpt>
      <trkpt lat="47.54708" lon="6.70676">
        <ele>423</ele>
        <time>2017-02-05T09:40:56.000Z</time>
      </trkpt>
      <trkpt lat="47.54707" lon="6.70681">
        <ele>422.7</ele>
        <time>2017-02-05T09:40:58.000Z</time>
      </trkpt>
      <trkpt lat="47.54707" lon="6.70684">
        <ele>422.5</ele>
        <time>2017-02-05T09:40:59.000Z</time>
      </trkpt>
      <trkpt lat="47.54707" lon="6.70688">
        <ele>422.3</ele>
        <time>2017-02-05T09:41:00.000Z</time>
      </trkpt>
      <trkpt lat="47.54705" lon="6.70691">
        <ele>421.9</ele>
        <time>2017-02-05T09:41:01.000Z</time>
      </trkpt>
      <trkpt lat="47.54705" lon="6.70697">
        <ele>421.5</ele>
        <time>2017-02-05T09:41:04.000Z</time>
      </trkpt>
      <trkpt lat="47.54704" lon="6.707">
        <ele>421.5</ele>
        <time>2017-02-05T09:41:05.000Z</time>
      </trkpt>
      <trkpt lat="47.54704" lon="6.70705">
        <ele>421.4</ele>
        <time>2017-02-05T09:41:07.000Z</time>
      </trkpt>
      <trkpt lat="47.54703" lon="6.70707">
        <ele>421.4</ele>
        <time>2017-02-05T09:41:08.000Z</time>
      </trkpt>
      <trkpt lat="47.54705" lon="6.70713">
        <ele>421.2</ele>
        <time>2017-02-05T09:41:11.000Z</time>
      </trkpt>
      <trkpt lat="47.54705" lon="6.70715">
        <ele>421.2</ele>
        <time>2017-02-05T09:41:12.000Z</time>
      </trkpt>
      <trkpt lat="47.54705" lon="6.7072">
        <ele>421.1</ele>
        <time>2017-02-05T09:41:13.000Z</time>
      </trkpt>
      <trkpt lat="47.54706" lon="6.70727">
        <ele>421.1</ele>
        <time>2017-02-05T09:41:14.000Z</time>
      </trkpt>
      <trkpt lat="47.54706" lon="6.70733">
        <ele>421.3</ele>
        <time>2017-02-05T09:41:15.000Z</time>
      </trkpt>
      <trkpt lat="47.54706" lon="6.70738">
        <ele>421.3</ele>
        <time>2017-02-05T09:41:16.000Z</time>
      </trkpt>
      <trkpt lat="47.54706" lon="6.70742">
        <ele>421.5</ele>
        <time>2017-02-05T09:41:17.000Z</time>
      </trkpt>
      <trkpt lat="47.54706" lon="6.70745">
        <ele>421.5</ele>
        <time>2017-02-05T09:41:18.000Z</time>
      </trkpt>
      <trkpt lat="47.54708" lon="6.70748">
        <ele>421.6</ele>
        <time>2017-02-05T09:41:20.000Z</time>
      </trkpt>
      <trkpt lat="47.54709" lon="6.70751">
        <ele>421.8</ele>
        <time>2017-02-05T09:41:21.000Z</time>
      </trkpt>
      <trkpt lat="47.5471" lon="6.70753">
        <ele>421.9</ele>
        <time>2017-02-05T09:41:22.000Z</time>
      </trkpt>
      <trkpt lat="47.54712" lon="6.70756">
        <ele>422.1</ele>
        <time>2017-02-05T09:41:23.000Z</time>
      </trkpt>
      <trkpt lat="47.54714" lon="6.70761">
        <ele>422.2</ele>
        <time>2017-02-05T09:41:24.000Z</time>
      </trkpt>
      <trkpt lat="47.54716" lon="6.70765">
        <ele>422.2</ele>
        <time>2017-02-05T09:41:25.000Z</time>
      </trkpt>
      <trkpt lat="47.54718" lon="6.7077">
        <ele>422.3</ele>
        <time>2017-02-05T09:41:26.000Z</time>
      </trkpt>
      <trkpt lat="47.54719" lon="6.70773">
        <ele>422.4</ele>
        <time>2017-02-05T09:41:27.000Z</time>
      </trkpt>
      <trkpt lat="47.54721" lon="6.70776">
        <ele>422.4</ele>
        <time>2017-02-05T09:41:28.000Z</time>
      </trkpt>
      <trkpt lat="47.54724" lon="6.70779">
        <ele>422.4</ele>
        <time>2017-02-05T09:41:29.000Z</time>
      </trkpt>
      <trkpt lat="47.54726" lon="6.70781">
        <ele>422.5</ele>
        <time>2017-02-05T09:41:30.000Z</time>
      </trkpt>
      <trkpt lat="47.54728" lon="6.70785">
        <ele>422.6</ele>
        <time>2017-02-05T09:41:31.000Z</time>
      </trkpt>
      <trkpt lat="47.54731" lon="6.70788">
        <ele>422.5</ele>
        <time>2017-02-05T09:41:34.000Z</time>
      </trkpt>
      <trkpt lat="47.54733" lon="6.70789">
        <ele>422.5</ele>
        <time>2017-02-05T09:41:35.000Z</time>
      </trkpt>
      <trkpt lat="47.54735" lon="6.70791">
        <ele>422.4</ele>
        <time>2017-02-05T09:41:36.000Z</time>
      </trkpt>
      <trkpt lat="47.54737" lon="6.70792">
        <ele>422.3</ele>
        <time>2017-02-05T09:41:37.000Z</time>
      </trkpt>
      <trkpt lat="47.5474" lon="6.70794">
        <ele>422.4</ele>
        <time>2017-02-05T09:41:38.000Z</time>
      </trkpt>
      <trkpt lat="47.54742" lon="6.70795">
        <ele>422.4</ele>
        <time>2017-02-05T09:41:39.000Z</time>
      </trkpt>
      <trkpt lat="47.54744" lon="6.70797">
        <ele>422.5</ele>
        <time>2017-02-05T09:41:40.000Z</time>
      </trkpt>
      <trkpt lat="47.54747" lon="6.70799">
        <ele>422.4</ele>
        <time>2017-02-05T09:41:41.000Z</time>
      </trkpt>
      <trkpt lat="47.54749" lon="6.70801">
        <ele>422.4</ele>
        <time>2017-02-05T09:41:42.000Z</time>
      </trkpt>
      <trkpt lat="47.54751" lon="6.70803">
        <ele>422.4</ele>
        <time>2017-02-05T09:41:43.000Z</time>
      </trkpt>
      <trkpt lat="47.54754" lon="6.70805">
        <ele>422.6</ele>
        <time>2017-02-05T09:41:45.000Z</time>
      </trkpt>
      <trkpt lat="47.54756" lon="6.70806">
        <ele>422.7</ele>
        <time>2017-02-05T09:41:46.000Z</time>
      </trkpt>
      <trkpt lat="47.54759" lon="6.70808">
        <ele>422.8</ele>
        <time>2017-02-05T09:41:47.000Z</time>
      </trkpt>
      <trkpt lat="47.5476" lon="6.70808">
        <ele>422.8</ele>
        <time>2017-02-05T09:41:48.000Z</time>
      </trkpt>
      <trkpt lat="47.54763" lon="6.7081">
        <ele>422.7</ele>
        <time>2017-02-05T09:41:50.000Z</time>
      </trkpt>
      <trkpt lat="47.54766" lon="6.70812">
        <ele>422.6</ele>
        <time>2017-02-05T09:41:51.000Z</time>
      </trkpt>
      <trkpt lat="47.5477" lon="6.70815">
        <ele>422.6</ele>
        <time>2017-02-05T09:41:52.000Z</time>
      </trkpt>
      <trkpt lat="47.54773" lon="6.70819">
        <ele>422.6</ele>
        <time>2017-02-05T09:41:53.000Z</time>
      </trkpt>
      <trkpt lat="47.54774" lon="6.70822">
        <ele>422.6</ele>
        <time>2017-02-05T09:41:54.000Z</time>
      </trkpt>
      <trkpt lat="47.54776" lon="6.70823">
        <ele>422.6</ele>
        <time>2017-02-05T09:41:55.000Z</time>
      </trkpt>
      <trkpt lat="47.54779" lon="6.70827">
        <ele>422.9</ele>
        <time>2017-02-05T09:41:57.000Z</time>
      </trkpt>
      <trkpt lat="47.54781" lon="6.70828">
        <ele>423</ele>
        <time>2017-02-05T09:41:58.000Z</time>
      </trkpt>
      <trkpt lat="47.54785" lon="6.7083">
        <ele>423</ele>
        <time>2017-02-05T09:42:00.000Z</time>
      </trkpt>
      <trkpt lat="47.54788" lon="6.70832">
        <ele>423</ele>
        <time>2017-02-05T09:42:01.000Z</time>
      </trkpt>
      <trkpt lat="47.5479" lon="6.70834">
        <ele>423.1</ele>
        <time>2017-02-05T09:42:02.000Z</time>
      </trkpt>
      <trkpt lat="47.54792" lon="6.70835">
        <ele>423.1</ele>
        <time>2017-02-05T09:42:03.000Z</time>
      </trkpt>
      <trkpt lat="47.54796" lon="6.70835">
        <ele>422.8</ele>
        <time>2017-02-05T09:42:05.000Z</time>
      </trkpt>
      <trkpt lat="47.54798" lon="6.70836">
        <ele>422.8</ele>
        <time>2017-02-05T09:42:06.000Z</time>
      </trkpt>
      <trkpt lat="47.548" lon="6.70838">
        <ele>422.6</ele>
        <time>2017-02-05T09:42:09.000Z</time>
      </trkpt>
      <trkpt lat="47.54805" lon="6.7084">
        <ele>422.6</ele>
        <time>2017-02-05T09:42:10.000Z</time>
      </trkpt>
      <trkpt lat="47.54808" lon="6.70842">
        <ele>422.5</ele>
        <time>2017-02-05T09:42:11.000Z</time>
      </trkpt>
      <trkpt lat="47.54811" lon="6.70842">
        <ele>422.5</ele>
        <time>2017-02-05T09:42:12.000Z</time>
      </trkpt>
      <trkpt lat="47.54814" lon="6.70843">
        <ele>422.4</ele>
        <time>2017-02-05T09:42:13.000Z</time>
      </trkpt>
      <trkpt lat="47.54816" lon="6.70844">
        <ele>422.3</ele>
        <time>2017-02-05T09:42:14.000Z</time>
      </trkpt>
      <trkpt lat="47.5482" lon="6.70845">
        <ele>422</ele>
        <time>2017-02-05T09:42:16.000Z</time>
      </trkpt>
      <trkpt lat="47.54822" lon="6.70845">
        <ele>422</ele>
        <time>2017-02-05T09:42:17.000Z</time>
      </trkpt>
      <trkpt lat="47.54823" lon="6.70846">
        <ele>421.9</ele>
        <time>2017-02-05T09:42:18.000Z</time>
      </trkpt>
      <trkpt lat="47.54827" lon="6.70847">
        <ele>421.8</ele>
        <time>2017-02-05T09:42:19.000Z</time>
      </trkpt>
      <trkpt lat="47.5483" lon="6.7085">
        <ele>421.7</ele>
        <time>2017-02-05T09:42:20.000Z</time>
      </trkpt>
      <trkpt lat="47.54833" lon="6.70852">
        <ele>421.5</ele>
        <time>2017-02-05T09:42:21.000Z</time>
      </trkpt>
      <trkpt lat="47.5484" lon="6.70855">
        <ele>421.4</ele>
        <time>2017-02-05T09:42:22.000Z</time>
      </trkpt>
      <trkpt lat="47.54848" lon="6.70858">
        <ele>421.2</ele>
        <time>2017-02-05T09:42:23.000Z</time>
      </trkpt>
      <trkpt lat="47.54855" lon="6.70861">
        <ele>421.1</ele>
        <time>2017-02-05T09:42:24.000Z</time>
      </trkpt>
      <trkpt lat="47.5486" lon="6.70865">
        <ele>421</ele>
        <time>2017-02-05T09:42:25.000Z</time>
      </trkpt>
      <trkpt lat="47.54865" lon="6.70869">
        <ele>420.9</ele>
        <time>2017-02-05T09:42:26.000Z</time>
      </trkpt>
      <trkpt lat="47.54869" lon="6.70872">
        <ele>421</ele>
        <time>2017-02-05T09:42:27.000Z</time>
      </trkpt>
      <trkpt lat="47.54871" lon="6.70875">
        <ele>421.1</ele>
        <time>2017-02-05T09:42:28.000Z</time>
      </trkpt>
      <trkpt lat="47.54874" lon="6.70877">
        <ele>421.1</ele>
        <time>2017-02-05T09:42:29.000Z</time>
      </trkpt>
      <trkpt lat="47.54876" lon="6.70879">
        <ele>421.2</ele>
        <time>2017-02-05T09:42:30.000Z</time>
      </trkpt>
      <trkpt lat="47.54878" lon="6.70881">
        <ele>421.3</ele>
        <time>2017-02-05T09:42:31.000Z</time>
      </trkpt>
      <trkpt lat="47.5488" lon="6.70883">
        <ele>421.3</ele>
        <time>2017-02-05T09:42:32.000Z</time>
      </trkpt>
      <trkpt lat="47.54881" lon="6.70885">
        <ele>421.2</ele>
        <time>2017-02-05T09:42:33.000Z</time>
      </trkpt>
      <trkpt lat="47.54883" lon="6.70888">
        <ele>421.3</ele>
        <time>2017-02-05T09:42:34.000Z</time>
      </trkpt>
      <trkpt lat="47.54885" lon="6.7089">
        <ele>421.2</ele>
        <time>2017-02-05T09:42:35.000Z</time>
      </trkpt>
      <trkpt lat="47.54887" lon="6.70893">
        <ele>421.2</ele>
        <time>2017-02-05T09:42:36.000Z</time>
      </trkpt>
      <trkpt lat="47.54889" lon="6.70896">
        <ele>421.1</ele>
        <time>2017-02-05T09:42:37.000Z</time>
      </trkpt>
      <trkpt lat="47.54892" lon="6.709">
        <ele>421.2</ele>
        <time>2017-02-05T09:42:38.000Z</time>
      </trkpt>
      <trkpt lat="47.54894" lon="6.70903">
        <ele>421.2</ele>
        <time>2017-02-05T09:42:39.000Z</time>
      </trkpt>
      <trkpt lat="47.54896" lon="6.70907">
        <ele>421.2</ele>
        <time>2017-02-05T09:42:40.000Z</time>
      </trkpt>
      <trkpt lat="47.54898" lon="6.70911">
        <ele>421.3</ele>
        <time>2017-02-05T09:42:41.000Z</time>
      </trkpt>
      <trkpt lat="47.549" lon="6.70916">
        <ele>421.4</ele>
        <time>2017-02-05T09:42:42.000Z</time>
      </trkpt>
      <trkpt lat="47.54902" lon="6.7092">
        <ele>421.5</ele>
        <time>2017-02-05T09:42:43.000Z</time>
      </trkpt>
      <trkpt lat="47.54904" lon="6.70925">
        <ele>421.6</ele>
        <time>2017-02-05T09:42:44.000Z</time>
      </trkpt>
      <trkpt lat="47.54906" lon="6.70929">
        <ele>421.7</ele>
        <time>2017-02-05T09:42:45.000Z</time>
      </trkpt>
      <trkpt lat="47.54907" lon="6.70932">
        <ele>421.9</ele>
        <time>2017-02-05T09:42:46.000Z</time>
      </trkpt>
      <trkpt lat="47.5491" lon="6.70936">
        <ele>422.3</ele>
        <time>2017-02-05T09:42:48.000Z</time>
      </trkpt>
      <trkpt lat="47.54913" lon="6.7094">
        <ele>422.5</ele>
        <time>2017-02-05T09:42:49.000Z</time>
      </trkpt>
      <trkpt lat="47.54915" lon="6.70943">
        <ele>422.6</ele>
        <time>2017-02-05T09:42:50.000Z</time>
      </trkpt>
      <trkpt lat="47.54918" lon="6.70946">
        <ele>422.8</ele>
        <time>2017-02-05T09:42:51.000Z</time>
      </trkpt>
      <trkpt lat="47.54919" lon="6.70949">
        <ele>423</ele>
        <time>2017-02-05T09:42:52.000Z</time>
      </trkpt>
      <trkpt lat="47.54919" lon="6.70953">
        <ele>423.1</ele>
        <time>2017-02-05T09:42:53.000Z</time>
      </trkpt>
      <trkpt lat="47.5492" lon="6.70958">
        <ele>423.3</ele>
        <time>2017-02-05T09:42:54.000Z</time>
      </trkpt>
      <trkpt lat="47.54921" lon="6.70961">
        <ele>423.5</ele>
        <time>2017-02-05T09:42:55.000Z</time>
      </trkpt>
      <trkpt lat="47.54922" lon="6.70968">
        <ele>423.8</ele>
        <time>2017-02-05T09:42:57.000Z</time>
      </trkpt>
      <trkpt lat="47.54923" lon="6.7097">
        <ele>424</ele>
        <time>2017-02-05T09:42:58.000Z</time>
      </trkpt>
      <trkpt lat="47.54924" lon="6.70975">
        <ele>424</ele>
        <time>2017-02-05T09:43:00.000Z</time>
      </trkpt>
      <trkpt lat="47.54924" lon="6.70977">
        <ele>423.9</ele>
        <time>2017-02-05T09:43:01.000Z</time>
      </trkpt>
      <trkpt lat="47.54923" lon="6.70983">
        <ele>423.7</ele>
        <time>2017-02-05T09:43:03.000Z</time>
      </trkpt>
      <trkpt lat="47.54923" lon="6.70985">
        <ele>423.6</ele>
        <time>2017-02-05T09:43:04.000Z</time>
      </trkpt>
      <trkpt lat="47.54923" lon="6.70991">
        <ele>423.4</ele>
        <time>2017-02-05T09:43:09.000Z</time>
      </trkpt>
      <trkpt lat="47.54923" lon="6.70993">
        <ele>423.5</ele>
        <time>2017-02-05T09:43:10.000Z</time>
      </trkpt>
      <trkpt lat="47.54923" lon="6.70997">
        <ele>423.5</ele>
        <time>2017-02-05T09:43:11.000Z</time>
      </trkpt>
      <trkpt lat="47.54923" lon="6.71001">
        <ele>423.6</ele>
        <time>2017-02-05T09:43:12.000Z</time>
      </trkpt>
      <trkpt lat="47.54923" lon="6.71008">
        <ele>423.7</ele>
        <time>2017-02-05T09:43:13.000Z</time>
      </trkpt>
      <trkpt lat="47.54923" lon="6.71014">
        <ele>423.8</ele>
        <time>2017-02-05T09:43:14.000Z</time>
      </trkpt>
      <trkpt lat="47.54924" lon="6.7102">
        <ele>423.9</ele>
        <time>2017-02-05T09:43:15.000Z</time>
      </trkpt>
      <trkpt lat="47.54924" lon="6.71026">
        <ele>424</ele>
        <time>2017-02-05T09:43:16.000Z</time>
      </trkpt>
      <trkpt lat="47.54925" lon="6.71032">
        <ele>424.2</ele>
        <time>2017-02-05T09:43:17.000Z</time>
      </trkpt>
      <trkpt lat="47.54927" lon="6.71035">
        <ele>424.4</ele>
        <time>2017-02-05T09:43:18.000Z</time>
      </trkpt>
      <trkpt lat="47.54927" lon="6.71039">
        <ele>424.8</ele>
        <time>2017-02-05T09:43:20.000Z</time>
      </trkpt>
      <trkpt lat="47.54928" lon="6.71041">
        <ele>424.9</ele>
        <time>2017-02-05T09:43:21.000Z</time>
      </trkpt>
      <trkpt lat="47.54931" lon="6.71045">
        <ele>425.2</ele>
        <time>2017-02-05T09:43:23.000Z</time>
      </trkpt>
      <trkpt lat="47.54934" lon="6.71048">
        <ele>425.3</ele>
        <time>2017-02-05T09:43:24.000Z</time>
      </trkpt>
      <trkpt lat="47.54937" lon="6.7105">
        <ele>425.5</ele>
        <time>2017-02-05T09:43:25.000Z</time>
      </trkpt>
      <trkpt lat="47.54939" lon="6.71053">
        <ele>425.6</ele>
        <time>2017-02-05T09:43:26.000Z</time>
      </trkpt>
      <trkpt lat="47.5494" lon="6.71056">
        <ele>425.8</ele>
        <time>2017-02-05T09:43:27.000Z</time>
      </trkpt>
      <trkpt lat="47.54942" lon="6.71059">
        <ele>426.1</ele>
        <time>2017-02-05T09:43:28.000Z</time>
      </trkpt>
      <trkpt lat="47.54943" lon="6.71061">
        <ele>426.4</ele>
        <time>2017-02-05T09:43:29.000Z</time>
      </trkpt>
      <trkpt lat="47.54945" lon="6.71064">
        <ele>426.6</ele>
        <time>2017-02-05T09:43:30.000Z</time>
      </trkpt>
      <trkpt lat="47.54947" lon="6.71068">
        <ele>426.9</ele>
        <time>2017-02-05T09:43:31.000Z</time>
      </trkpt>
      <trkpt lat="47.54949" lon="6.71072">
        <ele>427.1</ele>
        <time>2017-02-05T09:43:32.000Z</time>
      </trkpt>
      <trkpt lat="47.54951" lon="6.71076">
        <ele>427.3</ele>
        <time>2017-02-05T09:43:33.000Z</time>
      </trkpt>
      <trkpt lat="47.54953" lon="6.71079">
        <ele>427.5</ele>
        <time>2017-02-05T09:43:34.000Z</time>
      </trkpt>
      <trkpt lat="47.54955" lon="6.71083">
        <ele>427.7</ele>
        <time>2017-02-05T09:43:35.000Z</time>
      </trkpt>
      <trkpt lat="47.54957" lon="6.71086">
        <ele>427.9</ele>
        <time>2017-02-05T09:43:36.000Z</time>
      </trkpt>
      <trkpt lat="47.54959" lon="6.71089">
        <ele>428.1</ele>
        <time>2017-02-05T09:43:37.000Z</time>
      </trkpt>
      <trkpt lat="47.54962" lon="6.71092">
        <ele>428.3</ele>
        <time>2017-02-05T09:43:38.000Z</time>
      </trkpt>
      <trkpt lat="47.54964" lon="6.71095">
        <ele>428.5</ele>
        <time>2017-02-05T09:43:39.000Z</time>
      </trkpt>
      <trkpt lat="47.54966" lon="6.71099">
        <ele>428.8</ele>
        <time>2017-02-05T09:43:40.000Z</time>
      </trkpt>
      <trkpt lat="47.54969" lon="6.71103">
        <ele>429</ele>
        <time>2017-02-05T09:43:41.000Z</time>
      </trkpt>
      <trkpt lat="47.5497" lon="6.71106">
        <ele>429.2</ele>
        <time>2017-02-05T09:43:42.000Z</time>
      </trkpt>
      <trkpt lat="47.54973" lon="6.7111">
        <ele>429.6</ele>
        <time>2017-02-05T09:43:44.000Z</time>
      </trkpt>
      <trkpt lat="47.54975" lon="6.71114">
        <ele>429.8</ele>
        <time>2017-02-05T09:43:45.000Z</time>
      </trkpt>
      <trkpt lat="47.54978" lon="6.71118">
        <ele>430</ele>
        <time>2017-02-05T09:43:46.000Z</time>
      </trkpt>
      <trkpt lat="47.54981" lon="6.71122">
        <ele>430.3</ele>
        <time>2017-02-05T09:43:47.000Z</time>
      </trkpt>
      <trkpt lat="47.54983" lon="6.71125">
        <ele>430.5</ele>
        <time>2017-02-05T09:43:48.000Z</time>
      </trkpt>
      <trkpt lat="47.54985" lon="6.71127">
        <ele>430.8</ele>
        <time>2017-02-05T09:43:49.000Z</time>
      </trkpt>
      <trkpt lat="47.54988" lon="6.71131">
        <ele>431.1</ele>
        <time>2017-02-05T09:43:50.000Z</time>
      </trkpt>
      <trkpt lat="47.54991" lon="6.71134">
        <ele>431.3</ele>
        <time>2017-02-05T09:43:51.000Z</time>
      </trkpt>
      <trkpt lat="47.54994" lon="6.71137">
        <ele>431.6</ele>
        <time>2017-02-05T09:43:52.000Z</time>
      </trkpt>
      <trkpt lat="47.54997" lon="6.71141">
        <ele>431.9</ele>
        <time>2017-02-05T09:43:53.000Z</time>
      </trkpt>
      <trkpt lat="47.54999" lon="6.71144">
        <ele>432.1</ele>
        <time>2017-02-05T09:43:54.000Z</time>
      </trkpt>
      <trkpt lat="47.55001" lon="6.71146">
        <ele>432.4</ele>
        <time>2017-02-05T09:43:55.000Z</time>
      </trkpt>
      <trkpt lat="47.55003" lon="6.7115">
        <ele>432.6</ele>
        <time>2017-02-05T09:43:56.000Z</time>
      </trkpt>
      <trkpt lat="47.55005" lon="6.71153">
        <ele>432.8</ele>
        <time>2017-02-05T09:43:57.000Z</time>
      </trkpt>
      <trkpt lat="47.55007" lon="6.71156">
        <ele>432.9</ele>
        <time>2017-02-05T09:43:58.000Z</time>
      </trkpt>
      <trkpt lat="47.55009" lon="6.71159">
        <ele>433</ele>
        <time>2017-02-05T09:43:59.000Z</time>
      </trkpt>
      <trkpt lat="47.55011" lon="6.71162">
        <ele>433.1</ele>
        <time>2017-02-05T09:44:00.000Z</time>
      </trkpt>
      <trkpt lat="47.55013" lon="6.71165">
        <ele>433.2</ele>
        <time>2017-02-05T09:44:01.000Z</time>
      </trkpt>
      <trkpt lat="47.55015" lon="6.71168">
        <ele>433.3</ele>
        <time>2017-02-05T09:44:02.000Z</time>
      </trkpt>
      <trkpt lat="47.55018" lon="6.71171">
        <ele>433.5</ele>
        <time>2017-02-05T09:44:03.000Z</time>
      </trkpt>
      <trkpt lat="47.5502" lon="6.71174">
        <ele>433.6</ele>
        <time>2017-02-05T09:44:04.000Z</time>
      </trkpt>
      <trkpt lat="47.55022" lon="6.71177">
        <ele>433.7</ele>
        <time>2017-02-05T09:44:05.000Z</time>
      </trkpt>
      <trkpt lat="47.55024" lon="6.7118">
        <ele>433.8</ele>
        <time>2017-02-05T09:44:06.000Z</time>
      </trkpt>
      <trkpt lat="47.55026" lon="6.71182">
        <ele>433.8</ele>
        <time>2017-02-05T09:44:07.000Z</time>
      </trkpt>
      <trkpt lat="47.55029" lon="6.71185">
        <ele>433.9</ele>
        <time>2017-02-05T09:44:08.000Z</time>
      </trkpt>
      <trkpt lat="47.55031" lon="6.71188">
        <ele>434</ele>
        <time>2017-02-05T09:44:09.000Z</time>
      </trkpt>
      <trkpt lat="47.55033" lon="6.71191">
        <ele>434.1</ele>
        <time>2017-02-05T09:44:10.000Z</time>
      </trkpt>
      <trkpt lat="47.55036" lon="6.71194">
        <ele>434.1</ele>
        <time>2017-02-05T09:44:11.000Z</time>
      </trkpt>
      <trkpt lat="47.55039" lon="6.71197">
        <ele>434.3</ele>
        <time>2017-02-05T09:44:12.000Z</time>
      </trkpt>
      <trkpt lat="47.55041" lon="6.712">
        <ele>434.4</ele>
        <time>2017-02-05T09:44:13.000Z</time>
      </trkpt>
      <trkpt lat="47.55044" lon="6.71203">
        <ele>434.5</ele>
        <time>2017-02-05T09:44:14.000Z</time>
      </trkpt>
      <trkpt lat="47.55047" lon="6.71205">
        <ele>434.5</ele>
        <time>2017-02-05T09:44:15.000Z</time>
      </trkpt>
      <trkpt lat="47.55049" lon="6.71207">
        <ele>434.6</ele>
        <time>2017-02-05T09:44:16.000Z</time>
      </trkpt>
      <trkpt lat="47.55051" lon="6.71209">
        <ele>434.7</ele>
        <time>2017-02-05T09:44:17.000Z</time>
      </trkpt>
      <trkpt lat="47.55054" lon="6.71212">
        <ele>434.7</ele>
        <time>2017-02-05T09:44:18.000Z</time>
      </trkpt>
      <trkpt lat="47.55056" lon="6.71215">
        <ele>434.8</ele>
        <time>2017-02-05T09:44:19.000Z</time>
      </trkpt>
      <trkpt lat="47.55058" lon="6.71217">
        <ele>434.9</ele>
        <time>2017-02-05T09:44:20.000Z</time>
      </trkpt>
      <trkpt lat="47.55061" lon="6.71219">
        <ele>435</ele>
        <time>2017-02-05T09:44:21.000Z</time>
      </trkpt>
      <trkpt lat="47.55063" lon="6.71221">
        <ele>435.1</ele>
        <time>2017-02-05T09:44:22.000Z</time>
      </trkpt>
      <trkpt lat="47.55066" lon="6.71224">
        <ele>435.2</ele>
        <time>2017-02-05T09:44:23.000Z</time>
      </trkpt>
      <trkpt lat="47.55068" lon="6.71226">
        <ele>435.3</ele>
        <time>2017-02-05T09:44:24.000Z</time>
      </trkpt>
      <trkpt lat="47.55071" lon="6.71229">
        <ele>435.5</ele>
        <time>2017-02-05T09:44:25.000Z</time>
      </trkpt>
      <trkpt lat="47.55075" lon="6.71232">
        <ele>435.6</ele>
        <time>2017-02-05T09:44:26.000Z</time>
      </trkpt>
      <trkpt lat="47.55078" lon="6.71236">
        <ele>435.7</ele>
        <time>2017-02-05T09:44:27.000Z</time>
      </trkpt>
      <trkpt lat="47.55081" lon="6.71238">
        <ele>436</ele>
        <time>2017-02-05T09:44:28.000Z</time>
      </trkpt>
      <trkpt lat="47.55083" lon="6.7124">
        <ele>436.1</ele>
        <time>2017-02-05T09:44:29.000Z</time>
      </trkpt>
      <trkpt lat="47.55086" lon="6.71244">
        <ele>436.3</ele>
        <time>2017-02-05T09:44:30.000Z</time>
      </trkpt>
      <trkpt lat="47.55088" lon="6.71246">
        <ele>436.4</ele>
        <time>2017-02-05T09:44:31.000Z</time>
      </trkpt>
      <trkpt lat="47.5509" lon="6.71248">
        <ele>436.5</ele>
        <time>2017-02-05T09:44:32.000Z</time>
      </trkpt>
      <trkpt lat="47.55092" lon="6.7125">
        <ele>436.6</ele>
        <time>2017-02-05T09:44:33.000Z</time>
      </trkpt>
      <trkpt lat="47.55095" lon="6.71253">
        <ele>436.8</ele>
        <time>2017-02-05T09:44:34.000Z</time>
      </trkpt>
      <trkpt lat="47.55096" lon="6.71254">
        <ele>436.9</ele>
        <time>2017-02-05T09:44:35.000Z</time>
      </trkpt>
      <trkpt lat="47.551" lon="6.71258">
        <ele>437.1</ele>
        <time>2017-02-05T09:44:37.000Z</time>
      </trkpt>
      <trkpt lat="47.55102" lon="6.71261">
        <ele>437.2</ele>
        <time>2017-02-05T09:44:38.000Z</time>
      </trkpt>
      <trkpt lat="47.55105" lon="6.71264">
        <ele>437.3</ele>
        <time>2017-02-05T09:44:39.000Z</time>
      </trkpt>
      <trkpt lat="47.55107" lon="6.71266">
        <ele>437.4</ele>
        <time>2017-02-05T09:44:40.000Z</time>
      </trkpt>
      <trkpt lat="47.5511" lon="6.71268">
        <ele>437.5</ele>
        <time>2017-02-05T09:44:41.000Z</time>
      </trkpt>
      <trkpt lat="47.55112" lon="6.7127">
        <ele>437.6</ele>
        <time>2017-02-05T09:44:42.000Z</time>
      </trkpt>
      <trkpt lat="47.55116" lon="6.71273">
        <ele>437.8</ele>
        <time>2017-02-05T09:44:43.000Z</time>
      </trkpt>
      <trkpt lat="47.55119" lon="6.71276">
        <ele>437.9</ele>
        <time>2017-02-05T09:44:44.000Z</time>
      </trkpt>
      <trkpt lat="47.55122" lon="6.7128">
        <ele>438</ele>
        <time>2017-02-05T09:44:45.000Z</time>
      </trkpt>
      <trkpt lat="47.55124" lon="6.71282">
        <ele>438.1</ele>
        <time>2017-02-05T09:44:46.000Z</time>
      </trkpt>
      <trkpt lat="47.55126" lon="6.71285">
        <ele>438.3</ele>
        <time>2017-02-05T09:44:47.000Z</time>
      </trkpt>
      <trkpt lat="47.55127" lon="6.71287">
        <ele>438.5</ele>
        <time>2017-02-05T09:44:48.000Z</time>
      </trkpt>
      <trkpt lat="47.55128" lon="6.71292">
        <ele>438.6</ele>
        <time>2017-02-05T09:44:49.000Z</time>
      </trkpt>
      <trkpt lat="47.55128" lon="6.71297">
        <ele>438.8</ele>
        <time>2017-02-05T09:44:50.000Z</time>
      </trkpt>
      <trkpt lat="47.55129" lon="6.71302">
        <ele>439</ele>
        <time>2017-02-05T09:44:51.000Z</time>
      </trkpt>
      <trkpt lat="47.55129" lon="6.71308">
        <ele>439</ele>
        <time>2017-02-05T09:44:52.000Z</time>
      </trkpt>
      <trkpt lat="47.55129" lon="6.71314">
        <ele>439.1</ele>
        <time>2017-02-05T09:44:53.000Z</time>
      </trkpt>
      <trkpt lat="47.55129" lon="6.71318">
        <ele>439.2</ele>
        <time>2017-02-05T09:44:54.000Z</time>
      </trkpt>
      <trkpt lat="47.55129" lon="6.71324">
        <ele>439.9</ele>
        <time>2017-02-05T09:44:55.000Z</time>
      </trkpt>
      <trkpt lat="47.55129" lon="6.71329">
        <ele>440.7</ele>
        <time>2017-02-05T09:44:56.000Z</time>
      </trkpt>
      <trkpt lat="47.55128" lon="6.71335">
        <ele>441</ele>
        <time>2017-02-05T09:44:57.000Z</time>
      </trkpt>
      <trkpt lat="47.55126" lon="6.7134">
        <ele>441.3</ele>
        <time>2017-02-05T09:44:58.000Z</time>
      </trkpt>
      <trkpt lat="47.55124" lon="6.71348">
        <ele>441.1</ele>
        <time>2017-02-05T09:44:59.000Z</time>
      </trkpt>
      <trkpt lat="47.55122" lon="6.71355">
        <ele>441</ele>
        <time>2017-02-05T09:45:00.000Z</time>
      </trkpt>
      <trkpt lat="47.55119" lon="6.71361">
        <ele>440.9</ele>
        <time>2017-02-05T09:45:01.000Z</time>
      </trkpt>
      <trkpt lat="47.55115" lon="6.71367">
        <ele>440.6</ele>
        <time>2017-02-05T09:45:02.000Z</time>
      </trkpt>
      <trkpt lat="47.55112" lon="6.71375">
        <ele>440.5</ele>
        <time>2017-02-05T09:45:03.000Z</time>
      </trkpt>
      <trkpt lat="47.55107" lon="6.71383">
        <ele>440.7</ele>
        <time>2017-02-05T09:45:04.000Z</time>
      </trkpt>
      <trkpt lat="47.55103" lon="6.71392">
        <ele>441.1</ele>
        <time>2017-02-05T09:45:05.000Z</time>
      </trkpt>
      <trkpt lat="47.55099" lon="6.71401">
        <ele>440.9</ele>
        <time>2017-02-05T09:45:06.000Z</time>
      </trkpt>
      <trkpt lat="47.55094" lon="6.7141">
        <ele>440.7</ele>
        <time>2017-02-05T09:45:07.000Z</time>
      </trkpt>
      <trkpt lat="47.5509" lon="6.71419">
        <ele>440.1</ele>
        <time>2017-02-05T09:45:08.000Z</time>
      </trkpt>
      <trkpt lat="47.55086" lon="6.71428">
        <ele>439.5</ele>
        <time>2017-02-05T09:45:09.000Z</time>
      </trkpt>
      <trkpt lat="47.55082" lon="6.71438">
        <ele>438.9</ele>
        <time>2017-02-05T09:45:10.000Z</time>
      </trkpt>
      <trkpt lat="47.55078" lon="6.71449">
        <ele>438.1</ele>
        <time>2017-02-05T09:45:11.000Z</time>
      </trkpt>
      <trkpt lat="47.55074" lon="6.71459">
        <ele>437.5</ele>
        <time>2017-02-05T09:45:12.000Z</time>
      </trkpt>
      <trkpt lat="47.55071" lon="6.7147">
        <ele>436.5</ele>
        <time>2017-02-05T09:45:13.000Z</time>
      </trkpt>
      <trkpt lat="47.55068" lon="6.71481">
        <ele>435.7</ele>
        <time>2017-02-05T09:45:14.000Z</time>
      </trkpt>
      <trkpt lat="47.55066" lon="6.71491">
        <ele>434.8</ele>
        <time>2017-02-05T09:45:15.000Z</time>
      </trkpt>
      <trkpt lat="47.55063" lon="6.71504">
        <ele>434</ele>
        <time>2017-02-05T09:45:16.000Z</time>
      </trkpt>
      <trkpt lat="47.55061" lon="6.71515">
        <ele>433.1</ele>
        <time>2017-02-05T09:45:17.000Z</time>
      </trkpt>
      <trkpt lat="47.55059" lon="6.71525">
        <ele>432.2</ele>
        <time>2017-02-05T09:45:18.000Z</time>
      </trkpt>
      <trkpt lat="47.55057" lon="6.71538">
        <ele>431.6</ele>
        <time>2017-02-05T09:45:19.000Z</time>
      </trkpt>
      <trkpt lat="47.55056" lon="6.71549">
        <ele>430.6</ele>
        <time>2017-02-05T09:45:20.000Z</time>
      </trkpt>
      <trkpt lat="47.55055" lon="6.7156">
        <ele>429.8</ele>
        <time>2017-02-05T09:45:21.000Z</time>
      </trkpt>
      <trkpt lat="47.55053" lon="6.71572">
        <ele>429.3</ele>
        <time>2017-02-05T09:45:22.000Z</time>
      </trkpt>
      <trkpt lat="47.55053" lon="6.71583">
        <ele>428.6</ele>
        <time>2017-02-05T09:45:23.000Z</time>
      </trkpt>
      <trkpt lat="47.55052" lon="6.71593">
        <ele>427.8</ele>
        <time>2017-02-05T09:45:24.000Z</time>
      </trkpt>
      <trkpt lat="47.55051" lon="6.71604">
        <ele>427</ele>
        <time>2017-02-05T09:45:25.000Z</time>
      </trkpt>
      <trkpt lat="47.5505" lon="6.71615">
        <ele>426.1</ele>
        <time>2017-02-05T09:45:26.000Z</time>
      </trkpt>
      <trkpt lat="47.5505" lon="6.71626">
        <ele>425.3</ele>
        <time>2017-02-05T09:45:27.000Z</time>
      </trkpt>
      <trkpt lat="47.55049" lon="6.71637">
        <ele>424.5</ele>
        <time>2017-02-05T09:45:28.000Z</time>
      </trkpt>
      <trkpt lat="47.55049" lon="6.71647">
        <ele>423.7</ele>
        <time>2017-02-05T09:45:29.000Z</time>
      </trkpt>
      <trkpt lat="47.55048" lon="6.71658">
        <ele>423.3</ele>
        <time>2017-02-05T09:45:30.000Z</time>
      </trkpt>
      <trkpt lat="47.55048" lon="6.71668">
        <ele>422.9</ele>
        <time>2017-02-05T09:45:31.000Z</time>
      </trkpt>
      <trkpt lat="47.55047" lon="6.71678">
        <ele>422.6</ele>
        <time>2017-02-05T09:45:32.000Z</time>
      </trkpt>
      <trkpt lat="47.55047" lon="6.71688">
        <ele>422.2</ele>
        <time>2017-02-05T09:45:33.000Z</time>
      </trkpt>
      <trkpt lat="47.55046" lon="6.71698">
        <ele>422</ele>
        <time>2017-02-05T09:45:34.000Z</time>
      </trkpt>
      <trkpt lat="47.55046" lon="6.71706">
        <ele>421.8</ele>
        <time>2017-02-05T09:45:35.000Z</time>
      </trkpt>
      <trkpt lat="47.55045" lon="6.71714">
        <ele>421.6</ele>
        <time>2017-02-05T09:45:36.000Z</time>
      </trkpt>
      <trkpt lat="47.55045" lon="6.71724">
        <ele>421.2</ele>
        <time>2017-02-05T09:45:37.000Z</time>
      </trkpt>
      <trkpt lat="47.55045" lon="6.71733">
        <ele>421.2</ele>
        <time>2017-02-05T09:45:38.000Z</time>
      </trkpt>
      <trkpt lat="47.55044" lon="6.71742">
        <ele>421.3</ele>
        <time>2017-02-05T09:45:39.000Z</time>
      </trkpt>
      <trkpt lat="47.55044" lon="6.7175">
        <ele>421.6</ele>
        <time>2017-02-05T09:45:40.000Z</time>
      </trkpt>
      <trkpt lat="47.55044" lon="6.71758">
        <ele>421</ele>
        <time>2017-02-05T09:45:41.000Z</time>
      </trkpt>
      <trkpt lat="47.55043" lon="6.71765">
        <ele>420.9</ele>
        <time>2017-02-05T09:45:42.000Z</time>
      </trkpt>
      <trkpt lat="47.55043" lon="6.71773">
        <ele>421.2</ele>
        <time>2017-02-05T09:45:43.000Z</time>
      </trkpt>
      <trkpt lat="47.55043" lon="6.7178">
        <ele>421.3</ele>
        <time>2017-02-05T09:45:44.000Z</time>
      </trkpt>
      <trkpt lat="47.55043" lon="6.71787">
        <ele>420.7</ele>
        <time>2017-02-05T09:45:45.000Z</time>
      </trkpt>
      <trkpt lat="47.55043" lon="6.71793">
        <ele>420.6</ele>
        <time>2017-02-05T09:45:46.000Z</time>
      </trkpt>
      <trkpt lat="47.55043" lon="6.718">
        <ele>420.6</ele>
        <time>2017-02-05T09:45:47.000Z</time>
      </trkpt>
      <trkpt lat="47.55043" lon="6.71807">
        <ele>420.8</ele>
        <time>2017-02-05T09:45:48.000Z</time>
      </trkpt>
      <trkpt lat="47.55043" lon="6.71812">
        <ele>420.8</ele>
        <time>2017-02-05T09:45:49.000Z</time>
      </trkpt>
      <trkpt lat="47.55043" lon="6.7182">
        <ele>421.4</ele>
        <time>2017-02-05T09:45:50.000Z</time>
      </trkpt>
      <trkpt lat="47.55044" lon="6.71826">
        <ele>421.4</ele>
        <time>2017-02-05T09:45:51.000Z</time>
      </trkpt>
      <trkpt lat="47.55046" lon="6.71832">
        <ele>421.4</ele>
        <time>2017-02-05T09:45:52.000Z</time>
      </trkpt>
      <trkpt lat="47.55048" lon="6.71838">
        <ele>421.4</ele>
        <time>2017-02-05T09:45:53.000Z</time>
      </trkpt>
      <trkpt lat="47.5505" lon="6.71845">
        <ele>421.9</ele>
        <time>2017-02-05T09:45:54.000Z</time>
      </trkpt>
      <trkpt lat="47.55052" lon="6.7185">
        <ele>422.7</ele>
        <time>2017-02-05T09:45:55.000Z</time>
      </trkpt>
      <trkpt lat="47.55053" lon="6.71856">
        <ele>423.2</ele>
        <time>2017-02-05T09:45:56.000Z</time>
      </trkpt>
      <trkpt lat="47.55055" lon="6.71862">
        <ele>423.5</ele>
        <time>2017-02-05T09:45:57.000Z</time>
      </trkpt>
      <trkpt lat="47.55056" lon="6.71866">
        <ele>423.6</ele>
        <time>2017-02-05T09:45:58.000Z</time>
      </trkpt>
      <trkpt lat="47.55058" lon="6.71872">
        <ele>423.4</ele>
        <time>2017-02-05T09:45:59.000Z</time>
      </trkpt>
      <trkpt lat="47.5506" lon="6.71879">
        <ele>423.8</ele>
        <time>2017-02-05T09:46:00.000Z</time>
      </trkpt>
      <trkpt lat="47.55062" lon="6.71885">
        <ele>424.3</ele>
        <time>2017-02-05T09:46:01.000Z</time>
      </trkpt>
      <trkpt lat="47.55063" lon="6.71892">
        <ele>423.8</ele>
        <time>2017-02-05T09:46:02.000Z</time>
      </trkpt>
      <trkpt lat="47.55064" lon="6.71898">
        <ele>423.6</ele>
        <time>2017-02-05T09:46:03.000Z</time>
      </trkpt>
      <trkpt lat="47.55066" lon="6.71904">
        <ele>423.2</ele>
        <time>2017-02-05T09:46:04.000Z</time>
      </trkpt>
      <trkpt lat="47.55067" lon="6.7191">
        <ele>422.5</ele>
        <time>2017-02-05T09:46:05.000Z</time>
      </trkpt>
      <trkpt lat="47.55068" lon="6.71916">
        <ele>422</ele>
        <time>2017-02-05T09:46:06.000Z</time>
      </trkpt>
      <trkpt lat="47.55068" lon="6.71925">
        <ele>421.4</ele>
        <time>2017-02-05T09:46:07.000Z</time>
      </trkpt>
      <trkpt lat="47.55068" lon="6.71934">
        <ele>420.2</ele>
        <time>2017-02-05T09:46:08.000Z</time>
      </trkpt>
      <trkpt lat="47.55069" lon="6.71943">
        <ele>420</ele>
        <time>2017-02-05T09:46:09.000Z</time>
      </trkpt>
      <trkpt lat="47.5507" lon="6.71951">
        <ele>420.3</ele>
        <time>2017-02-05T09:46:10.000Z</time>
      </trkpt>
      <trkpt lat="47.55071" lon="6.71959">
        <ele>420.2</ele>
        <time>2017-02-05T09:46:11.000Z</time>
      </trkpt>
      <trkpt lat="47.55073" lon="6.71967">
        <ele>419.9</ele>
        <time>2017-02-05T09:46:12.000Z</time>
      </trkpt>
      <trkpt lat="47.55075" lon="6.71976">
        <ele>419.3</ele>
        <time>2017-02-05T09:46:13.000Z</time>
      </trkpt>
      <trkpt lat="47.55076" lon="6.71985">
        <ele>419</ele>
        <time>2017-02-05T09:46:14.000Z</time>
      </trkpt>
      <trkpt lat="47.55079" lon="6.71994">
        <ele>418.3</ele>
        <time>2017-02-05T09:46:15.000Z</time>
      </trkpt>
      <trkpt lat="47.55081" lon="6.72004">
        <ele>418.1</ele>
        <time>2017-02-05T09:46:16.000Z</time>
      </trkpt>
      <trkpt lat="47.55083" lon="6.72014">
        <ele>417.5</ele>
        <time>2017-02-05T09:46:17.000Z</time>
      </trkpt>
      <trkpt lat="47.55085" lon="6.72022">
        <ele>416.5</ele>
        <time>2017-02-05T09:46:18.000Z</time>
      </trkpt>
      <trkpt lat="47.55087" lon="6.72031">
        <ele>415.6</ele>
        <time>2017-02-05T09:46:19.000Z</time>
      </trkpt>
      <trkpt lat="47.5509" lon="6.7204">
        <ele>414.9</ele>
        <time>2017-02-05T09:46:20.000Z</time>
      </trkpt>
      <trkpt lat="47.55092" lon="6.72051">
        <ele>414.6</ele>
        <time>2017-02-05T09:46:21.000Z</time>
      </trkpt>
      <trkpt lat="47.55095" lon="6.72062">
        <ele>413.6</ele>
        <time>2017-02-05T09:46:22.000Z</time>
      </trkpt>
      <trkpt lat="47.55097" lon="6.72073">
        <ele>412.5</ele>
        <time>2017-02-05T09:46:23.000Z</time>
      </trkpt>
      <trkpt lat="47.55099" lon="6.72084">
        <ele>411.6</ele>
        <time>2017-02-05T09:46:24.000Z</time>
      </trkpt>
      <trkpt lat="47.55101" lon="6.72094">
        <ele>410.4</ele>
        <time>2017-02-05T09:46:25.000Z</time>
      </trkpt>
      <trkpt lat="47.55102" lon="6.72103">
        <ele>409.9</ele>
        <time>2017-02-05T09:46:26.000Z</time>
      </trkpt>
      <trkpt lat="47.55104" lon="6.72113">
        <ele>409.8</ele>
        <time>2017-02-05T09:46:27.000Z</time>
      </trkpt>
      <trkpt lat="47.55106" lon="6.72123">
        <ele>409.9</ele>
        <time>2017-02-05T09:46:28.000Z</time>
      </trkpt>
      <trkpt lat="47.55108" lon="6.72132">
        <ele>410</ele>
        <time>2017-02-05T09:46:29.000Z</time>
      </trkpt>
      <trkpt lat="47.5511" lon="6.72139">
        <ele>409.7</ele>
        <time>2017-02-05T09:46:30.000Z</time>
      </trkpt>
      <trkpt lat="47.55112" lon="6.72145">
        <ele>409.8</ele>
        <time>2017-02-05T09:46:31.000Z</time>
      </trkpt>
      <trkpt lat="47.55115" lon="6.72152">
        <ele>409.7</ele>
        <time>2017-02-05T09:46:32.000Z</time>
      </trkpt>
      <trkpt lat="47.55118" lon="6.72159">
        <ele>409.6</ele>
        <time>2017-02-05T09:46:33.000Z</time>
      </trkpt>
      <trkpt lat="47.55121" lon="6.72166">
        <ele>409.5</ele>
        <time>2017-02-05T09:46:34.000Z</time>
      </trkpt>
      <trkpt lat="47.55123" lon="6.72172">
        <ele>409.4</ele>
        <time>2017-02-05T09:46:35.000Z</time>
      </trkpt>
      <trkpt lat="47.55126" lon="6.72179">
        <ele>409.2</ele>
        <time>2017-02-05T09:46:36.000Z</time>
      </trkpt>
      <trkpt lat="47.55127" lon="6.72184">
        <ele>409.2</ele>
        <time>2017-02-05T09:46:37.000Z</time>
      </trkpt>
      <trkpt lat="47.55129" lon="6.72187">
        <ele>409.2</ele>
        <time>2017-02-05T09:46:38.000Z</time>
      </trkpt>
      <trkpt lat="47.55132" lon="6.72192">
        <ele>409.2</ele>
        <time>2017-02-05T09:46:39.000Z</time>
      </trkpt>
      <trkpt lat="47.55135" lon="6.72198">
        <ele>409.2</ele>
        <time>2017-02-05T09:46:40.000Z</time>
      </trkpt>
      <trkpt lat="47.55137" lon="6.72202">
        <ele>409.3</ele>
        <time>2017-02-05T09:46:41.000Z</time>
      </trkpt>
      <trkpt lat="47.55138" lon="6.72205">
        <ele>409.4</ele>
        <time>2017-02-05T09:46:42.000Z</time>
      </trkpt>
      <trkpt lat="47.55141" lon="6.72209">
        <ele>409.4</ele>
        <time>2017-02-05T09:46:43.000Z</time>
      </trkpt>
      <trkpt lat="47.55143" lon="6.72213">
        <ele>409.5</ele>
        <time>2017-02-05T09:46:44.000Z</time>
      </trkpt>
      <trkpt lat="47.55145" lon="6.72217">
        <ele>409.6</ele>
        <time>2017-02-05T09:46:45.000Z</time>
      </trkpt>
      <trkpt lat="47.55147" lon="6.72221">
        <ele>409.7</ele>
        <time>2017-02-05T09:46:46.000Z</time>
      </trkpt>
      <trkpt lat="47.55149" lon="6.72224">
        <ele>409.9</ele>
        <time>2017-02-05T09:46:47.000Z</time>
      </trkpt>
      <trkpt lat="47.55151" lon="6.72228">
        <ele>409.9</ele>
        <time>2017-02-05T09:46:48.000Z</time>
      </trkpt>
      <trkpt lat="47.55152" lon="6.72232">
        <ele>410</ele>
        <time>2017-02-05T09:46:49.000Z</time>
      </trkpt>
      <trkpt lat="47.55154" lon="6.72235">
        <ele>410.2</ele>
        <time>2017-02-05T09:46:50.000Z</time>
      </trkpt>
      <trkpt lat="47.55156" lon="6.72238">
        <ele>410.2</ele>
        <time>2017-02-05T09:46:51.000Z</time>
      </trkpt>
      <trkpt lat="47.55157" lon="6.72242">
        <ele>410.3</ele>
        <time>2017-02-05T09:46:52.000Z</time>
      </trkpt>
      <trkpt lat="47.55159" lon="6.72246">
        <ele>410.4</ele>
        <time>2017-02-05T09:46:53.000Z</time>
      </trkpt>
      <trkpt lat="47.55162" lon="6.7225">
        <ele>410.6</ele>
        <time>2017-02-05T09:46:54.000Z</time>
      </trkpt>
      <trkpt lat="47.55163" lon="6.72253">
        <ele>410.7</ele>
        <time>2017-02-05T09:46:55.000Z</time>
      </trkpt>
      <trkpt lat="47.55166" lon="6.72258">
        <ele>410.8</ele>
        <time>2017-02-05T09:46:56.000Z</time>
      </trkpt>
      <trkpt lat="47.55168" lon="6.72261">
        <ele>411</ele>
        <time>2017-02-05T09:46:57.000Z</time>
      </trkpt>
      <trkpt lat="47.5517" lon="6.72265">
        <ele>411.1</ele>
        <time>2017-02-05T09:46:58.000Z</time>
      </trkpt>
      <trkpt lat="47.55172" lon="6.72268">
        <ele>411.2</ele>
        <time>2017-02-05T09:46:59.000Z</time>
      </trkpt>
      <trkpt lat="47.55173" lon="6.72272">
        <ele>411.3</ele>
        <time>2017-02-05T09:47:00.000Z</time>
      </trkpt>
      <trkpt lat="47.55176" lon="6.72275">
        <ele>411.4</ele>
        <time>2017-02-05T09:47:01.000Z</time>
      </trkpt>
      <trkpt lat="47.55178" lon="6.72278">
        <ele>411.6</ele>
        <time>2017-02-05T09:47:02.000Z</time>
      </trkpt>
      <trkpt lat="47.5518" lon="6.72282">
        <ele>411.7</ele>
        <time>2017-02-05T09:47:03.000Z</time>
      </trkpt>
      <trkpt lat="47.55181" lon="6.72285">
        <ele>411.9</ele>
        <time>2017-02-05T09:47:04.000Z</time>
      </trkpt>
      <trkpt lat="47.55183" lon="6.72288">
        <ele>412</ele>
        <time>2017-02-05T09:47:05.000Z</time>
      </trkpt>
      <trkpt lat="47.55185" lon="6.72291">
        <ele>412.1</ele>
        <time>2017-02-05T09:47:06.000Z</time>
      </trkpt>
      <trkpt lat="47.55187" lon="6.72295">
        <ele>412.2</ele>
        <time>2017-02-05T09:47:07.000Z</time>
      </trkpt>
      <trkpt lat="47.5519" lon="6.72298">
        <ele>412.3</ele>
        <time>2017-02-05T09:47:08.000Z</time>
      </trkpt>
      <trkpt lat="47.55192" lon="6.72303">
        <ele>412.4</ele>
        <time>2017-02-05T09:47:09.000Z</time>
      </trkpt>
      <trkpt lat="47.55194" lon="6.72307">
        <ele>412.5</ele>
        <time>2017-02-05T09:47:10.000Z</time>
      </trkpt>
      <trkpt lat="47.55196" lon="6.72311">
        <ele>412.6</ele>
        <time>2017-02-05T09:47:11.000Z</time>
      </trkpt>
      <trkpt lat="47.55199" lon="6.72315">
        <ele>412.7</ele>
        <time>2017-02-05T09:47:12.000Z</time>
      </trkpt>
      <trkpt lat="47.55201" lon="6.72318">
        <ele>412.9</ele>
        <time>2017-02-05T09:47:13.000Z</time>
      </trkpt>
      <trkpt lat="47.55203" lon="6.72321">
        <ele>413</ele>
        <time>2017-02-05T09:47:14.000Z</time>
      </trkpt>
      <trkpt lat="47.55206" lon="6.72324">
        <ele>413.1</ele>
        <time>2017-02-05T09:47:15.000Z</time>
      </trkpt>
      <trkpt lat="47.55209" lon="6.72328">
        <ele>413.3</ele>
        <time>2017-02-05T09:47:16.000Z</time>
      </trkpt>
      <trkpt lat="47.55211" lon="6.72331">
        <ele>413.4</ele>
        <time>2017-02-05T09:47:17.000Z</time>
      </trkpt>
      <trkpt lat="47.55213" lon="6.72334">
        <ele>413.5</ele>
        <time>2017-02-05T09:47:18.000Z</time>
      </trkpt>
      <trkpt lat="47.55215" lon="6.72337">
        <ele>413.6</ele>
        <time>2017-02-05T09:47:19.000Z</time>
      </trkpt>
      <trkpt lat="47.55217" lon="6.72341">
        <ele>413.7</ele>
        <time>2017-02-05T09:47:20.000Z</time>
      </trkpt>
      <trkpt lat="47.55219" lon="6.72344">
        <ele>413.8</ele>
        <time>2017-02-05T09:47:21.000Z</time>
      </trkpt>
      <trkpt lat="47.55222" lon="6.72347">
        <ele>413.8</ele>
        <time>2017-02-05T09:47:22.000Z</time>
      </trkpt>
      <trkpt lat="47.55224" lon="6.72351">
        <ele>414</ele>
        <time>2017-02-05T09:47:23.000Z</time>
      </trkpt>
      <trkpt lat="47.55226" lon="6.72354">
        <ele>414.1</ele>
        <time>2017-02-05T09:47:24.000Z</time>
      </trkpt>
      <trkpt lat="47.55229" lon="6.72359">
        <ele>414.2</ele>
        <time>2017-02-05T09:47:25.000Z</time>
      </trkpt>
      <trkpt lat="47.55232" lon="6.72363">
        <ele>414.4</ele>
        <time>2017-02-05T09:47:26.000Z</time>
      </trkpt>
      <trkpt lat="47.55235" lon="6.72368">
        <ele>414.5</ele>
        <time>2017-02-05T09:47:27.000Z</time>
      </trkpt>
      <trkpt lat="47.55238" lon="6.72371">
        <ele>414.6</ele>
        <time>2017-02-05T09:47:28.000Z</time>
      </trkpt>
      <trkpt lat="47.5524" lon="6.72375">
        <ele>414.7</ele>
        <time>2017-02-05T09:47:29.000Z</time>
      </trkpt>
      <trkpt lat="47.55243" lon="6.72377">
        <ele>414.8</ele>
        <time>2017-02-05T09:47:30.000Z</time>
      </trkpt>
      <trkpt lat="47.55245" lon="6.7238">
        <ele>414.9</ele>
        <time>2017-02-05T09:47:31.000Z</time>
      </trkpt>
      <trkpt lat="47.55248" lon="6.72383">
        <ele>415</ele>
        <time>2017-02-05T09:47:32.000Z</time>
      </trkpt>
      <trkpt lat="47.5525" lon="6.72386">
        <ele>415.2</ele>
        <time>2017-02-05T09:47:33.000Z</time>
      </trkpt>
      <trkpt lat="47.55252" lon="6.7239">
        <ele>415.2</ele>
        <time>2017-02-05T09:47:34.000Z</time>
      </trkpt>
      <trkpt lat="47.55255" lon="6.72393">
        <ele>415.3</ele>
        <time>2017-02-05T09:47:35.000Z</time>
      </trkpt>
      <trkpt lat="47.55257" lon="6.72396">
        <ele>415.4</ele>
        <time>2017-02-05T09:47:36.000Z</time>
      </trkpt>
      <trkpt lat="47.55259" lon="6.72398">
        <ele>415.6</ele>
        <time>2017-02-05T09:47:37.000Z</time>
      </trkpt>
      <trkpt lat="47.55262" lon="6.72401">
        <ele>415.7</ele>
        <time>2017-02-05T09:47:38.000Z</time>
      </trkpt>
      <trkpt lat="47.55264" lon="6.72404">
        <ele>415.7</ele>
        <time>2017-02-05T09:47:39.000Z</time>
      </trkpt>
      <trkpt lat="47.55267" lon="6.72407">
        <ele>415.7</ele>
        <time>2017-02-05T09:47:40.000Z</time>
      </trkpt>
      <trkpt lat="47.5527" lon="6.72411">
        <ele>415.8</ele>
        <time>2017-02-05T09:47:41.000Z</time>
      </trkpt>
      <trkpt lat="47.55273" lon="6.72414">
        <ele>415.9</ele>
        <time>2017-02-05T09:47:42.000Z</time>
      </trkpt>
      <trkpt lat="47.55274" lon="6.72416">
        <ele>416</ele>
        <time>2017-02-05T09:47:43.000Z</time>
      </trkpt>
      <trkpt lat="47.55276" lon="6.72419">
        <ele>416</ele>
        <time>2017-02-05T09:47:44.000Z</time>
      </trkpt>
      <trkpt lat="47.55279" lon="6.72421">
        <ele>416</ele>
        <time>2017-02-05T09:47:45.000Z</time>
      </trkpt>
      <trkpt lat="47.55282" lon="6.72424">
        <ele>416</ele>
        <time>2017-02-05T09:47:46.000Z</time>
      </trkpt>
      <trkpt lat="47.55285" lon="6.72426">
        <ele>416.1</ele>
        <time>2017-02-05T09:47:47.000Z</time>
      </trkpt>
      <trkpt lat="47.55288" lon="6.72429">
        <ele>416.1</ele>
        <time>2017-02-05T09:47:48.000Z</time>
      </trkpt>
      <trkpt lat="47.5529" lon="6.72432">
        <ele>416.2</ele>
        <time>2017-02-05T09:47:49.000Z</time>
      </trkpt>
      <trkpt lat="47.55292" lon="6.72435">
        <ele>416.4</ele>
        <time>2017-02-05T09:47:50.000Z</time>
      </trkpt>
      <trkpt lat="47.55295" lon="6.72437">
        <ele>416.5</ele>
        <time>2017-02-05T09:47:51.000Z</time>
      </trkpt>
      <trkpt lat="47.55297" lon="6.7244">
        <ele>416.6</ele>
        <time>2017-02-05T09:47:52.000Z</time>
      </trkpt>
      <trkpt lat="47.55299" lon="6.72443">
        <ele>416.6</ele>
        <time>2017-02-05T09:47:53.000Z</time>
      </trkpt>
      <trkpt lat="47.55302" lon="6.72446">
        <ele>416.7</ele>
        <time>2017-02-05T09:47:54.000Z</time>
      </trkpt>
      <trkpt lat="47.55305" lon="6.72449">
        <ele>416.8</ele>
        <time>2017-02-05T09:47:55.000Z</time>
      </trkpt>
      <trkpt lat="47.55307" lon="6.72452">
        <ele>417</ele>
        <time>2017-02-05T09:47:56.000Z</time>
      </trkpt>
      <trkpt lat="47.55309" lon="6.72455">
        <ele>417</ele>
        <time>2017-02-05T09:47:57.000Z</time>
      </trkpt>
      <trkpt lat="47.55312" lon="6.72458">
        <ele>417.1</ele>
        <time>2017-02-05T09:47:58.000Z</time>
      </trkpt>
      <trkpt lat="47.55315" lon="6.7246">
        <ele>417.1</ele>
        <time>2017-02-05T09:47:59.000Z</time>
      </trkpt>
      <trkpt lat="47.55317" lon="6.72463">
        <ele>417.2</ele>
        <time>2017-02-05T09:48:00.000Z</time>
      </trkpt>
      <trkpt lat="47.55319" lon="6.72466">
        <ele>417.2</ele>
        <time>2017-02-05T09:48:01.000Z</time>
      </trkpt>
      <trkpt lat="47.55321" lon="6.72468">
        <ele>417.3</ele>
        <time>2017-02-05T09:48:02.000Z</time>
      </trkpt>
      <trkpt lat="47.55323" lon="6.72471">
        <ele>417.3</ele>
        <time>2017-02-05T09:48:03.000Z</time>
      </trkpt>
      <trkpt lat="47.55326" lon="6.72474">
        <ele>417.3</ele>
        <time>2017-02-05T09:48:04.000Z</time>
      </trkpt>
      <trkpt lat="47.55329" lon="6.72478">
        <ele>417.4</ele>
        <time>2017-02-05T09:48:05.000Z</time>
      </trkpt>
      <trkpt lat="47.55332" lon="6.7248">
        <ele>417.5</ele>
        <time>2017-02-05T09:48:06.000Z</time>
      </trkpt>
      <trkpt lat="47.55335" lon="6.72484">
        <ele>417.5</ele>
        <time>2017-02-05T09:48:07.000Z</time>
      </trkpt>
      <trkpt lat="47.55338" lon="6.72486">
        <ele>417.5</ele>
        <time>2017-02-05T09:48:08.000Z</time>
      </trkpt>
      <trkpt lat="47.55341" lon="6.72489">
        <ele>417.6</ele>
        <time>2017-02-05T09:48:09.000Z</time>
      </trkpt>
      <trkpt lat="47.55344" lon="6.72492">
        <ele>417.6</ele>
        <time>2017-02-05T09:48:10.000Z</time>
      </trkpt>
      <trkpt lat="47.55347" lon="6.72494">
        <ele>417.7</ele>
        <time>2017-02-05T09:48:11.000Z</time>
      </trkpt>
      <trkpt lat="47.55349" lon="6.72496">
        <ele>417.8</ele>
        <time>2017-02-05T09:48:12.000Z</time>
      </trkpt>
      <trkpt lat="47.55351" lon="6.72498">
        <ele>417.9</ele>
        <time>2017-02-05T09:48:13.000Z</time>
      </trkpt>
      <trkpt lat="47.55354" lon="6.725">
        <ele>417.9</ele>
        <time>2017-02-05T09:48:14.000Z</time>
      </trkpt>
      <trkpt lat="47.55356" lon="6.72502">
        <ele>418</ele>
        <time>2017-02-05T09:48:15.000Z</time>
      </trkpt>
      <trkpt lat="47.55359" lon="6.72504">
        <ele>418.1</ele>
        <time>2017-02-05T09:48:16.000Z</time>
      </trkpt>
      <trkpt lat="47.55362" lon="6.72506">
        <ele>418.1</ele>
        <time>2017-02-05T09:48:17.000Z</time>
      </trkpt>
      <trkpt lat="47.55365" lon="6.72508">
        <ele>418.2</ele>
        <time>2017-02-05T09:48:18.000Z</time>
      </trkpt>
      <trkpt lat="47.55368" lon="6.72511">
        <ele>418.3</ele>
        <time>2017-02-05T09:48:19.000Z</time>
      </trkpt>
      <trkpt lat="47.5537" lon="6.72512">
        <ele>418.3</ele>
        <time>2017-02-05T09:48:20.000Z</time>
      </trkpt>
      <trkpt lat="47.55373" lon="6.72513">
        <ele>418.3</ele>
        <time>2017-02-05T09:48:21.000Z</time>
      </trkpt>
      <trkpt lat="47.55376" lon="6.72515">
        <ele>418.3</ele>
        <time>2017-02-05T09:48:22.000Z</time>
      </trkpt>
      <trkpt lat="47.55379" lon="6.72517">
        <ele>418.4</ele>
        <time>2017-02-05T09:48:23.000Z</time>
      </trkpt>
      <trkpt lat="47.55382" lon="6.72519">
        <ele>418.5</ele>
        <time>2017-02-05T09:48:24.000Z</time>
      </trkpt>
      <trkpt lat="47.55385" lon="6.72521">
        <ele>418.5</ele>
        <time>2017-02-05T09:48:25.000Z</time>
      </trkpt>
      <trkpt lat="47.55389" lon="6.72524">
        <ele>418.6</ele>
        <time>2017-02-05T09:48:26.000Z</time>
      </trkpt>
      <trkpt lat="47.55392" lon="6.72526">
        <ele>418.6</ele>
        <time>2017-02-05T09:48:27.000Z</time>
      </trkpt>
      <trkpt lat="47.55394" lon="6.72528">
        <ele>418.7</ele>
        <time>2017-02-05T09:48:28.000Z</time>
      </trkpt>
      <trkpt lat="47.55397" lon="6.7253">
        <ele>418.7</ele>
        <time>2017-02-05T09:48:29.000Z</time>
      </trkpt>
      <trkpt lat="47.554" lon="6.72533">
        <ele>418.8</ele>
        <time>2017-02-05T09:48:30.000Z</time>
      </trkpt>
      <trkpt lat="47.55404" lon="6.72536">
        <ele>418.8</ele>
        <time>2017-02-05T09:48:31.000Z</time>
      </trkpt>
      <trkpt lat="47.55406" lon="6.72538">
        <ele>418.9</ele>
        <time>2017-02-05T09:48:32.000Z</time>
      </trkpt>
      <trkpt lat="47.55409" lon="6.7254">
        <ele>418.9</ele>
        <time>2017-02-05T09:48:33.000Z</time>
      </trkpt>
      <trkpt lat="47.55412" lon="6.72543">
        <ele>419</ele>
        <time>2017-02-05T09:48:34.000Z</time>
      </trkpt>
      <trkpt lat="47.55415" lon="6.72545">
        <ele>419.1</ele>
        <time>2017-02-05T09:48:35.000Z</time>
      </trkpt>
      <trkpt lat="47.55418" lon="6.72547">
        <ele>419.1</ele>
        <time>2017-02-05T09:48:36.000Z</time>
      </trkpt>
      <trkpt lat="47.55421" lon="6.7255">
        <ele>419.1</ele>
        <time>2017-02-05T09:48:37.000Z</time>
      </trkpt>
      <trkpt lat="47.55424" lon="6.72552">
        <ele>419.2</ele>
        <time>2017-02-05T09:48:38.000Z</time>
      </trkpt>
      <trkpt lat="47.55426" lon="6.72554">
        <ele>419.3</ele>
        <time>2017-02-05T09:48:39.000Z</time>
      </trkpt>
      <trkpt lat="47.55429" lon="6.72556">
        <ele>419.3</ele>
        <time>2017-02-05T09:48:40.000Z</time>
      </trkpt>
      <trkpt lat="47.55432" lon="6.72558">
        <ele>419.2</ele>
        <time>2017-02-05T09:48:41.000Z</time>
      </trkpt>
      <trkpt lat="47.55435" lon="6.72561">
        <ele>419.1</ele>
        <time>2017-02-05T09:48:42.000Z</time>
      </trkpt>
      <trkpt lat="47.55438" lon="6.72563">
        <ele>419.1</ele>
        <time>2017-02-05T09:48:43.000Z</time>
      </trkpt>
      <trkpt lat="47.55441" lon="6.72564">
        <ele>419.1</ele>
        <time>2017-02-05T09:48:44.000Z</time>
      </trkpt>
      <trkpt lat="47.55444" lon="6.72567">
        <ele>419.1</ele>
        <time>2017-02-05T09:48:45.000Z</time>
      </trkpt>
      <trkpt lat="47.55447" lon="6.72569">
        <ele>419</ele>
        <time>2017-02-05T09:48:46.000Z</time>
      </trkpt>
      <trkpt lat="47.5545" lon="6.72572">
        <ele>418.9</ele>
        <time>2017-02-05T09:48:47.000Z</time>
      </trkpt>
      <trkpt lat="47.55453" lon="6.72574">
        <ele>418.9</ele>
        <time>2017-02-05T09:48:48.000Z</time>
      </trkpt>
      <trkpt lat="47.55455" lon="6.72576">
        <ele>418.8</ele>
        <time>2017-02-05T09:48:49.000Z</time>
      </trkpt>
      <trkpt lat="47.55458" lon="6.72578">
        <ele>418.8</ele>
        <time>2017-02-05T09:48:50.000Z</time>
      </trkpt>
      <trkpt lat="47.55461" lon="6.72581">
        <ele>418.8</ele>
        <time>2017-02-05T09:48:51.000Z</time>
      </trkpt>
      <trkpt lat="47.55464" lon="6.72583">
        <ele>418.8</ele>
        <time>2017-02-05T09:48:52.000Z</time>
      </trkpt>
      <trkpt lat="47.55467" lon="6.72586">
        <ele>418.8</ele>
        <time>2017-02-05T09:48:53.000Z</time>
      </trkpt>
      <trkpt lat="47.55471" lon="6.72588">
        <ele>418.9</ele>
        <time>2017-02-05T09:48:54.000Z</time>
      </trkpt>
      <trkpt lat="47.55474" lon="6.72591">
        <ele>418.9</ele>
        <time>2017-02-05T09:48:55.000Z</time>
      </trkpt>
      <trkpt lat="47.55477" lon="6.72593">
        <ele>419</ele>
        <time>2017-02-05T09:48:56.000Z</time>
      </trkpt>
      <trkpt lat="47.5548" lon="6.72596">
        <ele>419</ele>
        <time>2017-02-05T09:48:57.000Z</time>
      </trkpt>
      <trkpt lat="47.55483" lon="6.72599">
        <ele>419</ele>
        <time>2017-02-05T09:48:58.000Z</time>
      </trkpt>
      <trkpt lat="47.55486" lon="6.72602">
        <ele>419.1</ele>
        <time>2017-02-05T09:48:59.000Z</time>
      </trkpt>
      <trkpt lat="47.55488" lon="6.72604">
        <ele>419.2</ele>
        <time>2017-02-05T09:49:00.000Z</time>
      </trkpt>
      <trkpt lat="47.55492" lon="6.72607">
        <ele>419.2</ele>
        <time>2017-02-05T09:49:01.000Z</time>
      </trkpt>
      <trkpt lat="47.55495" lon="6.72609">
        <ele>419.2</ele>
        <time>2017-02-05T09:49:02.000Z</time>
      </trkpt>
      <trkpt lat="47.55496" lon="6.72612">
        <ele>419.4</ele>
        <time>2017-02-05T09:49:03.000Z</time>
      </trkpt>
      <trkpt lat="47.55497" lon="6.72615">
        <ele>419.5</ele>
        <time>2017-02-05T09:49:04.000Z</time>
      </trkpt>
      <trkpt lat="47.55497" lon="6.72619">
        <ele>419.6</ele>
        <time>2017-02-05T09:49:05.000Z</time>
      </trkpt>
      <trkpt lat="47.55496" lon="6.72624">
        <ele>419.7</ele>
        <time>2017-02-05T09:49:06.000Z</time>
      </trkpt>
      <trkpt lat="47.55495" lon="6.72629">
        <ele>419.9</ele>
        <time>2017-02-05T09:49:07.000Z</time>
      </trkpt>
      <trkpt lat="47.55494" lon="6.72634">
        <ele>420</ele>
        <time>2017-02-05T09:49:08.000Z</time>
      </trkpt>
      <trkpt lat="47.55493" lon="6.72639">
        <ele>420.1</ele>
        <time>2017-02-05T09:49:09.000Z</time>
      </trkpt>
      <trkpt lat="47.55491" lon="6.72643">
        <ele>420.3</ele>
        <time>2017-02-05T09:49:10.000Z</time>
      </trkpt>
      <trkpt lat="47.5549" lon="6.72648">
        <ele>420.4</ele>
        <time>2017-02-05T09:49:11.000Z</time>
      </trkpt>
      <trkpt lat="47.55488" lon="6.72652">
        <ele>420.5</ele>
        <time>2017-02-05T09:49:12.000Z</time>
      </trkpt>
      <trkpt lat="47.55487" lon="6.72657">
        <ele>420.6</ele>
        <time>2017-02-05T09:49:13.000Z</time>
      </trkpt>
      <trkpt lat="47.55486" lon="6.72663">
        <ele>420.7</ele>
        <time>2017-02-05T09:49:14.000Z</time>
      </trkpt>
      <trkpt lat="47.55485" lon="6.72669">
        <ele>420.9</ele>
        <time>2017-02-05T09:49:15.000Z</time>
      </trkpt>
      <trkpt lat="47.55484" lon="6.72674">
        <ele>421</ele>
        <time>2017-02-05T09:49:16.000Z</time>
      </trkpt>
      <trkpt lat="47.55484" lon="6.72677">
        <ele>421</ele>
        <time>2017-02-05T09:49:17.000Z</time>
      </trkpt>
      <trkpt lat="47.55483" lon="6.72681">
        <ele>421.1</ele>
        <time>2017-02-05T09:49:18.000Z</time>
      </trkpt>
      <trkpt lat="47.55482" lon="6.72685">
        <ele>421.2</ele>
        <time>2017-02-05T09:49:19.000Z</time>
      </trkpt>
      <trkpt lat="47.55481" lon="6.72689">
        <ele>421.2</ele>
        <time>2017-02-05T09:49:20.000Z</time>
      </trkpt>
      <trkpt lat="47.5548" lon="6.72693">
        <ele>421.3</ele>
        <time>2017-02-05T09:49:21.000Z</time>
      </trkpt>
      <trkpt lat="47.55479" lon="6.72698">
        <ele>421.3</ele>
        <time>2017-02-05T09:49:22.000Z</time>
      </trkpt>
      <trkpt lat="47.55478" lon="6.72703">
        <ele>421.4</ele>
        <time>2017-02-05T09:49:23.000Z</time>
      </trkpt>
      <trkpt lat="47.55476" lon="6.72709">
        <ele>421.5</ele>
        <time>2017-02-05T09:49:24.000Z</time>
      </trkpt>
      <trkpt lat="47.55475" lon="6.72713">
        <ele>421.6</ele>
        <time>2017-02-05T09:49:25.000Z</time>
      </trkpt>
      <trkpt lat="47.55473" lon="6.72716">
        <ele>421.7</ele>
        <time>2017-02-05T09:49:26.000Z</time>
      </trkpt>
      <trkpt lat="47.55471" lon="6.72721">
        <ele>421.8</ele>
        <time>2017-02-05T09:49:27.000Z</time>
      </trkpt>
      <trkpt lat="47.5547" lon="6.72724">
        <ele>421.9</ele>
        <time>2017-02-05T09:49:28.000Z</time>
      </trkpt>
      <trkpt lat="47.55467" lon="6.72728">
        <ele>421.9</ele>
        <time>2017-02-05T09:49:29.000Z</time>
      </trkpt>
      <trkpt lat="47.55464" lon="6.72731">
        <ele>422</ele>
        <time>2017-02-05T09:49:30.000Z</time>
      </trkpt>
      <trkpt lat="47.55462" lon="6.72734">
        <ele>422</ele>
        <time>2017-02-05T09:49:31.000Z</time>
      </trkpt>
      <trkpt lat="47.5546" lon="6.72735">
        <ele>422</ele>
        <time>2017-02-05T09:49:32.000Z</time>
      </trkpt>
      <trkpt lat="47.55457" lon="6.72737">
        <ele>422</ele>
        <time>2017-02-05T09:49:33.000Z</time>
      </trkpt>
      <trkpt lat="47.55455" lon="6.72739">
        <ele>422</ele>
        <time>2017-02-05T09:49:34.000Z</time>
      </trkpt>
      <trkpt lat="47.55452" lon="6.72741">
        <ele>422</ele>
        <time>2017-02-05T09:49:35.000Z</time>
      </trkpt>
      <trkpt lat="47.5545" lon="6.72741">
        <ele>422</ele>
        <time>2017-02-05T09:49:36.000Z</time>
      </trkpt>
      <trkpt lat="47.55447" lon="6.72742">
        <ele>422</ele>
        <time>2017-02-05T09:49:37.000Z</time>
      </trkpt>
      <trkpt lat="47.55444" lon="6.72742">
        <ele>422</ele>
        <time>2017-02-05T09:49:38.000Z</time>
      </trkpt>
      <trkpt lat="47.55441" lon="6.72741">
        <ele>422</ele>
        <time>2017-02-05T09:49:39.000Z</time>
      </trkpt>
      <trkpt lat="47.55438" lon="6.72741">
        <ele>422.1</ele>
        <time>2017-02-05T09:49:40.000Z</time>
      </trkpt>
      <trkpt lat="47.55436" lon="6.72741">
        <ele>422</ele>
        <time>2017-02-05T09:49:41.000Z</time>
      </trkpt>
      <trkpt lat="47.55433" lon="6.72742">
        <ele>422.1</ele>
        <time>2017-02-05T09:49:42.000Z</time>
      </trkpt>
      <trkpt lat="47.5543" lon="6.72742">
        <ele>422.1</ele>
        <time>2017-02-05T09:49:43.000Z</time>
      </trkpt>
      <trkpt lat="47.55427" lon="6.72743">
        <ele>422.1</ele>
        <time>2017-02-05T09:49:44.000Z</time>
      </trkpt>
      <trkpt lat="47.55424" lon="6.72745">
        <ele>422.1</ele>
        <time>2017-02-05T09:49:45.000Z</time>
      </trkpt>
      <trkpt lat="47.5542" lon="6.72746">
        <ele>422.2</ele>
        <time>2017-02-05T09:49:46.000Z</time>
      </trkpt>
      <trkpt lat="47.55417" lon="6.72748">
        <ele>422.2</ele>
        <time>2017-02-05T09:49:47.000Z</time>
      </trkpt>
      <trkpt lat="47.55414" lon="6.7275">
        <ele>422.4</ele>
        <time>2017-02-05T09:49:48.000Z</time>
      </trkpt>
      <trkpt lat="47.55411" lon="6.72753">
        <ele>422.5</ele>
        <time>2017-02-05T09:49:49.000Z</time>
      </trkpt>
      <trkpt lat="47.55408" lon="6.72756">
        <ele>422.6</ele>
        <time>2017-02-05T09:49:50.000Z</time>
      </trkpt>
      <trkpt lat="47.55405" lon="6.72758">
        <ele>422.7</ele>
        <time>2017-02-05T09:49:51.000Z</time>
      </trkpt>
      <trkpt lat="47.55402" lon="6.72761">
        <ele>422.8</ele>
        <time>2017-02-05T09:49:52.000Z</time>
      </trkpt>
      <trkpt lat="47.55401" lon="6.72763">
        <ele>423</ele>
        <time>2017-02-05T09:49:53.000Z</time>
      </trkpt>
      <trkpt lat="47.55398" lon="6.72766">
        <ele>423.1</ele>
        <time>2017-02-05T09:49:54.000Z</time>
      </trkpt>
      <trkpt lat="47.55396" lon="6.72769">
        <ele>423.2</ele>
        <time>2017-02-05T09:49:55.000Z</time>
      </trkpt>
      <trkpt lat="47.55393" lon="6.72773">
        <ele>423.4</ele>
        <time>2017-02-05T09:49:56.000Z</time>
      </trkpt>
      <trkpt lat="47.5539" lon="6.72778">
        <ele>423.6</ele>
        <time>2017-02-05T09:49:57.000Z</time>
      </trkpt>
      <trkpt lat="47.55388" lon="6.72781">
        <ele>423.7</ele>
        <time>2017-02-05T09:49:58.000Z</time>
      </trkpt>
      <trkpt lat="47.55385" lon="6.72783">
        <ele>423.9</ele>
        <time>2017-02-05T09:49:59.000Z</time>
      </trkpt>
      <trkpt lat="47.55383" lon="6.72786">
        <ele>424.1</ele>
        <time>2017-02-05T09:50:00.000Z</time>
      </trkpt>
      <trkpt lat="47.55381" lon="6.72788">
        <ele>424.2</ele>
        <time>2017-02-05T09:50:01.000Z</time>
      </trkpt>
      <trkpt lat="47.55378" lon="6.72791">
        <ele>424.4</ele>
        <time>2017-02-05T09:50:02.000Z</time>
      </trkpt>
      <trkpt lat="47.55376" lon="6.72794">
        <ele>424.6</ele>
        <time>2017-02-05T09:50:03.000Z</time>
      </trkpt>
      <trkpt lat="47.55373" lon="6.72798">
        <ele>424.7</ele>
        <time>2017-02-05T09:50:04.000Z</time>
      </trkpt>
      <trkpt lat="47.55371" lon="6.72801">
        <ele>424.8</ele>
        <time>2017-02-05T09:50:05.000Z</time>
      </trkpt>
      <trkpt lat="47.55369" lon="6.72804">
        <ele>425</ele>
        <time>2017-02-05T09:50:06.000Z</time>
      </trkpt>
      <trkpt lat="47.55367" lon="6.72807">
        <ele>425.1</ele>
        <time>2017-02-05T09:50:07.000Z</time>
      </trkpt>
      <trkpt lat="47.55365" lon="6.72809">
        <ele>425.2</ele>
        <time>2017-02-05T09:50:08.000Z</time>
      </trkpt>
      <trkpt lat="47.55364" lon="6.72811">
        <ele>425.4</ele>
        <time>2017-02-05T09:50:09.000Z</time>
      </trkpt>
      <trkpt lat="47.55362" lon="6.72813">
        <ele>425.5</ele>
        <time>2017-02-05T09:50:10.000Z</time>
      </trkpt>
      <trkpt lat="47.55359" lon="6.72816">
        <ele>425.6</ele>
        <time>2017-02-05T09:50:11.000Z</time>
      </trkpt>
      <trkpt lat="47.55357" lon="6.72819">
        <ele>425.7</ele>
        <time>2017-02-05T09:50:12.000Z</time>
      </trkpt>
      <trkpt lat="47.55355" lon="6.72821">
        <ele>425.8</ele>
        <time>2017-02-05T09:50:13.000Z</time>
      </trkpt>
      <trkpt lat="47.55351" lon="6.72825">
        <ele>425.9</ele>
        <time>2017-02-05T09:50:14.000Z</time>
      </trkpt>
      <trkpt lat="47.55348" lon="6.72828">
        <ele>426.1</ele>
        <time>2017-02-05T09:50:15.000Z</time>
      </trkpt>
      <trkpt lat="47.55345" lon="6.72831">
        <ele>426.2</ele>
        <time>2017-02-05T09:50:16.000Z</time>
      </trkpt>
      <trkpt lat="47.55343" lon="6.72833">
        <ele>426.3</ele>
        <time>2017-02-05T09:50:17.000Z</time>
      </trkpt>
      <trkpt lat="47.55341" lon="6.72835">
        <ele>426.4</ele>
        <time>2017-02-05T09:50:18.000Z</time>
      </trkpt>
      <trkpt lat="47.55339" lon="6.72837">
        <ele>426.5</ele>
        <time>2017-02-05T09:50:19.000Z</time>
      </trkpt>
      <trkpt lat="47.55335" lon="6.7284">
        <ele>426.6</ele>
        <time>2017-02-05T09:50:20.000Z</time>
      </trkpt>
      <trkpt lat="47.55332" lon="6.72843">
        <ele>427.8</ele>
        <time>2017-02-05T09:50:21.000Z</time>
      </trkpt>
      <trkpt lat="47.55329" lon="6.72846">
        <ele>427.9</ele>
        <time>2017-02-05T09:50:22.000Z</time>
      </trkpt>
      <trkpt lat="47.55326" lon="6.7285">
        <ele>428</ele>
        <time>2017-02-05T09:50:23.000Z</time>
      </trkpt>
      <trkpt lat="47.55322" lon="6.72853">
        <ele>428.1</ele>
        <time>2017-02-05T09:50:24.000Z</time>
      </trkpt>
      <trkpt lat="47.55317" lon="6.72857">
        <ele>428.2</ele>
        <time>2017-02-05T09:50:25.000Z</time>
      </trkpt>
      <trkpt lat="47.55314" lon="6.7286">
        <ele>428.2</ele>
        <time>2017-02-05T09:50:26.000Z</time>
      </trkpt>
      <trkpt lat="47.55309" lon="6.72863">
        <ele>427.6</ele>
        <time>2017-02-05T09:50:27.000Z</time>
      </trkpt>
      <trkpt lat="47.55305" lon="6.72865">
        <ele>427</ele>
        <time>2017-02-05T09:50:28.000Z</time>
      </trkpt>
      <trkpt lat="47.55302" lon="6.72869">
        <ele>426.5</ele>
        <time>2017-02-05T09:50:29.000Z</time>
      </trkpt>
      <trkpt lat="47.55298" lon="6.72872">
        <ele>426.5</ele>
        <time>2017-02-05T09:50:30.000Z</time>
      </trkpt>
      <trkpt lat="47.55294" lon="6.72876">
        <ele>426.2</ele>
        <time>2017-02-05T09:50:31.000Z</time>
      </trkpt>
      <trkpt lat="47.5529" lon="6.72877">
        <ele>425.6</ele>
        <time>2017-02-05T09:50:32.000Z</time>
      </trkpt>
      <trkpt lat="47.55285" lon="6.72878">
        <ele>425.1</ele>
        <time>2017-02-05T09:50:33.000Z</time>
      </trkpt>
      <trkpt lat="47.5528" lon="6.72881">
        <ele>425</ele>
        <time>2017-02-05T09:50:34.000Z</time>
      </trkpt>
      <trkpt lat="47.55276" lon="6.72884">
        <ele>424.4</ele>
        <time>2017-02-05T09:50:35.000Z</time>
      </trkpt>
      <trkpt lat="47.55271" lon="6.72887">
        <ele>423.9</ele>
        <time>2017-02-05T09:50:36.000Z</time>
      </trkpt>
      <trkpt lat="47.55266" lon="6.7289">
        <ele>423.3</ele>
        <time>2017-02-05T09:50:37.000Z</time>
      </trkpt>
      <trkpt lat="47.5526" lon="6.72893">
        <ele>422.9</ele>
        <time>2017-02-05T09:50:38.000Z</time>
      </trkpt>
      <trkpt lat="47.55255" lon="6.72897">
        <ele>422.7</ele>
        <time>2017-02-05T09:50:39.000Z</time>
      </trkpt>
      <trkpt lat="47.5525" lon="6.72901">
        <ele>422.6</ele>
        <time>2017-02-05T09:50:40.000Z</time>
      </trkpt>
      <trkpt lat="47.55245" lon="6.72908">
        <ele>422.6</ele>
        <time>2017-02-05T09:50:41.000Z</time>
      </trkpt>
      <trkpt lat="47.5524" lon="6.72913">
        <ele>422.5</ele>
        <time>2017-02-05T09:50:42.000Z</time>
      </trkpt>
      <trkpt lat="47.55236" lon="6.72921">
        <ele>422.2</ele>
        <time>2017-02-05T09:50:43.000Z</time>
      </trkpt>
      <trkpt lat="47.55231" lon="6.72929">
        <ele>422.1</ele>
        <time>2017-02-05T09:50:44.000Z</time>
      </trkpt>
      <trkpt lat="47.55226" lon="6.72937">
        <ele>422</ele>
        <time>2017-02-05T09:50:45.000Z</time>
      </trkpt>
      <trkpt lat="47.55222" lon="6.72946">
        <ele>421.9</ele>
        <time>2017-02-05T09:50:46.000Z</time>
      </trkpt>
      <trkpt lat="47.55217" lon="6.72954">
        <ele>421.8</ele>
        <time>2017-02-05T09:50:47.000Z</time>
      </trkpt>
      <trkpt lat="47.55215" lon="6.72962">
        <ele>421.6</ele>
        <time>2017-02-05T09:50:48.000Z</time>
      </trkpt>
      <trkpt lat="47.55213" lon="6.7297">
        <ele>420.9</ele>
        <time>2017-02-05T09:50:49.000Z</time>
      </trkpt>
      <trkpt lat="47.55211" lon="6.72977">
        <ele>419.7</ele>
        <time>2017-02-05T09:50:50.000Z</time>
      </trkpt>
      <trkpt lat="47.55209" lon="6.72983">
        <ele>419.2</ele>
        <time>2017-02-05T09:50:51.000Z</time>
      </trkpt>
      <trkpt lat="47.55208" lon="6.7299">
        <ele>418.7</ele>
        <time>2017-02-05T09:50:52.000Z</time>
      </trkpt>
      <trkpt lat="47.55206" lon="6.72998">
        <ele>418.6</ele>
        <time>2017-02-05T09:50:53.000Z</time>
      </trkpt>
      <trkpt lat="47.55205" lon="6.73005">
        <ele>418.6</ele>
        <time>2017-02-05T09:50:54.000Z</time>
      </trkpt>
      <trkpt lat="47.55203" lon="6.73012">
        <ele>418.5</ele>
        <time>2017-02-05T09:50:55.000Z</time>
      </trkpt>
      <trkpt lat="47.55202" lon="6.7302">
        <ele>418.7</ele>
        <time>2017-02-05T09:50:56.000Z</time>
      </trkpt>
      <trkpt lat="47.552" lon="6.73025">
        <ele>418.9</ele>
        <time>2017-02-05T09:50:57.000Z</time>
      </trkpt>
      <trkpt lat="47.55198" lon="6.73031">
        <ele>419.3</ele>
        <time>2017-02-05T09:50:58.000Z</time>
      </trkpt>
      <trkpt lat="47.55195" lon="6.73037">
        <ele>419.9</ele>
        <time>2017-02-05T09:50:59.000Z</time>
      </trkpt>
      <trkpt lat="47.55193" lon="6.73043">
        <ele>420.3</ele>
        <time>2017-02-05T09:51:00.000Z</time>
      </trkpt>
      <trkpt lat="47.5519" lon="6.7305">
        <ele>420.6</ele>
        <time>2017-02-05T09:51:01.000Z</time>
      </trkpt>
      <trkpt lat="47.55187" lon="6.73056">
        <ele>420.8</ele>
        <time>2017-02-05T09:51:02.000Z</time>
      </trkpt>
      <trkpt lat="47.55184" lon="6.73062">
        <ele>420.9</ele>
        <time>2017-02-05T09:51:03.000Z</time>
      </trkpt>
      <trkpt lat="47.55181" lon="6.73066">
        <ele>420.5</ele>
        <time>2017-02-05T09:51:04.000Z</time>
      </trkpt>
      <trkpt lat="47.55178" lon="6.7307">
        <ele>420.2</ele>
        <time>2017-02-05T09:51:05.000Z</time>
      </trkpt>
      <trkpt lat="47.55174" lon="6.73075">
        <ele>420.1</ele>
        <time>2017-02-05T09:51:06.000Z</time>
      </trkpt>
      <trkpt lat="47.5517" lon="6.7308">
        <ele>420.4</ele>
        <time>2017-02-05T09:51:07.000Z</time>
      </trkpt>
      <trkpt lat="47.55166" lon="6.73084">
        <ele>420.6</ele>
        <time>2017-02-05T09:51:08.000Z</time>
      </trkpt>
      <trkpt lat="47.55162" lon="6.7309">
        <ele>421.1</ele>
        <time>2017-02-05T09:51:09.000Z</time>
      </trkpt>
      <trkpt lat="47.55159" lon="6.73094">
        <ele>421.7</ele>
        <time>2017-02-05T09:51:10.000Z</time>
      </trkpt>
      <trkpt lat="47.55155" lon="6.73098">
        <ele>422</ele>
        <time>2017-02-05T09:51:11.000Z</time>
      </trkpt>
      <trkpt lat="47.5515" lon="6.73103">
        <ele>422.2</ele>
        <time>2017-02-05T09:51:12.000Z</time>
      </trkpt>
      <trkpt lat="47.55147" lon="6.73108">
        <ele>422.1</ele>
        <time>2017-02-05T09:51:13.000Z</time>
      </trkpt>
      <trkpt lat="47.55144" lon="6.73112">
        <ele>421.9</ele>
        <time>2017-02-05T09:51:14.000Z</time>
      </trkpt>
      <trkpt lat="47.55142" lon="6.73115">
        <ele>421.9</ele>
        <time>2017-02-05T09:51:15.000Z</time>
      </trkpt>
      <trkpt lat="47.55139" lon="6.7312">
        <ele>421.9</ele>
        <time>2017-02-05T09:51:16.000Z</time>
      </trkpt>
      <trkpt lat="47.55137" lon="6.73124">
        <ele>421.9</ele>
        <time>2017-02-05T09:51:17.000Z</time>
      </trkpt>
      <trkpt lat="47.55134" lon="6.73129">
        <ele>421.9</ele>
        <time>2017-02-05T09:51:18.000Z</time>
      </trkpt>
      <trkpt lat="47.55132" lon="6.73132">
        <ele>421.9</ele>
        <time>2017-02-05T09:51:19.000Z</time>
      </trkpt>
      <trkpt lat="47.5513" lon="6.73134">
        <ele>421.9</ele>
        <time>2017-02-05T09:51:20.000Z</time>
      </trkpt>
      <trkpt lat="47.55127" lon="6.73137">
        <ele>422</ele>
        <time>2017-02-05T09:51:21.000Z</time>
      </trkpt>
      <trkpt lat="47.55125" lon="6.73141">
        <ele>422</ele>
        <time>2017-02-05T09:51:22.000Z</time>
      </trkpt>
      <trkpt lat="47.55122" lon="6.73144">
        <ele>422</ele>
        <time>2017-02-05T09:51:23.000Z</time>
      </trkpt>
      <trkpt lat="47.55119" lon="6.73148">
        <ele>422</ele>
        <time>2017-02-05T09:51:24.000Z</time>
      </trkpt>
      <trkpt lat="47.55116" lon="6.73152">
        <ele>422</ele>
        <time>2017-02-05T09:51:25.000Z</time>
      </trkpt>
      <trkpt lat="47.55114" lon="6.73155">
        <ele>422</ele>
        <time>2017-02-05T09:51:26.000Z</time>
      </trkpt>
      <trkpt lat="47.55112" lon="6.73157">
        <ele>422</ele>
        <time>2017-02-05T09:51:27.000Z</time>
      </trkpt>
      <trkpt lat="47.5511" lon="6.7316">
        <ele>421.9</ele>
        <time>2017-02-05T09:51:28.000Z</time>
      </trkpt>
      <trkpt lat="47.55109" lon="6.73162">
        <ele>421.9</ele>
        <time>2017-02-05T09:51:29.000Z</time>
      </trkpt>
      <trkpt lat="47.55107" lon="6.73164">
        <ele>421.9</ele>
        <time>2017-02-05T09:51:30.000Z</time>
      </trkpt>
      <trkpt lat="47.55105" lon="6.73168">
        <ele>421.8</ele>
        <time>2017-02-05T09:51:31.000Z</time>
      </trkpt>
      <trkpt lat="47.55102" lon="6.73172">
        <ele>421.7</ele>
        <time>2017-02-05T09:51:32.000Z</time>
      </trkpt>
      <trkpt lat="47.55099" lon="6.73177">
        <ele>421.7</ele>
        <time>2017-02-05T09:51:33.000Z</time>
      </trkpt>
      <trkpt lat="47.55097" lon="6.7318">
        <ele>421.6</ele>
        <time>2017-02-05T09:51:34.000Z</time>
      </trkpt>
      <trkpt lat="47.55095" lon="6.73184">
        <ele>421.6</ele>
        <time>2017-02-05T09:51:35.000Z</time>
      </trkpt>
      <trkpt lat="47.55093" lon="6.73188">
        <ele>421.6</ele>
        <time>2017-02-05T09:51:36.000Z</time>
      </trkpt>
      <trkpt lat="47.55091" lon="6.73191">
        <ele>421.6</ele>
        <time>2017-02-05T09:51:37.000Z</time>
      </trkpt>
      <trkpt lat="47.55089" lon="6.73195">
        <ele>421.6</ele>
        <time>2017-02-05T09:51:38.000Z</time>
      </trkpt>
      <trkpt lat="47.55087" lon="6.73197">
        <ele>421.6</ele>
        <time>2017-02-05T09:51:39.000Z</time>
      </trkpt>
      <trkpt lat="47.55085" lon="6.73201">
        <ele>421.7</ele>
        <time>2017-02-05T09:51:40.000Z</time>
      </trkpt>
      <trkpt lat="47.55083" lon="6.73203">
        <ele>421.8</ele>
        <time>2017-02-05T09:51:41.000Z</time>
      </trkpt>
      <trkpt lat="47.55081" lon="6.73206">
        <ele>421.8</ele>
        <time>2017-02-05T09:51:42.000Z</time>
      </trkpt>
      <trkpt lat="47.55078" lon="6.73209">
        <ele>421.9</ele>
        <time>2017-02-05T09:51:43.000Z</time>
      </trkpt>
      <trkpt lat="47.55076" lon="6.73212">
        <ele>421.9</ele>
        <time>2017-02-05T09:51:44.000Z</time>
      </trkpt>
      <trkpt lat="47.55074" lon="6.73215">
        <ele>422</ele>
        <time>2017-02-05T09:51:45.000Z</time>
      </trkpt>
      <trkpt lat="47.55073" lon="6.73218">
        <ele>422.1</ele>
        <time>2017-02-05T09:51:46.000Z</time>
      </trkpt>
      <trkpt lat="47.55072" lon="6.73222">
        <ele>422.2</ele>
        <time>2017-02-05T09:51:47.000Z</time>
      </trkpt>
      <trkpt lat="47.5507" lon="6.73225">
        <ele>422.3</ele>
        <time>2017-02-05T09:51:48.000Z</time>
      </trkpt>
      <trkpt lat="47.55069" lon="6.73228">
        <ele>422.4</ele>
        <time>2017-02-05T09:51:49.000Z</time>
      </trkpt>
      <trkpt lat="47.55069" lon="6.73234">
        <ele>422.4</ele>
        <time>2017-02-05T09:51:50.000Z</time>
      </trkpt>
      <trkpt lat="47.5507" lon="6.73239">
        <ele>422.4</ele>
        <time>2017-02-05T09:51:51.000Z</time>
      </trkpt>
      <trkpt lat="47.5507" lon="6.73243">
        <ele>422.5</ele>
        <time>2017-02-05T09:51:52.000Z</time>
      </trkpt>
      <trkpt lat="47.55071" lon="6.73247">
        <ele>422.5</ele>
        <time>2017-02-05T09:51:53.000Z</time>
      </trkpt>
      <trkpt lat="47.55073" lon="6.73251">
        <ele>422.6</ele>
        <time>2017-02-05T09:51:54.000Z</time>
      </trkpt>
      <trkpt lat="47.55074" lon="6.73255">
        <ele>422.7</ele>
        <time>2017-02-05T09:51:55.000Z</time>
      </trkpt>
      <trkpt lat="47.55075" lon="6.7326">
        <ele>422.8</ele>
        <time>2017-02-05T09:51:56.000Z</time>
      </trkpt>
      <trkpt lat="47.55074" lon="6.73263">
        <ele>422.9</ele>
        <time>2017-02-05T09:51:57.000Z</time>
      </trkpt>
      <trkpt lat="47.55073" lon="6.73266">
        <ele>423</ele>
        <time>2017-02-05T09:51:58.000Z</time>
      </trkpt>
      <trkpt lat="47.55072" lon="6.7327">
        <ele>423.1</ele>
        <time>2017-02-05T09:51:59.000Z</time>
      </trkpt>
      <trkpt lat="47.5507" lon="6.73272">
        <ele>423.2</ele>
        <time>2017-02-05T09:52:00.000Z</time>
      </trkpt>
      <trkpt lat="47.55069" lon="6.73275">
        <ele>423.2</ele>
        <time>2017-02-05T09:52:01.000Z</time>
      </trkpt>
      <trkpt lat="47.55067" lon="6.73279">
        <ele>423.2</ele>
        <time>2017-02-05T09:52:02.000Z</time>
      </trkpt>
      <trkpt lat="47.55065" lon="6.73282">
        <ele>423.2</ele>
        <time>2017-02-05T09:52:03.000Z</time>
      </trkpt>
      <trkpt lat="47.55063" lon="6.73285">
        <ele>423.2</ele>
        <time>2017-02-05T09:52:04.000Z</time>
      </trkpt>
      <trkpt lat="47.5506" lon="6.73288">
        <ele>423.3</ele>
        <time>2017-02-05T09:52:05.000Z</time>
      </trkpt>
      <trkpt lat="47.55058" lon="6.73291">
        <ele>423.5</ele>
        <time>2017-02-05T09:52:06.000Z</time>
      </trkpt>
      <trkpt lat="47.55056" lon="6.73293">
        <ele>423.6</ele>
        <time>2017-02-05T09:52:07.000Z</time>
      </trkpt>
      <trkpt lat="47.55054" lon="6.73296">
        <ele>423.7</ele>
        <time>2017-02-05T09:52:08.000Z</time>
      </trkpt>
      <trkpt lat="47.55052" lon="6.73299">
        <ele>423.8</ele>
        <time>2017-02-05T09:52:09.000Z</time>
      </trkpt>
      <trkpt lat="47.5505" lon="6.73302">
        <ele>423.9</ele>
        <time>2017-02-05T09:52:10.000Z</time>
      </trkpt>
      <trkpt lat="47.55048" lon="6.73305">
        <ele>423.9</ele>
        <time>2017-02-05T09:52:11.000Z</time>
      </trkpt>
      <trkpt lat="47.55045" lon="6.73309">
        <ele>424</ele>
        <time>2017-02-05T09:52:12.000Z</time>
      </trkpt>
      <trkpt lat="47.55043" lon="6.73311">
        <ele>424.2</ele>
        <time>2017-02-05T09:52:13.000Z</time>
      </trkpt>
      <trkpt lat="47.5504" lon="6.73314">
        <ele>424.3</ele>
        <time>2017-02-05T09:52:14.000Z</time>
      </trkpt>
      <trkpt lat="47.55038" lon="6.73316">
        <ele>424.4</ele>
        <time>2017-02-05T09:52:15.000Z</time>
      </trkpt>
      <trkpt lat="47.55036" lon="6.73318">
        <ele>424.6</ele>
        <time>2017-02-05T09:52:16.000Z</time>
      </trkpt>
      <trkpt lat="47.55034" lon="6.7332">
        <ele>424.8</ele>
        <time>2017-02-05T09:52:17.000Z</time>
      </trkpt>
      <trkpt lat="47.55032" lon="6.73322">
        <ele>424.9</ele>
        <time>2017-02-05T09:52:18.000Z</time>
      </trkpt>
      <trkpt lat="47.5503" lon="6.73324">
        <ele>425.1</ele>
        <time>2017-02-05T09:52:19.000Z</time>
      </trkpt>
      <trkpt lat="47.55028" lon="6.73326">
        <ele>425.2</ele>
        <time>2017-02-05T09:52:20.000Z</time>
      </trkpt>
      <trkpt lat="47.55025" lon="6.73328">
        <ele>425.4</ele>
        <time>2017-02-05T09:52:21.000Z</time>
      </trkpt>
      <trkpt lat="47.55023" lon="6.73331">
        <ele>425.5</ele>
        <time>2017-02-05T09:52:22.000Z</time>
      </trkpt>
      <trkpt lat="47.55021" lon="6.73332">
        <ele>425.7</ele>
        <time>2017-02-05T09:52:23.000Z</time>
      </trkpt>
      <trkpt lat="47.55019" lon="6.73335">
        <ele>425.9</ele>
        <time>2017-02-05T09:52:24.000Z</time>
      </trkpt>
      <trkpt lat="47.55017" lon="6.73337">
        <ele>426.1</ele>
        <time>2017-02-05T09:52:25.000Z</time>
      </trkpt>
      <trkpt lat="47.55013" lon="6.73341">
        <ele>426.4</ele>
        <time>2017-02-05T09:52:27.000Z</time>
      </trkpt>
      <trkpt lat="47.55011" lon="6.73345">
        <ele>426.5</ele>
        <time>2017-02-05T09:52:28.000Z</time>
      </trkpt>
      <trkpt lat="47.55008" lon="6.73348">
        <ele>426.6</ele>
        <time>2017-02-05T09:52:29.000Z</time>
      </trkpt>
      <trkpt lat="47.55005" lon="6.7335">
        <ele>426.6</ele>
        <time>2017-02-05T09:52:30.000Z</time>
      </trkpt>
      <trkpt lat="47.55003" lon="6.73353">
        <ele>426.7</ele>
        <time>2017-02-05T09:52:31.000Z</time>
      </trkpt>
      <trkpt lat="47.55" lon="6.73356">
        <ele>426.9</ele>
        <time>2017-02-05T09:52:32.000Z</time>
      </trkpt>
      <trkpt lat="47.54998" lon="6.73359">
        <ele>427</ele>
        <time>2017-02-05T09:52:33.000Z</time>
      </trkpt>
      <trkpt lat="47.54996" lon="6.73362">
        <ele>427.1</ele>
        <time>2017-02-05T09:52:34.000Z</time>
      </trkpt>
      <trkpt lat="47.54994" lon="6.73367">
        <ele>427.1</ele>
        <time>2017-02-05T09:52:35.000Z</time>
      </trkpt>
      <trkpt lat="47.54992" lon="6.7337">
        <ele>427.2</ele>
        <time>2017-02-05T09:52:36.000Z</time>
      </trkpt>
      <trkpt lat="47.5499" lon="6.73373">
        <ele>427.2</ele>
        <time>2017-02-05T09:52:37.000Z</time>
      </trkpt>
      <trkpt lat="47.54988" lon="6.73376">
        <ele>427.2</ele>
        <time>2017-02-05T09:52:38.000Z</time>
      </trkpt>
      <trkpt lat="47.54987" lon="6.73379">
        <ele>427.3</ele>
        <time>2017-02-05T09:52:39.000Z</time>
      </trkpt>
      <trkpt lat="47.54985" lon="6.73381">
        <ele>427.3</ele>
        <time>2017-02-05T09:52:40.000Z</time>
      </trkpt>
      <trkpt lat="47.54983" lon="6.73385">
        <ele>427.4</ele>
        <time>2017-02-05T09:52:41.000Z</time>
      </trkpt>
      <trkpt lat="47.54981" lon="6.73387">
        <ele>427.5</ele>
        <time>2017-02-05T09:52:42.000Z</time>
      </trkpt>
      <trkpt lat="47.54978" lon="6.7339">
        <ele>427.6</ele>
        <time>2017-02-05T09:52:43.000Z</time>
      </trkpt>
      <trkpt lat="47.54975" lon="6.73393">
        <ele>427.7</ele>
        <time>2017-02-05T09:52:44.000Z</time>
      </trkpt>
      <trkpt lat="47.54972" lon="6.73397">
        <ele>427.7</ele>
        <time>2017-02-05T09:52:45.000Z</time>
      </trkpt>
      <trkpt lat="47.54969" lon="6.73401">
        <ele>427.8</ele>
        <time>2017-02-05T09:52:46.000Z</time>
      </trkpt>
      <trkpt lat="47.54967" lon="6.73404">
        <ele>427.9</ele>
        <time>2017-02-05T09:52:47.000Z</time>
      </trkpt>
      <trkpt lat="47.54963" lon="6.73408">
        <ele>428</ele>
        <time>2017-02-05T09:52:48.000Z</time>
      </trkpt>
      <trkpt lat="47.54961" lon="6.73412">
        <ele>428.1</ele>
        <time>2017-02-05T09:52:49.000Z</time>
      </trkpt>
      <trkpt lat="47.54958" lon="6.73415">
        <ele>428.2</ele>
        <time>2017-02-05T09:52:50.000Z</time>
      </trkpt>
      <trkpt lat="47.54955" lon="6.73417">
        <ele>428.3</ele>
        <time>2017-02-05T09:52:51.000Z</time>
      </trkpt>
      <trkpt lat="47.54953" lon="6.7342">
        <ele>428.4</ele>
        <time>2017-02-05T09:52:52.000Z</time>
      </trkpt>
      <trkpt lat="47.5495" lon="6.73422">
        <ele>428.4</ele>
        <time>2017-02-05T09:52:53.000Z</time>
      </trkpt>
      <trkpt lat="47.54948" lon="6.73424">
        <ele>428.6</ele>
        <time>2017-02-05T09:52:54.000Z</time>
      </trkpt>
      <trkpt lat="47.54945" lon="6.73427">
        <ele>428.6</ele>
        <time>2017-02-05T09:52:55.000Z</time>
      </trkpt>
      <trkpt lat="47.54943" lon="6.7343">
        <ele>428.7</ele>
        <time>2017-02-05T09:52:56.000Z</time>
      </trkpt>
      <trkpt lat="47.5494" lon="6.73432">
        <ele>428.8</ele>
        <time>2017-02-05T09:52:57.000Z</time>
      </trkpt>
      <trkpt lat="47.54937" lon="6.73435">
        <ele>428.9</ele>
        <time>2017-02-05T09:52:58.000Z</time>
      </trkpt>
      <trkpt lat="47.54935" lon="6.73438">
        <ele>429.1</ele>
        <time>2017-02-05T09:52:59.000Z</time>
      </trkpt>
      <trkpt lat="47.54932" lon="6.7344">
        <ele>429.2</ele>
        <time>2017-02-05T09:53:00.000Z</time>
      </trkpt>
      <trkpt lat="47.5493" lon="6.73444">
        <ele>429.3</ele>
        <time>2017-02-05T09:53:01.000Z</time>
      </trkpt>
      <trkpt lat="47.54927" lon="6.73447">
        <ele>429.4</ele>
        <time>2017-02-05T09:53:02.000Z</time>
      </trkpt>
      <trkpt lat="47.54925" lon="6.7345">
        <ele>429.5</ele>
        <time>2017-02-05T09:53:03.000Z</time>
      </trkpt>
      <trkpt lat="47.54923" lon="6.73453">
        <ele>429.5</ele>
        <time>2017-02-05T09:53:04.000Z</time>
      </trkpt>
      <trkpt lat="47.54922" lon="6.73456">
        <ele>429.6</ele>
        <time>2017-02-05T09:53:05.000Z</time>
      </trkpt>
      <trkpt lat="47.54919" lon="6.73459">
        <ele>429.7</ele>
        <time>2017-02-05T09:53:06.000Z</time>
      </trkpt>
      <trkpt lat="47.54917" lon="6.73462">
        <ele>429.7</ele>
        <time>2017-02-05T09:53:07.000Z</time>
      </trkpt>
      <trkpt lat="47.54914" lon="6.73465">
        <ele>429.7</ele>
        <time>2017-02-05T09:53:08.000Z</time>
      </trkpt>
      <trkpt lat="47.54912" lon="6.73469">
        <ele>429.7</ele>
        <time>2017-02-05T09:53:09.000Z</time>
      </trkpt>
      <trkpt lat="47.54909" lon="6.73471">
        <ele>429.8</ele>
        <time>2017-02-05T09:53:10.000Z</time>
      </trkpt>
      <trkpt lat="47.54906" lon="6.73474">
        <ele>429.9</ele>
        <time>2017-02-05T09:53:11.000Z</time>
      </trkpt>
      <trkpt lat="47.54904" lon="6.73477">
        <ele>430.1</ele>
        <time>2017-02-05T09:53:12.000Z</time>
      </trkpt>
      <trkpt lat="47.54901" lon="6.7348">
        <ele>430.3</ele>
        <time>2017-02-05T09:53:13.000Z</time>
      </trkpt>
      <trkpt lat="47.54898" lon="6.73482">
        <ele>430.5</ele>
        <time>2017-02-05T09:53:14.000Z</time>
      </trkpt>
      <trkpt lat="47.54896" lon="6.73484">
        <ele>430.8</ele>
        <time>2017-02-05T09:53:15.000Z</time>
      </trkpt>
      <trkpt lat="47.54892" lon="6.73487">
        <ele>430.9</ele>
        <time>2017-02-05T09:53:16.000Z</time>
      </trkpt>
      <trkpt lat="47.54889" lon="6.7349">
        <ele>431</ele>
        <time>2017-02-05T09:53:17.000Z</time>
      </trkpt>
      <trkpt lat="47.54887" lon="6.73493">
        <ele>431.1</ele>
        <time>2017-02-05T09:53:18.000Z</time>
      </trkpt>
      <trkpt lat="47.54884" lon="6.73495">
        <ele>431.2</ele>
        <time>2017-02-05T09:53:19.000Z</time>
      </trkpt>
      <trkpt lat="47.54882" lon="6.73496">
        <ele>431.3</ele>
        <time>2017-02-05T09:53:20.000Z</time>
      </trkpt>
      <trkpt lat="47.54879" lon="6.73499">
        <ele>431.3</ele>
        <time>2017-02-05T09:53:21.000Z</time>
      </trkpt>
      <trkpt lat="47.54876" lon="6.73502">
        <ele>431.4</ele>
        <time>2017-02-05T09:53:22.000Z</time>
      </trkpt>
      <trkpt lat="47.54873" lon="6.73504">
        <ele>431.5</ele>
        <time>2017-02-05T09:53:23.000Z</time>
      </trkpt>
      <trkpt lat="47.5487" lon="6.73508">
        <ele>431.7</ele>
        <time>2017-02-05T09:53:24.000Z</time>
      </trkpt>
      <trkpt lat="47.54867" lon="6.73511">
        <ele>431.8</ele>
        <time>2017-02-05T09:53:25.000Z</time>
      </trkpt>
      <trkpt lat="47.54865" lon="6.73513">
        <ele>431.9</ele>
        <time>2017-02-05T09:53:26.000Z</time>
      </trkpt>
      <trkpt lat="47.54863" lon="6.73516">
        <ele>432</ele>
        <time>2017-02-05T09:53:27.000Z</time>
      </trkpt>
      <trkpt lat="47.54862" lon="6.73518">
        <ele>432.1</ele>
        <time>2017-02-05T09:53:28.000Z</time>
      </trkpt>
      <trkpt lat="47.54859" lon="6.73523">
        <ele>432.2</ele>
        <time>2017-02-05T09:53:30.000Z</time>
      </trkpt>
      <trkpt lat="47.54857" lon="6.73527">
        <ele>432.2</ele>
        <time>2017-02-05T09:53:31.000Z</time>
      </trkpt>
      <trkpt lat="47.54855" lon="6.73533">
        <ele>432.2</ele>
        <time>2017-02-05T09:53:32.000Z</time>
      </trkpt>
      <trkpt lat="47.54854" lon="6.73539">
        <ele>432.3</ele>
        <time>2017-02-05T09:53:33.000Z</time>
      </trkpt>
      <trkpt lat="47.54853" lon="6.73544">
        <ele>432.4</ele>
        <time>2017-02-05T09:53:34.000Z</time>
      </trkpt>
      <trkpt lat="47.54851" lon="6.73548">
        <ele>432.5</ele>
        <time>2017-02-05T09:53:35.000Z</time>
      </trkpt>
      <trkpt lat="47.5485" lon="6.73552">
        <ele>432.6</ele>
        <time>2017-02-05T09:53:36.000Z</time>
      </trkpt>
      <trkpt lat="47.54849" lon="6.73555">
        <ele>432.7</ele>
        <time>2017-02-05T09:53:37.000Z</time>
      </trkpt>
      <trkpt lat="47.54848" lon="6.7356">
        <ele>432.7</ele>
        <time>2017-02-05T09:53:38.000Z</time>
      </trkpt>
      <trkpt lat="47.54847" lon="6.73565">
        <ele>432.7</ele>
        <time>2017-02-05T09:53:39.000Z</time>
      </trkpt>
      <trkpt lat="47.54846" lon="6.7357">
        <ele>432.8</ele>
        <time>2017-02-05T09:53:40.000Z</time>
      </trkpt>
      <trkpt lat="47.54846" lon="6.73574">
        <ele>432.8</ele>
        <time>2017-02-05T09:53:41.000Z</time>
      </trkpt>
      <trkpt lat="47.54845" lon="6.73578">
        <ele>432.8</ele>
        <time>2017-02-05T09:53:42.000Z</time>
      </trkpt>
      <trkpt lat="47.54844" lon="6.73582">
        <ele>432.7</ele>
        <time>2017-02-05T09:53:43.000Z</time>
      </trkpt>
      <trkpt lat="47.54842" lon="6.73587">
        <ele>432.7</ele>
        <time>2017-02-05T09:53:44.000Z</time>
      </trkpt>
      <trkpt lat="47.54841" lon="6.73591">
        <ele>432.7</ele>
        <time>2017-02-05T09:53:45.000Z</time>
      </trkpt>
      <trkpt lat="47.54839" lon="6.73596">
        <ele>432.7</ele>
        <time>2017-02-05T09:53:47.000Z</time>
      </trkpt>
      <trkpt lat="47.54838" lon="6.73599">
        <ele>432.7</ele>
        <time>2017-02-05T09:53:48.000Z</time>
      </trkpt>
      <trkpt lat="47.54836" lon="6.73603">
        <ele>432.7</ele>
        <time>2017-02-05T09:53:49.000Z</time>
      </trkpt>
      <trkpt lat="47.54834" lon="6.73606">
        <ele>432.7</ele>
        <time>2017-02-05T09:53:50.000Z</time>
      </trkpt>
      <trkpt lat="47.54832" lon="6.7361">
        <ele>432.8</ele>
        <time>2017-02-05T09:53:51.000Z</time>
      </trkpt>
      <trkpt lat="47.5483" lon="6.73613">
        <ele>432.8</ele>
        <time>2017-02-05T09:53:52.000Z</time>
      </trkpt>
      <trkpt lat="47.54827" lon="6.73617">
        <ele>432.8</ele>
        <time>2017-02-05T09:53:53.000Z</time>
      </trkpt>
      <trkpt lat="47.54825" lon="6.73618">
        <ele>432.8</ele>
        <time>2017-02-05T09:53:54.000Z</time>
      </trkpt>
      <trkpt lat="47.54824" lon="6.7362">
        <ele>432.9</ele>
        <time>2017-02-05T09:53:55.000Z</time>
      </trkpt>
      <trkpt lat="47.54821" lon="6.73623">
        <ele>433</ele>
        <time>2017-02-05T09:53:56.000Z</time>
      </trkpt>
      <trkpt lat="47.54817" lon="6.73625">
        <ele>433.1</ele>
        <time>2017-02-05T09:53:57.000Z</time>
      </trkpt>
      <trkpt lat="47.54813" lon="6.73629">
        <ele>433.2</ele>
        <time>2017-02-05T09:53:58.000Z</time>
      </trkpt>
      <trkpt lat="47.54811" lon="6.73631">
        <ele>433.3</ele>
        <time>2017-02-05T09:53:59.000Z</time>
      </trkpt>
      <trkpt lat="47.54808" lon="6.73634">
        <ele>433.4</ele>
        <time>2017-02-05T09:54:00.000Z</time>
      </trkpt>
      <trkpt lat="47.54806" lon="6.73636">
        <ele>433.4</ele>
        <time>2017-02-05T09:54:01.000Z</time>
      </trkpt>
      <trkpt lat="47.54804" lon="6.73637">
        <ele>433.5</ele>
        <time>2017-02-05T09:54:02.000Z</time>
      </trkpt>
      <trkpt lat="47.54802" lon="6.73638">
        <ele>433.6</ele>
        <time>2017-02-05T09:54:03.000Z</time>
      </trkpt>
      <trkpt lat="47.54799" lon="6.7364">
        <ele>433.6</ele>
        <time>2017-02-05T09:54:04.000Z</time>
      </trkpt>
      <trkpt lat="47.54796" lon="6.73643">
        <ele>433.7</ele>
        <time>2017-02-05T09:54:06.000Z</time>
      </trkpt>
      <trkpt lat="47.54794" lon="6.73645">
        <ele>433.8</ele>
        <time>2017-02-05T09:54:07.000Z</time>
      </trkpt>
      <trkpt lat="47.54792" lon="6.73648">
        <ele>433.9</ele>
        <time>2017-02-05T09:54:08.000Z</time>
      </trkpt>
      <trkpt lat="47.5479" lon="6.7365">
        <ele>434</ele>
        <time>2017-02-05T09:54:09.000Z</time>
      </trkpt>
      <trkpt lat="47.54787" lon="6.73651">
        <ele>434.1</ele>
        <time>2017-02-05T09:54:10.000Z</time>
      </trkpt>
      <trkpt lat="47.54785" lon="6.73653">
        <ele>434.2</ele>
        <time>2017-02-05T09:54:11.000Z</time>
      </trkpt>
      <trkpt lat="47.54782" lon="6.73655">
        <ele>434.3</ele>
        <time>2017-02-05T09:54:12.000Z</time>
      </trkpt>
      <trkpt lat="47.5478" lon="6.73657">
        <ele>434.4</ele>
        <time>2017-02-05T09:54:13.000Z</time>
      </trkpt>
      <trkpt lat="47.54777" lon="6.73658">
        <ele>434.6</ele>
        <time>2017-02-05T09:54:14.000Z</time>
      </trkpt>
      <trkpt lat="47.54775" lon="6.73659">
        <ele>434.7</ele>
        <time>2017-02-05T09:54:15.000Z</time>
      </trkpt>
      <trkpt lat="47.54773" lon="6.7366">
        <ele>434.8</ele>
        <time>2017-02-05T09:54:16.000Z</time>
      </trkpt>
      <trkpt lat="47.5477" lon="6.73661">
        <ele>434.9</ele>
        <time>2017-02-05T09:54:17.000Z</time>
      </trkpt>
      <trkpt lat="47.54766" lon="6.73663">
        <ele>435.2</ele>
        <time>2017-02-05T09:54:19.000Z</time>
      </trkpt>
      <trkpt lat="47.54764" lon="6.73664">
        <ele>435.3</ele>
        <time>2017-02-05T09:54:20.000Z</time>
      </trkpt>
      <trkpt lat="47.54762" lon="6.73665">
        <ele>435.4</ele>
        <time>2017-02-05T09:54:21.000Z</time>
      </trkpt>
      <trkpt lat="47.54759" lon="6.73665">
        <ele>435.5</ele>
        <time>2017-02-05T09:54:22.000Z</time>
      </trkpt>
      <trkpt lat="47.54757" lon="6.73666">
        <ele>435.7</ele>
        <time>2017-02-05T09:54:23.000Z</time>
      </trkpt>
      <trkpt lat="47.54755" lon="6.73666">
        <ele>435.9</ele>
        <time>2017-02-05T09:54:24.000Z</time>
      </trkpt>
      <trkpt lat="47.54751" lon="6.73666">
        <ele>436</ele>
        <time>2017-02-05T09:54:25.000Z</time>
      </trkpt>
      <trkpt lat="47.54749" lon="6.73666">
        <ele>436.1</ele>
        <time>2017-02-05T09:54:26.000Z</time>
      </trkpt>
      <trkpt lat="47.54747" lon="6.73666">
        <ele>436.1</ele>
        <time>2017-02-05T09:54:27.000Z</time>
      </trkpt>
      <trkpt lat="47.54744" lon="6.73667">
        <ele>436.2</ele>
        <time>2017-02-05T09:54:28.000Z</time>
      </trkpt>
      <trkpt lat="47.54742" lon="6.73668">
        <ele>436.3</ele>
        <time>2017-02-05T09:54:29.000Z</time>
      </trkpt>
      <trkpt lat="47.5474" lon="6.7367">
        <ele>436.3</ele>
        <time>2017-02-05T09:54:30.000Z</time>
      </trkpt>
      <trkpt lat="47.54737" lon="6.73672">
        <ele>436.4</ele>
        <time>2017-02-05T09:54:31.000Z</time>
      </trkpt>
      <trkpt lat="47.54735" lon="6.73674">
        <ele>436.4</ele>
        <time>2017-02-05T09:54:32.000Z</time>
      </trkpt>
      <trkpt lat="47.54732" lon="6.73677">
        <ele>436.7</ele>
        <time>2017-02-05T09:54:34.000Z</time>
      </trkpt>
      <trkpt lat="47.54731" lon="6.73679">
        <ele>436.8</ele>
        <time>2017-02-05T09:54:35.000Z</time>
      </trkpt>
      <trkpt lat="47.54728" lon="6.73681">
        <ele>436.8</ele>
        <time>2017-02-05T09:54:36.000Z</time>
      </trkpt>
      <trkpt lat="47.54727" lon="6.73683">
        <ele>436.8</ele>
        <time>2017-02-05T09:54:37.000Z</time>
      </trkpt>
      <trkpt lat="47.54724" lon="6.73687">
        <ele>436.9</ele>
        <time>2017-02-05T09:54:39.000Z</time>
      </trkpt>
      <trkpt lat="47.54723" lon="6.73689">
        <ele>436.9</ele>
        <time>2017-02-05T09:54:40.000Z</time>
      </trkpt>
      <trkpt lat="47.54722" lon="6.73692">
        <ele>436.8</ele>
        <time>2017-02-05T09:54:42.000Z</time>
      </trkpt>
      <trkpt lat="47.5472" lon="6.73696">
        <ele>436.7</ele>
        <time>2017-02-05T09:54:43.000Z</time>
      </trkpt>
      <trkpt lat="47.54718" lon="6.73698">
        <ele>436.7</ele>
        <time>2017-02-05T09:54:44.000Z</time>
      </trkpt>
      <trkpt lat="47.54715" lon="6.73702">
        <ele>436.6</ele>
        <time>2017-02-05T09:54:45.000Z</time>
      </trkpt>
      <trkpt lat="47.54712" lon="6.73706">
        <ele>436.5</ele>
        <time>2017-02-05T09:54:48.000Z</time>
      </trkpt>
      <trkpt lat="47.54711" lon="6.73706">
        <ele>436.7</ele>
        <time>2017-02-05T09:54:49.000Z</time>
      </trkpt>
      <trkpt lat="47.54708" lon="6.7371">
        <ele>436.9</ele>
        <time>2017-02-05T09:54:51.000Z</time>
      </trkpt>
      <trkpt lat="47.54707" lon="6.73711">
        <ele>437.1</ele>
        <time>2017-02-05T09:54:52.000Z</time>
      </trkpt>
      <trkpt lat="47.54705" lon="6.73714">
        <ele>437.1</ele>
        <time>2017-02-05T09:54:53.000Z</time>
      </trkpt>
      <trkpt lat="47.54703" lon="6.73717">
        <ele>437.3</ele>
        <time>2017-02-05T09:54:54.000Z</time>
      </trkpt>
      <trkpt lat="47.547" lon="6.73721">
        <ele>437.5</ele>
        <time>2017-02-05T09:54:56.000Z</time>
      </trkpt>
      <trkpt lat="47.54699" lon="6.73723">
        <ele>437.6</ele>
        <time>2017-02-05T09:54:57.000Z</time>
      </trkpt>
      <trkpt lat="47.54696" lon="6.73726">
        <ele>437.6</ele>
        <time>2017-02-05T09:54:58.000Z</time>
      </trkpt>
      <trkpt lat="47.54694" lon="6.73727">
        <ele>437.7</ele>
        <time>2017-02-05T09:54:59.000Z</time>
      </trkpt>
      <trkpt lat="47.54691" lon="6.73729">
        <ele>437.7</ele>
        <time>2017-02-05T09:55:01.000Z</time>
      </trkpt>
      <trkpt lat="47.5469" lon="6.73731">
        <ele>437.8</ele>
        <time>2017-02-05T09:55:02.000Z</time>
      </trkpt>
      <trkpt lat="47.54688" lon="6.73733">
        <ele>437.9</ele>
        <time>2017-02-05T09:55:03.000Z</time>
      </trkpt>
      <trkpt lat="47.54686" lon="6.73736">
        <ele>438</ele>
        <time>2017-02-05T09:55:04.000Z</time>
      </trkpt>
      <trkpt lat="47.54683" lon="6.73739">
        <ele>438.1</ele>
        <time>2017-02-05T09:55:05.000Z</time>
      </trkpt>
      <trkpt lat="47.54681" lon="6.73741">
        <ele>438.4</ele>
        <time>2017-02-05T09:55:06.000Z</time>
      </trkpt>
      <trkpt lat="47.54678" lon="6.73745">
        <ele>438.5</ele>
        <time>2017-02-05T09:55:08.000Z</time>
      </trkpt>
      <trkpt lat="47.54678" lon="6.73747">
        <ele>438.7</ele>
        <time>2017-02-05T09:55:09.000Z</time>
      </trkpt>
      <trkpt lat="47.54676" lon="6.73751">
        <ele>439</ele>
        <time>2017-02-05T09:55:11.000Z</time>
      </trkpt>
      <trkpt lat="47.54675" lon="6.73753">
        <ele>439.2</ele>
        <time>2017-02-05T09:55:12.000Z</time>
      </trkpt>
      <trkpt lat="47.54673" lon="6.73757">
        <ele>439.7</ele>
        <time>2017-02-05T09:55:14.000Z</time>
      </trkpt>
      <trkpt lat="47.5467" lon="6.73762">
        <ele>439.8</ele>
        <time>2017-02-05T09:55:15.000Z</time>
      </trkpt>
      <trkpt lat="47.54668" lon="6.73765">
        <ele>440.1</ele>
        <time>2017-02-05T09:55:16.000Z</time>
      </trkpt>
      <trkpt lat="47.54666" lon="6.73768">
        <ele>440.3</ele>
        <time>2017-02-05T09:55:17.000Z</time>
      </trkpt>
      <trkpt lat="47.54666" lon="6.7377">
        <ele>440.7</ele>
        <time>2017-02-05T09:55:28.000Z</time>
      </trkpt>
      <trkpt lat="47.54656" lon="6.73787">
        <ele>440.6</ele>
        <time>2017-02-05T09:55:29.000Z</time>
      </trkpt>
      <trkpt lat="47.54656" lon="6.73787">
        <ele>441.2</ele>
        <time>2017-02-05T09:55:32.000Z</time>
      </trkpt>
      <trkpt lat="47.54652" lon="6.73802">
        <ele>441.5</ele>
        <time>2017-02-05T09:55:33.000Z</time>
      </trkpt>
      <trkpt lat="47.54652" lon="6.73802">
        <ele>443.1</ele>
        <time>2017-02-05T09:55:39.000Z</time>
      </trkpt>
      <trkpt lat="47.54647" lon="6.73816">
        <ele>443.3</ele>
        <time>2017-02-05T09:55:40.000Z</time>
      </trkpt>
      <trkpt lat="47.54645" lon="6.73819">
        <ele>443.6</ele>
        <time>2017-02-05T09:55:41.000Z</time>
      </trkpt>
      <trkpt lat="47.54643" lon="6.73823">
        <ele>444.1</ele>
        <time>2017-02-05T09:55:42.000Z</time>
      </trkpt>
      <trkpt lat="47.54642" lon="6.73826">
        <ele>444.5</ele>
        <time>2017-02-05T09:55:43.000Z</time>
      </trkpt>
      <trkpt lat="47.54641" lon="6.73829">
        <ele>445</ele>
        <time>2017-02-05T09:55:44.000Z</time>
      </trkpt>
      <trkpt lat="47.54639" lon="6.73833">
        <ele>445.4</ele>
        <time>2017-02-05T09:55:45.000Z</time>
      </trkpt>
      <trkpt lat="47.54638" lon="6.73836">
        <ele>445.9</ele>
        <time>2017-02-05T09:55:46.000Z</time>
      </trkpt>
      <trkpt lat="47.54637" lon="6.73839">
        <ele>446.4</ele>
        <time>2017-02-05T09:55:47.000Z</time>
      </trkpt>
      <trkpt lat="47.54636" lon="6.73843">
        <ele>446.8</ele>
        <time>2017-02-05T09:55:48.000Z</time>
      </trkpt>
      <trkpt lat="47.54635" lon="6.73844">
        <ele>447.4</ele>
        <time>2017-02-05T09:55:50.000Z</time>
      </trkpt>
      <trkpt lat="47.54634" lon="6.7385">
        <ele>447.5</ele>
        <time>2017-02-05T09:55:51.000Z</time>
      </trkpt>
      <trkpt lat="47.54631" lon="6.73854">
        <ele>448.3</ele>
        <time>2017-02-05T09:55:54.000Z</time>
      </trkpt>
      <trkpt lat="47.5463" lon="6.73856">
        <ele>448.5</ele>
        <time>2017-02-05T09:55:55.000Z</time>
      </trkpt>
      <trkpt lat="47.54629" lon="6.7386">
        <ele>448.8</ele>
        <time>2017-02-05T09:55:57.000Z</time>
      </trkpt>
      <trkpt lat="47.54627" lon="6.73861">
        <ele>449</ele>
        <time>2017-02-05T09:55:58.000Z</time>
      </trkpt>
      <trkpt lat="47.54626" lon="6.73867">
        <ele>449.8</ele>
        <time>2017-02-05T09:56:03.000Z</time>
      </trkpt>
      <trkpt lat="47.54625" lon="6.73869">
        <ele>450</ele>
        <time>2017-02-05T09:56:04.000Z</time>
      </trkpt>
      <trkpt lat="47.54623" lon="6.73874">
        <ele>450.4</ele>
        <time>2017-02-05T09:56:10.000Z</time>
      </trkpt>
      <trkpt lat="47.54622" lon="6.73875">
        <ele>450.4</ele>
        <time>2017-02-05T09:56:11.000Z</time>
      </trkpt>
      <trkpt lat="47.54619" lon="6.73879">
        <ele>450.5</ele>
        <time>2017-02-05T09:56:13.000Z</time>
      </trkpt>
      <trkpt lat="47.54619" lon="6.73881">
        <ele>450.5</ele>
        <time>2017-02-05T09:56:14.000Z</time>
      </trkpt>
      <trkpt lat="47.54618" lon="6.73883">
        <ele>450.5</ele>
        <time>2017-02-05T09:56:15.000Z</time>
      </trkpt>
      <trkpt lat="47.54616" lon="6.73886">
        <ele>450.5</ele>
        <time>2017-02-05T09:56:16.000Z</time>
      </trkpt>
      <trkpt lat="47.54613" lon="6.73889">
        <ele>450.5</ele>
        <time>2017-02-05T09:56:18.000Z</time>
      </trkpt>
      <trkpt lat="47.54612" lon="6.73891">
        <ele>450.4</ele>
        <time>2017-02-05T09:56:19.000Z</time>
      </trkpt>
      <trkpt lat="47.54611" lon="6.73896">
        <ele>450.4</ele>
        <time>2017-02-05T09:56:21.000Z</time>
      </trkpt>
      <trkpt lat="47.54611" lon="6.73899">
        <ele>450.5</ele>
        <time>2017-02-05T09:56:22.000Z</time>
      </trkpt>
      <trkpt lat="47.54609" lon="6.73904">
        <ele>450.3</ele>
        <time>2017-02-05T09:56:24.000Z</time>
      </trkpt>
      <trkpt lat="47.54607" lon="6.73907">
        <ele>450.2</ele>
        <time>2017-02-05T09:56:25.000Z</time>
      </trkpt>
      <trkpt lat="47.54605" lon="6.7391">
        <ele>449.8</ele>
        <time>2017-02-05T09:56:29.000Z</time>
      </trkpt>
      <trkpt lat="47.54604" lon="6.73912">
        <ele>449.6</ele>
        <time>2017-02-05T09:56:30.000Z</time>
      </trkpt>
      <trkpt lat="47.54602" lon="6.73916">
        <ele>449.8</ele>
        <time>2017-02-05T09:56:32.000Z</time>
      </trkpt>
      <trkpt lat="47.54602" lon="6.73919">
        <ele>449.9</ele>
        <time>2017-02-05T09:56:33.000Z</time>
      </trkpt>
      <trkpt lat="47.546" lon="6.73925">
        <ele>449.9</ele>
        <time>2017-02-05T09:56:35.000Z</time>
      </trkpt>
      <trkpt lat="47.546" lon="6.73929">
        <ele>450</ele>
        <time>2017-02-05T09:56:36.000Z</time>
      </trkpt>
      <trkpt lat="47.54598" lon="6.73934">
        <ele>451.2</ele>
        <time>2017-02-05T09:56:40.000Z</time>
      </trkpt>
      <trkpt lat="47.54597" lon="6.73938">
        <ele>451.5</ele>
        <time>2017-02-05T09:56:41.000Z</time>
      </trkpt>
      <trkpt lat="47.54595" lon="6.73941">
        <ele>451.8</ele>
        <time>2017-02-05T09:56:42.000Z</time>
      </trkpt>
      <trkpt lat="47.54593" lon="6.73944">
        <ele>452.1</ele>
        <time>2017-02-05T09:56:43.000Z</time>
      </trkpt>
      <trkpt lat="47.54591" lon="6.73947">
        <ele>452.4</ele>
        <time>2017-02-05T09:56:44.000Z</time>
      </trkpt>
      <trkpt lat="47.54589" lon="6.7395">
        <ele>452.6</ele>
        <time>2017-02-05T09:56:45.000Z</time>
      </trkpt>
      <trkpt lat="47.54587" lon="6.73953">
        <ele>453</ele>
        <time>2017-02-05T09:56:46.000Z</time>
      </trkpt>
      <trkpt lat="47.54586" lon="6.73954">
        <ele>453.3</ele>
        <time>2017-02-05T09:56:47.000Z</time>
      </trkpt>
      <trkpt lat="47.54584" lon="6.73956">
        <ele>453.5</ele>
        <time>2017-02-05T09:56:48.000Z</time>
      </trkpt>
      <trkpt lat="47.54582" lon="6.73959">
        <ele>453.7</ele>
        <time>2017-02-05T09:56:49.000Z</time>
      </trkpt>
      <trkpt lat="47.54579" lon="6.73964">
        <ele>453.9</ele>
        <time>2017-02-05T09:56:52.000Z</time>
      </trkpt>
      <trkpt lat="47.54577" lon="6.73968">
        <ele>453.9</ele>
        <time>2017-02-05T09:56:53.000Z</time>
      </trkpt>
      <trkpt lat="47.54575" lon="6.73971">
        <ele>453.9</ele>
        <time>2017-02-05T09:56:54.000Z</time>
      </trkpt>
      <trkpt lat="47.54574" lon="6.73977">
        <ele>454</ele>
        <time>2017-02-05T09:56:55.000Z</time>
      </trkpt>
      <trkpt lat="47.54572" lon="6.73982">
        <ele>454.1</ele>
        <time>2017-02-05T09:56:57.000Z</time>
      </trkpt>
      <trkpt lat="47.54572" lon="6.73985">
        <ele>454.1</ele>
        <time>2017-02-05T09:56:58.000Z</time>
      </trkpt>
      <trkpt lat="47.5457" lon="6.73991">
        <ele>454.1</ele>
        <time>2017-02-05T09:57:01.000Z</time>
      </trkpt>
      <trkpt lat="47.54569" lon="6.73992">
        <ele>454.1</ele>
        <time>2017-02-05T09:57:02.000Z</time>
      </trkpt>
      <trkpt lat="47.54566" lon="6.73995">
        <ele>454.3</ele>
        <time>2017-02-05T09:57:04.000Z</time>
      </trkpt>
      <trkpt lat="47.54565" lon="6.73997">
        <ele>454.5</ele>
        <time>2017-02-05T09:57:05.000Z</time>
      </trkpt>
      <trkpt lat="47.54562" lon="6.74">
        <ele>454.7</ele>
        <time>2017-02-05T09:57:07.000Z</time>
      </trkpt>
      <trkpt lat="47.54561" lon="6.74002">
        <ele>454.8</ele>
        <time>2017-02-05T09:57:08.000Z</time>
      </trkpt>
      <trkpt lat="47.54559" lon="6.74006">
        <ele>454.9</ele>
        <time>2017-02-05T09:57:09.000Z</time>
      </trkpt>
      <trkpt lat="47.54558" lon="6.74008">
        <ele>455</ele>
        <time>2017-02-05T09:57:10.000Z</time>
      </trkpt>
      <trkpt lat="47.54555" lon="6.74012">
        <ele>455.1</ele>
        <time>2017-02-05T09:57:12.000Z</time>
      </trkpt>
      <trkpt lat="47.54553" lon="6.74015">
        <ele>455.2</ele>
        <time>2017-02-05T09:57:13.000Z</time>
      </trkpt>
      <trkpt lat="47.54552" lon="6.74017">
        <ele>455.3</ele>
        <time>2017-02-05T09:57:14.000Z</time>
      </trkpt>
      <trkpt lat="47.54549" lon="6.74022">
        <ele>455.4</ele>
        <time>2017-02-05T09:57:15.000Z</time>
      </trkpt>
      <trkpt lat="47.54546" lon="6.74026">
        <ele>455.5</ele>
        <time>2017-02-05T09:57:16.000Z</time>
      </trkpt>
      <trkpt lat="47.54544" lon="6.74031">
        <ele>455.6</ele>
        <time>2017-02-05T09:57:17.000Z</time>
      </trkpt>
      <trkpt lat="47.54542" lon="6.74034">
        <ele>455.7</ele>
        <time>2017-02-05T09:57:18.000Z</time>
      </trkpt>
      <trkpt lat="47.5454" lon="6.74036">
        <ele>456</ele>
        <time>2017-02-05T09:57:19.000Z</time>
      </trkpt>
      <trkpt lat="47.54539" lon="6.74038">
        <ele>456.3</ele>
        <time>2017-02-05T09:57:20.000Z</time>
      </trkpt>
      <trkpt lat="47.54536" lon="6.7404">
        <ele>456.7</ele>
        <time>2017-02-05T09:57:21.000Z</time>
      </trkpt>
      <trkpt lat="47.54535" lon="6.74042">
        <ele>457</ele>
        <time>2017-02-05T09:57:22.000Z</time>
      </trkpt>
      <trkpt lat="47.54533" lon="6.74045">
        <ele>457.3</ele>
        <time>2017-02-05T09:57:23.000Z</time>
      </trkpt>
      <trkpt lat="47.54531" lon="6.74047">
        <ele>457.7</ele>
        <time>2017-02-05T09:57:24.000Z</time>
      </trkpt>
      <trkpt lat="47.54528" lon="6.74049">
        <ele>457.9</ele>
        <time>2017-02-05T09:57:25.000Z</time>
      </trkpt>
      <trkpt lat="47.54526" lon="6.74051">
        <ele>458.1</ele>
        <time>2017-02-05T09:57:26.000Z</time>
      </trkpt>
      <trkpt lat="47.54524" lon="6.74053">
        <ele>458.1</ele>
        <time>2017-02-05T09:57:27.000Z</time>
      </trkpt>
      <trkpt lat="47.54521" lon="6.74055">
        <ele>458.2</ele>
        <time>2017-02-05T09:57:28.000Z</time>
      </trkpt>
      <trkpt lat="47.54518" lon="6.74058">
        <ele>458.6</ele>
        <time>2017-02-05T09:57:29.000Z</time>
      </trkpt>
      <trkpt lat="47.54516" lon="6.74061">
        <ele>458.9</ele>
        <time>2017-02-05T09:57:30.000Z</time>
      </trkpt>
      <trkpt lat="47.54514" lon="6.74063">
        <ele>459.3</ele>
        <time>2017-02-05T09:57:31.000Z</time>
      </trkpt>
      <trkpt lat="47.54512" lon="6.74067">
        <ele>459.7</ele>
        <time>2017-02-05T09:57:32.000Z</time>
      </trkpt>
      <trkpt lat="47.54509" lon="6.74072">
        <ele>460.5</ele>
        <time>2017-02-05T09:57:34.000Z</time>
      </trkpt>
      <trkpt lat="47.54508" lon="6.74073">
        <ele>460.7</ele>
        <time>2017-02-05T09:57:35.000Z</time>
      </trkpt>
      <trkpt lat="47.54505" lon="6.74075">
        <ele>461.3</ele>
        <time>2017-02-05T09:57:37.000Z</time>
      </trkpt>
      <trkpt lat="47.54503" lon="6.74078">
        <ele>461.6</ele>
        <time>2017-02-05T09:57:38.000Z</time>
      </trkpt>
      <trkpt lat="47.54502" lon="6.7408">
        <ele>462</ele>
        <time>2017-02-05T09:57:39.000Z</time>
      </trkpt>
      <trkpt lat="47.54499" lon="6.74083">
        <ele>462.3</ele>
        <time>2017-02-05T09:57:40.000Z</time>
      </trkpt>
      <trkpt lat="47.54497" lon="6.74086">
        <ele>462.5</ele>
        <time>2017-02-05T09:57:41.000Z</time>
      </trkpt>
      <trkpt lat="47.54495" lon="6.74089">
        <ele>462.9</ele>
        <time>2017-02-05T09:57:42.000Z</time>
      </trkpt>
      <trkpt lat="47.54494" lon="6.74093">
        <ele>463.5</ele>
        <time>2017-02-05T09:57:44.000Z</time>
      </trkpt>
      <trkpt lat="47.54493" lon="6.74095">
        <ele>463.7</ele>
        <time>2017-02-05T09:57:45.000Z</time>
      </trkpt>
      <trkpt lat="47.5449" lon="6.741">
        <ele>464.4</ele>
        <time>2017-02-05T09:57:49.000Z</time>
      </trkpt>
      <trkpt lat="47.54489" lon="6.74102">
        <ele>464.5</ele>
        <time>2017-02-05T09:57:50.000Z</time>
      </trkpt>
      <trkpt lat="47.54487" lon="6.74104">
        <ele>464.7</ele>
        <time>2017-02-05T09:57:51.000Z</time>
      </trkpt>
      <trkpt lat="47.54483" lon="6.74107">
        <ele>464.7</ele>
        <time>2017-02-05T09:57:52.000Z</time>
      </trkpt>
      <trkpt lat="47.54482" lon="6.74109">
        <ele>464.9</ele>
        <time>2017-02-05T09:57:53.000Z</time>
      </trkpt>
      <trkpt lat="47.5448" lon="6.74112">
        <ele>465</ele>
        <time>2017-02-05T09:57:54.000Z</time>
      </trkpt>
      <trkpt lat="47.54477" lon="6.74116">
        <ele>465.3</ele>
        <time>2017-02-05T09:57:56.000Z</time>
      </trkpt>
      <trkpt lat="47.54476" lon="6.74119">
        <ele>465.5</ele>
        <time>2017-02-05T09:57:57.000Z</time>
      </trkpt>
      <trkpt lat="47.54474" lon="6.74124">
        <ele>465.4</ele>
        <time>2017-02-05T09:57:59.000Z</time>
      </trkpt>
      <trkpt lat="47.54473" lon="6.74124">
        <ele>465.3</ele>
        <time>2017-02-05T09:58:00.000Z</time>
      </trkpt>
      <trkpt lat="47.54471" lon="6.74127">
        <ele>465.4</ele>
        <time>2017-02-05T09:58:02.000Z</time>
      </trkpt>
      <trkpt lat="47.54469" lon="6.7413">
        <ele>465.5</ele>
        <time>2017-02-05T09:58:03.000Z</time>
      </trkpt>
      <trkpt lat="47.54467" lon="6.74132">
        <ele>465.5</ele>
        <time>2017-02-05T09:58:04.000Z</time>
      </trkpt>
      <trkpt lat="47.54465" lon="6.74135">
        <ele>465.4</ele>
        <time>2017-02-05T09:58:05.000Z</time>
      </trkpt>
      <trkpt lat="47.54463" lon="6.74138">
        <ele>465.2</ele>
        <time>2017-02-05T09:58:06.000Z</time>
      </trkpt>
      <trkpt lat="47.54461" lon="6.74142">
        <ele>465.2</ele>
        <time>2017-02-05T09:58:07.000Z</time>
      </trkpt>
      <trkpt lat="47.54459" lon="6.74144">
        <ele>465.1</ele>
        <time>2017-02-05T09:58:08.000Z</time>
      </trkpt>
      <trkpt lat="47.54457" lon="6.74146">
        <ele>465.2</ele>
        <time>2017-02-05T09:58:09.000Z</time>
      </trkpt>
      <trkpt lat="47.54455" lon="6.74149">
        <ele>465.5</ele>
        <time>2017-02-05T09:58:11.000Z</time>
      </trkpt>
      <trkpt lat="47.54453" lon="6.7415">
        <ele>465.6</ele>
        <time>2017-02-05T09:58:12.000Z</time>
      </trkpt>
      <trkpt lat="47.54451" lon="6.74152">
        <ele>466.2</ele>
        <time>2017-02-05T09:58:14.000Z</time>
      </trkpt>
      <trkpt lat="47.5445" lon="6.74155">
        <ele>466.5</ele>
        <time>2017-02-05T09:58:15.000Z</time>
      </trkpt>
      <trkpt lat="47.54448" lon="6.74156">
        <ele>466.7</ele>
        <time>2017-02-05T09:58:16.000Z</time>
      </trkpt>
      <trkpt lat="47.54445" lon="6.74159">
        <ele>466.9</ele>
        <time>2017-02-05T09:58:17.000Z</time>
      </trkpt>
      <trkpt lat="47.54442" lon="6.74165">
        <ele>467</ele>
        <time>2017-02-05T09:58:18.000Z</time>
      </trkpt>
      <trkpt lat="47.54439" lon="6.74169">
        <ele>467.2</ele>
        <time>2017-02-05T09:58:19.000Z</time>
      </trkpt>
      <trkpt lat="47.54438" lon="6.74173">
        <ele>467.4</ele>
        <time>2017-02-05T09:58:20.000Z</time>
      </trkpt>
      <trkpt lat="47.54436" lon="6.74178">
        <ele>467.7</ele>
        <time>2017-02-05T09:58:22.000Z</time>
      </trkpt>
      <trkpt lat="47.54435" lon="6.74179">
        <ele>468</ele>
        <time>2017-02-05T09:58:23.000Z</time>
      </trkpt>
      <trkpt lat="47.54434" lon="6.74184">
        <ele>468.9</ele>
        <time>2017-02-05T09:58:27.000Z</time>
      </trkpt>
      <trkpt lat="47.54433" lon="6.74186">
        <ele>469.2</ele>
        <time>2017-02-05T09:58:28.000Z</time>
      </trkpt>
      <trkpt lat="47.54431" lon="6.74188">
        <ele>469.4</ele>
        <time>2017-02-05T09:58:29.000Z</time>
      </trkpt>
      <trkpt lat="47.54429" lon="6.7419">
        <ele>469.6</ele>
        <time>2017-02-05T09:58:30.000Z</time>
      </trkpt>
      <trkpt lat="47.54428" lon="6.74192">
        <ele>469.8</ele>
        <time>2017-02-05T09:58:31.000Z</time>
      </trkpt>
      <trkpt lat="47.54426" lon="6.74196">
        <ele>469.9</ele>
        <time>2017-02-05T09:58:32.000Z</time>
      </trkpt>
      <trkpt lat="47.54423" lon="6.74199">
        <ele>470.3</ele>
        <time>2017-02-05T09:58:34.000Z</time>
      </trkpt>
      <trkpt lat="47.54423" lon="6.74201">
        <ele>470.5</ele>
        <time>2017-02-05T09:58:35.000Z</time>
      </trkpt>
      <trkpt lat="47.5442" lon="6.74205">
        <ele>470.8</ele>
        <time>2017-02-05T09:58:37.000Z</time>
      </trkpt>
      <trkpt lat="47.54418" lon="6.74207">
        <ele>471</ele>
        <time>2017-02-05T09:58:38.000Z</time>
      </trkpt>
      <trkpt lat="47.54416" lon="6.74212">
        <ele>471.3</ele>
        <time>2017-02-05T09:58:40.000Z</time>
      </trkpt>
      <trkpt lat="47.54415" lon="6.74213">
        <ele>471.3</ele>
        <time>2017-02-05T09:58:41.000Z</time>
      </trkpt>
      <trkpt lat="47.54414" lon="6.74215">
        <ele>471.4</ele>
        <time>2017-02-05T09:58:42.000Z</time>
      </trkpt>
      <trkpt lat="47.54413" lon="6.7422">
        <ele>471.4</ele>
        <time>2017-02-05T09:58:43.000Z</time>
      </trkpt>
      <trkpt lat="47.5441" lon="6.74224">
        <ele>471.2</ele>
        <time>2017-02-05T09:58:45.000Z</time>
      </trkpt>
      <trkpt lat="47.5441" lon="6.74226">
        <ele>471</ele>
        <time>2017-02-05T09:58:46.000Z</time>
      </trkpt>
      <trkpt lat="47.54408" lon="6.74232">
        <ele>470.7</ele>
        <time>2017-02-05T09:58:48.000Z</time>
      </trkpt>
      <trkpt lat="47.54407" lon="6.74234">
        <ele>470.6</ele>
        <time>2017-02-05T09:58:49.000Z</time>
      </trkpt>
      <trkpt lat="47.54404" lon="6.74238">
        <ele>470.8</ele>
        <time>2017-02-05T09:58:51.000Z</time>
      </trkpt>
      <trkpt lat="47.54403" lon="6.7424">
        <ele>471</ele>
        <time>2017-02-05T09:58:52.000Z</time>
      </trkpt>
      <trkpt lat="47.54402" lon="6.74243">
        <ele>471</ele>
        <time>2017-02-05T09:58:53.000Z</time>
      </trkpt>
      <trkpt lat="47.54399" lon="6.74246">
        <ele>471.2</ele>
        <time>2017-02-05T09:58:54.000Z</time>
      </trkpt>
      <trkpt lat="47.54396" lon="6.7425">
        <ele>471.4</ele>
        <time>2017-02-05T09:58:56.000Z</time>
      </trkpt>
      <trkpt lat="47.54394" lon="6.74252">
        <ele>471.5</ele>
        <time>2017-02-05T09:58:57.000Z</time>
      </trkpt>
      <trkpt lat="47.54392" lon="6.74257">
        <ele>471</ele>
        <time>2017-02-05T09:59:00.000Z</time>
      </trkpt>
      <trkpt lat="47.54392" lon="6.74258">
        <ele>471</ele>
        <time>2017-02-05T09:59:01.000Z</time>
      </trkpt>
      <trkpt lat="47.5439" lon="6.74264">
        <ele>471.6</ele>
        <time>2017-02-05T09:59:04.000Z</time>
      </trkpt>
      <trkpt lat="47.54389" lon="6.74266">
        <ele>471.7</ele>
        <time>2017-02-05T09:59:05.000Z</time>
      </trkpt>
      <trkpt lat="47.54388" lon="6.7427">
        <ele>472</ele>
        <time>2017-02-05T09:59:06.000Z</time>
      </trkpt>
      <trkpt lat="47.54386" lon="6.74272">
        <ele>472.2</ele>
        <time>2017-02-05T09:59:07.000Z</time>
      </trkpt>
      <trkpt lat="47.54384" lon="6.74277">
        <ele>473</ele>
        <time>2017-02-05T09:59:10.000Z</time>
      </trkpt>
      <trkpt lat="47.54382" lon="6.74278">
        <ele>473.1</ele>
        <time>2017-02-05T09:59:11.000Z</time>
      </trkpt>
      <trkpt lat="47.5438" lon="6.74281">
        <ele>473.3</ele>
        <time>2017-02-05T09:59:12.000Z</time>
      </trkpt>
      <trkpt lat="47.54379" lon="6.74283">
        <ele>473.5</ele>
        <time>2017-02-05T09:59:13.000Z</time>
      </trkpt>
      <trkpt lat="47.54378" lon="6.74287">
        <ele>473.8</ele>
        <time>2017-02-05T09:59:16.000Z</time>
      </trkpt>
      <trkpt lat="47.54376" lon="6.74289">
        <ele>473.9</ele>
        <time>2017-02-05T09:59:17.000Z</time>
      </trkpt>
      <trkpt lat="47.54374" lon="6.74295">
        <ele>474.2</ele>
        <time>2017-02-05T09:59:19.000Z</time>
      </trkpt>
      <trkpt lat="47.54372" lon="6.74298">
        <ele>474.4</ele>
        <time>2017-02-05T09:59:20.000Z</time>
      </trkpt>
      <trkpt lat="47.54371" lon="6.74303">
        <ele>474.7</ele>
        <time>2017-02-05T09:59:22.000Z</time>
      </trkpt>
      <trkpt lat="47.54369" lon="6.74306">
        <ele>475.1</ele>
        <time>2017-02-05T09:59:23.000Z</time>
      </trkpt>
      <trkpt lat="47.54367" lon="6.74309">
        <ele>475.8</ele>
        <time>2017-02-05T09:59:25.000Z</time>
      </trkpt>
      <trkpt lat="47.54366" lon="6.74311">
        <ele>476.2</ele>
        <time>2017-02-05T09:59:26.000Z</time>
      </trkpt>
      <trkpt lat="47.54364" lon="6.74314">
        <ele>476.6</ele>
        <time>2017-02-05T09:59:27.000Z</time>
      </trkpt>
      <trkpt lat="47.54363" lon="6.74318">
        <ele>477</ele>
        <time>2017-02-05T09:59:28.000Z</time>
      </trkpt>
      <trkpt lat="47.54361" lon="6.74321">
        <ele>477.5</ele>
        <time>2017-02-05T09:59:29.000Z</time>
      </trkpt>
      <trkpt lat="47.54359" lon="6.74324">
        <ele>477.9</ele>
        <time>2017-02-05T09:59:30.000Z</time>
      </trkpt>
      <trkpt lat="47.54356" lon="6.7433">
        <ele>478.5</ele>
        <time>2017-02-05T09:59:31.000Z</time>
      </trkpt>
      <trkpt lat="47.54355" lon="6.74334">
        <ele>479</ele>
        <time>2017-02-05T09:59:32.000Z</time>
      </trkpt>
      <trkpt lat="47.54353" lon="6.74337">
        <ele>479.3</ele>
        <time>2017-02-05T09:59:33.000Z</time>
      </trkpt>
      <trkpt lat="47.54351" lon="6.74341">
        <ele>479.9</ele>
        <time>2017-02-05T09:59:35.000Z</time>
      </trkpt>
      <trkpt lat="47.5435" lon="6.74344">
        <ele>480.1</ele>
        <time>2017-02-05T09:59:36.000Z</time>
      </trkpt>
      <trkpt lat="47.54349" lon="6.74346">
        <ele>480.2</ele>
        <time>2017-02-05T09:59:37.000Z</time>
      </trkpt>
      <trkpt lat="47.54348" lon="6.7435">
        <ele>480.4</ele>
        <time>2017-02-05T09:59:38.000Z</time>
      </trkpt>
      <trkpt lat="47.54347" lon="6.74356">
        <ele>480.8</ele>
        <time>2017-02-05T09:59:40.000Z</time>
      </trkpt>
      <trkpt lat="47.54346" lon="6.74357">
        <ele>480.9</ele>
        <time>2017-02-05T09:59:41.000Z</time>
      </trkpt>
      <trkpt lat="47.54345" lon="6.74362">
        <ele>481.1</ele>
        <time>2017-02-05T09:59:44.000Z</time>
      </trkpt>
      <trkpt lat="47.54345" lon="6.74364">
        <ele>481.2</ele>
        <time>2017-02-05T09:59:45.000Z</time>
      </trkpt>
      <trkpt lat="47.54344" lon="6.74366">
        <ele>481.3</ele>
        <time>2017-02-05T09:59:46.000Z</time>
      </trkpt>
      <trkpt lat="47.54343" lon="6.7437">
        <ele>481.3</ele>
        <time>2017-02-05T09:59:47.000Z</time>
      </trkpt>
      <trkpt lat="47.54342" lon="6.74376">
        <ele>481.2</ele>
        <time>2017-02-05T09:59:49.000Z</time>
      </trkpt>
      <trkpt lat="47.54341" lon="6.74378">
        <ele>481.2</ele>
        <time>2017-02-05T09:59:50.000Z</time>
      </trkpt>
      <trkpt lat="47.5434" lon="6.74383">
        <ele>481.4</ele>
        <time>2017-02-05T09:59:52.000Z</time>
      </trkpt>
      <trkpt lat="47.5434" lon="6.74385">
        <ele>481.4</ele>
        <time>2017-02-05T09:59:53.000Z</time>
      </trkpt>
      <trkpt lat="47.54338" lon="6.74391">
        <ele>481.5</ele>
        <time>2017-02-05T09:59:57.000Z</time>
      </trkpt>
      <trkpt lat="47.54338" lon="6.74392">
        <ele>481.4</ele>
        <time>2017-02-05T09:59:58.000Z</time>
      </trkpt>
      <trkpt lat="47.54336" lon="6.74398">
        <ele>481.2</ele>
        <time>2017-02-05T10:00:00.000Z</time>
      </trkpt>
      <trkpt lat="47.54335" lon="6.744">
        <ele>481.2</ele>
        <time>2017-02-05T10:00:01.000Z</time>
      </trkpt>
      <trkpt lat="47.54333" lon="6.74404">
        <ele>481.3</ele>
        <time>2017-02-05T10:00:02.000Z</time>
      </trkpt>
      <trkpt lat="47.54331" lon="6.74407">
        <ele>481.2</ele>
        <time>2017-02-05T10:00:03.000Z</time>
      </trkpt>
      <trkpt lat="47.54329" lon="6.74411">
        <ele>481.3</ele>
        <time>2017-02-05T10:00:05.000Z</time>
      </trkpt>
      <trkpt lat="47.54328" lon="6.74412">
        <ele>481.4</ele>
        <time>2017-02-05T10:00:06.000Z</time>
      </trkpt>
      <trkpt lat="47.54325" lon="6.74412">
        <ele>481.6</ele>
        <time>2017-02-05T10:00:08.000Z</time>
      </trkpt>
      <trkpt lat="47.54323" lon="6.74413">
        <ele>481.6</ele>
        <time>2017-02-05T10:00:09.000Z</time>
      </trkpt>
      <trkpt lat="47.5432" lon="6.74414">
        <ele>481.6</ele>
        <time>2017-02-05T10:00:11.000Z</time>
      </trkpt>
      <trkpt lat="47.54318" lon="6.74414">
        <ele>481.5</ele>
        <time>2017-02-05T10:00:12.000Z</time>
      </trkpt>
      <trkpt lat="47.54314" lon="6.74415">
        <ele>480.6</ele>
        <time>2017-02-05T10:00:16.000Z</time>
      </trkpt>
      <trkpt lat="47.54313" lon="6.74415">
        <ele>480.4</ele>
        <time>2017-02-05T10:00:17.000Z</time>
      </trkpt>
      <trkpt lat="47.5431" lon="6.74418">
        <ele>479.7</ele>
        <time>2017-02-05T10:00:23.000Z</time>
      </trkpt>
      <trkpt lat="47.54309" lon="6.7442">
        <ele>479.8</ele>
        <time>2017-02-05T10:00:24.000Z</time>
      </trkpt>
      <trkpt lat="47.54308" lon="6.7442">
        <ele>480.2</ele>
        <time>2017-02-05T10:00:27.000Z</time>
      </trkpt>
      <trkpt lat="47.54305" lon="6.74424">
        <ele>480.5</ele>
        <time>2017-02-05T10:00:28.000Z</time>
      </trkpt>
      <trkpt lat="47.54304" lon="6.74427">
        <ele>485.7</ele>
        <time>2017-02-05T10:00:47.000Z</time>
      </trkpt>
      <trkpt lat="47.54303" lon="6.7443">
        <ele>486.5</ele>
        <time>2017-02-05T10:00:48.000Z</time>
      </trkpt>
      <trkpt lat="47.543" lon="6.74434">
        <ele>488.1</ele>
        <time>2017-02-05T10:00:50.000Z</time>
      </trkpt>
      <trkpt lat="47.54296" lon="6.7444">
        <ele>488.8</ele>
        <time>2017-02-05T10:00:51.000Z</time>
      </trkpt>
      <trkpt lat="47.54292" lon="6.74446">
        <ele>489.4</ele>
        <time>2017-02-05T10:00:52.000Z</time>
      </trkpt>
      <trkpt lat="47.5429" lon="6.74451">
        <ele>490</ele>
        <time>2017-02-05T10:00:53.000Z</time>
      </trkpt>
      <trkpt lat="47.54284" lon="6.74466">
        <ele>490.4</ele>
        <time>2017-02-05T10:00:54.000Z</time>
      </trkpt>
      <trkpt lat="47.54281" lon="6.74474">
        <ele>490.8</ele>
        <time>2017-02-05T10:00:55.000Z</time>
      </trkpt>
      <trkpt lat="47.54279" lon="6.74479">
        <ele>491.7</ele>
        <time>2017-02-05T10:00:57.000Z</time>
      </trkpt>
      <trkpt lat="47.54278" lon="6.74482">
        <ele>492</ele>
        <time>2017-02-05T10:00:58.000Z</time>
      </trkpt>
      <trkpt lat="47.54275" lon="6.74486">
        <ele>492.6</ele>
        <time>2017-02-05T10:01:00.000Z</time>
      </trkpt>
      <trkpt lat="47.54273" lon="6.74489">
        <ele>492.9</ele>
        <time>2017-02-05T10:01:01.000Z</time>
      </trkpt>
      <trkpt lat="47.54271" lon="6.74494">
        <ele>493.3</ele>
        <time>2017-02-05T10:01:03.000Z</time>
      </trkpt>
      <trkpt lat="47.5427" lon="6.74496">
        <ele>493.4</ele>
        <time>2017-02-05T10:01:04.000Z</time>
      </trkpt>
      <trkpt lat="47.54268" lon="6.74501">
        <ele>493.7</ele>
        <time>2017-02-05T10:01:07.000Z</time>
      </trkpt>
      <trkpt lat="47.54267" lon="6.74503">
        <ele>493.7</ele>
        <time>2017-02-05T10:01:08.000Z</time>
      </trkpt>
      <trkpt lat="47.54266" lon="6.74508">
        <ele>493.8</ele>
        <time>2017-02-05T10:01:10.000Z</time>
      </trkpt>
      <trkpt lat="47.54265" lon="6.7451">
        <ele>493.9</ele>
        <time>2017-02-05T10:01:11.000Z</time>
      </trkpt>
      <trkpt lat="47.54263" lon="6.74516">
        <ele>493.8</ele>
        <time>2017-02-05T10:01:13.000Z</time>
      </trkpt>
      <trkpt lat="47.54262" lon="6.74519">
        <ele>493.8</ele>
        <time>2017-02-05T10:01:14.000Z</time>
      </trkpt>
      <trkpt lat="47.54259" lon="6.74524">
        <ele>493.4</ele>
        <time>2017-02-05T10:01:16.000Z</time>
      </trkpt>
      <trkpt lat="47.54258" lon="6.74527">
        <ele>493.2</ele>
        <time>2017-02-05T10:01:17.000Z</time>
      </trkpt>
      <trkpt lat="47.54256" lon="6.74531">
        <ele>493</ele>
        <time>2017-02-05T10:01:18.000Z</time>
      </trkpt>
      <trkpt lat="47.54255" lon="6.74534">
        <ele>492.8</ele>
        <time>2017-02-05T10:01:19.000Z</time>
      </trkpt>
      <trkpt lat="47.54252" lon="6.74537">
        <ele>492.6</ele>
        <time>2017-02-05T10:01:20.000Z</time>
      </trkpt>
      <trkpt lat="47.54249" lon="6.74543">
        <ele>492.4</ele>
        <time>2017-02-05T10:01:21.000Z</time>
      </trkpt>
      <trkpt lat="47.54247" lon="6.74547">
        <ele>492.1</ele>
        <time>2017-02-05T10:01:22.000Z</time>
      </trkpt>
      <trkpt lat="47.54244" lon="6.74552">
        <ele>491.8</ele>
        <time>2017-02-05T10:01:23.000Z</time>
      </trkpt>
      <trkpt lat="47.54242" lon="6.74556">
        <ele>491.6</ele>
        <time>2017-02-05T10:01:24.000Z</time>
      </trkpt>
      <trkpt lat="47.54241" lon="6.74557">
        <ele>491.5</ele>
        <time>2017-02-05T10:01:25.000Z</time>
      </trkpt>
      <trkpt lat="47.54238" lon="6.7456">
        <ele>491.4</ele>
        <time>2017-02-05T10:01:26.000Z</time>
      </trkpt>
      <trkpt lat="47.54234" lon="6.74563">
        <ele>491.4</ele>
        <time>2017-02-05T10:01:27.000Z</time>
      </trkpt>
      <trkpt lat="47.5423" lon="6.74567">
        <ele>491.3</ele>
        <time>2017-02-05T10:01:28.000Z</time>
      </trkpt>
      <trkpt lat="47.54226" lon="6.74572">
        <ele>491.3</ele>
        <time>2017-02-05T10:01:29.000Z</time>
      </trkpt>
      <trkpt lat="47.54218" lon="6.74579">
        <ele>491.3</ele>
        <time>2017-02-05T10:01:30.000Z</time>
      </trkpt>
      <trkpt lat="47.54213" lon="6.74583">
        <ele>491.3</ele>
        <time>2017-02-05T10:01:31.000Z</time>
      </trkpt>
      <trkpt lat="47.54209" lon="6.74586">
        <ele>491.3</ele>
        <time>2017-02-05T10:01:32.000Z</time>
      </trkpt>
      <trkpt lat="47.54205" lon="6.7459">
        <ele>491.3</ele>
        <time>2017-02-05T10:01:33.000Z</time>
      </trkpt>
      <trkpt lat="47.542" lon="6.74595">
        <ele>491.5</ele>
        <time>2017-02-05T10:01:34.000Z</time>
      </trkpt>
      <trkpt lat="47.54197" lon="6.74598">
        <ele>491.6</ele>
        <time>2017-02-05T10:01:35.000Z</time>
      </trkpt>
      <trkpt lat="47.54194" lon="6.74602">
        <ele>491.8</ele>
        <time>2017-02-05T10:01:36.000Z</time>
      </trkpt>
      <trkpt lat="47.54191" lon="6.74604">
        <ele>492</ele>
        <time>2017-02-05T10:01:37.000Z</time>
      </trkpt>
      <trkpt lat="47.54187" lon="6.74605">
        <ele>492.2</ele>
        <time>2017-02-05T10:01:38.000Z</time>
      </trkpt>
      <trkpt lat="47.54182" lon="6.74608">
        <ele>492.5</ele>
        <time>2017-02-05T10:01:39.000Z</time>
      </trkpt>
      <trkpt lat="47.54177" lon="6.74614">
        <ele>492.8</ele>
        <time>2017-02-05T10:01:40.000Z</time>
      </trkpt>
      <trkpt lat="47.54173" lon="6.74618">
        <ele>493.2</ele>
        <time>2017-02-05T10:01:41.000Z</time>
      </trkpt>
      <trkpt lat="47.54169" lon="6.74621">
        <ele>493.5</ele>
        <time>2017-02-05T10:01:42.000Z</time>
      </trkpt>
      <trkpt lat="47.54165" lon="6.74623">
        <ele>493.8</ele>
        <time>2017-02-05T10:01:43.000Z</time>
      </trkpt>
      <trkpt lat="47.54163" lon="6.74625">
        <ele>493.9</ele>
        <time>2017-02-05T10:01:44.000Z</time>
      </trkpt>
      <trkpt lat="47.54161" lon="6.74628">
        <ele>494.1</ele>
        <time>2017-02-05T10:01:45.000Z</time>
      </trkpt>
      <trkpt lat="47.54159" lon="6.7463">
        <ele>494.3</ele>
        <time>2017-02-05T10:01:46.000Z</time>
      </trkpt>
      <trkpt lat="47.54157" lon="6.74633">
        <ele>494.6</ele>
        <time>2017-02-05T10:01:47.000Z</time>
      </trkpt>
      <trkpt lat="47.54155" lon="6.74638">
        <ele>494.9</ele>
        <time>2017-02-05T10:01:49.000Z</time>
      </trkpt>
      <trkpt lat="47.54152" lon="6.74641">
        <ele>495.1</ele>
        <time>2017-02-05T10:01:50.000Z</time>
      </trkpt>
      <trkpt lat="47.5415" lon="6.74643">
        <ele>495</ele>
        <time>2017-02-05T10:01:51.000Z</time>
      </trkpt>
      <trkpt lat="47.54149" lon="6.74646">
        <ele>495</ele>
        <time>2017-02-05T10:01:52.000Z</time>
      </trkpt>
      <trkpt lat="47.54146" lon="6.7465">
        <ele>494.9</ele>
        <time>2017-02-05T10:01:54.000Z</time>
      </trkpt>
      <trkpt lat="47.54144" lon="6.74652">
        <ele>494.8</ele>
        <time>2017-02-05T10:01:55.000Z</time>
      </trkpt>
      <trkpt lat="47.54142" lon="6.74654">
        <ele>494.8</ele>
        <time>2017-02-05T10:01:56.000Z</time>
      </trkpt>
      <trkpt lat="47.54139" lon="6.74658">
        <ele>494.7</ele>
        <time>2017-02-05T10:01:57.000Z</time>
      </trkpt>
      <trkpt lat="47.54136" lon="6.74662">
        <ele>494.7</ele>
        <time>2017-02-05T10:01:58.000Z</time>
      </trkpt>
      <trkpt lat="47.54133" lon="6.74664">
        <ele>494.6</ele>
        <time>2017-02-05T10:01:59.000Z</time>
      </trkpt>
      <trkpt lat="47.54131" lon="6.74666">
        <ele>494.1</ele>
        <time>2017-02-05T10:02:01.000Z</time>
      </trkpt>
      <trkpt lat="47.54126" lon="6.74669">
        <ele>493.9</ele>
        <time>2017-02-05T10:02:02.000Z</time>
      </trkpt>
      <trkpt lat="47.54122" lon="6.74672">
        <ele>493.7</ele>
        <time>2017-02-05T10:02:03.000Z</time>
      </trkpt>
      <trkpt lat="47.54119" lon="6.74675">
        <ele>493.6</ele>
        <time>2017-02-05T10:02:04.000Z</time>
      </trkpt>
      <trkpt lat="47.54115" lon="6.7468">
        <ele>493.5</ele>
        <time>2017-02-05T10:02:05.000Z</time>
      </trkpt>
      <trkpt lat="47.54111" lon="6.74683">
        <ele>493.4</ele>
        <time>2017-02-05T10:02:06.000Z</time>
      </trkpt>
      <trkpt lat="47.54107" lon="6.74688">
        <ele>493.3</ele>
        <time>2017-02-05T10:02:07.000Z</time>
      </trkpt>
      <trkpt lat="47.54103" lon="6.74691">
        <ele>493.4</ele>
        <time>2017-02-05T10:02:10.000Z</time>
      </trkpt>
      <trkpt lat="47.54101" lon="6.74694">
        <ele>493.4</ele>
        <time>2017-02-05T10:02:11.000Z</time>
      </trkpt>
      <trkpt lat="47.54097" lon="6.74698">
        <ele>493.6</ele>
        <time>2017-02-05T10:02:12.000Z</time>
      </trkpt>
      <trkpt lat="47.54093" lon="6.747">
        <ele>493.8</ele>
        <time>2017-02-05T10:02:13.000Z</time>
      </trkpt>
      <trkpt lat="47.54091" lon="6.74703">
        <ele>494</ele>
        <time>2017-02-05T10:02:14.000Z</time>
      </trkpt>
      <trkpt lat="47.54088" lon="6.74705">
        <ele>494.2</ele>
        <time>2017-02-05T10:02:15.000Z</time>
      </trkpt>
      <trkpt lat="47.54084" lon="6.74708">
        <ele>494.4</ele>
        <time>2017-02-05T10:02:16.000Z</time>
      </trkpt>
      <trkpt lat="47.54081" lon="6.74711">
        <ele>494.5</ele>
        <time>2017-02-05T10:02:17.000Z</time>
      </trkpt>
      <trkpt lat="47.54077" lon="6.74713">
        <ele>494.6</ele>
        <time>2017-02-05T10:02:18.000Z</time>
      </trkpt>
      <trkpt lat="47.54073" lon="6.74715">
        <ele>494.7</ele>
        <time>2017-02-05T10:02:19.000Z</time>
      </trkpt>
      <trkpt lat="47.54066" lon="6.74719">
        <ele>494.8</ele>
        <time>2017-02-05T10:02:20.000Z</time>
      </trkpt>
      <trkpt lat="47.54061" lon="6.74722">
        <ele>494.8</ele>
        <time>2017-02-05T10:02:21.000Z</time>
      </trkpt>
      <trkpt lat="47.54058" lon="6.74724">
        <ele>494.8</ele>
        <time>2017-02-05T10:02:22.000Z</time>
      </trkpt>
      <trkpt lat="47.54056" lon="6.74726">
        <ele>494.7</ele>
        <time>2017-02-05T10:02:23.000Z</time>
      </trkpt>
      <trkpt lat="47.54053" lon="6.74727">
        <ele>494.6</ele>
        <time>2017-02-05T10:02:24.000Z</time>
      </trkpt>
      <trkpt lat="47.54049" lon="6.74728">
        <ele>494.4</ele>
        <time>2017-02-05T10:02:25.000Z</time>
      </trkpt>
      <trkpt lat="47.54046" lon="6.74729">
        <ele>494.2</ele>
        <time>2017-02-05T10:02:26.000Z</time>
      </trkpt>
      <trkpt lat="47.54042" lon="6.7473">
        <ele>493.9</ele>
        <time>2017-02-05T10:02:27.000Z</time>
      </trkpt>
      <trkpt lat="47.54037" lon="6.74732">
        <ele>493.6</ele>
        <time>2017-02-05T10:02:28.000Z</time>
      </trkpt>
      <trkpt lat="47.54034" lon="6.74735">
        <ele>493.4</ele>
        <time>2017-02-05T10:02:29.000Z</time>
      </trkpt>
      <trkpt lat="47.5403" lon="6.74737">
        <ele>493.1</ele>
        <time>2017-02-05T10:02:30.000Z</time>
      </trkpt>
      <trkpt lat="47.54024" lon="6.7474">
        <ele>492.8</ele>
        <time>2017-02-05T10:02:31.000Z</time>
      </trkpt>
      <trkpt lat="47.54018" lon="6.74742">
        <ele>492.5</ele>
        <time>2017-02-05T10:02:32.000Z</time>
      </trkpt>
      <trkpt lat="47.54013" lon="6.74744">
        <ele>492.1</ele>
        <time>2017-02-05T10:02:33.000Z</time>
      </trkpt>
      <trkpt lat="47.54007" lon="6.74744">
        <ele>491.7</ele>
        <time>2017-02-05T10:02:34.000Z</time>
      </trkpt>
      <trkpt lat="47.54001" lon="6.74744">
        <ele>491.4</ele>
        <time>2017-02-05T10:02:35.000Z</time>
      </trkpt>
      <trkpt lat="47.53996" lon="6.74747">
        <ele>490.9</ele>
        <time>2017-02-05T10:02:36.000Z</time>
      </trkpt>
      <trkpt lat="47.53991" lon="6.74749">
        <ele>490.6</ele>
        <time>2017-02-05T10:02:37.000Z</time>
      </trkpt>
      <trkpt lat="47.53987" lon="6.7475">
        <ele>490.2</ele>
        <time>2017-02-05T10:02:38.000Z</time>
      </trkpt>
      <trkpt lat="47.53981" lon="6.74752">
        <ele>489.9</ele>
        <time>2017-02-05T10:02:39.000Z</time>
      </trkpt>
      <trkpt lat="47.53976" lon="6.74754">
        <ele>489.6</ele>
        <time>2017-02-05T10:02:40.000Z</time>
      </trkpt>
      <trkpt lat="47.53971" lon="6.74755">
        <ele>489.2</ele>
        <time>2017-02-05T10:02:41.000Z</time>
      </trkpt>
      <trkpt lat="47.53966" lon="6.74756">
        <ele>488.8</ele>
        <time>2017-02-05T10:02:42.000Z</time>
      </trkpt>
      <trkpt lat="47.5396" lon="6.74759">
        <ele>488.4</ele>
        <time>2017-02-05T10:02:43.000Z</time>
      </trkpt>
      <trkpt lat="47.53955" lon="6.74764">
        <ele>484</ele>
        <time>2017-02-05T10:02:44.000Z</time>
      </trkpt>
      <trkpt lat="47.53951" lon="6.74767">
        <ele>483.7</ele>
        <time>2017-02-05T10:02:45.000Z</time>
      </trkpt>
      <trkpt lat="47.53945" lon="6.7477">
        <ele>483.4</ele>
        <time>2017-02-05T10:02:46.000Z</time>
      </trkpt>
      <trkpt lat="47.5394" lon="6.74774">
        <ele>483.2</ele>
        <time>2017-02-05T10:02:47.000Z</time>
      </trkpt>
      <trkpt lat="47.53934" lon="6.74779">
        <ele>483</ele>
        <time>2017-02-05T10:02:48.000Z</time>
      </trkpt>
      <trkpt lat="47.53929" lon="6.74784">
        <ele>482.8</ele>
        <time>2017-02-05T10:02:49.000Z</time>
      </trkpt>
      <trkpt lat="47.53923" lon="6.74789">
        <ele>481.5</ele>
        <time>2017-02-05T10:02:50.000Z</time>
      </trkpt>
      <trkpt lat="47.53919" lon="6.74794">
        <ele>481.3</ele>
        <time>2017-02-05T10:02:51.000Z</time>
      </trkpt>
      <trkpt lat="47.53915" lon="6.74799">
        <ele>481.2</ele>
        <time>2017-02-05T10:02:52.000Z</time>
      </trkpt>
      <trkpt lat="47.53912" lon="6.74804">
        <ele>481.1</ele>
        <time>2017-02-05T10:02:53.000Z</time>
      </trkpt>
      <trkpt lat="47.53908" lon="6.74812">
        <ele>481.1</ele>
        <time>2017-02-05T10:02:54.000Z</time>
      </trkpt>
      <trkpt lat="47.53904" lon="6.74819">
        <ele>481.1</ele>
        <time>2017-02-05T10:02:55.000Z</time>
      </trkpt>
      <trkpt lat="47.53901" lon="6.74824">
        <ele>481</ele>
        <time>2017-02-05T10:02:56.000Z</time>
      </trkpt>
      <trkpt lat="47.53896" lon="6.74829">
        <ele>481</ele>
        <time>2017-02-05T10:02:57.000Z</time>
      </trkpt>
      <trkpt lat="47.53889" lon="6.74834">
        <ele>480.9</ele>
        <time>2017-02-05T10:02:58.000Z</time>
      </trkpt>
      <trkpt lat="47.53875" lon="6.74843">
        <ele>480.8</ele>
        <time>2017-02-05T10:02:59.000Z</time>
      </trkpt>
      <trkpt lat="47.53869" lon="6.74846">
        <ele>480.7</ele>
        <time>2017-02-05T10:03:00.000Z</time>
      </trkpt>
      <trkpt lat="47.53867" lon="6.74846">
        <ele>480.6</ele>
        <time>2017-02-05T10:03:01.000Z</time>
      </trkpt>
      <trkpt lat="47.53864" lon="6.74844">
        <ele>480.4</ele>
        <time>2017-02-05T10:03:02.000Z</time>
      </trkpt>
      <trkpt lat="47.53858" lon="6.74846">
        <ele>480.1</ele>
        <time>2017-02-05T10:03:03.000Z</time>
      </trkpt>
      <trkpt lat="47.53851" lon="6.74847">
        <ele>479.9</ele>
        <time>2017-02-05T10:03:04.000Z</time>
      </trkpt>
      <trkpt lat="47.53847" lon="6.74848">
        <ele>479.5</ele>
        <time>2017-02-05T10:03:05.000Z</time>
      </trkpt>
      <trkpt lat="47.53842" lon="6.74848">
        <ele>479.1</ele>
        <time>2017-02-05T10:03:06.000Z</time>
      </trkpt>
      <trkpt lat="47.53839" lon="6.74846">
        <ele>478.6</ele>
        <time>2017-02-05T10:03:07.000Z</time>
      </trkpt>
      <trkpt lat="47.53835" lon="6.74844">
        <ele>478.2</ele>
        <time>2017-02-05T10:03:08.000Z</time>
      </trkpt>
      <trkpt lat="47.53832" lon="6.74842">
        <ele>477.2</ele>
        <time>2017-02-05T10:03:11.000Z</time>
      </trkpt>
      <trkpt lat="47.53828" lon="6.74842">
        <ele>477</ele>
        <time>2017-02-05T10:03:12.000Z</time>
      </trkpt>
      <trkpt lat="47.53825" lon="6.74844">
        <ele>476.8</ele>
        <time>2017-02-05T10:03:13.000Z</time>
      </trkpt>
      <trkpt lat="47.5382" lon="6.74847">
        <ele>476.8</ele>
        <time>2017-02-05T10:03:14.000Z</time>
      </trkpt>
      <trkpt lat="47.53817" lon="6.74849">
        <ele>476.7</ele>
        <time>2017-02-05T10:03:15.000Z</time>
      </trkpt>
      <trkpt lat="47.53813" lon="6.74852">
        <ele>476.7</ele>
        <time>2017-02-05T10:03:16.000Z</time>
      </trkpt>
      <trkpt lat="47.53799" lon="6.74862">
        <ele>476.8</ele>
        <time>2017-02-05T10:03:17.000Z</time>
      </trkpt>
      <trkpt lat="47.53792" lon="6.7487">
        <ele>476.8</ele>
        <time>2017-02-05T10:03:18.000Z</time>
      </trkpt>
      <trkpt lat="47.53787" lon="6.74878">
        <ele>476.9</ele>
        <time>2017-02-05T10:03:19.000Z</time>
      </trkpt>
      <trkpt lat="47.53782" lon="6.7489">
        <ele>476.9</ele>
        <time>2017-02-05T10:03:20.000Z</time>
      </trkpt>
      <trkpt lat="47.53778" lon="6.74896">
        <ele>477</ele>
        <time>2017-02-05T10:03:21.000Z</time>
      </trkpt>
      <trkpt lat="47.53775" lon="6.74902">
        <ele>477</ele>
        <time>2017-02-05T10:03:22.000Z</time>
      </trkpt>
      <trkpt lat="47.53773" lon="6.74909">
        <ele>477</ele>
        <time>2017-02-05T10:03:23.000Z</time>
      </trkpt>
      <trkpt lat="47.5377" lon="6.74915">
        <ele>477.2</ele>
        <time>2017-02-05T10:03:24.000Z</time>
      </trkpt>
      <trkpt lat="47.53768" lon="6.7492">
        <ele>477.2</ele>
        <time>2017-02-05T10:03:25.000Z</time>
      </trkpt>
      <trkpt lat="47.53767" lon="6.74925">
        <ele>477.2</ele>
        <time>2017-02-05T10:03:26.000Z</time>
      </trkpt>
      <trkpt lat="47.53765" lon="6.74931">
        <ele>477.2</ele>
        <time>2017-02-05T10:03:27.000Z</time>
      </trkpt>
      <trkpt lat="47.53763" lon="6.74936">
        <ele>477.3</ele>
        <time>2017-02-05T10:03:28.000Z</time>
      </trkpt>
      <trkpt lat="47.53762" lon="6.74941">
        <ele>477.2</ele>
        <time>2017-02-05T10:03:29.000Z</time>
      </trkpt>
      <trkpt lat="47.53761" lon="6.74945">
        <ele>477.2</ele>
        <time>2017-02-05T10:03:30.000Z</time>
      </trkpt>
      <trkpt lat="47.53759" lon="6.7495">
        <ele>477.1</ele>
        <time>2017-02-05T10:03:31.000Z</time>
      </trkpt>
      <trkpt lat="47.53757" lon="6.74956">
        <ele>476.9</ele>
        <time>2017-02-05T10:03:32.000Z</time>
      </trkpt>
      <trkpt lat="47.53757" lon="6.74966">
        <ele>476.8</ele>
        <time>2017-02-05T10:03:34.000Z</time>
      </trkpt>
      <trkpt lat="47.53759" lon="6.74971">
        <ele>476.7</ele>
        <time>2017-02-05T10:03:35.000Z</time>
      </trkpt>
      <trkpt lat="47.53762" lon="6.74977">
        <ele>476.6</ele>
        <time>2017-02-05T10:03:36.000Z</time>
      </trkpt>
      <trkpt lat="47.53762" lon="6.74982">
        <ele>476.5</ele>
        <time>2017-02-05T10:03:37.000Z</time>
      </trkpt>
      <trkpt lat="47.53761" lon="6.74988">
        <ele>476.4</ele>
        <time>2017-02-05T10:03:38.000Z</time>
      </trkpt>
      <trkpt lat="47.53761" lon="6.74995">
        <ele>476.2</ele>
        <time>2017-02-05T10:03:40.000Z</time>
      </trkpt>
      <trkpt lat="47.53759" lon="6.75001">
        <ele>476.2</ele>
        <time>2017-02-05T10:03:41.000Z</time>
      </trkpt>
      <trkpt lat="47.53757" lon="6.75007">
        <ele>476.2</ele>
        <time>2017-02-05T10:03:42.000Z</time>
      </trkpt>
      <trkpt lat="47.53755" lon="6.75012">
        <ele>476.1</ele>
        <time>2017-02-05T10:03:43.000Z</time>
      </trkpt>
      <trkpt lat="47.53753" lon="6.75017">
        <ele>476.1</ele>
        <time>2017-02-05T10:03:44.000Z</time>
      </trkpt>
      <trkpt lat="47.53752" lon="6.7502">
        <ele>476.1</ele>
        <time>2017-02-05T10:03:45.000Z</time>
      </trkpt>
      <trkpt lat="47.53749" lon="6.75024">
        <ele>476.1</ele>
        <time>2017-02-05T10:03:46.000Z</time>
      </trkpt>
      <trkpt lat="47.53748" lon="6.75028">
        <ele>476.1</ele>
        <time>2017-02-05T10:03:47.000Z</time>
      </trkpt>
      <trkpt lat="47.53746" lon="6.75031">
        <ele>476</ele>
        <time>2017-02-05T10:03:48.000Z</time>
      </trkpt>
      <trkpt lat="47.53744" lon="6.75034">
        <ele>476</ele>
        <time>2017-02-05T10:03:49.000Z</time>
      </trkpt>
      <trkpt lat="47.53742" lon="6.75035">
        <ele>475.9</ele>
        <time>2017-02-05T10:03:50.000Z</time>
      </trkpt>
      <trkpt lat="47.5374" lon="6.75037">
        <ele>475.9</ele>
        <time>2017-02-05T10:03:51.000Z</time>
      </trkpt>
      <trkpt lat="47.53738" lon="6.75042">
        <ele>475.8</ele>
        <time>2017-02-05T10:03:53.000Z</time>
      </trkpt>
      <trkpt lat="47.53737" lon="6.75044">
        <ele>475.7</ele>
        <time>2017-02-05T10:03:54.000Z</time>
      </trkpt>
      <trkpt lat="47.53736" lon="6.75047">
        <ele>475.4</ele>
        <time>2017-02-05T10:03:56.000Z</time>
      </trkpt>
      <trkpt lat="47.53735" lon="6.7505">
        <ele>475.2</ele>
        <time>2017-02-05T10:03:57.000Z</time>
      </trkpt>
      <trkpt lat="47.53732" lon="6.75055">
        <ele>475</ele>
        <time>2017-02-05T10:04:00.000Z</time>
      </trkpt>
      <trkpt lat="47.53731" lon="6.75058">
        <ele>474.9</ele>
        <time>2017-02-05T10:04:01.000Z</time>
      </trkpt>
      <trkpt lat="47.5373" lon="6.75062">
        <ele>474.8</ele>
        <time>2017-02-05T10:04:03.000Z</time>
      </trkpt>
      <trkpt lat="47.53729" lon="6.75065">
        <ele>474.9</ele>
        <time>2017-02-05T10:04:04.000Z</time>
      </trkpt>
      <trkpt lat="47.53727" lon="6.7507">
        <ele>475</ele>
        <time>2017-02-05T10:04:06.000Z</time>
      </trkpt>
      <trkpt lat="47.53726" lon="6.75072">
        <ele>475.1</ele>
        <time>2017-02-05T10:04:07.000Z</time>
      </trkpt>
      <trkpt lat="47.53723" lon="6.75077">
        <ele>475.3</ele>
        <time>2017-02-05T10:04:09.000Z</time>
      </trkpt>
      <trkpt lat="47.53721" lon="6.7508">
        <ele>475.4</ele>
        <time>2017-02-05T10:04:10.000Z</time>
      </trkpt>
      <trkpt lat="47.53719" lon="6.75082">
        <ele>475.6</ele>
        <time>2017-02-05T10:04:12.000Z</time>
      </trkpt>
      <trkpt lat="47.53718" lon="6.75084">
        <ele>475.7</ele>
        <time>2017-02-05T10:04:13.000Z</time>
      </trkpt>
      <trkpt lat="47.53716" lon="6.75087">
        <ele>475.7</ele>
        <time>2017-02-05T10:04:14.000Z</time>
      </trkpt>
      <trkpt lat="47.53715" lon="6.7509">
        <ele>475.8</ele>
        <time>2017-02-05T10:04:15.000Z</time>
      </trkpt>
      <trkpt lat="47.53713" lon="6.75094">
        <ele>476</ele>
        <time>2017-02-05T10:04:17.000Z</time>
      </trkpt>
      <trkpt lat="47.53712" lon="6.75096">
        <ele>476.1</ele>
        <time>2017-02-05T10:04:18.000Z</time>
      </trkpt>
      <trkpt lat="47.53708" lon="6.751">
        <ele>476.4</ele>
        <time>2017-02-05T10:04:20.000Z</time>
      </trkpt>
      <trkpt lat="47.53708" lon="6.75102">
        <ele>476.4</ele>
        <time>2017-02-05T10:04:21.000Z</time>
      </trkpt>
      <trkpt lat="47.53706" lon="6.75107">
        <ele>476.5</ele>
        <time>2017-02-05T10:04:26.000Z</time>
      </trkpt>
      <trkpt lat="47.53705" lon="6.75108">
        <ele>476.5</ele>
        <time>2017-02-05T10:04:27.000Z</time>
      </trkpt>
      <trkpt lat="47.53703" lon="6.75113">
        <ele>476.1</ele>
        <time>2017-02-05T10:04:31.000Z</time>
      </trkpt>
      <trkpt lat="47.53703" lon="6.75115">
        <ele>476.2</ele>
        <time>2017-02-05T10:04:32.000Z</time>
      </trkpt>
      <trkpt lat="47.53701" lon="6.75118">
        <ele>476.1</ele>
        <time>2017-02-05T10:04:34.000Z</time>
      </trkpt>
      <trkpt lat="47.537" lon="6.75121">
        <ele>476</ele>
        <time>2017-02-05T10:04:35.000Z</time>
      </trkpt>
      <trkpt lat="47.53702" lon="6.75124">
        <ele>477.3</ele>
        <time>2017-02-05T10:05:11.000Z</time>
      </trkpt>
      <trkpt lat="47.53703" lon="6.75126">
        <ele>477.3</ele>
        <time>2017-02-05T10:05:12.000Z</time>
      </trkpt>
      <trkpt lat="47.537" lon="6.75131">
        <ele>477.2</ele>
        <time>2017-02-05T10:05:21.000Z</time>
      </trkpt>
      <trkpt lat="47.537" lon="6.75131">
        <ele>477.2</ele>
        <time>2017-02-05T10:05:22.000Z</time>
      </trkpt>
      <trkpt lat="47.53704" lon="6.75134">
        <ele>478</ele>
        <time>2017-02-05T10:05:41.000Z</time>
      </trkpt>
      <trkpt lat="47.53704" lon="6.75133">
        <ele>478</ele>
        <time>2017-02-05T10:05:42.000Z</time>
      </trkpt>
      <trkpt lat="47.53703" lon="6.75135">
        <ele>477.2</ele>
        <time>2017-02-05T10:05:55.000Z</time>
      </trkpt>
      <trkpt lat="47.53701" lon="6.75138">
        <ele>477.2</ele>
        <time>2017-02-05T10:05:56.000Z</time>
      </trkpt>
      <trkpt lat="47.53699" lon="6.7514">
        <ele>477.3</ele>
        <time>2017-02-05T10:05:57.000Z</time>
      </trkpt>
      <trkpt lat="47.53697" lon="6.75143">
        <ele>477.4</ele>
        <time>2017-02-05T10:05:58.000Z</time>
      </trkpt>
      <trkpt lat="47.53695" lon="6.75147">
        <ele>477.5</ele>
        <time>2017-02-05T10:05:59.000Z</time>
      </trkpt>
      <trkpt lat="47.53692" lon="6.75152">
        <ele>478.4</ele>
        <time>2017-02-05T10:06:00.000Z</time>
      </trkpt>
      <trkpt lat="47.5369" lon="6.75156">
        <ele>478.5</ele>
        <time>2017-02-05T10:06:01.000Z</time>
      </trkpt>
      <trkpt lat="47.53687" lon="6.75161">
        <ele>478.4</ele>
        <time>2017-02-05T10:06:02.000Z</time>
      </trkpt>
      <trkpt lat="47.53683" lon="6.75167">
        <ele>477.7</ele>
        <time>2017-02-05T10:06:03.000Z</time>
      </trkpt>
      <trkpt lat="47.53679" lon="6.75173">
        <ele>477.6</ele>
        <time>2017-02-05T10:06:04.000Z</time>
      </trkpt>
      <trkpt lat="47.53677" lon="6.75176">
        <ele>477.5</ele>
        <time>2017-02-05T10:06:05.000Z</time>
      </trkpt>
      <trkpt lat="47.53675" lon="6.75181">
        <ele>477.4</ele>
        <time>2017-02-05T10:06:06.000Z</time>
      </trkpt>
      <trkpt lat="47.53673" lon="6.75187">
        <ele>477.3</ele>
        <time>2017-02-05T10:06:07.000Z</time>
      </trkpt>
      <trkpt lat="47.53672" lon="6.75193">
        <ele>477.2</ele>
        <time>2017-02-05T10:06:08.000Z</time>
      </trkpt>
      <trkpt lat="47.5367" lon="6.75199">
        <ele>475.9</ele>
        <time>2017-02-05T10:06:09.000Z</time>
      </trkpt>
      <trkpt lat="47.53668" lon="6.75206">
        <ele>474.9</ele>
        <time>2017-02-05T10:06:10.000Z</time>
      </trkpt>
      <trkpt lat="47.53667" lon="6.75209">
        <ele>474.7</ele>
        <time>2017-02-05T10:06:11.000Z</time>
      </trkpt>
      <trkpt lat="47.53664" lon="6.75213">
        <ele>474.6</ele>
        <time>2017-02-05T10:06:12.000Z</time>
      </trkpt>
      <trkpt lat="47.53661" lon="6.75215">
        <ele>474.4</ele>
        <time>2017-02-05T10:06:13.000Z</time>
      </trkpt>
      <trkpt lat="47.53657" lon="6.75215">
        <ele>474.2</ele>
        <time>2017-02-05T10:06:14.000Z</time>
      </trkpt>
      <trkpt lat="47.53647" lon="6.75215">
        <ele>473.9</ele>
        <time>2017-02-05T10:06:15.000Z</time>
      </trkpt>
      <trkpt lat="47.53642" lon="6.75216">
        <ele>473.6</ele>
        <time>2017-02-05T10:06:16.000Z</time>
      </trkpt>
      <trkpt lat="47.53638" lon="6.75216">
        <ele>473.3</ele>
        <time>2017-02-05T10:06:17.000Z</time>
      </trkpt>
      <trkpt lat="47.53634" lon="6.75218">
        <ele>473.1</ele>
        <time>2017-02-05T10:06:18.000Z</time>
      </trkpt>
      <trkpt lat="47.53629" lon="6.75221">
        <ele>472.8</ele>
        <time>2017-02-05T10:06:19.000Z</time>
      </trkpt>
      <trkpt lat="47.53626" lon="6.75222">
        <ele>472.5</ele>
        <time>2017-02-05T10:06:20.000Z</time>
      </trkpt>
      <trkpt lat="47.53623" lon="6.75223">
        <ele>472.2</ele>
        <time>2017-02-05T10:06:21.000Z</time>
      </trkpt>
      <trkpt lat="47.53617" lon="6.75228">
        <ele>472</ele>
        <time>2017-02-05T10:06:22.000Z</time>
      </trkpt>
      <trkpt lat="47.53614" lon="6.75233">
        <ele>471.9</ele>
        <time>2017-02-05T10:06:23.000Z</time>
      </trkpt>
      <trkpt lat="47.5361" lon="6.75238">
        <ele>471.6</ele>
        <time>2017-02-05T10:06:24.000Z</time>
      </trkpt>
      <trkpt lat="47.53606" lon="6.7524">
        <ele>471.5</ele>
        <time>2017-02-05T10:06:26.000Z</time>
      </trkpt>
      <trkpt lat="47.53604" lon="6.7524">
        <ele>471.3</ele>
        <time>2017-02-05T10:06:27.000Z</time>
      </trkpt>
      <trkpt lat="47.53601" lon="6.75241">
        <ele>471</ele>
        <time>2017-02-05T10:06:28.000Z</time>
      </trkpt>
      <trkpt lat="47.53599" lon="6.75242">
        <ele>470.8</ele>
        <time>2017-02-05T10:06:29.000Z</time>
      </trkpt>
      <trkpt lat="47.53595" lon="6.75244">
        <ele>470.5</ele>
        <time>2017-02-05T10:06:30.000Z</time>
      </trkpt>
      <trkpt lat="47.53591" lon="6.75246">
        <ele>470.2</ele>
        <time>2017-02-05T10:06:31.000Z</time>
      </trkpt>
      <trkpt lat="47.53586" lon="6.75249">
        <ele>470</ele>
        <time>2017-02-05T10:06:32.000Z</time>
      </trkpt>
      <trkpt lat="47.53582" lon="6.75251">
        <ele>469.8</ele>
        <time>2017-02-05T10:06:33.000Z</time>
      </trkpt>
      <trkpt lat="47.53577" lon="6.75252">
        <ele>469.6</ele>
        <time>2017-02-05T10:06:34.000Z</time>
      </trkpt>
      <trkpt lat="47.53572" lon="6.75255">
        <ele>469.5</ele>
        <time>2017-02-05T10:06:35.000Z</time>
      </trkpt>
      <trkpt lat="47.53562" lon="6.75259">
        <ele>469.5</ele>
        <time>2017-02-05T10:06:36.000Z</time>
      </trkpt>
      <trkpt lat="47.53556" lon="6.75258">
        <ele>469.3</ele>
        <time>2017-02-05T10:06:37.000Z</time>
      </trkpt>
      <trkpt lat="47.53549" lon="6.75258">
        <ele>469.2</ele>
        <time>2017-02-05T10:06:38.000Z</time>
      </trkpt>
      <trkpt lat="47.53543" lon="6.75259">
        <ele>469.1</ele>
        <time>2017-02-05T10:06:39.000Z</time>
      </trkpt>
      <trkpt lat="47.53538" lon="6.75258">
        <ele>469</ele>
        <time>2017-02-05T10:06:40.000Z</time>
      </trkpt>
      <trkpt lat="47.53533" lon="6.75258">
        <ele>468.8</ele>
        <time>2017-02-05T10:06:41.000Z</time>
      </trkpt>
      <trkpt lat="47.53527" lon="6.75259">
        <ele>466.1</ele>
        <time>2017-02-05T10:06:42.000Z</time>
      </trkpt>
      <trkpt lat="47.53519" lon="6.75262">
        <ele>463.9</ele>
        <time>2017-02-05T10:06:43.000Z</time>
      </trkpt>
      <trkpt lat="47.5351" lon="6.75264">
        <ele>461.5</ele>
        <time>2017-02-05T10:06:44.000Z</time>
      </trkpt>
      <trkpt lat="47.53501" lon="6.75265">
        <ele>459.5</ele>
        <time>2017-02-05T10:06:45.000Z</time>
      </trkpt>
      <trkpt lat="47.53492" lon="6.75267">
        <ele>457.8</ele>
        <time>2017-02-05T10:06:46.000Z</time>
      </trkpt>
      <trkpt lat="47.53485" lon="6.75269">
        <ele>456.6</ele>
        <time>2017-02-05T10:06:47.000Z</time>
      </trkpt>
      <trkpt lat="47.53478" lon="6.7527">
        <ele>454.4</ele>
        <time>2017-02-05T10:06:48.000Z</time>
      </trkpt>
      <trkpt lat="47.53471" lon="6.75267">
        <ele>451.7</ele>
        <time>2017-02-05T10:06:49.000Z</time>
      </trkpt>
      <trkpt lat="47.53464" lon="6.75267">
        <ele>450.6</ele>
        <time>2017-02-05T10:06:50.000Z</time>
      </trkpt>
      <trkpt lat="47.53458" lon="6.75267">
        <ele>450.4</ele>
        <time>2017-02-05T10:06:51.000Z</time>
      </trkpt>
      <trkpt lat="47.53452" lon="6.75268">
        <ele>450.2</ele>
        <time>2017-02-05T10:06:52.000Z</time>
      </trkpt>
      <trkpt lat="47.53442" lon="6.7527">
        <ele>450.2</ele>
        <time>2017-02-05T10:06:53.000Z</time>
      </trkpt>
      <trkpt lat="47.53432" lon="6.75273">
        <ele>450.9</ele>
        <time>2017-02-05T10:06:54.000Z</time>
      </trkpt>
      <trkpt lat="47.53425" lon="6.75272">
        <ele>450.9</ele>
        <time>2017-02-05T10:06:55.000Z</time>
      </trkpt>
      <trkpt lat="47.53415" lon="6.75273">
        <ele>450.9</ele>
        <time>2017-02-05T10:06:56.000Z</time>
      </trkpt>
      <trkpt lat="47.5341" lon="6.75273">
        <ele>450.9</ele>
        <time>2017-02-05T10:06:57.000Z</time>
      </trkpt>
      <trkpt lat="47.53405" lon="6.75276">
        <ele>450.9</ele>
        <time>2017-02-05T10:06:58.000Z</time>
      </trkpt>
      <trkpt lat="47.53398" lon="6.75281">
        <ele>450.5</ele>
        <time>2017-02-05T10:06:59.000Z</time>
      </trkpt>
      <trkpt lat="47.53388" lon="6.75288">
        <ele>450.5</ele>
        <time>2017-02-05T10:07:00.000Z</time>
      </trkpt>
      <trkpt lat="47.53382" lon="6.75291">
        <ele>450.4</ele>
        <time>2017-02-05T10:07:01.000Z</time>
      </trkpt>
      <trkpt lat="47.53376" lon="6.75295">
        <ele>450.4</ele>
        <time>2017-02-05T10:07:02.000Z</time>
      </trkpt>
      <trkpt lat="47.5337" lon="6.75297">
        <ele>449.3</ele>
        <time>2017-02-05T10:07:03.000Z</time>
      </trkpt>
      <trkpt lat="47.53364" lon="6.75297">
        <ele>449.7</ele>
        <time>2017-02-05T10:07:04.000Z</time>
      </trkpt>
      <trkpt lat="47.53361" lon="6.75299">
        <ele>449.7</ele>
        <time>2017-02-05T10:07:05.000Z</time>
      </trkpt>
      <trkpt lat="47.53357" lon="6.75301">
        <ele>449.7</ele>
        <time>2017-02-05T10:07:06.000Z</time>
      </trkpt>
      <trkpt lat="47.5335" lon="6.75303">
        <ele>449.7</ele>
        <time>2017-02-05T10:07:07.000Z</time>
      </trkpt>
      <trkpt lat="47.53343" lon="6.75306">
        <ele>449.6</ele>
        <time>2017-02-05T10:07:08.000Z</time>
      </trkpt>
      <trkpt lat="47.53333" lon="6.75311">
        <ele>449.5</ele>
        <time>2017-02-05T10:07:09.000Z</time>
      </trkpt>
      <trkpt lat="47.53328" lon="6.75312">
        <ele>449.3</ele>
        <time>2017-02-05T10:07:10.000Z</time>
      </trkpt>
      <trkpt lat="47.53324" lon="6.75314">
        <ele>449.1</ele>
        <time>2017-02-05T10:07:11.000Z</time>
      </trkpt>
      <trkpt lat="47.5332" lon="6.75315">
        <ele>448.9</ele>
        <time>2017-02-05T10:07:12.000Z</time>
      </trkpt>
      <trkpt lat="47.53314" lon="6.75315">
        <ele>448.6</ele>
        <time>2017-02-05T10:07:13.000Z</time>
      </trkpt>
      <trkpt lat="47.53309" lon="6.75316">
        <ele>448.4</ele>
        <time>2017-02-05T10:07:14.000Z</time>
      </trkpt>
      <trkpt lat="47.53305" lon="6.75318">
        <ele>448.1</ele>
        <time>2017-02-05T10:07:15.000Z</time>
      </trkpt>
      <trkpt lat="47.533" lon="6.7532">
        <ele>447.8</ele>
        <time>2017-02-05T10:07:16.000Z</time>
      </trkpt>
      <trkpt lat="47.53296" lon="6.75324">
        <ele>447.5</ele>
        <time>2017-02-05T10:07:17.000Z</time>
      </trkpt>
      <trkpt lat="47.53291" lon="6.75328">
        <ele>442.9</ele>
        <time>2017-02-05T10:07:18.000Z</time>
      </trkpt>
      <trkpt lat="47.53281" lon="6.75335">
        <ele>439.3</ele>
        <time>2017-02-05T10:07:19.000Z</time>
      </trkpt>
      <trkpt lat="47.53274" lon="6.7534">
        <ele>439.1</ele>
        <time>2017-02-05T10:07:20.000Z</time>
      </trkpt>
      <trkpt lat="47.53266" lon="6.75346">
        <ele>438.8</ele>
        <time>2017-02-05T10:07:21.000Z</time>
      </trkpt>
      <trkpt lat="47.53259" lon="6.75355">
        <ele>436.5</ele>
        <time>2017-02-05T10:07:22.000Z</time>
      </trkpt>
      <trkpt lat="47.53256" lon="6.75361">
        <ele>434.3</ele>
        <time>2017-02-05T10:07:23.000Z</time>
      </trkpt>
      <trkpt lat="47.53253" lon="6.75366">
        <ele>434</ele>
        <time>2017-02-05T10:07:24.000Z</time>
      </trkpt>
      <trkpt lat="47.53249" lon="6.75369">
        <ele>433.5</ele>
        <time>2017-02-05T10:07:25.000Z</time>
      </trkpt>
      <trkpt lat="47.53241" lon="6.7538">
        <ele>433.2</ele>
        <time>2017-02-05T10:07:26.000Z</time>
      </trkpt>
      <trkpt lat="47.53238" lon="6.75382">
        <ele>432.9</ele>
        <time>2017-02-05T10:07:27.000Z</time>
      </trkpt>
      <trkpt lat="47.53235" lon="6.75382">
        <ele>432.6</ele>
        <time>2017-02-05T10:07:28.000Z</time>
      </trkpt>
      <trkpt lat="47.53229" lon="6.75383">
        <ele>432.3</ele>
        <time>2017-02-05T10:07:29.000Z</time>
      </trkpt>
      <trkpt lat="47.53223" lon="6.75385">
        <ele>431.9</ele>
        <time>2017-02-05T10:07:30.000Z</time>
      </trkpt>
      <trkpt lat="47.53215" lon="6.75383">
        <ele>431.5</ele>
        <time>2017-02-05T10:07:31.000Z</time>
      </trkpt>
      <trkpt lat="47.53211" lon="6.75384">
        <ele>431.1</ele>
        <time>2017-02-05T10:07:32.000Z</time>
      </trkpt>
      <trkpt lat="47.53207" lon="6.75384">
        <ele>430.8</ele>
        <time>2017-02-05T10:07:33.000Z</time>
      </trkpt>
      <trkpt lat="47.53204" lon="6.75383">
        <ele>430.5</ele>
        <time>2017-02-05T10:07:34.000Z</time>
      </trkpt>
      <trkpt lat="47.53201" lon="6.75381">
        <ele>430.2</ele>
        <time>2017-02-05T10:07:35.000Z</time>
      </trkpt>
      <trkpt lat="47.53196" lon="6.7538">
        <ele>430.2</ele>
        <time>2017-02-05T10:07:36.000Z</time>
      </trkpt>
      <trkpt lat="47.53191" lon="6.75379">
        <ele>430.1</ele>
        <time>2017-02-05T10:07:37.000Z</time>
      </trkpt>
      <trkpt lat="47.53187" lon="6.75376">
        <ele>430</ele>
        <time>2017-02-05T10:07:38.000Z</time>
      </trkpt>
      <trkpt lat="47.53183" lon="6.75375">
        <ele>430</ele>
        <time>2017-02-05T10:07:39.000Z</time>
      </trkpt>
      <trkpt lat="47.53175" lon="6.75373">
        <ele>430</ele>
        <time>2017-02-05T10:07:40.000Z</time>
      </trkpt>
      <trkpt lat="47.53171" lon="6.75373">
        <ele>429.9</ele>
        <time>2017-02-05T10:07:41.000Z</time>
      </trkpt>
      <trkpt lat="47.53167" lon="6.75372">
        <ele>429.8</ele>
        <time>2017-02-05T10:07:42.000Z</time>
      </trkpt>
      <trkpt lat="47.5316" lon="6.75371">
        <ele>429.8</ele>
        <time>2017-02-05T10:07:43.000Z</time>
      </trkpt>
      <trkpt lat="47.53154" lon="6.75368">
        <ele>429.6</ele>
        <time>2017-02-05T10:07:44.000Z</time>
      </trkpt>
      <trkpt lat="47.53148" lon="6.75363">
        <ele>428.2</ele>
        <time>2017-02-05T10:07:45.000Z</time>
      </trkpt>
      <trkpt lat="47.53141" lon="6.7536">
        <ele>427</ele>
        <time>2017-02-05T10:07:46.000Z</time>
      </trkpt>
      <trkpt lat="47.53135" lon="6.75358">
        <ele>426.8</ele>
        <time>2017-02-05T10:07:47.000Z</time>
      </trkpt>
      <trkpt lat="47.53122" lon="6.75352">
        <ele>426.7</ele>
        <time>2017-02-05T10:07:48.000Z</time>
      </trkpt>
      <trkpt lat="47.53113" lon="6.75349">
        <ele>426.4</ele>
        <time>2017-02-05T10:07:49.000Z</time>
      </trkpt>
      <trkpt lat="47.53107" lon="6.75342">
        <ele>426.1</ele>
        <time>2017-02-05T10:07:50.000Z</time>
      </trkpt>
      <trkpt lat="47.53101" lon="6.75338">
        <ele>421.5</ele>
        <time>2017-02-05T10:07:51.000Z</time>
      </trkpt>
      <trkpt lat="47.53096" lon="6.75335">
        <ele>421.1</ele>
        <time>2017-02-05T10:07:52.000Z</time>
      </trkpt>
      <trkpt lat="47.5309" lon="6.75332">
        <ele>416.3</ele>
        <time>2017-02-05T10:07:53.000Z</time>
      </trkpt>
      <trkpt lat="47.53079" lon="6.75329">
        <ele>412.5</ele>
        <time>2017-02-05T10:07:54.000Z</time>
      </trkpt>
      <trkpt lat="47.53071" lon="6.75327">
        <ele>408.2</ele>
        <time>2017-02-05T10:07:55.000Z</time>
      </trkpt>
      <trkpt lat="47.53063" lon="6.75324">
        <ele>405.5</ele>
        <time>2017-02-05T10:07:56.000Z</time>
      </trkpt>
      <trkpt lat="47.53057" lon="6.75322">
        <ele>403.2</ele>
        <time>2017-02-05T10:07:57.000Z</time>
      </trkpt>
      <trkpt lat="47.53051" lon="6.7532">
        <ele>403.1</ele>
        <time>2017-02-05T10:07:58.000Z</time>
      </trkpt>
      <trkpt lat="47.53046" lon="6.75318">
        <ele>403</ele>
        <time>2017-02-05T10:07:59.000Z</time>
      </trkpt>
      <trkpt lat="47.53041" lon="6.75316">
        <ele>403.1</ele>
        <time>2017-02-05T10:08:00.000Z</time>
      </trkpt>
      <trkpt lat="47.53032" lon="6.75312">
        <ele>403.1</ele>
        <time>2017-02-05T10:08:01.000Z</time>
      </trkpt>
      <trkpt lat="47.53029" lon="6.75311">
        <ele>403.7</ele>
        <time>2017-02-05T10:08:04.000Z</time>
      </trkpt>
      <trkpt lat="47.53026" lon="6.75309">
        <ele>404.2</ele>
        <time>2017-02-05T10:08:05.000Z</time>
      </trkpt>
      <trkpt lat="47.53023" lon="6.75308">
        <ele>404.8</ele>
        <time>2017-02-05T10:08:06.000Z</time>
      </trkpt>
      <trkpt lat="47.5302" lon="6.75307">
        <ele>405.6</ele>
        <time>2017-02-05T10:08:07.000Z</time>
      </trkpt>
      <trkpt lat="47.53016" lon="6.75304">
        <ele>407.1</ele>
        <time>2017-02-05T10:08:11.000Z</time>
      </trkpt>
      <trkpt lat="47.53014" lon="6.75302">
        <ele>407.2</ele>
        <time>2017-02-05T10:08:12.000Z</time>
      </trkpt>
      <trkpt lat="47.53011" lon="6.75301">
        <ele>407.4</ele>
        <time>2017-02-05T10:08:13.000Z</time>
      </trkpt>
      <trkpt lat="47.53009" lon="6.75299">
        <ele>407.4</ele>
        <time>2017-02-05T10:08:14.000Z</time>
      </trkpt>
      <trkpt lat="47.53005" lon="6.75297">
        <ele>407.4</ele>
        <time>2017-02-05T10:08:17.000Z</time>
      </trkpt>
      <trkpt lat="47.53004" lon="6.75296">
        <ele>407.4</ele>
        <time>2017-02-05T10:08:18.000Z</time>
      </trkpt>
      <trkpt lat="47.53002" lon="6.75295">
        <ele>407.6</ele>
        <time>2017-02-05T10:08:19.000Z</time>
      </trkpt>
      <trkpt lat="47.52999" lon="6.75294">
        <ele>407.9</ele>
        <time>2017-02-05T10:08:20.000Z</time>
      </trkpt>
      <trkpt lat="47.52996" lon="6.75291">
        <ele>408.2</ele>
        <time>2017-02-05T10:08:21.000Z</time>
      </trkpt>
      <trkpt lat="47.52992" lon="6.75288">
        <ele>408.5</ele>
        <time>2017-02-05T10:08:22.000Z</time>
      </trkpt>
      <trkpt lat="47.52988" lon="6.75285">
        <ele>410.4</ele>
        <time>2017-02-05T10:08:27.000Z</time>
      </trkpt>
      <trkpt lat="47.52987" lon="6.75284">
        <ele>410.8</ele>
        <time>2017-02-05T10:08:28.000Z</time>
      </trkpt>
      <trkpt lat="47.52984" lon="6.75283">
        <ele>411.1</ele>
        <time>2017-02-05T10:08:29.000Z</time>
      </trkpt>
      <trkpt lat="47.52982" lon="6.75282">
        <ele>411.5</ele>
        <time>2017-02-05T10:08:30.000Z</time>
      </trkpt>
      <trkpt lat="47.52978" lon="6.75281">
        <ele>411.8</ele>
        <time>2017-02-05T10:08:31.000Z</time>
      </trkpt>
      <trkpt lat="47.52976" lon="6.7528">
        <ele>412.1</ele>
        <time>2017-02-05T10:08:32.000Z</time>
      </trkpt>
      <trkpt lat="47.52973" lon="6.75279">
        <ele>412.2</ele>
        <time>2017-02-05T10:08:33.000Z</time>
      </trkpt>
      <trkpt lat="47.5297" lon="6.75278">
        <ele>412.5</ele>
        <time>2017-02-05T10:08:34.000Z</time>
      </trkpt>
      <trkpt lat="47.52966" lon="6.75278">
        <ele>412.7</ele>
        <time>2017-02-05T10:08:35.000Z</time>
      </trkpt>
      <trkpt lat="47.52963" lon="6.75279">
        <ele>413</ele>
        <time>2017-02-05T10:08:36.000Z</time>
      </trkpt>
      <trkpt lat="47.5296" lon="6.75278">
        <ele>413.2</ele>
        <time>2017-02-05T10:08:37.000Z</time>
      </trkpt>
      <trkpt lat="47.52957" lon="6.75277">
        <ele>413.4</ele>
        <time>2017-02-05T10:08:38.000Z</time>
      </trkpt>
      <trkpt lat="47.52953" lon="6.75276">
        <ele>413.4</ele>
        <time>2017-02-05T10:08:41.000Z</time>
      </trkpt>
      <trkpt lat="47.52952" lon="6.75274">
        <ele>413.6</ele>
        <time>2017-02-05T10:08:42.000Z</time>
      </trkpt>
      <trkpt lat="47.52949" lon="6.75271">
        <ele>414.6</ele>
        <time>2017-02-05T10:08:48.000Z</time>
      </trkpt>
      <trkpt lat="47.52947" lon="6.7527">
        <ele>415</ele>
        <time>2017-02-05T10:08:49.000Z</time>
      </trkpt>
      <trkpt lat="47.52943" lon="6.75268">
        <ele>415.7</ele>
        <time>2017-02-05T10:08:51.000Z</time>
      </trkpt>
      <trkpt lat="47.52942" lon="6.75268">
        <ele>416.2</ele>
        <time>2017-02-05T10:08:52.000Z</time>
      </trkpt>
      <trkpt lat="47.52939" lon="6.75268">
        <ele>416.5</ele>
        <time>2017-02-05T10:08:53.000Z</time>
      </trkpt>
      <trkpt lat="47.52937" lon="6.75269">
        <ele>416.8</ele>
        <time>2017-02-05T10:08:54.000Z</time>
      </trkpt>
      <trkpt lat="47.52933" lon="6.7527">
        <ele>417.7</ele>
        <time>2017-02-05T10:08:58.000Z</time>
      </trkpt>
      <trkpt lat="47.52931" lon="6.7527">
        <ele>417.8</ele>
        <time>2017-02-05T10:08:59.000Z</time>
      </trkpt>
      <trkpt lat="47.52927" lon="6.75271">
        <ele>418.9</ele>
        <time>2017-02-05T10:09:03.000Z</time>
      </trkpt>
      <trkpt lat="47.52925" lon="6.7527">
        <ele>419.4</ele>
        <time>2017-02-05T10:09:04.000Z</time>
      </trkpt>
      <trkpt lat="47.52921" lon="6.75267">
        <ele>420.6</ele>
        <time>2017-02-05T10:09:11.000Z</time>
      </trkpt>
      <trkpt lat="47.52919" lon="6.75267">
        <ele>420.8</ele>
        <time>2017-02-05T10:09:12.000Z</time>
      </trkpt>
      <trkpt lat="47.52916" lon="6.75265">
        <ele>421</ele>
        <time>2017-02-05T10:09:16.000Z</time>
      </trkpt>
      <trkpt lat="47.52914" lon="6.75263">
        <ele>420.9</ele>
        <time>2017-02-05T10:09:17.000Z</time>
      </trkpt>
      <trkpt lat="47.52911" lon="6.7526">
        <ele>421.2</ele>
        <time>2017-02-05T10:09:19.000Z</time>
      </trkpt>
      <trkpt lat="47.5291" lon="6.7526">
        <ele>421.4</ele>
        <time>2017-02-05T10:09:20.000Z</time>
      </trkpt>
      <trkpt lat="47.52906" lon="6.7526">
        <ele>422.7</ele>
        <time>2017-02-05T10:09:23.000Z</time>
      </trkpt>
      <trkpt lat="47.52905" lon="6.7526">
        <ele>423</ele>
        <time>2017-02-05T10:09:24.000Z</time>
      </trkpt>
      <trkpt lat="47.52903" lon="6.7526">
        <ele>423.3</ele>
        <time>2017-02-05T10:09:25.000Z</time>
      </trkpt>
      <trkpt lat="47.52899" lon="6.75258">
        <ele>423.6</ele>
        <time>2017-02-05T10:09:26.000Z</time>
      </trkpt>
      <trkpt lat="47.52896" lon="6.75258">
        <ele>424</ele>
        <time>2017-02-05T10:09:27.000Z</time>
      </trkpt>
      <trkpt lat="47.52894" lon="6.75257">
        <ele>424.4</ele>
        <time>2017-02-05T10:09:28.000Z</time>
      </trkpt>
      <trkpt lat="47.52892" lon="6.75255">
        <ele>424.8</ele>
        <time>2017-02-05T10:09:29.000Z</time>
      </trkpt>
      <trkpt lat="47.52889" lon="6.75254">
        <ele>425.4</ele>
        <time>2017-02-05T10:09:30.000Z</time>
      </trkpt>
      <trkpt lat="47.52886" lon="6.75252">
        <ele>426</ele>
        <time>2017-02-05T10:09:32.000Z</time>
      </trkpt>
      <trkpt lat="47.52884" lon="6.75251">
        <ele>426.4</ele>
        <time>2017-02-05T10:09:33.000Z</time>
      </trkpt>
      <trkpt lat="47.52882" lon="6.7525">
        <ele>426.8</ele>
        <time>2017-02-05T10:09:34.000Z</time>
      </trkpt>
      <trkpt lat="47.52878" lon="6.75251">
        <ele>427</ele>
        <time>2017-02-05T10:09:35.000Z</time>
      </trkpt>
      <trkpt lat="47.52875" lon="6.75249">
        <ele>427.2</ele>
        <time>2017-02-05T10:09:36.000Z</time>
      </trkpt>
      <trkpt lat="47.52874" lon="6.75249">
        <ele>427.4</ele>
        <time>2017-02-05T10:09:37.000Z</time>
      </trkpt>
      <trkpt lat="47.52871" lon="6.75244">
        <ele>428.5</ele>
        <time>2017-02-05T10:09:41.000Z</time>
      </trkpt>
      <trkpt lat="47.5287" lon="6.75243">
        <ele>428.7</ele>
        <time>2017-02-05T10:09:42.000Z</time>
      </trkpt>
      <trkpt lat="47.52868" lon="6.75239">
        <ele>428.9</ele>
        <time>2017-02-05T10:09:45.000Z</time>
      </trkpt>
      <trkpt lat="47.52866" lon="6.75238">
        <ele>429</ele>
        <time>2017-02-05T10:09:46.000Z</time>
      </trkpt>
      <trkpt lat="47.52862" lon="6.75236">
        <ele>429.2</ele>
        <time>2017-02-05T10:09:48.000Z</time>
      </trkpt>
      <trkpt lat="47.52859" lon="6.75236">
        <ele>429.1</ele>
        <time>2017-02-05T10:09:49.000Z</time>
      </trkpt>
      <trkpt lat="47.52855" lon="6.75233">
        <ele>429.3</ele>
        <time>2017-02-05T10:09:51.000Z</time>
      </trkpt>
      <trkpt lat="47.52854" lon="6.75231">
        <ele>429.3</ele>
        <time>2017-02-05T10:09:52.000Z</time>
      </trkpt>
      <trkpt lat="47.52853" lon="6.75227">
        <ele>429.3</ele>
        <time>2017-02-05T10:09:54.000Z</time>
      </trkpt>
      <trkpt lat="47.5285" lon="6.75224">
        <ele>429.4</ele>
        <time>2017-02-05T10:09:55.000Z</time>
      </trkpt>
      <trkpt lat="47.52846" lon="6.75224">
        <ele>429.6</ele>
        <time>2017-02-05T10:09:57.000Z</time>
      </trkpt>
      <trkpt lat="47.52842" lon="6.75224">
        <ele>429.8</ele>
        <time>2017-02-05T10:09:58.000Z</time>
      </trkpt>
      <trkpt lat="47.52838" lon="6.75223">
        <ele>429.9</ele>
        <time>2017-02-05T10:09:59.000Z</time>
      </trkpt>
      <trkpt lat="47.52833" lon="6.7522">
        <ele>429.8</ele>
        <time>2017-02-05T10:10:00.000Z</time>
      </trkpt>
      <trkpt lat="47.52828" lon="6.75217">
        <ele>430</ele>
        <time>2017-02-05T10:10:01.000Z</time>
      </trkpt>
      <trkpt lat="47.52826" lon="6.75216">
        <ele>430</ele>
        <time>2017-02-05T10:10:02.000Z</time>
      </trkpt>
      <trkpt lat="47.52823" lon="6.75214">
        <ele>430.2</ele>
        <time>2017-02-05T10:10:03.000Z</time>
      </trkpt>
      <trkpt lat="47.5282" lon="6.75212">
        <ele>430.4</ele>
        <time>2017-02-05T10:10:04.000Z</time>
      </trkpt>
      <trkpt lat="47.52816" lon="6.7521">
        <ele>430.5</ele>
        <time>2017-02-05T10:10:05.000Z</time>
      </trkpt>
      <trkpt lat="47.52814" lon="6.75209">
        <ele>430.4</ele>
        <time>2017-02-05T10:10:06.000Z</time>
      </trkpt>
      <trkpt lat="47.52812" lon="6.75207">
        <ele>430.2</ele>
        <time>2017-02-05T10:10:07.000Z</time>
      </trkpt>
      <trkpt lat="47.52809" lon="6.75207">
        <ele>430.3</ele>
        <time>2017-02-05T10:10:08.000Z</time>
      </trkpt>
      <trkpt lat="47.52806" lon="6.75206">
        <ele>430.3</ele>
        <time>2017-02-05T10:10:09.000Z</time>
      </trkpt>
      <trkpt lat="47.52803" lon="6.75205">
        <ele>430</ele>
        <time>2017-02-05T10:10:12.000Z</time>
      </trkpt>
      <trkpt lat="47.52794" lon="6.75201">
        <ele>429.8</ele>
        <time>2017-02-05T10:10:13.000Z</time>
      </trkpt>
      <trkpt lat="47.52791" lon="6.75199">
        <ele>429.8</ele>
        <time>2017-02-05T10:10:14.000Z</time>
      </trkpt>
      <trkpt lat="47.52788" lon="6.75199">
        <ele>429.9</ele>
        <time>2017-02-05T10:10:15.000Z</time>
      </trkpt>
      <trkpt lat="47.52785" lon="6.75198">
        <ele>430</ele>
        <time>2017-02-05T10:10:18.000Z</time>
      </trkpt>
      <trkpt lat="47.52783" lon="6.75198">
        <ele>430.1</ele>
        <time>2017-02-05T10:10:19.000Z</time>
      </trkpt>
      <trkpt lat="47.5278" lon="6.75197">
        <ele>430.2</ele>
        <time>2017-02-05T10:10:21.000Z</time>
      </trkpt>
      <trkpt lat="47.52778" lon="6.75196">
        <ele>430.3</ele>
        <time>2017-02-05T10:10:22.000Z</time>
      </trkpt>
      <trkpt lat="47.52775" lon="6.75195">
        <ele>430.5</ele>
        <time>2017-02-05T10:10:24.000Z</time>
      </trkpt>
      <trkpt lat="47.52773" lon="6.75195">
        <ele>430.6</ele>
        <time>2017-02-05T10:10:25.000Z</time>
      </trkpt>
      <trkpt lat="47.5277" lon="6.75194">
        <ele>431</ele>
        <time>2017-02-05T10:10:28.000Z</time>
      </trkpt>
      <trkpt lat="47.52768" lon="6.75193">
        <ele>431.1</ele>
        <time>2017-02-05T10:10:29.000Z</time>
      </trkpt>
      <trkpt lat="47.52764" lon="6.75191">
        <ele>431.3</ele>
        <time>2017-02-05T10:10:32.000Z</time>
      </trkpt>
      <trkpt lat="47.5276" lon="6.75189">
        <ele>431.4</ele>
        <time>2017-02-05T10:10:33.000Z</time>
      </trkpt>
      <trkpt lat="47.52756" lon="6.75189">
        <ele>432</ele>
        <time>2017-02-05T10:10:36.000Z</time>
      </trkpt>
      <trkpt lat="47.52755" lon="6.75188">
        <ele>432</ele>
        <time>2017-02-05T10:10:37.000Z</time>
      </trkpt>
      <trkpt lat="47.52751" lon="6.75188">
        <ele>432.2</ele>
        <time>2017-02-05T10:10:39.000Z</time>
      </trkpt>
      <trkpt lat="47.52749" lon="6.75186">
        <ele>432.3</ele>
        <time>2017-02-05T10:10:40.000Z</time>
      </trkpt>
      <trkpt lat="47.52747" lon="6.75182">
        <ele>432.5</ele>
        <time>2017-02-05T10:10:45.000Z</time>
      </trkpt>
      <trkpt lat="47.52744" lon="6.75181">
        <ele>432.5</ele>
        <time>2017-02-05T10:10:46.000Z</time>
      </trkpt>
      <trkpt lat="47.5274" lon="6.75181">
        <ele>433</ele>
        <time>2017-02-05T10:10:50.000Z</time>
      </trkpt>
      <trkpt lat="47.52737" lon="6.75181">
        <ele>433.1</ele>
        <time>2017-02-05T10:10:51.000Z</time>
      </trkpt>
      <trkpt lat="47.52734" lon="6.75181">
        <ele>432.9</ele>
        <time>2017-02-05T10:10:52.000Z</time>
      </trkpt>
      <trkpt lat="47.52731" lon="6.75181">
        <ele>432.9</ele>
        <time>2017-02-05T10:10:53.000Z</time>
      </trkpt>
      <trkpt lat="47.52727" lon="6.75181">
        <ele>432.8</ele>
        <time>2017-02-05T10:10:54.000Z</time>
      </trkpt>
      <trkpt lat="47.52725" lon="6.7518">
        <ele>432.8</ele>
        <time>2017-02-05T10:10:55.000Z</time>
      </trkpt>
      <trkpt lat="47.52723" lon="6.75178">
        <ele>432.9</ele>
        <time>2017-02-05T10:10:56.000Z</time>
      </trkpt>
      <trkpt lat="47.52721" lon="6.75176">
        <ele>432.9</ele>
        <time>2017-02-05T10:10:57.000Z</time>
      </trkpt>
      <trkpt lat="47.52717" lon="6.75177">
        <ele>437</ele>
        <time>2017-02-05T10:11:35.000Z</time>
      </trkpt>
      <trkpt lat="47.52715" lon="6.75182">
        <ele>437.2</ele>
        <time>2017-02-05T10:11:36.000Z</time>
      </trkpt>
      <trkpt lat="47.52714" lon="6.75187">
        <ele>437.5</ele>
        <time>2017-02-05T10:11:37.000Z</time>
      </trkpt>
      <trkpt lat="47.52714" lon="6.75192">
        <ele>437.7</ele>
        <time>2017-02-05T10:11:38.000Z</time>
      </trkpt>
      <trkpt lat="47.52712" lon="6.75203">
        <ele>438</ele>
        <time>2017-02-05T10:11:39.000Z</time>
      </trkpt>
      <trkpt lat="47.52709" lon="6.75209">
        <ele>438.1</ele>
        <time>2017-02-05T10:11:40.000Z</time>
      </trkpt>
      <trkpt lat="47.52706" lon="6.75215">
        <ele>438.2</ele>
        <time>2017-02-05T10:11:41.000Z</time>
      </trkpt>
      <trkpt lat="47.52704" lon="6.75218">
        <ele>438.4</ele>
        <time>2017-02-05T10:11:43.000Z</time>
      </trkpt>
      <trkpt lat="47.52699" lon="6.75218">
        <ele>438.2</ele>
        <time>2017-02-05T10:11:44.000Z</time>
      </trkpt>
      <trkpt lat="47.52696" lon="6.75221">
        <ele>438.1</ele>
        <time>2017-02-05T10:11:45.000Z</time>
      </trkpt>
      <trkpt lat="47.52688" lon="6.75225">
        <ele>438.1</ele>
        <time>2017-02-05T10:11:46.000Z</time>
      </trkpt>
      <trkpt lat="47.52684" lon="6.75229">
        <ele>437.7</ele>
        <time>2017-02-05T10:11:47.000Z</time>
      </trkpt>
      <trkpt lat="47.52679" lon="6.75236">
        <ele>437.3</ele>
        <time>2017-02-05T10:11:48.000Z</time>
      </trkpt>
      <trkpt lat="47.52679" lon="6.75243">
        <ele>436.9</ele>
        <time>2017-02-05T10:11:49.000Z</time>
      </trkpt>
      <trkpt lat="47.52679" lon="6.7525">
        <ele>436.6</ele>
        <time>2017-02-05T10:11:50.000Z</time>
      </trkpt>
      <trkpt lat="47.52678" lon="6.75259">
        <ele>433.6</ele>
        <time>2017-02-05T10:11:51.000Z</time>
      </trkpt>
      <trkpt lat="47.52678" lon="6.75269">
        <ele>431.4</ele>
        <time>2017-02-05T10:11:52.000Z</time>
      </trkpt>
      <trkpt lat="47.52679" lon="6.75277">
        <ele>429.4</ele>
        <time>2017-02-05T10:11:53.000Z</time>
      </trkpt>
      <trkpt lat="47.52678" lon="6.75284">
        <ele>429.1</ele>
        <time>2017-02-05T10:11:54.000Z</time>
      </trkpt>
      <trkpt lat="47.5268" lon="6.75289">
        <ele>428.7</ele>
        <time>2017-02-05T10:11:55.000Z</time>
      </trkpt>
      <trkpt lat="47.52681" lon="6.75297">
        <ele>428.5</ele>
        <time>2017-02-05T10:11:56.000Z</time>
      </trkpt>
      <trkpt lat="47.52682" lon="6.75306">
        <ele>426.9</ele>
        <time>2017-02-05T10:11:57.000Z</time>
      </trkpt>
      <trkpt lat="47.52682" lon="6.75314">
        <ele>423.8</ele>
        <time>2017-02-05T10:11:58.000Z</time>
      </trkpt>
      <trkpt lat="47.52681" lon="6.75324">
        <ele>420.1</ele>
        <time>2017-02-05T10:11:59.000Z</time>
      </trkpt>
      <trkpt lat="47.5268" lon="6.75333">
        <ele>419.7</ele>
        <time>2017-02-05T10:12:00.000Z</time>
      </trkpt>
      <trkpt lat="47.52678" lon="6.75339">
        <ele>419.4</ele>
        <time>2017-02-05T10:12:01.000Z</time>
      </trkpt>
      <trkpt lat="47.52674" lon="6.75354">
        <ele>418.9</ele>
        <time>2017-02-05T10:12:02.000Z</time>
      </trkpt>
      <trkpt lat="47.5267" lon="6.75357">
        <ele>418.4</ele>
        <time>2017-02-05T10:12:03.000Z</time>
      </trkpt>
      <trkpt lat="47.52667" lon="6.75366">
        <ele>418</ele>
        <time>2017-02-05T10:12:04.000Z</time>
      </trkpt>
      <trkpt lat="47.52663" lon="6.75376">
        <ele>414.7</ele>
        <time>2017-02-05T10:12:05.000Z</time>
      </trkpt>
      <trkpt lat="47.52662" lon="6.75385">
        <ele>412.2</ele>
        <time>2017-02-05T10:12:06.000Z</time>
      </trkpt>
      <trkpt lat="47.52661" lon="6.75394">
        <ele>410.6</ele>
        <time>2017-02-05T10:12:07.000Z</time>
      </trkpt>
      <trkpt lat="47.5266" lon="6.75408">
        <ele>409.2</ele>
        <time>2017-02-05T10:12:08.000Z</time>
      </trkpt>
      <trkpt lat="47.5266" lon="6.75418">
        <ele>409.1</ele>
        <time>2017-02-05T10:12:09.000Z</time>
      </trkpt>
      <trkpt lat="47.52659" lon="6.75427">
        <ele>407.7</ele>
        <time>2017-02-05T10:12:10.000Z</time>
      </trkpt>
      <trkpt lat="47.52656" lon="6.75435">
        <ele>405.9</ele>
        <time>2017-02-05T10:12:11.000Z</time>
      </trkpt>
      <trkpt lat="47.52653" lon="6.75439">
        <ele>405.6</ele>
        <time>2017-02-05T10:12:12.000Z</time>
      </trkpt>
      <trkpt lat="47.5265" lon="6.75443">
        <ele>405.3</ele>
        <time>2017-02-05T10:12:13.000Z</time>
      </trkpt>
      <trkpt lat="47.52644" lon="6.75448">
        <ele>405</ele>
        <time>2017-02-05T10:12:14.000Z</time>
      </trkpt>
      <trkpt lat="47.52637" lon="6.75454">
        <ele>402.9</ele>
        <time>2017-02-05T10:12:15.000Z</time>
      </trkpt>
      <trkpt lat="47.52631" lon="6.75459">
        <ele>402.7</ele>
        <time>2017-02-05T10:12:16.000Z</time>
      </trkpt>
      <trkpt lat="47.52621" lon="6.75465">
        <ele>402.7</ele>
        <time>2017-02-05T10:12:17.000Z</time>
      </trkpt>
      <trkpt lat="47.52614" lon="6.75472">
        <ele>402.5</ele>
        <time>2017-02-05T10:12:18.000Z</time>
      </trkpt>
      <trkpt lat="47.5261" lon="6.75475">
        <ele>402.3</ele>
        <time>2017-02-05T10:12:19.000Z</time>
      </trkpt>
      <trkpt lat="47.52603" lon="6.75482">
        <ele>402.1</ele>
        <time>2017-02-05T10:12:20.000Z</time>
      </trkpt>
      <trkpt lat="47.52596" lon="6.75489">
        <ele>401.2</ele>
        <time>2017-02-05T10:12:21.000Z</time>
      </trkpt>
      <trkpt lat="47.52592" lon="6.75497">
        <ele>401.2</ele>
        <time>2017-02-05T10:12:22.000Z</time>
      </trkpt>
      <trkpt lat="47.52589" lon="6.75504">
        <ele>401.2</ele>
        <time>2017-02-05T10:12:23.000Z</time>
      </trkpt>
      <trkpt lat="47.52586" lon="6.7551">
        <ele>401.2</ele>
        <time>2017-02-05T10:12:24.000Z</time>
      </trkpt>
      <trkpt lat="47.52583" lon="6.75516">
        <ele>401.3</ele>
        <time>2017-02-05T10:12:25.000Z</time>
      </trkpt>
      <trkpt lat="47.5258" lon="6.75526">
        <ele>401.4</ele>
        <time>2017-02-05T10:12:26.000Z</time>
      </trkpt>
      <trkpt lat="47.52578" lon="6.75536">
        <ele>401.5</ele>
        <time>2017-02-05T10:12:27.000Z</time>
      </trkpt>
      <trkpt lat="47.52577" lon="6.75552">
        <ele>401.6</ele>
        <time>2017-02-05T10:12:28.000Z</time>
      </trkpt>
      <trkpt lat="47.52572" lon="6.75567">
        <ele>402.5</ele>
        <time>2017-02-05T10:12:29.000Z</time>
      </trkpt>
      <trkpt lat="47.52566" lon="6.75577">
        <ele>402.5</ele>
        <time>2017-02-05T10:12:30.000Z</time>
      </trkpt>
      <trkpt lat="47.52558" lon="6.75585">
        <ele>402.6</ele>
        <time>2017-02-05T10:12:31.000Z</time>
      </trkpt>
      <trkpt lat="47.52554" lon="6.75591">
        <ele>402.5</ele>
        <time>2017-02-05T10:12:32.000Z</time>
      </trkpt>
      <trkpt lat="47.52548" lon="6.75598">
        <ele>402.4</ele>
        <time>2017-02-05T10:12:33.000Z</time>
      </trkpt>
      <trkpt lat="47.52543" lon="6.75606">
        <ele>402</ele>
        <time>2017-02-05T10:12:34.000Z</time>
      </trkpt>
      <trkpt lat="47.52538" lon="6.75614">
        <ele>402</ele>
        <time>2017-02-05T10:12:35.000Z</time>
      </trkpt>
      <trkpt lat="47.52535" lon="6.75619">
        <ele>401.1</ele>
        <time>2017-02-05T10:12:41.000Z</time>
      </trkpt>
      <trkpt lat="47.52533" lon="6.75619">
        <ele>400.9</ele>
        <time>2017-02-05T10:12:42.000Z</time>
      </trkpt>
      <trkpt lat="47.52531" lon="6.75622">
        <ele>400</ele>
        <time>2017-02-05T10:12:47.000Z</time>
      </trkpt>
      <trkpt lat="47.5253" lon="6.75624">
        <ele>399.9</ele>
        <time>2017-02-05T10:12:48.000Z</time>
      </trkpt>
      <trkpt lat="47.52532" lon="6.75629">
        <ele>399.8</ele>
        <time>2017-02-05T10:12:51.000Z</time>
      </trkpt>
      <trkpt lat="47.52534" lon="6.75632">
        <ele>400</ele>
        <time>2017-02-05T10:12:52.000Z</time>
      </trkpt>
      <trkpt lat="47.52535" lon="6.75635">
        <ele>400.1</ele>
        <time>2017-02-05T10:12:53.000Z</time>
      </trkpt>
      <trkpt lat="47.52537" lon="6.75637">
        <ele>400.3</ele>
        <time>2017-02-05T10:12:54.000Z</time>
      </trkpt>
      <trkpt lat="47.52538" lon="6.7564">
        <ele>400.5</ele>
        <time>2017-02-05T10:12:55.000Z</time>
      </trkpt>
      <trkpt lat="47.52539" lon="6.75643">
        <ele>400.7</ele>
        <time>2017-02-05T10:12:56.000Z</time>
      </trkpt>
      <trkpt lat="47.52541" lon="6.75646">
        <ele>400.9</ele>
        <time>2017-02-05T10:12:57.000Z</time>
      </trkpt>
      <trkpt lat="47.52543" lon="6.75648">
        <ele>401</ele>
        <time>2017-02-05T10:12:58.000Z</time>
      </trkpt>
      <trkpt lat="47.52544" lon="6.75652">
        <ele>401.1</ele>
        <time>2017-02-05T10:12:59.000Z</time>
      </trkpt>
      <trkpt lat="47.52547" lon="6.75656">
        <ele>401.2</ele>
        <time>2017-02-05T10:13:00.000Z</time>
      </trkpt>
      <trkpt lat="47.52549" lon="6.75659">
        <ele>401.2</ele>
        <time>2017-02-05T10:13:01.000Z</time>
      </trkpt>
      <trkpt lat="47.52551" lon="6.75664">
        <ele>401.2</ele>
        <time>2017-02-05T10:13:02.000Z</time>
      </trkpt>
      <trkpt lat="47.52554" lon="6.75668">
        <ele>401.2</ele>
        <time>2017-02-05T10:13:03.000Z</time>
      </trkpt>
      <trkpt lat="47.52556" lon="6.75672">
        <ele>401.1</ele>
        <time>2017-02-05T10:13:04.000Z</time>
      </trkpt>
      <trkpt lat="47.52558" lon="6.75676">
        <ele>401.1</ele>
        <time>2017-02-05T10:13:05.000Z</time>
      </trkpt>
      <trkpt lat="47.5256" lon="6.75679">
        <ele>401</ele>
        <time>2017-02-05T10:13:06.000Z</time>
      </trkpt>
      <trkpt lat="47.52561" lon="6.75682">
        <ele>401</ele>
        <time>2017-02-05T10:13:07.000Z</time>
      </trkpt>
      <trkpt lat="47.52563" lon="6.75685">
        <ele>401</ele>
        <time>2017-02-05T10:13:08.000Z</time>
      </trkpt>
      <trkpt lat="47.52565" lon="6.75688">
        <ele>400.9</ele>
        <time>2017-02-05T10:13:09.000Z</time>
      </trkpt>
      <trkpt lat="47.52567" lon="6.7569">
        <ele>400.9</ele>
        <time>2017-02-05T10:13:10.000Z</time>
      </trkpt>
      <trkpt lat="47.52569" lon="6.75693">
        <ele>400.8</ele>
        <time>2017-02-05T10:13:11.000Z</time>
      </trkpt>
      <trkpt lat="47.52571" lon="6.75694">
        <ele>400.7</ele>
        <time>2017-02-05T10:13:12.000Z</time>
      </trkpt>
      <trkpt lat="47.52574" lon="6.75695">
        <ele>400.6</ele>
        <time>2017-02-05T10:13:13.000Z</time>
      </trkpt>
      <trkpt lat="47.52576" lon="6.757">
        <ele>400.5</ele>
        <time>2017-02-05T10:13:14.000Z</time>
      </trkpt>
      <trkpt lat="47.52578" lon="6.75703">
        <ele>400.4</ele>
        <time>2017-02-05T10:13:15.000Z</time>
      </trkpt>
      <trkpt lat="47.5258" lon="6.75705">
        <ele>400.3</ele>
        <time>2017-02-05T10:13:16.000Z</time>
      </trkpt>
      <trkpt lat="47.52582" lon="6.75708">
        <ele>400.2</ele>
        <time>2017-02-05T10:13:17.000Z</time>
      </trkpt>
      <trkpt lat="47.52585" lon="6.75712">
        <ele>400</ele>
        <time>2017-02-05T10:13:18.000Z</time>
      </trkpt>
      <trkpt lat="47.52587" lon="6.75716">
        <ele>399.8</ele>
        <time>2017-02-05T10:13:19.000Z</time>
      </trkpt>
      <trkpt lat="47.52589" lon="6.75718">
        <ele>399.6</ele>
        <time>2017-02-05T10:13:20.000Z</time>
      </trkpt>
      <trkpt lat="47.52591" lon="6.75721">
        <ele>399.4</ele>
        <time>2017-02-05T10:13:21.000Z</time>
      </trkpt>
      <trkpt lat="47.52593" lon="6.75723">
        <ele>399.1</ele>
        <time>2017-02-05T10:13:22.000Z</time>
      </trkpt>
      <trkpt lat="47.52595" lon="6.75726">
        <ele>398.8</ele>
        <time>2017-02-05T10:13:23.000Z</time>
      </trkpt>
      <trkpt lat="47.52596" lon="6.75729">
        <ele>398.6</ele>
        <time>2017-02-05T10:13:24.000Z</time>
      </trkpt>
      <trkpt lat="47.52598" lon="6.75734">
        <ele>398.2</ele>
        <time>2017-02-05T10:13:26.000Z</time>
      </trkpt>
      <trkpt lat="47.52599" lon="6.75735">
        <ele>398</ele>
        <time>2017-02-05T10:13:27.000Z</time>
      </trkpt>
      <trkpt lat="47.52602" lon="6.75737">
        <ele>397.7</ele>
        <time>2017-02-05T10:13:29.000Z</time>
      </trkpt>
      <trkpt lat="47.52603" lon="6.7574">
        <ele>397.5</ele>
        <time>2017-02-05T10:13:30.000Z</time>
      </trkpt>
      <trkpt lat="47.52604" lon="6.75742">
        <ele>397.3</ele>
        <time>2017-02-05T10:13:31.000Z</time>
      </trkpt>
      <trkpt lat="47.52606" lon="6.75745">
        <ele>397.2</ele>
        <time>2017-02-05T10:13:32.000Z</time>
      </trkpt>
      <trkpt lat="47.52608" lon="6.75748">
        <ele>397</ele>
        <time>2017-02-05T10:13:33.000Z</time>
      </trkpt>
      <trkpt lat="47.5261" lon="6.75751">
        <ele>396.8</ele>
        <time>2017-02-05T10:13:34.000Z</time>
      </trkpt>
      <trkpt lat="47.52613" lon="6.75753">
        <ele>396.7</ele>
        <time>2017-02-05T10:13:35.000Z</time>
      </trkpt>
      <trkpt lat="47.52615" lon="6.75756">
        <ele>396.6</ele>
        <time>2017-02-05T10:13:36.000Z</time>
      </trkpt>
      <trkpt lat="47.52617" lon="6.75759">
        <ele>396.5</ele>
        <time>2017-02-05T10:13:37.000Z</time>
      </trkpt>
      <trkpt lat="47.5262" lon="6.75761">
        <ele>396.5</ele>
        <time>2017-02-05T10:13:38.000Z</time>
      </trkpt>
      <trkpt lat="47.52623" lon="6.75764">
        <ele>396.4</ele>
        <time>2017-02-05T10:13:39.000Z</time>
      </trkpt>
      <trkpt lat="47.52626" lon="6.75766">
        <ele>396.4</ele>
        <time>2017-02-05T10:13:40.000Z</time>
      </trkpt>
      <trkpt lat="47.52628" lon="6.75769">
        <ele>396.4</ele>
        <time>2017-02-05T10:13:41.000Z</time>
      </trkpt>
      <trkpt lat="47.52632" lon="6.75772">
        <ele>396.5</ele>
        <time>2017-02-05T10:13:42.000Z</time>
      </trkpt>
      <trkpt lat="47.52634" lon="6.75775">
        <ele>396.5</ele>
        <time>2017-02-05T10:13:43.000Z</time>
      </trkpt>
      <trkpt lat="47.52637" lon="6.75779">
        <ele>396.6</ele>
        <time>2017-02-05T10:13:44.000Z</time>
      </trkpt>
      <trkpt lat="47.5264" lon="6.75783">
        <ele>396.6</ele>
        <time>2017-02-05T10:13:45.000Z</time>
      </trkpt>
      <trkpt lat="47.52643" lon="6.75787">
        <ele>396.5</ele>
        <time>2017-02-05T10:13:46.000Z</time>
      </trkpt>
      <trkpt lat="47.52646" lon="6.7579">
        <ele>396.4</ele>
        <time>2017-02-05T10:13:47.000Z</time>
      </trkpt>
      <trkpt lat="47.52649" lon="6.75793">
        <ele>396.6</ele>
        <time>2017-02-05T10:13:48.000Z</time>
      </trkpt>
      <trkpt lat="47.52652" lon="6.75797">
        <ele>396.9</ele>
        <time>2017-02-05T10:13:49.000Z</time>
      </trkpt>
      <trkpt lat="47.52655" lon="6.758">
        <ele>396.9</ele>
        <time>2017-02-05T10:13:50.000Z</time>
      </trkpt>
      <trkpt lat="47.52658" lon="6.75803">
        <ele>396.9</ele>
        <time>2017-02-05T10:13:51.000Z</time>
      </trkpt>
      <trkpt lat="47.5266" lon="6.75807">
        <ele>397</ele>
        <time>2017-02-05T10:13:52.000Z</time>
      </trkpt>
      <trkpt lat="47.52663" lon="6.75812">
        <ele>397.2</ele>
        <time>2017-02-05T10:13:53.000Z</time>
      </trkpt>
      <trkpt lat="47.52665" lon="6.75816">
        <ele>398.2</ele>
        <time>2017-02-05T10:13:54.000Z</time>
      </trkpt>
      <trkpt lat="47.52668" lon="6.7582">
        <ele>398.3</ele>
        <time>2017-02-05T10:13:55.000Z</time>
      </trkpt>
      <trkpt lat="47.5267" lon="6.75824">
        <ele>398.8</ele>
        <time>2017-02-05T10:13:56.000Z</time>
      </trkpt>
      <trkpt lat="47.52672" lon="6.75829">
        <ele>398.8</ele>
        <time>2017-02-05T10:13:57.000Z</time>
      </trkpt>
      <trkpt lat="47.52674" lon="6.75833">
        <ele>398.8</ele>
        <time>2017-02-05T10:13:58.000Z</time>
      </trkpt>
      <trkpt lat="47.52676" lon="6.75836">
        <ele>398.7</ele>
        <time>2017-02-05T10:13:59.000Z</time>
      </trkpt>
      <trkpt lat="47.52678" lon="6.75841">
        <ele>398</ele>
        <time>2017-02-05T10:14:00.000Z</time>
      </trkpt>
      <trkpt lat="47.52681" lon="6.75847">
        <ele>398</ele>
        <time>2017-02-05T10:14:00.999Z</time>
      </trkpt>
      <trkpt lat="47.52683" lon="6.75851">
        <ele>397.3</ele>
        <time>2017-02-05T10:14:01.999Z</time>
      </trkpt>
      <trkpt lat="47.52685" lon="6.75855">
        <ele>397.2</ele>
        <time>2017-02-05T10:14:02.999Z</time>
      </trkpt>
      <trkpt lat="47.52687" lon="6.7586">
        <ele>397.3</ele>
        <time>2017-02-05T10:14:03.999Z</time>
      </trkpt>
      <trkpt lat="47.52689" lon="6.75865">
        <ele>397.3</ele>
        <time>2017-02-05T10:14:04.999Z</time>
      </trkpt>
      <trkpt lat="47.5269" lon="6.75869">
        <ele>397.3</ele>
        <time>2017-02-05T10:14:05.999Z</time>
      </trkpt>
      <trkpt lat="47.52692" lon="6.75873">
        <ele>397.3</ele>
        <time>2017-02-05T10:14:06.999Z</time>
      </trkpt>
      <trkpt lat="47.52693" lon="6.75877">
        <ele>397.3</ele>
        <time>2017-02-05T10:14:07.999Z</time>
      </trkpt>
      <trkpt lat="47.52694" lon="6.75882">
        <ele>397.5</ele>
        <time>2017-02-05T10:14:08.999Z</time>
      </trkpt>
      <trkpt lat="47.52695" lon="6.75885">
        <ele>398.8</ele>
        <time>2017-02-05T10:14:09.999Z</time>
      </trkpt>
      <trkpt lat="47.52697" lon="6.75891">
        <ele>398.9</ele>
        <time>2017-02-05T10:14:10.999Z</time>
      </trkpt>
      <trkpt lat="47.52698" lon="6.75896">
        <ele>399</ele>
        <time>2017-02-05T10:14:11.999Z</time>
      </trkpt>
      <trkpt lat="47.52699" lon="6.75902">
        <ele>399.1</ele>
        <time>2017-02-05T10:14:12.999Z</time>
      </trkpt>
      <trkpt lat="47.52701" lon="6.75906">
        <ele>399.1</ele>
        <time>2017-02-05T10:14:13.999Z</time>
      </trkpt>
      <trkpt lat="47.52702" lon="6.7591">
        <ele>399.2</ele>
        <time>2017-02-05T10:14:14.999Z</time>
      </trkpt>
      <trkpt lat="47.52703" lon="6.75913">
        <ele>399.3</ele>
        <time>2017-02-05T10:14:15.999Z</time>
      </trkpt>
      <trkpt lat="47.52703" lon="6.75917">
        <ele>399.4</ele>
        <time>2017-02-05T10:14:16.999Z</time>
      </trkpt>
      <trkpt lat="47.52703" lon="6.7592">
        <ele>399.4</ele>
        <time>2017-02-05T10:14:17.999Z</time>
      </trkpt>
      <trkpt lat="47.52705" lon="6.75924">
        <ele>399.4</ele>
        <time>2017-02-05T10:14:18.999Z</time>
      </trkpt>
      <trkpt lat="47.52706" lon="6.75928">
        <ele>399.5</ele>
        <time>2017-02-05T10:14:19.999Z</time>
      </trkpt>
      <trkpt lat="47.52708" lon="6.75934">
        <ele>399.6</ele>
        <time>2017-02-05T10:14:20.999Z</time>
      </trkpt>
      <trkpt lat="47.52709" lon="6.75938">
        <ele>399.6</ele>
        <time>2017-02-05T10:14:21.999Z</time>
      </trkpt>
      <trkpt lat="47.5271" lon="6.75942">
        <ele>399.7</ele>
        <time>2017-02-05T10:14:22.999Z</time>
      </trkpt>
      <trkpt lat="47.52711" lon="6.75946">
        <ele>399.8</ele>
        <time>2017-02-05T10:14:23.999Z</time>
      </trkpt>
      <trkpt lat="47.52711" lon="6.75949">
        <ele>399.9</ele>
        <time>2017-02-05T10:14:24.999Z</time>
      </trkpt>
      <trkpt lat="47.52712" lon="6.75953">
        <ele>399.9</ele>
        <time>2017-02-05T10:14:25.999Z</time>
      </trkpt>
      <trkpt lat="47.52713" lon="6.75957">
        <ele>400</ele>
        <time>2017-02-05T10:14:26.999Z</time>
      </trkpt>
      <trkpt lat="47.52714" lon="6.75961">
        <ele>400.1</ele>
        <time>2017-02-05T10:14:27.999Z</time>
      </trkpt>
      <trkpt lat="47.52715" lon="6.75966">
        <ele>400.2</ele>
        <time>2017-02-05T10:14:28.999Z</time>
      </trkpt>
      <trkpt lat="47.52717" lon="6.7597">
        <ele>400.2</ele>
        <time>2017-02-05T10:14:29.999Z</time>
      </trkpt>
      <trkpt lat="47.52718" lon="6.75973">
        <ele>400.3</ele>
        <time>2017-02-05T10:14:30.999Z</time>
      </trkpt>
      <trkpt lat="47.5272" lon="6.75976">
        <ele>400.3</ele>
        <time>2017-02-05T10:14:31.999Z</time>
      </trkpt>
      <trkpt lat="47.52722" lon="6.75979">
        <ele>400.4</ele>
        <time>2017-02-05T10:14:32.999Z</time>
      </trkpt>
      <trkpt lat="47.52725" lon="6.75981">
        <ele>400.4</ele>
        <time>2017-02-05T10:14:33.999Z</time>
      </trkpt>
      <trkpt lat="47.52726" lon="6.75982">
        <ele>400.4</ele>
        <time>2017-02-05T10:14:34.999Z</time>
      </trkpt>
      <trkpt lat="47.52729" lon="6.75983">
        <ele>400.3</ele>
        <time>2017-02-05T10:14:35.999Z</time>
      </trkpt>
      <trkpt lat="47.52731" lon="6.75984">
        <ele>400.3</ele>
        <time>2017-02-05T10:14:36.999Z</time>
      </trkpt>
      <trkpt lat="47.52733" lon="6.75985">
        <ele>400.2</ele>
        <time>2017-02-05T10:14:37.999Z</time>
      </trkpt>
      <trkpt lat="47.52736" lon="6.75986">
        <ele>400.2</ele>
        <time>2017-02-05T10:14:38.999Z</time>
      </trkpt>
      <trkpt lat="47.52738" lon="6.75986">
        <ele>400.2</ele>
        <time>2017-02-05T10:14:39.999Z</time>
      </trkpt>
      <trkpt lat="47.5274" lon="6.75986">
        <ele>400.1</ele>
        <time>2017-02-05T10:14:40.999Z</time>
      </trkpt>
      <trkpt lat="47.52743" lon="6.75986">
        <ele>400</ele>
        <time>2017-02-05T10:14:41.999Z</time>
      </trkpt>
      <trkpt lat="47.52746" lon="6.75986">
        <ele>399.9</ele>
        <time>2017-02-05T10:14:42.999Z</time>
      </trkpt>
      <trkpt lat="47.52748" lon="6.75987">
        <ele>399.8</ele>
        <time>2017-02-05T10:14:43.999Z</time>
      </trkpt>
      <trkpt lat="47.52751" lon="6.75989">
        <ele>399.8</ele>
        <time>2017-02-05T10:14:44.999Z</time>
      </trkpt>
      <trkpt lat="47.52754" lon="6.75991">
        <ele>399.8</ele>
        <time>2017-02-05T10:14:45.999Z</time>
      </trkpt>
      <trkpt lat="47.52756" lon="6.75993">
        <ele>399.8</ele>
        <time>2017-02-05T10:14:46.999Z</time>
      </trkpt>
      <trkpt lat="47.52759" lon="6.75995">
        <ele>399.7</ele>
        <time>2017-02-05T10:14:47.999Z</time>
      </trkpt>
      <trkpt lat="47.52761" lon="6.75998">
        <ele>399.7</ele>
        <time>2017-02-05T10:14:48.999Z</time>
      </trkpt>
      <trkpt lat="47.52764" lon="6.76001">
        <ele>399.7</ele>
        <time>2017-02-05T10:14:49.999Z</time>
      </trkpt>
      <trkpt lat="47.52767" lon="6.76006">
        <ele>399.7</ele>
        <time>2017-02-05T10:14:50.999Z</time>
      </trkpt>
      <trkpt lat="47.5277" lon="6.7601">
        <ele>399.8</ele>
        <time>2017-02-05T10:14:51.999Z</time>
      </trkpt>
      <trkpt lat="47.52772" lon="6.76014">
        <ele>399.8</ele>
        <time>2017-02-05T10:14:52.999Z</time>
      </trkpt>
      <trkpt lat="47.52774" lon="6.76017">
        <ele>399.9</ele>
        <time>2017-02-05T10:14:53.999Z</time>
      </trkpt>
      <trkpt lat="47.52775" lon="6.7602">
        <ele>400</ele>
        <time>2017-02-05T10:14:54.999Z</time>
      </trkpt>
      <trkpt lat="47.52777" lon="6.76023">
        <ele>400</ele>
        <time>2017-02-05T10:14:55.999Z</time>
      </trkpt>
      <trkpt lat="47.52779" lon="6.76027">
        <ele>400.1</ele>
        <time>2017-02-05T10:14:56.999Z</time>
      </trkpt>
      <trkpt lat="47.52781" lon="6.76031">
        <ele>400.2</ele>
        <time>2017-02-05T10:14:57.999Z</time>
      </trkpt>
      <trkpt lat="47.52783" lon="6.76037">
        <ele>400.2</ele>
        <time>2017-02-05T10:14:58.999Z</time>
      </trkpt>
      <trkpt lat="47.52784" lon="6.76041">
        <ele>400.3</ele>
        <time>2017-02-05T10:14:59.999Z</time>
      </trkpt>
      <trkpt lat="47.52785" lon="6.76045">
        <ele>400.4</ele>
        <time>2017-02-05T10:15:00.999Z</time>
      </trkpt>
      <trkpt lat="47.52786" lon="6.76048">
        <ele>400.5</ele>
        <time>2017-02-05T10:15:01.999Z</time>
      </trkpt>
      <trkpt lat="47.52788" lon="6.76052">
        <ele>400.5</ele>
        <time>2017-02-05T10:15:02.999Z</time>
      </trkpt>
      <trkpt lat="47.52789" lon="6.76056">
        <ele>400.5</ele>
        <time>2017-02-05T10:15:03.999Z</time>
      </trkpt>
      <trkpt lat="47.5279" lon="6.76062">
        <ele>400.6</ele>
        <time>2017-02-05T10:15:04.999Z</time>
      </trkpt>
      <trkpt lat="47.52792" lon="6.76067">
        <ele>400.7</ele>
        <time>2017-02-05T10:15:05.999Z</time>
      </trkpt>
      <trkpt lat="47.52793" lon="6.76072">
        <ele>400.7</ele>
        <time>2017-02-05T10:15:06.999Z</time>
      </trkpt>
      <trkpt lat="47.52794" lon="6.76077">
        <ele>400.8</ele>
        <time>2017-02-05T10:15:07.999Z</time>
      </trkpt>
      <trkpt lat="47.52795" lon="6.76082">
        <ele>400.8</ele>
        <time>2017-02-05T10:15:08.999Z</time>
      </trkpt>
      <trkpt lat="47.52796" lon="6.76086">
        <ele>400.9</ele>
        <time>2017-02-05T10:15:09.999Z</time>
      </trkpt>
      <trkpt lat="47.52796" lon="6.76089">
        <ele>400.8</ele>
        <time>2017-02-05T10:15:10.999Z</time>
      </trkpt>
      <trkpt lat="47.52797" lon="6.76094">
        <ele>400.8</ele>
        <time>2017-02-05T10:15:11.999Z</time>
      </trkpt>
      <trkpt lat="47.52798" lon="6.76098">
        <ele>400.9</ele>
        <time>2017-02-05T10:15:12.999Z</time>
      </trkpt>
      <trkpt lat="47.528" lon="6.76102">
        <ele>401</ele>
        <time>2017-02-05T10:15:13.999Z</time>
      </trkpt>
      <trkpt lat="47.52801" lon="6.76107">
        <ele>401.1</ele>
        <time>2017-02-05T10:15:14.999Z</time>
      </trkpt>
      <trkpt lat="47.52803" lon="6.76112">
        <ele>401.1</ele>
        <time>2017-02-05T10:15:15.999Z</time>
      </trkpt>
      <trkpt lat="47.52804" lon="6.76115">
        <ele>401.2</ele>
        <time>2017-02-05T10:15:16.999Z</time>
      </trkpt>
      <trkpt lat="47.52805" lon="6.76119">
        <ele>401.2</ele>
        <time>2017-02-05T10:15:17.999Z</time>
      </trkpt>
      <trkpt lat="47.52807" lon="6.76123">
        <ele>401.3</ele>
        <time>2017-02-05T10:15:18.999Z</time>
      </trkpt>
      <trkpt lat="47.52808" lon="6.76127">
        <ele>401.4</ele>
        <time>2017-02-05T10:15:19.999Z</time>
      </trkpt>
      <trkpt lat="47.5281" lon="6.76131">
        <ele>401.4</ele>
        <time>2017-02-05T10:15:20.999Z</time>
      </trkpt>
      <trkpt lat="47.52812" lon="6.76136">
        <ele>401.4</ele>
        <time>2017-02-05T10:15:21.999Z</time>
      </trkpt>
      <trkpt lat="47.52813" lon="6.76141">
        <ele>401.5</ele>
        <time>2017-02-05T10:15:22.999Z</time>
      </trkpt>
      <trkpt lat="47.52814" lon="6.76147">
        <ele>401.5</ele>
        <time>2017-02-05T10:15:23.999Z</time>
      </trkpt>
      <trkpt lat="47.52815" lon="6.76151">
        <ele>401.6</ele>
        <time>2017-02-05T10:15:24.999Z</time>
      </trkpt>
      <trkpt lat="47.52816" lon="6.76155">
        <ele>401.6</ele>
        <time>2017-02-05T10:15:25.999Z</time>
      </trkpt>
      <trkpt lat="47.52817" lon="6.76159">
        <ele>401.6</ele>
        <time>2017-02-05T10:15:26.999Z</time>
      </trkpt>
      <trkpt lat="47.52818" lon="6.76161">
        <ele>401.7</ele>
        <time>2017-02-05T10:15:27.999Z</time>
      </trkpt>
      <trkpt lat="47.52819" lon="6.76165">
        <ele>401.7</ele>
        <time>2017-02-05T10:15:28.999Z</time>
      </trkpt>
      <trkpt lat="47.5282" lon="6.76169">
        <ele>401.8</ele>
        <time>2017-02-05T10:15:29.999Z</time>
      </trkpt>
      <trkpt lat="47.52822" lon="6.76174">
        <ele>401.8</ele>
        <time>2017-02-05T10:15:30.999Z</time>
      </trkpt>
      <trkpt lat="47.52824" lon="6.76178">
        <ele>401.9</ele>
        <time>2017-02-05T10:15:31.999Z</time>
      </trkpt>
      <trkpt lat="47.52825" lon="6.76182">
        <ele>402</ele>
        <time>2017-02-05T10:15:32.999Z</time>
      </trkpt>
      <trkpt lat="47.52826" lon="6.76186">
        <ele>402.1</ele>
        <time>2017-02-05T10:15:33.999Z</time>
      </trkpt>
      <trkpt lat="47.52828" lon="6.7619">
        <ele>402.3</ele>
        <time>2017-02-05T10:15:34.999Z</time>
      </trkpt>
      <trkpt lat="47.52829" lon="6.76194">
        <ele>402.4</ele>
        <time>2017-02-05T10:15:35.999Z</time>
      </trkpt>
      <trkpt lat="47.5283" lon="6.762">
        <ele>402.5</ele>
        <time>2017-02-05T10:15:36.999Z</time>
      </trkpt>
      <trkpt lat="47.52831" lon="6.76204">
        <ele>402.6</ele>
        <time>2017-02-05T10:15:37.999Z</time>
      </trkpt>
      <trkpt lat="47.52833" lon="6.76209">
        <ele>402.6</ele>
        <time>2017-02-05T10:15:38.999Z</time>
      </trkpt>
      <trkpt lat="47.52834" lon="6.76213">
        <ele>402.7</ele>
        <time>2017-02-05T10:15:39.999Z</time>
      </trkpt>
      <trkpt lat="47.52835" lon="6.76217">
        <ele>402.8</ele>
        <time>2017-02-05T10:15:40.999Z</time>
      </trkpt>
      <trkpt lat="47.52835" lon="6.76221">
        <ele>402.8</ele>
        <time>2017-02-05T10:15:41.999Z</time>
      </trkpt>
      <trkpt lat="47.52836" lon="6.76226">
        <ele>402.9</ele>
        <time>2017-02-05T10:15:42.999Z</time>
      </trkpt>
      <trkpt lat="47.52837" lon="6.76231">
        <ele>402.9</ele>
        <time>2017-02-05T10:15:43.999Z</time>
      </trkpt>
      <trkpt lat="47.52838" lon="6.76235">
        <ele>403</ele>
        <time>2017-02-05T10:15:44.999Z</time>
      </trkpt>
      <trkpt lat="47.52839" lon="6.76239">
        <ele>403.1</ele>
        <time>2017-02-05T10:15:45.999Z</time>
      </trkpt>
      <trkpt lat="47.5284" lon="6.76243">
        <ele>403.2</ele>
        <time>2017-02-05T10:15:46.999Z</time>
      </trkpt>
      <trkpt lat="47.52842" lon="6.76248">
        <ele>403.3</ele>
        <time>2017-02-05T10:15:47.999Z</time>
      </trkpt>
      <trkpt lat="47.52844" lon="6.76252">
        <ele>403.3</ele>
        <time>2017-02-05T10:15:48.999Z</time>
      </trkpt>
      <trkpt lat="47.52845" lon="6.76256">
        <ele>403.5</ele>
        <time>2017-02-05T10:15:49.999Z</time>
      </trkpt>
      <trkpt lat="47.52846" lon="6.7626">
        <ele>403.6</ele>
        <time>2017-02-05T10:15:50.999Z</time>
      </trkpt>
      <trkpt lat="47.52848" lon="6.76265">
        <ele>403.8</ele>
        <time>2017-02-05T10:15:51.999Z</time>
      </trkpt>
      <trkpt lat="47.5285" lon="6.7627">
        <ele>404.6</ele>
        <time>2017-02-05T10:15:52.999Z</time>
      </trkpt>
      <trkpt lat="47.52851" lon="6.76274">
        <ele>404.9</ele>
        <time>2017-02-05T10:15:53.999Z</time>
      </trkpt>
      <trkpt lat="47.52853" lon="6.7628">
        <ele>405.4</ele>
        <time>2017-02-05T10:15:54.999Z</time>
      </trkpt>
      <trkpt lat="47.52855" lon="6.76286">
        <ele>405.8</ele>
        <time>2017-02-05T10:15:55.999Z</time>
      </trkpt>
      <trkpt lat="47.52857" lon="6.76292">
        <ele>405.4</ele>
        <time>2017-02-05T10:15:56.999Z</time>
      </trkpt>
      <trkpt lat="47.52859" lon="6.76298">
        <ele>404.5</ele>
        <time>2017-02-05T10:15:57.999Z</time>
      </trkpt>
      <trkpt lat="47.5286" lon="6.76303">
        <ele>403.5</ele>
        <time>2017-02-05T10:15:58.999Z</time>
      </trkpt>
      <trkpt lat="47.52863" lon="6.76309">
        <ele>403</ele>
        <time>2017-02-05T10:15:59.999Z</time>
      </trkpt>
      <trkpt lat="47.52865" lon="6.76315">
        <ele>403.3</ele>
        <time>2017-02-05T10:16:00.999Z</time>
      </trkpt>
      <trkpt lat="47.52867" lon="6.76321">
        <ele>403.2</ele>
        <time>2017-02-05T10:16:01.999Z</time>
      </trkpt>
      <trkpt lat="47.52869" lon="6.76327">
        <ele>402.6</ele>
        <time>2017-02-05T10:16:02.999Z</time>
      </trkpt>
      <trkpt lat="47.52871" lon="6.76332">
        <ele>401.8</ele>
        <time>2017-02-05T10:16:03.999Z</time>
      </trkpt>
      <trkpt lat="47.52873" lon="6.76339">
        <ele>401.8</ele>
        <time>2017-02-05T10:16:04.999Z</time>
      </trkpt>
      <trkpt lat="47.52875" lon="6.76344">
        <ele>401.6</ele>
        <time>2017-02-05T10:16:05.999Z</time>
      </trkpt>
      <trkpt lat="47.52876" lon="6.76349">
        <ele>401.7</ele>
        <time>2017-02-05T10:16:06.999Z</time>
      </trkpt>
      <trkpt lat="47.52879" lon="6.76356">
        <ele>401.9</ele>
        <time>2017-02-05T10:16:07.999Z</time>
      </trkpt>
      <trkpt lat="47.5288" lon="6.76362">
        <ele>401.2</ele>
        <time>2017-02-05T10:16:08.999Z</time>
      </trkpt>
      <trkpt lat="47.52882" lon="6.76368">
        <ele>401</ele>
        <time>2017-02-05T10:16:09.999Z</time>
      </trkpt>
      <trkpt lat="47.52884" lon="6.76375">
        <ele>401.1</ele>
        <time>2017-02-05T10:16:10.999Z</time>
      </trkpt>
      <trkpt lat="47.52886" lon="6.76381">
        <ele>400.3</ele>
        <time>2017-02-05T10:16:11.999Z</time>
      </trkpt>
      <trkpt lat="47.52887" lon="6.76386">
        <ele>399.1</ele>
        <time>2017-02-05T10:16:12.999Z</time>
      </trkpt>
      <trkpt lat="47.52889" lon="6.76393">
        <ele>398.5</ele>
        <time>2017-02-05T10:16:13.999Z</time>
      </trkpt>
      <trkpt lat="47.52891" lon="6.76399">
        <ele>397.8</ele>
        <time>2017-02-05T10:16:14.999Z</time>
      </trkpt>
      <trkpt lat="47.52892" lon="6.76406">
        <ele>398.2</ele>
        <time>2017-02-05T10:16:15.999Z</time>
      </trkpt>
      <trkpt lat="47.52894" lon="6.76412">
        <ele>398.8</ele>
        <time>2017-02-05T10:16:16.999Z</time>
      </trkpt>
      <trkpt lat="47.52896" lon="6.76417">
        <ele>399.5</ele>
        <time>2017-02-05T10:16:17.999Z</time>
      </trkpt>
      <trkpt lat="47.52898" lon="6.76424">
        <ele>399.6</ele>
        <time>2017-02-05T10:16:18.999Z</time>
      </trkpt>
      <trkpt lat="47.529" lon="6.76432">
        <ele>400.4</ele>
        <time>2017-02-05T10:16:19.999Z</time>
      </trkpt>
      <trkpt lat="47.52901" lon="6.76436">
        <ele>401.7</ele>
        <time>2017-02-05T10:16:20.999Z</time>
      </trkpt>
      <trkpt lat="47.52903" lon="6.76443">
        <ele>402.2</ele>
        <time>2017-02-05T10:16:21.999Z</time>
      </trkpt>
      <trkpt lat="47.52905" lon="6.76448">
        <ele>402.9</ele>
        <time>2017-02-05T10:16:22.999Z</time>
      </trkpt>
      <trkpt lat="47.52907" lon="6.76455">
        <ele>404.2</ele>
        <time>2017-02-05T10:16:23.999Z</time>
      </trkpt>
      <trkpt lat="47.52909" lon="6.76461">
        <ele>404.9</ele>
        <time>2017-02-05T10:16:24.999Z</time>
      </trkpt>
      <trkpt lat="47.5291" lon="6.76466">
        <ele>405.6</ele>
        <time>2017-02-05T10:16:25.999Z</time>
      </trkpt>
      <trkpt lat="47.52912" lon="6.76473">
        <ele>405.7</ele>
        <time>2017-02-05T10:16:26.999Z</time>
      </trkpt>
      <trkpt lat="47.52914" lon="6.76477">
        <ele>405.7</ele>
        <time>2017-02-05T10:16:27.999Z</time>
      </trkpt>
      <trkpt lat="47.52916" lon="6.76482">
        <ele>405.8</ele>
        <time>2017-02-05T10:16:28.999Z</time>
      </trkpt>
      <trkpt lat="47.52918" lon="6.76488">
        <ele>405.8</ele>
        <time>2017-02-05T10:16:29.999Z</time>
      </trkpt>
      <trkpt lat="47.5292" lon="6.76492">
        <ele>405.9</ele>
        <time>2017-02-05T10:16:30.999Z</time>
      </trkpt>
      <trkpt lat="47.5292" lon="6.76495">
        <ele>405.9</ele>
        <time>2017-02-05T10:16:31.999Z</time>
      </trkpt>
      <trkpt lat="47.52922" lon="6.76501">
        <ele>405.8</ele>
        <time>2017-02-05T10:16:33.999Z</time>
      </trkpt>
      <trkpt lat="47.52923" lon="6.76505">
        <ele>405.9</ele>
        <time>2017-02-05T10:16:34.999Z</time>
      </trkpt>
      <trkpt lat="47.52924" lon="6.76509">
        <ele>406</ele>
        <time>2017-02-05T10:16:35.999Z</time>
      </trkpt>
      <trkpt lat="47.52925" lon="6.76513">
        <ele>406.1</ele>
        <time>2017-02-05T10:16:36.999Z</time>
      </trkpt>
      <trkpt lat="47.52925" lon="6.76518">
        <ele>406.4</ele>
        <time>2017-02-05T10:16:38.999Z</time>
      </trkpt>
      <trkpt lat="47.52925" lon="6.76522">
        <ele>406.5</ele>
        <time>2017-02-05T10:16:39.999Z</time>
      </trkpt>
      <trkpt lat="47.52925" lon="6.76527">
        <ele>406.6</ele>
        <time>2017-02-05T10:16:40.999Z</time>
      </trkpt>
      <trkpt lat="47.52924" lon="6.76531">
        <ele>406.8</ele>
        <time>2017-02-05T10:16:41.999Z</time>
      </trkpt>
      <trkpt lat="47.52924" lon="6.76534">
        <ele>406.8</ele>
        <time>2017-02-05T10:16:42.999Z</time>
      </trkpt>
      <trkpt lat="47.52924" lon="6.76538">
        <ele>406.8</ele>
        <time>2017-02-05T10:16:43.999Z</time>
      </trkpt>
      <trkpt lat="47.52924" lon="6.76542">
        <ele>406.8</ele>
        <time>2017-02-05T10:16:44.999Z</time>
      </trkpt>
      <trkpt lat="47.52924" lon="6.76544">
        <ele>406.9</ele>
        <time>2017-02-05T10:16:45.999Z</time>
      </trkpt>
      <trkpt lat="47.52925" lon="6.76548">
        <ele>407</ele>
        <time>2017-02-05T10:16:46.999Z</time>
      </trkpt>
      <trkpt lat="47.52925" lon="6.76551">
        <ele>407</ele>
        <time>2017-02-05T10:16:47.999Z</time>
      </trkpt>
      <trkpt lat="47.52926" lon="6.76555">
        <ele>407</ele>
        <time>2017-02-05T10:16:48.999Z</time>
      </trkpt>
      <trkpt lat="47.52926" lon="6.76561">
        <ele>407</ele>
        <time>2017-02-05T10:16:49.999Z</time>
      </trkpt>
      <trkpt lat="47.52925" lon="6.76569">
        <ele>407</ele>
        <time>2017-02-05T10:16:50.999Z</time>
      </trkpt>
      <trkpt lat="47.52926" lon="6.76575">
        <ele>407</ele>
        <time>2017-02-05T10:16:51.999Z</time>
      </trkpt>
      <trkpt lat="47.52927" lon="6.76582">
        <ele>407.1</ele>
        <time>2017-02-05T10:16:52.999Z</time>
      </trkpt>
      <trkpt lat="47.52928" lon="6.76589">
        <ele>407.2</ele>
        <time>2017-02-05T10:16:53.999Z</time>
      </trkpt>
      <trkpt lat="47.52928" lon="6.76595">
        <ele>407.3</ele>
        <time>2017-02-05T10:16:54.999Z</time>
      </trkpt>
      <trkpt lat="47.5293" lon="6.766">
        <ele>407.5</ele>
        <time>2017-02-05T10:16:55.999Z</time>
      </trkpt>
      <trkpt lat="47.52931" lon="6.76604">
        <ele>407.7</ele>
        <time>2017-02-05T10:16:56.999Z</time>
      </trkpt>
      <trkpt lat="47.52932" lon="6.7661">
        <ele>407.8</ele>
        <time>2017-02-05T10:16:57.999Z</time>
      </trkpt>
      <trkpt lat="47.52932" lon="6.76617">
        <ele>408</ele>
        <time>2017-02-05T10:16:58.999Z</time>
      </trkpt>
      <trkpt lat="47.52933" lon="6.76622">
        <ele>408.2</ele>
        <time>2017-02-05T10:16:59.999Z</time>
      </trkpt>
      <trkpt lat="47.52933" lon="6.76627">
        <ele>408.4</ele>
        <time>2017-02-05T10:17:00.999Z</time>
      </trkpt>
      <trkpt lat="47.52932" lon="6.76632">
        <ele>408.6</ele>
        <time>2017-02-05T10:17:01.999Z</time>
      </trkpt>
      <trkpt lat="47.52932" lon="6.76636">
        <ele>408.8</ele>
        <time>2017-02-05T10:17:02.999Z</time>
      </trkpt>
      <trkpt lat="47.52932" lon="6.76641">
        <ele>409.1</ele>
        <time>2017-02-05T10:17:03.999Z</time>
      </trkpt>
      <trkpt lat="47.52932" lon="6.76647">
        <ele>409.4</ele>
        <time>2017-02-05T10:17:04.999Z</time>
      </trkpt>
      <trkpt lat="47.52932" lon="6.7665">
        <ele>409.7</ele>
        <time>2017-02-05T10:17:05.999Z</time>
      </trkpt>
      <trkpt lat="47.52934" lon="6.76654">
        <ele>410.1</ele>
        <time>2017-02-05T10:17:07.999Z</time>
      </trkpt>
      <trkpt lat="47.52935" lon="6.76657">
        <ele>410.2</ele>
        <time>2017-02-05T10:17:08.999Z</time>
      </trkpt>
      <trkpt lat="47.52937" lon="6.76661">
        <ele>410.3</ele>
        <time>2017-02-05T10:17:09.999Z</time>
      </trkpt>
      <trkpt lat="47.52938" lon="6.76665">
        <ele>410.4</ele>
        <time>2017-02-05T10:17:10.999Z</time>
      </trkpt>
      <trkpt lat="47.5294" lon="6.7667">
        <ele>410.5</ele>
        <time>2017-02-05T10:17:12.999Z</time>
      </trkpt>
      <trkpt lat="47.52941" lon="6.76675">
        <ele>410.7</ele>
        <time>2017-02-05T10:17:13.999Z</time>
      </trkpt>
      <trkpt lat="47.52941" lon="6.7668">
        <ele>410.7</ele>
        <time>2017-02-05T10:17:14.999Z</time>
      </trkpt>
      <trkpt lat="47.52941" lon="6.76684">
        <ele>410.8</ele>
        <time>2017-02-05T10:17:15.999Z</time>
      </trkpt>
      <trkpt lat="47.5294" lon="6.76688">
        <ele>410.9</ele>
        <time>2017-02-05T10:17:16.999Z</time>
      </trkpt>
      <trkpt lat="47.5294" lon="6.76692">
        <ele>411</ele>
        <time>2017-02-05T10:17:17.999Z</time>
      </trkpt>
      <trkpt lat="47.52939" lon="6.76697">
        <ele>411.1</ele>
        <time>2017-02-05T10:17:18.999Z</time>
      </trkpt>
      <trkpt lat="47.52938" lon="6.76701">
        <ele>411.3</ele>
        <time>2017-02-05T10:17:19.999Z</time>
      </trkpt>
      <trkpt lat="47.52936" lon="6.76706">
        <ele>411.4</ele>
        <time>2017-02-05T10:17:20.999Z</time>
      </trkpt>
      <trkpt lat="47.52935" lon="6.76711">
        <ele>411.5</ele>
        <time>2017-02-05T10:17:21.999Z</time>
      </trkpt>
      <trkpt lat="47.52935" lon="6.76713">
        <ele>411.6</ele>
        <time>2017-02-05T10:17:22.999Z</time>
      </trkpt>
      <trkpt lat="47.52934" lon="6.76718">
        <ele>411.7</ele>
        <time>2017-02-05T10:17:23.999Z</time>
      </trkpt>
      <trkpt lat="47.52933" lon="6.76725">
        <ele>411.7</ele>
        <time>2017-02-05T10:17:24.999Z</time>
      </trkpt>
      <trkpt lat="47.52931" lon="6.76732">
        <ele>411.9</ele>
        <time>2017-02-05T10:17:25.999Z</time>
      </trkpt>
      <trkpt lat="47.52929" lon="6.76739">
        <ele>412</ele>
        <time>2017-02-05T10:17:26.999Z</time>
      </trkpt>
      <trkpt lat="47.52929" lon="6.76745">
        <ele>412.1</ele>
        <time>2017-02-05T10:17:27.999Z</time>
      </trkpt>
      <trkpt lat="47.52928" lon="6.76752">
        <ele>412</ele>
        <time>2017-02-05T10:17:28.999Z</time>
      </trkpt>
      <trkpt lat="47.52926" lon="6.76758">
        <ele>411.9</ele>
        <time>2017-02-05T10:17:30.999Z</time>
      </trkpt>
      <trkpt lat="47.52924" lon="6.76761">
        <ele>412</ele>
        <time>2017-02-05T10:17:31.999Z</time>
      </trkpt>
      <trkpt lat="47.5292" lon="6.76767">
        <ele>411.9</ele>
        <time>2017-02-05T10:17:32.999Z</time>
      </trkpt>
      <trkpt lat="47.52918" lon="6.7677">
        <ele>411.9</ele>
        <time>2017-02-05T10:17:33.999Z</time>
      </trkpt>
      <trkpt lat="47.52916" lon="6.76773">
        <ele>411.9</ele>
        <time>2017-02-05T10:17:34.999Z</time>
      </trkpt>
      <trkpt lat="47.52915" lon="6.76776">
        <ele>411.9</ele>
        <time>2017-02-05T10:17:35.999Z</time>
      </trkpt>
      <trkpt lat="47.52914" lon="6.7678">
        <ele>412</ele>
        <time>2017-02-05T10:17:36.999Z</time>
      </trkpt>
      <trkpt lat="47.52913" lon="6.76786">
        <ele>412</ele>
        <time>2017-02-05T10:17:37.999Z</time>
      </trkpt>
      <trkpt lat="47.52912" lon="6.76792">
        <ele>412.1</ele>
        <time>2017-02-05T10:17:38.999Z</time>
      </trkpt>
      <trkpt lat="47.5291" lon="6.76797">
        <ele>412.2</ele>
        <time>2017-02-05T10:17:40.999Z</time>
      </trkpt>
      <trkpt lat="47.52908" lon="6.76802">
        <ele>412.4</ele>
        <time>2017-02-05T10:17:41.999Z</time>
      </trkpt>
      <trkpt lat="47.52906" lon="6.76807">
        <ele>412.6</ele>
        <time>2017-02-05T10:17:43.999Z</time>
      </trkpt>
      <trkpt lat="47.52905" lon="6.76809">
        <ele>412.8</ele>
        <time>2017-02-05T10:17:44.999Z</time>
      </trkpt>
      <trkpt lat="47.52903" lon="6.7681">
        <ele>413.1</ele>
        <time>2017-02-05T10:17:46.999Z</time>
      </trkpt>
      <trkpt lat="47.52901" lon="6.76812">
        <ele>413.1</ele>
        <time>2017-02-05T10:17:47.999Z</time>
      </trkpt>
      <trkpt lat="47.52897" lon="6.76811">
        <ele>413.3</ele>
        <time>2017-02-05T10:17:50.999Z</time>
      </trkpt>
      <trkpt lat="47.52895" lon="6.76812">
        <ele>413.4</ele>
        <time>2017-02-05T10:17:51.999Z</time>
      </trkpt>
      <trkpt lat="47.52892" lon="6.76815">
        <ele>413.6</ele>
        <time>2017-02-05T10:17:55.999Z</time>
      </trkpt>
      <trkpt lat="47.52891" lon="6.76816">
        <ele>413.5</ele>
        <time>2017-02-05T10:17:56.999Z</time>
      </trkpt>
      <trkpt lat="47.52888" lon="6.76816">
        <ele>413.5</ele>
        <time>2017-02-05T10:17:58.999Z</time>
      </trkpt>
      <trkpt lat="47.52886" lon="6.76817">
        <ele>413.6</ele>
        <time>2017-02-05T10:17:59.999Z</time>
      </trkpt>
      <trkpt lat="47.52882" lon="6.76818">
        <ele>413.6</ele>
        <time>2017-02-05T10:18:01.999Z</time>
      </trkpt>
      <trkpt lat="47.5288" lon="6.76819">
        <ele>413.6</ele>
        <time>2017-02-05T10:18:02.999Z</time>
      </trkpt>
      <trkpt lat="47.52876" lon="6.7682">
        <ele>413.5</ele>
        <time>2017-02-05T10:18:05.999Z</time>
      </trkpt>
      <trkpt lat="47.52874" lon="6.7682">
        <ele>413.5</ele>
        <time>2017-02-05T10:18:06.999Z</time>
      </trkpt>
      <trkpt lat="47.52871" lon="6.76821">
        <ele>413.7</ele>
        <time>2017-02-05T10:18:07.999Z</time>
      </trkpt>
      <trkpt lat="47.52868" lon="6.76821">
        <ele>413.7</ele>
        <time>2017-02-05T10:18:08.999Z</time>
      </trkpt>
      <trkpt lat="47.52864" lon="6.76822">
        <ele>414</ele>
        <time>2017-02-05T10:18:10.999Z</time>
      </trkpt>
      <trkpt lat="47.52862" lon="6.76823">
        <ele>414.2</ele>
        <time>2017-02-05T10:18:11.999Z</time>
      </trkpt>
      <trkpt lat="47.5286" lon="6.76823">
        <ele>414.5</ele>
        <time>2017-02-05T10:18:12.999Z</time>
      </trkpt>
      <trkpt lat="47.52857" lon="6.76823">
        <ele>414.6</ele>
        <time>2017-02-05T10:18:13.999Z</time>
      </trkpt>
      <trkpt lat="47.52853" lon="6.76825">
        <ele>415</ele>
        <time>2017-02-05T10:18:15.999Z</time>
      </trkpt>
      <trkpt lat="47.52852" lon="6.76826">
        <ele>415.2</ele>
        <time>2017-02-05T10:18:16.999Z</time>
      </trkpt>
      <trkpt lat="47.52849" lon="6.76828">
        <ele>415.6</ele>
        <time>2017-02-05T10:18:20.999Z</time>
      </trkpt>
      <trkpt lat="47.52847" lon="6.76829">
        <ele>415.6</ele>
        <time>2017-02-05T10:18:21.999Z</time>
      </trkpt>
      <trkpt lat="47.52844" lon="6.76831">
        <ele>415.7</ele>
        <time>2017-02-05T10:18:24.999Z</time>
      </trkpt>
      <trkpt lat="47.52842" lon="6.76831">
        <ele>415.7</ele>
        <time>2017-02-05T10:18:25.999Z</time>
      </trkpt>
      <trkpt lat="47.52839" lon="6.76833">
        <ele>416</ele>
        <time>2017-02-05T10:18:27.999Z</time>
      </trkpt>
      <trkpt lat="47.52837" lon="6.76834">
        <ele>416.1</ele>
        <time>2017-02-05T10:18:28.999Z</time>
      </trkpt>
      <trkpt lat="47.52833" lon="6.76836">
        <ele>416.2</ele>
        <time>2017-02-05T10:18:30.999Z</time>
      </trkpt>
      <trkpt lat="47.52832" lon="6.76837">
        <ele>416.2</ele>
        <time>2017-02-05T10:18:31.999Z</time>
      </trkpt>
      <trkpt lat="47.52828" lon="6.76838">
        <ele>416.5</ele>
        <time>2017-02-05T10:18:34.999Z</time>
      </trkpt>
      <trkpt lat="47.52827" lon="6.76838">
        <ele>416.5</ele>
        <time>2017-02-05T10:18:35.999Z</time>
      </trkpt>
      <trkpt lat="47.52824" lon="6.76839">
        <ele>416.6</ele>
        <time>2017-02-05T10:18:37.999Z</time>
      </trkpt>
      <trkpt lat="47.52822" lon="6.7684">
        <ele>416.7</ele>
        <time>2017-02-05T10:18:38.999Z</time>
      </trkpt>
      <trkpt lat="47.52818" lon="6.76843">
        <ele>417</ele>
        <time>2017-02-05T10:18:41.999Z</time>
      </trkpt>
      <trkpt lat="47.52817" lon="6.76843">
        <ele>417.2</ele>
        <time>2017-02-05T10:18:42.999Z</time>
      </trkpt>
      <trkpt lat="47.52814" lon="6.76845">
        <ele>417.7</ele>
        <time>2017-02-05T10:18:45.999Z</time>
      </trkpt>
      <trkpt lat="47.52813" lon="6.76845">
        <ele>417.9</ele>
        <time>2017-02-05T10:18:46.999Z</time>
      </trkpt>
      <trkpt lat="47.52809" lon="6.76846">
        <ele>418.3</ele>
        <time>2017-02-05T10:18:49.999Z</time>
      </trkpt>
      <trkpt lat="47.52808" lon="6.76846">
        <ele>418.5</ele>
        <time>2017-02-05T10:18:50.999Z</time>
      </trkpt>
      <trkpt lat="47.52804" lon="6.76847">
        <ele>418.7</ele>
        <time>2017-02-05T10:18:52.999Z</time>
      </trkpt>
      <trkpt lat="47.52802" lon="6.76848">
        <ele>418.8</ele>
        <time>2017-02-05T10:18:53.999Z</time>
      </trkpt>
      <trkpt lat="47.52799" lon="6.76848">
        <ele>419</ele>
        <time>2017-02-05T10:18:55.999Z</time>
      </trkpt>
      <trkpt lat="47.52797" lon="6.76848">
        <ele>419.1</ele>
        <time>2017-02-05T10:18:56.999Z</time>
      </trkpt>
      <trkpt lat="47.52795" lon="6.76848">
        <ele>419.2</ele>
        <time>2017-02-05T10:18:57.999Z</time>
      </trkpt>
      <trkpt lat="47.52793" lon="6.76849">
        <ele>419.4</ele>
        <time>2017-02-05T10:18:58.999Z</time>
      </trkpt>
      <trkpt lat="47.52789" lon="6.7685">
        <ele>419.9</ele>
        <time>2017-02-05T10:19:02.999Z</time>
      </trkpt>
      <trkpt lat="47.52787" lon="6.76851">
        <ele>420</ele>
        <time>2017-02-05T10:19:03.999Z</time>
      </trkpt>
      <trkpt lat="47.52783" lon="6.76852">
        <ele>419.9</ele>
        <time>2017-02-05T10:19:06.999Z</time>
      </trkpt>
      <trkpt lat="47.52782" lon="6.76853">
        <ele>420</ele>
        <time>2017-02-05T10:19:07.999Z</time>
      </trkpt>
      <trkpt lat="47.52778" lon="6.76855">
        <ele>420.2</ele>
        <time>2017-02-05T10:19:09.999Z</time>
      </trkpt>
      <trkpt lat="47.52776" lon="6.76856">
        <ele>420.3</ele>
        <time>2017-02-05T10:19:10.999Z</time>
      </trkpt>
      <trkpt lat="47.52773" lon="6.76859">
        <ele>421.2</ele>
        <time>2017-02-05T10:19:15.999Z</time>
      </trkpt>
      <trkpt lat="47.52771" lon="6.7686">
        <ele>421.3</ele>
        <time>2017-02-05T10:19:16.999Z</time>
      </trkpt>
      <trkpt lat="47.52767" lon="6.7686">
        <ele>422.2</ele>
        <time>2017-02-05T10:19:20.999Z</time>
      </trkpt>
      <trkpt lat="47.52765" lon="6.76861">
        <ele>422.4</ele>
        <time>2017-02-05T10:19:21.999Z</time>
      </trkpt>
      <trkpt lat="47.52762" lon="6.76862">
        <ele>422.7</ele>
        <time>2017-02-05T10:19:23.999Z</time>
      </trkpt>
      <trkpt lat="47.5276" lon="6.76862">
        <ele>422.8</ele>
        <time>2017-02-05T10:19:24.999Z</time>
      </trkpt>
      <trkpt lat="47.52758" lon="6.76862">
        <ele>423</ele>
        <time>2017-02-05T10:19:25.999Z</time>
      </trkpt>
      <trkpt lat="47.52755" lon="6.76864">
        <ele>423.1</ele>
        <time>2017-02-05T10:19:26.999Z</time>
      </trkpt>
      <trkpt lat="47.52751" lon="6.76865">
        <ele>423.6</ele>
        <time>2017-02-05T10:19:28.999Z</time>
      </trkpt>
      <trkpt lat="47.52749" lon="6.76865">
        <ele>423.8</ele>
        <time>2017-02-05T10:19:29.999Z</time>
      </trkpt>
      <trkpt lat="47.52747" lon="6.76866">
        <ele>423.9</ele>
        <time>2017-02-05T10:19:30.999Z</time>
      </trkpt>
      <trkpt lat="47.52744" lon="6.76866">
        <ele>424</ele>
        <time>2017-02-05T10:19:31.999Z</time>
      </trkpt>
      <trkpt lat="47.52741" lon="6.76867">
        <ele>424.3</ele>
        <time>2017-02-05T10:19:33.999Z</time>
      </trkpt>
      <trkpt lat="47.52739" lon="6.76868">
        <ele>424.4</ele>
        <time>2017-02-05T10:19:34.999Z</time>
      </trkpt>
      <trkpt lat="47.52736" lon="6.76869">
        <ele>425</ele>
        <time>2017-02-05T10:19:38.999Z</time>
      </trkpt>
      <trkpt lat="47.52734" lon="6.7687">
        <ele>425.1</ele>
        <time>2017-02-05T10:19:39.999Z</time>
      </trkpt>
      <trkpt lat="47.52732" lon="6.76872">
        <ele>425.3</ele>
        <time>2017-02-05T10:19:41.999Z</time>
      </trkpt>
      <trkpt lat="47.5273" lon="6.76872">
        <ele>425.3</ele>
        <time>2017-02-05T10:19:42.999Z</time>
      </trkpt>
      <trkpt lat="47.52727" lon="6.76875">
        <ele>425.5</ele>
        <time>2017-02-05T10:19:45.999Z</time>
      </trkpt>
      <trkpt lat="47.52725" lon="6.76876">
        <ele>425.4</ele>
        <time>2017-02-05T10:19:46.999Z</time>
      </trkpt>
      <trkpt lat="47.52721" lon="6.76876">
        <ele>425.4</ele>
        <time>2017-02-05T10:19:49.999Z</time>
      </trkpt>
      <trkpt lat="47.52719" lon="6.76877">
        <ele>425.3</ele>
        <time>2017-02-05T10:19:50.999Z</time>
      </trkpt>
      <trkpt lat="47.52714" lon="6.76878">
        <ele>425.5</ele>
        <time>2017-02-05T10:19:53.999Z</time>
      </trkpt>
      <trkpt lat="47.52713" lon="6.76878">
        <ele>425.6</ele>
        <time>2017-02-05T10:19:54.999Z</time>
      </trkpt>
      <trkpt lat="47.5271" lon="6.76878">
        <ele>425.9</ele>
        <time>2017-02-05T10:19:57.999Z</time>
      </trkpt>
      <trkpt lat="47.52709" lon="6.76879">
        <ele>426</ele>
        <time>2017-02-05T10:19:58.999Z</time>
      </trkpt>
      <trkpt lat="47.52705" lon="6.76881">
        <ele>426.4</ele>
        <time>2017-02-05T10:20:00.999Z</time>
      </trkpt>
      <trkpt lat="47.52703" lon="6.76882">
        <ele>426.5</ele>
        <time>2017-02-05T10:20:01.999Z</time>
      </trkpt>
      <trkpt lat="47.52699" lon="6.76884">
        <ele>427</ele>
        <time>2017-02-05T10:20:04.999Z</time>
      </trkpt>
      <trkpt lat="47.52698" lon="6.76885">
        <ele>427.1</ele>
        <time>2017-02-05T10:20:05.999Z</time>
      </trkpt>
      <trkpt lat="47.52694" lon="6.76888">
        <ele>427.7</ele>
        <time>2017-02-05T10:20:08.999Z</time>
      </trkpt>
      <trkpt lat="47.52693" lon="6.76889">
        <ele>427.9</ele>
        <time>2017-02-05T10:20:09.999Z</time>
      </trkpt>
      <trkpt lat="47.52688" lon="6.76889">
        <ele>428.5</ele>
        <time>2017-02-05T10:20:12.999Z</time>
      </trkpt>
      <trkpt lat="47.52687" lon="6.76889">
        <ele>428.7</ele>
        <time>2017-02-05T10:20:13.999Z</time>
      </trkpt>
      <trkpt lat="47.52683" lon="6.76889">
        <ele>429.2</ele>
        <time>2017-02-05T10:20:16.999Z</time>
      </trkpt>
      <trkpt lat="47.52682" lon="6.7689">
        <ele>429.5</ele>
        <time>2017-02-05T10:20:17.999Z</time>
      </trkpt>
      <trkpt lat="47.52678" lon="6.76892">
        <ele>430.3</ele>
        <time>2017-02-05T10:20:21.999Z</time>
      </trkpt>
      <trkpt lat="47.52678" lon="6.76892">
        <ele>430.4</ele>
        <time>2017-02-05T10:20:22.999Z</time>
      </trkpt>
      <trkpt lat="47.52675" lon="6.76893">
        <ele>430.7</ele>
        <time>2017-02-05T10:20:24.999Z</time>
      </trkpt>
      <trkpt lat="47.52673" lon="6.76894">
        <ele>430.9</ele>
        <time>2017-02-05T10:20:25.999Z</time>
      </trkpt>
      <trkpt lat="47.52669" lon="6.76895">
        <ele>431.9</ele>
        <time>2017-02-05T10:20:29.999Z</time>
      </trkpt>
      <trkpt lat="47.52667" lon="6.76896">
        <ele>432.2</ele>
        <time>2017-02-05T10:20:30.999Z</time>
      </trkpt>
      <trkpt lat="47.52664" lon="6.76895">
        <ele>433</ele>
        <time>2017-02-05T10:20:33.999Z</time>
      </trkpt>
      <trkpt lat="47.52661" lon="6.76894">
        <ele>433.3</ele>
        <time>2017-02-05T10:20:34.999Z</time>
      </trkpt>
      <trkpt lat="47.52657" lon="6.76892">
        <ele>434</ele>
        <time>2017-02-05T10:20:37.999Z</time>
      </trkpt>
      <trkpt lat="47.52656" lon="6.76891">
        <ele>434.2</ele>
        <time>2017-02-05T10:20:38.999Z</time>
      </trkpt>
      <trkpt lat="47.52654" lon="6.76889">
        <ele>434.4</ele>
        <time>2017-02-05T10:20:40.999Z</time>
      </trkpt>
      <trkpt lat="47.52651" lon="6.76889">
        <ele>434.6</ele>
        <time>2017-02-05T10:20:41.999Z</time>
      </trkpt>
      <trkpt lat="47.52647" lon="6.76889">
        <ele>435.3</ele>
        <time>2017-02-05T10:20:46.999Z</time>
      </trkpt>
      <trkpt lat="47.52646" lon="6.76889">
        <ele>435.5</ele>
        <time>2017-02-05T10:20:47.999Z</time>
      </trkpt>
      <trkpt lat="47.52643" lon="6.76887">
        <ele>436.3</ele>
        <time>2017-02-05T10:20:50.999Z</time>
      </trkpt>
      <trkpt lat="47.52641" lon="6.76887">
        <ele>436.6</ele>
        <time>2017-02-05T10:20:51.999Z</time>
      </trkpt>
      <trkpt lat="47.52637" lon="6.76886">
        <ele>437.3</ele>
        <time>2017-02-05T10:20:54.999Z</time>
      </trkpt>
      <trkpt lat="47.52636" lon="6.76886">
        <ele>437.4</ele>
        <time>2017-02-05T10:20:55.999Z</time>
      </trkpt>
      <trkpt lat="47.52632" lon="6.76885">
        <ele>437.6</ele>
        <time>2017-02-05T10:20:58.999Z</time>
      </trkpt>
      <trkpt lat="47.52631" lon="6.76885">
        <ele>437.7</ele>
        <time>2017-02-05T10:20:59.999Z</time>
      </trkpt>
      <trkpt lat="47.52627" lon="6.76884">
        <ele>437.9</ele>
        <time>2017-02-05T10:21:02.999Z</time>
      </trkpt>
      <trkpt lat="47.52626" lon="6.76885">
        <ele>438.1</ele>
        <time>2017-02-05T10:21:03.999Z</time>
      </trkpt>
      <trkpt lat="47.52622" lon="6.76883">
        <ele>438.4</ele>
        <time>2017-02-05T10:21:07.999Z</time>
      </trkpt>
      <trkpt lat="47.52619" lon="6.76881">
        <ele>438.5</ele>
        <time>2017-02-05T10:21:08.999Z</time>
      </trkpt>
      <trkpt lat="47.52615" lon="6.76881">
        <ele>438.7</ele>
        <time>2017-02-05T10:21:10.999Z</time>
      </trkpt>
      <trkpt lat="47.52614" lon="6.76881">
        <ele>438.9</ele>
        <time>2017-02-05T10:21:11.999Z</time>
      </trkpt>
      <trkpt lat="47.5261" lon="6.76882">
        <ele>440</ele>
        <time>2017-02-05T10:21:16.999Z</time>
      </trkpt>
      <trkpt lat="47.52609" lon="6.76883">
        <ele>440.3</ele>
        <time>2017-02-05T10:21:17.999Z</time>
      </trkpt>
      <trkpt lat="47.52606" lon="6.76883">
        <ele>440.6</ele>
        <time>2017-02-05T10:21:19.999Z</time>
      </trkpt>
      <trkpt lat="47.52604" lon="6.76883">
        <ele>440.7</ele>
        <time>2017-02-05T10:21:20.999Z</time>
      </trkpt>
      <trkpt lat="47.526" lon="6.76883">
        <ele>441.1</ele>
        <time>2017-02-05T10:21:22.999Z</time>
      </trkpt>
      <trkpt lat="47.52598" lon="6.76883">
        <ele>441.3</ele>
        <time>2017-02-05T10:21:23.999Z</time>
      </trkpt>
      <trkpt lat="47.52595" lon="6.76883">
        <ele>442.1</ele>
        <time>2017-02-05T10:21:27.999Z</time>
      </trkpt>
      <trkpt lat="47.52593" lon="6.76883">
        <ele>442.3</ele>
        <time>2017-02-05T10:21:28.999Z</time>
      </trkpt>
      <trkpt lat="47.52589" lon="6.76884">
        <ele>442.9</ele>
        <time>2017-02-05T10:21:31.999Z</time>
      </trkpt>
      <trkpt lat="47.52588" lon="6.76885">
        <ele>443.1</ele>
        <time>2017-02-05T10:21:32.999Z</time>
      </trkpt>
      <trkpt lat="47.52584" lon="6.76885">
        <ele>444.2</ele>
        <time>2017-02-05T10:21:36.999Z</time>
      </trkpt>
      <trkpt lat="47.52583" lon="6.76885">
        <ele>444.4</ele>
        <time>2017-02-05T10:21:37.999Z</time>
      </trkpt>
      <trkpt lat="47.5258" lon="6.76885">
        <ele>445</ele>
        <time>2017-02-05T10:21:41.999Z</time>
      </trkpt>
      <trkpt lat="47.52578" lon="6.76885">
        <ele>445.2</ele>
        <time>2017-02-05T10:21:42.999Z</time>
      </trkpt>
      <trkpt lat="47.52576" lon="6.76884">
        <ele>445.3</ele>
        <time>2017-02-05T10:21:44.999Z</time>
      </trkpt>
      <trkpt lat="47.52573" lon="6.76884">
        <ele>445.3</ele>
        <time>2017-02-05T10:21:45.999Z</time>
      </trkpt>
      <trkpt lat="47.52569" lon="6.76882">
        <ele>445.5</ele>
        <time>2017-02-05T10:21:49.999Z</time>
      </trkpt>
      <trkpt lat="47.52568" lon="6.76882">
        <ele>445.6</ele>
        <time>2017-02-05T10:21:50.999Z</time>
      </trkpt>
      <trkpt lat="47.52565" lon="6.76881">
        <ele>446.2</ele>
        <time>2017-02-05T10:21:55.999Z</time>
      </trkpt>
      <trkpt lat="47.52562" lon="6.76881">
        <ele>446.4</ele>
        <time>2017-02-05T10:21:56.999Z</time>
      </trkpt>
      <trkpt lat="47.52558" lon="6.76881">
        <ele>447.3</ele>
        <time>2017-02-05T10:22:00.999Z</time>
      </trkpt>
      <trkpt lat="47.52556" lon="6.7688">
        <ele>447.6</ele>
        <time>2017-02-05T10:22:01.999Z</time>
      </trkpt>
      <trkpt lat="47.52552" lon="6.7688">
        <ele>448.5</ele>
        <time>2017-02-05T10:22:05.999Z</time>
      </trkpt>
      <trkpt lat="47.52551" lon="6.7688">
        <ele>448.7</ele>
        <time>2017-02-05T10:22:06.999Z</time>
      </trkpt>
      <trkpt lat="47.52546" lon="6.76879">
        <ele>449.6</ele>
        <time>2017-02-05T10:22:10.999Z</time>
      </trkpt>
      <trkpt lat="47.52545" lon="6.76879">
        <ele>449.8</ele>
        <time>2017-02-05T10:22:11.999Z</time>
      </trkpt>
      <trkpt lat="47.52541" lon="6.7688">
        <ele>450.2</ele>
        <time>2017-02-05T10:22:15.999Z</time>
      </trkpt>
      <trkpt lat="47.5254" lon="6.76879">
        <ele>450.2</ele>
        <time>2017-02-05T10:22:16.999Z</time>
      </trkpt>
      <trkpt lat="47.52536" lon="6.7688">
        <ele>450.2</ele>
        <time>2017-02-05T10:22:20.999Z</time>
      </trkpt>
      <trkpt lat="47.52535" lon="6.7688">
        <ele>450.2</ele>
        <time>2017-02-05T10:22:21.999Z</time>
      </trkpt>
      <trkpt lat="47.52531" lon="6.76881">
        <ele>450.2</ele>
        <time>2017-02-05T10:22:25.999Z</time>
      </trkpt>
      <trkpt lat="47.5253" lon="6.76881">
        <ele>450.3</ele>
        <time>2017-02-05T10:22:26.999Z</time>
      </trkpt>
      <trkpt lat="47.52526" lon="6.76881">
        <ele>450.7</ele>
        <time>2017-02-05T10:22:30.999Z</time>
      </trkpt>
      <trkpt lat="47.52524" lon="6.76882">
        <ele>450.8</ele>
        <time>2017-02-05T10:22:31.999Z</time>
      </trkpt>
      <trkpt lat="47.52522" lon="6.76882">
        <ele>451.3</ele>
        <time>2017-02-05T10:22:33.999Z</time>
      </trkpt>
      <trkpt lat="47.52518" lon="6.76883">
        <ele>451.6</ele>
        <time>2017-02-05T10:22:34.999Z</time>
      </trkpt>
      <trkpt lat="47.52514" lon="6.76884">
        <ele>452.3</ele>
        <time>2017-02-05T10:22:37.999Z</time>
      </trkpt>
      <trkpt lat="47.52513" lon="6.76884">
        <ele>452.3</ele>
        <time>2017-02-05T10:22:38.999Z</time>
      </trkpt>
      <trkpt lat="47.52508" lon="6.76885">
        <ele>453.9</ele>
        <time>2017-02-05T10:22:43.999Z</time>
      </trkpt>
      <trkpt lat="47.52508" lon="6.76885">
        <ele>454.2</ele>
        <time>2017-02-05T10:22:44.999Z</time>
      </trkpt>
      <trkpt lat="47.52504" lon="6.76885">
        <ele>455.2</ele>
        <time>2017-02-05T10:22:48.999Z</time>
      </trkpt>
      <trkpt lat="47.52502" lon="6.76885">
        <ele>455.4</ele>
        <time>2017-02-05T10:22:49.999Z</time>
      </trkpt>
      <trkpt lat="47.52498" lon="6.76886">
        <ele>456.2</ele>
        <time>2017-02-05T10:22:53.999Z</time>
      </trkpt>
      <trkpt lat="47.52497" lon="6.76886">
        <ele>456.5</ele>
        <time>2017-02-05T10:22:54.999Z</time>
      </trkpt>
      <trkpt lat="47.52494" lon="6.76887">
        <ele>457.2</ele>
        <time>2017-02-05T10:22:57.999Z</time>
      </trkpt>
      <trkpt lat="47.52493" lon="6.76887">
        <ele>457.4</ele>
        <time>2017-02-05T10:22:58.999Z</time>
      </trkpt>
      <trkpt lat="47.52489" lon="6.76889">
        <ele>457.7</ele>
        <time>2017-02-05T10:23:01.999Z</time>
      </trkpt>
      <trkpt lat="47.52488" lon="6.76889">
        <ele>457.8</ele>
        <time>2017-02-05T10:23:02.999Z</time>
      </trkpt>
      <trkpt lat="47.52484" lon="6.76891">
        <ele>458.1</ele>
        <time>2017-02-05T10:23:05.999Z</time>
      </trkpt>
      <trkpt lat="47.52483" lon="6.76892">
        <ele>458.2</ele>
        <time>2017-02-05T10:23:06.999Z</time>
      </trkpt>
      <trkpt lat="47.5248" lon="6.76897">
        <ele>458</ele>
        <time>2017-02-05T10:23:09.999Z</time>
      </trkpt>
      <trkpt lat="47.52478" lon="6.76899">
        <ele>458</ele>
        <time>2017-02-05T10:23:10.999Z</time>
      </trkpt>
      <trkpt lat="47.52476" lon="6.76905">
        <ele>457.8</ele>
        <time>2017-02-05T10:23:12.999Z</time>
      </trkpt>
      <trkpt lat="47.52475" lon="6.76908">
        <ele>457.7</ele>
        <time>2017-02-05T10:23:13.999Z</time>
      </trkpt>
      <trkpt lat="47.52474" lon="6.76912">
        <ele>457.7</ele>
        <time>2017-02-05T10:23:15.999Z</time>
      </trkpt>
      <trkpt lat="47.52473" lon="6.76914">
        <ele>457.6</ele>
        <time>2017-02-05T10:23:16.999Z</time>
      </trkpt>
      <trkpt lat="47.52471" lon="6.76918">
        <ele>457.6</ele>
        <time>2017-02-05T10:23:18.999Z</time>
      </trkpt>
      <trkpt lat="47.5247" lon="6.7692">
        <ele>457.6</ele>
        <time>2017-02-05T10:23:19.999Z</time>
      </trkpt>
      <trkpt lat="47.52469" lon="6.76926">
        <ele>457.6</ele>
        <time>2017-02-05T10:23:21.999Z</time>
      </trkpt>
      <trkpt lat="47.52468" lon="6.76929">
        <ele>457.7</ele>
        <time>2017-02-05T10:23:22.999Z</time>
      </trkpt>
      <trkpt lat="47.52466" lon="6.76933">
        <ele>457.6</ele>
        <time>2017-02-05T10:23:23.999Z</time>
      </trkpt>
      <trkpt lat="47.52464" lon="6.76936">
        <ele>457.6</ele>
        <time>2017-02-05T10:23:24.999Z</time>
      </trkpt>
      <trkpt lat="47.52462" lon="6.7694">
        <ele>457.6</ele>
        <time>2017-02-05T10:23:25.999Z</time>
      </trkpt>
      <trkpt lat="47.52461" lon="6.76943">
        <ele>457.6</ele>
        <time>2017-02-05T10:23:26.999Z</time>
      </trkpt>
      <trkpt lat="47.5246" lon="6.76948">
        <ele>457.6</ele>
        <time>2017-02-05T10:23:27.999Z</time>
      </trkpt>
      <trkpt lat="47.52458" lon="6.76952">
        <ele>457.6</ele>
        <time>2017-02-05T10:23:28.999Z</time>
      </trkpt>
      <trkpt lat="47.52456" lon="6.76956">
        <ele>457.5</ele>
        <time>2017-02-05T10:23:29.999Z</time>
      </trkpt>
      <trkpt lat="47.52454" lon="6.7696">
        <ele>457.6</ele>
        <time>2017-02-05T10:23:30.999Z</time>
      </trkpt>
      <trkpt lat="47.52452" lon="6.76965">
        <ele>457.6</ele>
        <time>2017-02-05T10:23:31.999Z</time>
      </trkpt>
      <trkpt lat="47.52449" lon="6.76969">
        <ele>457.5</ele>
        <time>2017-02-05T10:23:32.999Z</time>
      </trkpt>
      <trkpt lat="47.52447" lon="6.76974">
        <ele>457.5</ele>
        <time>2017-02-05T10:23:33.999Z</time>
      </trkpt>
      <trkpt lat="47.52445" lon="6.76978">
        <ele>457.5</ele>
        <time>2017-02-05T10:23:34.999Z</time>
      </trkpt>
      <trkpt lat="47.52444" lon="6.76983">
        <ele>457.3</ele>
        <time>2017-02-05T10:23:35.999Z</time>
      </trkpt>
      <trkpt lat="47.52442" lon="6.76988">
        <ele>457.2</ele>
        <time>2017-02-05T10:23:36.999Z</time>
      </trkpt>
      <trkpt lat="47.5244" lon="6.76995">
        <ele>455.8</ele>
        <time>2017-02-05T10:23:37.999Z</time>
      </trkpt>
      <trkpt lat="47.52437" lon="6.77002">
        <ele>454.6</ele>
        <time>2017-02-05T10:23:38.999Z</time>
      </trkpt>
      <trkpt lat="47.52434" lon="6.77011">
        <ele>454</ele>
        <time>2017-02-05T10:23:39.999Z</time>
      </trkpt>
      <trkpt lat="47.52432" lon="6.77017">
        <ele>453.9</ele>
        <time>2017-02-05T10:23:40.999Z</time>
      </trkpt>
      <trkpt lat="47.5243" lon="6.77024">
        <ele>453.8</ele>
        <time>2017-02-05T10:23:41.999Z</time>
      </trkpt>
      <trkpt lat="47.52427" lon="6.77032">
        <ele>453.7</ele>
        <time>2017-02-05T10:23:42.999Z</time>
      </trkpt>
      <trkpt lat="47.52424" lon="6.77039">
        <ele>453.6</ele>
        <time>2017-02-05T10:23:43.999Z</time>
      </trkpt>
      <trkpt lat="47.5242" lon="6.77046">
        <ele>453.4</ele>
        <time>2017-02-05T10:23:44.999Z</time>
      </trkpt>
      <trkpt lat="47.52417" lon="6.77054">
        <ele>451.9</ele>
        <time>2017-02-05T10:23:45.999Z</time>
      </trkpt>
      <trkpt lat="47.52414" lon="6.77059">
        <ele>451.7</ele>
        <time>2017-02-05T10:23:46.999Z</time>
      </trkpt>
      <trkpt lat="47.52411" lon="6.77066">
        <ele>449.7</ele>
        <time>2017-02-05T10:23:47.999Z</time>
      </trkpt>
      <trkpt lat="47.52406" lon="6.77074">
        <ele>448</ele>
        <time>2017-02-05T10:23:48.999Z</time>
      </trkpt>
      <trkpt lat="47.52403" lon="6.77081">
        <ele>446.5</ele>
        <time>2017-02-05T10:23:49.999Z</time>
      </trkpt>
      <trkpt lat="47.52398" lon="6.77089">
        <ele>445.2</ele>
        <time>2017-02-05T10:23:50.999Z</time>
      </trkpt>
      <trkpt lat="47.52395" lon="6.77097">
        <ele>444.3</ele>
        <time>2017-02-05T10:23:51.999Z</time>
      </trkpt>
      <trkpt lat="47.52392" lon="6.77104">
        <ele>443</ele>
        <time>2017-02-05T10:23:52.999Z</time>
      </trkpt>
      <trkpt lat="47.52389" lon="6.77111">
        <ele>441.3</ele>
        <time>2017-02-05T10:23:53.999Z</time>
      </trkpt>
      <trkpt lat="47.52386" lon="6.77117">
        <ele>441.1</ele>
        <time>2017-02-05T10:23:54.999Z</time>
      </trkpt>
      <trkpt lat="47.52384" lon="6.77123">
        <ele>441</ele>
        <time>2017-02-05T10:23:55.999Z</time>
      </trkpt>
      <trkpt lat="47.52382" lon="6.7713">
        <ele>439.8</ele>
        <time>2017-02-05T10:23:56.999Z</time>
      </trkpt>
      <trkpt lat="47.5238" lon="6.77139">
        <ele>438.8</ele>
        <time>2017-02-05T10:23:57.999Z</time>
      </trkpt>
      <trkpt lat="47.52377" lon="6.77147">
        <ele>438.4</ele>
        <time>2017-02-05T10:23:58.999Z</time>
      </trkpt>
      <trkpt lat="47.52374" lon="6.77155">
        <ele>438.3</ele>
        <time>2017-02-05T10:23:59.999Z</time>
      </trkpt>
      <trkpt lat="47.5237" lon="6.77163">
        <ele>437.1</ele>
        <time>2017-02-05T10:24:00.999Z</time>
      </trkpt>
      <trkpt lat="47.52367" lon="6.77172">
        <ele>436.8</ele>
        <time>2017-02-05T10:24:01.999Z</time>
      </trkpt>
      <trkpt lat="47.52362" lon="6.7718">
        <ele>437.2</ele>
        <time>2017-02-05T10:24:02.999Z</time>
      </trkpt>
      <trkpt lat="47.5236" lon="6.77186">
        <ele>437.2</ele>
        <time>2017-02-05T10:24:03.999Z</time>
      </trkpt>
      <trkpt lat="47.52357" lon="6.77194">
        <ele>436.2</ele>
        <time>2017-02-05T10:24:04.999Z</time>
      </trkpt>
      <trkpt lat="47.52354" lon="6.77203">
        <ele>435.2</ele>
        <time>2017-02-05T10:24:05.999Z</time>
      </trkpt>
      <trkpt lat="47.52352" lon="6.77213">
        <ele>435.2</ele>
        <time>2017-02-05T10:24:06.999Z</time>
      </trkpt>
      <trkpt lat="47.52351" lon="6.7722">
        <ele>435.1</ele>
        <time>2017-02-05T10:24:07.999Z</time>
      </trkpt>
      <trkpt lat="47.52348" lon="6.7723">
        <ele>434.3</ele>
        <time>2017-02-05T10:24:08.999Z</time>
      </trkpt>
      <trkpt lat="47.52346" lon="6.77242">
        <ele>434.3</ele>
        <time>2017-02-05T10:24:09.999Z</time>
      </trkpt>
      <trkpt lat="47.52344" lon="6.77252">
        <ele>434.2</ele>
        <time>2017-02-05T10:24:10.999Z</time>
      </trkpt>
      <trkpt lat="47.52342" lon="6.77263">
        <ele>434.1</ele>
        <time>2017-02-05T10:24:11.999Z</time>
      </trkpt>
      <trkpt lat="47.52341" lon="6.77274">
        <ele>433.3</ele>
        <time>2017-02-05T10:24:12.999Z</time>
      </trkpt>
      <trkpt lat="47.5234" lon="6.77283">
        <ele>433.3</ele>
        <time>2017-02-05T10:24:13.999Z</time>
      </trkpt>
      <trkpt lat="47.52341" lon="6.77289">
        <ele>433.3</ele>
        <time>2017-02-05T10:24:14.999Z</time>
      </trkpt>
      <trkpt lat="47.52341" lon="6.77298">
        <ele>432.6</ele>
        <time>2017-02-05T10:24:15.999Z</time>
      </trkpt>
      <trkpt lat="47.52343" lon="6.77307">
        <ele>431.1</ele>
        <time>2017-02-05T10:24:16.999Z</time>
      </trkpt>
      <trkpt lat="47.52344" lon="6.77314">
        <ele>429.8</ele>
        <time>2017-02-05T10:24:17.999Z</time>
      </trkpt>
      <trkpt lat="47.52347" lon="6.77321">
        <ele>428.3</ele>
        <time>2017-02-05T10:24:18.999Z</time>
      </trkpt>
      <trkpt lat="47.5235" lon="6.77331">
        <ele>427.9</ele>
        <time>2017-02-05T10:24:19.999Z</time>
      </trkpt>
      <trkpt lat="47.52353" lon="6.77339">
        <ele>428</ele>
        <time>2017-02-05T10:24:20.999Z</time>
      </trkpt>
      <trkpt lat="47.52354" lon="6.77349">
        <ele>428.3</ele>
        <time>2017-02-05T10:24:21.999Z</time>
      </trkpt>
      <trkpt lat="47.52354" lon="6.77357">
        <ele>428.4</ele>
        <time>2017-02-05T10:24:22.999Z</time>
      </trkpt>
      <trkpt lat="47.52355" lon="6.77366">
        <ele>428.6</ele>
        <time>2017-02-05T10:24:23.999Z</time>
      </trkpt>
      <trkpt lat="47.52356" lon="6.77374">
        <ele>428.7</ele>
        <time>2017-02-05T10:24:24.999Z</time>
      </trkpt>
      <trkpt lat="47.52357" lon="6.77382">
        <ele>428.9</ele>
        <time>2017-02-05T10:24:25.999Z</time>
      </trkpt>
      <trkpt lat="47.52359" lon="6.77389">
        <ele>429.1</ele>
        <time>2017-02-05T10:24:26.999Z</time>
      </trkpt>
      <trkpt lat="47.52359" lon="6.77394">
        <ele>429.3</ele>
        <time>2017-02-05T10:24:27.999Z</time>
      </trkpt>
      <trkpt lat="47.52361" lon="6.77398">
        <ele>429.5</ele>
        <time>2017-02-05T10:24:28.999Z</time>
      </trkpt>
      <trkpt lat="47.52363" lon="6.77403">
        <ele>429.7</ele>
        <time>2017-02-05T10:24:29.999Z</time>
      </trkpt>
      <trkpt lat="47.52366" lon="6.77408">
        <ele>430</ele>
        <time>2017-02-05T10:24:30.999Z</time>
      </trkpt>
      <trkpt lat="47.5237" lon="6.77412">
        <ele>430.2</ele>
        <time>2017-02-05T10:24:31.999Z</time>
      </trkpt>
      <trkpt lat="47.52373" lon="6.77415">
        <ele>430.4</ele>
        <time>2017-02-05T10:24:32.999Z</time>
      </trkpt>
      <trkpt lat="47.52376" lon="6.77417">
        <ele>430.6</ele>
        <time>2017-02-05T10:24:33.999Z</time>
      </trkpt>
      <trkpt lat="47.52381" lon="6.77421">
        <ele>430.9</ele>
        <time>2017-02-05T10:24:34.999Z</time>
      </trkpt>
      <trkpt lat="47.52386" lon="6.77425">
        <ele>431</ele>
        <time>2017-02-05T10:24:35.999Z</time>
      </trkpt>
      <trkpt lat="47.5239" lon="6.77428">
        <ele>431.8</ele>
        <time>2017-02-05T10:24:36.999Z</time>
      </trkpt>
      <trkpt lat="47.52394" lon="6.77431">
        <ele>431.7</ele>
        <time>2017-02-05T10:24:37.999Z</time>
      </trkpt>
      <trkpt lat="47.52396" lon="6.77433">
        <ele>431.7</ele>
        <time>2017-02-05T10:24:38.999Z</time>
      </trkpt>
      <trkpt lat="47.52398" lon="6.77437">
        <ele>431.6</ele>
        <time>2017-02-05T10:24:39.999Z</time>
      </trkpt>
      <trkpt lat="47.52401" lon="6.7744">
        <ele>431.5</ele>
        <time>2017-02-05T10:24:40.999Z</time>
      </trkpt>
      <trkpt lat="47.52404" lon="6.77444">
        <ele>431.6</ele>
        <time>2017-02-05T10:24:41.999Z</time>
      </trkpt>
      <trkpt lat="47.52407" lon="6.77448">
        <ele>431.7</ele>
        <time>2017-02-05T10:24:42.999Z</time>
      </trkpt>
      <trkpt lat="47.5241" lon="6.77452">
        <ele>431.8</ele>
        <time>2017-02-05T10:24:43.999Z</time>
      </trkpt>
      <trkpt lat="47.52412" lon="6.77454">
        <ele>431.9</ele>
        <time>2017-02-05T10:24:44.999Z</time>
      </trkpt>
      <trkpt lat="47.52414" lon="6.77457">
        <ele>432</ele>
        <time>2017-02-05T10:24:45.999Z</time>
      </trkpt>
      <trkpt lat="47.52417" lon="6.77461">
        <ele>432.1</ele>
        <time>2017-02-05T10:24:46.999Z</time>
      </trkpt>
      <trkpt lat="47.52416" lon="6.77468">
        <ele>432.5</ele>
        <time>2017-02-05T10:24:49.999Z</time>
      </trkpt>
      <trkpt lat="47.52415" lon="6.77468">
        <ele>432.7</ele>
        <time>2017-02-05T10:24:50.999Z</time>
      </trkpt>
      <trkpt lat="47.52412" lon="6.7747">
        <ele>433</ele>
        <time>2017-02-05T10:24:52.999Z</time>
      </trkpt>
      <trkpt lat="47.52408" lon="6.77472">
        <ele>433.1</ele>
        <time>2017-02-05T10:24:53.999Z</time>
      </trkpt>
      <trkpt lat="47.52405" lon="6.77473">
        <ele>433.1</ele>
        <time>2017-02-05T10:24:54.999Z</time>
      </trkpt>
      <trkpt lat="47.52403" lon="6.77475">
        <ele>433.2</ele>
        <time>2017-02-05T10:24:55.999Z</time>
      </trkpt>
      <trkpt lat="47.52399" lon="6.77476">
        <ele>434.3</ele>
        <time>2017-02-05T10:24:56.999Z</time>
      </trkpt>
      <trkpt lat="47.52396" lon="6.77477">
        <ele>434.3</ele>
        <time>2017-02-05T10:24:57.999Z</time>
      </trkpt>
      <trkpt lat="47.52394" lon="6.77478">
        <ele>434.3</ele>
        <time>2017-02-05T10:24:58.999Z</time>
      </trkpt>
      <trkpt lat="47.52391" lon="6.77481">
        <ele>434.3</ele>
        <time>2017-02-05T10:24:59.999Z</time>
      </trkpt>
      <trkpt lat="47.52387" lon="6.77484">
        <ele>434.2</ele>
        <time>2017-02-05T10:25:01.999Z</time>
      </trkpt>
      <trkpt lat="47.52384" lon="6.77485">
        <ele>434.3</ele>
        <time>2017-02-05T10:25:02.999Z</time>
      </trkpt>
      <trkpt lat="47.52381" lon="6.77486">
        <ele>434.3</ele>
        <time>2017-02-05T10:25:03.999Z</time>
      </trkpt>
      <trkpt lat="47.52379" lon="6.77487">
        <ele>434.4</ele>
        <time>2017-02-05T10:25:04.999Z</time>
      </trkpt>
      <trkpt lat="47.52376" lon="6.77489">
        <ele>434.4</ele>
        <time>2017-02-05T10:25:05.999Z</time>
      </trkpt>
      <trkpt lat="47.52373" lon="6.77491">
        <ele>434.4</ele>
        <time>2017-02-05T10:25:06.999Z</time>
      </trkpt>
      <trkpt lat="47.5237" lon="6.77493">
        <ele>434.5</ele>
        <time>2017-02-05T10:25:07.999Z</time>
      </trkpt>
      <trkpt lat="47.52367" lon="6.77494">
        <ele>434.5</ele>
        <time>2017-02-05T10:25:08.999Z</time>
      </trkpt>
      <trkpt lat="47.52364" lon="6.77496">
        <ele>434.5</ele>
        <time>2017-02-05T10:25:09.999Z</time>
      </trkpt>
      <trkpt lat="47.5236" lon="6.77498">
        <ele>434.5</ele>
        <time>2017-02-05T10:25:10.999Z</time>
      </trkpt>
      <trkpt lat="47.52357" lon="6.77501">
        <ele>434.5</ele>
        <time>2017-02-05T10:25:11.999Z</time>
      </trkpt>
      <trkpt lat="47.52352" lon="6.77504">
        <ele>435.1</ele>
        <time>2017-02-05T10:25:12.999Z</time>
      </trkpt>
      <trkpt lat="47.52348" lon="6.77506">
        <ele>435.6</ele>
        <time>2017-02-05T10:25:13.999Z</time>
      </trkpt>
      <trkpt lat="47.52343" lon="6.77509">
        <ele>436.1</ele>
        <time>2017-02-05T10:25:14.999Z</time>
      </trkpt>
      <trkpt lat="47.52339" lon="6.77512">
        <ele>436.4</ele>
        <time>2017-02-05T10:25:15.999Z</time>
      </trkpt>
      <trkpt lat="47.52335" lon="6.77514">
        <ele>436.7</ele>
        <time>2017-02-05T10:25:16.999Z</time>
      </trkpt>
      <trkpt lat="47.52332" lon="6.77516">
        <ele>436.5</ele>
        <time>2017-02-05T10:25:17.999Z</time>
      </trkpt>
      <trkpt lat="47.52328" lon="6.77519">
        <ele>436.7</ele>
        <time>2017-02-05T10:25:18.999Z</time>
      </trkpt>
      <trkpt lat="47.52323" lon="6.77523">
        <ele>436.9</ele>
        <time>2017-02-05T10:25:19.999Z</time>
      </trkpt>
      <trkpt lat="47.52317" lon="6.77528">
        <ele>437</ele>
        <time>2017-02-05T10:25:20.999Z</time>
      </trkpt>
      <trkpt lat="47.52312" lon="6.77531">
        <ele>437.3</ele>
        <time>2017-02-05T10:25:21.999Z</time>
      </trkpt>
      <trkpt lat="47.52307" lon="6.77534">
        <ele>437.1</ele>
        <time>2017-02-05T10:25:22.999Z</time>
      </trkpt>
      <trkpt lat="47.52303" lon="6.77538">
        <ele>437</ele>
        <time>2017-02-05T10:25:23.999Z</time>
      </trkpt>
      <trkpt lat="47.52296" lon="6.77542">
        <ele>436.8</ele>
        <time>2017-02-05T10:25:24.999Z</time>
      </trkpt>
      <trkpt lat="47.52291" lon="6.77546">
        <ele>436.3</ele>
        <time>2017-02-05T10:25:25.999Z</time>
      </trkpt>
      <trkpt lat="47.52286" lon="6.77549">
        <ele>436.1</ele>
        <time>2017-02-05T10:25:26.999Z</time>
      </trkpt>
      <trkpt lat="47.5228" lon="6.77552">
        <ele>436.2</ele>
        <time>2017-02-05T10:25:27.999Z</time>
      </trkpt>
      <trkpt lat="47.52275" lon="6.77555">
        <ele>436.9</ele>
        <time>2017-02-05T10:25:28.999Z</time>
      </trkpt>
      <trkpt lat="47.52269" lon="6.77558">
        <ele>437.8</ele>
        <time>2017-02-05T10:25:29.999Z</time>
      </trkpt>
      <trkpt lat="47.52264" lon="6.77561">
        <ele>438.9</ele>
        <time>2017-02-05T10:25:30.999Z</time>
      </trkpt>
      <trkpt lat="47.5226" lon="6.77564">
        <ele>439.7</ele>
        <time>2017-02-05T10:25:31.999Z</time>
      </trkpt>
      <trkpt lat="47.52255" lon="6.77568">
        <ele>439.8</ele>
        <time>2017-02-05T10:25:32.999Z</time>
      </trkpt>
      <trkpt lat="47.52251" lon="6.77571">
        <ele>438.8</ele>
        <time>2017-02-05T10:25:33.999Z</time>
      </trkpt>
      <trkpt lat="47.52246" lon="6.77573">
        <ele>437.7</ele>
        <time>2017-02-05T10:25:34.999Z</time>
      </trkpt>
      <trkpt lat="47.52241" lon="6.77577">
        <ele>437</ele>
        <time>2017-02-05T10:25:35.999Z</time>
      </trkpt>
      <trkpt lat="47.52235" lon="6.7758">
        <ele>435.5</ele>
        <time>2017-02-05T10:25:36.999Z</time>
      </trkpt>
      <trkpt lat="47.5223" lon="6.77583">
        <ele>434.8</ele>
        <time>2017-02-05T10:25:37.999Z</time>
      </trkpt>
      <trkpt lat="47.52225" lon="6.77585">
        <ele>434.4</ele>
        <time>2017-02-05T10:25:38.999Z</time>
      </trkpt>
      <trkpt lat="47.5222" lon="6.77588">
        <ele>434.5</ele>
        <time>2017-02-05T10:25:39.999Z</time>
      </trkpt>
      <trkpt lat="47.52215" lon="6.77591">
        <ele>434.7</ele>
        <time>2017-02-05T10:25:40.999Z</time>
      </trkpt>
      <trkpt lat="47.52211" lon="6.77594">
        <ele>434.7</ele>
        <time>2017-02-05T10:25:41.999Z</time>
      </trkpt>
      <trkpt lat="47.52206" lon="6.77597">
        <ele>435</ele>
        <time>2017-02-05T10:25:42.999Z</time>
      </trkpt>
      <trkpt lat="47.52201" lon="6.776">
        <ele>435.5</ele>
        <time>2017-02-05T10:25:43.999Z</time>
      </trkpt>
      <trkpt lat="47.52197" lon="6.77604">
        <ele>435.9</ele>
        <time>2017-02-05T10:25:44.999Z</time>
      </trkpt>
      <trkpt lat="47.52192" lon="6.77608">
        <ele>436.4</ele>
        <time>2017-02-05T10:25:45.999Z</time>
      </trkpt>
      <trkpt lat="47.52188" lon="6.77611">
        <ele>436.9</ele>
        <time>2017-02-05T10:25:46.999Z</time>
      </trkpt>
      <trkpt lat="47.52183" lon="6.77615">
        <ele>437.2</ele>
        <time>2017-02-05T10:25:47.999Z</time>
      </trkpt>
      <trkpt lat="47.52179" lon="6.77618">
        <ele>437.3</ele>
        <time>2017-02-05T10:25:48.999Z</time>
      </trkpt>
      <trkpt lat="47.52174" lon="6.77621">
        <ele>436.3</ele>
        <time>2017-02-05T10:25:49.999Z</time>
      </trkpt>
      <trkpt lat="47.52169" lon="6.77624">
        <ele>435.8</ele>
        <time>2017-02-05T10:25:50.999Z</time>
      </trkpt>
      <trkpt lat="47.52164" lon="6.77627">
        <ele>435.2</ele>
        <time>2017-02-05T10:25:51.999Z</time>
      </trkpt>
      <trkpt lat="47.5216" lon="6.7763">
        <ele>434.3</ele>
        <time>2017-02-05T10:25:52.999Z</time>
      </trkpt>
      <trkpt lat="47.52157" lon="6.77633">
        <ele>434.3</ele>
        <time>2017-02-05T10:25:53.999Z</time>
      </trkpt>
      <trkpt lat="47.52153" lon="6.77636">
        <ele>434.2</ele>
        <time>2017-02-05T10:25:54.999Z</time>
      </trkpt>
      <trkpt lat="47.52151" lon="6.77638">
        <ele>434.3</ele>
        <time>2017-02-05T10:25:55.999Z</time>
      </trkpt>
      <trkpt lat="47.52149" lon="6.7764">
        <ele>434.3</ele>
        <time>2017-02-05T10:25:56.999Z</time>
      </trkpt>
      <trkpt lat="47.52146" lon="6.77642">
        <ele>434.3</ele>
        <time>2017-02-05T10:25:57.999Z</time>
      </trkpt>
      <trkpt lat="47.52142" lon="6.77643">
        <ele>434.4</ele>
        <time>2017-02-05T10:25:58.999Z</time>
      </trkpt>
      <trkpt lat="47.52139" lon="6.77645">
        <ele>434.4</ele>
        <time>2017-02-05T10:25:59.999Z</time>
      </trkpt>
      <trkpt lat="47.52135" lon="6.77647">
        <ele>434.4</ele>
        <time>2017-02-05T10:26:00.999Z</time>
      </trkpt>
      <trkpt lat="47.52131" lon="6.7765">
        <ele>434</ele>
        <time>2017-02-05T10:26:01.999Z</time>
      </trkpt>
      <trkpt lat="47.52128" lon="6.77652">
        <ele>434.1</ele>
        <time>2017-02-05T10:26:02.999Z</time>
      </trkpt>
      <trkpt lat="47.52125" lon="6.77654">
        <ele>434.1</ele>
        <time>2017-02-05T10:26:03.999Z</time>
      </trkpt>
      <trkpt lat="47.52121" lon="6.77657">
        <ele>434.1</ele>
        <time>2017-02-05T10:26:04.999Z</time>
      </trkpt>
      <trkpt lat="47.52116" lon="6.77659">
        <ele>434.1</ele>
        <time>2017-02-05T10:26:05.999Z</time>
      </trkpt>
      <trkpt lat="47.52113" lon="6.77661">
        <ele>434.1</ele>
        <time>2017-02-05T10:26:06.999Z</time>
      </trkpt>
      <trkpt lat="47.5211" lon="6.77664">
        <ele>434.1</ele>
        <time>2017-02-05T10:26:07.999Z</time>
      </trkpt>
      <trkpt lat="47.52107" lon="6.77666">
        <ele>434.1</ele>
        <time>2017-02-05T10:26:08.999Z</time>
      </trkpt>
      <trkpt lat="47.52104" lon="6.77669">
        <ele>434.2</ele>
        <time>2017-02-05T10:26:09.999Z</time>
      </trkpt>
      <trkpt lat="47.52102" lon="6.7767">
        <ele>434.3</ele>
        <time>2017-02-05T10:26:10.999Z</time>
      </trkpt>
      <trkpt lat="47.521" lon="6.77671">
        <ele>434.4</ele>
        <time>2017-02-05T10:26:11.999Z</time>
      </trkpt>
      <trkpt lat="47.52097" lon="6.77672">
        <ele>434.5</ele>
        <time>2017-02-05T10:26:12.999Z</time>
      </trkpt>
      <trkpt lat="47.52093" lon="6.77668">
        <ele>434.7</ele>
        <time>2017-02-05T10:26:14.999Z</time>
      </trkpt>
      <trkpt lat="47.52094" lon="6.77666">
        <ele>434.8</ele>
        <time>2017-02-05T10:26:15.999Z</time>
      </trkpt>
      <trkpt lat="47.52094" lon="6.77661">
        <ele>434.8</ele>
        <time>2017-02-05T10:26:16.999Z</time>
      </trkpt>
      <trkpt lat="47.52095" lon="6.77655">
        <ele>434.9</ele>
        <time>2017-02-05T10:26:17.999Z</time>
      </trkpt>
      <trkpt lat="47.52095" lon="6.77647">
        <ele>434.8</ele>
        <time>2017-02-05T10:26:18.999Z</time>
      </trkpt>
      <trkpt lat="47.52095" lon="6.7764">
        <ele>434.8</ele>
        <time>2017-02-05T10:26:19.999Z</time>
      </trkpt>
      <trkpt lat="47.52095" lon="6.77633">
        <ele>434.9</ele>
        <time>2017-02-05T10:26:20.999Z</time>
      </trkpt>
      <trkpt lat="47.52095" lon="6.77627">
        <ele>435</ele>
        <time>2017-02-05T10:26:21.999Z</time>
      </trkpt>
      <trkpt lat="47.52095" lon="6.77622">
        <ele>435.1</ele>
        <time>2017-02-05T10:26:22.999Z</time>
      </trkpt>
      <trkpt lat="47.52095" lon="6.77617">
        <ele>435.2</ele>
        <time>2017-02-05T10:26:23.999Z</time>
      </trkpt>
      <trkpt lat="47.52096" lon="6.7761">
        <ele>435.1</ele>
        <time>2017-02-05T10:26:24.999Z</time>
      </trkpt>
      <trkpt lat="47.52096" lon="6.77604">
        <ele>435</ele>
        <time>2017-02-05T10:26:25.999Z</time>
      </trkpt>
      <trkpt lat="47.52096" lon="6.77599">
        <ele>435</ele>
        <time>2017-02-05T10:26:26.999Z</time>
      </trkpt>
      <trkpt lat="47.52096" lon="6.77595">
        <ele>435</ele>
        <time>2017-02-05T10:26:27.999Z</time>
      </trkpt>
      <trkpt lat="47.52095" lon="6.7759">
        <ele>434.9</ele>
        <time>2017-02-05T10:26:28.999Z</time>
      </trkpt>
      <trkpt lat="47.52095" lon="6.77586">
        <ele>434.9</ele>
        <time>2017-02-05T10:26:29.999Z</time>
      </trkpt>
      <trkpt lat="47.52094" lon="6.7758">
        <ele>434.8</ele>
        <time>2017-02-05T10:26:30.999Z</time>
      </trkpt>
      <trkpt lat="47.52094" lon="6.77576">
        <ele>434.8</ele>
        <time>2017-02-05T10:26:31.999Z</time>
      </trkpt>
      <trkpt lat="47.52093" lon="6.77572">
        <ele>434.6</ele>
        <time>2017-02-05T10:26:32.999Z</time>
      </trkpt>
      <trkpt lat="47.52092" lon="6.77568">
        <ele>434.6</ele>
        <time>2017-02-05T10:26:33.999Z</time>
      </trkpt>
      <trkpt lat="47.52089" lon="6.77564">
        <ele>434.6</ele>
        <time>2017-02-05T10:26:34.999Z</time>
      </trkpt>
      <trkpt lat="47.52086" lon="6.7756">
        <ele>434.5</ele>
        <time>2017-02-05T10:26:35.999Z</time>
      </trkpt>
      <trkpt lat="47.52083" lon="6.77557">
        <ele>434.4</ele>
        <time>2017-02-05T10:26:36.999Z</time>
      </trkpt>
      <trkpt lat="47.52079" lon="6.77554">
        <ele>434.4</ele>
        <time>2017-02-05T10:26:37.999Z</time>
      </trkpt>
      <trkpt lat="47.52076" lon="6.77553">
        <ele>434.3</ele>
        <time>2017-02-05T10:26:38.999Z</time>
      </trkpt>
      <trkpt lat="47.52071" lon="6.77551">
        <ele>434.2</ele>
        <time>2017-02-05T10:26:39.999Z</time>
      </trkpt>
      <trkpt lat="47.52068" lon="6.7755">
        <ele>434.2</ele>
        <time>2017-02-05T10:26:40.999Z</time>
      </trkpt>
      <trkpt lat="47.52064" lon="6.77548">
        <ele>434.1</ele>
        <time>2017-02-05T10:26:41.999Z</time>
      </trkpt>
      <trkpt lat="47.52061" lon="6.77546">
        <ele>434</ele>
        <time>2017-02-05T10:26:42.999Z</time>
      </trkpt>
      <trkpt lat="47.52056" lon="6.77545">
        <ele>433.9</ele>
        <time>2017-02-05T10:26:43.999Z</time>
      </trkpt>
      <trkpt lat="47.52052" lon="6.77543">
        <ele>433.8</ele>
        <time>2017-02-05T10:26:44.999Z</time>
      </trkpt>
      <trkpt lat="47.52048" lon="6.77543">
        <ele>432.2</ele>
        <time>2017-02-05T10:26:45.999Z</time>
      </trkpt>
      <trkpt lat="47.52045" lon="6.77542">
        <ele>432.1</ele>
        <time>2017-02-05T10:26:46.999Z</time>
      </trkpt>
      <trkpt lat="47.52041" lon="6.77541">
        <ele>432.1</ele>
        <time>2017-02-05T10:26:47.999Z</time>
      </trkpt>
      <trkpt lat="47.52038" lon="6.77541">
        <ele>431.9</ele>
        <time>2017-02-05T10:26:48.999Z</time>
      </trkpt>
      <trkpt lat="47.52033" lon="6.7754">
        <ele>431.7</ele>
        <time>2017-02-05T10:26:49.999Z</time>
      </trkpt>
      <trkpt lat="47.52028" lon="6.77539">
        <ele>431.6</ele>
        <time>2017-02-05T10:26:50.999Z</time>
      </trkpt>
      <trkpt lat="47.52025" lon="6.77539">
        <ele>431.5</ele>
        <time>2017-02-05T10:26:51.999Z</time>
      </trkpt>
      <trkpt lat="47.52021" lon="6.77538">
        <ele>431.3</ele>
        <time>2017-02-05T10:26:52.999Z</time>
      </trkpt>
      <trkpt lat="47.52016" lon="6.77537">
        <ele>429.8</ele>
        <time>2017-02-05T10:26:53.999Z</time>
      </trkpt>
      <trkpt lat="47.52012" lon="6.77537">
        <ele>428.6</ele>
        <time>2017-02-05T10:26:54.999Z</time>
      </trkpt>
      <trkpt lat="47.52006" lon="6.77536">
        <ele>428</ele>
        <time>2017-02-05T10:26:55.999Z</time>
      </trkpt>
      <trkpt lat="47.52002" lon="6.77534">
        <ele>428</ele>
        <time>2017-02-05T10:26:56.999Z</time>
      </trkpt>
      <trkpt lat="47.51999" lon="6.77533">
        <ele>428.8</ele>
        <time>2017-02-05T10:26:57.999Z</time>
      </trkpt>
      <trkpt lat="47.51994" lon="6.77531">
        <ele>429.7</ele>
        <time>2017-02-05T10:26:58.999Z</time>
      </trkpt>
      <trkpt lat="47.51991" lon="6.7753">
        <ele>429.3</ele>
        <time>2017-02-05T10:26:59.999Z</time>
      </trkpt>
      <trkpt lat="47.51985" lon="6.77528">
        <ele>428.9</ele>
        <time>2017-02-05T10:27:00.999Z</time>
      </trkpt>
      <trkpt lat="47.51979" lon="6.77526">
        <ele>428.7</ele>
        <time>2017-02-05T10:27:01.999Z</time>
      </trkpt>
      <trkpt lat="47.51974" lon="6.77525">
        <ele>429.3</ele>
        <time>2017-02-05T10:27:02.999Z</time>
      </trkpt>
      <trkpt lat="47.51969" lon="6.77525">
        <ele>430.4</ele>
        <time>2017-02-05T10:27:03.999Z</time>
      </trkpt>
      <trkpt lat="47.51965" lon="6.77524">
        <ele>431.3</ele>
        <time>2017-02-05T10:27:04.999Z</time>
      </trkpt>
      <trkpt lat="47.5196" lon="6.77523">
        <ele>431.9</ele>
        <time>2017-02-05T10:27:05.999Z</time>
      </trkpt>
      <trkpt lat="47.51955" lon="6.77521">
        <ele>432.5</ele>
        <time>2017-02-05T10:27:06.999Z</time>
      </trkpt>
      <trkpt lat="47.51951" lon="6.7752">
        <ele>433.3</ele>
        <time>2017-02-05T10:27:07.999Z</time>
      </trkpt>
      <trkpt lat="47.51946" lon="6.77519">
        <ele>433.5</ele>
        <time>2017-02-05T10:27:08.999Z</time>
      </trkpt>
      <trkpt lat="47.51942" lon="6.77519">
        <ele>433.6</ele>
        <time>2017-02-05T10:27:09.999Z</time>
      </trkpt>
      <trkpt lat="47.51938" lon="6.77518">
        <ele>434.2</ele>
        <time>2017-02-05T10:27:10.999Z</time>
      </trkpt>
      <trkpt lat="47.51934" lon="6.77517">
        <ele>434.8</ele>
        <time>2017-02-05T10:27:11.999Z</time>
      </trkpt>
      <trkpt lat="47.51929" lon="6.77517">
        <ele>435.1</ele>
        <time>2017-02-05T10:27:12.999Z</time>
      </trkpt>
      <trkpt lat="47.51924" lon="6.77515">
        <ele>435.1</ele>
        <time>2017-02-05T10:27:13.999Z</time>
      </trkpt>
      <trkpt lat="47.5192" lon="6.77513">
        <ele>435.1</ele>
        <time>2017-02-05T10:27:14.999Z</time>
      </trkpt>
      <trkpt lat="47.51914" lon="6.77512">
        <ele>434.4</ele>
        <time>2017-02-05T10:27:15.999Z</time>
      </trkpt>
      <trkpt lat="47.5191" lon="6.7751">
        <ele>433.2</ele>
        <time>2017-02-05T10:27:16.999Z</time>
      </trkpt>
      <trkpt lat="47.51906" lon="6.77509">
        <ele>432.3</ele>
        <time>2017-02-05T10:27:17.999Z</time>
      </trkpt>
      <trkpt lat="47.51901" lon="6.77508">
        <ele>431.5</ele>
        <time>2017-02-05T10:27:18.999Z</time>
      </trkpt>
      <trkpt lat="47.51896" lon="6.77506">
        <ele>430.4</ele>
        <time>2017-02-05T10:27:19.999Z</time>
      </trkpt>
      <trkpt lat="47.51891" lon="6.77505">
        <ele>430.2</ele>
        <time>2017-02-05T10:27:20.999Z</time>
      </trkpt>
      <trkpt lat="47.51888" lon="6.77504">
        <ele>430.4</ele>
        <time>2017-02-05T10:27:21.999Z</time>
      </trkpt>
      <trkpt lat="47.51884" lon="6.77504">
        <ele>430.4</ele>
        <time>2017-02-05T10:27:22.999Z</time>
      </trkpt>
      <trkpt lat="47.5188" lon="6.77504">
        <ele>430.5</ele>
        <time>2017-02-05T10:27:23.999Z</time>
      </trkpt>
      <trkpt lat="47.51877" lon="6.77504">
        <ele>430.7</ele>
        <time>2017-02-05T10:27:24.999Z</time>
      </trkpt>
      <trkpt lat="47.51873" lon="6.77503">
        <ele>430.8</ele>
        <time>2017-02-05T10:27:25.999Z</time>
      </trkpt>
      <trkpt lat="47.51869" lon="6.77503">
        <ele>430.9</ele>
        <time>2017-02-05T10:27:26.999Z</time>
      </trkpt>
      <trkpt lat="47.51864" lon="6.77501">
        <ele>432</ele>
        <time>2017-02-05T10:27:27.999Z</time>
      </trkpt>
      <trkpt lat="47.5186" lon="6.77501">
        <ele>432.2</ele>
        <time>2017-02-05T10:27:28.999Z</time>
      </trkpt>
      <trkpt lat="47.51856" lon="6.77502">
        <ele>432.3</ele>
        <time>2017-02-05T10:27:29.999Z</time>
      </trkpt>
      <trkpt lat="47.51852" lon="6.77502">
        <ele>432.4</ele>
        <time>2017-02-05T10:27:30.999Z</time>
      </trkpt>
      <trkpt lat="47.51847" lon="6.77503">
        <ele>433.6</ele>
        <time>2017-02-05T10:27:31.999Z</time>
      </trkpt>
      <trkpt lat="47.51843" lon="6.77503">
        <ele>434.3</ele>
        <time>2017-02-05T10:27:32.999Z</time>
      </trkpt>
      <trkpt lat="47.51838" lon="6.77502">
        <ele>435.3</ele>
        <time>2017-02-05T10:27:33.999Z</time>
      </trkpt>
      <trkpt lat="47.51833" lon="6.775">
        <ele>436</ele>
        <time>2017-02-05T10:27:34.999Z</time>
      </trkpt>
      <trkpt lat="47.5183" lon="6.77499">
        <ele>436.4</ele>
        <time>2017-02-05T10:27:35.999Z</time>
      </trkpt>
      <trkpt lat="47.51826" lon="6.77498">
        <ele>436.7</ele>
        <time>2017-02-05T10:27:36.999Z</time>
      </trkpt>
      <trkpt lat="47.51822" lon="6.77497">
        <ele>436.6</ele>
        <time>2017-02-05T10:27:37.999Z</time>
      </trkpt>
      <trkpt lat="47.51819" lon="6.77497">
        <ele>436.6</ele>
        <time>2017-02-05T10:27:38.999Z</time>
      </trkpt>
      <trkpt lat="47.51815" lon="6.77497">
        <ele>436.7</ele>
        <time>2017-02-05T10:27:39.999Z</time>
      </trkpt>
      <trkpt lat="47.51812" lon="6.77498">
        <ele>436.6</ele>
        <time>2017-02-05T10:27:40.999Z</time>
      </trkpt>
      <trkpt lat="47.51807" lon="6.77499">
        <ele>436.7</ele>
        <time>2017-02-05T10:27:42.999Z</time>
      </trkpt>
      <trkpt lat="47.51805" lon="6.77499">
        <ele>436.7</ele>
        <time>2017-02-05T10:27:43.999Z</time>
      </trkpt>
      <trkpt lat="47.51801" lon="6.77499">
        <ele>436.8</ele>
        <time>2017-02-05T10:27:45.999Z</time>
      </trkpt>
      <trkpt lat="47.51799" lon="6.77499">
        <ele>436.8</ele>
        <time>2017-02-05T10:27:46.999Z</time>
      </trkpt>
      <trkpt lat="47.518" lon="6.77493">
        <ele>436.9</ele>
        <time>2017-02-05T10:27:48.999Z</time>
      </trkpt>
      <trkpt lat="47.51803" lon="6.77492">
        <ele>436.9</ele>
        <time>2017-02-05T10:27:49.999Z</time>
      </trkpt>
      <trkpt lat="47.51806" lon="6.77495">
        <ele>436.9</ele>
        <time>2017-02-05T10:27:50.999Z</time>
      </trkpt>
      <trkpt lat="47.51808" lon="6.77496">
        <ele>436.8</ele>
        <time>2017-02-05T10:27:51.999Z</time>
      </trkpt>
      <trkpt lat="47.51809" lon="6.77492">
        <ele>436.2</ele>
        <time>2017-02-05T10:27:52.999Z</time>
      </trkpt>
      <trkpt lat="47.51808" lon="6.77486">
        <ele>435.2</ele>
        <time>2017-02-05T10:27:53.999Z</time>
      </trkpt>
      <trkpt lat="47.51808" lon="6.77478">
        <ele>434.1</ele>
        <time>2017-02-05T10:27:54.999Z</time>
      </trkpt>
      <trkpt lat="47.51809" lon="6.77471">
        <ele>434</ele>
        <time>2017-02-05T10:27:55.999Z</time>
      </trkpt>
      <trkpt lat="47.51808" lon="6.77471">
        <ele>434</ele>
        <time>2017-02-05T10:27:58.999Z</time>
      </trkpt>
      <trkpt lat="47.51807" lon="6.77477">
        <ele>434</ele>
        <time>2017-02-05T10:27:59.999Z</time>
      </trkpt>
      <trkpt lat="47.51806" lon="6.77481">
        <ele>434.1</ele>
        <time>2017-02-05T10:28:00.999Z</time>
      </trkpt>
      <trkpt lat="47.51805" lon="6.77485">
        <ele>434.1</ele>
        <time>2017-02-05T10:28:01.999Z</time>
      </trkpt>
      <trkpt lat="47.51808" lon="6.77481">
        <ele>434.6</ele>
        <time>2017-02-05T10:28:18.999Z</time>
      </trkpt>
      <trkpt lat="47.51808" lon="6.7748">
        <ele>434.7</ele>
        <time>2017-02-05T10:28:19.999Z</time>
      </trkpt>
      <trkpt lat="47.51806" lon="6.77482">
        <ele>435.3</ele>
        <time>2017-02-05T10:28:24.999Z</time>
      </trkpt>
      <trkpt lat="47.51804" lon="6.77482">
        <ele>435.4</ele>
        <time>2017-02-05T10:28:25.999Z</time>
      </trkpt>
      <trkpt lat="47.51802" lon="6.77476">
        <ele>436.2</ele>
        <time>2017-02-05T10:29:11.999Z</time>
      </trkpt>
      <trkpt lat="47.51802" lon="6.77475">
        <ele>436</ele>
        <time>2017-02-05T10:29:12.999Z</time>
      </trkpt>
      <trkpt lat="47.518" lon="6.77476">
        <ele>433.2</ele>
        <time>2017-02-05T10:30:07.999Z</time>
      </trkpt>
    </trkseg>
  </trk>
</gpx>